<?xml version='1.0' encoding='UTF-8'?><gpx version="1.1" creator="JPX - https://github.com/jenetics/jpx" xmlns="http://www.topografix.com/GPX/1/1"><trk><trkseg><trkpt lat="14.559155436982817" lon="120.99323099079535"><ele>6.0</ele><time>2026-04-18T05:42:01.152Z</time></trkpt><trkpt lat="14.559092332922917" lon="120.99320711672642"><ele>6.0</ele><time>2026-04-18T05:42:02.152Z</time></trkpt><trkpt lat="14.559006709995508" lon="120.99322803197951"><ele>6.0</ele><time>2026-04-18T05:42:04.152Z</time></trkpt><trkpt lat="14.558938451154011" lon="120.99324351086013"><ele>6.0</ele><time>2026-04-18T05:42:06.152Z</time></trkpt><trkpt lat="14.558864601782423" lon="120.99327785196014"><ele>6.0</ele><time>2026-04-18T05:42:09.152Z</time></trkpt><trkpt lat="14.558777776910663" lon="120.9933030919335"><ele>6.0</ele><time>2026-04-18T05:42:12.152Z</time></trkpt><trkpt lat="14.558704314435515" lon="120.99332420333731"><ele>6.428571428571428</ele><time>2026-04-18T05:42:15.152Z</time></trkpt><trkpt lat="14.558639943415056" lon="120.99331257391079"><ele>6.857142857142858</ele><time>2026-04-18T05:42:17.996Z</time></trkpt><trkpt lat="14.558583107851343" lon="120.99334382030453"><ele>7.2857142857142865</ele><time>2026-04-18T05:42:20.997Z</time></trkpt><trkpt lat="14.558519746697684" lon="120.9933504214457"><ele>7.714285714285714</ele><time>2026-04-18T05:42:22.997Z</time></trkpt><trkpt lat="14.558452807008504" lon="120.99336069351624"><ele>8.142857142857142</ele><time>2026-04-18T05:42:24.998Z</time></trkpt><trkpt lat="14.558361639575333" lon="120.9933799860604"><ele>8.571428571428573</ele><time>2026-04-18T05:42:26.998Z</time></trkpt><trkpt lat="14.558276164020935" lon="120.99339981686126"><ele>9.0</ele><time>2026-04-18T05:42:28.998Z</time></trkpt><trkpt lat="14.558190793050938" lon="120.99342180606484"><ele>9.0</ele><time>2026-04-18T05:42:30.999Z</time></trkpt><trkpt lat="14.558157645058794" lon="120.99335613365123"><ele>9.0</ele><time>2026-04-18T05:42:32.999Z</time></trkpt><trkpt lat="14.55807804130829" lon="120.99337749795716"><ele>9.0</ele><time>2026-04-18T05:42:35.999Z</time></trkpt><trkpt lat="14.558026455149761" lon="120.99342134749043"><ele>9.0</ele><time>2026-04-18T05:42:37.999Z</time></trkpt><trkpt lat="14.557983419268755" lon="120.99335364745221"><ele>9.0</ele><time>2026-04-18T05:42:43Z</time></trkpt><trkpt lat="14.557960568896322" lon="120.99323995606755"><ele>9.0</ele><time>2026-04-18T05:42:46Z</time></trkpt><trkpt lat="14.557957302886201" lon="120.99314238303981"><ele>9.142857142857144</ele><time>2026-04-18T05:42:51Z</time></trkpt><trkpt lat="14.557941286117812" lon="120.99307799130221"><ele>9.285714285714286</ele><time>2026-04-18T05:42:52Z</time></trkpt><trkpt lat="14.557891019459658" lon="120.9930369758284"><ele>9.428571428571429</ele><time>2026-04-18T05:42:54Z</time></trkpt><trkpt lat="14.55787219983588" lon="120.99296618674754"><ele>9.571428571428573</ele><time>2026-04-18T05:42:57Z</time></trkpt><trkpt lat="14.557863767606735" lon="120.9928885158474"><ele>9.714285714285715</ele><time>2026-04-18T05:43:01.001Z</time></trkpt><trkpt lat="14.557835624350965" lon="120.99279165542316"><ele>9.857142857142858</ele><time>2026-04-18T05:43:04.001Z</time></trkpt><trkpt lat="14.557819811238343" lon="120.99271475799509"><ele>10.0</ele><time>2026-04-18T05:43:06.001Z</time></trkpt><trkpt lat="14.557821203149917" lon="120.99264777207048"><ele>10.333333333333334</ele><time>2026-04-18T05:43:09.001Z</time></trkpt><trkpt lat="14.557785175259758" lon="120.99256063758223"><ele>10.666666666666668</ele><time>2026-04-18T05:43:12.001Z</time></trkpt><trkpt lat="14.557756203530925" lon="120.99249157399677"><ele>11.0</ele><time>2026-04-18T05:43:14.001Z</time></trkpt><trkpt lat="14.557727695179553" lon="120.9924055807279"><ele>11.333333333333334</ele><time>2026-04-18T05:43:17.001Z</time></trkpt><trkpt lat="14.557693391061788" lon="120.99232249877642"><ele>11.666666666666666</ele><time>2026-04-18T05:43:19.001Z</time></trkpt><trkpt lat="14.55766009228022" lon="120.99223760325339"><ele>12.0</ele><time>2026-04-18T05:43:21.001Z</time></trkpt><trkpt lat="14.55764128232669" lon="120.99216412830921"><ele>11.333333333333334</ele><time>2026-04-18T05:43:23.001Z</time></trkpt><trkpt lat="14.557613204648229" lon="120.9921014931065"><ele>10.666666666666666</ele><time>2026-04-18T05:43:25.001Z</time></trkpt><trkpt lat="14.557570838654273" lon="120.99205098325743"><ele>10.0</ele><time>2026-04-18T05:43:26.001Z</time></trkpt><trkpt lat="14.557541914494275" lon="120.99198133964546"><ele>9.333333333333332</ele><time>2026-04-18T05:43:28.001Z</time></trkpt><trkpt lat="14.557535842186557" lon="120.99188818221246"><ele>8.666666666666666</ele><time>2026-04-18T05:43:31.001Z</time></trkpt><trkpt lat="14.557516006361402" lon="120.9917909056566"><ele>8.0</ele><time>2026-04-18T05:43:33.001Z</time></trkpt><trkpt lat="14.557490645997877" lon="120.9916833284505"><ele>7.800000000000001</ele><time>2026-04-18T05:43:35.001Z</time></trkpt><trkpt lat="14.557457051754726" lon="120.9915787197062"><ele>7.6000000000000005</ele><time>2026-04-18T05:43:37.001Z</time></trkpt><trkpt lat="14.557442438988472" lon="120.99151532607158"><ele>7.3999999999999995</ele><time>2026-04-18T05:43:38.001Z</time></trkpt><trkpt lat="14.557424295159016" lon="120.99145068015237"><ele>7.199999999999999</ele><time>2026-04-18T05:43:39.001Z</time></trkpt><trkpt lat="14.557384752798828" lon="120.99133368557231"><ele>7.0</ele><time>2026-04-18T05:43:41.001Z</time></trkpt><trkpt lat="14.557352074667495" lon="120.99121550446954"><ele>7.0</ele><time>2026-04-18T05:43:43.001Z</time></trkpt><trkpt lat="14.557327809162345" lon="120.99110749894056"><ele>6.999999999999999</ele><time>2026-04-18T05:43:45.001Z</time></trkpt><trkpt lat="14.557295626032905" lon="120.99100659510943"><ele>6.999999999999999</ele><time>2026-04-18T05:43:47.001Z</time></trkpt><trkpt lat="14.557267685538568" lon="120.99091161191544"><ele>7.0</ele><time>2026-04-18T05:43:49.001Z</time></trkpt><trkpt lat="14.557235537574805" lon="120.99080705246588"><ele>7.0</ele><time>2026-04-18T05:43:51.001Z</time></trkpt><trkpt lat="14.557211113716452" lon="120.99073292998052"><ele>6.8</ele><time>2026-04-18T05:43:54.002Z</time></trkpt><trkpt lat="14.557183108189436" lon="120.99066665274403"><ele>6.6</ele><time>2026-04-18T05:44:02.002Z</time></trkpt><trkpt lat="14.55707833881116" lon="120.9907104413064"><ele>6.3999999999999995</ele><time>2026-04-18T05:44:04.002Z</time></trkpt><trkpt lat="14.55699791886003" lon="120.99074607279586"><ele>6.199999999999999</ele><time>2026-04-18T05:44:05.002Z</time></trkpt><trkpt lat="14.556937949709273" lon="120.99076603204995"><ele>6.0</ele><time>2026-04-18T05:44:06.002Z</time></trkpt><trkpt lat="14.556822458367503" lon="120.99079639976941"><ele>6.0</ele><time>2026-04-18T05:44:08.002Z</time></trkpt><trkpt lat="14.55672389640231" lon="120.99082757266645"><ele>6.0</ele><time>2026-04-18T05:44:10.002Z</time></trkpt><trkpt lat="14.556605980471645" lon="120.99086489721498"><ele>6.0</ele><time>2026-04-18T05:44:12.002Z</time></trkpt><trkpt lat="14.556545259639162" lon="120.99088534760375"><ele>6.0</ele><time>2026-04-18T05:44:13.002Z</time></trkpt><trkpt lat="14.55648458189483" lon="120.99090811904048"><ele>6.0</ele><time>2026-04-18T05:44:14.002Z</time></trkpt><trkpt lat="14.556423911888505" lon="120.99093204181506"><ele>6.0</ele><time>2026-04-18T05:44:15.002Z</time></trkpt><trkpt lat="14.556359810174058" lon="120.99095001861822"><ele>6.0</ele><time>2026-04-18T05:44:16.002Z</time></trkpt><trkpt lat="14.556294362338114" lon="120.99096516669898"><ele>6.0</ele><time>2026-04-18T05:44:17.002Z</time></trkpt><trkpt lat="14.556231761111302" lon="120.9909896070226"><ele>6.0</ele><time>2026-04-18T05:44:18.002Z</time></trkpt><trkpt lat="14.556168031967148" lon="120.9910057847485"><ele>6.0</ele><time>2026-04-18T05:44:19.002Z</time></trkpt><trkpt lat="14.556057137973932" lon="120.99104487248738"><ele>6.0</ele><time>2026-04-18T05:44:21.002Z</time></trkpt><trkpt lat="14.55592791828552" lon="120.99107245777553"><ele>6.0</ele><time>2026-04-18T05:44:23.001Z</time></trkpt><trkpt lat="14.555855500637174" lon="120.99110058854201"><ele>6.4</ele><time>2026-04-18T05:44:24.001Z</time></trkpt><trkpt lat="14.55578878395053" lon="120.99112509674914"><ele>6.8</ele><time>2026-04-18T05:44:25.001Z</time></trkpt><trkpt lat="14.555723824609032" lon="120.99114499311344"><ele>7.200000000000001</ele><time>2026-04-18T05:44:26.001Z</time></trkpt><trkpt lat="14.555606603176788" lon="120.99117972849525"><ele>7.6000000000000005</ele><time>2026-04-18T05:44:28.001Z</time></trkpt><trkpt lat="14.55551166097946" lon="120.99121949183336"><ele>8.0</ele><time>2026-04-18T05:44:30.001Z</time></trkpt><trkpt lat="14.555397796408386" lon="120.99124804771155"><ele>8.0</ele><time>2026-04-18T05:44:32.001Z</time></trkpt><trkpt lat="14.55532833974077" lon="120.99127129251377"><ele>8.0</ele><time>2026-04-18T05:44:33.001Z</time></trkpt><trkpt lat="14.555225105642217" lon="120.99131057130553"><ele>8.0</ele><time>2026-04-18T05:44:35.001Z</time></trkpt><trkpt lat="14.555117970813624" lon="120.99133297302316"><ele>8.0</ele><time>2026-04-18T05:44:37.001Z</time></trkpt><trkpt lat="14.55505801907096" lon="120.99136033254017"><ele>8.0</ele><time>2026-04-18T05:44:41.001Z</time></trkpt><trkpt lat="14.554962278423064" lon="120.99138255870756"><ele>8.0</ele><time>2026-04-18T05:44:43.001Z</time></trkpt><trkpt lat="14.554878876539712" lon="120.9913874240791"><ele>8.0</ele><time>2026-04-18T05:44:45.001Z</time></trkpt><trkpt lat="14.554763687170704" lon="120.99142331168149"><ele>8.0</ele><time>2026-04-18T05:44:47.001Z</time></trkpt><trkpt lat="14.55464873103322" lon="120.99145594450239"><ele>8.0</ele><time>2026-04-18T05:44:49.001Z</time></trkpt><trkpt lat="14.554574787054895" lon="120.99147515411923"><ele>8.0</ele><time>2026-04-18T05:44:51.001Z</time></trkpt><trkpt lat="14.554477005263234" lon="120.99149648735732"><ele>7.6000000000000005</ele><time>2026-04-18T05:44:53.001Z</time></trkpt><trkpt lat="14.554373349445596" lon="120.99152509603"><ele>7.200000000000001</ele><time>2026-04-18T05:44:55.001Z</time></trkpt><trkpt lat="14.554270881671357" lon="120.99156099772937"><ele>6.8</ele><time>2026-04-18T05:44:57.001Z</time></trkpt><trkpt lat="14.554172169901218" lon="120.99160046577421"><ele>6.4</ele><time>2026-04-18T05:44:59.001Z</time></trkpt><trkpt lat="14.554096372916568" lon="120.99162030279572"><ele>6.0</ele><time>2026-04-18T05:45:01.001Z</time></trkpt><trkpt lat="14.55403007985276" lon="120.9916392018896"><ele>6.0</ele><time>2026-04-18T05:45:04.001Z</time></trkpt><trkpt lat="14.553946141388012" lon="120.99164387317393"><ele>6.0</ele><time>2026-04-18T05:45:10.001Z</time></trkpt><trkpt lat="14.553879962121693" lon="120.99168109390784"><ele>6.0</ele><time>2026-04-18T05:45:20.001Z</time></trkpt><trkpt lat="14.553817331758601" lon="120.99169502159761"><ele>6.0</ele><time>2026-04-18T05:45:24.001Z</time></trkpt><trkpt lat="14.55373397931355" lon="120.99171852887241"><ele>6.0</ele><time>2026-04-18T05:45:27.001Z</time></trkpt><trkpt lat="14.553671204603956" lon="120.99173874597437"><ele>6.0</ele><time>2026-04-18T05:45:29.001Z</time></trkpt><trkpt lat="14.553594865079207" lon="120.99176505792677"><ele>6.571428571428571</ele><time>2026-04-18T05:45:31.001Z</time></trkpt><trkpt lat="14.553519335372584" lon="120.99179196906175"><ele>7.142857142857142</ele><time>2026-04-18T05:45:33.001Z</time></trkpt><trkpt lat="14.553453654943636" lon="120.99181442714669"><ele>7.7142857142857135</ele><time>2026-04-18T05:45:35.001Z</time></trkpt><trkpt lat="14.553390479317343" lon="120.99184529729997"><ele>8.285714285714285</ele><time>2026-04-18T05:45:38.001Z</time></trkpt><trkpt lat="14.553316937748953" lon="120.99186835134658"><ele>8.857142857142858</ele><time>2026-04-18T05:45:42.001Z</time></trkpt><trkpt lat="14.553244655013616" lon="120.99188340015614"><ele>9.428571428571429</ele><time>2026-04-18T05:45:46.001Z</time></trkpt><trkpt lat="14.55317763843028" lon="120.99186979125918"><ele>10.0</ele><time>2026-04-18T05:45:49.001Z</time></trkpt><trkpt lat="14.553141863979176" lon="120.99179590595594"><ele>10.0</ele><time>2026-04-18T05:45:52.001Z</time></trkpt><trkpt lat="14.553102987351787" lon="120.99173190894071"><ele>10.0</ele><time>2026-04-18T05:45:54.001Z</time></trkpt><trkpt lat="14.553061161829328" lon="120.99157319489237"><ele>10.0</ele><time>2026-04-18T05:45:56.001Z</time></trkpt><trkpt lat="14.55304077876231" lon="120.99150671534932"><ele>10.0</ele><time>2026-04-18T05:45:57.001Z</time></trkpt><trkpt lat="14.553021579931677" lon="120.99144168510266"><ele>10.0</ele><time>2026-04-18T05:45:58.001Z</time></trkpt><trkpt lat="14.553001200842477" lon="120.99137579560443"><ele>10.0</ele><time>2026-04-18T05:45:59.001Z</time></trkpt><trkpt lat="14.552981339528491" lon="120.9913083567888"><ele>10.0</ele><time>2026-04-18T05:46:00.001Z</time></trkpt><trkpt lat="14.552956937155672" lon="120.99123693256311"><ele>10.0</ele><time>2026-04-18T05:46:01.001Z</time></trkpt><trkpt lat="14.552934028647718" lon="120.99116951679342"><ele>10.0</ele><time>2026-04-18T05:46:02.001Z</time></trkpt><trkpt lat="14.552908386630271" lon="120.9910936618204"><ele>10.0</ele><time>2026-04-18T05:46:03.001Z</time></trkpt><trkpt lat="14.552883037453599" lon="120.99101650089223"><ele>10.0</ele><time>2026-04-18T05:46:04.001Z</time></trkpt><trkpt lat="14.552861081153285" lon="120.99094602921544"><ele>10.0</ele><time>2026-04-18T05:46:05.001Z</time></trkpt><trkpt lat="14.55283060765136" lon="120.99086821409463"><ele>10.0</ele><time>2026-04-18T05:46:06.001Z</time></trkpt><trkpt lat="14.552803309504165" lon="120.9907872774542"><ele>10.0</ele><time>2026-04-18T05:46:07.001Z</time></trkpt><trkpt lat="14.552778176415652" lon="120.99069196158233"><ele>10.0</ele><time>2026-04-18T05:46:08.001Z</time></trkpt><trkpt lat="14.552752270012864" lon="120.99059948925601"><ele>10.0</ele><time>2026-04-18T05:46:09.001Z</time></trkpt><trkpt lat="14.552725132599447" lon="120.99051062724081"><ele>10.0</ele><time>2026-04-18T05:46:10.001Z</time></trkpt><trkpt lat="14.552694455310425" lon="120.99042667801916"><ele>10.0</ele><time>2026-04-18T05:46:11.001Z</time></trkpt><trkpt lat="14.552676046578247" lon="120.99034233065511"><ele>10.0</ele><time>2026-04-18T05:46:12.001Z</time></trkpt><trkpt lat="14.552657208304414" lon="120.99026949204321"><ele>10.0</ele><time>2026-04-18T05:46:13.001Z</time></trkpt><trkpt lat="14.552641816848709" lon="120.99019907501562"><ele>10.0</ele><time>2026-04-18T05:46:14.001Z</time></trkpt><trkpt lat="14.552620762615746" lon="120.99013079927938"><ele>10.0</ele><time>2026-04-18T05:46:15.001Z</time></trkpt><trkpt lat="14.552600226404065" lon="120.99006917237845"><ele>10.0</ele><time>2026-04-18T05:46:16.001Z</time></trkpt><trkpt lat="14.552584630283446" lon="120.9900032222345"><ele>10.0</ele><time>2026-04-18T05:46:17.001Z</time></trkpt><trkpt lat="14.552567452480103" lon="120.98993702469173"><ele>10.0</ele><time>2026-04-18T05:46:18.001Z</time></trkpt><trkpt lat="14.552537309240499" lon="120.98982221617476"><ele>10.0</ele><time>2026-04-18T05:46:20.001Z</time></trkpt><trkpt lat="14.552496270088179" lon="120.98970628214519"><ele>10.0</ele><time>2026-04-18T05:46:22.001Z</time></trkpt><trkpt lat="14.552472822805315" lon="120.98964566099369"><ele>10.0</ele><time>2026-04-18T05:46:23.001Z</time></trkpt><trkpt lat="14.552434454150708" lon="120.98953096927758"><ele>10.0</ele><time>2026-04-18T05:46:25.001Z</time></trkpt><trkpt lat="14.552395274793534" lon="120.98942132979221"><ele>10.0</ele><time>2026-04-18T05:46:27.001Z</time></trkpt><trkpt lat="14.552361511934535" lon="120.98930304560518"><ele>10.0</ele><time>2026-04-18T05:46:29.001Z</time></trkpt><trkpt lat="14.552342587702054" lon="120.98923580119003"><ele>10.0</ele><time>2026-04-18T05:46:30.001Z</time></trkpt><trkpt lat="14.552324337602192" lon="120.98917253568466"><ele>10.0</ele><time>2026-04-18T05:46:31.001Z</time></trkpt><trkpt lat="14.552291394735345" lon="120.98905424657788"><ele>10.0</ele><time>2026-04-18T05:46:33.001Z</time></trkpt><trkpt lat="14.552254699222601" lon="120.98896806755418"><ele>10.0</ele><time>2026-04-18T05:46:35.001Z</time></trkpt><trkpt lat="14.552232736381264" lon="120.98889008065127"><ele>10.0</ele><time>2026-04-18T05:46:38.001Z</time></trkpt><trkpt lat="14.552213513736355" lon="120.98881323548913"><ele>9.428571428571429</ele><time>2026-04-18T05:46:41.001Z</time></trkpt><trkpt lat="14.55218733665313" lon="120.98872508817445"><ele>8.857142857142858</ele><time>2026-04-18T05:46:44Z</time></trkpt><trkpt lat="14.55217106556128" lon="120.98866070382901"><ele>8.285714285714285</ele><time>2026-04-18T05:46:49Z</time></trkpt><trkpt lat="14.552153030497973" lon="120.98859833330626"><ele>7.7142857142857135</ele><time>2026-04-18T05:46:55Z</time></trkpt><trkpt lat="14.552132070405527" lon="120.98852346644335"><ele>7.142857142857142</ele><time>2026-04-18T05:46:58Z</time></trkpt><trkpt lat="14.552106915117255" lon="120.9884547571646"><ele>6.571428571428571</ele><time>2026-04-18T05:47:00Z</time></trkpt><trkpt lat="14.552072704567435" lon="120.98838607936561"><ele>6.0</ele><time>2026-04-18T05:47:03Z</time></trkpt><trkpt lat="14.552008854144015" lon="120.98836184518588"><ele>5.8</ele><time>2026-04-18T05:47:07Z</time></trkpt><trkpt lat="14.551943276621078" lon="120.98835841813589"><ele>5.6</ele><time>2026-04-18T05:47:14Z</time></trkpt><trkpt lat="14.55187645937992" lon="120.9884513158585"><ele>5.4</ele><time>2026-04-18T05:47:16Z</time></trkpt><trkpt lat="14.551906757679296" lon="120.98860089757632"><ele>5.2</ele><time>2026-04-18T05:47:18Z</time></trkpt><trkpt lat="14.551938145378783" lon="120.98869852561951"><ele>5.0</ele><time>2026-04-18T05:47:20Z</time></trkpt><trkpt lat="14.551972503487738" lon="120.98880539275575"><ele>5.0</ele><time>2026-04-18T05:47:22Z</time></trkpt><trkpt lat="14.552016033427641" lon="120.9889154527761"><ele>5.0</ele><time>2026-04-18T05:47:24Z</time></trkpt><trkpt lat="14.552035347859048" lon="120.98902175374572"><ele>5.0</ele><time>2026-04-18T05:47:26Z</time></trkpt><trkpt lat="14.552048303456822" lon="120.98908735298961"><ele>5.0</ele><time>2026-04-18T05:47:29Z</time></trkpt><trkpt lat="14.552072660658942" lon="120.98917215613288"><ele>5.0</ele><time>2026-04-18T05:47:33Z</time></trkpt><trkpt lat="14.552097522806141" lon="120.98924771201946"><ele>5.0</ele><time>2026-04-18T05:47:37Z</time></trkpt><trkpt lat="14.552121119076812" lon="120.98933444971732"><ele>5.666666666666667</ele><time>2026-04-18T05:47:40Z</time></trkpt><trkpt lat="14.552117118752442" lon="120.98940488003333"><ele>6.333333333333334</ele><time>2026-04-18T05:47:42Z</time></trkpt><trkpt lat="14.552060975208398" lon="120.98945667891135"><ele>7.0</ele><time>2026-04-18T05:47:45Z</time></trkpt><trkpt lat="14.551991400617457" lon="120.98948434848414"><ele>7.666666666666667</ele><time>2026-04-18T05:47:47Z</time></trkpt><trkpt lat="14.551889935651024" lon="120.98950069127464"><ele>8.333333333333334</ele><time>2026-04-18T05:47:49Z</time></trkpt><trkpt lat="14.55182399921066" lon="120.98951344854461"><ele>9.0</ele><time>2026-04-18T05:47:50.001Z</time></trkpt><trkpt lat="14.551752441906071" lon="120.9895237818338"><ele>9.0</ele><time>2026-04-18T05:47:51.001Z</time></trkpt><trkpt lat="14.551675543756371" lon="120.989536359175"><ele>9.0</ele><time>2026-04-18T05:47:52.001Z</time></trkpt><trkpt lat="14.551593895546711" lon="120.98955439989172"><ele>9.0</ele><time>2026-04-18T05:47:53.001Z</time></trkpt><trkpt lat="14.551509020245613" lon="120.98957264852906"><ele>9.0</ele><time>2026-04-18T05:47:54.001Z</time></trkpt><trkpt lat="14.55141893671323" lon="120.9895908788375"><ele>9.0</ele><time>2026-04-18T05:47:55.001Z</time></trkpt><trkpt lat="14.551327038030706" lon="120.98961150254442"><ele>9.0</ele><time>2026-04-18T05:47:56.001Z</time></trkpt><trkpt lat="14.551230793215343" lon="120.98963312301257"><ele>8.6</ele><time>2026-04-18T05:47:57.001Z</time></trkpt><trkpt lat="14.551133828271201" lon="120.989655077825"><ele>8.2</ele><time>2026-04-18T05:47:58.001Z</time></trkpt><trkpt lat="14.551035098836135" lon="120.98967955752033"><ele>7.799999999999999</ele><time>2026-04-18T05:47:59.001Z</time></trkpt><trkpt lat="14.550933250818193" lon="120.98970457593074"><ele>7.3999999999999995</ele><time>2026-04-18T05:48:00.001Z</time></trkpt><trkpt lat="14.550828544207944" lon="120.98972913116218"><ele>7.0</ele><time>2026-04-18T05:48:01.001Z</time></trkpt><trkpt lat="14.550720161440527" lon="120.98975502554"><ele>7.0</ele><time>2026-04-18T05:48:02.001Z</time></trkpt><trkpt lat="14.550604890427632" lon="120.98977797482114"><ele>7.0</ele><time>2026-04-18T05:48:03.001Z</time></trkpt><trkpt lat="14.550489451889137" lon="120.989804528938"><ele>7.0</ele><time>2026-04-18T05:48:04.001Z</time></trkpt><trkpt lat="14.550370849344134" lon="120.9898313090814"><ele>7.0</ele><time>2026-04-18T05:48:05.001Z</time></trkpt><trkpt lat="14.550250841716355" lon="120.98985895805176"><ele>7.25</ele><time>2026-04-18T05:48:06.001Z</time></trkpt><trkpt lat="14.550128236023411" lon="120.9898879627204"><ele>7.5</ele><time>2026-04-18T05:48:07.001Z</time></trkpt><trkpt lat="14.550001409724114" lon="120.9899179875688"><ele>7.75</ele><time>2026-04-18T05:48:08.001Z</time></trkpt><trkpt lat="14.54987563742334" lon="120.98994601064928"><ele>8.0</ele><time>2026-04-18T05:48:09.001Z</time></trkpt><trkpt lat="14.549750005471589" lon="120.98997541817369"><ele>8.0</ele><time>2026-04-18T05:48:10.001Z</time></trkpt><trkpt lat="14.54962590004413" lon="120.99000474458303"><ele>8.0</ele><time>2026-04-18T05:48:11.001Z</time></trkpt><trkpt lat="14.549502842878631" lon="120.99003729584624"><ele>8.0</ele><time>2026-04-18T05:48:12.001Z</time></trkpt><trkpt lat="14.54937541820856" lon="120.99007208270558"><ele>8.0</ele><time>2026-04-18T05:48:13.001Z</time></trkpt><trkpt lat="14.549253924579064" lon="120.99010444995997"><ele>8.0</ele><time>2026-04-18T05:48:14.001Z</time></trkpt><trkpt lat="14.549135984431205" lon="120.99014076831222"><ele>8.0</ele><time>2026-04-18T05:48:15.001Z</time></trkpt><trkpt lat="14.549019400450122" lon="120.9901779007583"><ele>8.0</ele><time>2026-04-18T05:48:16.001Z</time></trkpt><trkpt lat="14.548907991553413" lon="120.9902175944032"><ele>8.0</ele><time>2026-04-18T05:48:17.001Z</time></trkpt><trkpt lat="14.54879205802213" lon="120.99025776658495"><ele>9.75</ele><time>2026-04-18T05:48:18.001Z</time></trkpt><trkpt lat="14.548673635163025" lon="120.99029582065789"><ele>11.5</ele><time>2026-04-18T05:48:19.001Z</time></trkpt><trkpt lat="14.548555981629859" lon="120.99032661655139"><ele>13.25</ele><time>2026-04-18T05:48:20.001Z</time></trkpt><trkpt lat="14.548434193037346" lon="120.99036205417636"><ele>15.0</ele><time>2026-04-18T05:48:21.001Z</time></trkpt><trkpt lat="14.548314537481918" lon="120.99039651283492"><ele>15.0</ele><time>2026-04-18T05:48:22.001Z</time></trkpt><trkpt lat="14.548198199619806" lon="120.99042853813046"><ele>15.0</ele><time>2026-04-18T05:48:23.001Z</time></trkpt><trkpt lat="14.548084690906819" lon="120.9904580465748"><ele>15.0</ele><time>2026-04-18T05:48:24.001Z</time></trkpt><trkpt lat="14.54797658266406" lon="120.99048627116818"><ele>15.0</ele><time>2026-04-18T05:48:25.001Z</time></trkpt><trkpt lat="14.547869395912528" lon="120.99051608654884"><ele>13.6</ele><time>2026-04-18T05:48:26.001Z</time></trkpt><trkpt lat="14.547762132098098" lon="120.99054750308905"><ele>12.2</ele><time>2026-04-18T05:48:27.001Z</time></trkpt><trkpt lat="14.547658313369842" lon="120.99057666569617"><ele>10.8</ele><time>2026-04-18T05:48:28.001Z</time></trkpt><trkpt lat="14.547557428548235" lon="120.99060407517231"><ele>9.4</ele><time>2026-04-18T05:48:29.001Z</time></trkpt><trkpt lat="14.547462648048917" lon="120.99062935496387"><ele>8.0</ele><time>2026-04-18T05:48:30.001Z</time></trkpt><trkpt lat="14.547360466632776" lon="120.99065530922594"><ele>8.0</ele><time>2026-04-18T05:48:31.001Z</time></trkpt><trkpt lat="14.547258444231916" lon="120.99068041778466"><ele>8.0</ele><time>2026-04-18T05:48:32.001Z</time></trkpt><trkpt lat="14.547156737489487" lon="120.99070355513987"><ele>8.0</ele><time>2026-04-18T05:48:33.001Z</time></trkpt><trkpt lat="14.547052937932241" lon="120.99072883223316"><ele>8.0</ele><time>2026-04-18T05:48:34.001Z</time></trkpt><trkpt lat="14.546948917507326" lon="120.9907541386377"><ele>8.0</ele><time>2026-04-18T05:48:35.001Z</time></trkpt><trkpt lat="14.54684418108032" lon="120.99077761514904"><ele>7.800000000000001</ele><time>2026-04-18T05:48:36Z</time></trkpt><trkpt lat="14.54673623751435" lon="120.99080292737878"><ele>7.6000000000000005</ele><time>2026-04-18T05:48:37Z</time></trkpt><trkpt lat="14.546628554725379" lon="120.99082650948966"><ele>7.3999999999999995</ele><time>2026-04-18T05:48:38Z</time></trkpt><trkpt lat="14.546518419100433" lon="120.9908516085576"><ele>7.199999999999999</ele><time>2026-04-18T05:48:39Z</time></trkpt><trkpt lat="14.546409634038058" lon="120.99087705539365"><ele>7.0</ele><time>2026-04-18T05:48:40Z</time></trkpt><trkpt lat="14.546307278568028" lon="120.99088979793993"><ele>7.0</ele><time>2026-04-18T05:48:41Z</time></trkpt><trkpt lat="14.546206974090302" lon="120.99091166411623"><ele>6.999999999999999</ele><time>2026-04-18T05:48:42Z</time></trkpt><trkpt lat="14.546113456299773" lon="120.9909325984253"><ele>6.999999999999999</ele><time>2026-04-18T05:48:43Z</time></trkpt><trkpt lat="14.54601834838001" lon="120.99096143750917"><ele>7.0</ele><time>2026-04-18T05:48:44Z</time></trkpt><trkpt lat="14.545919380110215" lon="120.99098586734844"><ele>7.0</ele><time>2026-04-18T05:48:45Z</time></trkpt><trkpt lat="14.545820769843697" lon="120.99101115803794"><ele>7.0</ele><time>2026-04-18T05:48:46Z</time></trkpt><trkpt lat="14.545716202843044" lon="120.9910395351416"><ele>6.999999999999999</ele><time>2026-04-18T05:48:47Z</time></trkpt><trkpt lat="14.545612838073557" lon="120.991066003494"><ele>6.999999999999999</ele><time>2026-04-18T05:48:48Z</time></trkpt><trkpt lat="14.545511178850031" lon="120.99109328210783"><ele>7.0</ele><time>2026-04-18T05:48:49Z</time></trkpt><trkpt lat="14.545408725672852" lon="120.99111897925852"><ele>7.0</ele><time>2026-04-18T05:48:50Z</time></trkpt><trkpt lat="14.545309574721905" lon="120.99114403782366"><ele>7.8</ele><time>2026-04-18T05:48:51Z</time></trkpt><trkpt lat="14.545210772656686" lon="120.99116848223154"><ele>8.6</ele><time>2026-04-18T05:48:52Z</time></trkpt><trkpt lat="14.545113155197331" lon="120.99119259864791"><ele>9.4</ele><time>2026-04-18T05:48:53Z</time></trkpt><trkpt lat="14.54501374827423" lon="120.99121483415264"><ele>10.200000000000001</ele><time>2026-04-18T05:48:54Z</time></trkpt><trkpt lat="14.544912997833025" lon="120.99123868018972"><ele>11.0</ele><time>2026-04-18T05:48:55Z</time></trkpt><trkpt lat="14.544812960629624" lon="120.99125985074382"><ele>11.0</ele><time>2026-04-18T05:48:56Z</time></trkpt><trkpt lat="14.544711638155263" lon="120.9912812480981"><ele>11.0</ele><time>2026-04-18T05:48:57Z</time></trkpt><trkpt lat="14.544610126520622" lon="120.99129969813738"><ele>11.0</ele><time>2026-04-18T05:48:58Z</time></trkpt><trkpt lat="14.544509325078797" lon="120.99131777461766"><ele>11.0</ele><time>2026-04-18T05:48:59Z</time></trkpt><trkpt lat="14.544405204298203" lon="120.99133814927015"><ele>11.0</ele><time>2026-04-18T05:49:00Z</time></trkpt><trkpt lat="14.54429981459724" lon="120.99135794305428"><ele>10.4</ele><time>2026-04-18T05:49:01Z</time></trkpt><trkpt lat="14.544192617783606" lon="120.99137842210017"><ele>9.8</ele><time>2026-04-18T05:49:02Z</time></trkpt><trkpt lat="14.544082768902049" lon="120.9913998012074"><ele>9.200000000000001</ele><time>2026-04-18T05:49:03Z</time></trkpt><trkpt lat="14.543971087543104" lon="120.9914204105032"><ele>8.600000000000001</ele><time>2026-04-18T05:49:04Z</time></trkpt><trkpt lat="14.543858590931611" lon="120.99143831984723"><ele>8.0</ele><time>2026-04-18T05:49:05Z</time></trkpt><trkpt lat="14.543743970902625" lon="120.99145638896069"><ele>7.5</ele><time>2026-04-18T05:49:06Z</time></trkpt><trkpt lat="14.543629302158916" lon="120.99147512068825"><ele>7.0</ele><time>2026-04-18T05:49:07Z</time></trkpt><trkpt lat="14.543515403050266" lon="120.991491854481"><ele>6.5</ele><time>2026-04-18T05:49:08Z</time></trkpt><trkpt lat="14.543398974050078" lon="120.99150981902466"><ele>6.0</ele><time>2026-04-18T05:49:09Z</time></trkpt><trkpt lat="14.543282060800541" lon="120.99153161884085"><ele>6.0</ele><time>2026-04-18T05:49:10Z</time></trkpt><trkpt lat="14.543164703191987" lon="120.99155547646892"><ele>6.0</ele><time>2026-04-18T05:49:11Z</time></trkpt><trkpt lat="14.543049104281286" lon="120.99157598115883"><ele>6.0</ele><time>2026-04-18T05:49:12Z</time></trkpt><trkpt lat="14.542933526363953" lon="120.99159614734643"><ele>6.0</ele><time>2026-04-18T05:49:13Z</time></trkpt><trkpt lat="14.542816373862493" lon="120.99161852494767"><ele>5.75</ele><time>2026-04-18T05:49:14Z</time></trkpt><trkpt lat="14.542699731829558" lon="120.99163775127927"><ele>5.5</ele><time>2026-04-18T05:49:15Z</time></trkpt><trkpt lat="14.54258426968266" lon="120.9916563343677"><ele>5.25</ele><time>2026-04-18T05:49:16Z</time></trkpt><trkpt lat="14.542466811274771" lon="120.99167821317222"><ele>5.0</ele><time>2026-04-18T05:49:17Z</time></trkpt><trkpt lat="14.542351265181969" lon="120.99170242596895"><ele>5.5</ele><time>2026-04-18T05:49:18Z</time></trkpt><trkpt lat="14.542232429836004" lon="120.99172483416507"><ele>6.0</ele><time>2026-04-18T05:49:19Z</time></trkpt><trkpt lat="14.54211894921639" lon="120.99174645866269"><ele>6.5</ele><time>2026-04-18T05:49:20Z</time></trkpt><trkpt lat="14.542004719762033" lon="120.99176776795889"><ele>7.0</ele><time>2026-04-18T05:49:21Z</time></trkpt><trkpt lat="14.541891141294581" lon="120.99178732877732"><ele>7.0</ele><time>2026-04-18T05:49:22Z</time></trkpt><trkpt lat="14.54177868942489" lon="120.99180536577393"><ele>7.0</ele><time>2026-04-18T05:49:23Z</time></trkpt><trkpt lat="14.54166545752108" lon="120.99182396042099"><ele>7.0</ele><time>2026-04-18T05:49:24Z</time></trkpt><trkpt lat="14.541556302938883" lon="120.99184048345177"><ele>7.0</ele><time>2026-04-18T05:49:25Z</time></trkpt><trkpt lat="14.541441719516959" lon="120.99185796050733"><ele>7.0</ele><time>2026-04-18T05:49:26Z</time></trkpt><trkpt lat="14.541327160304483" lon="120.9918764811008"><ele>7.0</ele><time>2026-04-18T05:49:27Z</time></trkpt><trkpt lat="14.541217328838103" lon="120.99189629682297"><ele>7.0</ele><time>2026-04-18T05:49:28Z</time></trkpt><trkpt lat="14.541105292863097" lon="120.99191542042905"><ele>7.0</ele><time>2026-04-18T05:49:29Z</time></trkpt><trkpt lat="14.54098713651335" lon="120.99194092914243"><ele>10.25</ele><time>2026-04-18T05:49:30Z</time></trkpt><trkpt lat="14.540875137151934" lon="120.99195985289526"><ele>13.5</ele><time>2026-04-18T05:49:31Z</time></trkpt><trkpt lat="14.540761922082211" lon="120.99197828006628"><ele>16.75</ele><time>2026-04-18T05:49:32Z</time></trkpt><trkpt lat="14.540650495184126" lon="120.99199626746234"><ele>20.0</ele><time>2026-04-18T05:49:33Z</time></trkpt><trkpt lat="14.54054083119263" lon="120.99200846970659"><ele>20.0</ele><time>2026-04-18T05:49:34Z</time></trkpt><trkpt lat="14.540433437548208" lon="120.99202127879664"><ele>20.0</ele><time>2026-04-18T05:49:35Z</time></trkpt><trkpt lat="14.540326559514341" lon="120.99203467543471"><ele>20.0</ele><time>2026-04-18T05:49:36Z</time></trkpt><trkpt lat="14.540221133348865" lon="120.99204568220792"><ele>20.0</ele><time>2026-04-18T05:49:37Z</time></trkpt><trkpt lat="14.540114637773824" lon="120.9920581865148"><ele>20.0</ele><time>2026-04-18T05:49:38Z</time></trkpt><trkpt lat="14.540007781615351" lon="120.9920712133612"><ele>17.8</ele><time>2026-04-18T05:49:39Z</time></trkpt><trkpt lat="14.539900666664758" lon="120.99208023466686"><ele>15.6</ele><time>2026-04-18T05:49:40Z</time></trkpt><trkpt lat="14.539794193370582" lon="120.99209347311515"><ele>13.4</ele><time>2026-04-18T05:49:41Z</time></trkpt><trkpt lat="14.5396901592838" lon="120.9921071180676"><ele>11.2</ele><time>2026-04-18T05:49:42Z</time></trkpt><trkpt lat="14.53958988270545" lon="120.99211483841309"><ele>9.0</ele><time>2026-04-18T05:49:43Z</time></trkpt><trkpt lat="14.539484622489757" lon="120.99213286867784"><ele>8.4</ele><time>2026-04-18T05:49:44Z</time></trkpt><trkpt lat="14.539379144121456" lon="120.99215301347598"><ele>7.800000000000001</ele><time>2026-04-18T05:49:45Z</time></trkpt><trkpt lat="14.539275138788243" lon="120.99216909439045"><ele>7.199999999999999</ele><time>2026-04-18T05:49:46Z</time></trkpt><trkpt lat="14.539168728310367" lon="120.99218723875872"><ele>6.6</ele><time>2026-04-18T05:49:47Z</time></trkpt><trkpt lat="14.53905805114135" lon="120.99219872620905"><ele>6.0</ele><time>2026-04-18T05:49:48Z</time></trkpt><trkpt lat="14.538945600345622" lon="120.99221207072134"><ele>6.0</ele><time>2026-04-18T05:49:49Z</time></trkpt><trkpt lat="14.538831672157785" lon="120.99222612622312"><ele>6.0</ele><time>2026-04-18T05:49:50Z</time></trkpt><trkpt lat="14.538715990892603" lon="120.99224074735423"><ele>6.0</ele><time>2026-04-18T05:49:51Z</time></trkpt><trkpt lat="14.538600303662655" lon="120.99225671918437"><ele>6.0</ele><time>2026-04-18T05:49:52Z</time></trkpt><trkpt lat="14.538484996700852" lon="120.99226916849929"><ele>6.75</ele><time>2026-04-18T05:49:53Z</time></trkpt><trkpt lat="14.538370942700366" lon="120.9922831879076"><ele>7.5</ele><time>2026-04-18T05:49:54Z</time></trkpt><trkpt lat="14.538255829660619" lon="120.99229671263029"><ele>8.25</ele><time>2026-04-18T05:49:55Z</time></trkpt><trkpt lat="14.53814181618147" lon="120.99231027822215"><ele>9.0</ele><time>2026-04-18T05:49:56Z</time></trkpt><trkpt lat="14.538031524217864" lon="120.99232454486223"><ele>9.0</ele><time>2026-04-18T05:49:57Z</time></trkpt><trkpt lat="14.53792535062727" lon="120.99233768181135"><ele>9.0</ele><time>2026-04-18T05:49:58Z</time></trkpt><trkpt lat="14.53782216689793" lon="120.99235043306477"><ele>9.0</ele><time>2026-04-18T05:49:59Z</time></trkpt><trkpt lat="14.537720668554739" lon="120.99236221351207"><ele>9.0</ele><time>2026-04-18T05:50:00Z</time></trkpt><trkpt lat="14.537624550717604" lon="120.99237282059318"><ele>9.0</ele><time>2026-04-18T05:50:01Z</time></trkpt><trkpt lat="14.537531470490174" lon="120.99238529368522"><ele>8.2</ele><time>2026-04-18T05:50:02Z</time></trkpt><trkpt lat="14.537435315447151" lon="120.99239585592916"><ele>7.4</ele><time>2026-04-18T05:50:03Z</time></trkpt><trkpt lat="14.537335687868705" lon="120.99240849370611"><ele>6.6</ele><time>2026-04-18T05:50:04Z</time></trkpt><trkpt lat="14.53723888034385" lon="120.99241822255418"><ele>5.8</ele><time>2026-04-18T05:50:05Z</time></trkpt><trkpt lat="14.537142129765526" lon="120.99242882981785"><ele>5.0</ele><time>2026-04-18T05:50:06Z</time></trkpt><trkpt lat="14.537046655368478" lon="120.99244144453769"><ele>4.8</ele><time>2026-04-18T05:50:07Z</time></trkpt><trkpt lat="14.536957239968066" lon="120.99245122784133"><ele>4.6</ele><time>2026-04-18T05:50:08Z</time></trkpt><trkpt lat="14.536866887290124" lon="120.9924641648726"><ele>4.4</ele><time>2026-04-18T05:50:09Z</time></trkpt><trkpt lat="14.536776976276284" lon="120.9924760179751"><ele>4.2</ele><time>2026-04-18T05:50:10Z</time></trkpt><trkpt lat="14.536689823119062" lon="120.99248781635988"><ele>4.0</ele><time>2026-04-18T05:50:11Z</time></trkpt><trkpt lat="14.536598851700692" lon="120.99249821568856"><ele>4.833333333333333</ele><time>2026-04-18T05:50:12Z</time></trkpt><trkpt lat="14.53650937502124" lon="120.99251158900086"><ele>5.666666666666666</ele><time>2026-04-18T05:50:13Z</time></trkpt><trkpt lat="14.536421301631938" lon="120.99252153049953"><ele>6.5</ele><time>2026-04-18T05:50:14Z</time></trkpt><trkpt lat="14.536339492678627" lon="120.99252872445878"><ele>7.333333333333333</ele><time>2026-04-18T05:50:15Z</time></trkpt><trkpt lat="14.536253801060417" lon="120.99254085966821"><ele>8.166666666666666</ele><time>2026-04-18T05:50:16Z</time></trkpt><trkpt lat="14.536164252084765" lon="120.99255232357454"><ele>9.0</ele><time>2026-04-18T05:50:17Z</time></trkpt><trkpt lat="14.53607065408717" lon="120.99255735545947"><ele>9.0</ele><time>2026-04-18T05:50:18Z</time></trkpt><trkpt lat="14.535967353735852" lon="120.9925721948784"><ele>9.0</ele><time>2026-04-18T05:50:19Z</time></trkpt><trkpt lat="14.535858692539012" lon="120.99258407036282"><ele>9.0</ele><time>2026-04-18T05:50:20Z</time></trkpt><trkpt lat="14.535744377757354" lon="120.99260044695774"><ele>9.0</ele><time>2026-04-18T05:50:21Z</time></trkpt><trkpt lat="14.535630562645524" lon="120.99261338001601"><ele>9.0</ele><time>2026-04-18T05:50:22Z</time></trkpt><trkpt lat="14.535521304824448" lon="120.99262742872588"><ele>9.0</ele><time>2026-04-18T05:50:23Z</time></trkpt><trkpt lat="14.535419645420362" lon="120.99263844922096"><ele>9.0</ele><time>2026-04-18T05:50:24Z</time></trkpt><trkpt lat="14.53533175786068" lon="120.99264926400005"><ele>9.0</ele><time>2026-04-18T05:50:25Z</time></trkpt><trkpt lat="14.535255886732541" lon="120.99265624649176"><ele>9.0</ele><time>2026-04-18T05:50:26Z</time></trkpt><trkpt lat="14.53517984962989" lon="120.99266688674749"><ele>9.0</ele><time>2026-04-18T05:50:27Z</time></trkpt><trkpt lat="14.535107425983195" lon="120.99267548562243"><ele>9.0</ele><time>2026-04-18T05:50:28Z</time></trkpt><trkpt lat="14.535033733075416" lon="120.99268789560496"><ele>9.0</ele><time>2026-04-18T05:50:29Z</time></trkpt><trkpt lat="14.534956400822196" lon="120.99269592505084"><ele>9.0</ele><time>2026-04-18T05:50:30Z</time></trkpt><trkpt lat="14.534876589541886" lon="120.9927028558127"><ele>9.0</ele><time>2026-04-18T05:50:31Z</time></trkpt><trkpt lat="14.534795377433287" lon="120.9927105045879"><ele>9.0</ele><time>2026-04-18T05:50:32Z</time></trkpt><trkpt lat="14.534708594254388" lon="120.99272156647093"><ele>9.0</ele><time>2026-04-18T05:50:33Z</time></trkpt><trkpt lat="14.534623884076355" lon="120.99273182760274"><ele>9.0</ele><time>2026-04-18T05:50:34Z</time></trkpt><trkpt lat="14.534538385534006" lon="120.99274109835758"><ele>8.666666666666666</ele><time>2026-04-18T05:50:35Z</time></trkpt><trkpt lat="14.534450105609688" lon="120.99275007030727"><ele>8.333333333333334</ele><time>2026-04-18T05:50:36Z</time></trkpt><trkpt lat="14.534362570483673" lon="120.99276219975128"><ele>8.0</ele><time>2026-04-18T05:50:37Z</time></trkpt><trkpt lat="14.53427306526326" lon="120.99277143538671"><ele>7.666666666666667</ele><time>2026-04-18T05:50:38Z</time></trkpt><trkpt lat="14.534182075939718" lon="120.9927806728927"><ele>7.333333333333334</ele><time>2026-04-18T05:50:39Z</time></trkpt><trkpt lat="14.534092951307846" lon="120.99279070063477"><ele>7.0</ele><time>2026-04-18T05:50:40Z</time></trkpt><trkpt lat="14.534006461543775" lon="120.99279986960721"><ele>7.0</ele><time>2026-04-18T05:50:41Z</time></trkpt><trkpt lat="14.533920861493202" lon="120.99280634074196"><ele>6.999999999999999</ele><time>2026-04-18T05:50:42Z</time></trkpt><trkpt lat="14.533830255304283" lon="120.99281065702048"><ele>6.999999999999999</ele><time>2026-04-18T05:50:43Z</time></trkpt><trkpt lat="14.533739565376386" lon="120.99281728814533"><ele>7.0</ele><time>2026-04-18T05:50:44Z</time></trkpt><trkpt lat="14.533646899751641" lon="120.99282405898776"><ele>7.0</ele><time>2026-04-18T05:50:45Z</time></trkpt><trkpt lat="14.533554345634688" lon="120.99283160787144"><ele>8.2</ele><time>2026-04-18T05:50:46Z</time></trkpt><trkpt lat="14.533462280047425" lon="120.99284212977426"><ele>9.399999999999999</ele><time>2026-04-18T05:50:47Z</time></trkpt><trkpt lat="14.533372712241494" lon="120.99285219721409"><ele>10.600000000000001</ele><time>2026-04-18T05:50:48Z</time></trkpt><trkpt lat="14.53328115474144" lon="120.99286198989456"><ele>11.8</ele><time>2026-04-18T05:50:49Z</time></trkpt><trkpt lat="14.53319251688169" lon="120.9928692997141"><ele>13.0</ele><time>2026-04-18T05:50:50Z</time></trkpt><trkpt lat="14.533102765500121" lon="120.99287920386871"><ele>12.999999999999998</ele><time>2026-04-18T05:50:51Z</time></trkpt><trkpt lat="14.533013586952034" lon="120.99288950747189"><ele>13.0</ele><time>2026-04-18T05:50:52Z</time></trkpt><trkpt lat="14.53292335334526" lon="120.99289871948005"><ele>13.0</ele><time>2026-04-18T05:50:53Z</time></trkpt><trkpt lat="14.532837137854527" lon="120.9929094063031"><ele>13.0</ele><time>2026-04-18T05:50:54Z</time></trkpt><trkpt lat="14.532752632674677" lon="120.99291889018888"><ele>12.999999999999998</ele><time>2026-04-18T05:50:55Z</time></trkpt><trkpt lat="14.532665113075554" lon="120.99292819920726"><ele>13.0</ele><time>2026-04-18T05:50:56Z</time></trkpt><trkpt lat="14.532578606880433" lon="120.99293713431636"><ele>12.166666666666666</ele><time>2026-04-18T05:50:57Z</time></trkpt><trkpt lat="14.53249573290972" lon="120.9929452369255"><ele>11.333333333333332</ele><time>2026-04-18T05:50:58Z</time></trkpt><trkpt lat="14.532411528810469" lon="120.99295346026253"><ele>10.5</ele><time>2026-04-18T05:50:59Z</time></trkpt><trkpt lat="14.532328599336001" lon="120.99296033052048"><ele>9.666666666666666</ele><time>2026-04-18T05:51:00Z</time></trkpt><trkpt lat="14.532248067081811" lon="120.9929676432274"><ele>8.833333333333332</ele><time>2026-04-18T05:51:01Z</time></trkpt><trkpt lat="14.532177144637751" lon="120.99297490288849"><ele>8.0</ele><time>2026-04-18T05:51:02Z</time></trkpt><trkpt lat="14.532104718810166" lon="120.99299137088013"><ele>7.7142857142857135</ele><time>2026-04-18T05:51:03Z</time></trkpt><trkpt lat="14.532036884586768" lon="120.99299673955733"><ele>7.428571428571428</ele><time>2026-04-18T05:51:04Z</time></trkpt><trkpt lat="14.531966071105616" lon="120.99300375123843"><ele>7.142857142857142</ele><time>2026-04-18T05:51:05Z</time></trkpt><trkpt lat="14.531895695023424" lon="120.99301327258739"><ele>6.857142857142857</ele><time>2026-04-18T05:51:06Z</time></trkpt><trkpt lat="14.531822843091975" lon="120.99302163590241"><ele>6.571428571428571</ele><time>2026-04-18T05:51:07Z</time></trkpt><trkpt lat="14.53175364657137" lon="120.99303089673282"><ele>6.285714285714285</ele><time>2026-04-18T05:51:08Z</time></trkpt><trkpt lat="14.531682182464436" lon="120.99304193557178"><ele>6.0</ele><time>2026-04-18T05:51:09Z</time></trkpt><trkpt lat="14.531609104039449" lon="120.99305261002834"><ele>6.0</ele><time>2026-04-18T05:51:10Z</time></trkpt><trkpt lat="14.531529973746505" lon="120.99306772792725"><ele>6.0</ele><time>2026-04-18T05:51:11Z</time></trkpt><trkpt lat="14.531447744409236" lon="120.99307658236023"><ele>6.0</ele><time>2026-04-18T05:51:12Z</time></trkpt><trkpt lat="14.531368832736355" lon="120.99309603723593"><ele>6.0</ele><time>2026-04-18T05:51:13Z</time></trkpt><trkpt lat="14.531294081495224" lon="120.99310939204088"><ele>6.0</ele><time>2026-04-18T05:51:14Z</time></trkpt><trkpt lat="14.531220348508734" lon="120.99311832491836"><ele>6.0</ele><time>2026-04-18T05:51:15Z</time></trkpt><trkpt lat="14.531146185638928" lon="120.99312633849702"><ele>5.5</ele><time>2026-04-18T05:51:16Z</time></trkpt><trkpt lat="14.53107206573347" lon="120.99313231293976"><ele>5.0</ele><time>2026-04-18T05:51:17Z</time></trkpt><trkpt lat="14.53099019867869" lon="120.9931389311416"><ele>4.5</ele><time>2026-04-18T05:51:18Z</time></trkpt><trkpt lat="14.530906017310281" lon="120.993146320256"><ele>4.0</ele><time>2026-04-18T05:51:19Z</time></trkpt><trkpt lat="14.530819200583615" lon="120.9931517004931"><ele>3.5</ele><time>2026-04-18T05:51:20Z</time></trkpt><trkpt lat="14.530730330003458" lon="120.99315571358458"><ele>3.0</ele><time>2026-04-18T05:51:21Z</time></trkpt><trkpt lat="14.530635834548598" lon="120.99315760199381"><ele>3.0</ele><time>2026-04-18T05:51:22Z</time></trkpt><trkpt lat="14.530542089323173" lon="120.99315981819592"><ele>3.0</ele><time>2026-04-18T05:51:23Z</time></trkpt><trkpt lat="14.530455543508573" lon="120.99316196899814"><ele>3.0</ele><time>2026-04-18T05:51:24Z</time></trkpt><trkpt lat="14.530373443542503" lon="120.99316400037932"><ele>3.0</ele><time>2026-04-18T05:51:25Z</time></trkpt><trkpt lat="14.530298878001805" lon="120.9931656650894"><ele>3.0</ele><time>2026-04-18T05:51:26Z</time></trkpt><trkpt lat="14.530223578320223" lon="120.99316859137403"><ele>3.0</ele><time>2026-04-18T05:51:27Z</time></trkpt><trkpt lat="14.530151721445637" lon="120.99317025512343"><ele>3.666666666666667</ele><time>2026-04-18T05:51:28Z</time></trkpt><trkpt lat="14.530078631671712" lon="120.99317128215039"><ele>4.333333333333334</ele><time>2026-04-18T05:51:29Z</time></trkpt><trkpt lat="14.530010928449022" lon="120.99317605094467"><ele>5.0</ele><time>2026-04-18T05:51:30Z</time></trkpt><trkpt lat="14.529903201863858" lon="120.99320256712991"><ele>5.666666666666667</ele><time>2026-04-18T05:51:32Z</time></trkpt><trkpt lat="14.529808238711965" lon="120.99321538427479"><ele>6.333333333333334</ele><time>2026-04-18T05:51:34Z</time></trkpt><trkpt lat="14.529735517856347" lon="120.99322520030218"><ele>7.0</ele><time>2026-04-18T05:51:36Z</time></trkpt><trkpt lat="14.529671430676705" lon="120.9931348168907"><ele>7.0</ele><time>2026-04-18T05:51:37Z</time></trkpt><trkpt lat="14.529664024886157" lon="120.99301197665756"><ele>6.999999999999999</ele><time>2026-04-18T05:51:39Z</time></trkpt><trkpt lat="14.529639498025992" lon="120.99290016735465"><ele>6.999999999999999</ele><time>2026-04-18T05:51:41Z</time></trkpt><trkpt lat="14.52961999059609" lon="120.9927588511927"><ele>7.0</ele><time>2026-04-18T05:51:43Z</time></trkpt><trkpt lat="14.52960209857731" lon="120.99268324832333"><ele>7.0</ele><time>2026-04-18T05:51:44Z</time></trkpt><trkpt lat="14.529592789887577" lon="120.99259881385501"><ele>7.0</ele><time>2026-04-18T05:51:45Z</time></trkpt><trkpt lat="14.529582999078157" lon="120.99250924051155"><ele>6.999999999999999</ele><time>2026-04-18T05:51:46Z</time></trkpt><trkpt lat="14.529579567055176" lon="120.992413441702"><ele>6.999999999999999</ele><time>2026-04-18T05:51:47Z</time></trkpt><trkpt lat="14.529562763619008" lon="120.99231788911725"><ele>7.0</ele><time>2026-04-18T05:51:48Z</time></trkpt><trkpt lat="14.52954950274471" lon="120.99221893757492"><ele>7.0</ele><time>2026-04-18T05:51:49Z</time></trkpt><trkpt lat="14.529537222385256" lon="120.99211269612992"><ele>6.500000000000001</ele><time>2026-04-18T05:51:50Z</time></trkpt><trkpt lat="14.529526002575949" lon="120.99201093076749"><ele>6.0</ele><time>2026-04-18T05:51:51Z</time></trkpt><trkpt lat="14.5295151844271" lon="120.99192152009905"><ele>5.5</ele><time>2026-04-18T05:51:52Z</time></trkpt><trkpt lat="14.52950599894782" lon="120.99183702111188"><ele>5.0</ele><time>2026-04-18T05:51:53Z</time></trkpt><trkpt lat="14.529497698438092" lon="120.99175254029282"><ele>4.5</ele><time>2026-04-18T05:51:54Z</time></trkpt><trkpt lat="14.529489185935347" lon="120.99166985359044"><ele>4.0</ele><time>2026-04-18T05:51:55Z</time></trkpt><trkpt lat="14.529480707995605" lon="120.99159507010971"><ele>4.0</ele><time>2026-04-18T05:51:56Z</time></trkpt><trkpt lat="14.529473705055494" lon="120.99152763930249"><ele>4.0</ele><time>2026-04-18T05:51:57Z</time></trkpt><trkpt lat="14.52946064499687" lon="120.99141240886694"><ele>4.0</ele><time>2026-04-18T05:51:59Z</time></trkpt><trkpt lat="14.52946175100366" lon="120.9913049346733"><ele>4.0</ele><time>2026-04-18T05:52:01Z</time></trkpt><trkpt lat="14.529453702543684" lon="120.9911939718264"><ele>4.0</ele><time>2026-04-18T05:52:03Z</time></trkpt><trkpt lat="14.529446366416321" lon="120.99111757700857"><ele>3.9999999999999996</ele><time>2026-04-18T05:52:04Z</time></trkpt><trkpt lat="14.529424699428954" lon="120.99099374981894"><ele>4.0</ele><time>2026-04-18T05:52:06Z</time></trkpt><trkpt lat="14.52940775558855" lon="120.99086828208401"><ele>4.0</ele><time>2026-04-18T05:52:08Z</time></trkpt><trkpt lat="14.529399997793893" lon="120.99080223585459"><ele>4.0</ele><time>2026-04-18T05:52:09Z</time></trkpt><trkpt lat="14.52939614276032" lon="120.99072940449285"><ele>3.9999999999999996</ele><time>2026-04-18T05:52:10Z</time></trkpt><trkpt lat="14.529390803112584" lon="120.99065980792413"><ele>4.0</ele><time>2026-04-18T05:52:11Z</time></trkpt><trkpt lat="14.529385255884737" lon="120.99058792714429"><ele>3.833333333333333</ele><time>2026-04-18T05:52:12Z</time></trkpt><trkpt lat="14.529377160696741" lon="120.99051680533546"><ele>3.6666666666666665</ele><time>2026-04-18T05:52:13Z</time></trkpt><trkpt lat="14.52936887366628" lon="120.99044818786567"><ele>3.5</ele><time>2026-04-18T05:52:14Z</time></trkpt><trkpt lat="14.52935117852941" lon="120.99032719724708"><ele>3.333333333333333</ele><time>2026-04-18T05:52:16Z</time></trkpt><trkpt lat="14.529336964439578" lon="120.99025684104609"><ele>3.1666666666666665</ele><time>2026-04-18T05:52:18Z</time></trkpt><trkpt lat="14.529328151364977" lon="120.9901692242926"><ele>3.0</ele><time>2026-04-18T05:52:21Z</time></trkpt><trkpt lat="14.529313239180889" lon="120.99010195164028"><ele>2.0</ele><time>2026-04-18T05:52:23Z</time></trkpt><trkpt lat="14.52929867654541" lon="120.98998962748686"><ele>1.0</ele><time>2026-04-18T05:52:25Z</time></trkpt><trkpt lat="14.529290122270284" lon="120.98992174299622"><ele>0.0</ele><time>2026-04-18T05:52:26Z</time></trkpt><trkpt lat="14.529278438275712" lon="120.98985345637767"><ele>-1.0</ele><time>2026-04-18T05:52:27Z</time></trkpt><trkpt lat="14.529266897387206" lon="120.98978095750753"><ele>-2.0</ele><time>2026-04-18T05:52:28Z</time></trkpt><trkpt lat="14.529254338881184" lon="120.98970787840416"><ele>-3.0</ele><time>2026-04-18T05:52:29Z</time></trkpt><trkpt lat="14.5292449962341" lon="120.98964189715265"><ele>-3.0</ele><time>2026-04-18T05:52:30Z</time></trkpt><trkpt lat="14.529235375958912" lon="120.98957636180421"><ele>-3.0</ele><time>2026-04-18T05:52:31Z</time></trkpt><trkpt lat="14.529218353064428" lon="120.98944562471793"><ele>-3.0</ele><time>2026-04-18T05:52:33Z</time></trkpt><trkpt lat="14.529209728051645" lon="120.98937421685439"><ele>-3.0</ele><time>2026-04-18T05:52:34Z</time></trkpt><trkpt lat="14.5292128966621" lon="120.9892863254887"><ele>-3.0</ele><time>2026-04-18T05:52:35Z</time></trkpt><trkpt lat="14.529211308317194" lon="120.98920192887891"><ele>-3.0</ele><time>2026-04-18T05:52:36Z</time></trkpt><trkpt lat="14.529203760958382" lon="120.9891145824256"><ele>-2.1666666666666665</ele><time>2026-04-18T05:52:37Z</time></trkpt><trkpt lat="14.529196754540106" lon="120.98902908453923"><ele>-1.3333333333333335</ele><time>2026-04-18T05:52:38Z</time></trkpt><trkpt lat="14.52918890821565" lon="120.9889446456223"><ele>-0.5</ele><time>2026-04-18T05:52:39Z</time></trkpt><trkpt lat="14.529181519097289" lon="120.9888619462639"><ele>0.33333333333333326</ele><time>2026-04-18T05:52:40Z</time></trkpt><trkpt lat="14.529173420508133" lon="120.98877247805156"><ele>1.1666666666666665</ele><time>2026-04-18T05:52:41Z</time></trkpt><trkpt lat="14.52916503631759" lon="120.98868205015663"><ele>2.0</ele><time>2026-04-18T05:52:42Z</time></trkpt><trkpt lat="14.529156905939354" lon="120.9885901378402"><ele>2.0</ele><time>2026-04-18T05:52:43Z</time></trkpt><trkpt lat="14.529148145877548" lon="120.98849827697326"><ele>2.0</ele><time>2026-04-18T05:52:44Z</time></trkpt><trkpt lat="14.529137363862262" lon="120.98840572292042"><ele>2.0</ele><time>2026-04-18T05:52:45Z</time></trkpt><trkpt lat="14.52912522180526" lon="120.98831358857042"><ele>2.0</ele><time>2026-04-18T05:52:46Z</time></trkpt><trkpt lat="14.529110708122646" lon="120.98821532294448"><ele>2.0</ele><time>2026-04-18T05:52:47Z</time></trkpt><trkpt lat="14.52909678687114" lon="120.98811484872476"><ele>2.0</ele><time>2026-04-18T05:52:48Z</time></trkpt><trkpt lat="14.529084070029192" lon="120.98801327154573"><ele>2.0</ele><time>2026-04-18T05:52:49Z</time></trkpt><trkpt lat="14.529087798969412" lon="120.98789950736246"><ele>2.0</ele><time>2026-04-18T05:52:50Z</time></trkpt><trkpt lat="14.529064292956882" lon="120.9877846495799"><ele>2.0</ele><time>2026-04-18T05:52:51Z</time></trkpt><trkpt lat="14.529056158149936" lon="120.98766731177791"><ele>2.0</ele><time>2026-04-18T05:52:52Z</time></trkpt><trkpt lat="14.529039452308965" lon="120.98755671419451"><ele>3.4000000000000004</ele><time>2026-04-18T05:52:53Z</time></trkpt><trkpt lat="14.5290286046049" lon="120.9874500916642"><ele>4.800000000000001</ele><time>2026-04-18T05:52:54Z</time></trkpt><trkpt lat="14.529018076543995" lon="120.98734086459106"><ele>6.2</ele><time>2026-04-18T05:52:55Z</time></trkpt><trkpt lat="14.529006383538993" lon="120.98722483028972"><ele>7.6000000000000005</ele><time>2026-04-18T05:52:56Z</time></trkpt><trkpt lat="14.528990424834161" lon="120.98710917434343"><ele>9.0</ele><time>2026-04-18T05:52:57Z</time></trkpt><trkpt lat="14.52897579115025" lon="120.98698363530487"><ele>9.0</ele><time>2026-04-18T05:52:58Z</time></trkpt><trkpt lat="14.528967014550004" lon="120.98686008296299"><ele>9.0</ele><time>2026-04-18T05:52:59Z</time></trkpt><trkpt lat="14.52895766683539" lon="120.98673545495392"><ele>9.0</ele><time>2026-04-18T05:53:00Z</time></trkpt><trkpt lat="14.528947198586302" lon="120.9866323245643"><ele>9.0</ele><time>2026-04-18T05:53:01Z</time></trkpt><trkpt lat="14.5289335655764" lon="120.98653034010658"><ele>9.0</ele><time>2026-04-18T05:53:02Z</time></trkpt><trkpt lat="14.528925426956075" lon="120.98643352176991"><ele>8.2</ele><time>2026-04-18T05:53:03Z</time></trkpt><trkpt lat="14.528912605376785" lon="120.98634065874627"><ele>7.4</ele><time>2026-04-18T05:53:04Z</time></trkpt><trkpt lat="14.528898691851712" lon="120.98624721694442"><ele>6.6</ele><time>2026-04-18T05:53:05Z</time></trkpt><trkpt lat="14.528890528354363" lon="120.98614979806231"><ele>5.8</ele><time>2026-04-18T05:53:06Z</time></trkpt><trkpt lat="14.5288781697497" lon="120.9860470237677"><ele>5.0</ele><time>2026-04-18T05:53:07Z</time></trkpt><trkpt lat="14.528866173472453" lon="120.985942780458"><ele>5.6</ele><time>2026-04-18T05:53:08Z</time></trkpt><trkpt lat="14.528854325701332" lon="120.98584147692068"><ele>6.2</ele><time>2026-04-18T05:53:09Z</time></trkpt><trkpt lat="14.528842144829875" lon="120.98574171797769"><ele>6.800000000000001</ele><time>2026-04-18T05:53:10Z</time></trkpt><trkpt lat="14.528829127252628" lon="120.98564548599691"><ele>7.4</ele><time>2026-04-18T05:53:11Z</time></trkpt><trkpt lat="14.528815429627407" lon="120.98555666745106"><ele>8.0</ele><time>2026-04-18T05:53:12Z</time></trkpt><trkpt lat="14.528800781729133" lon="120.98547394848993"><ele>8.0</ele><time>2026-04-18T05:53:13Z</time></trkpt><trkpt lat="14.528787985778719" lon="120.98540131510482"><ele>8.0</ele><time>2026-04-18T05:53:14Z</time></trkpt><trkpt lat="14.528768084850842" lon="120.98528540515709"><ele>8.0</ele><time>2026-04-18T05:53:16Z</time></trkpt><trkpt lat="14.52876222605979" lon="120.98520599354768"><ele>8.0</ele><time>2026-04-18T05:53:19Z</time></trkpt><trkpt lat="14.528761289703569" lon="120.98511402450086"><ele>8.0</ele><time>2026-04-18T05:54:11Z</time></trkpt><trkpt lat="14.528751914651307" lon="120.98501322930039"><ele>7.6000000000000005</ele><time>2026-04-18T05:54:13Z</time></trkpt><trkpt lat="14.528729536285384" lon="120.98490274401031"><ele>7.200000000000001</ele><time>2026-04-18T05:54:15Z</time></trkpt><trkpt lat="14.528728085389279" lon="120.98479939973849"><ele>6.8</ele><time>2026-04-18T05:54:17Z</time></trkpt><trkpt lat="14.528707801468746" lon="120.98472438363908"><ele>6.4</ele><time>2026-04-18T05:54:19Z</time></trkpt><trkpt lat="14.528557313376341" lon="120.98471512202288"><ele>6.0</ele><time>2026-04-18T05:54:20Z</time></trkpt><trkpt lat="14.528440347497975" lon="120.9847113783893"><ele>5.833333333333333</ele><time>2026-04-18T05:54:22Z</time></trkpt><trkpt lat="14.52837746516265" lon="120.9847341730864"><ele>5.666666666666667</ele><time>2026-04-18T05:54:23Z</time></trkpt><trkpt lat="14.52830531551451" lon="120.98474197393637"><ele>5.5</ele><time>2026-04-18T05:54:24Z</time></trkpt><trkpt lat="14.528228377250755" lon="120.9847502925359"><ele>5.333333333333334</ele><time>2026-04-18T05:54:25Z</time></trkpt><trkpt lat="14.52814126591473" lon="120.98474283049758"><ele>5.166666666666667</ele><time>2026-04-18T05:54:26Z</time></trkpt><trkpt lat="14.52805437471878" lon="120.98475735689736"><ele>5.0</ele><time>2026-04-18T05:54:27Z</time></trkpt><trkpt lat="14.527964538307728" lon="120.98477074901176"><ele>4.0</ele><time>2026-04-18T05:54:28Z</time></trkpt><trkpt lat="14.527871629702945" lon="120.9847847632"><ele>3.0</ele><time>2026-04-18T05:54:29Z</time></trkpt><trkpt lat="14.527779071770949" lon="120.98479645353409"><ele>2.0</ele><time>2026-04-18T05:54:30Z</time></trkpt><trkpt lat="14.527688669920225" lon="120.98480855726626"><ele>1.0</ele><time>2026-04-18T05:54:31Z</time></trkpt><trkpt lat="14.527602194929758" lon="120.9848203735114"><ele>1.1102230246251565E-16</ele><time>2026-04-18T05:54:32Z</time></trkpt><trkpt lat="14.5275197083502" lon="120.98483045044992"><ele>-1.0</ele><time>2026-04-18T05:54:33Z</time></trkpt><trkpt lat="14.527442221016404" lon="120.98484001531601"><ele>-0.9999999999999999</ele><time>2026-04-18T05:54:34Z</time></trkpt><trkpt lat="14.527369155815151" lon="120.9848475888146"><ele>-1.0</ele><time>2026-04-18T05:54:35Z</time></trkpt><trkpt lat="14.527299951958623" lon="120.98485598089142"><ele>-1.0</ele><time>2026-04-18T05:54:36Z</time></trkpt><trkpt lat="14.527236175417153" lon="120.98486201015515"><ele>-1.0</ele><time>2026-04-18T05:54:37Z</time></trkpt><trkpt lat="14.527133105681427" lon="120.98487428399574"><ele>-0.9999999999999999</ele><time>2026-04-18T05:54:39Z</time></trkpt><trkpt lat="14.527059596515453" lon="120.98488213536804"><ele>-1.0</ele><time>2026-04-18T05:54:41Z</time></trkpt><trkpt lat="14.526989056424823" lon="120.98489596739606"><ele>-0.5714285714285714</ele><time>2026-04-18T05:54:45Z</time></trkpt><trkpt lat="14.52692708725124" lon="120.9849178656298"><ele>-0.1428571428571428</ele><time>2026-04-18T05:54:47Z</time></trkpt><trkpt lat="14.526854509137957" lon="120.98492845254316"><ele>0.2857142857142857</ele><time>2026-04-18T05:54:49Z</time></trkpt><trkpt lat="14.526785701817541" lon="120.98492855185741"><ele>0.7142857142857142</ele><time>2026-04-18T05:54:51Z</time></trkpt><trkpt lat="14.526721123392063" lon="120.98493222214736"><ele>1.1428571428571428</ele><time>2026-04-18T05:54:54Z</time></trkpt><trkpt lat="14.526642546120685" lon="120.98493530176054"><ele>1.5714285714285714</ele><time>2026-04-18T05:55:35Z</time></trkpt><trkpt lat="14.52657253094179" lon="120.98493945092417"><ele>2.0</ele><time>2026-04-18T05:55:39Z</time></trkpt><trkpt lat="14.526478097109695" lon="120.98493557818591"><ele>2.0</ele><time>2026-04-18T05:55:53Z</time></trkpt><trkpt lat="14.526387926290846" lon="120.98495463574056"><ele>1.9999999999999998</ele><time>2026-04-18T05:55:57Z</time></trkpt><trkpt lat="14.52631460429623" lon="120.98496292570788"><ele>2.0</ele><time>2026-04-18T05:55:59Z</time></trkpt><trkpt lat="14.526233444626337" lon="120.98497285059999"><ele>2.0</ele><time>2026-04-18T05:56:02Z</time></trkpt><trkpt lat="14.526167852889193" lon="120.98498058416543"><ele>1.9999999999999998</ele><time>2026-04-18T05:56:11Z</time></trkpt><trkpt lat="14.52609962609829" lon="120.98498962533678"><ele>2.0</ele><time>2026-04-18T05:56:30Z</time></trkpt><trkpt lat="14.526035886107834" lon="120.98499790873332"><ele>2.0</ele><time>2026-04-18T05:56:39Z</time></trkpt><trkpt lat="14.525955724533414" lon="120.98499322225024"><ele>1.9999999999999998</ele><time>2026-04-18T05:57:13Z</time></trkpt><trkpt lat="14.525873024631151" lon="120.9849912500361"><ele>2.0</ele><time>2026-04-18T05:57:16Z</time></trkpt><trkpt lat="14.525807808360412" lon="120.98500530837893"><ele>2.0</ele><time>2026-04-18T05:57:22Z</time></trkpt><trkpt lat="14.525658784853139" lon="120.985038469261"><ele>2.0</ele><time>2026-04-18T05:59:07Z</time></trkpt><trkpt lat="14.525586271768889" lon="120.98504741094185"><ele>1.9999999999999998</ele><time>2026-04-18T05:59:09Z</time></trkpt><trkpt lat="14.52551341875171" lon="120.9850562371093"><ele>2.0</ele><time>2026-04-18T05:59:12Z</time></trkpt><trkpt lat="14.525450189067065" lon="120.98506288339489"><ele>1.4999999999999998</ele><time>2026-04-18T06:00:05Z</time></trkpt><trkpt lat="14.525378627622624" lon="120.98507312739996"><ele>1.0</ele><time>2026-04-18T06:00:39Z</time></trkpt><trkpt lat="14.525305053635494" lon="120.98507774301659"><ele>0.5</ele><time>2026-04-18T06:01:15Z</time></trkpt><trkpt lat="14.525234394517392" lon="120.98508584076735"><ele>0.0</ele><time>2026-04-18T06:01:19Z</time></trkpt><trkpt lat="14.525145275389354" lon="120.98508643038069"><ele>-0.49999999999999994</ele><time>2026-04-18T06:01:33Z</time></trkpt><trkpt lat="14.525070999780747" lon="120.98509868184622"><ele>-1.0</ele><time>2026-04-18T06:02:31Z</time></trkpt><trkpt lat="14.524998668049184" lon="120.98510677949655"><ele>-0.9999999999999999</ele><time>2026-04-18T06:02:37Z</time></trkpt><trkpt lat="14.524936069085742" lon="120.98512145125252"><ele>-1.0</ele><time>2026-04-18T06:04:23Z</time></trkpt><trkpt lat="14.524844702615908" lon="120.98513242321498"><ele>-1.0</ele><time>2026-04-18T06:04:26Z</time></trkpt><trkpt lat="14.524778343405183" lon="120.98514148124393"><ele>-1.0</ele><time>2026-04-18T06:04:28Z</time></trkpt><trkpt lat="14.524711231399293" lon="120.98517528381487"><ele>-0.9999999999999999</ele><time>2026-04-18T06:04:32Z</time></trkpt><trkpt lat="14.524684132920353" lon="120.98506684167862"><ele>-1.0</ele><time>2026-04-18T06:04:35Z</time></trkpt><trkpt lat="14.524674391341797" lon="120.98496786960163"><ele>0.16666666666666674</ele><time>2026-04-18T06:04:37Z</time></trkpt><trkpt lat="14.524664480872586" lon="120.98486920497923"><ele>1.3333333333333335</ele><time>2026-04-18T06:04:39Z</time></trkpt><trkpt lat="14.524655465591092" lon="120.98478029279222"><ele>2.5</ele><time>2026-04-18T06:04:41Z</time></trkpt><trkpt lat="14.52464718361236" lon="120.98469723815546"><ele>3.6666666666666665</ele><time>2026-04-18T06:04:43Z</time></trkpt><trkpt lat="14.524625947147193" lon="120.98461448494704"><ele>4.833333333333333</ele><time>2026-04-18T06:04:46Z</time></trkpt><trkpt lat="14.524626211119877" lon="120.98454577884654"><ele>6.0</ele><time>2026-04-18T06:04:50Z</time></trkpt><trkpt lat="14.52461514894568" lon="120.98448126556784"><ele>5.999999999999999</ele><time>2026-04-18T06:04:56Z</time></trkpt><trkpt lat="14.524613454027858" lon="120.98441040327366"><ele>6.0</ele><time>2026-04-18T06:04:59Z</time></trkpt><trkpt lat="14.524608024268506" lon="120.98434165260257"><ele>6.0</ele><time>2026-04-18T06:05:01Z</time></trkpt><trkpt lat="14.52460505461465" lon="120.9842740002902"><ele>6.0</ele><time>2026-04-18T06:05:03Z</time></trkpt><trkpt lat="14.524598627764277" lon="120.98418991832752"><ele>6.0</ele><time>2026-04-18T06:05:06Z</time></trkpt><trkpt lat="14.524591102081027" lon="120.9841242213102"><ele>5.999999999999999</ele><time>2026-04-18T06:05:12Z</time></trkpt><trkpt lat="14.524582896307342" lon="120.9840575061638"><ele>6.0</ele><time>2026-04-18T06:05:19Z</time></trkpt><trkpt lat="14.524576826480313" lon="120.9839785097342"><ele>6.142857142857142</ele><time>2026-04-18T06:05:24Z</time></trkpt><trkpt lat="14.52457032554511" lon="120.98391212961046"><ele>6.285714285714286</ele><time>2026-04-18T06:05:28Z</time></trkpt><trkpt lat="14.52456234415805" lon="120.98382390321026"><ele>6.428571428571429</ele><time>2026-04-18T06:05:32Z</time></trkpt><trkpt lat="14.524555102075817" lon="120.98375327313215"><ele>6.571428571428571</ele><time>2026-04-18T06:05:35Z</time></trkpt><trkpt lat="14.524547792414241" lon="120.98367177156844"><ele>6.714285714285714</ele><time>2026-04-18T06:05:39Z</time></trkpt><trkpt lat="14.524541155615662" lon="120.98360065545313"><ele>6.857142857142857</ele><time>2026-04-18T06:05:42Z</time></trkpt><trkpt lat="14.524530856937986" lon="120.98353212968046"><ele>7.0</ele><time>2026-04-18T06:05:56Z</time></trkpt><trkpt lat="14.524521659926744" lon="120.98346192307157"><ele>6.857142857142857</ele><time>2026-04-18T06:06:01Z</time></trkpt><trkpt lat="14.524512083949727" lon="120.98339261976064"><ele>6.714285714285714</ele><time>2026-04-18T06:06:09Z</time></trkpt><trkpt lat="14.524501433030355" lon="120.98332271949133"><ele>6.571428571428571</ele><time>2026-04-18T06:06:22Z</time></trkpt><trkpt lat="14.524494280311577" lon="120.9832444405479"><ele>6.428571428571429</ele><time>2026-04-18T06:06:27Z</time></trkpt><trkpt lat="14.524489467427339" lon="120.98315756993041"><ele>6.285714285714286</ele><time>2026-04-18T06:06:30Z</time></trkpt><trkpt lat="14.524480940204931" lon="120.98308666394328"><ele>6.142857142857142</ele><time>2026-04-18T06:06:33Z</time></trkpt><trkpt lat="14.524469632443022" lon="120.98302170772686"><ele>6.0</ele><time>2026-04-18T06:06:44Z</time></trkpt><trkpt lat="14.524461925383552" lon="120.98294394444463"><ele>5.999999999999999</ele><time>2026-04-18T06:06:47Z</time></trkpt><trkpt lat="14.524453994066176" lon="120.9828782927862"><ele>6.0</ele><time>2026-04-18T06:06:53Z</time></trkpt><trkpt lat="14.524441283618025" lon="120.98281058649738"><ele>6.0</ele><time>2026-04-18T06:07:20Z</time></trkpt><trkpt lat="14.524434741285805" lon="120.98274007819137"><ele>6.0</ele><time>2026-04-18T06:07:26Z</time></trkpt><trkpt lat="14.524426703903563" lon="120.9826603881018"><ele>6.0</ele><time>2026-04-18T06:07:31Z</time></trkpt><trkpt lat="14.52441339437848" lon="120.98258654636538"><ele>5.999999999999999</ele><time>2026-04-18T06:07:35Z</time></trkpt><trkpt lat="14.524358500736277" lon="120.98254266103874"><ele>6.0</ele><time>2026-04-18T06:07:39Z</time></trkpt><trkpt lat="14.524269710509438" lon="120.98253166464353"><ele>6.0</ele><time>2026-04-18T06:07:42Z</time></trkpt><trkpt lat="14.52419851408089" lon="120.9825246689533"><ele>6.0</ele><time>2026-04-18T06:07:44Z</time></trkpt><trkpt lat="14.524112742300513" lon="120.9825743642358"><ele>6.0</ele><time>2026-04-18T06:07:47Z</time></trkpt><trkpt lat="14.52404954000916" lon="120.98258117878964"><ele>6.0</ele><time>2026-04-18T06:07:49Z</time></trkpt><trkpt lat="14.52397280559903" lon="120.98258945239719"><ele>6.0</ele><time>2026-04-18T06:07:53Z</time></trkpt><trkpt lat="14.52389598944758" lon="120.98258880057216"><ele>6.0</ele><time>2026-04-18T06:07:58Z</time></trkpt><trkpt lat="14.523832373765071" lon="120.98259881892658"><ele>5.999999999999999</ele><time>2026-04-18T06:08:06Z</time></trkpt><trkpt lat="14.52376819876277" lon="120.98259713111666"><ele>6.0</ele><time>2026-04-18T06:08:22Z</time></trkpt><trkpt lat="14.523694879150396" lon="120.98261941879503"><ele>6.0</ele><time>2026-04-18T06:08:30Z</time></trkpt><trkpt lat="14.523621561839345" lon="120.9826273239374"><ele>6.0</ele><time>2026-04-18T06:08:35Z</time></trkpt><trkpt lat="14.523551952636787" lon="120.9826357033859"><ele>6.0</ele><time>2026-04-18T06:08:58.999Z</time></trkpt><trkpt lat="14.523487776167748" lon="120.98264253573052"><ele>5.999999999999999</ele><time>2026-04-18T06:09:01.999Z</time></trkpt><trkpt lat="14.523405941965375" lon="120.98265152038965"><ele>6.0</ele><time>2026-04-18T06:09:04.999Z</time></trkpt><trkpt lat="14.523323718217414" lon="120.98266054780021"><ele>7.6</ele><time>2026-04-18T06:09:07.999Z</time></trkpt><trkpt lat="14.523208241850497" lon="120.98267239015178"><ele>9.2</ele><time>2026-04-18T06:09:09.999Z</time></trkpt><trkpt lat="14.523141459925732" lon="120.98267926006204"><ele>10.799999999999999</ele><time>2026-04-18T06:09:11.999Z</time></trkpt><trkpt lat="14.523079135053052" lon="120.98268863316044"><ele>12.399999999999999</ele><time>2026-04-18T06:09:14.999Z</time></trkpt><trkpt lat="14.52300206496862" lon="120.98270217778995"><ele>14.0</ele><time>2026-04-18T06:09:18.999Z</time></trkpt><trkpt lat="14.522869574225664" lon="120.98246848957336"><ele>14.25</ele><time>2026-04-18T06:09:48Z</time></trkpt><trkpt lat="14.522871904338402" lon="120.9825376158493"><ele>14.5</ele><time>2026-04-18T06:09:52Z</time></trkpt><trkpt lat="14.522875202969537" lon="120.98261170372281"><ele>14.75</ele><time>2026-04-18T06:10:01Z</time></trkpt><trkpt lat="14.522876657716987" lon="120.98268755347692"><ele>15.0</ele><time>2026-04-18T06:10:06Z</time></trkpt><trkpt lat="14.523618922925879" lon="120.982474968567"><ele>15.2</ele><time>2026-04-18T06:20:26.998Z</time></trkpt><trkpt lat="14.523541044993323" lon="120.98259479366814"><ele>15.4</ele><time>2026-04-18T06:20:38.999Z</time></trkpt><trkpt lat="14.523485993578758" lon="120.98265965003621"><ele>15.600000000000001</ele><time>2026-04-18T06:20:42.999Z</time></trkpt><trkpt lat="14.523399523267322" lon="120.9826725141924"><ele>15.8</ele><time>2026-04-18T06:20:44.999Z</time></trkpt><trkpt lat="14.523317427311023" lon="120.98268109273312"><ele>16.0</ele><time>2026-04-18T06:20:46.999Z</time></trkpt><trkpt lat="14.52321498922326" lon="120.9826918158664"><ele>15.999999999999998</ele><time>2026-04-18T06:20:48.999Z</time></trkpt><trkpt lat="14.523147096341352" lon="120.9826939008687"><ele>16.0</ele><time>2026-04-18T06:20:49.999Z</time></trkpt><trkpt lat="14.523049760487998" lon="120.98270177250421"><ele>16.0</ele><time>2026-04-18T06:20:51.999Z</time></trkpt><trkpt lat="14.522981482675911" lon="120.9827202312813"><ele>16.0</ele><time>2026-04-18T06:20:52.999Z</time></trkpt><trkpt lat="14.52289060631682" lon="120.98276091111022"><ele>15.999999999999998</ele><time>2026-04-18T06:20:54.999Z</time></trkpt><trkpt lat="14.522847145229115" lon="120.98281302872633"><ele>16.0</ele><time>2026-04-18T06:20:56.999Z</time></trkpt><trkpt lat="14.522847295203661" lon="120.98290928024153"><ele>15.166666666666666</ele><time>2026-04-18T06:20:59.999Z</time></trkpt><trkpt lat="14.522853866278384" lon="120.98299167537206"><ele>14.333333333333332</ele><time>2026-04-18T06:21:00.999Z</time></trkpt><trkpt lat="14.522863846099465" lon="120.98306969665265"><ele>13.5</ele><time>2026-04-18T06:21:01.999Z</time></trkpt><trkpt lat="14.522870362286303" lon="120.98315724709602"><ele>12.666666666666666</ele><time>2026-04-18T06:21:02.999Z</time></trkpt><trkpt lat="14.522876809812551" lon="120.98325192563023"><ele>11.833333333333332</ele><time>2026-04-18T06:21:03.999Z</time></trkpt><trkpt lat="14.522887629887215" lon="120.98332619643071"><ele>11.0</ele><time>2026-04-18T06:21:04.999Z</time></trkpt><trkpt lat="14.522904996235631" lon="120.98340486425965"><ele>9.666666666666666</ele><time>2026-04-18T06:21:05.999Z</time></trkpt><trkpt lat="14.522900116782926" lon="120.9834769256045"><ele>8.333333333333332</ele><time>2026-04-18T06:21:06.999Z</time></trkpt><trkpt lat="14.522901471889314" lon="120.98355001398293"><ele>7.0</ele><time>2026-04-18T06:21:07.999Z</time></trkpt><trkpt lat="14.522889416240119" lon="120.98363949681192"><ele>5.666666666666666</ele><time>2026-04-18T06:21:08.999Z</time></trkpt><trkpt lat="14.5228923930026" lon="120.98372157384381"><ele>4.333333333333333</ele><time>2026-04-18T06:21:09.999Z</time></trkpt><trkpt lat="14.522899570191957" lon="120.98379805163435"><ele>3.0</ele><time>2026-04-18T06:21:10.999Z</time></trkpt><trkpt lat="14.52290187409488" lon="120.9838760205237"><ele>3.0</ele><time>2026-04-18T06:21:11.999Z</time></trkpt><trkpt lat="14.522907440445064" lon="120.9839556526631"><ele>3.0</ele><time>2026-04-18T06:21:12.999Z</time></trkpt><trkpt lat="14.522914780254153" lon="120.98403672837739"><ele>3.0</ele><time>2026-04-18T06:21:13.999Z</time></trkpt><trkpt lat="14.522923966903683" lon="120.98411868569676"><ele>3.0</ele><time>2026-04-18T06:21:14.999Z</time></trkpt><trkpt lat="14.52293463353966" lon="120.98420615935632"><ele>3.0</ele><time>2026-04-18T06:21:16.07Z</time></trkpt><trkpt lat="14.522947272195422" lon="120.98428886757385"><ele>3.0</ele><time>2026-04-18T06:21:17.057Z</time></trkpt><trkpt lat="14.52296253507721" lon="120.98437352242526"><ele>2.3333333333333335</ele><time>2026-04-18T06:21:18.053Z</time></trkpt><trkpt lat="14.522973699299799" lon="120.98445206350289"><ele>1.6666666666666665</ele><time>2026-04-18T06:21:19.049Z</time></trkpt><trkpt lat="14.522988344839026" lon="120.98453413081346"><ele>1.0</ele><time>2026-04-18T06:21:20.042Z</time></trkpt><trkpt lat="14.523114813584924" lon="120.98499807471855"><ele>1.4</ele><time>2026-04-18T06:21:25.999Z</time></trkpt><trkpt lat="14.523081368416193" lon="120.98515618083164"><ele>1.8</ele><time>2026-04-18T06:21:26.999Z</time></trkpt><trkpt lat="14.523121151434443" lon="120.98521737607253"><ele>2.1999999999999997</ele><time>2026-04-18T06:21:27.999Z</time></trkpt><trkpt lat="14.523151901075954" lon="120.98529355938305"><ele>2.6</ele><time>2026-04-18T06:21:30.999Z</time></trkpt><trkpt lat="14.523130118620873" lon="120.98537473827217"><ele>3.0</ele><time>2026-04-18T06:21:33.999Z</time></trkpt><trkpt lat="14.523061364895975" lon="120.98542003171305"><ele>3.0</ele><time>2026-04-18T06:21:36.999Z</time></trkpt><trkpt lat="14.522976968457147" lon="120.98542799081312"><ele>3.0</ele><time>2026-04-18T06:21:38.999Z</time></trkpt><trkpt lat="14.522866581839313" lon="120.98543925130947"><ele>3.0</ele><time>2026-04-18T06:21:40.999Z</time></trkpt><trkpt lat="14.522742346621655" lon="120.9854312850958"><ele>3.0</ele><time>2026-04-18T06:21:42.999Z</time></trkpt><trkpt lat="14.522679521211693" lon="120.98540654873474"><ele>3.0</ele><time>2026-04-18T06:21:43.999Z</time></trkpt><trkpt lat="14.522593103122407" lon="120.9853889835418"><ele>2.4</ele><time>2026-04-18T06:21:44.999Z</time></trkpt><trkpt lat="14.522519846404904" lon="120.98536559759363"><ele>1.7999999999999998</ele><time>2026-04-18T06:21:45.999Z</time></trkpt><trkpt lat="14.52243076446437" lon="120.98528899434245"><ele>1.2</ele><time>2026-04-18T06:21:46.999Z</time></trkpt><trkpt lat="14.522351569457877" lon="120.98525192294004"><ele>0.6</ele><time>2026-04-18T06:21:47.999Z</time></trkpt><trkpt lat="14.522270695355195" lon="120.98520583923734"><ele>0.0</ele><time>2026-04-18T06:21:48.999Z</time></trkpt><trkpt lat="14.522189999690756" lon="120.98514723907789"><ele>0.0</ele><time>2026-04-18T06:21:49.999Z</time></trkpt><trkpt lat="14.522115145618551" lon="120.98507708242107"><ele>0.0</ele><time>2026-04-18T06:21:50.999Z</time></trkpt><trkpt lat="14.522047522490254" lon="120.98499622693933"><ele>0.0</ele><time>2026-04-18T06:21:51.999Z</time></trkpt><trkpt lat="14.521976519893604" lon="120.98491084267397"><ele>0.0</ele><time>2026-04-18T06:21:52.999Z</time></trkpt><trkpt lat="14.521909413308906" lon="120.98482248222619"><ele>0.0</ele><time>2026-04-18T06:21:53.999Z</time></trkpt><trkpt lat="14.52183863951989" lon="120.98472955696441"><ele>-0.25</ele><time>2026-04-18T06:21:54.999Z</time></trkpt><trkpt lat="14.52176353414074" lon="120.9846316068956"><ele>-0.5</ele><time>2026-04-18T06:21:55.999Z</time></trkpt><trkpt lat="14.521681798535772" lon="120.98453795623212"><ele>-0.75</ele><time>2026-04-18T06:21:56.999Z</time></trkpt><trkpt lat="14.521603913256453" lon="120.98444098115695"><ele>-1.0</ele><time>2026-04-18T06:21:57.999Z</time></trkpt><trkpt lat="14.521519544062734" lon="120.9843414757778"><ele>-1.0</ele><time>2026-04-18T06:21:58.999Z</time></trkpt><trkpt lat="14.521428217814755" lon="120.98423806035728"><ele>-1.0</ele><time>2026-04-18T06:21:59.999Z</time></trkpt><trkpt lat="14.521343328050843" lon="120.98413395540386"><ele>-1.0</ele><time>2026-04-18T06:22:00.999Z</time></trkpt><trkpt lat="14.521253400453359" lon="120.98402721480245"><ele>-1.0</ele><time>2026-04-18T06:22:01.999Z</time></trkpt><trkpt lat="14.521164536914068" lon="120.9839221239534"><ele>-2.75</ele><time>2026-04-18T06:22:02.999Z</time></trkpt><trkpt lat="14.521078107244447" lon="120.9838186466611"><ele>-4.5</ele><time>2026-04-18T06:22:03.999Z</time></trkpt><trkpt lat="14.52098993588195" lon="120.98371411626255"><ele>-6.25</ele><time>2026-04-18T06:22:04.999Z</time></trkpt><trkpt lat="14.520898476784689" lon="120.98361168544542"><ele>-8.0</ele><time>2026-04-18T06:22:05.999Z</time></trkpt><trkpt lat="14.52080410673929" lon="120.98350958715046"><ele>-8.0</ele><time>2026-04-18T06:22:06.999Z</time></trkpt><trkpt lat="14.520708205739602" lon="120.98340931896198"><ele>-8.0</ele><time>2026-04-18T06:22:07.999Z</time></trkpt><trkpt lat="14.520608623189467" lon="120.98331462986873"><ele>-8.0</ele><time>2026-04-18T06:22:08.999Z</time></trkpt><trkpt lat="14.520504392053372" lon="120.98322368304446"><ele>-8.0</ele><time>2026-04-18T06:22:09.999Z</time></trkpt><trkpt lat="14.520400138660184" lon="120.98313864456436"><ele>-7.0</ele><time>2026-04-18T06:22:10.999Z</time></trkpt><trkpt lat="14.520294442733025" lon="120.98306175318153"><ele>-6.0</ele><time>2026-04-18T06:22:11.999Z</time></trkpt><trkpt lat="14.520193163718591" lon="120.98298799052847"><ele>-5.0</ele><time>2026-04-18T06:22:12.999Z</time></trkpt><trkpt lat="14.520089275056439" lon="120.98291958252018"><ele>-4.0</ele><time>2026-04-18T06:22:13.999Z</time></trkpt><trkpt lat="14.520001035586457" lon="120.98284121249327"><ele>-4.0</ele><time>2026-04-18T06:22:14.999Z</time></trkpt><trkpt lat="14.51989908675087" lon="120.98279618224011"><ele>-4.0</ele><time>2026-04-18T06:22:15.999Z</time></trkpt><trkpt lat="14.519811967176041" lon="120.98273830291399"><ele>-4.0</ele><time>2026-04-18T06:22:16.999Z</time></trkpt><trkpt lat="14.519722228788012" lon="120.98268032194146"><ele>-4.0</ele><time>2026-04-18T06:22:17.999Z</time></trkpt><trkpt lat="14.519636631053789" lon="120.98262884149469"><ele>-4.0</ele><time>2026-04-18T06:22:18.999Z</time></trkpt><trkpt lat="14.519551077707842" lon="120.98258154258093"><ele>-2.8000000000000003</ele><time>2026-04-18T06:22:19.999Z</time></trkpt><trkpt lat="14.5194668718438" lon="120.98253585198646"><ele>-1.6000000000000003</ele><time>2026-04-18T06:22:20.999Z</time></trkpt><trkpt lat="14.51938301025283" lon="120.98248994191081"><ele>-0.3999999999999999</ele><time>2026-04-18T06:22:21.999Z</time></trkpt><trkpt lat="14.519302609779519" lon="120.98244771085162"><ele>0.8</ele><time>2026-04-18T06:22:22.999Z</time></trkpt><trkpt lat="14.519224977321143" lon="120.98240723111599"><ele>2.0</ele><time>2026-04-18T06:22:23.999Z</time></trkpt><trkpt lat="14.519147671460097" lon="120.9823685622881"><ele>1.9999999999999998</ele><time>2026-04-18T06:22:24.999Z</time></trkpt><trkpt lat="14.519078109001068" lon="120.98233498200592"><ele>2.0</ele><time>2026-04-18T06:22:25.999Z</time></trkpt><trkpt lat="14.518997165344246" lon="120.9822997207948"><ele>2.0</ele><time>2026-04-18T06:22:26.999Z</time></trkpt><trkpt lat="14.518914450515746" lon="120.98226717639004"><ele>2.0</ele><time>2026-04-18T06:22:27.999Z</time></trkpt><trkpt lat="14.518835458479987" lon="120.98223101314643"><ele>1.9999999999999998</ele><time>2026-04-18T06:22:28.999Z</time></trkpt><trkpt lat="14.51875938816612" lon="120.98219307236518"><ele>2.0</ele><time>2026-04-18T06:22:29.999Z</time></trkpt><trkpt lat="14.518690046747022" lon="120.98215606643772"><ele>2.142857142857143</ele><time>2026-04-18T06:22:30.999Z</time></trkpt><trkpt lat="14.518624353457989" lon="120.98211939045743"><ele>2.2857142857142856</ele><time>2026-04-18T06:22:31.999Z</time></trkpt><trkpt lat="14.518562998757153" lon="120.9820868706351"><ele>2.4285714285714284</ele><time>2026-04-18T06:22:32.999Z</time></trkpt><trkpt lat="14.518504712057739" lon="120.98205273675134"><ele>2.571428571428571</ele><time>2026-04-18T06:22:33.999Z</time></trkpt><trkpt lat="14.518446955388205" lon="120.98201436090146"><ele>2.7142857142857144</ele><time>2026-04-18T06:22:34.999Z</time></trkpt><trkpt lat="14.51838445915001" lon="120.98197503496178"><ele>2.8571428571428568</ele><time>2026-04-18T06:22:35.999Z</time></trkpt><trkpt lat="14.518312065641062" lon="120.98193045304382"><ele>3.0</ele><time>2026-04-18T06:22:36.999Z</time></trkpt><trkpt lat="14.518242158767267" lon="120.98188056405888"><ele>3.0</ele><time>2026-04-18T06:22:37.999Z</time></trkpt><trkpt lat="14.518175180124668" lon="120.98181161262592"><ele>3.0</ele><time>2026-04-18T06:22:38.999Z</time></trkpt><trkpt lat="14.518101775543235" lon="120.98175101083197"><ele>3.0</ele><time>2026-04-18T06:22:39.999Z</time></trkpt><trkpt lat="14.518025895618292" lon="120.98168909416717"><ele>3.0</ele><time>2026-04-18T06:22:40.999Z</time></trkpt><trkpt lat="14.517941828756776" lon="120.98164180178125"><ele>3.0</ele><time>2026-04-18T06:22:41.999Z</time></trkpt><trkpt lat="14.517878866738156" lon="120.9815793558627"><ele>2.5</ele><time>2026-04-18T06:22:42.999Z</time></trkpt><trkpt lat="14.517814398248227" lon="120.98151511294108"><ele>2.0</ele><time>2026-04-18T06:22:43.999Z</time></trkpt><trkpt lat="14.517754355848114" lon="120.98145075676382"><ele>1.5</ele><time>2026-04-18T06:22:44.999Z</time></trkpt><trkpt lat="14.517700017228151" lon="120.98139393519968"><ele>1.0</ele><time>2026-04-18T06:22:45.999Z</time></trkpt><trkpt lat="14.51764829403045" lon="120.98134612923884"><ele>0.5</ele><time>2026-04-18T06:22:46.999Z</time></trkpt><trkpt lat="14.517571032630482" lon="120.98127108715066"><ele>0.0</ele><time>2026-04-18T06:22:48.999Z</time></trkpt><trkpt lat="14.51753026883835" lon="120.98121919330877"><ele>0.0</ele><time>2026-04-18T06:22:52.999Z</time></trkpt><trkpt lat="14.517481709957213" lon="120.98116486723136"><ele>0.0</ele><time>2026-04-18T06:23:11.999Z</time></trkpt><trkpt lat="14.51744085709888" lon="120.98111028832092"><ele>0.0</ele><time>2026-04-18T06:23:13.999Z</time></trkpt><trkpt lat="14.5173928144483" lon="120.98104627737989"><ele>0.0</ele><time>2026-04-18T06:23:15.999Z</time></trkpt><trkpt lat="14.51733310230954" lon="120.98099032584487"><ele>0.0</ele><time>2026-04-18T06:23:17.999Z</time></trkpt><trkpt lat="14.517264899460335" lon="120.9809547940107"><ele>0.0</ele><time>2026-04-18T06:23:19.999Z</time></trkpt><trkpt lat="14.517212348672329" lon="120.98089398910585"><ele>0.0</ele><time>2026-04-18T06:23:22.999Z</time></trkpt><trkpt lat="14.517040056698363" lon="120.9808971681366"><ele>0.0</ele><time>2026-04-18T06:23:23.999Z</time></trkpt><trkpt lat="14.516980302057815" lon="120.98096072669749"><ele>0.0</ele><time>2026-04-18T06:23:25.999Z</time></trkpt><trkpt lat="14.516902879098577" lon="120.98104400995503"><ele>0.0</ele><time>2026-04-18T06:23:27.999Z</time></trkpt><trkpt lat="14.516819560744585" lon="120.98113396170984"><ele>0.0</ele><time>2026-04-18T06:23:29.999Z</time></trkpt><trkpt lat="14.516776154936956" lon="120.98118544413771"><ele>0.0</ele><time>2026-04-18T06:23:30.999Z</time></trkpt><trkpt lat="14.516696813219529" lon="120.98128110254018"><ele>0.0</ele><time>2026-04-18T06:23:32.999Z</time></trkpt><trkpt lat="14.516622580707697" lon="120.98137119206984"><ele>0.0</ele><time>2026-04-18T06:23:34.999Z</time></trkpt><trkpt lat="14.51654590658399" lon="120.98146291195339"><ele>0.0</ele><time>2026-04-18T06:23:36.999Z</time></trkpt><trkpt lat="14.516471396631488" lon="120.9815592940067"><ele>0.0</ele><time>2026-04-18T06:23:38.999Z</time></trkpt><trkpt lat="14.51639916179808" lon="120.98164191949142"><ele>0.0</ele><time>2026-04-18T06:23:40.999Z</time></trkpt><trkpt lat="14.516342905087308" lon="120.98171110840967"><ele>0.0</ele><time>2026-04-18T06:23:42.999Z</time></trkpt><trkpt lat="14.516300928708674" lon="120.98176720956954"><ele>0.0</ele><time>2026-04-18T06:23:44.999Z</time></trkpt><trkpt lat="14.5162622946993" lon="120.98182007134625"><ele>0.0</ele><time>2026-04-18T06:23:46.999Z</time></trkpt><trkpt lat="14.516211275733175" lon="120.98188921390258"><ele>0.0</ele><time>2026-04-18T06:23:48.999Z</time></trkpt><trkpt lat="14.51614553938216" lon="120.98199344356311"><ele>0.2</ele><time>2026-04-18T06:23:50.999Z</time></trkpt><trkpt lat="14.516113617364189" lon="120.98206559287576"><ele>0.4</ele><time>2026-04-18T06:23:51.999Z</time></trkpt><trkpt lat="14.516052622703866" lon="120.98212650620337"><ele>0.6000000000000001</ele><time>2026-04-18T06:23:52.999Z</time></trkpt><trkpt lat="14.515994399039233" lon="120.9822126177951"><ele>0.8</ele><time>2026-04-18T06:23:53.999Z</time></trkpt><trkpt lat="14.515937541958706" lon="120.98231050979203"><ele>1.0</ele><time>2026-04-18T06:23:54.999Z</time></trkpt><trkpt lat="14.51587932805148" lon="120.9824107379019"><ele>1.0</ele><time>2026-04-18T06:23:55.999Z</time></trkpt><trkpt lat="14.515819551435" lon="120.9825141916257"><ele>1.0</ele><time>2026-04-18T06:23:56.999Z</time></trkpt><trkpt lat="14.515762621795998" lon="120.98262161108457"><ele>1.0</ele><time>2026-04-18T06:23:57.999Z</time></trkpt><trkpt lat="14.515706336896208" lon="120.98272823740065"><ele>1.0</ele><time>2026-04-18T06:23:58.999Z</time></trkpt><trkpt lat="14.515650368164888" lon="120.98283264080966"><ele>0.8</ele><time>2026-04-18T06:23:59.999Z</time></trkpt><trkpt lat="14.515598622076817" lon="120.98293990206679"><ele>0.6000000000000001</ele><time>2026-04-18T06:24:00.999Z</time></trkpt><trkpt lat="14.515550224893415" lon="120.98304127526782"><ele>0.4</ele><time>2026-04-18T06:24:01.999Z</time></trkpt><trkpt lat="14.515504481928906" lon="120.98313913261784"><ele>0.2</ele><time>2026-04-18T06:24:02.999Z</time></trkpt><trkpt lat="14.515468109033248" lon="120.98322190739184"><ele>0.0</ele><time>2026-04-18T06:24:03.999Z</time></trkpt><trkpt lat="14.515445433102633" lon="120.98329326603803"><ele>0.0</ele><time>2026-04-18T06:24:04.999Z</time></trkpt><trkpt lat="14.515414479126612" lon="120.9833526631094"><ele>0.0</ele><time>2026-04-18T06:24:05.999Z</time></trkpt><trkpt lat="14.515368886651741" lon="120.98346868391778"><ele>0.0</ele><time>2026-04-18T06:24:07.999Z</time></trkpt><trkpt lat="14.515324846616947" lon="120.9835892092173"><ele>0.0</ele><time>2026-04-18T06:24:09.999Z</time></trkpt><trkpt lat="14.515309260130948" lon="120.98365888259102"><ele>0.0</ele><time>2026-04-18T06:24:10.999Z</time></trkpt><trkpt lat="14.515305900958541" lon="120.98372802655476"><ele>0.0</ele><time>2026-04-18T06:24:11.999Z</time></trkpt><trkpt lat="14.515299817130666" lon="120.98380673498329"><ele>0.16666666666666666</ele><time>2026-04-18T06:24:12.999Z</time></trkpt><trkpt lat="14.51530264866451" lon="120.98389106683476"><ele>0.3333333333333333</ele><time>2026-04-18T06:24:13.999Z</time></trkpt><trkpt lat="14.51531051433297" lon="120.98397621389113"><ele>0.5</ele><time>2026-04-18T06:24:14.999Z</time></trkpt><trkpt lat="14.515323538533597" lon="120.98406590488672"><ele>0.6666666666666666</ele><time>2026-04-18T06:24:15.999Z</time></trkpt><trkpt lat="14.51534693811993" lon="120.98415444620774"><ele>0.8333333333333333</ele><time>2026-04-18T06:24:16.999Z</time></trkpt><trkpt lat="14.515382864940138" lon="120.98425026987117"><ele>1.0</ele><time>2026-04-18T06:24:17.999Z</time></trkpt><trkpt lat="14.515426705541692" lon="120.98434164185252"><ele>1.0</ele><time>2026-04-18T06:24:18.999Z</time></trkpt><trkpt lat="14.51548534501719" lon="120.98443356756512"><ele>1.0</ele><time>2026-04-18T06:24:19.999Z</time></trkpt><trkpt lat="14.51555971921243" lon="120.98452031782901"><ele>1.0</ele><time>2026-04-18T06:24:20.999Z</time></trkpt><trkpt lat="14.515646292665345" lon="120.9845976039866"><ele>1.0</ele><time>2026-04-18T06:24:21.999Z</time></trkpt><trkpt lat="14.51573534733965" lon="120.98466516524161"><ele>1.0</ele><time>2026-04-18T06:24:22.999Z</time></trkpt><trkpt lat="14.515844280175234" lon="120.98471735459205"><ele>1.0</ele><time>2026-04-18T06:24:23.999Z</time></trkpt><trkpt lat="14.515959608553132" lon="120.98476181254108"><ele>1.0</ele><time>2026-04-18T06:24:24.999Z</time></trkpt><trkpt lat="14.516073625540436" lon="120.98479689689732"><ele>1.0</ele><time>2026-04-18T06:24:25.999Z</time></trkpt><trkpt lat="14.51618836373461" lon="120.98483292049555"><ele>1.0</ele><time>2026-04-18T06:24:26.999Z</time></trkpt><trkpt lat="14.516302842298748" lon="120.98486851689914"><ele>1.0</ele><time>2026-04-18T06:24:27.999Z</time></trkpt><trkpt lat="14.516418797610593" lon="120.98490483678994"><ele>1.0</ele><time>2026-04-18T06:24:28.999Z</time></trkpt><trkpt lat="14.516549038057597" lon="120.98490166672227"><ele>1.0</ele><time>2026-04-18T06:24:29.999Z</time></trkpt><trkpt lat="14.516666718892882" lon="120.98493465587788"><ele>1.0</ele><time>2026-04-18T06:24:30.999Z</time></trkpt><trkpt lat="14.516788822642257" lon="120.9849693347297"><ele>1.75</ele><time>2026-04-18T06:24:31.999Z</time></trkpt><trkpt lat="14.51690028343864" lon="120.98501427521816"><ele>2.5</ele><time>2026-04-18T06:24:32.999Z</time></trkpt><trkpt lat="14.517007941060154" lon="120.98507025653004"><ele>3.25</ele><time>2026-04-18T06:24:33.999Z</time></trkpt><trkpt lat="14.517107614921205" lon="120.98514129778557"><ele>4.0</ele><time>2026-04-18T06:24:34.999Z</time></trkpt><trkpt lat="14.517195968715804" lon="120.98522730094456"><ele>4.25</ele><time>2026-04-18T06:24:35.999Z</time></trkpt><trkpt lat="14.517270273548297" lon="120.98532643539659"><ele>4.5</ele><time>2026-04-18T06:24:36.999Z</time></trkpt><trkpt lat="14.517331347558253" lon="120.98543489195019"><ele>4.75</ele><time>2026-04-18T06:24:37.999Z</time></trkpt><trkpt lat="14.5173778415981" lon="120.98555340172686"><ele>5.0</ele><time>2026-04-18T06:24:38.999Z</time></trkpt><trkpt lat="14.517406740758943" lon="120.98567610860667"><ele>5.0</ele><time>2026-04-18T06:24:39.999Z</time></trkpt><trkpt lat="14.517418944988766" lon="120.98580095326935"><ele>5.0</ele><time>2026-04-18T06:24:40.999Z</time></trkpt><trkpt lat="14.517423317655673" lon="120.98592604980611"><ele>5.0</ele><time>2026-04-18T06:24:41.999Z</time></trkpt><trkpt lat="14.517421965071906" lon="120.9860487987141"><ele>5.0</ele><time>2026-04-18T06:24:42.999Z</time></trkpt><trkpt lat="14.517420907896053" lon="120.98616740712247"><ele>4.8</ele><time>2026-04-18T06:24:43.999Z</time></trkpt><trkpt lat="14.517418654784176" lon="120.9862849277529"><ele>4.6</ele><time>2026-04-18T06:24:44.999Z</time></trkpt><trkpt lat="14.517415668363604" lon="120.98639664548787"><ele>4.4</ele><time>2026-04-18T06:24:45.999Z</time></trkpt><trkpt lat="14.517411711989466" lon="120.98650408399624"><ele>4.2</ele><time>2026-04-18T06:24:46.999Z</time></trkpt><trkpt lat="14.517406900453764" lon="120.9866077360598"><ele>4.0</ele><time>2026-04-18T06:24:47.999Z</time></trkpt><trkpt lat="14.517402299428726" lon="120.98670840717756"><ele>3.8000000000000003</ele><time>2026-04-18T06:24:48.999Z</time></trkpt><trkpt lat="14.517379764558987" lon="120.9868069582906"><ele>3.6000000000000005</ele><time>2026-04-18T06:24:49.999Z</time></trkpt><trkpt lat="14.517370186107145" lon="120.98690702663892"><ele>3.4</ele><time>2026-04-18T06:24:50.999Z</time></trkpt><trkpt lat="14.51736057671287" lon="120.98700741824989"><ele>3.2</ele><time>2026-04-18T06:24:51.999Z</time></trkpt><trkpt lat="14.51735062389227" lon="120.98711139771787"><ele>3.0</ele><time>2026-04-18T06:24:52.999Z</time></trkpt><trkpt lat="14.51734073663965" lon="120.98721953536634"><ele>3.0</ele><time>2026-04-18T06:24:53.999Z</time></trkpt><trkpt lat="14.517332972373078" lon="120.987327637847"><ele>3.0</ele><time>2026-04-18T06:24:54.999Z</time></trkpt><trkpt lat="14.517324898370155" lon="120.98743873900187"><ele>3.0</ele><time>2026-04-18T06:24:55.999Z</time></trkpt><trkpt lat="14.51731622697977" lon="120.98755251526835"><ele>3.0</ele><time>2026-04-18T06:24:56.999Z</time></trkpt><trkpt lat="14.517307460116657" lon="120.98766840448992"><ele>3.0</ele><time>2026-04-18T06:24:57.999Z</time></trkpt><trkpt lat="14.517343240374563" lon="120.98778937871859"><ele>3.0</ele><time>2026-04-18T06:24:58.999Z</time></trkpt><trkpt lat="14.517327554410814" lon="120.98790963335732"><ele>3.0</ele><time>2026-04-18T06:24:59.999Z</time></trkpt><trkpt lat="14.517312459318772" lon="120.98802963206805"><ele>3.0</ele><time>2026-04-18T06:25:00.999Z</time></trkpt><trkpt lat="14.517305450828426" lon="120.9881539780118"><ele>3.0</ele><time>2026-04-18T06:25:01.999Z</time></trkpt><trkpt lat="14.517299599330164" lon="120.98827680750101"><ele>3.75</ele><time>2026-04-18T06:25:02.999Z</time></trkpt><trkpt lat="14.517292872709563" lon="120.98840075647854"><ele>4.5</ele><time>2026-04-18T06:25:03.999Z</time></trkpt><trkpt lat="14.517284056404362" lon="120.98852220965455"><ele>5.25</ele><time>2026-04-18T06:25:04.999Z</time></trkpt><trkpt lat="14.517281625398395" lon="120.98864265031678"><ele>6.0</ele><time>2026-04-18T06:25:05.999Z</time></trkpt><trkpt lat="14.517278728938733" lon="120.98876566461576"><ele>6.0</ele><time>2026-04-18T06:25:06.999Z</time></trkpt><trkpt lat="14.517274860776784" lon="120.98888847402112"><ele>6.0</ele><time>2026-04-18T06:25:07.999Z</time></trkpt><trkpt lat="14.517265944614518" lon="120.98901879881808"><ele>6.0</ele><time>2026-04-18T06:25:08.999Z</time></trkpt><trkpt lat="14.517257129028227" lon="120.98914610915003"><ele>6.0</ele><time>2026-04-18T06:25:09.999Z</time></trkpt><trkpt lat="14.517249858183279" lon="120.98927348950173"><ele>6.25</ele><time>2026-04-18T06:25:10.999Z</time></trkpt><trkpt lat="14.517241460898152" lon="120.98940018807805"><ele>6.5</ele><time>2026-04-18T06:25:11.999Z</time></trkpt><trkpt lat="14.517234589634084" lon="120.98952393612235"><ele>6.75</ele><time>2026-04-18T06:25:12.999Z</time></trkpt><trkpt lat="14.517226118294104" lon="120.98964874420922"><ele>7.0</ele><time>2026-04-18T06:25:13.999Z</time></trkpt><trkpt lat="14.517217667236876" lon="120.98976925447876"><ele>7.0</ele><time>2026-04-18T06:25:14.999Z</time></trkpt><trkpt lat="14.517209260461021" lon="120.98989205943906"><ele>7.0</ele><time>2026-04-18T06:25:15.999Z</time></trkpt><trkpt lat="14.51720216251577" lon="120.99001100914191"><ele>7.0</ele><time>2026-04-18T06:25:16.999Z</time></trkpt><trkpt lat="14.517195296006358" lon="120.99012710878749"><ele>7.0</ele><time>2026-04-18T06:25:17.999Z</time></trkpt><trkpt lat="14.51718921814856" lon="120.99024175360731"><ele>7.3999999999999995</ele><time>2026-04-18T06:25:18.999Z</time></trkpt><trkpt lat="14.517182413728229" lon="120.99035680116775"><ele>7.799999999999999</ele><time>2026-04-18T06:25:19.999Z</time></trkpt><trkpt lat="14.517178290817032" lon="120.99046431218333"><ele>8.2</ele><time>2026-04-18T06:25:20.999Z</time></trkpt><trkpt lat="14.51717135874886" lon="120.99057382524624"><ele>8.6</ele><time>2026-04-18T06:25:21.999Z</time></trkpt><trkpt lat="14.517165994865348" lon="120.99068420982248"><ele>9.0</ele><time>2026-04-18T06:25:22.999Z</time></trkpt><trkpt lat="14.517161992311925" lon="120.99079343637047"><ele>8.8</ele><time>2026-04-18T06:25:23.999Z</time></trkpt><trkpt lat="14.51716089858724" lon="120.99090302096738"><ele>8.600000000000001</ele><time>2026-04-18T06:25:24.999Z</time></trkpt><trkpt lat="14.517162514463974" lon="120.99101220681938"><ele>8.4</ele><time>2026-04-18T06:25:25.999Z</time></trkpt><trkpt lat="14.517168082636562" lon="120.99112030600186"><ele>8.200000000000001</ele><time>2026-04-18T06:25:26.999Z</time></trkpt><trkpt lat="14.51717936220394" lon="120.99122672307905"><ele>8.0</ele><time>2026-04-18T06:25:27.999Z</time></trkpt><trkpt lat="14.517193997585043" lon="120.99133034902175"><ele>8.0</ele><time>2026-04-18T06:25:28.999Z</time></trkpt><trkpt lat="14.517211715628724" lon="120.9914326145187"><ele>8.0</ele><time>2026-04-18T06:25:29.999Z</time></trkpt><trkpt lat="14.517231531115492" lon="120.99152892156495"><ele>8.0</ele><time>2026-04-18T06:25:30.999Z</time></trkpt><trkpt lat="14.517257476038717" lon="120.99162637703078"><ele>8.0</ele><time>2026-04-18T06:25:31.999Z</time></trkpt><trkpt lat="14.517281740252214" lon="120.99172153828152"><ele>8.0</ele><time>2026-04-18T06:25:32.999Z</time></trkpt><trkpt lat="14.517306309629197" lon="120.99181490245174"><ele>8.0</ele><time>2026-04-18T06:25:33.999Z</time></trkpt><trkpt lat="14.517333332758547" lon="120.99190728684833"><ele>8.0</ele><time>2026-04-18T06:25:34.999Z</time></trkpt><trkpt lat="14.517358208410684" lon="120.9919988927807"><ele>8.0</ele><time>2026-04-18T06:25:35.999Z</time></trkpt><trkpt lat="14.51738536738597" lon="120.99209280443661"><ele>8.0</ele><time>2026-04-18T06:25:36.999Z</time></trkpt><trkpt lat="14.51741157955166" lon="120.99218795993087"><ele>8.0</ele><time>2026-04-18T06:25:37.999Z</time></trkpt><trkpt lat="14.517434114860615" lon="120.99228463882574"><ele>8.0</ele><time>2026-04-18T06:25:38.999Z</time></trkpt><trkpt lat="14.517447964395718" lon="120.99238152241782"><ele>8.0</ele><time>2026-04-18T06:25:39.999Z</time></trkpt><trkpt lat="14.517453437901814" lon="120.9924799726991"><ele>8.0</ele><time>2026-04-18T06:25:40.999Z</time></trkpt><trkpt lat="14.517452063562017" lon="120.99258007673447"><ele>8.0</ele><time>2026-04-18T06:25:41.999Z</time></trkpt><trkpt lat="14.517446810209773" lon="120.99268105788003"><ele>8.0</ele><time>2026-04-18T06:25:42.999Z</time></trkpt><trkpt lat="14.517438657468341" lon="120.99278285296742"><ele>7.6000000000000005</ele><time>2026-04-18T06:25:43.999Z</time></trkpt><trkpt lat="14.517428825018117" lon="120.99288881319707"><ele>7.200000000000001</ele><time>2026-04-18T06:25:44.999Z</time></trkpt><trkpt lat="14.517419106138737" lon="120.99299451481724"><ele>6.8</ele><time>2026-04-18T06:25:45.999Z</time></trkpt><trkpt lat="14.517408807561045" lon="120.99310737709033"><ele>6.4</ele><time>2026-04-18T06:25:46.999Z</time></trkpt><trkpt lat="14.517398003878329" lon="120.9932219342529"><ele>6.0</ele><time>2026-04-18T06:25:47.999Z</time></trkpt><trkpt lat="14.517386695655688" lon="120.99333626012624"><ele>6.75</ele><time>2026-04-18T06:25:48.999Z</time></trkpt><trkpt lat="14.517373647750079" lon="120.99345503199801"><ele>7.5</ele><time>2026-04-18T06:25:49.999Z</time></trkpt><trkpt lat="14.517360999445904" lon="120.99357426434992"><ele>8.25</ele><time>2026-04-18T06:25:50.999Z</time></trkpt><trkpt lat="14.51734771304944" lon="120.99369568479241"><ele>9.0</ele><time>2026-04-18T06:25:51.999Z</time></trkpt><trkpt lat="14.517334712592792" lon="120.99382146713755"><ele>9.0</ele><time>2026-04-18T06:25:52.999Z</time></trkpt><trkpt lat="14.517322199620514" lon="120.99394890070812"><ele>9.0</ele><time>2026-04-18T06:25:53.999Z</time></trkpt><trkpt lat="14.517307989457823" lon="120.9940845364839"><ele>9.0</ele><time>2026-04-18T06:25:54.999Z</time></trkpt><trkpt lat="14.517293543758788" lon="120.99422088250202"><ele>9.0</ele><time>2026-04-18T06:25:55.999Z</time></trkpt><trkpt lat="14.517277602027288" lon="120.9943585692391"><ele>8.75</ele><time>2026-04-18T06:25:56.999Z</time></trkpt><trkpt lat="14.51726186114716" lon="120.99449774317851"><ele>8.5</ele><time>2026-04-18T06:25:57.999Z</time></trkpt><trkpt lat="14.517246406010948" lon="120.99463605231591"><ele>8.25</ele><time>2026-04-18T06:25:58.999Z</time></trkpt><trkpt lat="14.517231201665227" lon="120.99477623169854"><ele>8.0</ele><time>2026-04-18T06:25:59.999Z</time></trkpt><trkpt lat="14.517215927620288" lon="120.99491477120692"><ele>7.75</ele><time>2026-04-18T06:26:00.999Z</time></trkpt><trkpt lat="14.517200109838173" lon="120.99505266480949"><ele>7.5</ele><time>2026-04-18T06:26:01.999Z</time></trkpt><trkpt lat="14.517185376196226" lon="120.99518774238281"><ele>7.25</ele><time>2026-04-18T06:26:02.999Z</time></trkpt><trkpt lat="14.517170965763606" lon="120.99532100068265"><ele>7.0</ele><time>2026-04-18T06:26:03.999Z</time></trkpt><trkpt lat="14.51715697871711" lon="120.99545078726635"><ele>7.0</ele><time>2026-04-18T06:26:04.999Z</time></trkpt><trkpt lat="14.51714303399213" lon="120.99557693066673"><ele>7.0</ele><time>2026-04-18T06:26:05.999Z</time></trkpt><trkpt lat="14.517129863663756" lon="120.99569741914384"><ele>7.0</ele><time>2026-04-18T06:26:06.999Z</time></trkpt><trkpt lat="14.517117080026493" lon="120.99581369536723"><ele>7.0</ele><time>2026-04-18T06:26:07.999Z</time></trkpt><trkpt lat="14.51710440096144" lon="120.99592544115059"><ele>7.0</ele><time>2026-04-18T06:26:08.999Z</time></trkpt><trkpt lat="14.517092113800173" lon="120.99603274525975"><ele>6.999999999999999</ele><time>2026-04-18T06:26:09.999Z</time></trkpt><trkpt lat="14.51707822684245" lon="120.99614011189034"><ele>6.999999999999999</ele><time>2026-04-18T06:26:10.999Z</time></trkpt><trkpt lat="14.517064811191496" lon="120.99624936492052"><ele>7.0</ele><time>2026-04-18T06:26:11.999Z</time></trkpt><trkpt lat="14.517050368489732" lon="120.99636070393466"><ele>7.0</ele><time>2026-04-18T06:26:12.999Z</time></trkpt><trkpt lat="14.517031666879673" lon="120.99647098661306"><ele>7.0</ele><time>2026-04-18T06:26:13.999Z</time></trkpt><trkpt lat="14.517015436120941" lon="120.99658278970708"><ele>6.999999999999999</ele><time>2026-04-18T06:26:14.999Z</time></trkpt><trkpt lat="14.51699868555062" lon="120.99669158082318"><ele>6.999999999999999</ele><time>2026-04-18T06:26:15.999Z</time></trkpt><trkpt lat="14.516981859457877" lon="120.99680093600024"><ele>7.0</ele><time>2026-04-18T06:26:16.999Z</time></trkpt><trkpt lat="14.51696545356563" lon="120.9969105276211"><ele>7.0</ele><time>2026-04-18T06:26:17.999Z</time></trkpt><trkpt lat="14.516951672238124" lon="120.99701793088236"><ele>6.6</ele><time>2026-04-18T06:26:18.999Z</time></trkpt><trkpt lat="14.516938987950248" lon="120.99712527640543"><ele>6.199999999999999</ele><time>2026-04-18T06:26:19.999Z</time></trkpt><trkpt lat="14.516928521943683" lon="120.99723140050949"><ele>5.8</ele><time>2026-04-18T06:26:20.999Z</time></trkpt><trkpt lat="14.5169261737248" lon="120.99733600592342"><ele>5.4</ele><time>2026-04-18T06:26:21.999Z</time></trkpt><trkpt lat="14.51693171783367" lon="120.99744236859345"><ele>5.0</ele><time>2026-04-18T06:26:22.999Z</time></trkpt><trkpt lat="14.516944776264092" lon="120.99754645505499"><ele>5.0</ele><time>2026-04-18T06:26:23.999Z</time></trkpt><trkpt lat="14.516966007754323" lon="120.99764942518959"><ele>5.0</ele><time>2026-04-18T06:26:24.999Z</time></trkpt><trkpt lat="14.516995363361838" lon="120.99775573734772"><ele>5.0</ele><time>2026-04-18T06:26:25.999Z</time></trkpt><trkpt lat="14.517032053014857" lon="120.99786150360953"><ele>5.0</ele><time>2026-04-18T06:26:26.999Z</time></trkpt><trkpt lat="14.517077155772075" lon="120.99796863684244"><ele>5.0</ele><time>2026-04-18T06:26:27.999Z</time></trkpt><trkpt lat="14.517132331476736" lon="120.99807498596292"><ele>5.0</ele><time>2026-04-18T06:26:28.999Z</time></trkpt><trkpt lat="14.517196397690919" lon="120.99817369818952"><ele>5.0</ele><time>2026-04-18T06:26:29.999Z</time></trkpt><trkpt lat="14.517266876570638" lon="120.99826701000327"><ele>5.0</ele><time>2026-04-18T06:26:30.999Z</time></trkpt><trkpt lat="14.517345114430269" lon="120.99835490068654"><ele>5.0</ele><time>2026-04-18T06:26:31.999Z</time></trkpt><trkpt lat="14.517425850792584" lon="120.99843410737799"><ele>5.0</ele><time>2026-04-18T06:26:32.999Z</time></trkpt><trkpt lat="14.51751385444559" lon="120.99850652509927"><ele>5.0</ele><time>2026-04-18T06:26:33.999Z</time></trkpt><trkpt lat="14.517619117823985" lon="120.99856841295298"><ele>5.0</ele><time>2026-04-18T06:26:34.999Z</time></trkpt><trkpt lat="14.51772531101494" lon="120.99862557054468"><ele>5.0</ele><time>2026-04-18T06:26:35.999Z</time></trkpt><trkpt lat="14.517824763325057" lon="120.99868570560723"><ele>5.0</ele><time>2026-04-18T06:26:36.999Z</time></trkpt><trkpt lat="14.517925629782276" lon="120.99874969169062"><ele>5.0</ele><time>2026-04-18T06:26:37.999Z</time></trkpt><trkpt lat="14.518023886077765" lon="120.99880873922937"><ele>5.0</ele><time>2026-04-18T06:26:38.999Z</time></trkpt><trkpt lat="14.518119073697484" lon="120.99886570599723"><ele>5.0</ele><time>2026-04-18T06:26:39.999Z</time></trkpt><trkpt lat="14.518209993697978" lon="120.99891747501154"><ele>5.0</ele><time>2026-04-18T06:26:40.999Z</time></trkpt><trkpt lat="14.518303232090995" lon="120.99896470442056"><ele>5.0</ele><time>2026-04-18T06:26:41.999Z</time></trkpt><trkpt lat="14.51840072467573" lon="120.99901228786543"><ele>5.0</ele><time>2026-04-18T06:26:42.999Z</time></trkpt><trkpt lat="14.518498973154928" lon="120.99905565383068"><ele>5.0</ele><time>2026-04-18T06:26:43.999Z</time></trkpt><trkpt lat="14.51859941799691" lon="120.99909773104285"><ele>5.0</ele><time>2026-04-18T06:26:44.999Z</time></trkpt><trkpt lat="14.518704251363648" lon="120.99913792978519"><ele>5.0</ele><time>2026-04-18T06:26:45.999Z</time></trkpt><trkpt lat="14.518810416088062" lon="120.99917777574927"><ele>5.4</ele><time>2026-04-18T06:26:46.999Z</time></trkpt><trkpt lat="14.518916959184214" lon="120.99921595265607"><ele>5.8</ele><time>2026-04-18T06:26:47.999Z</time></trkpt><trkpt lat="14.519025262941245" lon="120.99925440733533"><ele>6.199999999999999</ele><time>2026-04-18T06:26:48.999Z</time></trkpt><trkpt lat="14.519123075237465" lon="120.99928690874954"><ele>6.6</ele><time>2026-04-18T06:26:49.999Z</time></trkpt><trkpt lat="14.519231034254844" lon="120.99931533381066"><ele>7.0</ele><time>2026-04-18T06:26:50.999Z</time></trkpt><trkpt lat="14.519336024442223" lon="120.99933537393544"><ele>7.0</ele><time>2026-04-18T06:26:51.999Z</time></trkpt><trkpt lat="14.519439138660479" lon="120.99934566126801"><ele>6.999999999999999</ele><time>2026-04-18T06:26:52.999Z</time></trkpt><trkpt lat="14.519539850399745" lon="120.99934790094775"><ele>6.999999999999999</ele><time>2026-04-18T06:26:53.999Z</time></trkpt><trkpt lat="14.519639103389668" lon="120.99934172864064"><ele>7.0</ele><time>2026-04-18T06:26:54.999Z</time></trkpt><trkpt lat="14.519745984390376" lon="120.99933314071063"><ele>7.0</ele><time>2026-04-18T06:26:55.999Z</time></trkpt><trkpt lat="14.519847532039977" lon="120.99932045954085"><ele>6.6</ele><time>2026-04-18T06:26:56.999Z</time></trkpt><trkpt lat="14.519949888648744" lon="120.99930679534134"><ele>6.199999999999999</ele><time>2026-04-18T06:26:57.999Z</time></trkpt><trkpt lat="14.520054278509823" lon="120.99929379293626"><ele>5.8</ele><time>2026-04-18T06:26:58.999Z</time></trkpt><trkpt lat="14.520158112988186" lon="120.99928212521482"><ele>5.4</ele><time>2026-04-18T06:26:59.999Z</time></trkpt><trkpt lat="14.52026133608787" lon="120.99926979855732"><ele>5.0</ele><time>2026-04-18T06:27:00.999Z</time></trkpt><trkpt lat="14.52036636907194" lon="120.99925609649863"><ele>5.2</ele><time>2026-04-18T06:27:01.999Z</time></trkpt><trkpt lat="14.52046757179096" lon="120.99924353832691"><ele>5.4</ele><time>2026-04-18T06:27:02.999Z</time></trkpt><trkpt lat="14.520566689023369" lon="120.99923237198614"><ele>5.6</ele><time>2026-04-18T06:27:03.999Z</time></trkpt><trkpt lat="14.52066755341051" lon="120.99921910087174"><ele>5.8</ele><time>2026-04-18T06:27:04.999Z</time></trkpt><trkpt lat="14.520770310093637" lon="120.9992064369763"><ele>6.0</ele><time>2026-04-18T06:27:05.999Z</time></trkpt><trkpt lat="14.520877983330555" lon="120.99919335995655"><ele>6.0</ele><time>2026-04-18T06:27:06.999Z</time></trkpt><trkpt lat="14.520990615410197" lon="120.99917778193515"><ele>6.0</ele><time>2026-04-18T06:27:07.999Z</time></trkpt><trkpt lat="14.52110509721351" lon="120.99916180118487"><ele>6.0</ele><time>2026-04-18T06:27:08.999Z</time></trkpt><trkpt lat="14.521222913318999" lon="120.99914540240404"><ele>6.0</ele><time>2026-04-18T06:27:09.999Z</time></trkpt><trkpt lat="14.521343429679959" lon="120.99913007148956"><ele>5.5</ele><time>2026-04-18T06:27:10.999Z</time></trkpt><trkpt lat="14.521467312875215" lon="120.99911427172417"><ele>5.0</ele><time>2026-04-18T06:27:11.999Z</time></trkpt><trkpt lat="14.521593327196381" lon="120.99909895858629"><ele>4.5</ele><time>2026-04-18T06:27:12.999Z</time></trkpt><trkpt lat="14.52172337896723" lon="120.99908361041362"><ele>4.0</ele><time>2026-04-18T06:27:13.999Z</time></trkpt><trkpt lat="14.521857449383404" lon="120.99906858586012"><ele>4.0</ele><time>2026-04-18T06:27:14.999Z</time></trkpt><trkpt lat="14.521990885486241" lon="120.9990604489481"><ele>4.0</ele><time>2026-04-18T06:27:15.999Z</time></trkpt><trkpt lat="14.522126512601801" lon="120.99905595391826"><ele>4.0</ele><time>2026-04-18T06:27:16.999Z</time></trkpt><trkpt lat="14.522260696280409" lon="120.99905628341367"><ele>4.0</ele><time>2026-04-18T06:27:17.999Z</time></trkpt><trkpt lat="14.522395955711602" lon="120.99905801906726"><ele>4.5</ele><time>2026-04-18T06:27:18.999Z</time></trkpt><trkpt lat="14.52253274810283" lon="120.99906035979829"><ele>5.0</ele><time>2026-04-18T06:27:19.999Z</time></trkpt><trkpt lat="14.522669195931634" lon="120.99906450294826"><ele>5.5</ele><time>2026-04-18T06:27:20.999Z</time></trkpt><trkpt lat="14.522806422459878" lon="120.99906891384693"><ele>6.0</ele><time>2026-04-18T06:27:21.999Z</time></trkpt><trkpt lat="14.522943255326304" lon="120.99907189302743"><ele>6.0</ele><time>2026-04-18T06:27:22.999Z</time></trkpt><trkpt lat="14.523081386013201" lon="120.999071476454"><ele>6.0</ele><time>2026-04-18T06:27:23.999Z</time></trkpt><trkpt lat="14.523220858582887" lon="120.9990667482973"><ele>6.0</ele><time>2026-04-18T06:27:24.999Z</time></trkpt><trkpt lat="14.523360428914533" lon="120.99905713995142"><ele>6.0</ele><time>2026-04-18T06:27:25.999Z</time></trkpt><trkpt lat="14.523498430881977" lon="120.99904186932145"><ele>6.0</ele><time>2026-04-18T06:27:26.999Z</time></trkpt><trkpt lat="14.523635773865044" lon="120.99902488592487"><ele>6.0</ele><time>2026-04-18T06:27:27.999Z</time></trkpt><trkpt lat="14.52377254110674" lon="120.99900646796887"><ele>6.0</ele><time>2026-04-18T06:27:28.999Z</time></trkpt><trkpt lat="14.52390883592434" lon="120.9989863609102"><ele>6.0</ele><time>2026-04-18T06:27:29.999Z</time></trkpt><trkpt lat="14.524043612969908" lon="120.99896778237463"><ele>5.75</ele><time>2026-04-18T06:27:30.999Z</time></trkpt><trkpt lat="14.524176833339023" lon="120.99894817907015"><ele>5.5</ele><time>2026-04-18T06:27:31.999Z</time></trkpt><trkpt lat="14.524310246712494" lon="120.99892744448792"><ele>5.25</ele><time>2026-04-18T06:27:32.999Z</time></trkpt><trkpt lat="14.524443659293283" lon="120.99890665904488"><ele>5.0</ele><time>2026-04-18T06:27:33.999Z</time></trkpt><trkpt lat="14.524578832048963" lon="120.99888757482648"><ele>5.5</ele><time>2026-04-18T06:27:34.999Z</time></trkpt><trkpt lat="14.524713410601652" lon="120.998869453472"><ele>6.0</ele><time>2026-04-18T06:27:35.999Z</time></trkpt><trkpt lat="14.524850445353055" lon="120.9988497968135"><ele>6.5</ele><time>2026-04-18T06:27:36.999Z</time></trkpt><trkpt lat="14.524986546584826" lon="120.99883348245643"><ele>7.0</ele><time>2026-04-18T06:27:37.999Z</time></trkpt><trkpt lat="14.525126793659009" lon="120.99881383486448"><ele>7.0</ele><time>2026-04-18T06:27:38.999Z</time></trkpt><trkpt lat="14.525268750167331" lon="120.99879518514919"><ele>7.0</ele><time>2026-04-18T06:27:39.999Z</time></trkpt><trkpt lat="14.525413580687498" lon="120.9987740045878"><ele>7.0</ele><time>2026-04-18T06:27:40.999Z</time></trkpt><trkpt lat="14.52555893990375" lon="120.99875341723428"><ele>7.0</ele><time>2026-04-18T06:27:41.999Z</time></trkpt><trkpt lat="14.525705800810679" lon="120.99873281963022"><ele>7.0</ele><time>2026-04-18T06:27:42.999Z</time></trkpt><trkpt lat="14.525855576650377" lon="120.99871168000303"><ele>7.0</ele><time>2026-04-18T06:27:43.999Z</time></trkpt><trkpt lat="14.526003226650108" lon="120.99868957823918"><ele>7.0</ele><time>2026-04-18T06:27:44.999Z</time></trkpt><trkpt lat="14.526146764907672" lon="120.99867004523931"><ele>7.0</ele><time>2026-04-18T06:27:45.999Z</time></trkpt><trkpt lat="14.52628532320187" lon="120.99865331288902"><ele>7.0</ele><time>2026-04-18T06:27:46.999Z</time></trkpt><trkpt lat="14.526421420904523" lon="120.99864653098494"><ele>7.0</ele><time>2026-04-18T06:27:47.999Z</time></trkpt><trkpt lat="14.526554791556059" lon="120.99865542295854"><ele>7.0</ele><time>2026-04-18T06:27:48.999Z</time></trkpt><trkpt lat="14.526685979351766" lon="120.99868364284373"><ele>7.0</ele><time>2026-04-18T06:27:49.999Z</time></trkpt><trkpt lat="14.52681908062489" lon="120.99872789438642"><ele>7.0</ele><time>2026-04-18T06:27:50.999Z</time></trkpt><trkpt lat="14.5269461915488" lon="120.99879067753851"><ele>7.0</ele><time>2026-04-18T06:27:51.999Z</time></trkpt><trkpt lat="14.527067654580136" lon="120.99887087369355"><ele>7.0</ele><time>2026-04-18T06:27:52.999Z</time></trkpt><trkpt lat="14.527173004590718" lon="120.99896887544736"><ele>7.0</ele><time>2026-04-18T06:27:53.999Z</time></trkpt><trkpt lat="14.52726994643576" lon="120.99907800881206"><ele>6.25</ele><time>2026-04-18T06:27:54.999Z</time></trkpt><trkpt lat="14.52735297509641" lon="120.99919886651698"><ele>5.5</ele><time>2026-04-18T06:27:55.999Z</time></trkpt><trkpt lat="14.527414902219423" lon="120.99933636317726"><ele>4.75</ele><time>2026-04-18T06:27:56.999Z</time></trkpt><trkpt lat="14.527466988412174" lon="120.9994746612171"><ele>4.0</ele><time>2026-04-18T06:27:57.999Z</time></trkpt><trkpt lat="14.527514395337745" lon="120.99961632459366"><ele>4.0</ele><time>2026-04-18T06:27:58.999Z</time></trkpt><trkpt lat="14.527561969737139" lon="120.99976105883067"><ele>4.0</ele><time>2026-04-18T06:27:59.999Z</time></trkpt><trkpt lat="14.527610556136104" lon="120.99990769039707"><ele>4.0</ele><time>2026-04-18T06:28:00.999Z</time></trkpt><trkpt lat="14.527659033633624" lon="121.00005719893515"><ele>4.0</ele><time>2026-04-18T06:28:01.999Z</time></trkpt><trkpt lat="14.527708653735848" lon="121.0002080149334"><ele>4.0</ele><time>2026-04-18T06:28:02.999Z</time></trkpt><trkpt lat="14.527757916705614" lon="121.00036091809812"><ele>4.0</ele><time>2026-04-18T06:28:03.999Z</time></trkpt><trkpt lat="14.527807892177627" lon="121.00051612541368"><ele>4.0</ele><time>2026-04-18T06:28:04.999Z</time></trkpt><trkpt lat="14.527857735631569" lon="121.00067070224664"><ele>4.0</ele><time>2026-04-18T06:28:05.999Z</time></trkpt><trkpt lat="14.527907632757804" lon="121.00082327022453"><ele>4.0</ele><time>2026-04-18T06:28:06.999Z</time></trkpt><trkpt lat="14.527958046828086" lon="121.00097569375848"><ele>4.333333333333333</ele><time>2026-04-18T06:28:07.999Z</time></trkpt><trkpt lat="14.528006955824742" lon="121.00112528697143"><ele>4.666666666666667</ele><time>2026-04-18T06:28:08.999Z</time></trkpt><trkpt lat="14.528054134306627" lon="121.00127210904004"><ele>5.0</ele><time>2026-04-18T06:28:09.999Z</time></trkpt><trkpt lat="14.528101131989542" lon="121.00141734136645"><ele>5.0</ele><time>2026-04-18T06:28:10.999Z</time></trkpt><trkpt lat="14.528148422196299" lon="121.00156039199656"><ele>5.0</ele><time>2026-04-18T06:28:11.999Z</time></trkpt><trkpt lat="14.528193227323548" lon="121.00170279231176"><ele>5.0</ele><time>2026-04-18T06:28:12.999Z</time></trkpt><trkpt lat="14.528228300576176" lon="121.00184561715682"><ele>5.0</ele><time>2026-04-18T06:28:13.999Z</time></trkpt><trkpt lat="14.528253020067494" lon="121.00199067290612"><ele>5.25</ele><time>2026-04-18T06:28:14.999Z</time></trkpt><trkpt lat="14.528260032614279" lon="121.00214000970924"><ele>5.5</ele><time>2026-04-18T06:28:15.999Z</time></trkpt><trkpt lat="14.52825261582135" lon="121.00229260944126"><ele>5.75</ele><time>2026-04-18T06:28:16.999Z</time></trkpt><trkpt lat="14.528230496790375" lon="121.00244518913154"><ele>6.0</ele><time>2026-04-18T06:28:17.999Z</time></trkpt><trkpt lat="14.528206244059643" lon="121.00259775528211"><ele>6.0</ele><time>2026-04-18T06:28:18.999Z</time></trkpt><trkpt lat="14.528179490461039" lon="121.00275323508644"><ele>6.0</ele><time>2026-04-18T06:28:19.999Z</time></trkpt><trkpt lat="14.528155935769924" lon="121.00290474687648"><ele>6.0</ele><time>2026-04-18T06:28:20.999Z</time></trkpt><trkpt lat="14.528130197482415" lon="121.00305953423053"><ele>6.0</ele><time>2026-04-18T06:28:21.999Z</time></trkpt><trkpt lat="14.528106464687593" lon="121.003213684403"><ele>6.0</ele><time>2026-04-18T06:28:22.999Z</time></trkpt><trkpt lat="14.528081287808133" lon="121.00336737404072"><ele>6.0</ele><time>2026-04-18T06:28:23.999Z</time></trkpt><trkpt lat="14.528056160489804" lon="121.0035207029444"><ele>6.0</ele><time>2026-04-18T06:28:24.999Z</time></trkpt><trkpt lat="14.528030168291572" lon="121.00367327025474"><ele>6.0</ele><time>2026-04-18T06:28:25.999Z</time></trkpt><trkpt lat="14.528006066983798" lon="121.0038264943759"><ele>6.0</ele><time>2026-04-18T06:28:26.999Z</time></trkpt><trkpt lat="14.527981753371877" lon="121.00397900223136"><ele>6.0</ele><time>2026-04-18T06:28:27.999Z</time></trkpt><trkpt lat="14.52795631310309" lon="121.0041346714518"><ele>6.0</ele><time>2026-04-18T06:28:28.999Z</time></trkpt><trkpt lat="14.527929545459884" lon="121.00429071626414"><ele>6.0</ele><time>2026-04-18T06:28:29.999Z</time></trkpt><trkpt lat="14.527902953264109" lon="121.00444810180508"><ele>6.666666666666666</ele><time>2026-04-18T06:28:30.999Z</time></trkpt><trkpt lat="14.527877021857535" lon="121.00460585858674"><ele>7.333333333333333</ele><time>2026-04-18T06:28:31.999Z</time></trkpt><trkpt lat="14.527847559861039" lon="121.0047686601795"><ele>8.0</ele><time>2026-04-18T06:28:32.999Z</time></trkpt><trkpt lat="14.527818512972722" lon="121.00493388017377"><ele>7.333333333333333</ele><time>2026-04-18T06:28:33.999Z</time></trkpt><trkpt lat="14.527790084356575" lon="121.0051001310231"><ele>6.666666666666666</ele><time>2026-04-18T06:28:34.999Z</time></trkpt><trkpt lat="14.527762020447549" lon="121.00526679646609"><ele>6.0</ele><time>2026-04-18T06:28:35.999Z</time></trkpt><trkpt lat="14.52773665869403" lon="121.00543071759118"><ele>6.0</ele><time>2026-04-18T06:28:36.999Z</time></trkpt><trkpt lat="14.527710826762753" lon="121.0055984338227"><ele>6.0</ele><time>2026-04-18T06:28:37.999Z</time></trkpt><trkpt lat="14.527683709695786" lon="121.00576475042716"><ele>6.0</ele><time>2026-04-18T06:28:38.999Z</time></trkpt><trkpt lat="14.527655852162402" lon="121.005932537038"><ele>6.666666666666666</ele><time>2026-04-18T06:28:39.999Z</time></trkpt><trkpt lat="14.527627764412108" lon="121.00610079061897"><ele>7.333333333333333</ele><time>2026-04-18T06:28:40.999Z</time></trkpt><trkpt lat="14.527599198365266" lon="121.00627077140206"><ele>8.0</ele><time>2026-04-18T06:28:41.999Z</time></trkpt><trkpt lat="14.527570479871448" lon="121.00644263670392"><ele>8.0</ele><time>2026-04-18T06:28:42.999Z</time></trkpt><trkpt lat="14.527542383086343" lon="121.00661599346564"><ele>8.0</ele><time>2026-04-18T06:28:43.999Z</time></trkpt><trkpt lat="14.527514201043369" lon="121.00678907059056"><ele>8.0</ele><time>2026-04-18T06:28:44.999Z</time></trkpt><trkpt lat="14.527485605116585" lon="121.00696391638014"><ele>8.333333333333332</ele><time>2026-04-18T06:28:45.999Z</time></trkpt><trkpt lat="14.527456603598115" lon="121.00713877372903"><ele>8.666666666666666</ele><time>2026-04-18T06:28:46.999Z</time></trkpt><trkpt lat="14.527427647046135" lon="121.00731349797822"><ele>9.0</ele><time>2026-04-18T06:28:47.999Z</time></trkpt><trkpt lat="14.527397702428923" lon="121.00749017765187"><ele>8.666666666666666</ele><time>2026-04-18T06:28:48.999Z</time></trkpt><trkpt lat="14.52736853076029" lon="121.00766712523759"><ele>8.333333333333332</ele><time>2026-04-18T06:28:49.999Z</time></trkpt><trkpt lat="14.5273410280633" lon="121.00784411162691"><ele>8.0</ele><time>2026-04-18T06:28:50.999Z</time></trkpt><trkpt lat="14.5273131113674" lon="121.00802188486988"><ele>8.0</ele><time>2026-04-18T06:28:51.999Z</time></trkpt><trkpt lat="14.527284911482814" lon="121.00819846436373"><ele>8.0</ele><time>2026-04-18T06:28:52.999Z</time></trkpt><trkpt lat="14.527257514286411" lon="121.00837249254381"><ele>8.0</ele><time>2026-04-18T06:28:53.999Z</time></trkpt><trkpt lat="14.52723172642699" lon="121.00854184937218"><ele>9.0</ele><time>2026-04-18T06:28:54.999Z</time></trkpt><trkpt lat="14.527206364775079" lon="121.00870688925383"><ele>10.0</ele><time>2026-04-18T06:28:55.999Z</time></trkpt><trkpt lat="14.527181936137211" lon="121.00887056199329"><ele>11.0</ele><time>2026-04-18T06:28:56.999Z</time></trkpt><trkpt lat="14.52715689798678" lon="121.00903044632531"><ele>10.666666666666666</ele><time>2026-04-18T06:28:57.999Z</time></trkpt><trkpt lat="14.527132529426037" lon="121.00918645414951"><ele>10.333333333333334</ele><time>2026-04-18T06:28:58.999Z</time></trkpt><trkpt lat="14.52710908719292" lon="121.00933989693353"><ele>10.0</ele><time>2026-04-18T06:28:59.999Z</time></trkpt><trkpt lat="14.527085124641141" lon="121.0094901151576"><ele>10.5</ele><time>2026-04-18T06:29:00.999Z</time></trkpt><trkpt lat="14.527055643626891" lon="121.00963513688956"><ele>11.0</ele><time>2026-04-18T06:29:01.999Z</time></trkpt><trkpt lat="14.527016860946942" lon="121.00978124952248"><ele>11.5</ele><time>2026-04-18T06:29:02.999Z</time></trkpt><trkpt lat="14.526966237951246" lon="121.00992569985962"><ele>12.0</ele><time>2026-04-18T06:29:03.999Z</time></trkpt><trkpt lat="14.526904615026648" lon="121.01006779651375"><ele>12.0</ele><time>2026-04-18T06:29:04.999Z</time></trkpt><trkpt lat="14.526835188088002" lon="121.01021038222504"><ele>12.0</ele><time>2026-04-18T06:29:05.999Z</time></trkpt><trkpt lat="14.526753288677805" lon="121.01034723406417"><ele>12.0</ele><time>2026-04-18T06:29:06.999Z</time></trkpt><trkpt lat="14.526662217281363" lon="121.01047869144125"><ele>12.0</ele><time>2026-04-18T06:29:07.999Z</time></trkpt><trkpt lat="14.526559809327258" lon="121.01060505740759"><ele>12.0</ele><time>2026-04-18T06:29:08.999Z</time></trkpt><trkpt lat="14.526449291138654" lon="121.01072413666789"><ele>12.0</ele><time>2026-04-18T06:29:09.999Z</time></trkpt><trkpt lat="14.526331197576713" lon="121.0108372926751"><ele>12.0</ele><time>2026-04-18T06:29:10.999Z</time></trkpt><trkpt lat="14.526206250940728" lon="121.01094119516215"><ele>12.0</ele><time>2026-04-18T06:29:11.999Z</time></trkpt><trkpt lat="14.526073783710581" lon="121.0110334355712"><ele>12.0</ele><time>2026-04-18T06:29:12.999Z</time></trkpt><trkpt lat="14.525940178967515" lon="121.01112128903324"><ele>12.0</ele><time>2026-04-18T06:29:13.999Z</time></trkpt><trkpt lat="14.525804084411197" lon="121.01121243707824"><ele>12.0</ele><time>2026-04-18T06:29:14.999Z</time></trkpt><trkpt lat="14.525666281811626" lon="121.01130224533772"><ele>12.0</ele><time>2026-04-18T06:29:15.999Z</time></trkpt><trkpt lat="14.52552787832795" lon="121.01138615048585"><ele>11.666666666666666</ele><time>2026-04-18T06:29:16.999Z</time></trkpt><trkpt lat="14.525382659471637" lon="121.01146760781785"><ele>11.333333333333332</ele><time>2026-04-18T06:29:17.999Z</time></trkpt><trkpt lat="14.52523195728722" lon="121.01154233082903"><ele>11.0</ele><time>2026-04-18T06:29:18.999Z</time></trkpt><trkpt lat="14.525078073157042" lon="121.01160908346101"><ele>10.333333333333332</ele><time>2026-04-18T06:29:19.999Z</time></trkpt><trkpt lat="14.524922314127398" lon="121.01167052753168"><ele>9.666666666666666</ele><time>2026-04-18T06:29:20.999Z</time></trkpt><trkpt lat="14.524768679798159" lon="121.01172630703559"><ele>9.0</ele><time>2026-04-18T06:29:21.999Z</time></trkpt><trkpt lat="14.524619303376182" lon="121.01177079587858"><ele>9.333333333333334</ele><time>2026-04-18T06:29:22.999Z</time></trkpt><trkpt lat="14.52447048268914" lon="121.01182475257134"><ele>9.666666666666668</ele><time>2026-04-18T06:29:23.999Z</time></trkpt><trkpt lat="14.52432553559885" lon="121.01188182482677"><ele>10.0</ele><time>2026-04-18T06:29:24.999Z</time></trkpt><trkpt lat="14.524186409569886" lon="121.01194196700739"><ele>10.0</ele><time>2026-04-18T06:29:25.999Z</time></trkpt><trkpt lat="14.524049379108892" lon="121.01201108556688"><ele>10.0</ele><time>2026-04-18T06:29:26.999Z</time></trkpt><trkpt lat="14.523917884075855" lon="121.01208386563707"><ele>10.0</ele><time>2026-04-18T06:29:27.999Z</time></trkpt><trkpt lat="14.52379010871901" lon="121.01216331392182"><ele>10.0</ele><time>2026-04-18T06:29:28.999Z</time></trkpt><trkpt lat="14.523668953446874" lon="121.01224939456236"><ele>10.0</ele><time>2026-04-18T06:29:29.999Z</time></trkpt><trkpt lat="14.523555113040537" lon="121.01234237444129"><ele>10.0</ele><time>2026-04-18T06:29:30.999Z</time></trkpt><trkpt lat="14.523450335975905" lon="121.0124358015846"><ele>10.0</ele><time>2026-04-18T06:29:31.999Z</time></trkpt><trkpt lat="14.52335146722931" lon="121.01253468468327"><ele>10.75</ele><time>2026-04-18T06:29:32.999Z</time></trkpt><trkpt lat="14.523255538460404" lon="121.01263422452051"><ele>11.5</ele><time>2026-04-18T06:29:33.999Z</time></trkpt><trkpt lat="14.523160128096478" lon="121.01273290618482"><ele>12.25</ele><time>2026-04-18T06:29:34.999Z</time></trkpt><trkpt lat="14.523070568770313" lon="121.01282271678265"><ele>13.0</ele><time>2026-04-18T06:29:35.999Z</time></trkpt><trkpt lat="14.522988697328191" lon="121.01290380942791"><ele>12.999999999999998</ele><time>2026-04-18T06:29:36.999Z</time></trkpt><trkpt lat="14.522917838542963" lon="121.01297399675533"><ele>13.0</ele><time>2026-04-18T06:29:37.999Z</time></trkpt><trkpt lat="14.522856247184404" lon="121.01303697552072"><ele>13.0</ele><time>2026-04-18T06:29:38.999Z</time></trkpt><trkpt lat="14.522801934538085" lon="121.01309426113285"><ele>13.0</ele><time>2026-04-18T06:29:39.999Z</time></trkpt><trkpt lat="14.52274999091291" lon="121.01314603004825"><ele>12.999999999999998</ele><time>2026-04-18T06:29:40.999Z</time></trkpt><trkpt lat="14.522702248670141" lon="121.01319226902753"><ele>13.0</ele><time>2026-04-18T06:29:41.999Z</time></trkpt><trkpt lat="14.522622309292192" lon="121.0132665501259"><ele>13.0</ele><time>2026-04-18T06:29:43.999Z</time></trkpt><trkpt lat="14.522556330066637" lon="121.01332983696005"><ele>13.0</ele><time>2026-04-18T06:29:45.999Z</time></trkpt><trkpt lat="14.52250031192595" lon="121.01338520105239"><ele>13.0</ele><time>2026-04-18T06:29:49.999Z</time></trkpt><trkpt lat="14.52242847243449" lon="121.01345350414776"><ele>13.0</ele><time>2026-04-18T06:29:53Z</time></trkpt><trkpt lat="14.522351419962792" lon="121.01351004735812"><ele>13.0</ele><time>2026-04-18T06:29:55Z</time></trkpt><trkpt lat="14.522244495167943" lon="121.01360872720902"><ele>12.999999999999998</ele><time>2026-04-18T06:29:57Z</time></trkpt><trkpt lat="14.522182275167369" lon="121.01365836936353"><ele>13.0</ele><time>2026-04-18T06:29:58Z</time></trkpt><trkpt lat="14.52211292566601" lon="121.01370692024622"><ele>13.0</ele><time>2026-04-18T06:29:59Z</time></trkpt><trkpt lat="14.52203758910433" lon="121.0137551368299"><ele>13.0</ele><time>2026-04-18T06:30:00Z</time></trkpt><trkpt lat="14.521958160994208" lon="121.01380848287283"><ele>12.999999999999998</ele><time>2026-04-18T06:30:01Z</time></trkpt><trkpt lat="14.521874004714933" lon="121.013868619914"><ele>13.0</ele><time>2026-04-18T06:30:02Z</time></trkpt><trkpt lat="14.521790277353329" lon="121.01393755901735"><ele>12.75</ele><time>2026-04-18T06:30:03Z</time></trkpt><trkpt lat="14.521708245481747" lon="121.01401164408902"><ele>12.5</ele><time>2026-04-18T06:30:04Z</time></trkpt><trkpt lat="14.521624501292093" lon="121.01409639387329"><ele>12.25</ele><time>2026-04-18T06:30:05Z</time></trkpt><trkpt lat="14.521540272546401" lon="121.01418408387804"><ele>12.0</ele><time>2026-04-18T06:30:06Z</time></trkpt><trkpt lat="14.521457932919938" lon="121.01427724092134"><ele>12.0</ele><time>2026-04-18T06:30:07Z</time></trkpt><trkpt lat="14.521378887452283" lon="121.01437223623854"><ele>12.0</ele><time>2026-04-18T06:30:08Z</time></trkpt><trkpt lat="14.52129515894062" lon="121.0144678809676"><ele>12.0</ele><time>2026-04-18T06:30:09Z</time></trkpt><trkpt lat="14.521214032396406" lon="121.01456433909655"><ele>12.0</ele><time>2026-04-18T06:30:10Z</time></trkpt><trkpt lat="14.521132133720853" lon="121.01466321263666"><ele>12.5</ele><time>2026-04-18T06:30:11Z</time></trkpt><trkpt lat="14.521044202166431" lon="121.01476777066148"><ele>13.0</ele><time>2026-04-18T06:30:12Z</time></trkpt><trkpt lat="14.520953547654656" lon="121.01487041414929"><ele>13.5</ele><time>2026-04-18T06:30:13Z</time></trkpt><trkpt lat="14.520858619304278" lon="121.01497545272036"><ele>14.0</ele><time>2026-04-18T06:30:14Z</time></trkpt><trkpt lat="14.520760712927911" lon="121.015081605841"><ele>14.0</ele><time>2026-04-18T06:30:15Z</time></trkpt><trkpt lat="14.52066111677977" lon="121.01518663268018"><ele>14.0</ele><time>2026-04-18T06:30:16Z</time></trkpt><trkpt lat="14.520557381080158" lon="121.0152968558003"><ele>14.0</ele><time>2026-04-18T06:30:17Z</time></trkpt><trkpt lat="14.520450588844492" lon="121.01540799403597"><ele>14.0</ele><time>2026-04-18T06:30:18Z</time></trkpt><trkpt lat="14.520342398548733" lon="121.01551839624767"><ele>14.0</ele><time>2026-04-18T06:30:19Z</time></trkpt><trkpt lat="14.520232313690606" lon="121.01562842493149"><ele>14.0</ele><time>2026-04-18T06:30:20Z</time></trkpt><trkpt lat="14.520118656163582" lon="121.01574000063451"><ele>14.0</ele><time>2026-04-18T06:30:21Z</time></trkpt><trkpt lat="14.520003780214784" lon="121.01585327882334"><ele>14.333333333333334</ele><time>2026-04-18T06:30:22Z</time></trkpt><trkpt lat="14.519888402431013" lon="121.01597213336073"><ele>14.666666666666668</ele><time>2026-04-18T06:30:23Z</time></trkpt><trkpt lat="14.519771099093958" lon="121.0160920390698"><ele>15.0</ele><time>2026-04-18T06:30:24Z</time></trkpt><trkpt lat="14.519649609032664" lon="121.0162119787565"><ele>14.333333333333332</ele><time>2026-04-18T06:30:25Z</time></trkpt><trkpt lat="14.51952588365569" lon="121.01633152531525"><ele>13.666666666666666</ele><time>2026-04-18T06:30:26Z</time></trkpt><trkpt lat="14.51940000887938" lon="121.01645424627414"><ele>13.0</ele><time>2026-04-18T06:30:27Z</time></trkpt><trkpt lat="14.519271963558035" lon="121.0165785965087"><ele>14.666666666666666</ele><time>2026-04-18T06:30:28Z</time></trkpt><trkpt lat="14.519142501935232" lon="121.0167045225053"><ele>16.333333333333332</ele><time>2026-04-18T06:30:29Z</time></trkpt><trkpt lat="14.519011057411545" lon="121.01683150472405"><ele>18.0</ele><time>2026-04-18T06:30:30Z</time></trkpt><trkpt lat="14.51887732934153" lon="121.01696076881139"><ele>18.0</ele><time>2026-04-18T06:30:31Z</time></trkpt><trkpt lat="14.518742369636248" lon="121.01709046390724"><ele>18.0</ele><time>2026-04-18T06:30:32Z</time></trkpt><trkpt lat="14.518605035755375" lon="121.01722225101066"><ele>18.0</ele><time>2026-04-18T06:30:33Z</time></trkpt><trkpt lat="14.51846658613751" lon="121.01735465484002"><ele>18.0</ele><time>2026-04-18T06:30:34Z</time></trkpt><trkpt lat="14.518328827312622" lon="121.01748792383093"><ele>18.0</ele><time>2026-04-18T06:30:35Z</time></trkpt><trkpt lat="14.518190930498234" lon="121.01762160877585"><ele>18.0</ele><time>2026-04-18T06:30:36Z</time></trkpt><trkpt lat="14.518052583195317" lon="121.01775378635578"><ele>18.0</ele><time>2026-04-18T06:30:37Z</time></trkpt><trkpt lat="14.517918510310485" lon="121.01788598429688"><ele>18.0</ele><time>2026-04-18T06:30:38Z</time></trkpt><trkpt lat="14.517786714898396" lon="121.01801126079067"><ele>18.0</ele><time>2026-04-18T06:30:39Z</time></trkpt><trkpt lat="14.51766058585719" lon="121.01813388872795"><ele>17.333333333333332</ele><time>2026-04-18T06:30:40Z</time></trkpt><trkpt lat="14.517539447820711" lon="121.01825081454298"><ele>16.666666666666664</ele><time>2026-04-18T06:30:41Z</time></trkpt><trkpt lat="14.517430083366794" lon="121.01836933211203"><ele>16.0</ele><time>2026-04-18T06:30:42Z</time></trkpt><trkpt lat="14.517339175442471" lon="121.01850006860863"><ele>16.0</ele><time>2026-04-18T06:30:43Z</time></trkpt><trkpt lat="14.517262152926737" lon="121.01863544148445"><ele>16.0</ele><time>2026-04-18T06:30:44Z</time></trkpt><trkpt lat="14.517207190737176" lon="121.01878258059469"><ele>16.0</ele><time>2026-04-18T06:30:45Z</time></trkpt><trkpt lat="14.517168851252043" lon="121.0189306717606"><ele>16.0</ele><time>2026-04-18T06:30:46Z</time></trkpt><trkpt lat="14.51715267543607" lon="121.01908449283971"><ele>16.0</ele><time>2026-04-18T06:30:47Z</time></trkpt><trkpt lat="14.51716184602083" lon="121.01923794685723"><ele>16.0</ele><time>2026-04-18T06:30:48Z</time></trkpt><trkpt lat="14.517189121776424" lon="121.01938652626299"><ele>16.0</ele><time>2026-04-18T06:30:49Z</time></trkpt><trkpt lat="14.517234093944436" lon="121.01952943585856"><ele>16.25</ele><time>2026-04-18T06:30:50Z</time></trkpt><trkpt lat="14.51729497452484" lon="121.01966354265089"><ele>16.5</ele><time>2026-04-18T06:30:51Z</time></trkpt><trkpt lat="14.517373394790958" lon="121.01978864084008"><ele>16.75</ele><time>2026-04-18T06:30:52Z</time></trkpt><trkpt lat="14.5174659369387" lon="121.0198994388976"><ele>17.0</ele><time>2026-04-18T06:30:53Z</time></trkpt><trkpt lat="14.517568912115676" lon="121.02000637822456"><ele>16.333333333333336</ele><time>2026-04-18T06:30:54Z</time></trkpt><trkpt lat="14.517676597661714" lon="121.02011214578731"><ele>15.666666666666668</ele><time>2026-04-18T06:30:55Z</time></trkpt><trkpt lat="14.517785046807674" lon="121.0202228987471"><ele>15.0</ele><time>2026-04-18T06:30:56Z</time></trkpt><trkpt lat="14.517891483703455" lon="121.0203329335583"><ele>16.0</ele><time>2026-04-18T06:30:57Z</time></trkpt><trkpt lat="14.51799325285811" lon="121.02044409297797"><ele>17.0</ele><time>2026-04-18T06:30:58Z</time></trkpt><trkpt lat="14.518096234599119" lon="121.02055764997563"><ele>18.0</ele><time>2026-04-18T06:30:59Z</time></trkpt><trkpt lat="14.518201335060745" lon="121.02067015132798"><ele>18.0</ele><time>2026-04-18T06:31:00Z</time></trkpt><trkpt lat="14.518305354494107" lon="121.02078047087454"><ele>18.0</ele><time>2026-04-18T06:31:01Z</time></trkpt><trkpt lat="14.518410846254733" lon="121.02089399058869"><ele>18.0</ele><time>2026-04-18T06:31:02Z</time></trkpt><trkpt lat="14.518520496084419" lon="121.02100812176822"><ele>19.333333333333332</ele><time>2026-04-18T06:31:03Z</time></trkpt><trkpt lat="14.518632800523894" lon="121.02112250502675"><ele>20.666666666666664</ele><time>2026-04-18T06:31:04Z</time></trkpt><trkpt lat="14.518746209587915" lon="121.0212379380354"><ele>22.0</ele><time>2026-04-18T06:31:05Z</time></trkpt><trkpt lat="14.51886354586518" lon="121.02135446928834"><ele>22.0</ele><time>2026-04-18T06:31:06Z</time></trkpt><trkpt lat="14.51897980028676" lon="121.02147453007655"><ele>22.0</ele><time>2026-04-18T06:31:07Z</time></trkpt><trkpt lat="14.519097331798175" lon="121.02159197159311"><ele>22.0</ele><time>2026-04-18T06:31:08Z</time></trkpt><trkpt lat="14.519213579560969" lon="121.02171207609042"><ele>21.0</ele><time>2026-04-18T06:31:09Z</time></trkpt><trkpt lat="14.51933186689196" lon="121.02183022091592"><ele>20.0</ele><time>2026-04-18T06:31:10Z</time></trkpt><trkpt lat="14.519448995560731" lon="121.0219486246014"><ele>19.0</ele><time>2026-04-18T06:31:11Z</time></trkpt><trkpt lat="14.519565376158125" lon="121.0220652677966"><ele>20.0</ele><time>2026-04-18T06:31:12Z</time></trkpt><trkpt lat="14.519682399421871" lon="121.02218080008693"><ele>21.0</ele><time>2026-04-18T06:31:13Z</time></trkpt><trkpt lat="14.519797625192709" lon="121.02229567790863"><ele>22.0</ele><time>2026-04-18T06:31:14Z</time></trkpt><trkpt lat="14.5199176878248" lon="121.02240224277206"><ele>22.0</ele><time>2026-04-18T06:31:15Z</time></trkpt><trkpt lat="14.520037969064667" lon="121.0225040841386"><ele>22.0</ele><time>2026-04-18T06:31:16Z</time></trkpt><trkpt lat="14.520154595379273" lon="121.0226053819263"><ele>22.0</ele><time>2026-04-18T06:31:17Z</time></trkpt><trkpt lat="14.520265609742173" lon="121.02270584188246"><ele>22.0</ele><time>2026-04-18T06:31:18Z</time></trkpt><trkpt lat="14.520371907477129" lon="121.02280587993629"><ele>22.0</ele><time>2026-04-18T06:31:19Z</time></trkpt><trkpt lat="14.520476621149946" lon="121.02290549849718"><ele>22.0</ele><time>2026-04-18T06:31:20Z</time></trkpt><trkpt lat="14.52057748206137" lon="121.0230002885069"><ele>22.0</ele><time>2026-04-18T06:31:21Z</time></trkpt><trkpt lat="14.520675865291132" lon="121.02309176179021"><ele>22.0</ele><time>2026-04-18T06:31:22Z</time></trkpt><trkpt lat="14.520773116783607" lon="121.02318190696933"><ele>22.0</ele><time>2026-04-18T06:31:23Z</time></trkpt><trkpt lat="14.520866317122932" lon="121.02326740469486"><ele>22.0</ele><time>2026-04-18T06:31:24Z</time></trkpt><trkpt lat="14.520961280118275" lon="121.02335349481798"><ele>22.0</ele><time>2026-04-18T06:31:25Z</time></trkpt><trkpt lat="14.521055932943522" lon="121.02343678298672"><ele>22.0</ele><time>2026-04-18T06:31:26Z</time></trkpt><trkpt lat="14.521154499986945" lon="121.02352842548406"><ele>22.0</ele><time>2026-04-18T06:31:27Z</time></trkpt><trkpt lat="14.52125177357799" lon="121.0236183368665"><ele>22.0</ele><time>2026-04-18T06:31:28Z</time></trkpt><trkpt lat="14.521349249655474" lon="121.023704458822"><ele>22.0</ele><time>2026-04-18T06:31:29Z</time></trkpt><trkpt lat="14.5214479139948" lon="121.0237880622462"><ele>21.0</ele><time>2026-04-18T06:31:30Z</time></trkpt><trkpt lat="14.521540379484604" lon="121.02386168988832"><ele>20.0</ele><time>2026-04-18T06:31:31Z</time></trkpt><trkpt lat="14.521630487861035" lon="121.02392412342415"><ele>19.0</ele><time>2026-04-18T06:31:32Z</time></trkpt><trkpt lat="14.521724769609351" lon="121.02399346416844"><ele>18.0</ele><time>2026-04-18T06:31:33Z</time></trkpt><trkpt lat="14.521817205419117" lon="121.024059677716"><ele>18.0</ele><time>2026-04-18T06:31:34Z</time></trkpt><trkpt lat="14.521908416162397" lon="121.02412100562204"><ele>18.0</ele><time>2026-04-18T06:31:35Z</time></trkpt><trkpt lat="14.522001750127433" lon="121.02418434267706"><ele>18.0</ele><time>2026-04-18T06:31:36Z</time></trkpt><trkpt lat="14.5220937480084" lon="121.02424596486793"><ele>18.0</ele><time>2026-04-18T06:31:37Z</time></trkpt><trkpt lat="14.522184274577493" lon="121.0243066628929"><ele>18.0</ele><time>2026-04-18T06:31:38Z</time></trkpt><trkpt lat="14.522273323102231" lon="121.02436513717174"><ele>18.4</ele><time>2026-04-18T06:31:39Z</time></trkpt><trkpt lat="14.52236126185036" lon="121.02442304920248"><ele>18.8</ele><time>2026-04-18T06:31:40Z</time></trkpt><trkpt lat="14.522444163674535" lon="121.02447733476878"><ele>19.2</ele><time>2026-04-18T06:31:41Z</time></trkpt><trkpt lat="14.522523118873002" lon="121.02452885000407"><ele>19.6</ele><time>2026-04-18T06:31:42Z</time></trkpt><trkpt lat="14.522595990414935" lon="121.02457587189886"><ele>20.0</ele><time>2026-04-18T06:31:43Z</time></trkpt><trkpt lat="14.522666711671665" lon="121.02462155749929"><ele>20.0</ele><time>2026-04-18T06:31:44Z</time></trkpt><trkpt lat="14.522735745201777" lon="121.02466529148288"><ele>20.0</ele><time>2026-04-18T06:31:45Z</time></trkpt><trkpt lat="14.522807344232312" lon="121.02471013905671"><ele>20.0</ele><time>2026-04-18T06:31:46Z</time></trkpt><trkpt lat="14.522878077138394" lon="121.02475563478093"><ele>20.0</ele><time>2026-04-18T06:31:47Z</time></trkpt><trkpt lat="14.52294625231432" lon="121.02480123461586"><ele>20.0</ele><time>2026-04-18T06:31:48Z</time></trkpt><trkpt lat="14.523015844895014" lon="121.02485309310495"><ele>20.0</ele><time>2026-04-18T06:31:49Z</time></trkpt><trkpt lat="14.523078676106941" lon="121.02490988927556"><ele>19.833333333333336</ele><time>2026-04-18T06:31:50Z</time></trkpt><trkpt lat="14.523135225406023" lon="121.02497522894083"><ele>19.666666666666668</ele><time>2026-04-18T06:31:51Z</time></trkpt><trkpt lat="14.523181412936909" lon="121.02504688636321"><ele>19.5</ele><time>2026-04-18T06:31:52Z</time></trkpt><trkpt lat="14.523223690160567" lon="121.02512504666079"><ele>19.333333333333332</ele><time>2026-04-18T06:31:53Z</time></trkpt><trkpt lat="14.523256038785371" lon="121.02520678804744"><ele>19.166666666666664</ele><time>2026-04-18T06:31:54Z</time></trkpt><trkpt lat="14.523281534025454" lon="121.02529739132538"><ele>19.0</ele><time>2026-04-18T06:31:55Z</time></trkpt><trkpt lat="14.523298856685393" lon="121.02538680359537"><ele>18.833333333333332</ele><time>2026-04-18T06:31:56Z</time></trkpt><trkpt lat="14.523310425398686" lon="121.02547955724222"><ele>18.666666666666664</ele><time>2026-04-18T06:31:57Z</time></trkpt><trkpt lat="14.52331717524574" lon="121.02556607300987"><ele>18.5</ele><time>2026-04-18T06:31:58Z</time></trkpt><trkpt lat="14.523320303529177" lon="121.02564971958991"><ele>18.333333333333332</ele><time>2026-04-18T06:31:59Z</time></trkpt><trkpt lat="14.523321536603795" lon="121.02573136517093"><ele>18.166666666666668</ele><time>2026-04-18T06:32:00Z</time></trkpt><trkpt lat="14.523321527653797" lon="121.02581235147791"><ele>18.0</ele><time>2026-04-18T06:32:01Z</time></trkpt><trkpt lat="14.523321175467677" lon="121.02589441078584"><ele>17.6</ele><time>2026-04-18T06:32:02Z</time></trkpt><trkpt lat="14.523321479725332" lon="121.0259713236766"><ele>17.200000000000003</ele><time>2026-04-18T06:32:03Z</time></trkpt><trkpt lat="14.52331978910347" lon="121.02604599135297"><ele>16.8</ele><time>2026-04-18T06:32:04Z</time></trkpt><trkpt lat="14.523315583800507" lon="121.02611277520023"><ele>16.400000000000002</ele><time>2026-04-18T06:32:05Z</time></trkpt><trkpt lat="14.523296874840948" lon="121.02623530007455"><ele>16.0</ele><time>2026-04-18T06:32:07Z</time></trkpt><trkpt lat="14.523259507244195" lon="121.02635828845717"><ele>15.999999999999998</ele><time>2026-04-18T06:32:09Z</time></trkpt><trkpt lat="14.523227491710847" lon="121.02642411953727"><ele>16.0</ele><time>2026-04-18T06:32:10Z</time></trkpt><trkpt lat="14.523188617116038" lon="121.0264884997047"><ele>16.0</ele><time>2026-04-18T06:32:11Z</time></trkpt><trkpt lat="14.523141520247053" lon="121.02655158936231"><ele>16.0</ele><time>2026-04-18T06:32:12Z</time></trkpt><trkpt lat="14.52308670367193" lon="121.02661515664735"><ele>15.999999999999998</ele><time>2026-04-18T06:32:13Z</time></trkpt><trkpt lat="14.52302470916098" lon="121.02667050896628"><ele>16.0</ele><time>2026-04-18T06:32:14Z</time></trkpt><trkpt lat="14.522954502168496" lon="121.02672175183999"><ele>16.2</ele><time>2026-04-18T06:32:15Z</time></trkpt><trkpt lat="14.52287771141245" lon="121.02676428564695"><ele>16.400000000000002</ele><time>2026-04-18T06:32:16Z</time></trkpt><trkpt lat="14.522797456733803" lon="121.02680952209417"><ele>16.6</ele><time>2026-04-18T06:32:17Z</time></trkpt><trkpt lat="14.522717887708191" lon="121.02685148575341"><ele>16.8</ele><time>2026-04-18T06:32:18Z</time></trkpt><trkpt lat="14.522632425507169" lon="121.02689852936318"><ele>17.0</ele><time>2026-04-18T06:32:19Z</time></trkpt><trkpt lat="14.52254424613494" lon="121.02694798241878"><ele>17.0</ele><time>2026-04-18T06:32:20Z</time></trkpt><trkpt lat="14.522454454361876" lon="121.02699780747895"><ele>17.0</ele><time>2026-04-18T06:32:21Z</time></trkpt><trkpt lat="14.522365752562589" lon="121.02705008444201"><ele>17.0</ele><time>2026-04-18T06:32:22Z</time></trkpt><trkpt lat="14.522278136626012" lon="121.02710677227769"><ele>17.0</ele><time>2026-04-18T06:32:23Z</time></trkpt><trkpt lat="14.522188204241367" lon="121.02716350955163"><ele>17.0</ele><time>2026-04-18T06:32:24Z</time></trkpt><trkpt lat="14.522094444083622" lon="121.02722315872822"><ele>16.75</ele><time>2026-04-18T06:32:25Z</time></trkpt><trkpt lat="14.521996162278304" lon="121.02728059472541"><ele>16.5</ele><time>2026-04-18T06:32:26Z</time></trkpt><trkpt lat="14.521896344568432" lon="121.02733651508923"><ele>16.25</ele><time>2026-04-18T06:32:27Z</time></trkpt><trkpt lat="14.521794979211995" lon="121.02739315924926"><ele>16.0</ele><time>2026-04-18T06:32:28Z</time></trkpt><trkpt lat="14.521687918261149" lon="121.02745076083875"><ele>16.0</ele><time>2026-04-18T06:32:29Z</time></trkpt><trkpt lat="14.52157847526963" lon="121.02751105887205"><ele>16.0</ele><time>2026-04-18T06:32:30Z</time></trkpt><trkpt lat="14.52146688533866" lon="121.02757336567201"><ele>16.0</ele><time>2026-04-18T06:32:31Z</time></trkpt><trkpt lat="14.521351430431347" lon="121.02763800673412"><ele>16.0</ele><time>2026-04-18T06:32:32Z</time></trkpt><trkpt lat="14.521229796934147" lon="121.02770232326007"><ele>16.0</ele><time>2026-04-18T06:32:33Z</time></trkpt><trkpt lat="14.521102706781267" lon="121.02776928767793"><ele>16.0</ele><time>2026-04-18T06:32:34Z</time></trkpt><trkpt lat="14.520970700429379" lon="121.02783986787006"><ele>16.0</ele><time>2026-04-18T06:32:35Z</time></trkpt><trkpt lat="14.520832071666941" lon="121.02791462009793"><ele>16.0</ele><time>2026-04-18T06:32:36Z</time></trkpt><trkpt lat="14.520689335916499" lon="121.02798976916655"><ele>16.0</ele><time>2026-04-18T06:32:37Z</time></trkpt><trkpt lat="14.520544274485944" lon="121.02806406371381"><ele>16.0</ele><time>2026-04-18T06:32:38Z</time></trkpt><trkpt lat="14.520394118389357" lon="121.0281445209695"><ele>16.0</ele><time>2026-04-18T06:32:39Z</time></trkpt><trkpt lat="14.520242185105607" lon="121.02822886780291"><ele>16.666666666666664</ele><time>2026-04-18T06:32:40Z</time></trkpt><trkpt lat="14.520085844607685" lon="121.02831578555771"><ele>17.333333333333332</ele><time>2026-04-18T06:32:41Z</time></trkpt><trkpt lat="14.519925230602366" lon="121.02840672191486"><ele>18.0</ele><time>2026-04-18T06:32:42Z</time></trkpt><trkpt lat="14.519760810400033" lon="121.02849742615483"><ele>18.0</ele><time>2026-04-18T06:32:43Z</time></trkpt><trkpt lat="14.519592606132134" lon="121.02859004914649"><ele>18.0</ele><time>2026-04-18T06:32:44Z</time></trkpt><trkpt lat="14.519420604880224" lon="121.02868428743125"><ele>18.0</ele><time>2026-04-18T06:32:45Z</time></trkpt><trkpt lat="14.519248310525251" lon="121.02877980359183"><ele>18.333333333333332</ele><time>2026-04-18T06:32:46Z</time></trkpt><trkpt lat="14.519073456984106" lon="121.02887804080868"><ele>18.666666666666664</ele><time>2026-04-18T06:32:47Z</time></trkpt><trkpt lat="14.518897758614186" lon="121.02897648473721"><ele>19.0</ele><time>2026-04-18T06:32:48Z</time></trkpt><trkpt lat="14.51871902850285" lon="121.02907403206797"><ele>19.0</ele><time>2026-04-18T06:32:49Z</time></trkpt><trkpt lat="14.518539054152269" lon="121.02917055730632"><ele>19.0</ele><time>2026-04-18T06:32:50Z</time></trkpt><trkpt lat="14.518359555649727" lon="121.02926633547965"><ele>19.0</ele><time>2026-04-18T06:32:51Z</time></trkpt><trkpt lat="14.518180880439651" lon="121.02936264704756"><ele>19.0</ele><time>2026-04-18T06:32:52Z</time></trkpt><trkpt lat="14.518001838834278" lon="121.02945931040105"><ele>19.0</ele><time>2026-04-18T06:32:53Z</time></trkpt><trkpt lat="14.517822681044379" lon="121.029554885012"><ele>19.0</ele><time>2026-04-18T06:32:54Z</time></trkpt><trkpt lat="14.51764365976321" lon="121.02964952806114"><ele>19.666666666666664</ele><time>2026-04-18T06:32:55Z</time></trkpt><trkpt lat="14.51746557419521" lon="121.02974464431115"><ele>20.333333333333332</ele><time>2026-04-18T06:32:56Z</time></trkpt><trkpt lat="14.517287717300393" lon="121.02983892753231"><ele>21.0</ele><time>2026-04-18T06:32:57Z</time></trkpt><trkpt lat="14.517109312311081" lon="121.02993325071311"><ele>21.666666666666668</ele><time>2026-04-18T06:32:58Z</time></trkpt><trkpt lat="14.516928642963073" lon="121.03002779087183"><ele>22.333333333333336</ele><time>2026-04-18T06:32:59Z</time></trkpt><trkpt lat="14.516748062439998" lon="121.03012484803581"><ele>23.0</ele><time>2026-04-18T06:33:00Z</time></trkpt><trkpt lat="14.516567139594883" lon="121.03022100570338"><ele>23.0</ele><time>2026-04-18T06:33:01Z</time></trkpt><trkpt lat="14.51638560976444" lon="121.03031732422113"><ele>23.0</ele><time>2026-04-18T06:33:02Z</time></trkpt><trkpt lat="14.516203745229033" lon="121.03041484140341"><ele>23.0</ele><time>2026-04-18T06:33:03Z</time></trkpt><trkpt lat="14.516019766254077" lon="121.03051193344207"><ele>22.333333333333336</ele><time>2026-04-18T06:33:04Z</time></trkpt><trkpt lat="14.515835660433778" lon="121.03060972700175"><ele>21.666666666666668</ele><time>2026-04-18T06:33:05Z</time></trkpt><trkpt lat="14.515649697849891" lon="121.03071044818752"><ele>21.0</ele><time>2026-04-18T06:33:06Z</time></trkpt><trkpt lat="14.51546281050114" lon="121.03081014870864"><ele>22.0</ele><time>2026-04-18T06:33:07Z</time></trkpt><trkpt lat="14.51527650426389" lon="121.03090946583853"><ele>23.0</ele><time>2026-04-18T06:33:08Z</time></trkpt><trkpt lat="14.515092351609036" lon="121.03100860501078"><ele>24.0</ele><time>2026-04-18T06:33:09Z</time></trkpt><trkpt lat="14.514910921470932" lon="121.03110670325059"><ele>24.0</ele><time>2026-04-18T06:33:10Z</time></trkpt><trkpt lat="14.514733039472825" lon="121.03120429204726"><ele>24.0</ele><time>2026-04-18T06:33:11Z</time></trkpt><trkpt lat="14.514560417918382" lon="121.03130074647865"><ele>24.0</ele><time>2026-04-18T06:33:12Z</time></trkpt><trkpt lat="14.514390681708996" lon="121.03139705334532"><ele>24.0</ele><time>2026-04-18T06:33:13Z</time></trkpt><trkpt lat="14.514220480418848" lon="121.03149390346287"><ele>24.0</ele><time>2026-04-18T06:33:14Z</time></trkpt><trkpt lat="14.514054543851426" lon="121.03159289639393"><ele>24.0</ele><time>2026-04-18T06:33:15Z</time></trkpt><trkpt lat="14.513888230783486" lon="121.03169203631977"><ele>24.0</ele><time>2026-04-18T06:33:16Z</time></trkpt><trkpt lat="14.513720496125545" lon="121.03179237275548"><ele>24.0</ele><time>2026-04-18T06:33:17Z</time></trkpt><trkpt lat="14.513556123044042" lon="121.03189606864143"><ele>24.0</ele><time>2026-04-18T06:33:18Z</time></trkpt><trkpt lat="14.51339143123139" lon="121.03200114191137"><ele>24.0</ele><time>2026-04-18T06:33:19Z</time></trkpt><trkpt lat="14.513226199948038" lon="121.03210559199545"><ele>24.0</ele><time>2026-04-18T06:33:20Z</time></trkpt><trkpt lat="14.513057046158435" lon="121.03221175108055"><ele>24.0</ele><time>2026-04-18T06:33:21Z</time></trkpt><trkpt lat="14.512886873911118" lon="121.03231452520079"><ele>24.333333333333336</ele><time>2026-04-18T06:33:22Z</time></trkpt><trkpt lat="14.512713197059655" lon="121.03241759767154"><ele>24.666666666666668</ele><time>2026-04-18T06:33:23Z</time></trkpt><trkpt lat="14.512538340431165" lon="121.03251766194066"><ele>25.0</ele><time>2026-04-18T06:33:24Z</time></trkpt><trkpt lat="14.512364014931" lon="121.03261489211097"><ele>25.666666666666668</ele><time>2026-04-18T06:33:25Z</time></trkpt><trkpt lat="14.512188583127989" lon="121.03271230563277"><ele>26.333333333333336</ele><time>2026-04-18T06:33:26Z</time></trkpt><trkpt lat="14.512016351292438" lon="121.03280621332355"><ele>27.0</ele><time>2026-04-18T06:33:27Z</time></trkpt><trkpt lat="14.511840174006203" lon="121.03290158019828"><ele>27.0</ele><time>2026-04-18T06:33:28Z</time></trkpt><trkpt lat="14.511666156350959" lon="121.03299598470475"><ele>27.0</ele><time>2026-04-18T06:33:29Z</time></trkpt><trkpt lat="14.511489656307043" lon="121.03308958057957"><ele>27.0</ele><time>2026-04-18T06:33:30Z</time></trkpt><trkpt lat="14.511310301535552" lon="121.03318908343587"><ele>27.0</ele><time>2026-04-18T06:33:31Z</time></trkpt><trkpt lat="14.511133410937715" lon="121.03329123752468"><ele>27.0</ele><time>2026-04-18T06:33:32Z</time></trkpt><trkpt lat="14.510957172413127" lon="121.03339804765835"><ele>27.0</ele><time>2026-04-18T06:33:33Z</time></trkpt><trkpt lat="14.51078758759675" lon="121.03349242820123"><ele>27.0</ele><time>2026-04-18T06:33:34Z</time></trkpt><trkpt lat="14.510613636514547" lon="121.03358798916189"><ele>27.0</ele><time>2026-04-18T06:33:35Z</time></trkpt><trkpt lat="14.510440966324152" lon="121.03367982149389"><ele>27.0</ele><time>2026-04-18T06:33:36Z</time></trkpt><trkpt lat="14.510268527113016" lon="121.03377057186941"><ele>25.666666666666668</ele><time>2026-04-18T06:33:37Z</time></trkpt><trkpt lat="14.510097867415427" lon="121.03386060682719"><ele>24.333333333333336</ele><time>2026-04-18T06:33:38Z</time></trkpt><trkpt lat="14.509932300532181" lon="121.03394701915371"><ele>23.0</ele><time>2026-04-18T06:33:39Z</time></trkpt><trkpt lat="14.509770241149912" lon="121.03403056785902"><ele>23.0</ele><time>2026-04-18T06:33:40Z</time></trkpt><trkpt lat="14.509611656315023" lon="121.03410978387565"><ele>23.0</ele><time>2026-04-18T06:33:41Z</time></trkpt><trkpt lat="14.509455148191021" lon="121.03418538896969"><ele>23.0</ele><time>2026-04-18T06:33:42Z</time></trkpt><trkpt lat="14.509297125142394" lon="121.03425759686247"><ele>23.666666666666668</ele><time>2026-04-18T06:33:43Z</time></trkpt><trkpt lat="14.509141052880103" lon="121.03432302062457"><ele>24.333333333333336</ele><time>2026-04-18T06:33:44Z</time></trkpt><trkpt lat="14.508979608819875" lon="121.03439091394048"><ele>25.0</ele><time>2026-04-18T06:33:45Z</time></trkpt><trkpt lat="14.508818519964896" lon="121.03446224081137"><ele>23.0</ele><time>2026-04-18T06:33:46Z</time></trkpt><trkpt lat="14.508658365764571" lon="121.03452689538017"><ele>21.0</ele><time>2026-04-18T06:33:47Z</time></trkpt><trkpt lat="14.508497242361644" lon="121.03458916804718"><ele>19.0</ele><time>2026-04-18T06:33:48Z</time></trkpt><trkpt lat="14.508338269002174" lon="121.03464762735732"><ele>19.0</ele><time>2026-04-18T06:33:49Z</time></trkpt><trkpt lat="14.50818034589576" lon="121.03470293100418"><ele>19.0</ele><time>2026-04-18T06:33:50Z</time></trkpt><trkpt lat="14.508023625129223" lon="121.03475242894774"><ele>19.0</ele><time>2026-04-18T06:33:51Z</time></trkpt><trkpt lat="14.507866961153422" lon="121.03479909503945"><ele>18.666666666666664</ele><time>2026-04-18T06:33:52Z</time></trkpt><trkpt lat="14.507713032771258" lon="121.0348453703428"><ele>18.333333333333332</ele><time>2026-04-18T06:33:53Z</time></trkpt><trkpt lat="14.507563165450764" lon="121.03489023736427"><ele>18.0</ele><time>2026-04-18T06:33:54Z</time></trkpt><trkpt lat="14.507416150758072" lon="121.0349342493328"><ele>18.333333333333332</ele><time>2026-04-18T06:33:55Z</time></trkpt><trkpt lat="14.507267063450545" lon="121.03497828934769"><ele>18.666666666666664</ele><time>2026-04-18T06:33:56Z</time></trkpt><trkpt lat="14.507118674095071" lon="121.03502693761254"><ele>19.0</ele><time>2026-04-18T06:33:57Z</time></trkpt><trkpt lat="14.506965540314996" lon="121.03507427416245"><ele>19.0</ele><time>2026-04-18T06:33:58Z</time></trkpt><trkpt lat="14.506808777410358" lon="121.03512703489773"><ele>19.0</ele><time>2026-04-18T06:33:59Z</time></trkpt><trkpt lat="14.506649046202666" lon="121.0351839408848"><ele>19.0</ele><time>2026-04-18T06:34:00Z</time></trkpt><trkpt lat="14.506487030278473" lon="121.03524261040997"><ele>19.0</ele><time>2026-04-18T06:34:01Z</time></trkpt><trkpt lat="14.50632097612768" lon="121.03530717619975"><ele>19.0</ele><time>2026-04-18T06:34:02Z</time></trkpt><trkpt lat="14.506153897796901" lon="121.03537911877112"><ele>19.0</ele><time>2026-04-18T06:34:03Z</time></trkpt><trkpt lat="14.505981438827458" lon="121.0354552457881"><ele>17.666666666666664</ele><time>2026-04-18T06:34:04Z</time></trkpt><trkpt lat="14.50580477466696" lon="121.03553383348171"><ele>16.333333333333332</ele><time>2026-04-18T06:34:05Z</time></trkpt><trkpt lat="14.505624550386727" lon="121.03561790868058"><ele>15.0</ele><time>2026-04-18T06:34:06Z</time></trkpt><trkpt lat="14.505443118671044" lon="121.03570650551016"><ele>15.0</ele><time>2026-04-18T06:34:07Z</time></trkpt><trkpt lat="14.505257920310484" lon="121.03579883844004"><ele>15.0</ele><time>2026-04-18T06:34:08Z</time></trkpt><trkpt lat="14.505070120828822" lon="121.0358939528467"><ele>15.0</ele><time>2026-04-18T06:34:09Z</time></trkpt><trkpt lat="14.504880031031366" lon="121.03599249993005"><ele>16.333333333333332</ele><time>2026-04-18T06:34:10Z</time></trkpt><trkpt lat="14.504687157725256" lon="121.03609150094583"><ele>17.666666666666664</ele><time>2026-04-18T06:34:11Z</time></trkpt><trkpt lat="14.50449628356446" lon="121.0361916473788"><ele>19.0</ele><time>2026-04-18T06:34:12Z</time></trkpt><trkpt lat="14.504302699388013" lon="121.0362973319283"><ele>19.666666666666664</ele><time>2026-04-18T06:34:13Z</time></trkpt><trkpt lat="14.50411275825734" lon="121.03639896587646"><ele>20.333333333333332</ele><time>2026-04-18T06:34:14Z</time></trkpt><trkpt lat="14.503922157126759" lon="121.03650129442342"><ele>21.0</ele><time>2026-04-18T06:34:15Z</time></trkpt><trkpt lat="14.503728798598008" lon="121.03660127124564"><ele>21.666666666666668</ele><time>2026-04-18T06:34:16Z</time></trkpt><trkpt lat="14.503533181634591" lon="121.03669793757317"><ele>22.333333333333336</ele><time>2026-04-18T06:34:17Z</time></trkpt><trkpt lat="14.503339746602354" lon="121.03679606765802"><ele>23.0</ele><time>2026-04-18T06:34:18Z</time></trkpt><trkpt lat="14.503145041064183" lon="121.03689653383749"><ele>23.0</ele><time>2026-04-18T06:34:19Z</time></trkpt><trkpt lat="14.50294807738399" lon="121.03699750335284"><ele>23.0</ele><time>2026-04-18T06:34:20Z</time></trkpt><trkpt lat="14.502753537672826" lon="121.03710289315501"><ele>23.0</ele><time>2026-04-18T06:34:21Z</time></trkpt><trkpt lat="14.502557501911618" lon="121.0372070149508"><ele>22.666666666666668</ele><time>2026-04-18T06:34:22Z</time></trkpt><trkpt lat="14.502363301694052" lon="121.03731226417821"><ele>22.333333333333332</ele><time>2026-04-18T06:34:23Z</time></trkpt><trkpt lat="14.502168463301006" lon="121.03741811508267"><ele>22.0</ele><time>2026-04-18T06:34:24Z</time></trkpt><trkpt lat="14.501974992824417" lon="121.03752137665235"><ele>23.0</ele><time>2026-04-18T06:34:25Z</time></trkpt><trkpt lat="14.501783691713152" lon="121.03762264395455"><ele>24.0</ele><time>2026-04-18T06:34:26Z</time></trkpt><trkpt lat="14.501591591263844" lon="121.03772569387586"><ele>25.0</ele><time>2026-04-18T06:34:27Z</time></trkpt><trkpt lat="14.501398717093121" lon="121.03782611824283"><ele>24.666666666666668</ele><time>2026-04-18T06:34:28Z</time></trkpt><trkpt lat="14.501205919554236" lon="121.03792951441518"><ele>24.333333333333336</ele><time>2026-04-18T06:34:29Z</time></trkpt><trkpt lat="14.501011137574134" lon="121.0380338084677"><ele>24.0</ele><time>2026-04-18T06:34:30Z</time></trkpt><trkpt lat="14.500817049812563" lon="121.03813715838113"><ele>24.0</ele><time>2026-04-18T06:34:31Z</time></trkpt><trkpt lat="14.50062396867912" lon="121.038238992047"><ele>24.0</ele><time>2026-04-18T06:34:32Z</time></trkpt><trkpt lat="14.500432514465121" lon="121.03834289252427"><ele>24.0</ele><time>2026-04-18T06:34:33Z</time></trkpt><trkpt lat="14.500244396851786" lon="121.03844599866831"><ele>24.666666666666664</ele><time>2026-04-18T06:34:34Z</time></trkpt><trkpt lat="14.500059742234159" lon="121.03854785838162"><ele>25.333333333333332</ele><time>2026-04-18T06:34:35Z</time></trkpt><trkpt lat="14.49987716465192" lon="121.03864759739135"><ele>26.0</ele><time>2026-04-18T06:34:36Z</time></trkpt><trkpt lat="14.49969673856268" lon="121.0387457541973"><ele>26.0</ele><time>2026-04-18T06:34:37Z</time></trkpt><trkpt lat="14.499517121390838" lon="121.03884189050878"><ele>26.0</ele><time>2026-04-18T06:34:38Z</time></trkpt><trkpt lat="14.499338704837095" lon="121.03893674112261"><ele>26.0</ele><time>2026-04-18T06:34:39Z</time></trkpt><trkpt lat="14.499162950845468" lon="121.03903158111993"><ele>26.0</ele><time>2026-04-18T06:34:40Z</time></trkpt><trkpt lat="14.498987666793827" lon="121.0391270052077"><ele>26.0</ele><time>2026-04-18T06:34:41Z</time></trkpt><trkpt lat="14.498810275424898" lon="121.03922213037971"><ele>26.0</ele><time>2026-04-18T06:34:42Z</time></trkpt><trkpt lat="14.498634411558854" lon="121.03931720244536"><ele>27.666666666666664</ele><time>2026-04-18T06:34:43Z</time></trkpt><trkpt lat="14.498457450322435" lon="121.03941269139729"><ele>29.333333333333336</ele><time>2026-04-18T06:34:44Z</time></trkpt><trkpt lat="14.498282710282492" lon="121.03950710780069"><ele>31.0</ele><time>2026-04-18T06:34:45Z</time></trkpt><trkpt lat="14.498105708072597" lon="121.03960171844571"><ele>31.0</ele><time>2026-04-18T06:34:46Z</time></trkpt><trkpt lat="14.497928398489236" lon="121.03969862721088"><ele>31.0</ele><time>2026-04-18T06:34:47Z</time></trkpt><trkpt lat="14.497752034737164" lon="121.03979469806868"><ele>31.0</ele><time>2026-04-18T06:34:48Z</time></trkpt><trkpt lat="14.49757465074202" lon="121.03988779384188"><ele>31.333333333333336</ele><time>2026-04-18T06:34:49Z</time></trkpt><trkpt lat="14.497396485274301" lon="121.03998314839728"><ele>31.666666666666664</ele><time>2026-04-18T06:34:50Z</time></trkpt><trkpt lat="14.497217877076956" lon="121.04007845885431"><ele>32.0</ele><time>2026-04-18T06:34:51Z</time></trkpt><trkpt lat="14.497037327703525" lon="121.04017565891196"><ele>30.333333333333332</ele><time>2026-04-18T06:34:52Z</time></trkpt><trkpt lat="14.496854780733576" lon="121.04027358222281"><ele>28.666666666666664</ele><time>2026-04-18T06:34:53Z</time></trkpt><trkpt lat="14.496671539908542" lon="121.04037337919064"><ele>27.0</ele><time>2026-04-18T06:34:54Z</time></trkpt><trkpt lat="14.49648770907865" lon="121.04047445338033"><ele>27.0</ele><time>2026-04-18T06:34:55Z</time></trkpt><trkpt lat="14.496300421270156" lon="121.04057355422209"><ele>27.0</ele><time>2026-04-18T06:34:56Z</time></trkpt><trkpt lat="14.49611281015593" lon="121.04067537760925"><ele>27.0</ele><time>2026-04-18T06:34:57Z</time></trkpt><trkpt lat="14.495923620083166" lon="121.04077746956673"><ele>26.666666666666664</ele><time>2026-04-18T06:34:58Z</time></trkpt><trkpt lat="14.495736190354187" lon="121.04087853397141"><ele>26.333333333333332</ele><time>2026-04-18T06:34:59Z</time></trkpt><trkpt lat="14.495549900022512" lon="121.04097900954093"><ele>26.0</ele><time>2026-04-18T06:35:00Z</time></trkpt><trkpt lat="14.495368418731964" lon="121.04107739849331"><ele>26.0</ele><time>2026-04-18T06:35:01Z</time></trkpt><trkpt lat="14.495190005546855" lon="121.04117475986386"><ele>26.0</ele><time>2026-04-18T06:35:02Z</time></trkpt><trkpt lat="14.495014063426103" lon="121.0412716186401"><ele>26.0</ele><time>2026-04-18T06:35:03Z</time></trkpt><trkpt lat="14.494842864091144" lon="121.0413659325687"><ele>26.0</ele><time>2026-04-18T06:35:04Z</time></trkpt><trkpt lat="14.494675698626754" lon="121.04145758263175"><ele>26.0</ele><time>2026-04-18T06:35:05Z</time></trkpt><trkpt lat="14.494516680387186" lon="121.04154468419826"><ele>26.0</ele><time>2026-04-18T06:35:06Z</time></trkpt><trkpt lat="14.494365269813779" lon="121.04162756708222"><ele>26.333333333333332</ele><time>2026-04-18T06:35:07Z</time></trkpt><trkpt lat="14.494217110126312" lon="121.04170809857851"><ele>26.666666666666664</ele><time>2026-04-18T06:35:08Z</time></trkpt><trkpt lat="14.494069012927556" lon="121.04178868083063"><ele>27.0</ele><time>2026-04-18T06:35:09Z</time></trkpt><trkpt lat="14.493925329363648" lon="121.04186615612845"><ele>27.0</ele><time>2026-04-18T06:35:10Z</time></trkpt><trkpt lat="14.493781652734993" lon="121.04194366354663"><ele>27.0</ele><time>2026-04-18T06:35:11Z</time></trkpt><trkpt lat="14.493641433943717" lon="121.04202038964971"><ele>27.0</ele><time>2026-04-18T06:35:12Z</time></trkpt><trkpt lat="14.493498955830898" lon="121.04209656292953"><ele>27.333333333333336</ele><time>2026-04-18T06:35:13Z</time></trkpt><trkpt lat="14.493359437890094" lon="121.04217227185225"><ele>27.666666666666668</ele><time>2026-04-18T06:35:14Z</time></trkpt><trkpt lat="14.493219694554432" lon="121.0422479320499"><ele>28.0</ele><time>2026-04-18T06:35:15Z</time></trkpt><trkpt lat="14.493081635088766" lon="121.04232062029739"><ele>28.0</ele><time>2026-04-18T06:35:16Z</time></trkpt><trkpt lat="14.492945060782509" lon="121.04239324633595"><ele>28.0</ele><time>2026-04-18T06:35:17Z</time></trkpt><trkpt lat="14.492809871729566" lon="121.04246519744858"><ele>28.0</ele><time>2026-04-18T06:35:18Z</time></trkpt><trkpt lat="14.492673983608041" lon="121.04253921128797"><ele>31.0</ele><time>2026-04-18T06:35:19Z</time></trkpt><trkpt lat="14.492540759095881" lon="121.04261078481603"><ele>34.0</ele><time>2026-04-18T06:35:20Z</time></trkpt><trkpt lat="14.492407840932888" lon="121.04268349343737"><ele>37.0</ele><time>2026-04-18T06:35:21Z</time></trkpt><trkpt lat="14.492275942774869" lon="121.04275530906618"><ele>37.0</ele><time>2026-04-18T06:35:22Z</time></trkpt><trkpt lat="14.492143978581169" lon="121.04282656936174"><ele>37.0</ele><time>2026-04-18T06:35:23Z</time></trkpt><trkpt lat="14.492012028626592" lon="121.04289850315467"><ele>37.0</ele><time>2026-04-18T06:35:24Z</time></trkpt><trkpt lat="14.491882400488185" lon="121.04296851917752"><ele>37.0</ele><time>2026-04-18T06:35:25Z</time></trkpt><trkpt lat="14.491750696855787" lon="121.043039787181"><ele>37.333333333333336</ele><time>2026-04-18T06:35:26Z</time></trkpt><trkpt lat="14.491619016274766" lon="121.04311134496672"><ele>37.666666666666664</ele><time>2026-04-18T06:35:27Z</time></trkpt><trkpt lat="14.4914833015275" lon="121.04318369525068"><ele>38.0</ele><time>2026-04-18T06:35:28Z</time></trkpt><trkpt lat="14.491350612588638" lon="121.04325317697712"><ele>37.33333333333333</ele><time>2026-04-18T06:35:29Z</time></trkpt><trkpt lat="14.491211909672192" lon="121.0433269674123"><ele>36.666666666666664</ele><time>2026-04-18T06:35:30Z</time></trkpt><trkpt lat="14.49107603765503" lon="121.04339961989287"><ele>36.0</ele><time>2026-04-18T06:35:31Z</time></trkpt><trkpt lat="14.490936465633121" lon="121.04347477590555"><ele>36.0</ele><time>2026-04-18T06:35:32Z</time></trkpt><trkpt lat="14.490795478864138" lon="121.04355173328665"><ele>36.0</ele><time>2026-04-18T06:35:33Z</time></trkpt><trkpt lat="14.490653235486755" lon="121.0436288071476"><ele>36.0</ele><time>2026-04-18T06:35:34Z</time></trkpt><trkpt lat="14.490509034570872" lon="121.0437065401456"><ele>35.333333333333336</ele><time>2026-04-18T06:35:35Z</time></trkpt><trkpt lat="14.490363412438276" lon="121.04377936551737"><ele>34.66666666666667</ele><time>2026-04-18T06:35:36Z</time></trkpt><trkpt lat="14.490212215661266" lon="121.04385081052956"><ele>34.0</ele><time>2026-04-18T06:35:37Z</time></trkpt><trkpt lat="14.490055165717855" lon="121.04392201584882"><ele>34.0</ele><time>2026-04-18T06:35:38Z</time></trkpt><trkpt lat="14.489892581703927" lon="121.04399160048723"><ele>34.0</ele><time>2026-04-18T06:35:39Z</time></trkpt><trkpt lat="14.489724576084583" lon="121.04405995941836"><ele>34.0</ele><time>2026-04-18T06:35:40Z</time></trkpt><trkpt lat="14.489553470605701" lon="121.04412938379456"><ele>32.333333333333336</ele><time>2026-04-18T06:35:41Z</time></trkpt><trkpt lat="14.4893801245862" lon="121.04419896661432"><ele>30.666666666666664</ele><time>2026-04-18T06:35:42Z</time></trkpt><trkpt lat="14.489203463962841" lon="121.04426655795278"><ele>29.0</ele><time>2026-04-18T06:35:43Z</time></trkpt><trkpt lat="14.48902447645229" lon="121.04433282946775"><ele>29.0</ele><time>2026-04-18T06:35:44Z</time></trkpt><trkpt lat="14.488841270289306" lon="121.04439881244825"><ele>29.0</ele><time>2026-04-18T06:35:45Z</time></trkpt><trkpt lat="14.488655327407947" lon="121.04446270996111"><ele>29.0</ele><time>2026-04-18T06:35:46Z</time></trkpt><trkpt lat="14.488466109165847" lon="121.04452301468022"><ele>30.0</ele><time>2026-04-18T06:35:47Z</time></trkpt><trkpt lat="14.488274344320068" lon="121.04458384746198"><ele>31.0</ele><time>2026-04-18T06:35:48Z</time></trkpt><trkpt lat="14.488080510569947" lon="121.04464173626302"><ele>32.0</ele><time>2026-04-18T06:35:49Z</time></trkpt><trkpt lat="14.487885445051242" lon="121.04469671105817"><ele>32.0</ele><time>2026-04-18T06:35:50Z</time></trkpt><trkpt lat="14.487689401181935" lon="121.04474793733979"><ele>32.0</ele><time>2026-04-18T06:35:51Z</time></trkpt><trkpt lat="14.487491574226405" lon="121.04479664940435"><ele>32.0</ele><time>2026-04-18T06:35:52Z</time></trkpt><trkpt lat="14.487291742105917" lon="121.04484008363214"><ele>32.0</ele><time>2026-04-18T06:35:53Z</time></trkpt><trkpt lat="14.487090957143925" lon="121.04487997752273"><ele>32.0</ele><time>2026-04-18T06:35:54Z</time></trkpt><trkpt lat="14.486887372534403" lon="121.0449169938024"><ele>32.0</ele><time>2026-04-18T06:35:55Z</time></trkpt><trkpt lat="14.486682365384484" lon="121.04495139422984"><ele>32.666666666666664</ele><time>2026-04-18T06:35:56Z</time></trkpt><trkpt lat="14.486474687765709" lon="121.04498229093313"><ele>33.333333333333336</ele><time>2026-04-18T06:35:57Z</time></trkpt><trkpt lat="14.4862648920278" lon="121.04501149398922"><ele>34.0</ele><time>2026-04-18T06:35:58Z</time></trkpt><trkpt lat="14.486054176009075" lon="121.0450355382734"><ele>34.333333333333336</ele><time>2026-04-18T06:35:59Z</time></trkpt><trkpt lat="14.485841041918842" lon="121.04505579532601"><ele>34.666666666666664</ele><time>2026-04-18T06:36:00Z</time></trkpt><trkpt lat="14.485624682297203" lon="121.04507220208808"><ele>35.0</ele><time>2026-04-18T06:36:01Z</time></trkpt><trkpt lat="14.485405770144734" lon="121.04508577359015"><ele>33.33333333333333</ele><time>2026-04-18T06:36:02Z</time></trkpt><trkpt lat="14.485185892564285" lon="121.045096094252"><ele>31.666666666666664</ele><time>2026-04-18T06:36:03Z</time></trkpt><trkpt lat="14.4849628363162" lon="121.04510309560582"><ele>30.0</ele><time>2026-04-18T06:36:04Z</time></trkpt><trkpt lat="14.484740141868729" lon="121.0451050606909"><ele>30.333333333333336</ele><time>2026-04-18T06:36:05Z</time></trkpt><trkpt lat="14.484517249338387" lon="121.04510637476622"><ele>30.666666666666668</ele><time>2026-04-18T06:36:06Z</time></trkpt><trkpt lat="14.484295104691578" lon="121.04510767371643"><ele>31.0</ele><time>2026-04-18T06:36:07Z</time></trkpt><trkpt lat="14.484074211871683" lon="121.0451079976972"><ele>31.0</ele><time>2026-04-18T06:36:08Z</time></trkpt><trkpt lat="14.483856445774329" lon="121.04511005453315"><ele>31.0</ele><time>2026-04-18T06:36:09Z</time></trkpt><trkpt lat="14.483638335486303" lon="121.04511181893561"><ele>31.0</ele><time>2026-04-18T06:36:10Z</time></trkpt><trkpt lat="14.483421166082888" lon="121.04511367847566"><ele>31.333333333333336</ele><time>2026-04-18T06:36:11Z</time></trkpt><trkpt lat="14.483205372692183" lon="121.04511445880458"><ele>31.666666666666664</ele><time>2026-04-18T06:36:12Z</time></trkpt><trkpt lat="14.482987567358382" lon="121.04511623012972"><ele>32.0</ele><time>2026-04-18T06:36:13Z</time></trkpt><trkpt lat="14.482769591072286" lon="121.045115307442"><ele>32.33333333333333</ele><time>2026-04-18T06:36:14Z</time></trkpt><trkpt lat="14.482551765355126" lon="121.04511456263688"><ele>32.666666666666664</ele><time>2026-04-18T06:36:15Z</time></trkpt><trkpt lat="14.482333521367599" lon="121.04511593066485"><ele>33.0</ele><time>2026-04-18T06:36:16Z</time></trkpt><trkpt lat="14.482115899854405" lon="121.04511731840752"><ele>33.0</ele><time>2026-04-18T06:36:17Z</time></trkpt><trkpt lat="14.481897766006416" lon="121.04512028192464"><ele>33.0</ele><time>2026-04-18T06:36:18Z</time></trkpt><trkpt lat="14.481677978988213" lon="121.04512273877896"><ele>33.0</ele><time>2026-04-18T06:36:19Z</time></trkpt><trkpt lat="14.481460658357786" lon="121.0451242730853"><ele>32.666666666666664</ele><time>2026-04-18T06:36:20Z</time></trkpt><trkpt lat="14.481243961989831" lon="121.04512435055871"><ele>32.33333333333333</ele><time>2026-04-18T06:36:21Z</time></trkpt><trkpt lat="14.481029926898403" lon="121.04512496646942"><ele>32.0</ele><time>2026-04-18T06:36:22Z</time></trkpt><trkpt lat="14.480818548142906" lon="121.04512520800475"><ele>32.0</ele><time>2026-04-18T06:36:23Z</time></trkpt><trkpt lat="14.480606372303654" lon="121.04512966800696"><ele>32.0</ele><time>2026-04-18T06:36:24Z</time></trkpt><trkpt lat="14.480397259748885" lon="121.04513293643745"><ele>32.0</ele><time>2026-04-18T06:36:25Z</time></trkpt><trkpt lat="14.480188920920087" lon="121.0451366279448"><ele>32.33333333333333</ele><time>2026-04-18T06:36:26Z</time></trkpt><trkpt lat="14.479981247091967" lon="121.0451392660177"><ele>32.666666666666664</ele><time>2026-04-18T06:36:27Z</time></trkpt><trkpt lat="14.479774988892043" lon="121.04514115314709"><ele>33.0</ele><time>2026-04-18T06:36:28Z</time></trkpt><trkpt lat="14.47956660190729" lon="121.04513959346511"><ele>33.666666666666664</ele><time>2026-04-18T06:36:29Z</time></trkpt><trkpt lat="14.47936056735937" lon="121.04514001530524"><ele>34.33333333333333</ele><time>2026-04-18T06:36:30Z</time></trkpt><trkpt lat="14.479153844930247" lon="121.04513982354509"><ele>35.0</ele><time>2026-04-18T06:36:31Z</time></trkpt><trkpt lat="14.478946191390127" lon="121.04514056658375"><ele>35.0</ele><time>2026-04-18T06:36:32Z</time></trkpt><trkpt lat="14.478736881790871" lon="121.04514156607962"><ele>35.0</ele><time>2026-04-18T06:36:33Z</time></trkpt><trkpt lat="14.478526866066767" lon="121.0451446673228"><ele>35.0</ele><time>2026-04-18T06:36:34Z</time></trkpt><trkpt lat="14.478314532666538" lon="121.04514565432655"><ele>35.0</ele><time>2026-04-18T06:36:35Z</time></trkpt><trkpt lat="14.478101840263273" lon="121.04514719133448"><ele>35.0</ele><time>2026-04-18T06:36:36Z</time></trkpt><trkpt lat="14.477888506016807" lon="121.04514924691374"><ele>35.0</ele><time>2026-04-18T06:36:37Z</time></trkpt><trkpt lat="14.477674796571556" lon="121.04515002165336"><ele>35.33333333333333</ele><time>2026-04-18T06:36:38Z</time></trkpt><trkpt lat="14.477460710547971" lon="121.0451513688946"><ele>35.666666666666664</ele><time>2026-04-18T06:36:39Z</time></trkpt><trkpt lat="14.47724630102092" lon="121.04515306520139"><ele>36.0</ele><time>2026-04-18T06:36:40Z</time></trkpt><trkpt lat="14.477032034661717" lon="121.04515433344551"><ele>36.0</ele><time>2026-04-18T06:36:41Z</time></trkpt><trkpt lat="14.476816982983806" lon="121.04515568125919"><ele>36.0</ele><time>2026-04-18T06:36:42Z</time></trkpt><trkpt lat="14.47660371166146" lon="121.04515670166363"><ele>36.0</ele><time>2026-04-18T06:36:43Z</time></trkpt><trkpt lat="14.476390988979295" lon="121.04515759807003"><ele>36.333333333333336</ele><time>2026-04-18T06:36:44Z</time></trkpt><trkpt lat="14.476179547326463" lon="121.0451581797498"><ele>36.66666666666667</ele><time>2026-04-18T06:36:45Z</time></trkpt><trkpt lat="14.475971212513857" lon="121.04515884673239"><ele>37.0</ele><time>2026-04-18T06:36:46Z</time></trkpt><trkpt lat="14.4757623663904" lon="121.04515969896228"><ele>37.0</ele><time>2026-04-18T06:36:47Z</time></trkpt><trkpt lat="14.475552943484264" lon="121.0451599131849"><ele>37.0</ele><time>2026-04-18T06:36:48Z</time></trkpt><trkpt lat="14.4753442151991" lon="121.04516006195952"><ele>37.0</ele><time>2026-04-18T06:36:49Z</time></trkpt><trkpt lat="14.475135287433412" lon="121.04515889903553"><ele>36.66666666666667</ele><time>2026-04-18T06:36:50Z</time></trkpt><trkpt lat="14.474925848112093" lon="121.04515656040213"><ele>36.333333333333336</ele><time>2026-04-18T06:36:51Z</time></trkpt><trkpt lat="14.47471450991285" lon="121.04515414581401"><ele>36.0</ele><time>2026-04-18T06:36:52Z</time></trkpt><trkpt lat="14.47450256747185" lon="121.04515624312008"><ele>35.666666666666664</ele><time>2026-04-18T06:36:53Z</time></trkpt><trkpt lat="14.47429061506205" lon="121.04515386948106"><ele>35.33333333333333</ele><time>2026-04-18T06:36:54Z</time></trkpt><trkpt lat="14.474076863944228" lon="121.04515021223341"><ele>35.0</ele><time>2026-04-18T06:36:55Z</time></trkpt><trkpt lat="14.473863503868312" lon="121.04514766078724"><ele>34.0</ele><time>2026-04-18T06:36:56Z</time></trkpt><trkpt lat="14.473647739915704" lon="121.04514579819586"><ele>33.0</ele><time>2026-04-18T06:36:57Z</time></trkpt><trkpt lat="14.473430126816515" lon="121.04514633309391"><ele>32.0</ele><time>2026-04-18T06:36:58Z</time></trkpt><trkpt lat="14.473211177741062" lon="121.04514580067357"><ele>32.0</ele><time>2026-04-18T06:36:59Z</time></trkpt><trkpt lat="14.472992687746572" lon="121.04514412921267"><ele>32.0</ele><time>2026-04-18T06:37:00Z</time></trkpt><trkpt lat="14.472773171795767" lon="121.04514781420666"><ele>32.0</ele><time>2026-04-18T06:37:01Z</time></trkpt><trkpt lat="14.472552998807343" lon="121.04515097269693"><ele>31.333333333333332</ele><time>2026-04-18T06:37:02Z</time></trkpt><trkpt lat="14.472331281115002" lon="121.04515410269885"><ele>30.666666666666664</ele><time>2026-04-18T06:37:03Z</time></trkpt><trkpt lat="14.472108939336428" lon="121.04515548539173"><ele>30.0</ele><time>2026-04-18T06:37:04Z</time></trkpt><trkpt lat="14.471885728756963" lon="121.0451540245504"><ele>30.0</ele><time>2026-04-18T06:37:05Z</time></trkpt><trkpt lat="14.47166140029275" lon="121.04515373262957"><ele>30.0</ele><time>2026-04-18T06:37:06Z</time></trkpt><trkpt lat="14.471436235632689" lon="121.04515425391106"><ele>30.0</ele><time>2026-04-18T06:37:07Z</time></trkpt><trkpt lat="14.4712107056316" lon="121.04515636954604"><ele>30.333333333333336</ele><time>2026-04-18T06:37:08Z</time></trkpt><trkpt lat="14.470986113468772" lon="121.04515832279714"><ele>30.666666666666668</ele><time>2026-04-18T06:37:09Z</time></trkpt><trkpt lat="14.470762008791338" lon="121.04515986037896"><ele>31.0</ele><time>2026-04-18T06:37:10Z</time></trkpt><trkpt lat="14.470537896854843" lon="121.04516077594023"><ele>31.0</ele><time>2026-04-18T06:37:11Z</time></trkpt><trkpt lat="14.470315586834742" lon="121.04516170893989"><ele>31.0</ele><time>2026-04-18T06:37:12Z</time></trkpt><trkpt lat="14.47009395531104" lon="121.04516234108571"><ele>31.0</ele><time>2026-04-18T06:37:13Z</time></trkpt><trkpt lat="14.4698722741229" lon="121.04516233061142"><ele>31.0</ele><time>2026-04-18T06:37:14Z</time></trkpt><trkpt lat="14.4696502987049" lon="121.04516306287006"><ele>31.0</ele><time>2026-04-18T06:37:15Z</time></trkpt><trkpt lat="14.469429823968158" lon="121.04516321322903"><ele>31.0</ele><time>2026-04-18T06:37:16Z</time></trkpt><trkpt lat="14.469209094954" lon="121.04516327588844"><ele>31.333333333333336</ele><time>2026-04-18T06:37:17Z</time></trkpt><trkpt lat="14.468990036384522" lon="121.04516498768191"><ele>31.666666666666664</ele><time>2026-04-18T06:37:18Z</time></trkpt><trkpt lat="14.468771410765426" lon="121.04516367009609"><ele>32.0</ele><time>2026-04-18T06:37:19Z</time></trkpt><trkpt lat="14.468552062786639" lon="121.04516278129347"><ele>32.33333333333333</ele><time>2026-04-18T06:37:20Z</time></trkpt><trkpt lat="14.468333525521182" lon="121.04516263880838"><ele>32.666666666666664</ele><time>2026-04-18T06:37:21Z</time></trkpt><trkpt lat="14.46811444081572" lon="121.04516261473444"><ele>33.0</ele><time>2026-04-18T06:37:22Z</time></trkpt><trkpt lat="14.467893701562863" lon="121.04516380496209"><ele>34.0</ele><time>2026-04-18T06:37:23Z</time></trkpt><trkpt lat="14.467672209829153" lon="121.04516505670937"><ele>35.0</ele><time>2026-04-18T06:37:24Z</time></trkpt><trkpt lat="14.467450821679849" lon="121.04516645587375"><ele>36.0</ele><time>2026-04-18T06:37:25Z</time></trkpt><trkpt lat="14.467228229472681" lon="121.04516938301215"><ele>36.666666666666664</ele><time>2026-04-18T06:37:26Z</time></trkpt><trkpt lat="14.467009329563957" lon="121.04517069691585"><ele>37.33333333333333</ele><time>2026-04-18T06:37:27Z</time></trkpt><trkpt lat="14.466790835338621" lon="121.04517316665559"><ele>38.0</ele><time>2026-04-18T06:37:28Z</time></trkpt><trkpt lat="14.466573304378738" lon="121.04517588633134"><ele>38.0</ele><time>2026-04-18T06:37:29Z</time></trkpt><trkpt lat="14.466357194616169" lon="121.04517938405678"><ele>38.0</ele><time>2026-04-18T06:37:30Z</time></trkpt><trkpt lat="14.466143942246774" lon="121.04518120234547"><ele>38.0</ele><time>2026-04-18T06:37:31Z</time></trkpt><trkpt lat="14.465931788357656" lon="121.0451835042151"><ele>38.0</ele><time>2026-04-18T06:37:32Z</time></trkpt><trkpt lat="14.465719277255037" lon="121.04518306200212"><ele>38.0</ele><time>2026-04-18T06:37:33Z</time></trkpt><trkpt lat="14.4655093289286" lon="121.04518377318402"><ele>38.0</ele><time>2026-04-18T06:37:34Z</time></trkpt><trkpt lat="14.465299000982425" lon="121.04518532428543"><ele>38.0</ele><time>2026-04-18T06:37:35Z</time></trkpt><trkpt lat="14.465087446855694" lon="121.04518566335287"><ele>38.0</ele><time>2026-04-18T06:37:36Z</time></trkpt><trkpt lat="14.46487445585812" lon="121.04518473821454"><ele>38.0</ele><time>2026-04-18T06:37:37Z</time></trkpt><trkpt lat="14.464663072464425" lon="121.04518357550869"><ele>38.0</ele><time>2026-04-18T06:37:38Z</time></trkpt><trkpt lat="14.46444910404651" lon="121.04518422543636"><ele>38.0</ele><time>2026-04-18T06:37:39Z</time></trkpt><trkpt lat="14.464234389891976" lon="121.04518442739511"><ele>38.0</ele><time>2026-04-18T06:37:40Z</time></trkpt><trkpt lat="14.46401802808971" lon="121.04518548477353"><ele>38.0</ele><time>2026-04-18T06:37:41Z</time></trkpt><trkpt lat="14.463801562530263" lon="121.04518627903859"><ele>38.0</ele><time>2026-04-18T06:37:42Z</time></trkpt><trkpt lat="14.46358499381117" lon="121.04518511372999"><ele>38.0</ele><time>2026-04-18T06:37:43Z</time></trkpt><trkpt lat="14.463367926659886" lon="121.04518460418949"><ele>37.666666666666664</ele><time>2026-04-18T06:37:44Z</time></trkpt><trkpt lat="14.463150822202996" lon="121.0451842192774"><ele>37.333333333333336</ele><time>2026-04-18T06:37:45Z</time></trkpt><trkpt lat="14.462933743904598" lon="121.04518447506756"><ele>37.0</ele><time>2026-04-18T06:37:46Z</time></trkpt><trkpt lat="14.462716006885696" lon="121.04518668038868"><ele>37.0</ele><time>2026-04-18T06:37:47Z</time></trkpt><trkpt lat="14.462498436037937" lon="121.04518728096537"><ele>37.0</ele><time>2026-04-18T06:37:48Z</time></trkpt><trkpt lat="14.462281920271176" lon="121.04518874592492"><ele>37.0</ele><time>2026-04-18T06:37:49Z</time></trkpt><trkpt lat="14.462064381466108" lon="121.04518966143951"><ele>37.333333333333336</ele><time>2026-04-18T06:37:50Z</time></trkpt><trkpt lat="14.461846384610299" lon="121.04518875511211"><ele>37.666666666666664</ele><time>2026-04-18T06:37:51Z</time></trkpt><trkpt lat="14.46163040729201" lon="121.04519000330843"><ele>38.0</ele><time>2026-04-18T06:37:52Z</time></trkpt><trkpt lat="14.46141466642258" lon="121.04519048426423"><ele>38.666666666666664</ele><time>2026-04-18T06:37:53Z</time></trkpt><trkpt lat="14.46120024352298" lon="121.04519087806985"><ele>39.333333333333336</ele><time>2026-04-18T06:37:54Z</time></trkpt><trkpt lat="14.460988445065027" lon="121.04519263286949"><ele>40.0</ele><time>2026-04-18T06:37:55Z</time></trkpt><trkpt lat="14.460779562745172" lon="121.04519377198518"><ele>40.0</ele><time>2026-04-18T06:37:56Z</time></trkpt><trkpt lat="14.460570212902574" lon="121.04519609269758"><ele>40.0</ele><time>2026-04-18T06:37:57Z</time></trkpt><trkpt lat="14.460362808583945" lon="121.04519910408388"><ele>40.0</ele><time>2026-04-18T06:37:58Z</time></trkpt><trkpt lat="14.460157757800337" lon="121.04520143671395"><ele>40.66666666666667</ele><time>2026-04-18T06:37:59Z</time></trkpt><trkpt lat="14.459956808536925" lon="121.04520424981641"><ele>41.333333333333336</ele><time>2026-04-18T06:38:00Z</time></trkpt><trkpt lat="14.459760390235926" lon="121.04520639375549"><ele>42.0</ele><time>2026-04-18T06:38:01Z</time></trkpt><trkpt lat="14.459571274961547" lon="121.04521037700664"><ele>42.0</ele><time>2026-04-18T06:38:02Z</time></trkpt><trkpt lat="14.459389844010843" lon="121.04521222361878"><ele>42.0</ele><time>2026-04-18T06:38:03Z</time></trkpt><trkpt lat="14.459215399272" lon="121.04521426400215"><ele>42.0</ele><time>2026-04-18T06:38:04Z</time></trkpt><trkpt lat="14.459047037986972" lon="121.04521466748493"><ele>42.0</ele><time>2026-04-18T06:38:05Z</time></trkpt><trkpt lat="14.4588851227242" lon="121.04521370292167"><ele>42.0</ele><time>2026-04-18T06:38:06Z</time></trkpt><trkpt lat="14.458727320125194" lon="121.04520849809379"><ele>42.0</ele><time>2026-04-18T06:38:07Z</time></trkpt><trkpt lat="14.458571865820508" lon="121.04519827942943"><ele>41.666666666666664</ele><time>2026-04-18T06:38:08Z</time></trkpt><trkpt lat="14.458416256295711" lon="121.04518499081837"><ele>41.33333333333333</ele><time>2026-04-18T06:38:09Z</time></trkpt><trkpt lat="14.458261232168807" lon="121.04517116037562"><ele>41.0</ele><time>2026-04-18T06:38:10Z</time></trkpt><trkpt lat="14.458105522077718" lon="121.04515845380759"><ele>39.666666666666664</ele><time>2026-04-18T06:38:11Z</time></trkpt><trkpt lat="14.4579488875417" lon="121.04514739553363"><ele>38.333333333333336</ele><time>2026-04-18T06:38:12Z</time></trkpt><trkpt lat="14.457792803462333" lon="121.04513607346385"><ele>37.0</ele><time>2026-04-18T06:38:13Z</time></trkpt><trkpt lat="14.457638334905413" lon="121.0451275101428"><ele>37.0</ele><time>2026-04-18T06:38:14Z</time></trkpt><trkpt lat="14.45748649084825" lon="121.04512009338016"><ele>37.0</ele><time>2026-04-18T06:38:15Z</time></trkpt><trkpt lat="14.45733571934799" lon="121.04511666357686"><ele>37.0</ele><time>2026-04-18T06:38:16Z</time></trkpt><trkpt lat="14.457186226496662" lon="121.04511556862765"><ele>36.75</ele><time>2026-04-18T06:38:17Z</time></trkpt><trkpt lat="14.45703778418414" lon="121.04511755360893"><ele>36.5</ele><time>2026-04-18T06:38:18Z</time></trkpt><trkpt lat="14.456888610157426" lon="121.045118850357"><ele>36.25</ele><time>2026-04-18T06:38:19Z</time></trkpt><trkpt lat="14.456738299826354" lon="121.04511967251115"><ele>36.0</ele><time>2026-04-18T06:38:20Z</time></trkpt><trkpt lat="14.45658737862739" lon="121.04511854775392"><ele>36.0</ele><time>2026-04-18T06:38:21Z</time></trkpt><trkpt lat="14.456436032008652" lon="121.04511801805467"><ele>36.0</ele><time>2026-04-18T06:38:22Z</time></trkpt><trkpt lat="14.456286520785252" lon="121.0451167487457"><ele>36.0</ele><time>2026-04-18T06:38:23Z</time></trkpt><trkpt lat="14.456141117809363" lon="121.0451150571892"><ele>36.0</ele><time>2026-04-18T06:38:24Z</time></trkpt><trkpt lat="14.456001642554249" lon="121.04511448680854"><ele>36.5</ele><time>2026-04-18T06:38:25Z</time></trkpt><trkpt lat="14.455868020320104" lon="121.04511713788061"><ele>37.0</ele><time>2026-04-18T06:38:26Z</time></trkpt><trkpt lat="14.455742932993948" lon="121.0451186954218"><ele>37.5</ele><time>2026-04-18T06:38:27Z</time></trkpt><trkpt lat="14.455625067593534" lon="121.04511665654478"><ele>38.0</ele><time>2026-04-18T06:38:28Z</time></trkpt><trkpt lat="14.455512793026628" lon="121.04510696338008"><ele>36.8</ele><time>2026-04-18T06:38:29Z</time></trkpt><trkpt lat="14.455409401763811" lon="121.04508452464754"><ele>35.599999999999994</ele><time>2026-04-18T06:38:30Z</time></trkpt><trkpt lat="14.45531486818915" lon="121.04504662543522"><ele>34.400000000000006</ele><time>2026-04-18T06:38:31Z</time></trkpt><trkpt lat="14.455228811674061" lon="121.04499127267019"><ele>33.2</ele><time>2026-04-18T06:38:32Z</time></trkpt><trkpt lat="14.455156940084283" lon="121.04491919487866"><ele>32.0</ele><time>2026-04-18T06:38:33Z</time></trkpt><trkpt lat="14.455104346296045" lon="121.0448356755679"><ele>31.999999999999996</ele><time>2026-04-18T06:38:34Z</time></trkpt><trkpt lat="14.455064013710444" lon="121.04475467351645"><ele>32.0</ele><time>2026-04-18T06:38:35Z</time></trkpt><trkpt lat="14.455033499193277" lon="121.0446809136166"><ele>32.0</ele><time>2026-04-18T06:38:36Z</time></trkpt><trkpt lat="14.455009549692964" lon="121.04462010304525"><ele>32.0</ele><time>2026-04-18T06:38:37Z</time></trkpt><trkpt lat="14.45498517481413" lon="121.04452772020336"><ele>31.999999999999996</ele><time>2026-04-18T06:38:39Z</time></trkpt><trkpt lat="14.454967517545672" lon="121.04445031933358"><ele>32.0</ele><time>2026-04-18T06:38:42Z</time></trkpt><trkpt lat="14.454953666625348" lon="121.04438156174855"><ele>32.0</ele><time>2026-04-18T06:38:45Z</time></trkpt><trkpt lat="14.454935715191851" lon="121.04430714836963"><ele>31.999999999999996</ele><time>2026-04-18T06:38:48Z</time></trkpt><trkpt lat="14.454911547016623" lon="121.04423267385951"><ele>32.0</ele><time>2026-04-18T06:38:51Z</time></trkpt><trkpt lat="14.4548902219904" lon="121.04416952130582"><ele>32.0</ele><time>2026-04-18T06:38:54Z</time></trkpt><trkpt lat="14.454861961921168" lon="121.04408901576264"><ele>31.999999999999996</ele><time>2026-04-18T06:38:59Z</time></trkpt><trkpt lat="14.454839589825301" lon="121.04402734397632"><ele>32.0</ele><time>2026-04-18T06:39:01Z</time></trkpt><trkpt lat="14.454813464341191" lon="121.04395030354952"><ele>32.0</ele><time>2026-04-18T06:39:03Z</time></trkpt><trkpt lat="14.454781593197888" lon="121.0438532682619"><ele>32.33333333333333</ele><time>2026-04-18T06:39:05Z</time></trkpt><trkpt lat="14.45475526205062" lon="121.04378780227361"><ele>32.666666666666664</ele><time>2026-04-18T06:39:06Z</time></trkpt><trkpt lat="14.45472131608504" lon="121.04369400098038"><ele>33.0</ele><time>2026-04-18T06:39:07Z</time></trkpt><trkpt lat="14.454680492821062" lon="121.04361435128195"><ele>33.333333333333336</ele><time>2026-04-18T06:39:08Z</time></trkpt><trkpt lat="14.454646111632476" lon="121.04353743988403"><ele>33.66666666666667</ele><time>2026-04-18T06:39:09Z</time></trkpt><trkpt lat="14.454616047027265" lon="121.04345852694243"><ele>34.0</ele><time>2026-04-18T06:39:10Z</time></trkpt><trkpt lat="14.454587165359127" lon="121.04337865586093"><ele>35.0</ele><time>2026-04-18T06:39:11Z</time></trkpt><trkpt lat="14.454558802452874" lon="121.0432928886586"><ele>36.0</ele><time>2026-04-18T06:39:12Z</time></trkpt><trkpt lat="14.454534644827227" lon="121.0432035967339"><ele>37.0</ele><time>2026-04-18T06:39:13Z</time></trkpt><trkpt lat="14.454517000408522" lon="121.04310766038327"><ele>38.0</ele><time>2026-04-18T06:39:14Z</time></trkpt><trkpt lat="14.454509546273236" lon="121.04300853840296"><ele>39.0</ele><time>2026-04-18T06:39:15Z</time></trkpt><trkpt lat="14.454517131314248" lon="121.04290812639309"><ele>39.0</ele><time>2026-04-18T06:39:16Z</time></trkpt><trkpt lat="14.454533532630949" lon="121.0428099593848"><ele>39.0</ele><time>2026-04-18T06:39:17Z</time></trkpt><trkpt lat="14.454557338632082" lon="121.04271166566066"><ele>39.0</ele><time>2026-04-18T06:39:18Z</time></trkpt><trkpt lat="14.45458432488355" lon="121.04261457255717"><ele>39.0</ele><time>2026-04-18T06:39:19Z</time></trkpt><trkpt lat="14.454612661991666" lon="121.04251473053219"><ele>39.0</ele><time>2026-04-18T06:39:20Z</time></trkpt><trkpt lat="14.454643192118608" lon="121.04241062844049"><ele>38.5</ele><time>2026-04-18T06:39:21Z</time></trkpt><trkpt lat="14.454675787736488" lon="121.0423020023643"><ele>38.0</ele><time>2026-04-18T06:39:22Z</time></trkpt><trkpt lat="14.45471036298185" lon="121.04219164509307"><ele>37.5</ele><time>2026-04-18T06:39:23Z</time></trkpt><trkpt lat="14.4547458772356" lon="121.04207878067221"><ele>37.0</ele><time>2026-04-18T06:39:24Z</time></trkpt><trkpt lat="14.454782478058734" lon="121.04196201819887"><ele>37.0</ele><time>2026-04-18T06:39:25Z</time></trkpt><trkpt lat="14.45481952809915" lon="121.04184376633202"><ele>37.0</ele><time>2026-04-18T06:39:26Z</time></trkpt><trkpt lat="14.454856964513262" lon="121.04172211053076"><ele>37.0</ele><time>2026-04-18T06:39:27Z</time></trkpt><trkpt lat="14.454892497251691" lon="121.04160165880867"><ele>37.0</ele><time>2026-04-18T06:39:28Z</time></trkpt><trkpt lat="14.454924541826408" lon="121.04148365952979"><ele>37.25</ele><time>2026-04-18T06:39:29Z</time></trkpt><trkpt lat="14.45495280530069" lon="121.0413688672601"><ele>37.5</ele><time>2026-04-18T06:39:30Z</time></trkpt><trkpt lat="14.454980661284914" lon="121.04125596360493"><ele>37.75</ele><time>2026-04-18T06:39:31Z</time></trkpt><trkpt lat="14.455027715619313" lon="121.04115233300324"><ele>38.0</ele><time>2026-04-18T06:39:32Z</time></trkpt><trkpt lat="14.455057855804977" lon="121.04103722719869"><ele>38.0</ele><time>2026-04-18T06:39:33Z</time></trkpt><trkpt lat="14.455089158256536" lon="121.04092052551903"><ele>38.0</ele><time>2026-04-18T06:39:34Z</time></trkpt><trkpt lat="14.455121748734058" lon="121.04080347426095"><ele>38.0</ele><time>2026-04-18T06:39:35Z</time></trkpt><trkpt lat="14.455152713445774" lon="121.0406917024609"><ele>38.0</ele><time>2026-04-18T06:39:36Z</time></trkpt><trkpt lat="14.455181770105805" lon="121.04058625532836"><ele>38.0</ele><time>2026-04-18T06:39:37Z</time></trkpt><trkpt lat="14.455210771475851" lon="121.04048291332022"><ele>38.0</ele><time>2026-04-18T06:39:38Z</time></trkpt><trkpt lat="14.45524043469769" lon="121.04038165235562"><ele>38.0</ele><time>2026-04-18T06:39:39Z</time></trkpt><trkpt lat="14.455269487537942" lon="121.04027718207169"><ele>38.0</ele><time>2026-04-18T06:39:40Z</time></trkpt><trkpt lat="14.455299564354341" lon="121.04017419780939"><ele>38.0</ele><time>2026-04-18T06:39:41Z</time></trkpt><trkpt lat="14.455329291715097" lon="121.04007161473761"><ele>38.0</ele><time>2026-04-18T06:39:42Z</time></trkpt><trkpt lat="14.455358142882877" lon="121.039962544118"><ele>38.0</ele><time>2026-04-18T06:39:43Z</time></trkpt><trkpt lat="14.45538601550632" lon="121.03985780381703"><ele>38.0</ele><time>2026-04-18T06:39:44Z</time></trkpt><trkpt lat="14.455414465326596" lon="121.03975368293754"><ele>38.0</ele><time>2026-04-18T06:39:45Z</time></trkpt><trkpt lat="14.455442409965347" lon="121.03965163867491"><ele>38.0</ele><time>2026-04-18T06:39:46Z</time></trkpt><trkpt lat="14.455467792751298" lon="121.03955196206019"><ele>38.0</ele><time>2026-04-18T06:39:47Z</time></trkpt><trkpt lat="14.455495151549199" lon="121.0394525500206"><ele>38.0</ele><time>2026-04-18T06:39:48Z</time></trkpt><trkpt lat="14.455523457897176" lon="121.0393496007533"><ele>38.0</ele><time>2026-04-18T06:39:49Z</time></trkpt><trkpt lat="14.455549988039298" lon="121.03924271274217"><ele>38.0</ele><time>2026-04-18T06:39:50Z</time></trkpt><trkpt lat="14.455575834107313" lon="121.03914238544928"><ele>38.0</ele><time>2026-04-18T06:39:51Z</time></trkpt><trkpt lat="14.45559792595871" lon="121.03904860464877"><ele>37.666666666666664</ele><time>2026-04-18T06:39:52Z</time></trkpt><trkpt lat="14.455615051874023" lon="121.03897055001431"><ele>37.33333333333333</ele><time>2026-04-18T06:39:53Z</time></trkpt><trkpt lat="14.455636571398406" lon="121.03886459438208"><ele>37.0</ele><time>2026-04-18T06:39:55Z</time></trkpt><trkpt lat="14.455651566803013" lon="121.0387998849306"><ele>36.666666666666664</ele><time>2026-04-18T06:39:57Z</time></trkpt><trkpt lat="14.455668848189173" lon="121.03873396395218"><ele>36.333333333333336</ele><time>2026-04-18T06:39:59Z</time></trkpt><trkpt lat="14.45568572189702" lon="121.03865311217342"><ele>36.0</ele><time>2026-04-18T06:40:02Z</time></trkpt><trkpt lat="14.455661715644245" lon="121.03872947101502"><ele>36.0</ele><time>2026-04-18T06:40:15Z</time></trkpt><trkpt lat="14.455567039537504" lon="121.03876066348387"><ele>36.0</ele><time>2026-04-18T06:40:16Z</time></trkpt><trkpt lat="14.4555485036415" lon="121.03883171061106"><ele>36.0</ele><time>2026-04-18T06:40:17Z</time></trkpt><trkpt lat="14.455526501247121" lon="121.03891058871645"><ele>36.0</ele><time>2026-04-18T06:40:18Z</time></trkpt><trkpt lat="14.455503387057986" lon="121.03900137812508"><ele>36.0</ele><time>2026-04-18T06:40:19Z</time></trkpt><trkpt lat="14.455479668508762" lon="121.03909381801274"><ele>36.0</ele><time>2026-04-18T06:40:20Z</time></trkpt><trkpt lat="14.45545436408011" lon="121.03919383948755"><ele>37.8</ele><time>2026-04-18T06:40:21Z</time></trkpt><trkpt lat="14.455428987685577" lon="121.03929625844853"><ele>39.6</ele><time>2026-04-18T06:40:22Z</time></trkpt><trkpt lat="14.455402033604857" lon="121.03940214646269"><ele>41.4</ele><time>2026-04-18T06:40:23Z</time></trkpt><trkpt lat="14.455374602528698" lon="121.03950924037382"><ele>43.2</ele><time>2026-04-18T06:40:24Z</time></trkpt><trkpt lat="14.455346269471724" lon="121.03961601512235"><ele>45.0</ele><time>2026-04-18T06:40:25Z</time></trkpt><trkpt lat="14.455318674303312" lon="121.03971991496236"><ele>45.0</ele><time>2026-04-18T06:40:26Z</time></trkpt><trkpt lat="14.45529267177105" lon="121.03982227191761"><ele>45.0</ele><time>2026-04-18T06:40:27Z</time></trkpt><trkpt lat="14.455267520925922" lon="121.039920712183"><ele>45.0</ele><time>2026-04-18T06:40:28Z</time></trkpt><trkpt lat="14.455246061110255" lon="121.04001039027787"><ele>45.0</ele><time>2026-04-18T06:40:29Z</time></trkpt><trkpt lat="14.455224146389485" lon="121.04009494212235"><ele>45.0</ele><time>2026-04-18T06:40:30Z</time></trkpt><trkpt lat="14.455204096775061" lon="121.04017492745888"><ele>43.833333333333336</ele><time>2026-04-18T06:40:31Z</time></trkpt><trkpt lat="14.455185005928291" lon="121.04025206623712"><ele>42.666666666666664</ele><time>2026-04-18T06:40:32Z</time></trkpt><trkpt lat="14.455164171030916" lon="121.0403322938404"><ele>41.5</ele><time>2026-04-18T06:40:33Z</time></trkpt><trkpt lat="14.455142721046348" lon="121.04041457786558"><ele>40.33333333333333</ele><time>2026-04-18T06:40:34Z</time></trkpt><trkpt lat="14.45511975355297" lon="121.0405011073684"><ele>39.166666666666664</ele><time>2026-04-18T06:40:35Z</time></trkpt><trkpt lat="14.455096410912512" lon="121.04058757618425"><ele>38.0</ele><time>2026-04-18T06:40:36Z</time></trkpt><trkpt lat="14.455071637316053" lon="121.04067055260627"><ele>38.0</ele><time>2026-04-18T06:40:37Z</time></trkpt><trkpt lat="14.455045322294032" lon="121.04075725160627"><ele>38.0</ele><time>2026-04-18T06:40:38Z</time></trkpt><trkpt lat="14.455015984122118" lon="121.04084646460096"><ele>38.0</ele><time>2026-04-18T06:40:39Z</time></trkpt><trkpt lat="14.454986746924998" lon="121.04093802193567"><ele>38.0</ele><time>2026-04-18T06:40:40Z</time></trkpt><trkpt lat="14.454956186265878" lon="121.04103600947259"><ele>38.0</ele><time>2026-04-18T06:40:41Z</time></trkpt><trkpt lat="14.454924800668474" lon="121.04113585731389"><ele>38.0</ele><time>2026-04-18T06:40:42Z</time></trkpt><trkpt lat="14.454893766193868" lon="121.04123408790005"><ele>38.0</ele><time>2026-04-18T06:40:43Z</time></trkpt><trkpt lat="14.454863017187568" lon="121.04133784694774"><ele>38.0</ele><time>2026-04-18T06:40:44Z</time></trkpt><trkpt lat="14.4548312599464" lon="121.04144535673706"><ele>38.0</ele><time>2026-04-18T06:40:45Z</time></trkpt><trkpt lat="14.454799650527965" lon="121.04155257194883"><ele>38.0</ele><time>2026-04-18T06:40:46Z</time></trkpt><trkpt lat="14.454766453623566" lon="121.0416633119196"><ele>38.0</ele><time>2026-04-18T06:40:47Z</time></trkpt><trkpt lat="14.454732973851184" lon="121.04177442033846"><ele>38.0</ele><time>2026-04-18T06:40:48Z</time></trkpt><trkpt lat="14.454697637505827" lon="121.04188683465529"><ele>38.0</ele><time>2026-04-18T06:40:49Z</time></trkpt><trkpt lat="14.454664112213543" lon="121.04199639557866"><ele>38.0</ele><time>2026-04-18T06:40:50Z</time></trkpt><trkpt lat="14.454630563499911" lon="121.04210310740935"><ele>38.0</ele><time>2026-04-18T06:40:51Z</time></trkpt><trkpt lat="14.454596550618053" lon="121.0422111166206"><ele>38.0</ele><time>2026-04-18T06:40:52Z</time></trkpt><trkpt lat="14.454564022090928" lon="121.04232255768517"><ele>38.0</ele><time>2026-04-18T06:40:53Z</time></trkpt><trkpt lat="14.454534966500367" lon="121.0424282971406"><ele>38.0</ele><time>2026-04-18T06:40:54Z</time></trkpt><trkpt lat="14.454507294518628" lon="121.0425346632854"><ele>38.0</ele><time>2026-04-18T06:40:55Z</time></trkpt><trkpt lat="14.454482128730245" lon="121.04263742482959"><ele>38.0</ele><time>2026-04-18T06:40:56Z</time></trkpt><trkpt lat="14.454457958697041" lon="121.0427368759955"><ele>38.199999999999996</ele><time>2026-04-18T06:40:57Z</time></trkpt><trkpt lat="14.45443318417729" lon="121.04283686455038"><ele>38.4</ele><time>2026-04-18T06:40:58Z</time></trkpt><trkpt lat="14.454407025122428" lon="121.04293449958708"><ele>38.599999999999994</ele><time>2026-04-18T06:40:59Z</time></trkpt><trkpt lat="14.4543795379313" lon="121.0430327902005"><ele>38.8</ele><time>2026-04-18T06:41:00Z</time></trkpt><trkpt lat="14.454351145484301" lon="121.04313449155205"><ele>39.0</ele><time>2026-04-18T06:41:01Z</time></trkpt><trkpt lat="14.454321964606548" lon="121.04323296176364"><ele>38.0</ele><time>2026-04-18T06:41:02Z</time></trkpt><trkpt lat="14.454292573677689" lon="121.04333027986468"><ele>37.0</ele><time>2026-04-18T06:41:03Z</time></trkpt><trkpt lat="14.454264807680435" lon="121.04342441758278"><ele>36.0</ele><time>2026-04-18T06:41:04Z</time></trkpt><trkpt lat="14.454240606379653" lon="121.04351085117514"><ele>35.0</ele><time>2026-04-18T06:41:05Z</time></trkpt><trkpt lat="14.454216631931919" lon="121.04360017740197"><ele>34.0</ele><time>2026-04-18T06:41:06Z</time></trkpt><trkpt lat="14.454191230306195" lon="121.04368624114764"><ele>34.0</ele><time>2026-04-18T06:41:07Z</time></trkpt><trkpt lat="14.454166885796987" lon="121.04376403125784"><ele>34.0</ele><time>2026-04-18T06:41:08Z</time></trkpt><trkpt lat="14.454141642499241" lon="121.04384203975086"><ele>34.0</ele><time>2026-04-18T06:41:09Z</time></trkpt><trkpt lat="14.454117537321832" lon="121.04391772963265"><ele>34.0</ele><time>2026-04-18T06:41:10Z</time></trkpt><trkpt lat="14.454093844579507" lon="121.04399263076398"><ele>34.0</ele><time>2026-04-18T06:41:11Z</time></trkpt><trkpt lat="14.454069786252823" lon="121.04406254306038"><ele>34.0</ele><time>2026-04-18T06:41:12Z</time></trkpt><trkpt lat="14.45403153255977" lon="121.0441732192253"><ele>33.5</ele><time>2026-04-18T06:41:14Z</time></trkpt><trkpt lat="14.454004323102792" lon="121.04424382812884"><ele>33.0</ele><time>2026-04-18T06:41:16Z</time></trkpt><trkpt lat="14.45397728827951" lon="121.04430871782795"><ele>32.5</ele><time>2026-04-18T06:41:19Z</time></trkpt><trkpt lat="14.453944574275068" lon="121.04439803152677"><ele>32.0</ele><time>2026-04-18T06:41:22Z</time></trkpt><trkpt lat="14.453914377230474" lon="121.04447902816572"><ele>31.500000000000004</ele><time>2026-04-18T06:41:24Z</time></trkpt><trkpt lat="14.4538825703023" lon="121.04457295251677"><ele>31.0</ele><time>2026-04-18T06:41:26Z</time></trkpt><trkpt lat="14.453853328253027" lon="121.0446677276091"><ele>31.000000000000004</ele><time>2026-04-18T06:41:28Z</time></trkpt><trkpt lat="14.45382425329491" lon="121.04476931843777"><ele>31.0</ele><time>2026-04-18T06:41:30Z</time></trkpt><trkpt lat="14.453786529476218" lon="121.04488695816826"><ele>31.0</ele><time>2026-04-18T06:41:32Z</time></trkpt><trkpt lat="14.45376654428423" lon="121.04495330506717"><ele>31.0</ele><time>2026-04-18T06:41:33Z</time></trkpt><trkpt lat="14.453746240361319" lon="121.04502396364269"><ele>31.000000000000004</ele><time>2026-04-18T06:41:34Z</time></trkpt><trkpt lat="14.453725876921316" lon="121.0450945080603"><ele>31.0</ele><time>2026-04-18T06:41:35Z</time></trkpt><trkpt lat="14.453703814370918" lon="121.04516512150296"><ele>29.666666666666668</ele><time>2026-04-18T06:41:36Z</time></trkpt><trkpt lat="14.453684450504875" lon="121.0452366643625"><ele>28.333333333333336</ele><time>2026-04-18T06:41:37Z</time></trkpt><trkpt lat="14.453667987001312" lon="121.04530324733629"><ele>27.0</ele><time>2026-04-18T06:41:38Z</time></trkpt><trkpt lat="14.453640863502882" lon="121.04540911354215"><ele>25.666666666666668</ele><time>2026-04-18T06:41:40Z</time></trkpt><trkpt lat="14.453618315044558" lon="121.04549202168687"><ele>24.333333333333336</ele><time>2026-04-18T06:41:42Z</time></trkpt><trkpt lat="14.453601031033216" lon="121.0455644123954"><ele>23.0</ele><time>2026-04-18T06:41:44Z</time></trkpt><trkpt lat="14.453583030886" lon="121.04562931790714"><ele>23.0</ele><time>2026-04-18T06:41:46Z</time></trkpt><trkpt lat="14.453559207873022" lon="121.04571817440039"><ele>23.0</ele><time>2026-04-18T06:41:49Z</time></trkpt><trkpt lat="14.453536578316738" lon="121.04579106031825"><ele>23.0</ele><time>2026-04-18T06:41:53Z</time></trkpt><trkpt lat="14.453520017027138" lon="121.0458676506522"><ele>23.0</ele><time>2026-04-18T06:41:58Z</time></trkpt><trkpt lat="14.453505271188767" lon="121.0459323237265"><ele>23.0</ele><time>2026-04-18T06:42:02Z</time></trkpt><trkpt lat="14.453494375809619" lon="121.04599722488976"><ele>23.0</ele><time>2026-04-18T06:42:19Z</time></trkpt><trkpt lat="14.453387055350529" lon="121.04593000523141"><ele>23.0</ele><time>2026-04-18T06:42:21Z</time></trkpt><trkpt lat="14.453290640689211" lon="121.04589322906703"><ele>23.0</ele><time>2026-04-18T06:42:24Z</time></trkpt><trkpt lat="14.453178082447849" lon="121.04584070431636"><ele>23.0</ele><time>2026-04-18T06:42:26Z</time></trkpt><trkpt lat="14.453116993976094" lon="121.04580657740361"><ele>23.0</ele><time>2026-04-18T06:42:27Z</time></trkpt><trkpt lat="14.453054553826433" lon="121.04576993881393"><ele>23.0</ele><time>2026-04-18T06:42:28Z</time></trkpt><trkpt lat="14.452982864687492" lon="121.04573445317004"><ele>23.0</ele><time>2026-04-18T06:42:29Z</time></trkpt><trkpt lat="14.452906057911498" lon="121.04569983690436"><ele>22.2</ele><time>2026-04-18T06:42:30Z</time></trkpt><trkpt lat="14.452824666131377" lon="121.04566908653328"><ele>21.4</ele><time>2026-04-18T06:42:31Z</time></trkpt><trkpt lat="14.452738297242352" lon="121.04564337521016"><ele>20.599999999999998</ele><time>2026-04-18T06:42:32Z</time></trkpt><trkpt lat="14.452651391410049" lon="121.0456185622147"><ele>19.799999999999997</ele><time>2026-04-18T06:42:33Z</time></trkpt><trkpt lat="14.4525666739849" lon="121.0455760780834"><ele>19.0</ele><time>2026-04-18T06:42:34Z</time></trkpt><trkpt lat="14.452472499406896" lon="121.04554942833965"><ele>19.0</ele><time>2026-04-18T06:42:35Z</time></trkpt><trkpt lat="14.45237525379043" lon="121.04552587796583"><ele>19.0</ele><time>2026-04-18T06:42:36Z</time></trkpt><trkpt lat="14.452272398914971" lon="121.04550567764579"><ele>19.0</ele><time>2026-04-18T06:42:37Z</time></trkpt><trkpt lat="14.45216686467728" lon="121.04548981462459"><ele>19.0</ele><time>2026-04-18T06:42:38Z</time></trkpt><trkpt lat="14.452061940032213" lon="121.04547786945254"><ele>19.0</ele><time>2026-04-18T06:42:39Z</time></trkpt><trkpt lat="14.451958935754483" lon="121.04546858103029"><ele>17.8</ele><time>2026-04-18T06:42:40Z</time></trkpt><trkpt lat="14.451854282762499" lon="121.04546309895554"><ele>16.599999999999998</ele><time>2026-04-18T06:42:41Z</time></trkpt><trkpt lat="14.451746808468801" lon="121.04545922348912"><ele>15.4</ele><time>2026-04-18T06:42:42Z</time></trkpt><trkpt lat="14.45163713750397" lon="121.04545794133674"><ele>14.2</ele><time>2026-04-18T06:42:43Z</time></trkpt><trkpt lat="14.451527797815634" lon="121.04545713599946"><ele>13.0</ele><time>2026-04-18T06:42:44Z</time></trkpt><trkpt lat="14.45141889613465" lon="121.0454597300759"><ele>13.0</ele><time>2026-04-18T06:42:45Z</time></trkpt><trkpt lat="14.451307625591259" lon="121.04545754054125"><ele>13.0</ele><time>2026-04-18T06:42:46Z</time></trkpt><trkpt lat="14.451199778536738" lon="121.04545806317165"><ele>13.0</ele><time>2026-04-18T06:42:47Z</time></trkpt><trkpt lat="14.451090767982734" lon="121.0454610373484"><ele>13.0</ele><time>2026-04-18T06:42:48Z</time></trkpt><trkpt lat="14.450985182192852" lon="121.04545824636534"><ele>13.0</ele><time>2026-04-18T06:42:49Z</time></trkpt><trkpt lat="14.450876053608184" lon="121.04545719495009"><ele>14.2</ele><time>2026-04-18T06:42:50Z</time></trkpt><trkpt lat="14.450765686980725" lon="121.04545752656281"><ele>15.4</ele><time>2026-04-18T06:42:51Z</time></trkpt><trkpt lat="14.450655190644033" lon="121.04545411046139"><ele>16.599999999999998</ele><time>2026-04-18T06:42:52Z</time></trkpt><trkpt lat="14.45054659158591" lon="121.04545417175366"><ele>17.8</ele><time>2026-04-18T06:42:53Z</time></trkpt><trkpt lat="14.450439423912941" lon="121.04545609322004"><ele>19.0</ele><time>2026-04-18T06:42:54Z</time></trkpt><trkpt lat="14.450331234070772" lon="121.0454631522375"><ele>19.0</ele><time>2026-04-18T06:42:55Z</time></trkpt><trkpt lat="14.450227906433605" lon="121.04544717152041"><ele>19.0</ele><time>2026-04-18T06:42:56.001Z</time></trkpt><trkpt lat="14.450126998579613" lon="121.04545216617434"><ele>19.0</ele><time>2026-04-18T06:42:57.001Z</time></trkpt><trkpt lat="14.450037704230645" lon="121.045453847413"><ele>19.0</ele><time>2026-04-18T06:42:58.001Z</time></trkpt><trkpt lat="14.44995349532732" lon="121.04545473029364"><ele>19.0</ele><time>2026-04-18T06:42:59.001Z</time></trkpt><trkpt lat="14.449870407859848" lon="121.04544995727419"><ele>19.0</ele><time>2026-04-18T06:43:00.001Z</time></trkpt><trkpt lat="14.4497843447388" lon="121.04544902781208"><ele>19.0</ele><time>2026-04-18T06:43:01.001Z</time></trkpt><trkpt lat="14.449693635594343" lon="121.04544842415068"><ele>19.0</ele><time>2026-04-18T06:43:02.001Z</time></trkpt><trkpt lat="14.449599909743906" lon="121.04545073202736"><ele>19.0</ele><time>2026-04-18T06:43:03.001Z</time></trkpt><trkpt lat="14.449502012472474" lon="121.04545240520923"><ele>19.0</ele><time>2026-04-18T06:43:04.001Z</time></trkpt><trkpt lat="14.449403507475276" lon="121.04544039458983"><ele>18.599999999999998</ele><time>2026-04-18T06:43:05.001Z</time></trkpt><trkpt lat="14.449307485826798" lon="121.04542936521928"><ele>18.2</ele><time>2026-04-18T06:43:06.001Z</time></trkpt><trkpt lat="14.449212417164395" lon="121.04542434384358"><ele>17.799999999999997</ele><time>2026-04-18T06:43:07.001Z</time></trkpt><trkpt lat="14.449117080087857" lon="121.04541929691698"><ele>17.4</ele><time>2026-04-18T06:43:08.001Z</time></trkpt><trkpt lat="14.449019511000404" lon="121.04541629534488"><ele>17.0</ele><time>2026-04-18T06:43:09.001Z</time></trkpt><trkpt lat="14.448922355288474" lon="121.04541512617129"><ele>17.0</ele><time>2026-04-18T06:43:10.001Z</time></trkpt><trkpt lat="14.448827624308294" lon="121.0454172798469"><ele>17.0</ele><time>2026-04-18T06:43:11.001Z</time></trkpt><trkpt lat="14.448731487044686" lon="121.04541891743366"><ele>17.0</ele><time>2026-04-18T06:43:12.001Z</time></trkpt><trkpt lat="14.448637279844116" lon="121.04542827825274"><ele>17.0</ele><time>2026-04-18T06:43:13.001Z</time></trkpt><trkpt lat="14.44854026956468" lon="121.04542939136036"><ele>17.0</ele><time>2026-04-18T06:43:14.001Z</time></trkpt><trkpt lat="14.448443273447475" lon="121.04543171004805"><ele>16.6</ele><time>2026-04-18T06:43:15.001Z</time></trkpt><trkpt lat="14.448346363259796" lon="121.04543574100146"><ele>16.2</ele><time>2026-04-18T06:43:16.001Z</time></trkpt><trkpt lat="14.448248759994735" lon="121.04543850737555"><ele>15.8</ele><time>2026-04-18T06:43:17.001Z</time></trkpt><trkpt lat="14.44814963230443" lon="121.04544164152595"><ele>15.4</ele><time>2026-04-18T06:43:18.001Z</time></trkpt><trkpt lat="14.44805097895188" lon="121.04544553052925"><ele>15.0</ele><time>2026-04-18T06:43:19.001Z</time></trkpt><trkpt lat="14.447957430562964" lon="121.04545451833873"><ele>15.0</ele><time>2026-04-18T06:43:20.001Z</time></trkpt><trkpt lat="14.447857937084876" lon="121.04544669964723"><ele>15.0</ele><time>2026-04-18T06:43:21.001Z</time></trkpt><trkpt lat="14.447760666247289" lon="121.04544637327552"><ele>15.0</ele><time>2026-04-18T06:43:22.001Z</time></trkpt><trkpt lat="14.447662469220687" lon="121.04544646134333"><ele>15.0</ele><time>2026-04-18T06:43:23.001Z</time></trkpt><trkpt lat="14.447563092305659" lon="121.04544585640745"><ele>15.0</ele><time>2026-04-18T06:43:24.001Z</time></trkpt><trkpt lat="14.447463005001472" lon="121.04544698012366"><ele>15.0</ele><time>2026-04-18T06:43:25.001Z</time></trkpt><trkpt lat="14.447363085770162" lon="121.04544497506384"><ele>15.0</ele><time>2026-04-18T06:43:26.001Z</time></trkpt><trkpt lat="14.447262857131818" lon="121.04544673938099"><ele>15.0</ele><time>2026-04-18T06:43:27.001Z</time></trkpt><trkpt lat="14.447166010859226" lon="121.04544156507563"><ele>15.0</ele><time>2026-04-18T06:43:28.001Z</time></trkpt><trkpt lat="14.44707130938567" lon="121.04544267225536"><ele>15.0</ele><time>2026-04-18T06:43:29.001Z</time></trkpt><trkpt lat="14.446976588032886" lon="121.04544857667524"><ele>15.333333333333334</ele><time>2026-04-18T06:43:30.001Z</time></trkpt><trkpt lat="14.446889741790288" lon="121.04545863218469"><ele>15.666666666666668</ele><time>2026-04-18T06:43:31.001Z</time></trkpt><trkpt lat="14.446803761265098" lon="121.04544895257558"><ele>16.0</ele><time>2026-04-18T06:43:32.001Z</time></trkpt><trkpt lat="14.446724805658425" lon="121.04544013428313"><ele>16.333333333333336</ele><time>2026-04-18T06:43:33.001Z</time></trkpt><trkpt lat="14.446650430136614" lon="121.04543396828689"><ele>16.666666666666668</ele><time>2026-04-18T06:43:34.001Z</time></trkpt><trkpt lat="14.44658108241975" lon="121.04543180915441"><ele>17.0</ele><time>2026-04-18T06:43:35.001Z</time></trkpt><trkpt lat="14.446515300212626" lon="121.04543083009513"><ele>17.0</ele><time>2026-04-18T06:43:36.001Z</time></trkpt><trkpt lat="14.446445553906107" lon="121.04543081933537"><ele>17.0</ele><time>2026-04-18T06:43:37Z</time></trkpt><trkpt lat="14.446374554953138" lon="121.04543025612755"><ele>17.0</ele><time>2026-04-18T06:43:38Z</time></trkpt><trkpt lat="14.446298988861265" lon="121.04543060176199"><ele>17.0</ele><time>2026-04-18T06:43:39Z</time></trkpt><trkpt lat="14.446225587406751" lon="121.04543177531181"><ele>17.0</ele><time>2026-04-18T06:43:40Z</time></trkpt><trkpt lat="14.446119107280305" lon="121.04543199825335"><ele>17.0</ele><time>2026-04-18T06:43:42Z</time></trkpt><trkpt lat="14.446041781308884" lon="121.04543668195159"><ele>17.166666666666668</ele><time>2026-04-18T06:43:45Z</time></trkpt><trkpt lat="14.44595815102276" lon="121.04544281087632"><ele>17.333333333333336</ele><time>2026-04-18T06:43:49Z</time></trkpt><trkpt lat="14.445881446165728" lon="121.04544436070874"><ele>17.5</ele><time>2026-04-18T06:43:52Z</time></trkpt><trkpt lat="14.445809681781762" lon="121.04545022011688"><ele>17.666666666666668</ele><time>2026-04-18T06:43:55Z</time></trkpt><trkpt lat="14.445744045835598" lon="121.04546304069588"><ele>17.833333333333332</ele><time>2026-04-18T06:44:00Z</time></trkpt><trkpt lat="14.445673777018605" lon="121.04546853094021"><ele>18.0</ele><time>2026-04-18T06:44:05Z</time></trkpt><trkpt lat="14.445593878633147" lon="121.04547159245416"><ele>18.0</ele><time>2026-04-18T06:44:08Z</time></trkpt><trkpt lat="14.445525954445124" lon="121.04547640190422"><ele>18.0</ele><time>2026-04-18T06:44:10Z</time></trkpt><trkpt lat="14.445438322071663" lon="121.04547998365999"><ele>18.0</ele><time>2026-04-18T06:44:12Z</time></trkpt><trkpt lat="14.445343420415465" lon="121.04546434193075"><ele>18.0</ele><time>2026-04-18T06:44:14Z</time></trkpt><trkpt lat="14.44524135135838" lon="121.04543924039032"><ele>18.0</ele><time>2026-04-18T06:44:16Z</time></trkpt><trkpt lat="14.44514183033435" lon="121.04542975010428"><ele>17.666666666666668</ele><time>2026-04-18T06:44:18Z</time></trkpt><trkpt lat="14.445061436998431" lon="121.04543176298917"><ele>17.333333333333332</ele><time>2026-04-18T06:44:20Z</time></trkpt><trkpt lat="14.444977841338927" lon="121.04544118893871"><ele>17.0</ele><time>2026-04-18T06:44:22Z</time></trkpt><trkpt lat="14.444907037945518" lon="121.04545289248136"><ele>16.666666666666664</ele><time>2026-04-18T06:44:24Z</time></trkpt><trkpt lat="14.44483994180184" lon="121.045468222845"><ele>16.333333333333332</ele><time>2026-04-18T06:44:27Z</time></trkpt><trkpt lat="14.444768723219084" lon="121.0454942724587"><ele>16.0</ele><time>2026-04-18T06:44:29Z</time></trkpt><trkpt lat="14.444747447896171" lon="121.0455749352493"><ele>16.0</ele><time>2026-04-18T06:44:32Z</time></trkpt><trkpt lat="14.444740110354635" lon="121.0456624515667"><ele>16.0</ele><time>2026-04-18T06:44:34Z</time></trkpt><trkpt lat="14.444741077746006" lon="121.04580517180733"><ele>16.0</ele><time>2026-04-18T06:44:36Z</time></trkpt><trkpt lat="14.44474643955563" lon="121.045885143872"><ele>16.0</ele><time>2026-04-18T06:44:37.001Z</time></trkpt><trkpt lat="14.444752301919545" lon="121.04596722438903"><ele>16.0</ele><time>2026-04-18T06:44:38.001Z</time></trkpt><trkpt lat="14.444756632545678" lon="121.04604687668355"><ele>15.714285714285714</ele><time>2026-04-18T06:44:39.001Z</time></trkpt><trkpt lat="14.44475280902325" lon="121.04612577984012"><ele>15.428571428571427</ele><time>2026-04-18T06:44:40.001Z</time></trkpt><trkpt lat="14.444749819871458" lon="121.04620026998091"><ele>15.142857142857142</ele><time>2026-04-18T06:44:41.001Z</time></trkpt><trkpt lat="14.444751332596509" lon="121.04626707964015"><ele>14.857142857142858</ele><time>2026-04-18T06:44:42.001Z</time></trkpt><trkpt lat="14.444742062515827" lon="121.04636854948053"><ele>14.571428571428571</ele><time>2026-04-18T06:44:44.001Z</time></trkpt><trkpt lat="14.444745799880609" lon="121.0464380056228"><ele>14.285714285714285</ele><time>2026-04-18T06:44:47.001Z</time></trkpt><trkpt lat="14.444756577594822" lon="121.04650618750549"><ele>14.0</ele><time>2026-04-18T06:44:50.001Z</time></trkpt><trkpt lat="14.444754978888556" lon="121.04657700220046"><ele>13.666666666666668</ele><time>2026-04-18T06:44:54.001Z</time></trkpt><trkpt lat="14.44475623503875" lon="121.04667381398883"><ele>13.333333333333334</ele><time>2026-04-18T06:44:57.001Z</time></trkpt><trkpt lat="14.444749640069583" lon="121.04677384770338"><ele>13.0</ele><time>2026-04-18T06:44:59.001Z</time></trkpt><trkpt lat="14.444743851569601" lon="121.046899358041"><ele>12.666666666666668</ele><time>2026-04-18T06:45:01.001Z</time></trkpt><trkpt lat="14.444740085128377" lon="121.04696533040618"><ele>12.333333333333334</ele><time>2026-04-18T06:45:02.001Z</time></trkpt><trkpt lat="14.444740638481122" lon="121.04703346709162"><ele>12.0</ele><time>2026-04-18T06:45:03.001Z</time></trkpt><trkpt lat="14.444746317703297" lon="121.04709937028657"><ele>12.0</ele><time>2026-04-18T06:45:04.001Z</time></trkpt><trkpt lat="14.444752409449938" lon="121.04720089506047"><ele>12.0</ele><time>2026-04-18T06:45:06.001Z</time></trkpt><trkpt lat="14.44476134282764" lon="121.04727506841229"><ele>12.0</ele><time>2026-04-18T06:45:08.001Z</time></trkpt><trkpt lat="14.444775392854174" lon="121.04733920683347"><ele>12.0</ele><time>2026-04-18T06:45:14.001Z</time></trkpt><trkpt lat="14.445175972609459" lon="121.04726456222149"><ele>12.0</ele><time>2026-04-18T06:46:13Z</time></trkpt><trkpt lat="14.445191553856725" lon="121.04717013052954"><ele>12.0</ele><time>2026-04-18T06:46:16Z</time></trkpt><trkpt lat="14.445185725034918" lon="121.04707314318992"><ele>12.0</ele><time>2026-04-18T06:46:19Z</time></trkpt><trkpt lat="14.445185825804025" lon="121.04697609443573"><ele>12.0</ele><time>2026-04-18T06:46:22Z</time></trkpt><trkpt lat="14.445184318779898" lon="121.04688203097506"><ele>12.0</ele><time>2026-04-18T06:46:24Z</time></trkpt><trkpt lat="14.445190487564531" lon="121.0467625153195"><ele>12.0</ele><time>2026-04-18T06:46:26Z</time></trkpt><trkpt lat="14.445190669708595" lon="121.04663700618347"><ele>12.0</ele><time>2026-04-18T06:46:28Z</time></trkpt><trkpt lat="14.44518714626538" lon="121.04651485205987"><ele>12.0</ele><time>2026-04-18T06:46:30Z</time></trkpt><trkpt lat="14.445190610116857" lon="121.04644084434284"><ele>12.0</ele><time>2026-04-18T06:46:31Z</time></trkpt><trkpt lat="14.445193882104244" lon="121.0463164278656"><ele>12.0</ele><time>2026-04-18T06:46:33Z</time></trkpt><trkpt lat="14.44519681559952" lon="121.04621210507113"><ele>12.333333333333334</ele><time>2026-04-18T06:46:35Z</time></trkpt><trkpt lat="14.44519912251378" lon="121.04613111324429"><ele>12.666666666666668</ele><time>2026-04-18T06:46:38Z</time></trkpt><trkpt lat="14.445172195034791" lon="121.04606124110019"><ele>13.0</ele><time>2026-04-18T06:46:41Z</time></trkpt><trkpt lat="14.445114429462784" lon="121.04601134532884"><ele>13.333333333333334</ele><time>2026-04-18T06:46:45Z</time></trkpt><trkpt lat="14.445041684108332" lon="121.04600982623724"><ele>13.666666666666668</ele><time>2026-04-18T06:46:48Z</time></trkpt><trkpt lat="14.444937758507177" lon="121.04599224613311"><ele>14.0</ele><time>2026-04-18T06:46:51Z</time></trkpt><trkpt lat="14.444877650183404" lon="121.0459697045351"><ele>14.0</ele><time>2026-04-18T06:46:53Z</time></trkpt><trkpt lat="14.444833081020352" lon="121.04590964932277"><ele>14.0</ele><time>2026-04-18T06:46:57Z</time></trkpt><trkpt lat="14.444865087097842" lon="121.04584274753556"><ele>14.0</ele><time>2026-04-18T06:47:00Z</time></trkpt><trkpt lat="14.444940638879787" lon="121.04582634522215"><ele>14.0</ele><time>2026-04-18T06:47:03Z</time></trkpt><trkpt lat="14.445008348732435" lon="121.0458211968721"><ele>14.0</ele><time>2026-04-18T06:47:05Z</time></trkpt><trkpt lat="14.445081482384841" lon="121.04581164889613"><ele>14.0</ele><time>2026-04-18T06:47:07Z</time></trkpt><trkpt lat="14.445155610607399" lon="121.04579675052335"><ele>14.0</ele><time>2026-04-18T06:47:09.049Z</time></trkpt><trkpt lat="14.444984387140078" lon="121.0460900315763"><ele>14.000000000000002</ele><time>2026-04-18T06:51:44.001Z</time></trkpt><trkpt lat="14.44491943597381" lon="121.04602723917696"><ele>14.0</ele><time>2026-04-18T06:51:45.001Z</time></trkpt><trkpt lat="14.445011115120673" lon="121.04598364587785"><ele>14.0</ele><time>2026-04-18T06:51:49.999Z</time></trkpt><trkpt lat="14.445086471560717" lon="121.04594476207136"><ele>14.0</ele><time>2026-04-18T06:51:51.999Z</time></trkpt><trkpt lat="14.445154301339707" lon="121.04591042370373"><ele>14.000000000000002</ele><time>2026-04-18T06:51:53.999Z</time></trkpt><trkpt lat="14.445231711189964" lon="121.04587475765112"><ele>14.0</ele><time>2026-04-18T06:51:57Z</time></trkpt><trkpt lat="14.445284873010415" lon="121.04601532821734"><ele>14.0</ele><time>2026-04-18T06:51:59Z</time></trkpt><trkpt lat="14.445176268186" lon="121.04609032266319"><ele>14.0</ele><time>2026-04-18T06:52:01Z</time></trkpt><trkpt lat="14.445159543966506" lon="121.04620482751184"><ele>14.0</ele><time>2026-04-18T06:52:05Z</time></trkpt><trkpt lat="14.445166484285075" lon="121.04633567386736"><ele>14.0</ele><time>2026-04-18T06:52:07Z</time></trkpt><trkpt lat="14.445169758573613" lon="121.04646342317507"><ele>14.000000000000002</ele><time>2026-04-18T06:52:09Z</time></trkpt><trkpt lat="14.445171035222547" lon="121.04654177368009"><ele>14.0</ele><time>2026-04-18T06:52:10Z</time></trkpt><trkpt lat="14.445172129644307" lon="121.0466317677507"><ele>14.0</ele><time>2026-04-18T06:52:11Z</time></trkpt><trkpt lat="14.445172617946595" lon="121.04670630968545"><ele>14.0</ele><time>2026-04-18T06:52:12Z</time></trkpt><trkpt lat="14.445171700851235" lon="121.04679860416785"><ele>14.000000000000002</ele><time>2026-04-18T06:52:13Z</time></trkpt><trkpt lat="14.445170885180898" lon="121.04688816482893"><ele>14.0</ele><time>2026-04-18T06:52:14Z</time></trkpt><trkpt lat="14.445170220029523" lon="121.04698426731044"><ele>13.666666666666668</ele><time>2026-04-18T06:52:16Z</time></trkpt><trkpt lat="14.445172581393132" lon="121.04706419713249"><ele>13.333333333333334</ele><time>2026-04-18T06:52:18Z</time></trkpt><trkpt lat="14.44516754650864" lon="121.04714274109797"><ele>13.0</ele><time>2026-04-18T06:52:21Z</time></trkpt><trkpt lat="14.445168336499504" lon="121.04723772228641"><ele>12.666666666666668</ele><time>2026-04-18T06:52:26Z</time></trkpt><trkpt lat="14.445157586377496" lon="121.04730646901776"><ele>12.333333333333334</ele><time>2026-04-18T06:52:30Z</time></trkpt><trkpt lat="14.445169466101659" lon="121.04739449434332"><ele>12.0</ele><time>2026-04-18T06:52:34Z</time></trkpt><trkpt lat="14.445031800289032" lon="121.04737495356139"><ele>12.0</ele><time>2026-04-18T06:52:40Z</time></trkpt><trkpt lat="14.445169140862074" lon="121.04736161157618"><ele>12.0</ele><time>2026-04-18T06:52:48Z</time></trkpt><trkpt lat="14.445169929873725" lon="121.04744138246754"><ele>12.0</ele><time>2026-04-18T06:52:53Z</time></trkpt><trkpt lat="14.445014170845946" lon="121.04744525058119"><ele>12.0</ele><time>2026-04-18T06:52:54Z</time></trkpt><trkpt lat="14.444984787667387" lon="121.04737480449151"><ele>12.0</ele><time>2026-04-18T06:53:01Z</time></trkpt><trkpt lat="14.445003040981963" lon="121.0472898100991"><ele>12.0</ele><time>2026-04-18T06:53:20.001Z</time></trkpt><trkpt lat="14.444888108300843" lon="121.04725246547926"><ele>12.0</ele><time>2026-04-18T06:53:32.001Z</time></trkpt><trkpt lat="14.444838436598758" lon="121.04719967584084"><ele>12.0</ele><time>2026-04-18T06:53:37.001Z</time></trkpt><trkpt lat="14.444822446064297" lon="121.0471201173553"><ele>12.0</ele><time>2026-04-18T06:53:40.001Z</time></trkpt><trkpt lat="14.444815172083613" lon="121.04704219848485"><ele>12.0</ele><time>2026-04-18T06:53:42.001Z</time></trkpt><trkpt lat="14.444819828102204" lon="121.04694285686959"><ele>12.0</ele><time>2026-04-18T06:53:44.001Z</time></trkpt><trkpt lat="14.444823574390998" lon="121.04682604755978"><ele>12.0</ele><time>2026-04-18T06:53:45.001Z</time></trkpt><trkpt lat="14.44483637698397" lon="121.04673331517631"><ele>12.0</ele><time>2026-04-18T06:53:46.001Z</time></trkpt><trkpt lat="14.444834717078296" lon="121.04666428233126"><ele>12.0</ele><time>2026-04-18T06:53:47.001Z</time></trkpt><trkpt lat="14.444835381517922" lon="121.04659404491316"><ele>12.0</ele><time>2026-04-18T06:53:48.001Z</time></trkpt><trkpt lat="14.444832619314111" lon="121.0465283583238"><ele>12.0</ele><time>2026-04-18T06:53:49.001Z</time></trkpt><trkpt lat="14.444831561359077" lon="121.04642993689335"><ele>12.0</ele><time>2026-04-18T06:53:51.001Z</time></trkpt><trkpt lat="14.444834774221087" lon="121.04635701800159"><ele>12.399999999999999</ele><time>2026-04-18T06:53:54Z</time></trkpt><trkpt lat="14.44483453151907" lon="121.04628958520765"><ele>12.799999999999999</ele><time>2026-04-18T06:53:56Z</time></trkpt><trkpt lat="14.444830681297116" lon="121.04619542066199"><ele>13.2</ele><time>2026-04-18T06:53:58Z</time></trkpt><trkpt lat="14.444828164387932" lon="121.04608327710619"><ele>13.6</ele><time>2026-04-18T06:54:00Z</time></trkpt><trkpt lat="14.444828173939843" lon="121.04595307319327"><ele>14.0</ele><time>2026-04-18T06:54:02Z</time></trkpt><trkpt lat="14.444824850669665" lon="121.04588486078546"><ele>14.399999999999999</ele><time>2026-04-18T06:54:03Z</time></trkpt><trkpt lat="14.4448227263826" lon="121.04576484928403"><ele>14.799999999999999</ele><time>2026-04-18T06:54:05Z</time></trkpt><trkpt lat="14.444822880067601" lon="121.04567718738977"><ele>15.200000000000001</ele><time>2026-04-18T06:54:07Z</time></trkpt><trkpt lat="14.44486521916806" lon="121.04559284328747"><ele>15.600000000000001</ele><time>2026-04-18T06:54:10Z</time></trkpt><trkpt lat="14.444858554984403" lon="121.04551078268292"><ele>16.0</ele><time>2026-04-18T06:54:15Z</time></trkpt><trkpt lat="14.444983539511338" lon="121.04550667255161"><ele>16.0</ele><time>2026-04-18T06:54:17Z</time></trkpt><trkpt lat="14.445082023623605" lon="121.04551125404491"><ele>16.0</ele><time>2026-04-18T06:54:19Z</time></trkpt><trkpt lat="14.445208359873229" lon="121.04553138311243"><ele>16.0</ele><time>2026-04-18T06:54:21Z</time></trkpt><trkpt lat="14.445279978401828" lon="121.04553767080172"><ele>16.0</ele><time>2026-04-18T06:54:22Z</time></trkpt><trkpt lat="14.445365934600584" lon="121.04553850771792"><ele>16.0</ele><time>2026-04-18T06:54:23Z</time></trkpt><trkpt lat="14.445447170986483" lon="121.04553826663602"><ele>16.400000000000002</ele><time>2026-04-18T06:54:24Z</time></trkpt><trkpt lat="14.445530950578119" lon="121.04553707888103"><ele>16.8</ele><time>2026-04-18T06:54:25Z</time></trkpt><trkpt lat="14.445621319447776" lon="121.04553592811317"><ele>17.200000000000003</ele><time>2026-04-18T06:54:26Z</time></trkpt><trkpt lat="14.445709100210554" lon="121.04553357281569"><ele>17.6</ele><time>2026-04-18T06:54:27Z</time></trkpt><trkpt lat="14.445827728735624" lon="121.04553277011762"><ele>18.0</ele><time>2026-04-18T06:54:28Z</time></trkpt><trkpt lat="14.445932539874477" lon="121.04553213764633"><ele>18.0</ele><time>2026-04-18T06:54:29Z</time></trkpt><trkpt lat="14.446036328319765" lon="121.04553162714738"><ele>18.0</ele><time>2026-04-18T06:54:30Z</time></trkpt><trkpt lat="14.446138157820183" lon="121.04553128505361"><ele>18.0</ele><time>2026-04-18T06:54:31Z</time></trkpt><trkpt lat="14.446244405998318" lon="121.0455285556997"><ele>18.0</ele><time>2026-04-18T06:54:32Z</time></trkpt><trkpt lat="14.446349404577369" lon="121.04552741743696"><ele>18.0</ele><time>2026-04-18T06:54:33Z</time></trkpt><trkpt lat="14.446453784051505" lon="121.04553049435984"><ele>17.8</ele><time>2026-04-18T06:54:34Z</time></trkpt><trkpt lat="14.446565457343004" lon="121.04553074187194"><ele>17.6</ele><time>2026-04-18T06:54:35Z</time></trkpt><trkpt lat="14.44667920370639" lon="121.04552787742969"><ele>17.4</ele><time>2026-04-18T06:54:36Z</time></trkpt><trkpt lat="14.446786714188983" lon="121.04552805765107"><ele>17.2</ele><time>2026-04-18T06:54:37Z</time></trkpt><trkpt lat="14.446897500191588" lon="121.04552574267012"><ele>17.0</ele><time>2026-04-18T06:54:38Z</time></trkpt><trkpt lat="14.44700553267953" lon="121.0455268076419"><ele>17.0</ele><time>2026-04-18T06:54:39Z</time></trkpt><trkpt lat="14.447114687362443" lon="121.04552763062686"><ele>17.0</ele><time>2026-04-18T06:54:40Z</time></trkpt><trkpt lat="14.447228465405813" lon="121.04552625119717"><ele>17.0</ele><time>2026-04-18T06:54:41Z</time></trkpt><trkpt lat="14.44734271904405" lon="121.04552510186578"><ele>17.0</ele><time>2026-04-18T06:54:42Z</time></trkpt><trkpt lat="14.447460646404455" lon="121.04552485855106"><ele>16.6</ele><time>2026-04-18T06:54:43Z</time></trkpt><trkpt lat="14.44757804208996" lon="121.04552373372444"><ele>16.2</ele><time>2026-04-18T06:54:44Z</time></trkpt><trkpt lat="14.447692511625869" lon="121.04551629343946"><ele>15.8</ele><time>2026-04-18T06:54:45Z</time></trkpt><trkpt lat="14.447797965707466" lon="121.04551011410719"><ele>15.4</ele><time>2026-04-18T06:54:46Z</time></trkpt><trkpt lat="14.447885636988458" lon="121.04551864402175"><ele>15.0</ele><time>2026-04-18T06:54:47Z</time></trkpt><trkpt lat="14.447974990192458" lon="121.0455037484806"><ele>14.833333333333334</ele><time>2026-04-18T06:54:48Z</time></trkpt><trkpt lat="14.44804552733805" lon="121.04550033562093"><ele>14.666666666666668</ele><time>2026-04-18T06:54:49.001Z</time></trkpt><trkpt lat="14.448110518331637" lon="121.04549863730922"><ele>14.5</ele><time>2026-04-18T06:54:50.001Z</time></trkpt><trkpt lat="14.448174942681705" lon="121.04549407157548"><ele>14.333333333333334</ele><time>2026-04-18T06:54:51.001Z</time></trkpt><trkpt lat="14.448238283529154" lon="121.04549006464546"><ele>14.166666666666668</ele><time>2026-04-18T06:54:52.001Z</time></trkpt><trkpt lat="14.44835554755482" lon="121.04548410649546"><ele>14.0</ele><time>2026-04-18T06:54:54.001Z</time></trkpt><trkpt lat="14.448473737707335" lon="121.0454803207199"><ele>14.0</ele><time>2026-04-18T06:54:56.001Z</time></trkpt><trkpt lat="14.448580921212292" lon="121.04548823948834"><ele>14.0</ele><time>2026-04-18T06:54:58.001Z</time></trkpt><trkpt lat="14.44869745171261" lon="121.04549177182733"><ele>14.0</ele><time>2026-04-18T06:55:00.001Z</time></trkpt><trkpt lat="14.448822696407392" lon="121.04549189762226"><ele>14.0</ele><time>2026-04-18T06:55:02.001Z</time></trkpt><trkpt lat="14.448953573692028" lon="121.04549465076978"><ele>14.428571428571429</ele><time>2026-04-18T06:55:04.001Z</time></trkpt><trkpt lat="14.449020676013063" lon="121.04549542907266"><ele>14.857142857142858</ele><time>2026-04-18T06:55:05.001Z</time></trkpt><trkpt lat="14.449088094608905" lon="121.0454951560583"><ele>15.285714285714285</ele><time>2026-04-18T06:55:06.001Z</time></trkpt><trkpt lat="14.449155036532133" lon="121.04549498391528"><ele>15.714285714285714</ele><time>2026-04-18T06:55:07.001Z</time></trkpt><trkpt lat="14.449222168447712" lon="121.04549632927359"><ele>16.142857142857142</ele><time>2026-04-18T06:55:08.001Z</time></trkpt><trkpt lat="14.449289024703786" lon="121.04550011938402"><ele>16.57142857142857</ele><time>2026-04-18T06:55:09.001Z</time></trkpt><trkpt lat="14.449356240127997" lon="121.04550583542338"><ele>17.0</ele><time>2026-04-18T06:55:10.001Z</time></trkpt><trkpt lat="14.449422014362277" lon="121.04551115707066"><ele>16.999999999999996</ele><time>2026-04-18T06:55:11.001Z</time></trkpt><trkpt lat="14.449487514336536" lon="121.04551359742631"><ele>17.0</ele><time>2026-04-18T06:55:12.001Z</time></trkpt><trkpt lat="14.449550737555192" lon="121.04551745556333"><ele>17.0</ele><time>2026-04-18T06:55:13.001Z</time></trkpt><trkpt lat="14.44961603431835" lon="121.04552079219874"><ele>17.0</ele><time>2026-04-18T06:55:14.001Z</time></trkpt><trkpt lat="14.449681351030717" lon="121.045522869568"><ele>17.0</ele><time>2026-04-18T06:55:15.001Z</time></trkpt><trkpt lat="14.449749265858374" lon="121.04552315528568"><ele>16.999999999999996</ele><time>2026-04-18T06:55:16.001Z</time></trkpt><trkpt lat="14.449821398118413" lon="121.04552330226828"><ele>17.0</ele><time>2026-04-18T06:55:17.001Z</time></trkpt><trkpt lat="14.449895710781806" lon="121.0455225902118"><ele>17.333333333333336</ele><time>2026-04-18T06:55:18.001Z</time></trkpt><trkpt lat="14.449976235100017" lon="121.04552177457664"><ele>17.666666666666668</ele><time>2026-04-18T06:55:19.001Z</time></trkpt><trkpt lat="14.450059427917656" lon="121.04551851721612"><ele>18.0</ele><time>2026-04-18T06:55:20.001Z</time></trkpt><trkpt lat="14.450147504480046" lon="121.04551897536591"><ele>18.333333333333332</ele><time>2026-04-18T06:55:21.001Z</time></trkpt><trkpt lat="14.45023905179277" lon="121.04552367175975"><ele>18.666666666666664</ele><time>2026-04-18T06:55:22.001Z</time></trkpt><trkpt lat="14.450335255569213" lon="121.04552722499612"><ele>19.0</ele><time>2026-04-18T06:55:23.001Z</time></trkpt><trkpt lat="14.45043462577667" lon="121.04553229335372"><ele>19.2</ele><time>2026-04-18T06:55:24.001Z</time></trkpt><trkpt lat="14.450538711673811" lon="121.04553225568698"><ele>19.4</ele><time>2026-04-18T06:55:25.001Z</time></trkpt><trkpt lat="14.45064001871484" lon="121.04553510746224"><ele>19.6</ele><time>2026-04-18T06:55:26.001Z</time></trkpt><trkpt lat="14.45073799792937" lon="121.04553631365232"><ele>19.8</ele><time>2026-04-18T06:55:27.001Z</time></trkpt><trkpt lat="14.450826836008545" lon="121.04553959054279"><ele>20.0</ele><time>2026-04-18T06:55:28.001Z</time></trkpt><trkpt lat="14.450912057048447" lon="121.04554119138034"><ele>20.0</ele><time>2026-04-18T06:55:29.001Z</time></trkpt><trkpt lat="14.451000628925277" lon="121.04554549954372"><ele>20.0</ele><time>2026-04-18T06:55:30.001Z</time></trkpt><trkpt lat="14.451090488510342" lon="121.04554037000221"><ele>20.0</ele><time>2026-04-18T06:55:31.001Z</time></trkpt><trkpt lat="14.451171888434965" lon="121.04553638704107"><ele>20.0</ele><time>2026-04-18T06:55:32.001Z</time></trkpt><trkpt lat="14.451255425964511" lon="121.04553305245696"><ele>20.0</ele><time>2026-04-18T06:55:33.001Z</time></trkpt><trkpt lat="14.45134459284068" lon="121.04553278732081"><ele>20.0</ele><time>2026-04-18T06:55:34.001Z</time></trkpt><trkpt lat="14.451424531388328" lon="121.0455378909972"><ele>19.0</ele><time>2026-04-18T06:55:35.001Z</time></trkpt><trkpt lat="14.451508718091983" lon="121.04554060155732"><ele>18.0</ele><time>2026-04-18T06:55:36.001Z</time></trkpt><trkpt lat="14.451577450517552" lon="121.04554610198751"><ele>17.0</ele><time>2026-04-18T06:55:37.001Z</time></trkpt><trkpt lat="14.45164546007277" lon="121.04554096884922"><ele>16.0</ele><time>2026-04-18T06:55:38.001Z</time></trkpt><trkpt lat="14.451717807408462" lon="121.04553500287335"><ele>15.0</ele><time>2026-04-18T06:55:39.001Z</time></trkpt><trkpt lat="14.45178694683622" lon="121.04552802252411"><ele>14.0</ele><time>2026-04-18T06:55:40.001Z</time></trkpt><trkpt lat="14.451864097766386" lon="121.04552452209323"><ele>13.0</ele><time>2026-04-18T06:55:41.001Z</time></trkpt><trkpt lat="14.45193510562677" lon="121.0455245268975"><ele>13.0</ele><time>2026-04-18T06:55:42.001Z</time></trkpt><trkpt lat="14.452004103541535" lon="121.04552854573635"><ele>13.0</ele><time>2026-04-18T06:55:43.001Z</time></trkpt><trkpt lat="14.452073167878348" lon="121.04553729417465"><ele>13.0</ele><time>2026-04-18T06:55:44.001Z</time></trkpt><trkpt lat="14.452143238703961" lon="121.04554367744647"><ele>13.0</ele><time>2026-04-18T06:55:45.001Z</time></trkpt><trkpt lat="14.452219876534366" lon="121.04555687026331"><ele>13.0</ele><time>2026-04-18T06:55:46.001Z</time></trkpt><trkpt lat="14.452290104414281" lon="121.04556798810903"><ele>13.0</ele><time>2026-04-18T06:55:47.001Z</time></trkpt><trkpt lat="14.452361871636453" lon="121.04557615403985"><ele>13.0</ele><time>2026-04-18T06:55:48.001Z</time></trkpt><trkpt lat="14.452435382001918" lon="121.04558763057993"><ele>13.857142857142858</ele><time>2026-04-18T06:55:49.001Z</time></trkpt><trkpt lat="14.45250558431613" lon="121.04560059692469"><ele>14.714285714285715</ele><time>2026-04-18T06:55:50.001Z</time></trkpt><trkpt lat="14.452575025355781" lon="121.04561637622501"><ele>15.571428571428571</ele><time>2026-04-18T06:55:51.001Z</time></trkpt><trkpt lat="14.452642605871578" lon="121.045634657842"><ele>16.42857142857143</ele><time>2026-04-18T06:55:52.001Z</time></trkpt><trkpt lat="14.45271537084534" lon="121.04565340433857"><ele>17.28571428571429</ele><time>2026-04-18T06:55:53.001Z</time></trkpt><trkpt lat="14.452777758034976" lon="121.04568451306096"><ele>18.142857142857142</ele><time>2026-04-18T06:55:54.001Z</time></trkpt><trkpt lat="14.452844860137873" lon="121.04570410086889"><ele>19.0</ele><time>2026-04-18T06:55:55.001Z</time></trkpt><trkpt lat="14.452910998939627" lon="121.04572618528641"><ele>19.799999999999997</ele><time>2026-04-18T06:55:56.001Z</time></trkpt><trkpt lat="14.452963101893717" lon="121.04576714297681"><ele>20.599999999999998</ele><time>2026-04-18T06:55:57.001Z</time></trkpt><trkpt lat="14.453076743527793" lon="121.04582637434929"><ele>21.4</ele><time>2026-04-18T06:55:59.001Z</time></trkpt><trkpt lat="14.453172568548009" lon="121.04587122157538"><ele>22.2</ele><time>2026-04-18T06:56:01.001Z</time></trkpt><trkpt lat="14.453243157061356" lon="121.04590909248446"><ele>23.0</ele><time>2026-04-18T06:56:03.001Z</time></trkpt><trkpt lat="14.453312672646724" lon="121.04593623842116"><ele>23.166666666666668</ele><time>2026-04-18T06:56:06.001Z</time></trkpt><trkpt lat="14.453400911681523" lon="121.04596142784469"><ele>23.333333333333336</ele><time>2026-04-18T06:56:09.001Z</time></trkpt><trkpt lat="14.453472162002658" lon="121.04598476282322"><ele>23.5</ele><time>2026-04-18T06:56:11.001Z</time></trkpt><trkpt lat="14.45355506680575" lon="121.04601669197453"><ele>23.666666666666668</ele><time>2026-04-18T06:56:14.001Z</time></trkpt><trkpt lat="14.453619113896025" lon="121.04603202397465"><ele>23.833333333333332</ele><time>2026-04-18T06:56:17.001Z</time></trkpt><trkpt lat="14.453679894684234" lon="121.04600098635498"><ele>24.0</ele><time>2026-04-18T06:56:22.001Z</time></trkpt><trkpt lat="14.453711930040399" lon="121.04586398662552"><ele>23.999999999999996</ele><time>2026-04-18T06:56:29.001Z</time></trkpt><trkpt lat="14.453713807629617" lon="121.04579840012674"><ele>24.0</ele><time>2026-04-18T06:56:33.001Z</time></trkpt><trkpt lat="14.453755093883663" lon="121.04572754104434"><ele>24.0</ele><time>2026-04-18T06:56:40.001Z</time></trkpt><trkpt lat="14.453757583725203" lon="121.0456604769273"><ele>24.0</ele><time>2026-04-18T06:56:46.001Z</time></trkpt><trkpt lat="14.453752682717067" lon="121.04558373457317"><ele>24.0</ele><time>2026-04-18T06:56:53.001Z</time></trkpt><trkpt lat="14.453777177109657" lon="121.04552011324051"><ele>23.999999999999996</ele><time>2026-04-18T06:56:56.001Z</time></trkpt><trkpt lat="14.453814414077428" lon="121.04543384228555"><ele>24.0</ele><time>2026-04-18T06:56:59.001Z</time></trkpt><trkpt lat="14.45382418004435" lon="121.04536303718788"><ele>24.6</ele><time>2026-04-18T06:57:01.001Z</time></trkpt><trkpt lat="14.453853772894231" lon="121.04526161107009"><ele>25.2</ele><time>2026-04-18T06:57:04.001Z</time></trkpt><trkpt lat="14.453882584544443" lon="121.04515566417285"><ele>25.800000000000004</ele><time>2026-04-18T06:57:06.001Z</time></trkpt><trkpt lat="14.453909464392007" lon="121.0450453361038"><ele>26.400000000000002</ele><time>2026-04-18T06:57:08.001Z</time></trkpt><trkpt lat="14.453932215202139" lon="121.04495763848537"><ele>27.0</ele><time>2026-04-18T06:57:10.001Z</time></trkpt><trkpt lat="14.4539557038543" lon="121.04488189369725"><ele>27.57142857142857</ele><time>2026-04-18T06:57:12.001Z</time></trkpt><trkpt lat="14.45397934706659" lon="121.04480656881648"><ele>28.142857142857142</ele><time>2026-04-18T06:57:14.001Z</time></trkpt><trkpt lat="14.454000818173574" lon="121.04474216692395"><ele>28.714285714285715</ele><time>2026-04-18T06:57:16.001Z</time></trkpt><trkpt lat="14.454024856167129" lon="121.04466992004143"><ele>29.285714285714285</ele><time>2026-04-18T06:57:18.001Z</time></trkpt><trkpt lat="14.45404202557009" lon="121.0445965668421"><ele>29.85714285714286</ele><time>2026-04-18T06:57:20.001Z</time></trkpt><trkpt lat="14.454065482433467" lon="121.04451733048212"><ele>30.42857142857143</ele><time>2026-04-18T06:57:22.001Z</time></trkpt><trkpt lat="14.454088329347371" lon="121.04444858296911"><ele>31.0</ele><time>2026-04-18T06:57:24.001Z</time></trkpt><trkpt lat="14.454111528324148" lon="121.04437621606439"><ele>31.000000000000004</ele><time>2026-04-18T06:57:26.001Z</time></trkpt><trkpt lat="14.454141235213719" lon="121.04428626747786"><ele>31.0</ele><time>2026-04-18T06:57:28.001Z</time></trkpt><trkpt lat="14.454174656597731" lon="121.04418402197662"><ele>31.0</ele><time>2026-04-18T06:57:30.001Z</time></trkpt><trkpt lat="14.454191882914069" lon="121.04410016327134"><ele>31.0</ele><time>2026-04-18T06:57:32.001Z</time></trkpt><trkpt lat="14.454223492603711" lon="121.04402454807281"><ele>31.000000000000004</ele><time>2026-04-18T06:57:34.001Z</time></trkpt><trkpt lat="14.45424440051936" lon="121.04395404810921"><ele>31.0</ele><time>2026-04-18T06:57:36.001Z</time></trkpt><trkpt lat="14.45427146826119" lon="121.0438658855097"><ele>31.6</ele><time>2026-04-18T06:57:38.001Z</time></trkpt><trkpt lat="14.454303950420185" lon="121.04376724480308"><ele>32.2</ele><time>2026-04-18T06:57:40.001Z</time></trkpt><trkpt lat="14.454344724419993" lon="121.04365267472255"><ele>32.8</ele><time>2026-04-18T06:57:42.001Z</time></trkpt><trkpt lat="14.45437446779514" lon="121.04355252259411"><ele>33.4</ele><time>2026-04-18T06:57:44.001Z</time></trkpt><trkpt lat="14.454405106944362" lon="121.0434469153134"><ele>34.0</ele><time>2026-04-18T06:57:46.001Z</time></trkpt><trkpt lat="14.454440295266307" lon="121.04334890810038"><ele>35.0</ele><time>2026-04-18T06:57:48.001Z</time></trkpt><trkpt lat="14.454471095185095" lon="121.04324433458744"><ele>36.0</ele><time>2026-04-18T06:57:50.001Z</time></trkpt><trkpt lat="14.45450164428134" lon="121.04314310162566"><ele>37.0</ele><time>2026-04-18T06:57:52.001Z</time></trkpt><trkpt lat="14.454530548439005" lon="121.04304575579987"><ele>38.0</ele><time>2026-04-18T06:57:54.001Z</time></trkpt><trkpt lat="14.454559131666246" lon="121.0429594335467"><ele>39.0</ele><time>2026-04-18T06:57:56.001Z</time></trkpt><trkpt lat="14.454590768260893" lon="121.04287018631183"><ele>38.6</ele><time>2026-04-18T06:57:58.001Z</time></trkpt><trkpt lat="14.45462380806691" lon="121.04277840130682"><ele>38.2</ele><time>2026-04-18T06:58:00.001Z</time></trkpt><trkpt lat="14.454650445841892" lon="121.04267898660439"><ele>37.800000000000004</ele><time>2026-04-18T06:58:02.001Z</time></trkpt><trkpt lat="14.454670828742195" lon="121.04261285546475"><ele>37.4</ele><time>2026-04-18T06:58:03.001Z</time></trkpt><trkpt lat="14.454713337825282" lon="121.04249340216332"><ele>37.0</ele><time>2026-04-18T06:58:05.001Z</time></trkpt><trkpt lat="14.454749396163864" lon="121.04236850468925"><ele>37.0</ele><time>2026-04-18T06:58:07.001Z</time></trkpt><trkpt lat="14.45477268038203" lon="121.04230091485454"><ele>37.0</ele><time>2026-04-18T06:58:08.001Z</time></trkpt><trkpt lat="14.454793622987127" lon="121.04223347923819"><ele>37.0</ele><time>2026-04-18T06:58:09.001Z</time></trkpt><trkpt lat="14.454817197517182" lon="121.04216779895694"><ele>37.0</ele><time>2026-04-18T06:58:10.001Z</time></trkpt><trkpt lat="14.454841922576575" lon="121.04210082222589"><ele>37.0</ele><time>2026-04-18T06:58:11.001Z</time></trkpt><trkpt lat="14.454863644307492" lon="121.04203478784193"><ele>37.0</ele><time>2026-04-18T06:58:12.001Z</time></trkpt><trkpt lat="14.454883071729668" lon="121.04197263959534"><ele>37.0</ele><time>2026-04-18T06:58:13.001Z</time></trkpt><trkpt lat="14.45491240150134" lon="121.04186464767069"><ele>37.0</ele><time>2026-04-18T06:58:15.001Z</time></trkpt><trkpt lat="14.454941762639521" lon="121.04177950866158"><ele>37.0</ele><time>2026-04-18T06:58:17.001Z</time></trkpt><trkpt lat="14.454965204900393" lon="121.04171115831264"><ele>37.0</ele><time>2026-04-18T06:58:19.001Z</time></trkpt><trkpt lat="14.454984165841852" lon="121.04164714413213"><ele>37.0</ele><time>2026-04-18T06:58:21.001Z</time></trkpt><trkpt lat="14.455011413945108" lon="121.04155647068433"><ele>37.0</ele><time>2026-04-18T06:58:24.001Z</time></trkpt><trkpt lat="14.455037536696492" lon="121.04146377106318"><ele>37.0</ele><time>2026-04-18T06:58:27.001Z</time></trkpt><trkpt lat="14.455056236372297" lon="121.04139000600227"><ele>37.16666666666667</ele><time>2026-04-18T06:58:29.001Z</time></trkpt><trkpt lat="14.455074011682855" lon="121.04131453444276"><ele>37.333333333333336</ele><time>2026-04-18T06:58:31.001Z</time></trkpt><trkpt lat="14.455094853136098" lon="121.0412345491395"><ele>37.5</ele><time>2026-04-18T06:58:33.001Z</time></trkpt><trkpt lat="14.45511734521825" lon="121.04113737356589"><ele>37.666666666666664</ele><time>2026-04-18T06:58:35.001Z</time></trkpt><trkpt lat="14.455142825947211" lon="121.04101355780544"><ele>37.83333333333333</ele><time>2026-04-18T06:58:37.001Z</time></trkpt><trkpt lat="14.45516052861157" lon="121.0409466972257"><ele>38.0</ele><time>2026-04-18T06:58:38.001Z</time></trkpt><trkpt lat="14.455175700433902" lon="121.04087663488025"><ele>38.0</ele><time>2026-04-18T06:58:39.001Z</time></trkpt><trkpt lat="14.455195148034543" lon="121.04080229086861"><ele>38.0</ele><time>2026-04-18T06:58:40.001Z</time></trkpt><trkpt lat="14.455216367737929" lon="121.0407273726646"><ele>38.0</ele><time>2026-04-18T06:58:41.001Z</time></trkpt><trkpt lat="14.45523501045599" lon="121.04064396294015"><ele>38.0</ele><time>2026-04-18T06:58:42.001Z</time></trkpt><trkpt lat="14.45525550590776" lon="121.04055777514957"><ele>38.0</ele><time>2026-04-18T06:58:43.001Z</time></trkpt><trkpt lat="14.455273087116963" lon="121.04046802209274"><ele>38.0</ele><time>2026-04-18T06:58:44.001Z</time></trkpt><trkpt lat="14.455293983443898" lon="121.04037976398725"><ele>38.0</ele><time>2026-04-18T06:58:45.001Z</time></trkpt><trkpt lat="14.455317498002465" lon="121.0402960957444"><ele>38.0</ele><time>2026-04-18T06:58:46.001Z</time></trkpt><trkpt lat="14.455339870443547" lon="121.04021039231358"><ele>38.0</ele><time>2026-04-18T06:58:47.001Z</time></trkpt><trkpt lat="14.455361194391399" lon="121.04012654152609"><ele>38.0</ele><time>2026-04-18T06:58:48.001Z</time></trkpt><trkpt lat="14.45538235566675" lon="121.0400446442503"><ele>38.0</ele><time>2026-04-18T06:58:49.001Z</time></trkpt><trkpt lat="14.455402796678491" lon="121.03996364436887"><ele>38.0</ele><time>2026-04-18T06:58:50.001Z</time></trkpt><trkpt lat="14.455423922430077" lon="121.039883752712"><ele>38.0</ele><time>2026-04-18T06:58:51.001Z</time></trkpt><trkpt lat="14.45544590317048" lon="121.0397997896598"><ele>38.0</ele><time>2026-04-18T06:58:52.001Z</time></trkpt><trkpt lat="14.455468817622126" lon="121.03971299001272"><ele>38.0</ele><time>2026-04-18T06:58:53.001Z</time></trkpt><trkpt lat="14.455492005504878" lon="121.03962679048756"><ele>38.0</ele><time>2026-04-18T06:58:54.001Z</time></trkpt><trkpt lat="14.455513563755737" lon="121.03954273931762"><ele>38.0</ele><time>2026-04-18T06:58:55.001Z</time></trkpt><trkpt lat="14.455530679647321" lon="121.03946127351797"><ele>38.0</ele><time>2026-04-18T06:58:56.001Z</time></trkpt><trkpt lat="14.455549098466474" lon="121.03938678613278"><ele>38.0</ele><time>2026-04-18T06:58:57.001Z</time></trkpt><trkpt lat="14.455566861282353" lon="121.03931114222289"><ele>38.0</ele><time>2026-04-18T06:58:58.001Z</time></trkpt><trkpt lat="14.455584052157679" lon="121.03924132853652"><ele>38.0</ele><time>2026-04-18T06:58:59.001Z</time></trkpt><trkpt lat="14.455600641079691" lon="121.03917143090975"><ele>38.0</ele><time>2026-04-18T06:59:00.001Z</time></trkpt><trkpt lat="14.4556163778519" lon="121.03910256261284"><ele>38.0</ele><time>2026-04-18T06:59:01.001Z</time></trkpt><trkpt lat="14.455645654358955" lon="121.03900637956077"><ele>38.0</ele><time>2026-04-18T06:59:03.001Z</time></trkpt><trkpt lat="14.455666674825867" lon="121.03892346270393"><ele>37.666666666666664</ele><time>2026-04-18T06:59:05.001Z</time></trkpt><trkpt lat="14.455688111929192" lon="121.03885044226176"><ele>37.33333333333333</ele><time>2026-04-18T06:59:08.001Z</time></trkpt><trkpt lat="14.455704903039956" lon="121.03876913284547"><ele>37.0</ele><time>2026-04-18T06:59:12.001Z</time></trkpt><trkpt lat="14.455719891672418" lon="121.03870180214638"><ele>36.666666666666664</ele><time>2026-04-18T06:59:15.001Z</time></trkpt><trkpt lat="14.455730936284645" lon="121.03863135358156"><ele>36.333333333333336</ele><time>2026-04-18T06:59:20.001Z</time></trkpt><trkpt lat="14.455676450615101" lon="121.0386729866642"><ele>36.0</ele><time>2026-04-18T06:59:27.001Z</time></trkpt><trkpt lat="14.455677158538464" lon="121.03852909774783"><ele>36.0</ele><time>2026-04-18T06:59:28.001Z</time></trkpt><trkpt lat="14.455616013765692" lon="121.03876668053144"><ele>36.0</ele><time>2026-04-18T06:59:29.001Z</time></trkpt><trkpt lat="14.455591697827673" lon="121.03883064428344"><ele>36.0</ele><time>2026-04-18T06:59:30.001Z</time></trkpt><trkpt lat="14.455571311586844" lon="121.0389106149617"><ele>36.0</ele><time>2026-04-18T06:59:31.001Z</time></trkpt><trkpt lat="14.455547249341672" lon="121.03899216598406"><ele>36.0</ele><time>2026-04-18T06:59:32.001Z</time></trkpt><trkpt lat="14.455528599674514" lon="121.03907722221871"><ele>36.0</ele><time>2026-04-18T06:59:33.001Z</time></trkpt><trkpt lat="14.455509532746946" lon="121.0391693931549"><ele>36.0</ele><time>2026-04-18T06:59:34.001Z</time></trkpt><trkpt lat="14.455488724742033" lon="121.03926890405413"><ele>36.0</ele><time>2026-04-18T06:59:35.001Z</time></trkpt><trkpt lat="14.455463717762957" lon="121.03937447130393"><ele>36.0</ele><time>2026-04-18T06:59:36.001Z</time></trkpt><trkpt lat="14.455421138456396" lon="121.03948239218222"><ele>38.25</ele><time>2026-04-18T06:59:37.001Z</time></trkpt><trkpt lat="14.455395649545851" lon="121.0395921300472"><ele>40.5</ele><time>2026-04-18T06:59:38.001Z</time></trkpt><trkpt lat="14.455368515718252" lon="121.03970417876204"><ele>42.75</ele><time>2026-04-18T06:59:39.001Z</time></trkpt><trkpt lat="14.455339912816694" lon="121.0398198701465"><ele>45.0</ele><time>2026-04-18T06:59:40.001Z</time></trkpt><trkpt lat="14.455311000742325" lon="121.03993271119832"><ele>43.25</ele><time>2026-04-18T06:59:41.001Z</time></trkpt><trkpt lat="14.45528368660156" lon="121.04004845740538"><ele>41.5</ele><time>2026-04-18T06:59:42.001Z</time></trkpt><trkpt lat="14.455250531997606" lon="121.0401704929984"><ele>39.75</ele><time>2026-04-18T06:59:43.001Z</time></trkpt><trkpt lat="14.45521777448274" lon="121.04028871465438"><ele>38.0</ele><time>2026-04-18T06:59:44.001Z</time></trkpt><trkpt lat="14.455182798450766" lon="121.04041075211107"><ele>38.0</ele><time>2026-04-18T06:59:45.001Z</time></trkpt><trkpt lat="14.455151471165971" lon="121.04053045675239"><ele>38.0</ele><time>2026-04-18T06:59:46.001Z</time></trkpt><trkpt lat="14.45511901312039" lon="121.04066050870014"><ele>38.0</ele><time>2026-04-18T06:59:47.001Z</time></trkpt><trkpt lat="14.455087486103118" lon="121.04078888909079"><ele>38.0</ele><time>2026-04-18T06:59:48.001Z</time></trkpt><trkpt lat="14.45505466604545" lon="121.04091858911544"><ele>38.0</ele><time>2026-04-18T06:59:49.001Z</time></trkpt><trkpt lat="14.455021668998032" lon="121.04104379965119"><ele>38.0</ele><time>2026-04-18T06:59:50.001Z</time></trkpt><trkpt lat="14.454987299844554" lon="121.0411743029908"><ele>38.0</ele><time>2026-04-18T06:59:51.001Z</time></trkpt><trkpt lat="14.454954838498088" lon="121.04130360006432"><ele>38.0</ele><time>2026-04-18T06:59:52.001Z</time></trkpt><trkpt lat="14.454911459377442" lon="121.04142646654736"><ele>38.0</ele><time>2026-04-18T06:59:53.001Z</time></trkpt><trkpt lat="14.454878663269142" lon="121.04155314525327"><ele>38.0</ele><time>2026-04-18T06:59:54.001Z</time></trkpt><trkpt lat="14.454841534410571" lon="121.04167678562264"><ele>38.0</ele><time>2026-04-18T06:59:55.001Z</time></trkpt><trkpt lat="14.454803463150068" lon="121.04179817312699"><ele>38.0</ele><time>2026-04-18T06:59:56.001Z</time></trkpt><trkpt lat="14.454764031948706" lon="121.04192834753233"><ele>38.0</ele><time>2026-04-18T06:59:57.001Z</time></trkpt><trkpt lat="14.454724535800265" lon="121.0420535620961"><ele>38.0</ele><time>2026-04-18T06:59:58.001Z</time></trkpt><trkpt lat="14.45468676430849" lon="121.04217942085191"><ele>38.0</ele><time>2026-04-18T06:59:59.001Z</time></trkpt><trkpt lat="14.454640461973542" lon="121.04230136075418"><ele>38.0</ele><time>2026-04-18T07:00:00.001Z</time></trkpt><trkpt lat="14.454601592798305" lon="121.04243123219729"><ele>38.25</ele><time>2026-04-18T07:00:01.001Z</time></trkpt><trkpt lat="14.454563993033133" lon="121.04256003428098"><ele>38.5</ele><time>2026-04-18T07:00:02.001Z</time></trkpt><trkpt lat="14.45453068689426" lon="121.04268373126456"><ele>38.75</ele><time>2026-04-18T07:00:03.001Z</time></trkpt><trkpt lat="14.454503177466037" lon="121.04280809287556"><ele>39.0</ele><time>2026-04-18T07:00:04.001Z</time></trkpt><trkpt lat="14.454489747714256" lon="121.04293124197774"><ele>39.0</ele><time>2026-04-18T07:00:05.001Z</time></trkpt><trkpt lat="14.454492714241283" lon="121.04304993888788"><ele>39.0</ele><time>2026-04-18T07:00:06.001Z</time></trkpt><trkpt lat="14.454503372060827" lon="121.04316616540989"><ele>39.0</ele><time>2026-04-18T07:00:07.001Z</time></trkpt><trkpt lat="14.45452557997872" lon="121.04326635501836"><ele>39.0</ele><time>2026-04-18T07:00:08.001Z</time></trkpt><trkpt lat="14.454559810235631" lon="121.04336149849341"><ele>39.0</ele><time>2026-04-18T07:00:09.001Z</time></trkpt><trkpt lat="14.454590120555155" lon="121.04344860774901"><ele>38.5</ele><time>2026-04-18T07:00:10.001Z</time></trkpt><trkpt lat="14.454617265046611" lon="121.04352971123517"><ele>38.0</ele><time>2026-04-18T07:00:11.001Z</time></trkpt><trkpt lat="14.454643980185798" lon="121.04360293631304"><ele>37.5</ele><time>2026-04-18T07:00:12.001Z</time></trkpt><trkpt lat="14.454678254354292" lon="121.04371463561806"><ele>37.0</ele><time>2026-04-18T07:00:14.001Z</time></trkpt><trkpt lat="14.454699779676933" lon="121.04379994353555"><ele>36.5</ele><time>2026-04-18T07:00:16.001Z</time></trkpt><trkpt lat="14.454716203067397" lon="121.04386476347779"><ele>36.0</ele><time>2026-04-18T07:00:19.001Z</time></trkpt><trkpt lat="14.454743169550456" lon="121.04394104272922"><ele>36.0</ele><time>2026-04-18T07:00:23.001Z</time></trkpt><trkpt lat="14.454777770814545" lon="121.04401669512433"><ele>36.0</ele><time>2026-04-18T07:00:27.001Z</time></trkpt><trkpt lat="14.454807989462774" lon="121.04408934058971"><ele>36.0</ele><time>2026-04-18T07:00:30.001Z</time></trkpt><trkpt lat="14.45484263326676" lon="121.0442175807626"><ele>36.0</ele><time>2026-04-18T07:00:32.001Z</time></trkpt><trkpt lat="14.454872235740726" lon="121.04428997754103"><ele>36.0</ele><time>2026-04-18T07:00:33.001Z</time></trkpt><trkpt lat="14.454914460468228" lon="121.04437804440846"><ele>35.2</ele><time>2026-04-18T07:00:34.001Z</time></trkpt><trkpt lat="14.454944299842609" lon="121.04445702290826"><ele>34.400000000000006</ele><time>2026-04-18T07:00:35.001Z</time></trkpt><trkpt lat="14.454975380065159" lon="121.04453713283739"><ele>33.6</ele><time>2026-04-18T07:00:36.001Z</time></trkpt><trkpt lat="14.455006625207774" lon="121.04462563642957"><ele>32.800000000000004</ele><time>2026-04-18T07:00:37.001Z</time></trkpt><trkpt lat="14.455042644505465" lon="121.04471976963836"><ele>32.0</ele><time>2026-04-18T07:00:38.001Z</time></trkpt><trkpt lat="14.455079230025172" lon="121.04481369192334"><ele>32.0</ele><time>2026-04-18T07:00:39.001Z</time></trkpt><trkpt lat="14.455118430122484" lon="121.04491231824855"><ele>32.0</ele><time>2026-04-18T07:00:40.001Z</time></trkpt><trkpt lat="14.455154646310902" lon="121.04500984520936"><ele>32.0</ele><time>2026-04-18T07:00:41.001Z</time></trkpt><trkpt lat="14.455195879880533" lon="121.04510978696383"><ele>32.0</ele><time>2026-04-18T07:00:42.001Z</time></trkpt><trkpt lat="14.455248210857025" lon="121.0452067661713"><ele>32.0</ele><time>2026-04-18T07:00:43.001Z</time></trkpt><trkpt lat="14.455306360355651" lon="121.04529671280564"><ele>32.0</ele><time>2026-04-18T07:00:44.001Z</time></trkpt><trkpt lat="14.455375005807866" lon="121.04537397276377"><ele>32.0</ele><time>2026-04-18T07:00:45.001Z</time></trkpt><trkpt lat="14.455451357510993" lon="121.0454312758935"><ele>32.0</ele><time>2026-04-18T07:00:46.001Z</time></trkpt><trkpt lat="14.455530591440043" lon="121.04546806204294"><ele>32.0</ele><time>2026-04-18T07:00:47.001Z</time></trkpt><trkpt lat="14.455614883152311" lon="121.04549607867578"><ele>32.0</ele><time>2026-04-18T07:00:48.001Z</time></trkpt><trkpt lat="14.455695047553183" lon="121.04551230933733"><ele>33.2</ele><time>2026-04-18T07:00:49.001Z</time></trkpt><trkpt lat="14.455798029974957" lon="121.0455410653389"><ele>34.400000000000006</ele><time>2026-04-18T07:00:50.001Z</time></trkpt><trkpt lat="14.455891835979276" lon="121.04552799042057"><ele>35.599999999999994</ele><time>2026-04-18T07:00:51.001Z</time></trkpt><trkpt lat="14.45598681527875" lon="121.04552989100614"><ele>36.8</ele><time>2026-04-18T07:00:52.001Z</time></trkpt><trkpt lat="14.456105608403053" lon="121.04554130335401"><ele>38.0</ele><time>2026-04-18T07:00:53.001Z</time></trkpt><trkpt lat="14.456219558046117" lon="121.04553069482597"><ele>37.6</ele><time>2026-04-18T07:00:54.001Z</time></trkpt><trkpt lat="14.45632818047705" lon="121.0455388645002"><ele>37.199999999999996</ele><time>2026-04-18T07:00:55.001Z</time></trkpt><trkpt lat="14.456444117734177" lon="121.04552544866178"><ele>36.8</ele><time>2026-04-18T07:00:56.001Z</time></trkpt><trkpt lat="14.456546003069732" lon="121.04553515732148"><ele>36.4</ele><time>2026-04-18T07:00:57.001Z</time></trkpt><trkpt lat="14.456663747176728" lon="121.04552010949014"><ele>36.0</ele><time>2026-04-18T07:00:58.001Z</time></trkpt><trkpt lat="14.456762384629933" lon="121.04551530299548"><ele>36.0</ele><time>2026-04-18T07:00:59.001Z</time></trkpt><trkpt lat="14.456883089014019" lon="121.04552466236167"><ele>36.0</ele><time>2026-04-18T07:01:00.001Z</time></trkpt><trkpt lat="14.457007403322573" lon="121.04551235701624"><ele>36.0</ele><time>2026-04-18T07:01:01.001Z</time></trkpt><trkpt lat="14.457118697530232" lon="121.04552089554684"><ele>36.0</ele><time>2026-04-18T07:01:02.001Z</time></trkpt><trkpt lat="14.457244474525387" lon="121.04551097393929"><ele>36.25</ele><time>2026-04-18T07:01:03.001Z</time></trkpt><trkpt lat="14.457356613103304" lon="121.04551815043287"><ele>36.5</ele><time>2026-04-18T07:01:04.001Z</time></trkpt><trkpt lat="14.457483498963937" lon="121.04551143491749"><ele>36.75</ele><time>2026-04-18T07:01:05.001Z</time></trkpt><trkpt lat="14.457595540307691" lon="121.04551960094008"><ele>37.0</ele><time>2026-04-18T07:01:06.001Z</time></trkpt><trkpt lat="14.45772207788877" lon="121.04550473105414"><ele>37.0</ele><time>2026-04-18T07:01:07.001Z</time></trkpt><trkpt lat="14.457846520953787" lon="121.0455082216394"><ele>37.0</ele><time>2026-04-18T07:01:08.001Z</time></trkpt><trkpt lat="14.457975969579309" lon="121.045508695587"><ele>37.0</ele><time>2026-04-18T07:01:09.001Z</time></trkpt><trkpt lat="14.458108264383474" lon="121.04549541930395"><ele>37.0</ele><time>2026-04-18T07:01:10.001Z</time></trkpt><trkpt lat="14.458241603700932" lon="121.04549381821657"><ele>38.0</ele><time>2026-04-18T07:01:11.001Z</time></trkpt><trkpt lat="14.458368266759562" lon="121.04549675000968"><ele>39.0</ele><time>2026-04-18T07:01:12.001Z</time></trkpt><trkpt lat="14.458501334219644" lon="121.04548730410369"><ele>40.0</ele><time>2026-04-18T07:01:13.001Z</time></trkpt><trkpt lat="14.458631553302773" lon="121.04547879587803"><ele>41.0</ele><time>2026-04-18T07:01:14.001Z</time></trkpt><trkpt lat="14.458760295269125" lon="121.04546837948793"><ele>41.25</ele><time>2026-04-18T07:01:15.001Z</time></trkpt><trkpt lat="14.458881369720732" lon="121.045453281656"><ele>41.5</ele><time>2026-04-18T07:01:16.001Z</time></trkpt><trkpt lat="14.459007105261112" lon="121.04544057097486"><ele>41.75</ele><time>2026-04-18T07:01:17.001Z</time></trkpt><trkpt lat="14.45913000956815" lon="121.04543587373735"><ele>42.0</ele><time>2026-04-18T07:01:18.001Z</time></trkpt><trkpt lat="14.45925482562477" lon="121.04543050536861"><ele>42.0</ele><time>2026-04-18T07:01:19.001Z</time></trkpt><trkpt lat="14.45938527261258" lon="121.04538580111598"><ele>42.0</ele><time>2026-04-18T07:01:20.001Z</time></trkpt><trkpt lat="14.459518353092509" lon="121.04538433734601"><ele>42.0</ele><time>2026-04-18T07:01:21.001Z</time></trkpt><trkpt lat="14.459651724493051" lon="121.04538287038648"><ele>42.0</ele><time>2026-04-18T07:01:22.001Z</time></trkpt><trkpt lat="14.459790221379512" lon="121.04538134704414"><ele>42.0</ele><time>2026-04-18T07:01:23.001Z</time></trkpt><trkpt lat="14.459930523128383" lon="121.04538885885175"><ele>42.0</ele><time>2026-04-18T07:01:24.001Z</time></trkpt><trkpt lat="14.460069477917802" lon="121.04538597542894"><ele>42.0</ele><time>2026-04-18T07:01:25.001Z</time></trkpt><trkpt lat="14.460210755088584" lon="121.04538415986721"><ele>42.0</ele><time>2026-04-18T07:01:26.001Z</time></trkpt><trkpt lat="14.460350661883888" lon="121.04538323212448"><ele>41.5</ele><time>2026-04-18T07:01:27.001Z</time></trkpt><trkpt lat="14.46049198407939" lon="121.04538147174428"><ele>41.0</ele><time>2026-04-18T07:01:28.001Z</time></trkpt><trkpt lat="14.460638174330962" lon="121.04537932583793"><ele>40.5</ele><time>2026-04-18T07:01:29.001Z</time></trkpt><trkpt lat="14.4607832982186" lon="121.04537733108486"><ele>40.0</ele><time>2026-04-18T07:01:30.001Z</time></trkpt><trkpt lat="14.460932497081085" lon="121.04537261792524"><ele>40.0</ele><time>2026-04-18T07:01:31.001Z</time></trkpt><trkpt lat="14.461084280150676" lon="121.04536845458547"><ele>40.0</ele><time>2026-04-18T07:01:32.001Z</time></trkpt><trkpt lat="14.461245515825036" lon="121.0453652415959"><ele>40.0</ele><time>2026-04-18T07:01:33.001Z</time></trkpt><trkpt lat="14.461410151269007" lon="121.0453621701633"><ele>39.333333333333336</ele><time>2026-04-18T07:01:34.001Z</time></trkpt><trkpt lat="14.461581633164412" lon="121.04536048563432"><ele>38.666666666666664</ele><time>2026-04-18T07:01:35.001Z</time></trkpt><trkpt lat="14.461756068583812" lon="121.04536286383701"><ele>38.0</ele><time>2026-04-18T07:01:36.001Z</time></trkpt><trkpt lat="14.461938511885675" lon="121.04536385265115"><ele>37.666666666666664</ele><time>2026-04-18T07:01:37.001Z</time></trkpt><trkpt lat="14.462124590037442" lon="121.04536696964438"><ele>37.333333333333336</ele><time>2026-04-18T07:01:38.001Z</time></trkpt><trkpt lat="14.462313094348648" lon="121.04537003172231"><ele>37.0</ele><time>2026-04-18T07:01:39.001Z</time></trkpt><trkpt lat="14.462505433762097" lon="121.04537346604707"><ele>37.0</ele><time>2026-04-18T07:01:40.001Z</time></trkpt><trkpt lat="14.462697972802156" lon="121.04537820604834"><ele>37.0</ele><time>2026-04-18T07:01:41.001Z</time></trkpt><trkpt lat="14.462893837153747" lon="121.04538126139191"><ele>37.0</ele><time>2026-04-18T07:01:42.001Z</time></trkpt><trkpt lat="14.463094276277793" lon="121.04538066665465"><ele>36.66666666666667</ele><time>2026-04-18T07:01:43.001Z</time></trkpt><trkpt lat="14.463294930584793" lon="121.04538001819141"><ele>36.333333333333336</ele><time>2026-04-18T07:01:44.001Z</time></trkpt><trkpt lat="14.463499013210138" lon="121.04537730023173"><ele>36.0</ele><time>2026-04-18T07:01:45.001Z</time></trkpt><trkpt lat="14.46370513541218" lon="121.0453732990442"><ele>36.666666666666664</ele><time>2026-04-18T07:01:46.001Z</time></trkpt><trkpt lat="14.463911473863709" lon="121.04536991314242"><ele>37.33333333333333</ele><time>2026-04-18T07:01:47.001Z</time></trkpt><trkpt lat="14.464117266620127" lon="121.04536901016901"><ele>38.0</ele><time>2026-04-18T07:01:48.001Z</time></trkpt><trkpt lat="14.464324494061001" lon="121.04536734643406"><ele>38.0</ele><time>2026-04-18T07:01:49.001Z</time></trkpt><trkpt lat="14.464532196598467" lon="121.0453654706738"><ele>38.0</ele><time>2026-04-18T07:01:50.001Z</time></trkpt><trkpt lat="14.464741763692883" lon="121.04536429750696"><ele>38.0</ele><time>2026-04-18T07:01:51.001Z</time></trkpt><trkpt lat="14.464952848706394" lon="121.04536216941963"><ele>38.0</ele><time>2026-04-18T07:01:52.001Z</time></trkpt><trkpt lat="14.465165938670744" lon="121.04535958076193"><ele>38.0</ele><time>2026-04-18T07:01:53.001Z</time></trkpt><trkpt lat="14.46537660719175" lon="121.0453584884759"><ele>38.0</ele><time>2026-04-18T07:01:54.001Z</time></trkpt><trkpt lat="14.46559018990111" lon="121.04535509363862"><ele>38.0</ele><time>2026-04-18T07:01:55.001Z</time></trkpt><trkpt lat="14.465803242581874" lon="121.04535346166784"><ele>38.0</ele><time>2026-04-18T07:01:56.001Z</time></trkpt><trkpt lat="14.466015180146432" lon="121.0453506607302"><ele>38.0</ele><time>2026-04-18T07:01:57.001Z</time></trkpt><trkpt lat="14.466227769853768" lon="121.04534881030496"><ele>38.0</ele><time>2026-04-18T07:01:58.001Z</time></trkpt><trkpt lat="14.466442388017516" lon="121.0453469276045"><ele>38.0</ele><time>2026-04-18T07:01:59.001Z</time></trkpt><trkpt lat="14.466658363512927" lon="121.04534381884376"><ele>38.0</ele><time>2026-04-18T07:02:00.001Z</time></trkpt><trkpt lat="14.466874393272635" lon="121.04534119911926"><ele>38.0</ele><time>2026-04-18T07:02:01.001Z</time></trkpt><trkpt lat="14.467089853583767" lon="121.04533898667765"><ele>38.0</ele><time>2026-04-18T07:02:02.001Z</time></trkpt><trkpt lat="14.467302203920067" lon="121.04533753789478"><ele>38.0</ele><time>2026-04-18T07:02:03.001Z</time></trkpt><trkpt lat="14.46751319662393" lon="121.04533584595859"><ele>37.33333333333333</ele><time>2026-04-18T07:02:04.001Z</time></trkpt><trkpt lat="14.467720921665698" lon="121.0453349433339"><ele>36.666666666666664</ele><time>2026-04-18T07:02:05.001Z</time></trkpt><trkpt lat="14.467925386453997" lon="121.04533354112067"><ele>36.0</ele><time>2026-04-18T07:02:06.001Z</time></trkpt><trkpt lat="14.468130319561993" lon="121.04533277497204"><ele>35.0</ele><time>2026-04-18T07:02:07.001Z</time></trkpt><trkpt lat="14.468332972485584" lon="121.04532989562092"><ele>34.0</ele><time>2026-04-18T07:02:08.001Z</time></trkpt><trkpt lat="14.468529929555563" lon="121.04532830129337"><ele>33.0</ele><time>2026-04-18T07:02:09.001Z</time></trkpt><trkpt lat="14.46872455351936" lon="121.04532623383837"><ele>32.666666666666664</ele><time>2026-04-18T07:02:10.001Z</time></trkpt><trkpt lat="14.468912713943128" lon="121.04532657501892"><ele>32.33333333333333</ele><time>2026-04-18T07:02:11.001Z</time></trkpt><trkpt lat="14.469101910188304" lon="121.04532568563049"><ele>32.0</ele><time>2026-04-18T07:02:12.001Z</time></trkpt><trkpt lat="14.469288519963714" lon="121.0453233578332"><ele>32.0</ele><time>2026-04-18T07:02:13.001Z</time></trkpt><trkpt lat="14.469471810036982" lon="121.04532262884429"><ele>32.0</ele><time>2026-04-18T07:02:14.001Z</time></trkpt><trkpt lat="14.469657251480372" lon="121.0453190776747"><ele>32.0</ele><time>2026-04-18T07:02:15.001Z</time></trkpt><trkpt lat="14.469840997282132" lon="121.0453171915924"><ele>31.666666666666664</ele><time>2026-04-18T07:02:16.001Z</time></trkpt><trkpt lat="14.4700228933601" lon="121.04531409747936"><ele>31.333333333333336</ele><time>2026-04-18T07:02:17.001Z</time></trkpt><trkpt lat="14.470205745885076" lon="121.04531151592784"><ele>31.0</ele><time>2026-04-18T07:02:18.001Z</time></trkpt><trkpt lat="14.470389385007316" lon="121.04530974036311"><ele>31.0</ele><time>2026-04-18T07:02:19.001Z</time></trkpt><trkpt lat="14.470573186539717" lon="121.0453045261051"><ele>31.0</ele><time>2026-04-18T07:02:20.001Z</time></trkpt><trkpt lat="14.470756047777163" lon="121.04529779085368"><ele>31.0</ele><time>2026-04-18T07:02:21.001Z</time></trkpt><trkpt lat="14.470939623713777" lon="121.04529171684068"><ele>31.0</ele><time>2026-04-18T07:02:22.001Z</time></trkpt><trkpt lat="14.471124586858359" lon="121.04528841531659"><ele>31.0</ele><time>2026-04-18T07:02:23.001Z</time></trkpt><trkpt lat="14.471308403566315" lon="121.04528499406487"><ele>31.0</ele><time>2026-04-18T07:02:24.001Z</time></trkpt><trkpt lat="14.471492612149495" lon="121.04528086593862"><ele>30.666666666666668</ele><time>2026-04-18T07:02:25.001Z</time></trkpt><trkpt lat="14.471674773482532" lon="121.04527702183599"><ele>30.333333333333336</ele><time>2026-04-18T07:02:26.001Z</time></trkpt><trkpt lat="14.471857983573242" lon="121.04527375165355"><ele>30.0</ele><time>2026-04-18T07:02:27.001Z</time></trkpt><trkpt lat="14.472041295578483" lon="121.04527098350198"><ele>29.666666666666664</ele><time>2026-04-18T07:02:28.001Z</time></trkpt><trkpt lat="14.472221153623998" lon="121.04527011285069"><ele>29.333333333333332</ele><time>2026-04-18T07:02:29.001Z</time></trkpt><trkpt lat="14.472402314404668" lon="121.04526956470532"><ele>29.0</ele><time>2026-04-18T07:02:30.001Z</time></trkpt><trkpt lat="14.472581519361084" lon="121.04527295281856"><ele>29.0</ele><time>2026-04-18T07:02:31.001Z</time></trkpt><trkpt lat="14.472758667195908" lon="121.04527400349755"><ele>29.0</ele><time>2026-04-18T07:02:32.001Z</time></trkpt><trkpt lat="14.472934734935514" lon="121.04527460269686"><ele>29.0</ele><time>2026-04-18T07:02:33.001Z</time></trkpt><trkpt lat="14.473111461389317" lon="121.04527572107314"><ele>30.0</ele><time>2026-04-18T07:02:34.001Z</time></trkpt><trkpt lat="14.473283671992009" lon="121.04527431258037"><ele>31.0</ele><time>2026-04-18T07:02:35.001Z</time></trkpt><trkpt lat="14.473455419216124" lon="121.04527420415349"><ele>32.0</ele><time>2026-04-18T07:02:36.001Z</time></trkpt><trkpt lat="14.473626124330748" lon="121.04527340263635"><ele>33.0</ele><time>2026-04-18T07:02:37.001Z</time></trkpt><trkpt lat="14.473800355376286" lon="121.04527466766856"><ele>34.0</ele><time>2026-04-18T07:02:38.001Z</time></trkpt><trkpt lat="14.473971649173457" lon="121.04527630815063"><ele>35.0</ele><time>2026-04-18T07:02:39.001Z</time></trkpt><trkpt lat="14.47414443196849" lon="121.04527641658434"><ele>35.0</ele><time>2026-04-18T07:02:40.001Z</time></trkpt><trkpt lat="14.474317850609973" lon="121.04527710620017"><ele>35.0</ele><time>2026-04-18T07:02:41.001Z</time></trkpt><trkpt lat="14.47449390889844" lon="121.045276214055"><ele>35.0</ele><time>2026-04-18T07:02:42.001Z</time></trkpt><trkpt lat="14.474672460700791" lon="121.04527590965134"><ele>35.33333333333333</ele><time>2026-04-18T07:02:43.001Z</time></trkpt><trkpt lat="14.474848682238797" lon="121.04527533423955"><ele>35.666666666666664</ele><time>2026-04-18T07:02:44.001Z</time></trkpt><trkpt lat="14.475022314132563" lon="121.04527556733744"><ele>36.0</ele><time>2026-04-18T07:02:45.001Z</time></trkpt><trkpt lat="14.475199388246926" lon="121.04527624573103"><ele>36.0</ele><time>2026-04-18T07:02:46.001Z</time></trkpt><trkpt lat="14.475373929245281" lon="121.04527407611654"><ele>36.0</ele><time>2026-04-18T07:02:47.001Z</time></trkpt><trkpt lat="14.475551875683635" lon="121.04527321901604"><ele>36.0</ele><time>2026-04-18T07:02:48.001Z</time></trkpt><trkpt lat="14.475729486129588" lon="121.04527130818349"><ele>36.0</ele><time>2026-04-18T07:02:49.001Z</time></trkpt><trkpt lat="14.475909231425907" lon="121.04527123811376"><ele>36.0</ele><time>2026-04-18T07:02:50.001Z</time></trkpt><trkpt lat="14.476092952296256" lon="121.04527140382872"><ele>36.0</ele><time>2026-04-18T07:02:51.001Z</time></trkpt><trkpt lat="14.476278428262281" lon="121.04527140619525"><ele>36.0</ele><time>2026-04-18T07:02:52.001Z</time></trkpt><trkpt lat="14.476466113077725" lon="121.04527163720948"><ele>36.0</ele><time>2026-04-18T07:02:53.001Z</time></trkpt><trkpt lat="14.47665381550842" lon="121.0452721524319"><ele>36.0</ele><time>2026-04-18T07:02:54.001Z</time></trkpt><trkpt lat="14.476842799723237" lon="121.04527358504653"><ele>36.0</ele><time>2026-04-18T07:02:55.001Z</time></trkpt><trkpt lat="14.477029120283134" lon="121.04527398313493"><ele>36.0</ele><time>2026-04-18T07:02:56.001Z</time></trkpt><trkpt lat="14.477211745889198" lon="121.04527248072182"><ele>36.0</ele><time>2026-04-18T07:02:57.001Z</time></trkpt><trkpt lat="14.477397909971499" lon="121.04526875480794"><ele>35.666666666666664</ele><time>2026-04-18T07:02:58.001Z</time></trkpt><trkpt lat="14.477582419136109" lon="121.04526637455538"><ele>35.33333333333333</ele><time>2026-04-18T07:02:59.001Z</time></trkpt><trkpt lat="14.477767990275781" lon="121.0452645837103"><ele>35.0</ele><time>2026-04-18T07:03:00.001Z</time></trkpt><trkpt lat="14.477952057146144" lon="121.04526173493987"><ele>35.0</ele><time>2026-04-18T07:03:01.001Z</time></trkpt><trkpt lat="14.478137687019327" lon="121.04525969757702"><ele>35.0</ele><time>2026-04-18T07:03:02.001Z</time></trkpt><trkpt lat="14.478323469108442" lon="121.04525907328171"><ele>35.0</ele><time>2026-04-18T07:03:03.001Z</time></trkpt><trkpt lat="14.478510703373868" lon="121.04525932734198"><ele>35.0</ele><time>2026-04-18T07:03:04.001Z</time></trkpt><trkpt lat="14.478695799823614" lon="121.04525747069448"><ele>35.0</ele><time>2026-04-18T07:03:05.001Z</time></trkpt><trkpt lat="14.478881167518812" lon="121.04525583565267"><ele>35.0</ele><time>2026-04-18T07:03:06.001Z</time></trkpt><trkpt lat="14.479066904821115" lon="121.04525383318165"><ele>35.0</ele><time>2026-04-18T07:03:07.001Z</time></trkpt><trkpt lat="14.479254692582506" lon="121.04525254833646"><ele>35.0</ele><time>2026-04-18T07:03:08.001Z</time></trkpt><trkpt lat="14.479441226894066" lon="121.04525130142063"><ele>35.0</ele><time>2026-04-18T07:03:09.001Z</time></trkpt><trkpt lat="14.479626823024024" lon="121.04525015875059"><ele>34.33333333333333</ele><time>2026-04-18T07:03:10.001Z</time></trkpt><trkpt lat="14.479811850300726" lon="121.04524849086944"><ele>33.666666666666664</ele><time>2026-04-18T07:03:11.001Z</time></trkpt><trkpt lat="14.479995489947205" lon="121.04524741650766"><ele>33.0</ele><time>2026-04-18T07:03:12.001Z</time></trkpt><trkpt lat="14.480174178685662" lon="121.04524595796157"><ele>33.0</ele><time>2026-04-18T07:03:13.001Z</time></trkpt><trkpt lat="14.48035055650151" lon="121.04524564678552"><ele>33.0</ele><time>2026-04-18T07:03:14.001Z</time></trkpt><trkpt lat="14.480523700660061" lon="121.04524471730737"><ele>33.0</ele><time>2026-04-18T07:03:15.001Z</time></trkpt><trkpt lat="14.480692499057458" lon="121.04524357277113"><ele>32.666666666666664</ele><time>2026-04-18T07:03:16.001Z</time></trkpt><trkpt lat="14.480858062187405" lon="121.04524019273707"><ele>32.33333333333333</ele><time>2026-04-18T07:03:17.001Z</time></trkpt><trkpt lat="14.48101844665822" lon="121.04523866604622"><ele>32.0</ele><time>2026-04-18T07:03:18.001Z</time></trkpt><trkpt lat="14.48117863933065" lon="121.04523509783286"><ele>32.33333333333333</ele><time>2026-04-18T07:03:19.001Z</time></trkpt><trkpt lat="14.481335565805896" lon="121.04522974351943"><ele>32.666666666666664</ele><time>2026-04-18T07:03:20.001Z</time></trkpt><trkpt lat="14.481487965187323" lon="121.04522650386238"><ele>33.0</ele><time>2026-04-18T07:03:21.001Z</time></trkpt><trkpt lat="14.481645253080078" lon="121.04522296225058"><ele>33.0</ele><time>2026-04-18T07:03:22.001Z</time></trkpt><trkpt lat="14.481799619721583" lon="121.04522146932915"><ele>33.0</ele><time>2026-04-18T07:03:23.001Z</time></trkpt><trkpt lat="14.481958637496717" lon="121.0452167550915"><ele>33.0</ele><time>2026-04-18T07:03:24.001Z</time></trkpt><trkpt lat="14.482114463546846" lon="121.04521372698623"><ele>33.0</ele><time>2026-04-18T07:03:25.001Z</time></trkpt><trkpt lat="14.482271657433706" lon="121.04521039828164"><ele>33.0</ele><time>2026-04-18T07:03:26.001Z</time></trkpt><trkpt lat="14.482428157515935" lon="121.04520947462902"><ele>33.0</ele><time>2026-04-18T07:03:27.001Z</time></trkpt><trkpt lat="14.482591294519704" lon="121.04521526122426"><ele>33.0</ele><time>2026-04-18T07:03:28.001Z</time></trkpt><trkpt lat="14.482750815646138" lon="121.04521437590867"><ele>33.0</ele><time>2026-04-18T07:03:29.001Z</time></trkpt><trkpt lat="14.482909043315345" lon="121.04521642278772"><ele>33.0</ele><time>2026-04-18T07:03:30.001Z</time></trkpt><trkpt lat="14.483067663935252" lon="121.0452210489314"><ele>32.666666666666664</ele><time>2026-04-18T07:03:31.001Z</time></trkpt><trkpt lat="14.483232055786187" lon="121.04521833469593"><ele>32.33333333333333</ele><time>2026-04-18T07:03:32.001Z</time></trkpt><trkpt lat="14.483405868848648" lon="121.04521852658044"><ele>32.0</ele><time>2026-04-18T07:03:33.001Z</time></trkpt><trkpt lat="14.483570783896052" lon="121.04522156395454"><ele>32.0</ele><time>2026-04-18T07:03:34.001Z</time></trkpt><trkpt lat="14.483734054214704" lon="121.0452225462791"><ele>32.0</ele><time>2026-04-18T07:03:35.001Z</time></trkpt><trkpt lat="14.48389670227254" lon="121.04521874816419"><ele>32.0</ele><time>2026-04-18T07:03:36.001Z</time></trkpt><trkpt lat="14.484056665209142" lon="121.04521500819862"><ele>31.666666666666664</ele><time>2026-04-18T07:03:37.001Z</time></trkpt><trkpt lat="14.484216520823978" lon="121.04520778256001"><ele>31.333333333333336</ele><time>2026-04-18T07:03:38.001Z</time></trkpt><trkpt lat="14.484376686777475" lon="121.0452040302486"><ele>31.0</ele><time>2026-04-18T07:03:39.001Z</time></trkpt><trkpt lat="14.48453289120833" lon="121.04520209897991"><ele>30.666666666666668</ele><time>2026-04-18T07:03:40.001Z</time></trkpt><trkpt lat="14.484688077711805" lon="121.04519817404166"><ele>30.333333333333336</ele><time>2026-04-18T07:03:41.001Z</time></trkpt><trkpt lat="14.484840075073196" lon="121.04519668425606"><ele>30.0</ele><time>2026-04-18T07:03:42.001Z</time></trkpt><trkpt lat="14.484985962236092" lon="121.0451959095603"><ele>30.0</ele><time>2026-04-18T07:03:43.001Z</time></trkpt><trkpt lat="14.485138951218753" lon="121.04518967985561"><ele>30.0</ele><time>2026-04-18T07:03:44.001Z</time></trkpt><trkpt lat="14.485291588056153" lon="121.04518049190052"><ele>30.0</ele><time>2026-04-18T07:03:45.001Z</time></trkpt><trkpt lat="14.485445609254523" lon="121.04516434201943"><ele>31.666666666666664</ele><time>2026-04-18T07:03:46.001Z</time></trkpt><trkpt lat="14.485603511315434" lon="121.0451503547714"><ele>33.33333333333333</ele><time>2026-04-18T07:03:47.001Z</time></trkpt><trkpt lat="14.485761796821752" lon="121.04513808491976"><ele>35.0</ele><time>2026-04-18T07:03:48.001Z</time></trkpt><trkpt lat="14.48592270029036" lon="121.04512186097861"><ele>35.0</ele><time>2026-04-18T07:03:49.001Z</time></trkpt><trkpt lat="14.48607960812829" lon="121.04510698199124"><ele>35.0</ele><time>2026-04-18T07:03:50.001Z</time></trkpt><trkpt lat="14.486239101039915" lon="121.04509215417264"><ele>35.0</ele><time>2026-04-18T07:03:51.001Z</time></trkpt><trkpt lat="14.486394343015284" lon="121.04507026283238"><ele>34.666666666666664</ele><time>2026-04-18T07:03:52.001Z</time></trkpt><trkpt lat="14.486546499431388" lon="121.04504726643212"><ele>34.333333333333336</ele><time>2026-04-18T07:03:53.001Z</time></trkpt><trkpt lat="14.486704774411994" lon="121.04502493394553"><ele>34.0</ele><time>2026-04-18T07:03:54.001Z</time></trkpt><trkpt lat="14.48686396741517" lon="121.04500509553992"><ele>34.0</ele><time>2026-04-18T07:03:55.001Z</time></trkpt><trkpt lat="14.48702471672057" lon="121.04497988047662"><ele>34.0</ele><time>2026-04-18T07:03:56.001Z</time></trkpt><trkpt lat="14.487181732759861" lon="121.04495456946275"><ele>34.0</ele><time>2026-04-18T07:03:57.001Z</time></trkpt><trkpt lat="14.487337222028335" lon="121.04492578490024"><ele>33.333333333333336</ele><time>2026-04-18T07:03:58.001Z</time></trkpt><trkpt lat="14.487492976657364" lon="121.04489105574943"><ele>32.666666666666664</ele><time>2026-04-18T07:03:59.001Z</time></trkpt><trkpt lat="14.487644045456063" lon="121.0448552097537"><ele>32.0</ele><time>2026-04-18T07:04:00.001Z</time></trkpt><trkpt lat="14.487796378716384" lon="121.04481766019539"><ele>33.0</ele><time>2026-04-18T07:04:01.001Z</time></trkpt><trkpt lat="14.487947324929841" lon="121.04477907737773"><ele>34.0</ele><time>2026-04-18T07:04:02.001Z</time></trkpt><trkpt lat="14.488095447976237" lon="121.04473843932753"><ele>35.0</ele><time>2026-04-18T07:04:03.001Z</time></trkpt><trkpt lat="14.488246039499513" lon="121.04469704685236"><ele>35.0</ele><time>2026-04-18T07:04:04.001Z</time></trkpt><trkpt lat="14.488394969364103" lon="121.04465384299345"><ele>35.0</ele><time>2026-04-18T07:04:05.001Z</time></trkpt><trkpt lat="14.488544755329405" lon="121.04460792936536"><ele>35.0</ele><time>2026-04-18T07:04:06.001Z</time></trkpt><trkpt lat="14.488692623275787" lon="121.04456014308106"><ele>33.0</ele><time>2026-04-18T07:04:07.001Z</time></trkpt><trkpt lat="14.48884173039713" lon="121.04450872179008"><ele>31.0</ele><time>2026-04-18T07:04:08.001Z</time></trkpt><trkpt lat="14.488989216293788" lon="121.04445606640957"><ele>29.0</ele><time>2026-04-18T07:04:09.001Z</time></trkpt><trkpt lat="14.489141212080439" lon="121.04440105156259"><ele>29.0</ele><time>2026-04-18T07:04:10.001Z</time></trkpt><trkpt lat="14.489295471481043" lon="121.04434427691034"><ele>29.0</ele><time>2026-04-18T07:04:11.001Z</time></trkpt><trkpt lat="14.489453282951603" lon="121.0442886384582"><ele>29.0</ele><time>2026-04-18T07:04:12.001Z</time></trkpt><trkpt lat="14.489613695944891" lon="121.04422688707753"><ele>30.666666666666664</ele><time>2026-04-18T07:04:13.001Z</time></trkpt><trkpt lat="14.489777134912346" lon="121.04416093881699"><ele>32.333333333333336</ele><time>2026-04-18T07:04:14.001Z</time></trkpt><trkpt lat="14.489940494826566" lon="121.04409743791754"><ele>34.0</ele><time>2026-04-18T07:04:15.001Z</time></trkpt><trkpt lat="14.490107035818722" lon="121.0440301119754"><ele>34.0</ele><time>2026-04-18T07:04:16.001Z</time></trkpt><trkpt lat="14.490271336885701" lon="121.04396148390171"><ele>34.0</ele><time>2026-04-18T07:04:17.001Z</time></trkpt><trkpt lat="14.490433507186633" lon="121.04389043408507"><ele>34.0</ele><time>2026-04-18T07:04:18.001Z</time></trkpt><trkpt lat="14.49060161610567" lon="121.04380581097917"><ele>34.66666666666667</ele><time>2026-04-18T07:04:19.001Z</time></trkpt><trkpt lat="14.490762933790874" lon="121.04372396887773"><ele>35.333333333333336</ele><time>2026-04-18T07:04:20.001Z</time></trkpt><trkpt lat="14.490921363320059" lon="121.0436480713627"><ele>36.0</ele><time>2026-04-18T07:04:21.001Z</time></trkpt><trkpt lat="14.491081634338425" lon="121.04356663877243"><ele>36.0</ele><time>2026-04-18T07:04:22.001Z</time></trkpt><trkpt lat="14.491243994021756" lon="121.04347885249338"><ele>36.0</ele><time>2026-04-18T07:04:23.001Z</time></trkpt><trkpt lat="14.491409812165358" lon="121.0433864998616"><ele>36.0</ele><time>2026-04-18T07:04:24Z</time></trkpt><trkpt lat="14.491578744094227" lon="121.04329448948685"><ele>36.333333333333336</ele><time>2026-04-18T07:04:25Z</time></trkpt><trkpt lat="14.49175179913698" lon="121.04320293811197"><ele>36.66666666666667</ele><time>2026-04-18T07:04:26Z</time></trkpt><trkpt lat="14.491927506699625" lon="121.0431051288741"><ele>37.0</ele><time>2026-04-18T07:04:27Z</time></trkpt><trkpt lat="14.492101641416863" lon="121.04301172659127"><ele>37.0</ele><time>2026-04-18T07:04:28Z</time></trkpt><trkpt lat="14.49227487473335" lon="121.04291931452744"><ele>37.0</ele><time>2026-04-18T07:04:29Z</time></trkpt><trkpt lat="14.492452806436445" lon="121.04282112584931"><ele>37.0</ele><time>2026-04-18T07:04:30Z</time></trkpt><trkpt lat="14.49262885995622" lon="121.04272583386178"><ele>37.0</ele><time>2026-04-18T07:04:31Z</time></trkpt><trkpt lat="14.492805629083913" lon="121.04263163621894"><ele>37.0</ele><time>2026-04-18T07:04:32Z</time></trkpt><trkpt lat="14.492983524060504" lon="121.04253183784358"><ele>37.0</ele><time>2026-04-18T07:04:33Z</time></trkpt><trkpt lat="14.493154224261033" lon="121.0424336478405"><ele>34.0</ele><time>2026-04-18T07:04:34Z</time></trkpt><trkpt lat="14.493316915027151" lon="121.04233535348118"><ele>31.0</ele><time>2026-04-18T07:04:35Z</time></trkpt><trkpt lat="14.493472566549931" lon="121.04224138188731"><ele>28.0</ele><time>2026-04-18T07:04:36Z</time></trkpt><trkpt lat="14.493621123941866" lon="121.04215528759153"><ele>27.666666666666668</ele><time>2026-04-18T07:04:37Z</time></trkpt><trkpt lat="14.493769725487214" lon="121.04206895603745"><ele>27.333333333333336</ele><time>2026-04-18T07:04:38Z</time></trkpt><trkpt lat="14.493910890420546" lon="121.04199013139109"><ele>27.0</ele><time>2026-04-18T07:04:39Z</time></trkpt><trkpt lat="14.494059500835002" lon="121.04190855209046"><ele>27.0</ele><time>2026-04-18T07:04:40Z</time></trkpt><trkpt lat="14.494201254534635" lon="121.04182634616475"><ele>27.0</ele><time>2026-04-18T07:04:41Z</time></trkpt><trkpt lat="14.494346347725408" lon="121.04175582839679"><ele>27.0</ele><time>2026-04-18T07:04:42Z</time></trkpt><trkpt lat="14.494468747696757" lon="121.04168081415631"><ele>26.75</ele><time>2026-04-18T07:04:43Z</time></trkpt><trkpt lat="14.49459435085863" lon="121.04160871651011"><ele>26.5</ele><time>2026-04-18T07:04:44Z</time></trkpt><trkpt lat="14.494714453909944" lon="121.04153463437073"><ele>26.25</ele><time>2026-04-18T07:04:45Z</time></trkpt><trkpt lat="14.494837129997325" lon="121.0414691640596"><ele>26.0</ele><time>2026-04-18T07:04:46Z</time></trkpt><trkpt lat="14.494962668467869" lon="121.04139754531992"><ele>26.0</ele><time>2026-04-18T07:04:47Z</time></trkpt><trkpt lat="14.495091226683341" lon="121.04132380863693"><ele>26.0</ele><time>2026-04-18T07:04:48Z</time></trkpt><trkpt lat="14.495218717882999" lon="121.04125757069032"><ele>26.0</ele><time>2026-04-18T07:04:49Z</time></trkpt><trkpt lat="14.495347266765032" lon="121.04118831416223"><ele>26.0</ele><time>2026-04-18T07:04:50Z</time></trkpt><trkpt lat="14.495480306069863" lon="121.0411134525809"><ele>27.0</ele><time>2026-04-18T07:04:51Z</time></trkpt><trkpt lat="14.495616493882606" lon="121.041036384461"><ele>28.0</ele><time>2026-04-18T07:04:52Z</time></trkpt><trkpt lat="14.495758104542555" lon="121.04096170832575"><ele>29.0</ele><time>2026-04-18T07:04:53Z</time></trkpt><trkpt lat="14.495899861486311" lon="121.04088892044925"><ele>29.0</ele><time>2026-04-18T07:04:54Z</time></trkpt><trkpt lat="14.496040536580443" lon="121.0408169147389"><ele>29.0</ele><time>2026-04-18T07:04:55Z</time></trkpt><trkpt lat="14.496185876882999" lon="121.04073822619335"><ele>29.0</ele><time>2026-04-18T07:04:56Z</time></trkpt><trkpt lat="14.49633697487092" lon="121.04065627661524"><ele>28.333333333333332</ele><time>2026-04-18T07:04:57Z</time></trkpt><trkpt lat="14.496487588644609" lon="121.04057595570458"><ele>27.666666666666664</ele><time>2026-04-18T07:04:58Z</time></trkpt><trkpt lat="14.496639950598443" lon="121.04049359991696"><ele>27.0</ele><time>2026-04-18T07:04:59Z</time></trkpt><trkpt lat="14.496791929362196" lon="121.04041260422656"><ele>27.0</ele><time>2026-04-18T07:05:00Z</time></trkpt><trkpt lat="14.496944160630756" lon="121.04033066185929"><ele>27.0</ele><time>2026-04-18T07:05:01Z</time></trkpt><trkpt lat="14.49709612401898" lon="121.0402474629709"><ele>27.0</ele><time>2026-04-18T07:05:02Z</time></trkpt><trkpt lat="14.497251826447695" lon="121.04016312599771"><ele>28.666666666666664</ele><time>2026-04-18T07:05:03Z</time></trkpt><trkpt lat="14.497406649448912" lon="121.0400806801513"><ele>30.333333333333332</ele><time>2026-04-18T07:05:04Z</time></trkpt><trkpt lat="14.497567753806312" lon="121.0399942971328"><ele>32.0</ele><time>2026-04-18T07:05:05Z</time></trkpt><trkpt lat="14.49772563452764" lon="121.03991223720908"><ele>32.0</ele><time>2026-04-18T07:05:06Z</time></trkpt><trkpt lat="14.497888172604577" lon="121.03982719120762"><ele>32.0</ele><time>2026-04-18T07:05:07Z</time></trkpt><trkpt lat="14.498049645826892" lon="121.03974195085893"><ele>32.0</ele><time>2026-04-18T07:05:08Z</time></trkpt><trkpt lat="14.498216737088152" lon="121.03965444529838"><ele>31.666666666666664</ele><time>2026-04-18T07:05:09Z</time></trkpt><trkpt lat="14.498382093119341" lon="121.03956895184814"><ele>31.333333333333336</ele><time>2026-04-18T07:05:10Z</time></trkpt><trkpt lat="14.49855014083088" lon="121.03947889820044"><ele>31.0</ele><time>2026-04-18T07:05:11Z</time></trkpt><trkpt lat="14.498718819088046" lon="121.03939020637053"><ele>30.0</ele><time>2026-04-18T07:05:12Z</time></trkpt><trkpt lat="14.498891874333511" lon="121.03929415165736"><ele>29.0</ele><time>2026-04-18T07:05:13Z</time></trkpt><trkpt lat="14.499062912958863" lon="121.0392002933882"><ele>28.0</ele><time>2026-04-18T07:05:14Z</time></trkpt><trkpt lat="14.499236365944116" lon="121.03910187425208"><ele>27.333333333333336</ele><time>2026-04-18T07:05:15Z</time></trkpt><trkpt lat="14.49940438224829" lon="121.03900698484483"><ele>26.666666666666664</ele><time>2026-04-18T07:05:16Z</time></trkpt><trkpt lat="14.499573985482686" lon="121.03891648602264"><ele>26.0</ele><time>2026-04-18T07:05:17Z</time></trkpt><trkpt lat="14.499743531848441" lon="121.03882070284968"><ele>26.0</ele><time>2026-04-18T07:05:18Z</time></trkpt><trkpt lat="14.499908493162522" lon="121.03872929837205"><ele>26.0</ele><time>2026-04-18T07:05:19Z</time></trkpt><trkpt lat="14.500076533239717" lon="121.03863677986605"><ele>26.0</ele><time>2026-04-18T07:05:20Z</time></trkpt><trkpt lat="14.500234718812115" lon="121.0385525327454"><ele>26.0</ele><time>2026-04-18T07:05:21Z</time></trkpt><trkpt lat="14.500396706396922" lon="121.03846261622219"><ele>26.0</ele><time>2026-04-18T07:05:22Z</time></trkpt><trkpt lat="14.500560081373113" lon="121.03836812114409"><ele>26.0</ele><time>2026-04-18T07:05:23Z</time></trkpt><trkpt lat="14.500718144165035" lon="121.03827825628414"><ele>25.333333333333332</ele><time>2026-04-18T07:05:24Z</time></trkpt><trkpt lat="14.500874138146006" lon="121.03818924822681"><ele>24.666666666666664</ele><time>2026-04-18T07:05:25Z</time></trkpt><trkpt lat="14.501033989739536" lon="121.03809639990853"><ele>24.0</ele><time>2026-04-18T07:05:26Z</time></trkpt><trkpt lat="14.50118572280106" lon="121.03801079893726"><ele>24.333333333333336</ele><time>2026-04-18T07:05:27Z</time></trkpt><trkpt lat="14.50131982655293" lon="121.03794875384963"><ele>24.666666666666668</ele><time>2026-04-18T07:05:28Z</time></trkpt><trkpt lat="14.50147004310565" lon="121.03786731363932"><ele>25.0</ele><time>2026-04-18T07:05:29Z</time></trkpt><trkpt lat="14.501616872546853" lon="121.03778852684869"><ele>25.0</ele><time>2026-04-18T07:05:30Z</time></trkpt><trkpt lat="14.501765135565137" lon="121.03771063242391"><ele>25.0</ele><time>2026-04-18T07:05:31.001Z</time></trkpt><trkpt lat="14.50191415056935" lon="121.03763049138587"><ele>25.0</ele><time>2026-04-18T07:05:32.001Z</time></trkpt><trkpt lat="14.50206236840928" lon="121.03755229542185"><ele>24.666666666666668</ele><time>2026-04-18T07:05:33.001Z</time></trkpt><trkpt lat="14.502210267226422" lon="121.03747379252572"><ele>24.333333333333336</ele><time>2026-04-18T07:05:34.001Z</time></trkpt><trkpt lat="14.502355293120912" lon="121.03739713112196"><ele>24.0</ele><time>2026-04-18T07:05:35.001Z</time></trkpt><trkpt lat="14.502498159076058" lon="121.03732060679941"><ele>23.666666666666668</ele><time>2026-04-18T07:05:36.001Z</time></trkpt><trkpt lat="14.502644472402464" lon="121.03724088948874"><ele>23.333333333333336</ele><time>2026-04-18T07:05:37.001Z</time></trkpt><trkpt lat="14.502786951195658" lon="121.0371642212193"><ele>23.0</ele><time>2026-04-18T07:05:38.001Z</time></trkpt><trkpt lat="14.502928147585118" lon="121.03708808965743"><ele>23.0</ele><time>2026-04-18T07:05:39.001Z</time></trkpt><trkpt lat="14.503074514510603" lon="121.03701037132178"><ele>23.0</ele><time>2026-04-18T07:05:40.001Z</time></trkpt><trkpt lat="14.503219131960957" lon="121.0369346539827"><ele>23.0</ele><time>2026-04-18T07:05:41.001Z</time></trkpt><trkpt lat="14.50336521032337" lon="121.03685534971716"><ele>23.0</ele><time>2026-04-18T07:05:42.001Z</time></trkpt><trkpt lat="14.503513682949691" lon="121.03677519176883"><ele>23.0</ele><time>2026-04-18T07:05:43.001Z</time></trkpt><trkpt lat="14.503663061513688" lon="121.03669452759684"><ele>23.0</ele><time>2026-04-18T07:05:44.001Z</time></trkpt><trkpt lat="14.503814686601851" lon="121.03661351347334"><ele>22.333333333333336</ele><time>2026-04-18T07:05:45.001Z</time></trkpt><trkpt lat="14.503968582546097" lon="121.03653275587307"><ele>21.666666666666668</ele><time>2026-04-18T07:05:46.001Z</time></trkpt><trkpt lat="14.50412100627967" lon="121.03645207530006"><ele>21.0</ele><time>2026-04-18T07:05:47.001Z</time></trkpt><trkpt lat="14.50427568544043" lon="121.03636896058697"><ele>21.0</ele><time>2026-04-18T07:05:48.001Z</time></trkpt><trkpt lat="14.504429598614255" lon="121.03628627931587"><ele>21.0</ele><time>2026-04-18T07:05:49.001Z</time></trkpt><trkpt lat="14.50458695428839" lon="121.03620222573673"><ele>21.0</ele><time>2026-04-18T07:05:50.001Z</time></trkpt><trkpt lat="14.504745286133998" lon="121.03611766204257"><ele>20.333333333333332</ele><time>2026-04-18T07:05:51.001Z</time></trkpt><trkpt lat="14.5049051988654" lon="121.03603336160732"><ele>19.666666666666664</ele><time>2026-04-18T07:05:52.001Z</time></trkpt><trkpt lat="14.50506615311918" lon="121.03595016419705"><ele>19.0</ele><time>2026-04-18T07:05:53.001Z</time></trkpt><trkpt lat="14.505228700582242" lon="121.03586835682981"><ele>17.666666666666664</ele><time>2026-04-18T07:05:54.001Z</time></trkpt><trkpt lat="14.505397365781" lon="121.0357839459655"><ele>16.333333333333332</ele><time>2026-04-18T07:05:55.001Z</time></trkpt><trkpt lat="14.505564356154641" lon="121.03569891613103"><ele>15.0</ele><time>2026-04-18T07:05:56.001Z</time></trkpt><trkpt lat="14.5057330190503" lon="121.03561806349695"><ele>15.0</ele><time>2026-04-18T07:05:57.001Z</time></trkpt><trkpt lat="14.505903240902244" lon="121.03554000276185"><ele>15.0</ele><time>2026-04-18T07:05:58.001Z</time></trkpt><trkpt lat="14.506075832763795" lon="121.03546748895577"><ele>15.0</ele><time>2026-04-18T07:05:59.001Z</time></trkpt><trkpt lat="14.50624962929308" lon="121.03539804912087"><ele>16.333333333333332</ele><time>2026-04-18T07:06:00.001Z</time></trkpt><trkpt lat="14.506423502873742" lon="121.03533052633047"><ele>17.666666666666664</ele><time>2026-04-18T07:06:01.001Z</time></trkpt><trkpt lat="14.506596540073126" lon="121.03526531965352"><ele>19.0</ele><time>2026-04-18T07:06:02.001Z</time></trkpt><trkpt lat="14.506769847921994" lon="121.03520296179835"><ele>19.0</ele><time>2026-04-18T07:06:03.001Z</time></trkpt><trkpt lat="14.506945204424479" lon="121.03514328336833"><ele>19.0</ele><time>2026-04-18T07:06:04.001Z</time></trkpt><trkpt lat="14.507121904513827" lon="121.03508622298901"><ele>19.0</ele><time>2026-04-18T07:06:05.001Z</time></trkpt><trkpt lat="14.507300974520076" lon="121.03503307944403"><ele>18.666666666666664</ele><time>2026-04-18T07:06:06.001Z</time></trkpt><trkpt lat="14.507481179255718" lon="121.0349781541528"><ele>18.333333333333332</ele><time>2026-04-18T07:06:07.001Z</time></trkpt><trkpt lat="14.50766174386951" lon="121.03492573800396"><ele>18.0</ele><time>2026-04-18T07:06:08.001Z</time></trkpt><trkpt lat="14.507843529716077" lon="121.03487338981198"><ele>18.333333333333332</ele><time>2026-04-18T07:06:09.001Z</time></trkpt><trkpt lat="14.508023550542806" lon="121.03481921329686"><ele>18.666666666666664</ele><time>2026-04-18T07:06:10.001Z</time></trkpt><trkpt lat="14.508199017112524" lon="121.03476135586547"><ele>19.0</ele><time>2026-04-18T07:06:11.001Z</time></trkpt><trkpt lat="14.508373256004695" lon="121.03470193142209"><ele>19.0</ele><time>2026-04-18T07:06:12.001Z</time></trkpt><trkpt lat="14.508548692242464" lon="121.03464204101411"><ele>19.0</ele><time>2026-04-18T07:06:13.001Z</time></trkpt><trkpt lat="14.508721593234709" lon="121.03457816244799"><ele>19.0</ele><time>2026-04-18T07:06:14.001Z</time></trkpt><trkpt lat="14.508891070747087" lon="121.03451232837182"><ele>21.0</ele><time>2026-04-18T07:06:15.001Z</time></trkpt><trkpt lat="14.509056315445921" lon="121.0344439281597"><ele>23.0</ele><time>2026-04-18T07:06:16.001Z</time></trkpt><trkpt lat="14.509221984974854" lon="121.03437376985862"><ele>25.0</ele><time>2026-04-18T07:06:17.001Z</time></trkpt><trkpt lat="14.509389297047763" lon="121.03430015415167"><ele>25.0</ele><time>2026-04-18T07:06:18.001Z</time></trkpt><trkpt lat="14.509555157674939" lon="121.03422288896728"><ele>25.0</ele><time>2026-04-18T07:06:19.001Z</time></trkpt><trkpt lat="14.50973155740268" lon="121.0341454140067"><ele>25.0</ele><time>2026-04-18T07:06:20.001Z</time></trkpt><trkpt lat="14.509902532710345" lon="121.03406406652427"><ele>24.333333333333336</ele><time>2026-04-18T07:06:21.001Z</time></trkpt><trkpt lat="14.510072049135365" lon="121.03398075107427"><ele>23.666666666666668</ele><time>2026-04-18T07:06:22.001Z</time></trkpt><trkpt lat="14.510243497591548" lon="121.03389638556762"><ele>23.0</ele><time>2026-04-18T07:06:23.001Z</time></trkpt><trkpt lat="14.51041142525512" lon="121.03380872593516"><ele>24.333333333333336</ele><time>2026-04-18T07:06:24.001Z</time></trkpt><trkpt lat="14.51058222981196" lon="121.0337117430033"><ele>25.666666666666668</ele><time>2026-04-18T07:06:25.001Z</time></trkpt><trkpt lat="14.51075037440595" lon="121.03362096085195"><ele>27.0</ele><time>2026-04-18T07:06:26.001Z</time></trkpt><trkpt lat="14.510917940405315" lon="121.03352729923272"><ele>27.0</ele><time>2026-04-18T07:06:27.001Z</time></trkpt><trkpt lat="14.511084013937982" lon="121.03343662206365"><ele>27.0</ele><time>2026-04-18T07:06:28.001Z</time></trkpt><trkpt lat="14.511249401773036" lon="121.03334907078876"><ele>27.0</ele><time>2026-04-18T07:06:29.001Z</time></trkpt><trkpt lat="14.511418118998417" lon="121.03326138810031"><ele>27.0</ele><time>2026-04-18T07:06:30Z</time></trkpt><trkpt lat="14.511585804583266" lon="121.03317616067805"><ele>27.0</ele><time>2026-04-18T07:06:31Z</time></trkpt><trkpt lat="14.511750503551978" lon="121.03308750898029"><ele>27.0</ele><time>2026-04-18T07:06:32Z</time></trkpt><trkpt lat="14.51191647168127" lon="121.03299847223975"><ele>27.0</ele><time>2026-04-18T07:06:33Z</time></trkpt><trkpt lat="14.512081701743544" lon="121.03290939278085"><ele>27.0</ele><time>2026-04-18T07:06:34Z</time></trkpt><trkpt lat="14.512240896463" lon="121.0328226329821"><ele>27.0</ele><time>2026-04-18T07:06:35Z</time></trkpt><trkpt lat="14.512405278525792" lon="121.03273400107493"><ele>27.0</ele><time>2026-04-18T07:06:36Z</time></trkpt><trkpt lat="14.512571492969457" lon="121.03264703140654"><ele>27.0</ele><time>2026-04-18T07:06:37Z</time></trkpt><trkpt lat="14.512739410846397" lon="121.0325643329178"><ele>27.0</ele><time>2026-04-18T07:06:38Z</time></trkpt><trkpt lat="14.51291966356333" lon="121.03248694848487"><ele>26.0</ele><time>2026-04-18T07:06:39Z</time></trkpt><trkpt lat="14.51309647932059" lon="121.03239274016744"><ele>25.0</ele><time>2026-04-18T07:06:40Z</time></trkpt><trkpt lat="14.513262429691896" lon="121.03229955465488"><ele>24.0</ele><time>2026-04-18T07:06:41Z</time></trkpt><trkpt lat="14.513419600944328" lon="121.03221207638063"><ele>24.0</ele><time>2026-04-18T07:06:42Z</time></trkpt><trkpt lat="14.513580339086113" lon="121.03212067114364"><ele>24.0</ele><time>2026-04-18T07:06:43Z</time></trkpt><trkpt lat="14.513742682401935" lon="121.03203140445592"><ele>24.0</ele><time>2026-04-18T07:06:44Z</time></trkpt><trkpt lat="14.513893448252887" lon="121.03194098888567"><ele>24.0</ele><time>2026-04-18T07:06:45Z</time></trkpt><trkpt lat="14.514019987712574" lon="121.03181063014176"><ele>24.0</ele><time>2026-04-18T07:06:46Z</time></trkpt><trkpt lat="14.514168056524147" lon="121.03171566931951"><ele>24.0</ele><time>2026-04-18T07:06:47Z</time></trkpt><trkpt lat="14.514311815104294" lon="121.03162825526093"><ele>24.0</ele><time>2026-04-18T07:06:48Z</time></trkpt><trkpt lat="14.514464660419742" lon="121.03154099668237"><ele>24.0</ele><time>2026-04-18T07:06:49Z</time></trkpt><trkpt lat="14.514624771048487" lon="121.03145634609037"><ele>24.0</ele><time>2026-04-18T07:06:50Z</time></trkpt><trkpt lat="14.51478442355804" lon="121.03137193776598"><ele>24.0</ele><time>2026-04-18T07:06:51Z</time></trkpt><trkpt lat="14.514943893460531" lon="121.03128762589769"><ele>24.0</ele><time>2026-04-18T07:06:52Z</time></trkpt><trkpt lat="14.515101966985501" lon="121.03120405233842"><ele>24.0</ele><time>2026-04-18T07:06:53Z</time></trkpt><trkpt lat="14.515263124663909" lon="121.0311360108088"><ele>23.0</ele><time>2026-04-18T07:06:54Z</time></trkpt><trkpt lat="14.515422699546338" lon="121.03105378331624"><ele>22.0</ele><time>2026-04-18T07:06:55Z</time></trkpt><trkpt lat="14.51558343130707" lon="121.03096506417924"><ele>21.0</ele><time>2026-04-18T07:06:56Z</time></trkpt><trkpt lat="14.515744450071521" lon="121.03087657191769"><ele>21.0</ele><time>2026-04-18T07:06:57Z</time></trkpt><trkpt lat="14.515903119901846" lon="121.03078822436584"><ele>21.0</ele><time>2026-04-18T07:06:58Z</time></trkpt><trkpt lat="14.516056443757511" lon="121.03070054934179"><ele>21.0</ele><time>2026-04-18T07:06:59Z</time></trkpt><trkpt lat="14.516204498557583" lon="121.03061512740128"><ele>21.666666666666668</ele><time>2026-04-18T07:07:00Z</time></trkpt><trkpt lat="14.516359916776866" lon="121.0305282259966"><ele>22.333333333333336</ele><time>2026-04-18T07:07:01Z</time></trkpt><trkpt lat="14.516517046492414" lon="121.03044198935872"><ele>23.0</ele><time>2026-04-18T07:07:02Z</time></trkpt><trkpt lat="14.516669047686369" lon="121.0303550114557"><ele>23.0</ele><time>2026-04-18T07:07:03Z</time></trkpt><trkpt lat="14.516829597504259" lon="121.03025700680811"><ele>23.0</ele><time>2026-04-18T07:07:04Z</time></trkpt><trkpt lat="14.516979083028177" lon="121.03016917279476"><ele>23.0</ele><time>2026-04-18T07:07:05Z</time></trkpt><trkpt lat="14.517129237382353" lon="121.03006905691562"><ele>22.333333333333336</ele><time>2026-04-18T07:07:06Z</time></trkpt><trkpt lat="14.517272756754666" lon="121.02998697468149"><ele>21.666666666666668</ele><time>2026-04-18T07:07:07Z</time></trkpt><trkpt lat="14.517423292229639" lon="121.02990963915221"><ele>21.0</ele><time>2026-04-18T07:07:08Z</time></trkpt><trkpt lat="14.517570653136852" lon="121.02983423223543"><ele>21.0</ele><time>2026-04-18T07:07:09Z</time></trkpt><trkpt lat="14.517719493243513" lon="121.02975677218915"><ele>21.0</ele><time>2026-04-18T07:07:10Z</time></trkpt><trkpt lat="14.517862608915204" lon="121.029686731937"><ele>21.0</ele><time>2026-04-18T07:07:11Z</time></trkpt><trkpt lat="14.51800321079908" lon="121.02960776670749"><ele>20.333333333333332</ele><time>2026-04-18T07:07:12Z</time></trkpt><trkpt lat="14.51814980816455" lon="121.02952847508499"><ele>19.666666666666664</ele><time>2026-04-18T07:07:13Z</time></trkpt><trkpt lat="14.518299433290371" lon="121.0294407389247"><ele>19.0</ele><time>2026-04-18T07:07:14Z</time></trkpt><trkpt lat="14.518441080698617" lon="121.02937456957368"><ele>19.0</ele><time>2026-04-18T07:07:15Z</time></trkpt><trkpt lat="14.518593978171106" lon="121.02929056677286"><ele>19.0</ele><time>2026-04-18T07:07:16Z</time></trkpt><trkpt lat="14.518743398936497" lon="121.02920338730313"><ele>19.0</ele><time>2026-04-18T07:07:17Z</time></trkpt><trkpt lat="14.518886733802937" lon="121.02912229143887"><ele>19.0</ele><time>2026-04-18T07:07:18Z</time></trkpt><trkpt lat="14.5190328890259" lon="121.02904178702282"><ele>19.0</ele><time>2026-04-18T07:07:19Z</time></trkpt><trkpt lat="14.519178065120764" lon="121.02896164276633"><ele>19.0</ele><time>2026-04-18T07:07:20Z</time></trkpt><trkpt lat="14.519318181294512" lon="121.02888291861098"><ele>19.0</ele><time>2026-04-18T07:07:21Z</time></trkpt><trkpt lat="14.519455189212112" lon="121.02881527709542"><ele>19.0</ele><time>2026-04-18T07:07:22Z</time></trkpt><trkpt lat="14.519585855170153" lon="121.02873970062203"><ele>19.0</ele><time>2026-04-18T07:07:23Z</time></trkpt><trkpt lat="14.519717062636197" lon="121.02866303263822"><ele>18.75</ele><time>2026-04-18T07:07:24Z</time></trkpt><trkpt lat="14.519844002106765" lon="121.02858985497022"><ele>18.5</ele><time>2026-04-18T07:07:25Z</time></trkpt><trkpt lat="14.51996943268564" lon="121.02851975539866"><ele>18.25</ele><time>2026-04-18T07:07:26Z</time></trkpt><trkpt lat="14.520090917739731" lon="121.02845322829866"><ele>18.0</ele><time>2026-04-18T07:07:27Z</time></trkpt><trkpt lat="14.520212463829495" lon="121.02838663783128"><ele>18.0</ele><time>2026-04-18T07:07:28Z</time></trkpt><trkpt lat="14.52033038166573" lon="121.02831688135174"><ele>18.0</ele><time>2026-04-18T07:07:29Z</time></trkpt><trkpt lat="14.520449127315363" lon="121.02824313518131"><ele>18.0</ele><time>2026-04-18T07:07:30Z</time></trkpt><trkpt lat="14.520569242025894" lon="121.02817355158908"><ele>18.0</ele><time>2026-04-18T07:07:31Z</time></trkpt><trkpt lat="14.520690808759179" lon="121.02810771680092"><ele>17.5</ele><time>2026-04-18T07:07:32Z</time></trkpt><trkpt lat="14.520813685512287" lon="121.02804320294634"><ele>17.0</ele><time>2026-04-18T07:07:33Z</time></trkpt><trkpt lat="14.520933269064496" lon="121.02797585007823"><ele>16.5</ele><time>2026-04-18T07:07:34Z</time></trkpt><trkpt lat="14.521055234826473" lon="121.02790954931312"><ele>16.0</ele><time>2026-04-18T07:07:35Z</time></trkpt><trkpt lat="14.521176015143206" lon="121.02784392939795"><ele>16.25</ele><time>2026-04-18T07:07:36Z</time></trkpt><trkpt lat="14.521298762516734" lon="121.02777701151416"><ele>16.5</ele><time>2026-04-18T07:07:37Z</time></trkpt><trkpt lat="14.521422771900882" lon="121.02770934724067"><ele>16.75</ele><time>2026-04-18T07:07:38Z</time></trkpt><trkpt lat="14.521549884632684" lon="121.02764162929248"><ele>17.0</ele><time>2026-04-18T07:07:39Z</time></trkpt><trkpt lat="14.521676832594258" lon="121.02757416976023"><ele>17.0</ele><time>2026-04-18T07:07:40Z</time></trkpt><trkpt lat="14.521799684231658" lon="121.02750746267253"><ele>17.0</ele><time>2026-04-18T07:07:41Z</time></trkpt><trkpt lat="14.521922067675323" lon="121.02744009806905"><ele>17.0</ele><time>2026-04-18T07:07:42Z</time></trkpt><trkpt lat="14.52204092537216" lon="121.02737423277844"><ele>17.0</ele><time>2026-04-18T07:07:43Z</time></trkpt><trkpt lat="14.522157868945339" lon="121.02731037176255"><ele>17.0</ele><time>2026-04-18T07:07:44Z</time></trkpt><trkpt lat="14.522274607864551" lon="121.02724709523744"><ele>17.0</ele><time>2026-04-18T07:07:45Z</time></trkpt><trkpt lat="14.52239156546426" lon="121.02718404556947"><ele>17.0</ele><time>2026-04-18T07:07:46Z</time></trkpt><trkpt lat="14.522513701710876" lon="121.02712112304664"><ele>17.0</ele><time>2026-04-18T07:07:47Z</time></trkpt><trkpt lat="14.522633132267757" lon="121.02705592043203"><ele>17.0</ele><time>2026-04-18T07:07:48Z</time></trkpt><trkpt lat="14.522752460625156" lon="121.0269924674892"><ele>17.0</ele><time>2026-04-18T07:07:49Z</time></trkpt><trkpt lat="14.522867996473481" lon="121.02692971197506"><ele>17.0</ele><time>2026-04-18T07:07:50Z</time></trkpt><trkpt lat="14.522988444282758" lon="121.02686546247568"><ele>17.0</ele><time>2026-04-18T07:07:51Z</time></trkpt><trkpt lat="14.523104524555842" lon="121.02680184651447"><ele>16.75</ele><time>2026-04-18T07:07:52Z</time></trkpt><trkpt lat="14.52322188319648" lon="121.02673716918228"><ele>16.5</ele><time>2026-04-18T07:07:53Z</time></trkpt><trkpt lat="14.523343576973833" lon="121.02667148258807"><ele>16.25</ele><time>2026-04-18T07:07:54Z</time></trkpt><trkpt lat="14.523465645455614" lon="121.02660492197938"><ele>16.0</ele><time>2026-04-18T07:07:55.001Z</time></trkpt><trkpt lat="14.523588947016671" lon="121.02653676149176"><ele>16.0</ele><time>2026-04-18T07:07:56.001Z</time></trkpt><trkpt lat="14.523710949233084" lon="121.02646683428789"><ele>16.0</ele><time>2026-04-18T07:07:57.001Z</time></trkpt><trkpt lat="14.52383374728482" lon="121.02639069692897"><ele>16.0</ele><time>2026-04-18T07:07:58.001Z</time></trkpt><trkpt lat="14.523962095035204" lon="121.02631450542198"><ele>16.0</ele><time>2026-04-18T07:07:59.001Z</time></trkpt><trkpt lat="14.524086413310265" lon="121.02623849733205"><ele>16.25</ele><time>2026-04-18T07:08:00.001Z</time></trkpt><trkpt lat="14.524211303046606" lon="121.02616182900984"><ele>16.5</ele><time>2026-04-18T07:08:01.001Z</time></trkpt><trkpt lat="14.524334596148158" lon="121.02608409962626"><ele>16.75</ele><time>2026-04-18T07:08:02.001Z</time></trkpt><trkpt lat="14.524457044359647" lon="121.02600614043287"><ele>17.0</ele><time>2026-04-18T07:08:03.001Z</time></trkpt><trkpt lat="14.524577456368526" lon="121.02592590054041"><ele>16.0</ele><time>2026-04-18T07:08:04.001Z</time></trkpt><trkpt lat="14.524695719379693" lon="121.02584465392627"><ele>15.0</ele><time>2026-04-18T07:08:05.001Z</time></trkpt><trkpt lat="14.524810413833222" lon="121.0257616917031"><ele>14.0</ele><time>2026-04-18T07:08:06.001Z</time></trkpt><trkpt lat="14.524923282777033" lon="121.02568167130367"><ele>13.0</ele><time>2026-04-18T07:08:07.001Z</time></trkpt><trkpt lat="14.52503294829488" lon="121.02560115430101"><ele>12.5</ele><time>2026-04-18T07:08:08.001Z</time></trkpt><trkpt lat="14.525144138830118" lon="121.02552018375418"><ele>12.0</ele><time>2026-04-18T07:08:09.001Z</time></trkpt><trkpt lat="14.525252596726153" lon="121.0254394229016"><ele>11.5</ele><time>2026-04-18T07:08:10.001Z</time></trkpt><trkpt lat="14.525359347372438" lon="121.02535829485863"><ele>11.0</ele><time>2026-04-18T07:08:11.001Z</time></trkpt><trkpt lat="14.525464530857615" lon="121.02527599505312"><ele>10.75</ele><time>2026-04-18T07:08:12.001Z</time></trkpt><trkpt lat="14.525570403582735" lon="121.02519291353605"><ele>10.5</ele><time>2026-04-18T07:08:13.001Z</time></trkpt><trkpt lat="14.525674825979866" lon="121.02511089209138"><ele>10.25</ele><time>2026-04-18T07:08:14.001Z</time></trkpt><trkpt lat="14.52577804690886" lon="121.02502990704099"><ele>10.0</ele><time>2026-04-18T07:08:15.001Z</time></trkpt><trkpt lat="14.52587997114576" lon="121.02495162915447"><ele>10.5</ele><time>2026-04-18T07:08:16.001Z</time></trkpt><trkpt lat="14.52598195905535" lon="121.0248744591757"><ele>11.0</ele><time>2026-04-18T07:08:17.001Z</time></trkpt><trkpt lat="14.526083257814934" lon="121.02479762437203"><ele>11.5</ele><time>2026-04-18T07:08:18.001Z</time></trkpt><trkpt lat="14.526183199254058" lon="121.02473076092278"><ele>12.0</ele><time>2026-04-18T07:08:19.001Z</time></trkpt><trkpt lat="14.526286548183515" lon="121.02466446478928"><ele>12.0</ele><time>2026-04-18T07:08:20.001Z</time></trkpt><trkpt lat="14.526385968931484" lon="121.02459586352273"><ele>12.0</ele><time>2026-04-18T07:08:21.001Z</time></trkpt><trkpt lat="14.526484345686006" lon="121.02452917055862"><ele>12.0</ele><time>2026-04-18T07:08:22.001Z</time></trkpt><trkpt lat="14.526582550032986" lon="121.02446261387922"><ele>12.0</ele><time>2026-04-18T07:08:23.001Z</time></trkpt><trkpt lat="14.526683278194216" lon="121.02439560286216"><ele>12.0</ele><time>2026-04-18T07:08:24.001Z</time></trkpt><trkpt lat="14.526786035190357" lon="121.02432766953336"><ele>12.0</ele><time>2026-04-18T07:08:25.001Z</time></trkpt><trkpt lat="14.52689120451978" lon="121.02425856490345"><ele>12.0</ele><time>2026-04-18T07:08:26.001Z</time></trkpt><trkpt lat="14.526998314306327" lon="121.02418776443011"><ele>12.0</ele><time>2026-04-18T07:08:27.001Z</time></trkpt><trkpt lat="14.527104748010021" lon="121.02411862556626"><ele>11.75</ele><time>2026-04-18T07:08:28.001Z</time></trkpt><trkpt lat="14.52721083981128" lon="121.0240518731411"><ele>11.5</ele><time>2026-04-18T07:08:29.001Z</time></trkpt><trkpt lat="14.527316250166692" lon="121.02398671986762"><ele>11.25</ele><time>2026-04-18T07:08:30.001Z</time></trkpt><trkpt lat="14.527422759253506" lon="121.02392255387247"><ele>11.0</ele><time>2026-04-18T07:08:31.001Z</time></trkpt><trkpt lat="14.527532678904379" lon="121.02385644926034"><ele>11.0</ele><time>2026-04-18T07:08:32.001Z</time></trkpt><trkpt lat="14.527647572102008" lon="121.02379186990832"><ele>11.0</ele><time>2026-04-18T07:08:33.001Z</time></trkpt><trkpt lat="14.527766041378639" lon="121.02372510703633"><ele>11.0</ele><time>2026-04-18T07:08:34.001Z</time></trkpt><trkpt lat="14.527885298578678" lon="121.02365707452631"><ele>11.0</ele><time>2026-04-18T07:08:35.001Z</time></trkpt><trkpt lat="14.52800841886608" lon="121.02358903333905"><ele>10.75</ele><time>2026-04-18T07:08:36Z</time></trkpt><trkpt lat="14.528147884806625" lon="121.02351759287009"><ele>10.5</ele><time>2026-04-18T07:08:37Z</time></trkpt><trkpt lat="14.528255202730653" lon="121.02343962994938"><ele>10.25</ele><time>2026-04-18T07:08:38Z</time></trkpt><trkpt lat="14.52838346805087" lon="121.02337038396195"><ele>10.0</ele><time>2026-04-18T07:08:39Z</time></trkpt><trkpt lat="14.528512148003223" lon="121.0233011495635"><ele>10.0</ele><time>2026-04-18T07:08:40Z</time></trkpt><trkpt lat="14.528641230963002" lon="121.02323284698151"><ele>10.0</ele><time>2026-04-18T07:08:41Z</time></trkpt><trkpt lat="14.528770439780981" lon="121.0231637917772"><ele>10.0</ele><time>2026-04-18T07:08:42Z</time></trkpt><trkpt lat="14.52889994144688" lon="121.02309437631959"><ele>10.0</ele><time>2026-04-18T07:08:43Z</time></trkpt><trkpt lat="14.529028165219328" lon="121.02302504684805"><ele>10.0</ele><time>2026-04-18T07:08:44Z</time></trkpt><trkpt lat="14.529158118948352" lon="121.0229546482806"><ele>10.0</ele><time>2026-04-18T07:08:45Z</time></trkpt><trkpt lat="14.529290222550198" lon="121.02288368554464"><ele>10.0</ele><time>2026-04-18T07:08:46Z</time></trkpt><trkpt lat="14.529423900716258" lon="121.02281211194234"><ele>10.0</ele><time>2026-04-18T07:08:47Z</time></trkpt><trkpt lat="14.529558968874197" lon="121.02274172504859"><ele>10.333333333333334</ele><time>2026-04-18T07:08:48Z</time></trkpt><trkpt lat="14.529697326574356" lon="121.02266788777035"><ele>10.666666666666666</ele><time>2026-04-18T07:08:49Z</time></trkpt><trkpt lat="14.529841339675095" lon="121.02259359509904"><ele>11.0</ele><time>2026-04-18T07:08:50Z</time></trkpt><trkpt lat="14.529989439692724" lon="121.02251797552246"><ele>10.333333333333332</ele><time>2026-04-18T07:08:51Z</time></trkpt><trkpt lat="14.530142634591673" lon="121.02243837922232"><ele>9.666666666666666</ele><time>2026-04-18T07:08:52Z</time></trkpt><trkpt lat="14.530302750464521" lon="121.02235612132618"><ele>9.0</ele><time>2026-04-18T07:08:53Z</time></trkpt><trkpt lat="14.530466896267159" lon="121.02227224937597"><ele>9.0</ele><time>2026-04-18T07:08:54Z</time></trkpt><trkpt lat="14.530631890951826" lon="121.02218650522543"><ele>9.0</ele><time>2026-04-18T07:08:55Z</time></trkpt><trkpt lat="14.530797705005124" lon="121.02209979894853"><ele>9.0</ele><time>2026-04-18T07:08:56Z</time></trkpt><trkpt lat="14.530964734670182" lon="121.02201094685687"><ele>9.0</ele><time>2026-04-18T07:08:57Z</time></trkpt><trkpt lat="14.531128781584114" lon="121.02192276508467"><ele>9.0</ele><time>2026-04-18T07:08:58Z</time></trkpt><trkpt lat="14.531291589312591" lon="121.02183473214288"><ele>9.0</ele><time>2026-04-18T07:08:59Z</time></trkpt><trkpt lat="14.531453993776006" lon="121.02174629565562"><ele>8.666666666666666</ele><time>2026-04-18T07:09:00Z</time></trkpt><trkpt lat="14.531614846139394" lon="121.02165872486826"><ele>8.333333333333332</ele><time>2026-04-18T07:09:01Z</time></trkpt><trkpt lat="14.531773873484338" lon="121.02157315636806"><ele>8.0</ele><time>2026-04-18T07:09:02Z</time></trkpt><trkpt lat="14.53193041036673" lon="121.02148976862243"><ele>9.333333333333332</ele><time>2026-04-18T07:09:03Z</time></trkpt><trkpt lat="14.532087510862205" lon="121.02140609876832"><ele>10.666666666666666</ele><time>2026-04-18T07:09:04Z</time></trkpt><trkpt lat="14.532244675795809" lon="121.02132247484862"><ele>12.0</ele><time>2026-04-18T07:09:05Z</time></trkpt><trkpt lat="14.532400251937522" lon="121.02123826325574"><ele>12.0</ele><time>2026-04-18T07:09:06Z</time></trkpt><trkpt lat="14.532554915413552" lon="121.02115341380897"><ele>12.0</ele><time>2026-04-18T07:09:07Z</time></trkpt><trkpt lat="14.532710935172176" lon="121.02106867536942"><ele>12.0</ele><time>2026-04-18T07:09:08Z</time></trkpt><trkpt lat="14.532868236085886" lon="121.02098290490692"><ele>13.666666666666668</ele><time>2026-04-18T07:09:09Z</time></trkpt><trkpt lat="14.533025635449786" lon="121.02089793113295"><ele>15.333333333333334</ele><time>2026-04-18T07:09:10Z</time></trkpt><trkpt lat="14.533183370410333" lon="121.02081166769968"><ele>17.0</ele><time>2026-04-18T07:09:11Z</time></trkpt><trkpt lat="14.533339707307837" lon="121.02072767685776"><ele>17.0</ele><time>2026-04-18T07:09:12Z</time></trkpt><trkpt lat="14.533491208993796" lon="121.02064389609012"><ele>17.0</ele><time>2026-04-18T07:09:13Z</time></trkpt><trkpt lat="14.533645765050627" lon="121.02056241196851"><ele>17.0</ele><time>2026-04-18T07:09:14Z</time></trkpt><trkpt lat="14.533800657587113" lon="121.02047897653996"><ele>16.666666666666668</ele><time>2026-04-18T07:09:15Z</time></trkpt><trkpt lat="14.533958935380053" lon="121.02039425302499"><ele>16.333333333333332</ele><time>2026-04-18T07:09:16Z</time></trkpt><trkpt lat="14.534116937382594" lon="121.02030803263641"><ele>16.0</ele><time>2026-04-18T07:09:17Z</time></trkpt><trkpt lat="14.534277302186428" lon="121.0202218048853"><ele>16.0</ele><time>2026-04-18T07:09:18Z</time></trkpt><trkpt lat="14.534439858282306" lon="121.02013480931723"><ele>16.0</ele><time>2026-04-18T07:09:19Z</time></trkpt><trkpt lat="14.53460423784545" lon="121.02004674706811"><ele>16.0</ele><time>2026-04-18T07:09:20Z</time></trkpt><trkpt lat="14.534773894250602" lon="121.01995661457167"><ele>15.0</ele><time>2026-04-18T07:09:21Z</time></trkpt><trkpt lat="14.534943792855296" lon="121.01986442558443"><ele>14.0</ele><time>2026-04-18T07:09:22Z</time></trkpt><trkpt lat="14.535116049410439" lon="121.01977065453575"><ele>13.0</ele><time>2026-04-18T07:09:23Z</time></trkpt><trkpt lat="14.535289156411304" lon="121.01967695364219"><ele>13.666666666666666</ele><time>2026-04-18T07:09:24Z</time></trkpt><trkpt lat="14.535464266614914" lon="121.01958182260938"><ele>14.333333333333332</ele><time>2026-04-18T07:09:25Z</time></trkpt><trkpt lat="14.53563950825025" lon="121.01948762648534"><ele>15.0</ele><time>2026-04-18T07:09:26Z</time></trkpt><trkpt lat="14.535813232713942" lon="121.01939339088918"><ele>15.0</ele><time>2026-04-18T07:09:27Z</time></trkpt><trkpt lat="14.535985613202525" lon="121.01929935686668"><ele>15.0</ele><time>2026-04-18T07:09:28Z</time></trkpt><trkpt lat="14.536156946370044" lon="121.0192054773585"><ele>15.0</ele><time>2026-04-18T07:09:29Z</time></trkpt><trkpt lat="14.53632585769275" lon="121.01911315234594"><ele>13.666666666666666</ele><time>2026-04-18T07:09:30Z</time></trkpt><trkpt lat="14.536492531467072" lon="121.01902415438538"><ele>12.333333333333332</ele><time>2026-04-18T07:09:31Z</time></trkpt><trkpt lat="14.536657740467536" lon="121.01893656772702"><ele>11.0</ele><time>2026-04-18T07:09:32Z</time></trkpt><trkpt lat="14.536821848633378" lon="121.01884824524963"><ele>11.0</ele><time>2026-04-18T07:09:33Z</time></trkpt><trkpt lat="14.536980268630295" lon="121.0187621147595"><ele>11.0</ele><time>2026-04-18T07:09:34Z</time></trkpt><trkpt lat="14.5371328683363" lon="121.01867844690955"><ele>11.0</ele><time>2026-04-18T07:09:35Z</time></trkpt><trkpt lat="14.537282805697926" lon="121.018595359242"><ele>11.0</ele><time>2026-04-18T07:09:36Z</time></trkpt><trkpt lat="14.537428040139014" lon="121.01851500726903"><ele>11.0</ele><time>2026-04-18T07:09:37Z</time></trkpt><trkpt lat="14.537568194258245" lon="121.01843636241459"><ele>11.0</ele><time>2026-04-18T07:09:38Z</time></trkpt><trkpt lat="14.537706834331761" lon="121.01835846275412"><ele>11.0</ele><time>2026-04-18T07:09:39Z</time></trkpt><trkpt lat="14.537844281551296" lon="121.01828115783391"><ele>11.0</ele><time>2026-04-18T07:09:40Z</time></trkpt><trkpt lat="14.537984283694092" lon="121.01820388844307"><ele>11.0</ele><time>2026-04-18T07:09:41Z</time></trkpt><trkpt lat="14.538121868770814" lon="121.01812010767661"><ele>11.0</ele><time>2026-04-18T07:09:42Z</time></trkpt><trkpt lat="14.538262912241757" lon="121.0180384949881"><ele>11.0</ele><time>2026-04-18T07:09:43Z</time></trkpt><trkpt lat="14.538405053882494" lon="121.01795471190844"><ele>11.0</ele><time>2026-04-18T07:09:44Z</time></trkpt><trkpt lat="14.538548550025718" lon="121.01787172031905"><ele>11.0</ele><time>2026-04-18T07:09:45Z</time></trkpt><trkpt lat="14.538695632123158" lon="121.01778976495108"><ele>11.0</ele><time>2026-04-18T07:09:46Z</time></trkpt><trkpt lat="14.538845107729587" lon="121.0177049042816"><ele>11.0</ele><time>2026-04-18T07:09:47Z</time></trkpt><trkpt lat="14.53899712491054" lon="121.01761948531036"><ele>10.666666666666666</ele><time>2026-04-18T07:09:48Z</time></trkpt><trkpt lat="14.539149714612009" lon="121.01753408398974"><ele>10.333333333333334</ele><time>2026-04-18T07:09:49Z</time></trkpt><trkpt lat="14.53930344094812" lon="121.01744789369172"><ele>10.0</ele><time>2026-04-18T07:09:50Z</time></trkpt><trkpt lat="14.539455367340581" lon="121.01736265287249"><ele>10.333333333333334</ele><time>2026-04-18T07:09:51Z</time></trkpt><trkpt lat="14.53960426113956" lon="121.01727841386528"><ele>10.666666666666666</ele><time>2026-04-18T07:09:52Z</time></trkpt><trkpt lat="14.539756369493272" lon="121.01719339272825"><ele>11.0</ele><time>2026-04-18T07:09:53Z</time></trkpt><trkpt lat="14.539909835989588" lon="121.01710679941449"><ele>11.0</ele><time>2026-04-18T07:09:54Z</time></trkpt><trkpt lat="14.540065451121338" lon="121.01702237477431"><ele>11.0</ele><time>2026-04-18T07:09:55Z</time></trkpt><trkpt lat="14.540223303047982" lon="121.01693629190277"><ele>11.0</ele><time>2026-04-18T07:09:56Z</time></trkpt><trkpt lat="14.540382502901434" lon="121.01684987461215"><ele>11.333333333333332</ele><time>2026-04-18T07:09:57Z</time></trkpt><trkpt lat="14.54054657594397" lon="121.01676757671626"><ele>11.666666666666666</ele><time>2026-04-18T07:09:58Z</time></trkpt><trkpt lat="14.540711102952203" lon="121.01668358512616"><ele>12.0</ele><time>2026-04-18T07:09:59Z</time></trkpt><trkpt lat="14.540877711314769" lon="121.01659933808727"><ele>12.0</ele><time>2026-04-18T07:10:00Z</time></trkpt><trkpt lat="14.5410453846915" lon="121.01651173325398"><ele>12.0</ele><time>2026-04-18T07:10:01Z</time></trkpt><trkpt lat="14.54121545074188" lon="121.01642517481315"><ele>12.0</ele><time>2026-04-18T07:10:02Z</time></trkpt><trkpt lat="14.541384020993917" lon="121.01633818865383"><ele>11.666666666666666</ele><time>2026-04-18T07:10:03Z</time></trkpt><trkpt lat="14.54154972006183" lon="121.01625103206901"><ele>11.333333333333332</ele><time>2026-04-18T07:10:04Z</time></trkpt><trkpt lat="14.541713022451072" lon="121.01616580542102"><ele>11.0</ele><time>2026-04-18T07:10:05Z</time></trkpt><trkpt lat="14.541877673143391" lon="121.01608095019613"><ele>11.0</ele><time>2026-04-18T07:10:06Z</time></trkpt><trkpt lat="14.542041680066925" lon="121.01599642478583"><ele>11.0</ele><time>2026-04-18T07:10:07Z</time></trkpt><trkpt lat="14.542204041149665" lon="121.01591388639713"><ele>11.0</ele><time>2026-04-18T07:10:08Z</time></trkpt><trkpt lat="14.542366377098064" lon="121.01582962179752"><ele>13.0</ele><time>2026-04-18T07:10:09Z</time></trkpt><trkpt lat="14.54252592453457" lon="121.01574600982416"><ele>15.0</ele><time>2026-04-18T07:10:10Z</time></trkpt><trkpt lat="14.542679457226024" lon="121.01566523788328"><ele>17.0</ele><time>2026-04-18T07:10:11Z</time></trkpt><trkpt lat="14.542828775990285" lon="121.01558645374284"><ele>15.333333333333334</ele><time>2026-04-18T07:10:12Z</time></trkpt><trkpt lat="14.542974862358818" lon="121.01550870356516"><ele>13.666666666666668</ele><time>2026-04-18T07:10:13Z</time></trkpt><trkpt lat="14.543116041232006" lon="121.01543343576274"><ele>12.0</ele><time>2026-04-18T07:10:14Z</time></trkpt><trkpt lat="14.543251907802638" lon="121.01536167403877"><ele>12.0</ele><time>2026-04-18T07:10:15.001Z</time></trkpt><trkpt lat="14.543386329572346" lon="121.01529030104297"><ele>12.0</ele><time>2026-04-18T07:10:16.001Z</time></trkpt><trkpt lat="14.543522641346089" lon="121.01522194485007"><ele>12.0</ele><time>2026-04-18T07:10:17.001Z</time></trkpt><trkpt lat="14.543659820593868" lon="121.01515401152366"><ele>12.0</ele><time>2026-04-18T07:10:18.001Z</time></trkpt><trkpt lat="14.543795435199156" lon="121.01508525885505"><ele>12.0</ele><time>2026-04-18T07:10:19.001Z</time></trkpt><trkpt lat="14.5439224372555" lon="121.01501988953838"><ele>12.0</ele><time>2026-04-18T07:10:20.001Z</time></trkpt><trkpt lat="14.544049141744562" lon="121.01494850860585"><ele>12.0</ele><time>2026-04-18T07:10:21.001Z</time></trkpt><trkpt lat="14.544176618275143" lon="121.01487813188056"><ele>12.0</ele><time>2026-04-18T07:10:22.001Z</time></trkpt><trkpt lat="14.544304372889778" lon="121.0148089581674"><ele>12.0</ele><time>2026-04-18T07:10:23.001Z</time></trkpt><trkpt lat="14.54443236128471" lon="121.01473993949966"><ele>12.0</ele><time>2026-04-18T07:10:24.001Z</time></trkpt><trkpt lat="14.544562622502774" lon="121.01466987487329"><ele>12.0</ele><time>2026-04-18T07:10:25.001Z</time></trkpt><trkpt lat="14.544692575601525" lon="121.01459974919027"><ele>12.0</ele><time>2026-04-18T07:10:26.001Z</time></trkpt><trkpt lat="14.544825464354709" lon="121.0145278435177"><ele>12.0</ele><time>2026-04-18T07:10:27.001Z</time></trkpt><trkpt lat="14.544962367000208" lon="121.01445422301043"><ele>12.0</ele><time>2026-04-18T07:10:28.001Z</time></trkpt><trkpt lat="14.545105354702267" lon="121.01437661894788"><ele>12.0</ele><time>2026-04-18T07:10:29.001Z</time></trkpt><trkpt lat="14.545249347165113" lon="121.01429782756696"><ele>12.0</ele><time>2026-04-18T07:10:30.001Z</time></trkpt><trkpt lat="14.545396479801367" lon="121.01421742113807"><ele>12.0</ele><time>2026-04-18T07:10:31.001Z</time></trkpt><trkpt lat="14.545544886447006" lon="121.01413675962706"><ele>11.333333333333334</ele><time>2026-04-18T07:10:32.001Z</time></trkpt><trkpt lat="14.545694355324917" lon="121.01405571406326"><ele>10.666666666666668</ele><time>2026-04-18T07:10:33.001Z</time></trkpt><trkpt lat="14.545843033461825" lon="121.01397528662916"><ele>10.0</ele><time>2026-04-18T07:10:34.001Z</time></trkpt><trkpt lat="14.54599273656269" lon="121.01389433413043"><ele>10.0</ele><time>2026-04-18T07:10:35.001Z</time></trkpt><trkpt lat="14.54614227148039" lon="121.01381399620296"><ele>10.0</ele><time>2026-04-18T07:10:36.001Z</time></trkpt><trkpt lat="14.546292830532021" lon="121.01373369062532"><ele>10.0</ele><time>2026-04-18T07:10:37.001Z</time></trkpt><trkpt lat="14.546439253429645" lon="121.01365528443765"><ele>11.0</ele><time>2026-04-18T07:10:38.001Z</time></trkpt><trkpt lat="14.546589442993934" lon="121.01357516384405"><ele>12.0</ele><time>2026-04-18T07:10:39.001Z</time></trkpt><trkpt lat="14.546740781589373" lon="121.01349406702694"><ele>13.0</ele><time>2026-04-18T07:10:40.001Z</time></trkpt><trkpt lat="14.546894627167331" lon="121.01341057922288"><ele>13.666666666666666</ele><time>2026-04-18T07:10:41.001Z</time></trkpt><trkpt lat="14.547045786562476" lon="121.01332798767068"><ele>14.333333333333332</ele><time>2026-04-18T07:10:42Z</time></trkpt><trkpt lat="14.54719617564399" lon="121.01324642406009"><ele>15.0</ele><time>2026-04-18T07:10:43Z</time></trkpt><trkpt lat="14.547341519401929" lon="121.01316691613039"><ele>13.0</ele><time>2026-04-18T07:10:44Z</time></trkpt><trkpt lat="14.547482888815672" lon="121.01308964364812"><ele>11.0</ele><time>2026-04-18T07:10:45Z</time></trkpt><trkpt lat="14.547621333881596" lon="121.01301469747652"><ele>9.0</ele><time>2026-04-18T07:10:46Z</time></trkpt><trkpt lat="14.547759713817108" lon="121.01293977420052"><ele>8.666666666666666</ele><time>2026-04-18T07:10:47Z</time></trkpt><trkpt lat="14.547899203974431" lon="121.01287251938332"><ele>8.333333333333332</ele><time>2026-04-18T07:10:48Z</time></trkpt><trkpt lat="14.54803744830009" lon="121.01279552932431"><ele>8.0</ele><time>2026-04-18T07:10:49Z</time></trkpt><trkpt lat="14.548175085415773" lon="121.01272048297135"><ele>8.0</ele><time>2026-04-18T07:10:50Z</time></trkpt><trkpt lat="14.548314421039377" lon="121.01264562520268"><ele>8.0</ele><time>2026-04-18T07:10:51Z</time></trkpt><trkpt lat="14.548453253825054" lon="121.01256972582729"><ele>8.0</ele><time>2026-04-18T07:10:52Z</time></trkpt><trkpt lat="14.548591896272315" lon="121.01249482381736"><ele>8.666666666666666</ele><time>2026-04-18T07:10:53Z</time></trkpt><trkpt lat="14.548728165204238" lon="121.01242140385084"><ele>9.333333333333334</ele><time>2026-04-18T07:10:54Z</time></trkpt><trkpt lat="14.548862375887603" lon="121.01234907417061"><ele>10.0</ele><time>2026-04-18T07:10:55Z</time></trkpt><trkpt lat="14.548996868402353" lon="121.01227576674741"><ele>10.0</ele><time>2026-04-18T07:10:56Z</time></trkpt><trkpt lat="14.549128679570345" lon="121.01220457279975"><ele>10.0</ele><time>2026-04-18T07:10:57Z</time></trkpt><trkpt lat="14.549262869759769" lon="121.01213139370752"><ele>10.0</ele><time>2026-04-18T07:10:58Z</time></trkpt><trkpt lat="14.549399457355037" lon="121.0120572809487"><ele>10.0</ele><time>2026-04-18T07:10:59Z</time></trkpt><trkpt lat="14.549541383174335" lon="121.01198151907187"><ele>10.0</ele><time>2026-04-18T07:11:00Z</time></trkpt><trkpt lat="14.549686505042795" lon="121.01190145691137"><ele>10.0</ele><time>2026-04-18T07:11:01Z</time></trkpt><trkpt lat="14.549832271652615" lon="121.0118169365237"><ele>10.333333333333334</ele><time>2026-04-18T07:11:02Z</time></trkpt><trkpt lat="14.54998398831305" lon="121.0117337689827"><ele>10.666666666666666</ele><time>2026-04-18T07:11:03Z</time></trkpt><trkpt lat="14.550137789065646" lon="121.01165040257261"><ele>11.0</ele><time>2026-04-18T07:11:04Z</time></trkpt><trkpt lat="14.55029232437223" lon="121.01156846897067"><ele>10.333333333333332</ele><time>2026-04-18T07:11:05Z</time></trkpt><trkpt lat="14.550443669705372" lon="121.01148655458945"><ele>9.666666666666666</ele><time>2026-04-18T07:11:06Z</time></trkpt><trkpt lat="14.550592668944951" lon="121.01140683756327"><ele>9.0</ele><time>2026-04-18T07:11:07Z</time></trkpt><trkpt lat="14.550739378033894" lon="121.01132819097847"><ele>9.0</ele><time>2026-04-18T07:11:08Z</time></trkpt><trkpt lat="14.550882276497193" lon="121.01125319228086"><ele>9.0</ele><time>2026-04-18T07:11:09Z</time></trkpt><trkpt lat="14.551024781453247" lon="121.01117668457009"><ele>9.0</ele><time>2026-04-18T07:11:10Z</time></trkpt><trkpt lat="14.551170671960033" lon="121.01109509659229"><ele>9.666666666666666</ele><time>2026-04-18T07:11:11Z</time></trkpt><trkpt lat="14.551316579748326" lon="121.01101417722553"><ele>10.333333333333332</ele><time>2026-04-18T07:11:12Z</time></trkpt><trkpt lat="14.551461337312992" lon="121.01093605207056"><ele>11.0</ele><time>2026-04-18T07:11:13Z</time></trkpt><trkpt lat="14.551606863457538" lon="121.01086082198869"><ele>10.0</ele><time>2026-04-18T07:11:14Z</time></trkpt><trkpt lat="14.551751915012625" lon="121.01078223800448"><ele>9.0</ele><time>2026-04-18T07:11:15Z</time></trkpt><trkpt lat="14.551897081461798" lon="121.010705821458"><ele>8.0</ele><time>2026-04-18T07:11:16Z</time></trkpt><trkpt lat="14.552046395287652" lon="121.01062439612048"><ele>7.666666666666666</ele><time>2026-04-18T07:11:17Z</time></trkpt><trkpt lat="14.552199232245007" lon="121.01054263003263"><ele>7.333333333333334</ele><time>2026-04-18T07:11:18Z</time></trkpt><trkpt lat="14.552353636066712" lon="121.01045908261588"><ele>7.0</ele><time>2026-04-18T07:11:19Z</time></trkpt><trkpt lat="14.552511298486435" lon="121.01037410577169"><ele>7.0</ele><time>2026-04-18T07:11:20Z</time></trkpt><trkpt lat="14.55267113948619" lon="121.01028777615329"><ele>7.0</ele><time>2026-04-18T07:11:21Z</time></trkpt><trkpt lat="14.552832005025788" lon="121.0102012972175"><ele>7.0</ele><time>2026-04-18T07:11:22Z</time></trkpt><trkpt lat="14.552993947166854" lon="121.01011381647065"><ele>7.0</ele><time>2026-04-18T07:11:23Z</time></trkpt><trkpt lat="14.55315803658" lon="121.01002557363968"><ele>7.0</ele><time>2026-04-18T07:11:24Z</time></trkpt><trkpt lat="14.553325314157059" lon="121.00993728253809"><ele>7.0</ele><time>2026-04-18T07:11:25Z</time></trkpt><trkpt lat="14.553492766101964" lon="121.0098474837821"><ele>7.0</ele><time>2026-04-18T07:11:26Z</time></trkpt><trkpt lat="14.553660145233524" lon="121.00975815911576"><ele>7.0</ele><time>2026-04-18T07:11:27Z</time></trkpt><trkpt lat="14.553828682584244" lon="121.00966653926031"><ele>7.0</ele><time>2026-04-18T07:11:28Z</time></trkpt><trkpt lat="14.553999713314743" lon="121.00957270106218"><ele>7.0</ele><time>2026-04-18T07:11:29Z</time></trkpt><trkpt lat="14.554173233348282" lon="121.00948100357806"><ele>7.0</ele><time>2026-04-18T07:11:30Z</time></trkpt><trkpt lat="14.55435147761833" lon="121.00938879262547"><ele>7.0</ele><time>2026-04-18T07:11:31Z</time></trkpt><trkpt lat="14.554534597631985" lon="121.00929648218262"><ele>6.333333333333334</ele><time>2026-04-18T07:11:32Z</time></trkpt><trkpt lat="14.554721580240379" lon="121.00919951211377"><ele>5.666666666666667</ele><time>2026-04-18T07:11:33Z</time></trkpt><trkpt lat="14.554906761981325" lon="121.00910245850173"><ele>5.0</ele><time>2026-04-18T07:11:34Z</time></trkpt><trkpt lat="14.555092152135039" lon="121.00900325776185"><ele>5.0</ele><time>2026-04-18T07:11:35Z</time></trkpt><trkpt lat="14.555280494601002" lon="121.00890259926135"><ele>5.0</ele><time>2026-04-18T07:11:36Z</time></trkpt><trkpt lat="14.555469918680487" lon="121.00880232286744"><ele>5.0</ele><time>2026-04-18T07:11:37Z</time></trkpt><trkpt lat="14.555660201764516" lon="121.00870279273067"><ele>5.333333333333334</ele><time>2026-04-18T07:11:38Z</time></trkpt><trkpt lat="14.555853542781852" lon="121.00860280358454"><ele>5.666666666666667</ele><time>2026-04-18T07:11:39Z</time></trkpt><trkpt lat="14.55604652925037" lon="121.00850228106135"><ele>6.0</ele><time>2026-04-18T07:11:40Z</time></trkpt><trkpt lat="14.55624062098425" lon="121.00840216655745"><ele>5.666666666666667</ele><time>2026-04-18T07:11:41Z</time></trkpt><trkpt lat="14.556434006490488" lon="121.00830143395046"><ele>5.333333333333334</ele><time>2026-04-18T07:11:42Z</time></trkpt><trkpt lat="14.556626255660637" lon="121.00820047354847"><ele>5.0</ele><time>2026-04-18T07:11:43Z</time></trkpt><trkpt lat="14.556814924923865" lon="121.00809860785384"><ele>5.0</ele><time>2026-04-18T07:11:44Z</time></trkpt><trkpt lat="14.557004734357452" lon="121.0079963746206"><ele>5.0</ele><time>2026-04-18T07:11:45Z</time></trkpt><trkpt lat="14.557191605833625" lon="121.0078948151198"><ele>5.0</ele><time>2026-04-18T07:11:46Z</time></trkpt><trkpt lat="14.55737434326302" lon="121.00779342135593"><ele>5.666666666666667</ele><time>2026-04-18T07:11:47Z</time></trkpt><trkpt lat="14.557556183629448" lon="121.00769158122337"><ele>6.333333333333334</ele><time>2026-04-18T07:11:48Z</time></trkpt><trkpt lat="14.557733669251919" lon="121.00759377857646"><ele>7.0</ele><time>2026-04-18T07:11:49Z</time></trkpt><trkpt lat="14.557912567027623" lon="121.00749799440307"><ele>7.666666666666667</ele><time>2026-04-18T07:11:50Z</time></trkpt><trkpt lat="14.558093915715151" lon="121.00740089234601"><ele>8.333333333333334</ele><time>2026-04-18T07:11:51Z</time></trkpt><trkpt lat="14.558276121610852" lon="121.00730144486351"><ele>9.0</ele><time>2026-04-18T07:11:52Z</time></trkpt><trkpt lat="14.558460662006524" lon="121.0072028391375"><ele>9.0</ele><time>2026-04-18T07:11:53Z</time></trkpt><trkpt lat="14.558645779165879" lon="121.00709894173676"><ele>9.0</ele><time>2026-04-18T07:11:54Z</time></trkpt><trkpt lat="14.558834345594313" lon="121.0069922362344"><ele>9.0</ele><time>2026-04-18T07:11:55Z</time></trkpt><trkpt lat="14.559031318226893" lon="121.00688575149897"><ele>8.0</ele><time>2026-04-18T07:11:56Z</time></trkpt><trkpt lat="14.559227715766637" lon="121.00677337033267"><ele>7.0</ele><time>2026-04-18T07:11:57Z</time></trkpt><trkpt lat="14.559428437990503" lon="121.00666160530271"><ele>6.5</ele><time>2026-04-18T07:11:58Z</time></trkpt><trkpt lat="14.55963141954425" lon="121.00654882441822"><ele>6.0</ele><time>2026-04-18T07:11:59Z</time></trkpt><trkpt lat="14.559836521483302" lon="121.00643714396693"><ele>6.0</ele><time>2026-04-18T07:12:00Z</time></trkpt><trkpt lat="14.560038447935064" lon="121.0063244222445"><ele>6.0</ele><time>2026-04-18T07:12:01Z</time></trkpt><trkpt lat="14.560237429880539" lon="121.00621385374282"><ele>7.0</ele><time>2026-04-18T07:12:02Z</time></trkpt><trkpt lat="14.560433904746153" lon="121.00610406387916"><ele>8.0</ele><time>2026-04-18T07:12:03Z</time></trkpt><trkpt lat="14.560630678478425" lon="121.0059960378734"><ele>9.0</ele><time>2026-04-18T07:12:04Z</time></trkpt><trkpt lat="14.560829068731023" lon="121.00588759795271"><ele>8.333333333333334</ele><time>2026-04-18T07:12:05Z</time></trkpt><trkpt lat="14.561024320482314" lon="121.00578223792597"><ele>7.666666666666667</ele><time>2026-04-18T07:12:06Z</time></trkpt><trkpt lat="14.56121671202226" lon="121.00567623869071"><ele>7.0</ele><time>2026-04-18T07:12:07Z</time></trkpt><trkpt lat="14.561411575185256" lon="121.0055711198264"><ele>6.666666666666667</ele><time>2026-04-18T07:12:08Z</time></trkpt><trkpt lat="14.561605694188893" lon="121.00546584367247"><ele>6.333333333333334</ele><time>2026-04-18T07:12:09Z</time></trkpt><trkpt lat="14.561798367563183" lon="121.00536028484379"><ele>6.0</ele><time>2026-04-18T07:12:10Z</time></trkpt><trkpt lat="14.561994775097824" lon="121.00525483566102"><ele>5.666666666666667</ele><time>2026-04-18T07:12:11Z</time></trkpt><trkpt lat="14.562188859254423" lon="121.00514912938212"><ele>5.333333333333334</ele><time>2026-04-18T07:12:12Z</time></trkpt><trkpt lat="14.5623793027274" lon="121.00504576781931"><ele>5.0</ele><time>2026-04-18T07:12:13Z</time></trkpt><trkpt lat="14.562568345790648" lon="121.00494346545607"><ele>5.0</ele><time>2026-04-18T07:12:14Z</time></trkpt><trkpt lat="14.562755853258231" lon="121.0048425903485"><ele>5.0</ele><time>2026-04-18T07:12:15.001Z</time></trkpt><trkpt lat="14.562944089971229" lon="121.00474159449169"><ele>5.0</ele><time>2026-04-18T07:12:16.001Z</time></trkpt><trkpt lat="14.563133637825647" lon="121.00464412082215"><ele>5.333333333333334</ele><time>2026-04-18T07:12:17.001Z</time></trkpt><trkpt lat="14.563324378279422" lon="121.00455090973493"><ele>5.666666666666667</ele><time>2026-04-18T07:12:18.001Z</time></trkpt><trkpt lat="14.563517240620309" lon="121.00445920373984"><ele>6.0</ele><time>2026-04-18T07:12:19.001Z</time></trkpt><trkpt lat="14.563708621337865" lon="121.00436804595981"><ele>6.0</ele><time>2026-04-18T07:12:20.001Z</time></trkpt><trkpt lat="14.563894981207412" lon="121.00427566250075"><ele>6.0</ele><time>2026-04-18T07:12:21.001Z</time></trkpt><trkpt lat="14.5640771273576" lon="121.00418328841123"><ele>6.0</ele><time>2026-04-18T07:12:22.001Z</time></trkpt><trkpt lat="14.564256985191351" lon="121.0040895108123"><ele>6.0</ele><time>2026-04-18T07:12:23.001Z</time></trkpt><trkpt lat="14.564433418903542" lon="121.00399500717994"><ele>6.0</ele><time>2026-04-18T07:12:24.001Z</time></trkpt><trkpt lat="14.564608887209383" lon="121.00389923862559"><ele>6.0</ele><time>2026-04-18T07:12:25.001Z</time></trkpt><trkpt lat="14.564785236459702" lon="121.00380350845607"><ele>6.0</ele><time>2026-04-18T07:12:26.001Z</time></trkpt><trkpt lat="14.564960070180241" lon="121.00370579842759"><ele>6.0</ele><time>2026-04-18T07:12:27.001Z</time></trkpt><trkpt lat="14.565134115291134" lon="121.00360743352113"><ele>6.0</ele><time>2026-04-18T07:12:28.001Z</time></trkpt><trkpt lat="14.565307587633134" lon="121.00351159718632"><ele>5.666666666666667</ele><time>2026-04-18T07:12:29.001Z</time></trkpt><trkpt lat="14.565477895546184" lon="121.00341568705393"><ele>5.333333333333334</ele><time>2026-04-18T07:12:30.001Z</time></trkpt><trkpt lat="14.565648898284154" lon="121.00332231821156"><ele>5.0</ele><time>2026-04-18T07:12:31.001Z</time></trkpt><trkpt lat="14.565816654666682" lon="121.00323077333796"><ele>5.0</ele><time>2026-04-18T07:12:32.001Z</time></trkpt><trkpt lat="14.565981072636385" lon="121.00314083120082"><ele>5.0</ele><time>2026-04-18T07:12:33.001Z</time></trkpt><trkpt lat="14.566144392705787" lon="121.0030497441453"><ele>5.0</ele><time>2026-04-18T07:12:34.001Z</time></trkpt><trkpt lat="14.566309893885611" lon="121.0029585557821"><ele>5.0</ele><time>2026-04-18T07:12:35.001Z</time></trkpt><trkpt lat="14.566475479789437" lon="121.00286521343284"><ele>5.0</ele><time>2026-04-18T07:12:36.001Z</time></trkpt><trkpt lat="14.566639586794444" lon="121.00277140307999"><ele>5.0</ele><time>2026-04-18T07:12:37.001Z</time></trkpt><trkpt lat="14.566804055337208" lon="121.00267361534335"><ele>5.0</ele><time>2026-04-18T07:12:38.001Z</time></trkpt><trkpt lat="14.566969406331422" lon="121.00258040063379"><ele>5.0</ele><time>2026-04-18T07:12:39.001Z</time></trkpt><trkpt lat="14.567133148003196" lon="121.00248577743146"><ele>5.0</ele><time>2026-04-18T07:12:40.001Z</time></trkpt><trkpt lat="14.567294428535238" lon="121.00239225453755"><ele>6.0</ele><time>2026-04-18T07:12:41.001Z</time></trkpt><trkpt lat="14.567451421728686" lon="121.0022985596801"><ele>7.0</ele><time>2026-04-18T07:12:42.001Z</time></trkpt><trkpt lat="14.567606816645517" lon="121.00220576619732"><ele>8.0</ele><time>2026-04-18T07:12:43.001Z</time></trkpt><trkpt lat="14.567759793945028" lon="121.00211540227708"><ele>8.333333333333332</ele><time>2026-04-18T07:12:44.001Z</time></trkpt><trkpt lat="14.56791173736779" lon="121.00202459265005"><ele>8.666666666666666</ele><time>2026-04-18T07:12:45.001Z</time></trkpt><trkpt lat="14.568060743201006" lon="121.0019361117139"><ele>9.0</ele><time>2026-04-18T07:12:46.001Z</time></trkpt><trkpt lat="14.568209933266113" lon="121.00185092301693"><ele>9.0</ele><time>2026-04-18T07:12:47.001Z</time></trkpt><trkpt lat="14.568358846190284" lon="121.00176866992524"><ele>9.0</ele><time>2026-04-18T07:12:48Z</time></trkpt><trkpt lat="14.568513054738274" lon="121.00168690114768"><ele>9.0</ele><time>2026-04-18T07:12:49Z</time></trkpt><trkpt lat="14.568671106292225" lon="121.00160838768079"><ele>8.333333333333334</ele><time>2026-04-18T07:12:50Z</time></trkpt><trkpt lat="14.56883060737242" lon="121.00152490364549"><ele>7.666666666666667</ele><time>2026-04-18T07:12:51Z</time></trkpt><trkpt lat="14.568997220219135" lon="121.00143931735933"><ele>7.0</ele><time>2026-04-18T07:12:52Z</time></trkpt><trkpt lat="14.569165185169556" lon="121.00135250268058"><ele>7.0</ele><time>2026-04-18T07:12:53Z</time></trkpt><trkpt lat="14.569334597543264" lon="121.00126439159449"><ele>7.0</ele><time>2026-04-18T07:12:54Z</time></trkpt><trkpt lat="14.569505121038393" lon="121.00117506049602"><ele>7.0</ele><time>2026-04-18T07:12:55Z</time></trkpt><trkpt lat="14.569674431396754" lon="121.0010857223726"><ele>7.333333333333334</ele><time>2026-04-18T07:12:56Z</time></trkpt><trkpt lat="14.569841116775882" lon="121.00099702350332"><ele>7.666666666666666</ele><time>2026-04-18T07:12:57Z</time></trkpt><trkpt lat="14.570007350882936" lon="121.00090836798456"><ele>8.0</ele><time>2026-04-18T07:12:58Z</time></trkpt><trkpt lat="14.570170008876275" lon="121.00082098035658"><ele>8.0</ele><time>2026-04-18T07:12:59Z</time></trkpt><trkpt lat="14.57033139418842" lon="121.00073335722794"><ele>8.0</ele><time>2026-04-18T07:13:00Z</time></trkpt><trkpt lat="14.570489824469075" lon="121.00064699062006"><ele>8.0</ele><time>2026-04-18T07:13:01Z</time></trkpt><trkpt lat="14.570647001513041" lon="121.0005629764312"><ele>7.0</ele><time>2026-04-18T07:13:02Z</time></trkpt><trkpt lat="14.570804020814611" lon="121.00047883565226"><ele>6.0</ele><time>2026-04-18T07:13:03Z</time></trkpt><trkpt lat="14.570959656285428" lon="121.0003948518528"><ele>5.0</ele><time>2026-04-18T07:13:04Z</time></trkpt><trkpt lat="14.571117351107967" lon="121.00030867454736"><ele>5.333333333333334</ele><time>2026-04-18T07:13:05Z</time></trkpt><trkpt lat="14.571273243182242" lon="121.00022458887372"><ele>5.666666666666667</ele><time>2026-04-18T07:13:06Z</time></trkpt><trkpt lat="14.571427891684307" lon="121.00014107986816"><ele>6.0</ele><time>2026-04-18T07:13:07Z</time></trkpt><trkpt lat="14.57158173148583" lon="121.00006129828134"><ele>6.0</ele><time>2026-04-18T07:13:08Z</time></trkpt><trkpt lat="14.571734140707719" lon="120.99997933037487"><ele>6.0</ele><time>2026-04-18T07:13:09Z</time></trkpt><trkpt lat="14.571888498081773" lon="120.99989641426336"><ele>6.0</ele><time>2026-04-18T07:13:10Z</time></trkpt><trkpt lat="14.57204285169165" lon="120.99981334167234"><ele>6.333333333333334</ele><time>2026-04-18T07:13:11Z</time></trkpt><trkpt lat="14.572199850890396" lon="120.9997293809539"><ele>6.666666666666667</ele><time>2026-04-18T07:13:12Z</time></trkpt><trkpt lat="14.572359010835235" lon="120.99964349170199"><ele>7.0</ele><time>2026-04-18T07:13:13Z</time></trkpt><trkpt lat="14.572517733433289" lon="120.9995574651962"><ele>7.0</ele><time>2026-04-18T07:13:14Z</time></trkpt><trkpt lat="14.572677051206131" lon="120.99946976637477"><ele>7.0</ele><time>2026-04-18T07:13:15Z</time></trkpt><trkpt lat="14.572833485983615" lon="120.99938358984745"><ele>7.0</ele><time>2026-04-18T07:13:16Z</time></trkpt><trkpt lat="14.572988288435022" lon="120.99929904998659"><ele>7.0</ele><time>2026-04-18T07:13:17Z</time></trkpt><trkpt lat="14.573136659408984" lon="120.9992186317027"><ele>7.0</ele><time>2026-04-18T07:13:18Z</time></trkpt><trkpt lat="14.57327586457874" lon="120.99914286871531"><ele>7.0</ele><time>2026-04-18T07:13:19Z</time></trkpt><trkpt lat="14.57341303323471" lon="120.99906687661762"><ele>7.0</ele><time>2026-04-18T07:13:20Z</time></trkpt><trkpt lat="14.57354803492278" lon="120.99898972762847"><ele>7.0</ele><time>2026-04-18T07:13:21Z</time></trkpt><trkpt lat="14.573683144366877" lon="120.99890958334622"><ele>7.0</ele><time>2026-04-18T07:13:22Z</time></trkpt><trkpt lat="14.573823742510495" lon="120.99883136262766"><ele>6.666666666666667</ele><time>2026-04-18T07:13:23Z</time></trkpt><trkpt lat="14.573963169708328" lon="120.99875664878313"><ele>6.333333333333334</ele><time>2026-04-18T07:13:24Z</time></trkpt><trkpt lat="14.57410437929989" lon="120.99868172534471"><ele>6.0</ele><time>2026-04-18T07:13:25Z</time></trkpt><trkpt lat="14.574244704535472" lon="120.99860797695945"><ele>6.0</ele><time>2026-04-18T07:13:26Z</time></trkpt><trkpt lat="14.574381721923364" lon="120.99853427295783"><ele>6.0</ele><time>2026-04-18T07:13:27Z</time></trkpt><trkpt lat="14.574519014155692" lon="120.9984610878286"><ele>6.0</ele><time>2026-04-18T07:13:28Z</time></trkpt><trkpt lat="14.57465343320876" lon="120.99838868655776"><ele>6.0</ele><time>2026-04-18T07:13:29Z</time></trkpt><trkpt lat="14.574788118413643" lon="120.99831648795855"><ele>6.0</ele><time>2026-04-18T07:13:30Z</time></trkpt><trkpt lat="14.57492274741147" lon="120.9982449470625"><ele>6.0</ele><time>2026-04-18T07:13:31Z</time></trkpt><trkpt lat="14.575057570077666" lon="120.9981726976852"><ele>6.0</ele><time>2026-04-18T07:13:32Z</time></trkpt><trkpt lat="14.575191510672125" lon="120.99809998735256"><ele>6.0</ele><time>2026-04-18T07:13:33Z</time></trkpt><trkpt lat="14.575323490988566" lon="120.9980302193731"><ele>6.0</ele><time>2026-04-18T07:13:34Z</time></trkpt><trkpt lat="14.575454386218277" lon="120.99795995949478"><ele>6.0</ele><time>2026-04-18T07:13:35Z</time></trkpt><trkpt lat="14.575582422411394" lon="120.99789153484865"><ele>5.75</ele><time>2026-04-18T07:13:36Z</time></trkpt><trkpt lat="14.575706867484254" lon="120.99782840100855"><ele>5.5</ele><time>2026-04-18T07:13:37Z</time></trkpt><trkpt lat="14.575824826437024" lon="120.99777251356065"><ele>5.25</ele><time>2026-04-18T07:13:38Z</time></trkpt><trkpt lat="14.575940515926352" lon="120.9977232428177"><ele>5.0</ele><time>2026-04-18T07:13:39Z</time></trkpt><trkpt lat="14.576056643952427" lon="120.99767733547795"><ele>5.0</ele><time>2026-04-18T07:13:40Z</time></trkpt><trkpt lat="14.576174111807058" lon="120.99763676194772"><ele>5.0</ele><time>2026-04-18T07:13:41Z</time></trkpt><trkpt lat="14.57629528741131" lon="120.99760144056971"><ele>5.0</ele><time>2026-04-18T07:13:42Z</time></trkpt><trkpt lat="14.576419299570276" lon="120.99757439708121"><ele>5.0</ele><time>2026-04-18T07:13:43Z</time></trkpt><trkpt lat="14.5765479523535" lon="120.99755263107095"><ele>5.0</ele><time>2026-04-18T07:13:44Z</time></trkpt><trkpt lat="14.576681480643696" lon="120.99753835784763"><ele>5.0</ele><time>2026-04-18T07:13:45Z</time></trkpt><trkpt lat="14.57681867320225" lon="120.99753288479343"><ele>5.0</ele><time>2026-04-18T07:13:46Z</time></trkpt><trkpt lat="14.576958539318305" lon="120.99753372759702"><ele>5.0</ele><time>2026-04-18T07:13:47Z</time></trkpt><trkpt lat="14.577101535777828" lon="120.99754407948377"><ele>6.666666666666667</ele><time>2026-04-18T07:13:48Z</time></trkpt><trkpt lat="14.57724709724969" lon="120.99756515378616"><ele>8.333333333333334</ele><time>2026-04-18T07:13:49Z</time></trkpt><trkpt lat="14.577395032739467" lon="120.99759551048606"><ele>10.0</ele><time>2026-04-18T07:13:50Z</time></trkpt><trkpt lat="14.577543798684939" lon="120.9976369502859"><ele>10.0</ele><time>2026-04-18T07:13:51Z</time></trkpt><trkpt lat="14.577692681003857" lon="120.99768948624086"><ele>10.0</ele><time>2026-04-18T07:13:52Z</time></trkpt><trkpt lat="14.57784073788504" lon="120.99775633892628"><ele>10.0</ele><time>2026-04-18T07:13:53Z</time></trkpt><trkpt lat="14.577984102493541" lon="120.99783667157651"><ele>8.666666666666668</ele><time>2026-04-18T07:13:54Z</time></trkpt><trkpt lat="14.578127482618491" lon="120.99792982449301"><ele>7.333333333333334</ele><time>2026-04-18T07:13:55Z</time></trkpt><trkpt lat="14.578267501357576" lon="120.99802923954665"><ele>6.0</ele><time>2026-04-18T07:13:56Z</time></trkpt><trkpt lat="14.578405101375028" lon="120.99813307233937"><ele>6.0</ele><time>2026-04-18T07:13:57Z</time></trkpt><trkpt lat="14.578542782790569" lon="120.99823577537833"><ele>6.0</ele><time>2026-04-18T07:13:58Z</time></trkpt><trkpt lat="14.57868389890193" lon="120.99834178547867"><ele>6.0</ele><time>2026-04-18T07:13:59Z</time></trkpt><trkpt lat="14.578826080104234" lon="120.99845476640104"><ele>6.0</ele><time>2026-04-18T07:14:00Z</time></trkpt><trkpt lat="14.578970385926079" lon="120.99856671315696"><ele>6.0</ele><time>2026-04-18T07:14:01Z</time></trkpt><trkpt lat="14.579114958665278" lon="120.99868108838042"><ele>6.0</ele><time>2026-04-18T07:14:02Z</time></trkpt><trkpt lat="14.579263423818475" lon="120.99880028646639"><ele>6.0</ele><time>2026-04-18T07:14:03Z</time></trkpt><trkpt lat="14.579413022339764" lon="120.9989219847416"><ele>6.0</ele><time>2026-04-18T07:14:04Z</time></trkpt><trkpt lat="14.579561222121828" lon="120.99904210708641"><ele>6.0</ele><time>2026-04-18T07:14:05Z</time></trkpt><trkpt lat="14.579711223608953" lon="120.99916253465257"><ele>7.333333333333334</ele><time>2026-04-18T07:14:06Z</time></trkpt><trkpt lat="14.579859824248606" lon="120.9992833960253"><ele>8.666666666666668</ele><time>2026-04-18T07:14:07.001Z</time></trkpt><trkpt lat="14.580008430019062" lon="120.99940265337273"><ele>10.0</ele><time>2026-04-18T07:14:08.001Z</time></trkpt><trkpt lat="14.580154223439836" lon="120.99952018521773"><ele>10.0</ele><time>2026-04-18T07:14:09.001Z</time></trkpt><trkpt lat="14.580297936536702" lon="120.99963649015125"><ele>10.0</ele><time>2026-04-18T07:14:10.001Z</time></trkpt><trkpt lat="14.580441776497361" lon="120.9997537205126"><ele>10.0</ele><time>2026-04-18T07:14:11.001Z</time></trkpt><trkpt lat="14.580585714955447" lon="120.99987090798267"><ele>9.333333333333334</ele><time>2026-04-18T07:14:12.001Z</time></trkpt><trkpt lat="14.580728180852887" lon="120.99998934219765"><ele>8.666666666666666</ele><time>2026-04-18T07:14:13.001Z</time></trkpt><trkpt lat="14.580870787544827" lon="121.00010906473142"><ele>8.0</ele><time>2026-04-18T07:14:14.001Z</time></trkpt><trkpt lat="14.581009758256895" lon="121.00023038552274"><ele>8.0</ele><time>2026-04-18T07:14:15.001Z</time></trkpt><trkpt lat="14.58115007582924" lon="121.00034720056667"><ele>8.0</ele><time>2026-04-18T07:14:16.001Z</time></trkpt><trkpt lat="14.581288184894186" lon="121.00046401645268"><ele>8.0</ele><time>2026-04-18T07:14:17.001Z</time></trkpt><trkpt lat="14.581423278678955" lon="121.00057867522959"><ele>8.0</ele><time>2026-04-18T07:14:18.001Z</time></trkpt><trkpt lat="14.58155285616292" lon="121.00068836937349"><ele>8.0</ele><time>2026-04-18T07:14:19.001Z</time></trkpt><trkpt lat="14.581679463455595" lon="121.00079727399492"><ele>8.0</ele><time>2026-04-18T07:14:20.001Z</time></trkpt><trkpt lat="14.581801239070355" lon="121.00090175662939"><ele>8.25</ele><time>2026-04-18T07:14:21.001Z</time></trkpt><trkpt lat="14.581918008301093" lon="121.00100240680078"><ele>8.5</ele><time>2026-04-18T07:14:22.001Z</time></trkpt><trkpt lat="14.582029804314873" lon="121.00109904092469"><ele>8.75</ele><time>2026-04-18T07:14:23.001Z</time></trkpt><trkpt lat="14.582142973127567" lon="121.00119483794874"><ele>9.0</ele><time>2026-04-18T07:14:24.001Z</time></trkpt><trkpt lat="14.582257314031375" lon="121.00129286812277"><ele>9.0</ele><time>2026-04-18T07:14:25.001Z</time></trkpt><trkpt lat="14.58237005426771" lon="121.00139296752691"><ele>9.0</ele><time>2026-04-18T07:14:26.001Z</time></trkpt><trkpt lat="14.582484396583423" lon="121.0014964204066"><ele>9.0</ele><time>2026-04-18T07:14:27.001Z</time></trkpt><trkpt lat="14.582599371012737" lon="121.00160170408239"><ele>8.666666666666666</ele><time>2026-04-18T07:14:28.001Z</time></trkpt><trkpt lat="14.582717179168" lon="121.00170695187573"><ele>8.333333333333332</ele><time>2026-04-18T07:14:29.001Z</time></trkpt><trkpt lat="14.582836873552656" lon="121.00181381766778"><ele>8.0</ele><time>2026-04-18T07:14:30.001Z</time></trkpt><trkpt lat="14.582957237443393" lon="121.00192404894668"><ele>8.0</ele><time>2026-04-18T07:14:31.001Z</time></trkpt><trkpt lat="14.583078778970398" lon="121.00203691313645"><ele>8.0</ele><time>2026-04-18T07:14:32.001Z</time></trkpt><trkpt lat="14.583200514207363" lon="121.00215444865489"><ele>8.0</ele><time>2026-04-18T07:14:33.001Z</time></trkpt><trkpt lat="14.583320471676705" lon="121.00227058342762"><ele>8.0</ele><time>2026-04-18T07:14:34.001Z</time></trkpt><trkpt lat="14.583442324594694" lon="121.00238968649137"><ele>8.0</ele><time>2026-04-18T07:14:35.001Z</time></trkpt><trkpt lat="14.583562668906495" lon="121.00250801563296"><ele>8.0</ele><time>2026-04-18T07:14:36.001Z</time></trkpt><trkpt lat="14.583682248222994" lon="121.0026290484917"><ele>7.666666666666666</ele><time>2026-04-18T07:14:37.001Z</time></trkpt><trkpt lat="14.58380721734646" lon="121.00274822970712"><ele>7.333333333333334</ele><time>2026-04-18T07:14:38.001Z</time></trkpt><trkpt lat="14.58393162347164" lon="121.00286842794024"><ele>7.0</ele><time>2026-04-18T07:14:39.001Z</time></trkpt><trkpt lat="14.584046549897131" lon="121.00298361784967"><ele>7.0</ele><time>2026-04-18T07:14:40.001Z</time></trkpt><trkpt lat="14.584152305960995" lon="121.00309429660555"><ele>7.0</ele><time>2026-04-18T07:14:41.001Z</time></trkpt><trkpt lat="14.584273689160973" lon="121.00321402553985"><ele>7.0</ele><time>2026-04-18T07:14:42.001Z</time></trkpt><trkpt lat="14.58439511658624" lon="121.00333142605282"><ele>6.666666666666667</ele><time>2026-04-18T07:14:43.001Z</time></trkpt><trkpt lat="14.584520607785581" lon="121.00345002314981"><ele>6.333333333333334</ele><time>2026-04-18T07:14:44.001Z</time></trkpt><trkpt lat="14.584636106768198" lon="121.00356166412344"><ele>6.0</ele><time>2026-04-18T07:14:45.001Z</time></trkpt><trkpt lat="14.584751383069584" lon="121.00368165538212"><ele>6.0</ele><time>2026-04-18T07:14:46.001Z</time></trkpt><trkpt lat="14.584876936257903" lon="121.00379662064215"><ele>6.0</ele><time>2026-04-18T07:14:47.001Z</time></trkpt><trkpt lat="14.584991716462408" lon="121.00391704709946"><ele>6.0</ele><time>2026-04-18T07:14:48.001Z</time></trkpt><trkpt lat="14.585115594923824" lon="121.00403452998545"><ele>6.0</ele><time>2026-04-18T07:14:49.001Z</time></trkpt><trkpt lat="14.585216686964136" lon="121.00418336616251"><ele>6.0</ele><time>2026-04-18T07:14:50.001Z</time></trkpt><trkpt lat="14.585348600385064" lon="121.00429759714466"><ele>6.0</ele><time>2026-04-18T07:14:51.001Z</time></trkpt><trkpt lat="14.585485082716847" lon="121.00440994279921"><ele>6.0</ele><time>2026-04-18T07:14:52.001Z</time></trkpt><trkpt lat="14.585641293688276" lon="121.00452703197408"><ele>6.0</ele><time>2026-04-18T07:14:53.001Z</time></trkpt><trkpt lat="14.58578377773724" lon="121.00464758586281"><ele>6.0</ele><time>2026-04-18T07:14:54Z</time></trkpt><trkpt lat="14.585929807111988" lon="121.00477637001299"><ele>6.0</ele><time>2026-04-18T07:14:55Z</time></trkpt><trkpt lat="14.58607527295798" lon="121.004902137853"><ele>6.0</ele><time>2026-04-18T07:14:56Z</time></trkpt><trkpt lat="14.586216607440072" lon="121.005022503498"><ele>6.0</ele><time>2026-04-18T07:14:57Z</time></trkpt><trkpt lat="14.586354493881737" lon="121.0051434280914"><ele>6.333333333333334</ele><time>2026-04-18T07:14:58Z</time></trkpt><trkpt lat="14.586491265184105" lon="121.00526103317345"><ele>6.666666666666667</ele><time>2026-04-18T07:14:59Z</time></trkpt><trkpt lat="14.586627916930889" lon="121.0053782046905"><ele>7.0</ele><time>2026-04-18T07:15:00Z</time></trkpt><trkpt lat="14.586766951781895" lon="121.00550100301206"><ele>7.0</ele><time>2026-04-18T07:15:01Z</time></trkpt><trkpt lat="14.586895158107493" lon="121.00561687377292"><ele>7.0</ele><time>2026-04-18T07:15:02Z</time></trkpt><trkpt lat="14.587021463228075" lon="121.00573977581504"><ele>7.0</ele><time>2026-04-18T07:15:03Z</time></trkpt><trkpt lat="14.58714030761251" lon="121.00586351127437"><ele>7.0</ele><time>2026-04-18T07:15:04Z</time></trkpt><trkpt lat="14.587249332356704" lon="121.00598887086795"><ele>7.0</ele><time>2026-04-18T07:15:05Z</time></trkpt><trkpt lat="14.587351762336164" lon="121.00611444304486"><ele>7.0</ele><time>2026-04-18T07:15:06Z</time></trkpt><trkpt lat="14.58745483230701" lon="121.0062421858109"><ele>7.0</ele><time>2026-04-18T07:15:07Z</time></trkpt><trkpt lat="14.587555903584736" lon="121.00637241456725"><ele>7.0</ele><time>2026-04-18T07:15:08Z</time></trkpt><trkpt lat="14.587657323941611" lon="121.0065007754455"><ele>7.0</ele><time>2026-04-18T07:15:09Z</time></trkpt><trkpt lat="14.587757661669519" lon="121.00662719879205"><ele>7.333333333333334</ele><time>2026-04-18T07:15:10Z</time></trkpt><trkpt lat="14.58785765827882" lon="121.00675627303184"><ele>7.666666666666666</ele><time>2026-04-18T07:15:11Z</time></trkpt><trkpt lat="14.587960313097689" lon="121.00688799118828"><ele>8.0</ele><time>2026-04-18T07:15:12Z</time></trkpt><trkpt lat="14.588063755670081" lon="121.00701724693813"><ele>8.0</ele><time>2026-04-18T07:15:13Z</time></trkpt><trkpt lat="14.588170450751797" lon="121.00714552938706"><ele>8.0</ele><time>2026-04-18T07:15:14Z</time></trkpt><trkpt lat="14.588283381732523" lon="121.00726902710898"><ele>8.0</ele><time>2026-04-18T07:15:15Z</time></trkpt><trkpt lat="14.588405507553656" lon="121.00738682993696"><ele>7.666666666666666</ele><time>2026-04-18T07:15:16Z</time></trkpt><trkpt lat="14.588535157368947" lon="121.00750201539958"><ele>7.333333333333334</ele><time>2026-04-18T07:15:17Z</time></trkpt><trkpt lat="14.588661744942046" lon="121.00761127067764"><ele>7.0</ele><time>2026-04-18T07:15:18Z</time></trkpt><trkpt lat="14.58878709616788" lon="121.00771968910324"><ele>6.333333333333334</ele><time>2026-04-18T07:15:19Z</time></trkpt><trkpt lat="14.58891488866412" lon="121.00782856059186"><ele>5.666666666666667</ele><time>2026-04-18T07:15:20Z</time></trkpt><trkpt lat="14.589045440267853" lon="121.00794001478612"><ele>5.0</ele><time>2026-04-18T07:15:21Z</time></trkpt><trkpt lat="14.589170039070305" lon="121.0080500337482"><ele>5.0</ele><time>2026-04-18T07:15:22Z</time></trkpt><trkpt lat="14.589281754064318" lon="121.0081615088288"><ele>5.0</ele><time>2026-04-18T07:15:23Z</time></trkpt><trkpt lat="14.589395883660382" lon="121.00827008771482"><ele>5.0</ele><time>2026-04-18T07:15:24Z</time></trkpt><trkpt lat="14.589500347640673" lon="121.00838544244483"><ele>5.5</ele><time>2026-04-18T07:15:25Z</time></trkpt><trkpt lat="14.589578970430768" lon="121.00850620638408"><ele>6.0</ele><time>2026-04-18T07:15:26Z</time></trkpt><trkpt lat="14.589644004510584" lon="121.00864086741018"><ele>6.5</ele><time>2026-04-18T07:15:27Z</time></trkpt><trkpt lat="14.58969493331798" lon="121.00878436610131"><ele>7.0</ele><time>2026-04-18T07:15:28Z</time></trkpt><trkpt lat="14.589736544315327" lon="121.0089387151848"><ele>7.0</ele><time>2026-04-18T07:15:29Z</time></trkpt><trkpt lat="14.58975738815162" lon="121.00909828055072"><ele>7.0</ele><time>2026-04-18T07:15:30Z</time></trkpt><trkpt lat="14.589755137893878" lon="121.00925753738453"><ele>7.0</ele><time>2026-04-18T07:15:31Z</time></trkpt><trkpt lat="14.589743640043187" lon="121.00941449258158"><ele>7.0</ele><time>2026-04-18T07:15:32Z</time></trkpt><trkpt lat="14.589710204900308" lon="121.00956473375662"><ele>7.0</ele><time>2026-04-18T07:15:33Z</time></trkpt><trkpt lat="14.58966340453849" lon="121.0097015254539"><ele>7.0</ele><time>2026-04-18T07:15:34Z</time></trkpt><trkpt lat="14.589589668514437" lon="121.00984217391976"><ele>7.0</ele><time>2026-04-18T07:15:35Z</time></trkpt><trkpt lat="14.589540323060007" lon="121.009999100835"><ele>7.0</ele><time>2026-04-18T07:15:36Z</time></trkpt><trkpt lat="14.589487218736103" lon="121.01015629296441"><ele>7.0</ele><time>2026-04-18T07:15:37Z</time></trkpt><trkpt lat="14.589435033970092" lon="121.010315654925"><ele>7.0</ele><time>2026-04-18T07:15:38Z</time></trkpt><trkpt lat="14.589387537956986" lon="121.01047093381392"><ele>7.0</ele><time>2026-04-18T07:15:39Z</time></trkpt><trkpt lat="14.589337485526148" lon="121.0106226977859"><ele>7.0</ele><time>2026-04-18T07:15:40Z</time></trkpt><trkpt lat="14.589289826716826" lon="121.0107847573472"><ele>7.0</ele><time>2026-04-18T07:15:41Z</time></trkpt><trkpt lat="14.589254787659476" lon="121.01094327023986"><ele>6.333333333333334</ele><time>2026-04-18T07:15:42Z</time></trkpt><trkpt lat="14.589227902534116" lon="121.01110322408907"><ele>5.666666666666667</ele><time>2026-04-18T07:15:43Z</time></trkpt><trkpt lat="14.589212386322744" lon="121.01125758529042"><ele>5.0</ele><time>2026-04-18T07:15:44Z</time></trkpt><trkpt lat="14.589206728615345" lon="121.0114192443687"><ele>5.0</ele><time>2026-04-18T07:15:45Z</time></trkpt><trkpt lat="14.589212252867284" lon="121.01158638446303"><ele>5.0</ele><time>2026-04-18T07:15:46Z</time></trkpt><trkpt lat="14.589230750475418" lon="121.01175064921546"><ele>5.0</ele><time>2026-04-18T07:15:47Z</time></trkpt><trkpt lat="14.5892609319035" lon="121.01191471076638"><ele>4.666666666666667</ele><time>2026-04-18T07:15:48Z</time></trkpt><trkpt lat="14.589303962850003" lon="121.01207464455398"><ele>4.333333333333333</ele><time>2026-04-18T07:15:49Z</time></trkpt><trkpt lat="14.589359878973992" lon="121.01223004411439"><ele>4.0</ele><time>2026-04-18T07:15:50Z</time></trkpt><trkpt lat="14.589427247925123" lon="121.01238207344365"><ele>4.0</ele><time>2026-04-18T07:15:51Z</time></trkpt><trkpt lat="14.589504997561642" lon="121.01252786319597"><ele>4.0</ele><time>2026-04-18T07:15:52Z</time></trkpt><trkpt lat="14.589585568231165" lon="121.01267254121422"><ele>4.0</ele><time>2026-04-18T07:15:53Z</time></trkpt><trkpt lat="14.589664193711384" lon="121.01281315751893"><ele>4.0</ele><time>2026-04-18T07:15:54Z</time></trkpt><trkpt lat="14.589736505388382" lon="121.01295148588227"><ele>4.0</ele><time>2026-04-18T07:15:55Z</time></trkpt><trkpt lat="14.589800405341416" lon="121.01309396154276"><ele>4.0</ele><time>2026-04-18T07:15:56Z</time></trkpt><trkpt lat="14.589851572884525" lon="121.01323909320105"><ele>3.5</ele><time>2026-04-18T07:15:57Z</time></trkpt><trkpt lat="14.589885301001674" lon="121.01338944625026"><ele>3.0</ele><time>2026-04-18T07:15:58Z</time></trkpt><trkpt lat="14.589899594095142" lon="121.01354138663869"><ele>2.5</ele><time>2026-04-18T07:15:59Z</time></trkpt><trkpt lat="14.589893640053258" lon="121.01369377588559"><ele>2.0</ele><time>2026-04-18T07:16:00Z</time></trkpt><trkpt lat="14.589870583591626" lon="121.01384622002006"><ele>2.0</ele><time>2026-04-18T07:16:01Z</time></trkpt><trkpt lat="14.589827994052325" lon="121.01399463816799"><ele>2.0</ele><time>2026-04-18T07:16:02Z</time></trkpt><trkpt lat="14.589769205209059" lon="121.01413765240542"><ele>2.0</ele><time>2026-04-18T07:16:03Z</time></trkpt><trkpt lat="14.589689731618538" lon="121.01427636947348"><ele>3.0</ele><time>2026-04-18T07:16:04Z</time></trkpt><trkpt lat="14.589592783476318" lon="121.01440337021222"><ele>4.0</ele><time>2026-04-18T07:16:05Z</time></trkpt><trkpt lat="14.58947895556908" lon="121.01451933234978"><ele>5.0</ele><time>2026-04-18T07:16:06Z</time></trkpt><trkpt lat="14.589357266182605" lon="121.01462234315117"><ele>5.0</ele><time>2026-04-18T07:16:07Z</time></trkpt><trkpt lat="14.5892322440853" lon="121.0147270274912"><ele>5.0</ele><time>2026-04-18T07:16:08Z</time></trkpt><trkpt lat="14.589113155248615" lon="121.01484373413727"><ele>5.0</ele><time>2026-04-18T07:16:09Z</time></trkpt><trkpt lat="14.589001593437914" lon="121.01497174547738"><ele>6.0</ele><time>2026-04-18T07:16:10Z</time></trkpt><trkpt lat="14.588901060650294" lon="121.0151085275641"><ele>7.0</ele><time>2026-04-18T07:16:11Z</time></trkpt><trkpt lat="14.58880468771568" lon="121.01525526048653"><ele>8.0</ele><time>2026-04-18T07:16:12Z</time></trkpt><trkpt lat="14.588726353972158" lon="121.01540584795845"><ele>7.666666666666666</ele><time>2026-04-18T07:16:13Z</time></trkpt><trkpt lat="14.588654394724976" lon="121.0155658360137"><ele>7.333333333333334</ele><time>2026-04-18T07:16:14Z</time></trkpt><trkpt lat="14.588593961696045" lon="121.01573105100682"><ele>7.0</ele><time>2026-04-18T07:16:15Z</time></trkpt><trkpt lat="14.588545649170888" lon="121.01590210664236"><ele>7.0</ele><time>2026-04-18T07:16:16Z</time></trkpt><trkpt lat="14.588508805745072" lon="121.0160778608928"><ele>7.0</ele><time>2026-04-18T07:16:17Z</time></trkpt><trkpt lat="14.588485426403135" lon="121.01625783886337"><ele>7.0</ele><time>2026-04-18T07:16:18Z</time></trkpt><trkpt lat="14.588474198563624" lon="121.01644582874249"><ele>7.0</ele><time>2026-04-18T07:16:19Z</time></trkpt><trkpt lat="14.58847460407762" lon="121.01663364070038"><ele>7.0</ele><time>2026-04-18T07:16:20.001Z</time></trkpt><trkpt lat="14.588477031360375" lon="121.01682409479082"><ele>7.0</ele><time>2026-04-18T07:16:21.001Z</time></trkpt><trkpt lat="14.588483490008251" lon="121.01701637163195"><ele>5.333333333333334</ele><time>2026-04-18T07:16:22.001Z</time></trkpt><trkpt lat="14.58849231002634" lon="121.01720852085853"><ele>3.666666666666667</ele><time>2026-04-18T07:16:23.001Z</time></trkpt><trkpt lat="14.588504283189108" lon="121.01740626742999"><ele>2.0</ele><time>2026-04-18T07:16:24.001Z</time></trkpt><trkpt lat="14.588520788484942" lon="121.01760370611265"><ele>2.0</ele><time>2026-04-18T07:16:25.001Z</time></trkpt><trkpt lat="14.588541717542684" lon="121.01780078964141"><ele>2.0</ele><time>2026-04-18T07:16:26.001Z</time></trkpt><trkpt lat="14.588567096081507" lon="121.0179987394139"><ele>2.0</ele><time>2026-04-18T07:16:27.001Z</time></trkpt><trkpt lat="14.588596086476395" lon="121.01819563863056"><ele>3.0</ele><time>2026-04-18T07:16:28.001Z</time></trkpt><trkpt lat="14.588630066556298" lon="121.018395978877"><ele>4.0</ele><time>2026-04-18T07:16:29.001Z</time></trkpt><trkpt lat="14.588668098882614" lon="121.01859772224277"><ele>5.0</ele><time>2026-04-18T07:16:30.001Z</time></trkpt><trkpt lat="14.588710143060728" lon="121.01879919879883"><ele>5.0</ele><time>2026-04-18T07:16:31.001Z</time></trkpt><trkpt lat="14.58875726071088" lon="121.01900283589346"><ele>5.0</ele><time>2026-04-18T07:16:32.001Z</time></trkpt><trkpt lat="14.58880930333001" lon="121.01920467037415"><ele>5.0</ele><time>2026-04-18T07:16:33.001Z</time></trkpt><trkpt lat="14.588866628014673" lon="121.01940544781164"><ele>5.0</ele><time>2026-04-18T07:16:34.001Z</time></trkpt><trkpt lat="14.58892795365402" lon="121.01960593000905"><ele>5.0</ele><time>2026-04-18T07:16:35.001Z</time></trkpt><trkpt lat="14.588994226271504" lon="121.01980529255655"><ele>5.0</ele><time>2026-04-18T07:16:36.001Z</time></trkpt><trkpt lat="14.589063370060565" lon="121.02000287266416"><ele>5.0</ele><time>2026-04-18T07:16:37.001Z</time></trkpt><trkpt lat="14.589136362551725" lon="121.02019710015819"><ele>5.0</ele><time>2026-04-18T07:16:38.001Z</time></trkpt><trkpt lat="14.58921286430029" lon="121.02039518755895"><ele>5.0</ele><time>2026-04-18T07:16:39.001Z</time></trkpt><trkpt lat="14.589292060355442" lon="121.02058943478934"><ele>5.0</ele><time>2026-04-18T07:16:40.001Z</time></trkpt><trkpt lat="14.589374441794167" lon="121.02078138891653"><ele>5.0</ele><time>2026-04-18T07:16:41.001Z</time></trkpt><trkpt lat="14.589460048060017" lon="121.02096673139323"><ele>5.0</ele><time>2026-04-18T07:16:42.001Z</time></trkpt><trkpt lat="14.589545658314204" lon="121.02114730870393"><ele>4.666666666666667</ele><time>2026-04-18T07:16:43.001Z</time></trkpt><trkpt lat="14.589634101288784" lon="121.02132731345112"><ele>4.333333333333333</ele><time>2026-04-18T07:16:44.001Z</time></trkpt><trkpt lat="14.589721070579452" lon="121.02150107808795"><ele>4.0</ele><time>2026-04-18T07:16:45.001Z</time></trkpt><trkpt lat="14.589811636523912" lon="121.02166922009677"><ele>4.0</ele><time>2026-04-18T07:16:46.001Z</time></trkpt><trkpt lat="14.589905430767875" lon="121.02183335604234"><ele>4.0</ele><time>2026-04-18T07:16:47.001Z</time></trkpt><trkpt lat="14.59000497612009" lon="121.02199577390876"><ele>4.0</ele><time>2026-04-18T07:16:48.001Z</time></trkpt><trkpt lat="14.59010741955538" lon="121.02215674599564"><ele>4.0</ele><time>2026-04-18T07:16:49.001Z</time></trkpt><trkpt lat="14.590214643808189" lon="121.02231786345438"><ele>4.0</ele><time>2026-04-18T07:16:50.001Z</time></trkpt><trkpt lat="14.590305281086758" lon="121.02248895590233"><ele>4.0</ele><time>2026-04-18T07:16:51.001Z</time></trkpt><trkpt lat="14.590405784470049" lon="121.0226575561745"><ele>4.0</ele><time>2026-04-18T07:16:52.001Z</time></trkpt><trkpt lat="14.590520848654775" lon="121.02282089653211"><ele>4.0</ele><time>2026-04-18T07:16:53.001Z</time></trkpt><trkpt lat="14.590658216596308" lon="121.02297024354856"><ele>4.0</ele><time>2026-04-18T07:16:54.001Z</time></trkpt><trkpt lat="14.59079351166622" lon="121.02311387481987"><ele>4.0</ele><time>2026-04-18T07:16:55.001Z</time></trkpt><trkpt lat="14.590928435226706" lon="121.02325711169536"><ele>4.0</ele><time>2026-04-18T07:16:56.001Z</time></trkpt><trkpt lat="14.591063513547319" lon="121.02340051284186"><ele>4.0</ele><time>2026-04-18T07:16:57.001Z</time></trkpt><trkpt lat="14.591199036576278" lon="121.02354438612488"><ele>3.6666666666666665</ele><time>2026-04-18T07:16:58.001Z</time></trkpt><trkpt lat="14.59133486092309" lon="121.02368857928717"><ele>3.333333333333333</ele><time>2026-04-18T07:16:59.001Z</time></trkpt><trkpt lat="14.591469209883067" lon="121.02383120615133"><ele>3.0</ele><time>2026-04-18T07:17:00Z</time></trkpt><trkpt lat="14.591605893628213" lon="121.02396874845296"><ele>3.0</ele><time>2026-04-18T07:17:01Z</time></trkpt><trkpt lat="14.591725318301252" lon="121.02412401409048"><ele>3.0</ele><time>2026-04-18T07:17:02Z</time></trkpt><trkpt lat="14.59183994268407" lon="121.02428356805274"><ele>3.0</ele><time>2026-04-18T07:17:03Z</time></trkpt><trkpt lat="14.591954207712895" lon="121.02444900680507"><ele>3.666666666666667</ele><time>2026-04-18T07:17:04Z</time></trkpt><trkpt lat="14.59206386074197" lon="121.02461295679987"><ele>4.333333333333334</ele><time>2026-04-18T07:17:05Z</time></trkpt><trkpt lat="14.592174012257216" lon="121.02477613419731"><ele>5.0</ele><time>2026-04-18T07:17:06Z</time></trkpt><trkpt lat="14.592289147406465" lon="121.02493816524245"><ele>6.0</ele><time>2026-04-18T07:17:07Z</time></trkpt><trkpt lat="14.592407708080003" lon="121.02509442659057"><ele>7.0</ele><time>2026-04-18T07:17:08Z</time></trkpt><trkpt lat="14.592530941189858" lon="121.02523958633252"><ele>8.0</ele><time>2026-04-18T07:17:09Z</time></trkpt><trkpt lat="14.592661389992099" lon="121.02537516962586"><ele>8.0</ele><time>2026-04-18T07:17:10Z</time></trkpt><trkpt lat="14.59280252782132" lon="121.0255023374061"><ele>8.0</ele><time>2026-04-18T07:17:11Z</time></trkpt><trkpt lat="14.592948945189269" lon="121.02561267515019"><ele>8.0</ele><time>2026-04-18T07:17:12Z</time></trkpt><trkpt lat="14.593104664543205" lon="121.02571031312216"><ele>7.0</ele><time>2026-04-18T07:17:13Z</time></trkpt><trkpt lat="14.593264876652398" lon="121.02578916582793"><ele>6.0</ele><time>2026-04-18T07:17:14Z</time></trkpt><trkpt lat="14.593428429527638" lon="121.02586304891628"><ele>5.0</ele><time>2026-04-18T07:17:15Z</time></trkpt><trkpt lat="14.593595232412824" lon="121.02592113409237"><ele>4.333333333333334</ele><time>2026-04-18T07:17:16Z</time></trkpt><trkpt lat="14.593766789585073" lon="121.02596520784974"><ele>3.666666666666667</ele><time>2026-04-18T07:17:17Z</time></trkpt><trkpt lat="14.59394055959374" lon="121.02599503932942"><ele>3.0</ele><time>2026-04-18T07:17:18Z</time></trkpt><trkpt lat="14.594117733318413" lon="121.02601285332932"><ele>3.0</ele><time>2026-04-18T07:17:19Z</time></trkpt><trkpt lat="14.594296156890685" lon="121.0260171889306"><ele>3.0</ele><time>2026-04-18T07:17:20Z</time></trkpt><trkpt lat="14.594472220194104" lon="121.02600781183276"><ele>3.0</ele><time>2026-04-18T07:17:21Z</time></trkpt><trkpt lat="14.59464677367098" lon="121.02598487674415"><ele>3.0</ele><time>2026-04-18T07:17:22Z</time></trkpt><trkpt lat="14.594819021428181" lon="121.0259491766394"><ele>3.0</ele><time>2026-04-18T07:17:23Z</time></trkpt><trkpt lat="14.594990607692026" lon="121.02590086299662"><ele>3.0</ele><time>2026-04-18T07:17:24Z</time></trkpt><trkpt lat="14.595158410946407" lon="121.0258392152558"><ele>4.0</ele><time>2026-04-18T07:17:25Z</time></trkpt><trkpt lat="14.595322884285686" lon="121.02576349812911"><ele>5.0</ele><time>2026-04-18T07:17:26Z</time></trkpt><trkpt lat="14.595488982515262" lon="121.02568409750498"><ele>6.0</ele><time>2026-04-18T07:17:27Z</time></trkpt><trkpt lat="14.595657832647827" lon="121.02560123305157"><ele>6.0</ele><time>2026-04-18T07:17:28Z</time></trkpt><trkpt lat="14.59583241334665" lon="121.0255196848374"><ele>6.0</ele><time>2026-04-18T07:17:29Z</time></trkpt><trkpt lat="14.59601028284635" lon="121.02543601898995"><ele>6.0</ele><time>2026-04-18T07:17:30Z</time></trkpt><trkpt lat="14.596190605524791" lon="121.0253497525327"><ele>5.333333333333333</ele><time>2026-04-18T07:17:31Z</time></trkpt><trkpt lat="14.596373134768761" lon="121.02526190288458"><ele>4.666666666666666</ele><time>2026-04-18T07:17:32Z</time></trkpt><trkpt lat="14.596556290471328" lon="121.02517454773717"><ele>4.0</ele><time>2026-04-18T07:17:33Z</time></trkpt><trkpt lat="14.596740561063" lon="121.02508887324548"><ele>4.0</ele><time>2026-04-18T07:17:34Z</time></trkpt><trkpt lat="14.59692308817474" lon="121.02500286417899"><ele>4.0</ele><time>2026-04-18T07:17:35Z</time></trkpt><trkpt lat="14.59710528708064" lon="121.02491300654548"><ele>4.0</ele><time>2026-04-18T07:17:36Z</time></trkpt><trkpt lat="14.59728751400085" lon="121.02481705577348"><ele>4.0</ele><time>2026-04-18T07:17:37Z</time></trkpt><trkpt lat="14.59746783150098" lon="121.0247170507037"><ele>4.0</ele><time>2026-04-18T07:17:38Z</time></trkpt><trkpt lat="14.597645873675232" lon="121.0246107643227"><ele>4.0</ele><time>2026-04-18T07:17:39Z</time></trkpt><trkpt lat="14.597821660352174" lon="121.02449983007392"><ele>4.666666666666666</ele><time>2026-04-18T07:17:40Z</time></trkpt><trkpt lat="14.597999412001734" lon="121.02438901392338"><ele>5.333333333333333</ele><time>2026-04-18T07:17:41Z</time></trkpt><trkpt lat="14.598177788867178" lon="121.02427686198702"><ele>6.0</ele><time>2026-04-18T07:17:42Z</time></trkpt><trkpt lat="14.598355483626017" lon="121.02416665284198"><ele>6.333333333333334</ele><time>2026-04-18T07:17:43Z</time></trkpt><trkpt lat="14.598531407232965" lon="121.02405700470645"><ele>6.666666666666667</ele><time>2026-04-18T07:17:44Z</time></trkpt><trkpt lat="14.598704800761823" lon="121.02394956370163"><ele>7.0</ele><time>2026-04-18T07:17:45Z</time></trkpt><trkpt lat="14.598875187081092" lon="121.02384280056108"><ele>7.0</ele><time>2026-04-18T07:17:46Z</time></trkpt><trkpt lat="14.599039292299247" lon="121.0237390643373"><ele>7.0</ele><time>2026-04-18T07:17:47Z</time></trkpt><trkpt lat="14.599197121648329" lon="121.02363778261052"><ele>7.0</ele><time>2026-04-18T07:17:48Z</time></trkpt><trkpt lat="14.599353895865757" lon="121.02354532591092"><ele>7.0</ele><time>2026-04-18T07:17:49Z</time></trkpt><trkpt lat="14.599476848068047" lon="121.02341170753829"><ele>7.0</ele><time>2026-04-18T07:17:50Z</time></trkpt><trkpt lat="14.599599209074146" lon="121.02328064367379"><ele>7.0</ele><time>2026-04-18T07:17:51Z</time></trkpt><trkpt lat="14.599707317963395" lon="121.02313589557426"><ele>7.666666666666667</ele><time>2026-04-18T07:17:52Z</time></trkpt><trkpt lat="14.59980632635532" lon="121.02298188945134"><ele>8.333333333333334</ele><time>2026-04-18T07:17:53Z</time></trkpt><trkpt lat="14.5999011814464" lon="121.02282423679546"><ele>9.0</ele><time>2026-04-18T07:17:54Z</time></trkpt><trkpt lat="14.599998672049143" lon="121.02266533948455"><ele>9.0</ele><time>2026-04-18T07:17:55Z</time></trkpt><trkpt lat="14.60009847880152" lon="121.02250383646802"><ele>9.0</ele><time>2026-04-18T07:17:56Z</time></trkpt><trkpt lat="14.600199103274562" lon="121.02233479235883"><ele>9.0</ele><time>2026-04-18T07:17:57Z</time></trkpt><trkpt lat="14.600302649456998" lon="121.02216534568191"><ele>8.333333333333334</ele><time>2026-04-18T07:17:58Z</time></trkpt><trkpt lat="14.600407311638602" lon="121.02199366735157"><ele>7.666666666666667</ele><time>2026-04-18T07:17:59Z</time></trkpt><trkpt lat="14.600512291814429" lon="121.02182029288684"><ele>7.0</ele><time>2026-04-18T07:18:00Z</time></trkpt><trkpt lat="14.6006181973152" lon="121.02164704089103"><ele>7.0</ele><time>2026-04-18T07:18:01Z</time></trkpt><trkpt lat="14.600726208275194" lon="121.02147779935106"><ele>7.0</ele><time>2026-04-18T07:18:02Z</time></trkpt><trkpt lat="14.6008307031084" lon="121.0213098566796"><ele>7.0</ele><time>2026-04-18T07:18:03Z</time></trkpt><trkpt lat="14.600933119615348" lon="121.0211432762961"><ele>7.0</ele><time>2026-04-18T07:18:04Z</time></trkpt><trkpt lat="14.601048126356401" lon="121.0209926044117"><ele>7.0</ele><time>2026-04-18T07:18:05Z</time></trkpt><trkpt lat="14.601147314612485" lon="121.0208370572933"><ele>7.0</ele><time>2026-04-18T07:18:06Z</time></trkpt><trkpt lat="14.60124417880364" lon="121.02068515476844"><ele>5.666666666666667</ele><time>2026-04-18T07:18:07Z</time></trkpt><trkpt lat="14.601338266952544" lon="121.02053760561338"><ele>4.333333333333334</ele><time>2026-04-18T07:18:08Z</time></trkpt><trkpt lat="14.601428632565069" lon="121.02039589418033"><ele>3.0</ele><time>2026-04-18T07:18:09Z</time></trkpt><trkpt lat="14.601511936697234" lon="121.02026525654509"><ele>3.0</ele><time>2026-04-18T07:18:10Z</time></trkpt><trkpt lat="14.601588866316964" lon="121.02014456062392"><ele>3.0</ele><time>2026-04-18T07:18:11Z</time></trkpt><trkpt lat="14.601661425323229" lon="121.02003517375287"><ele>3.0</ele><time>2026-04-18T07:18:12Z</time></trkpt><trkpt lat="14.60173468517596" lon="121.01992926197987"><ele>3.0</ele><time>2026-04-18T07:18:13Z</time></trkpt><trkpt lat="14.601830424625428" lon="121.01984323461954"><ele>3.75</ele><time>2026-04-18T07:18:14Z</time></trkpt><trkpt lat="14.60193682110837" lon="121.01976846364717"><ele>4.5</ele><time>2026-04-18T07:18:15Z</time></trkpt><trkpt lat="14.602049023672773" lon="121.01970484810694"><ele>5.25</ele><time>2026-04-18T07:18:16Z</time></trkpt><trkpt lat="14.602169762659093" lon="121.01965398076818"><ele>6.0</ele><time>2026-04-18T07:18:17Z</time></trkpt><trkpt lat="14.60229960158809" lon="121.01961603301666"><ele>6.0</ele><time>2026-04-18T07:18:18Z</time></trkpt><trkpt lat="14.60243759949898" lon="121.01959196089174"><ele>6.0</ele><time>2026-04-18T07:18:19Z</time></trkpt><trkpt lat="14.602579925675602" lon="121.01958339725172"><ele>6.0</ele><time>2026-04-18T07:18:20Z</time></trkpt><trkpt lat="14.60272139485471" lon="121.0195930613507"><ele>6.0</ele><time>2026-04-18T07:18:21Z</time></trkpt><trkpt lat="14.602862726231576" lon="121.01961654434857"><ele>6.5</ele><time>2026-04-18T07:18:22Z</time></trkpt><trkpt lat="14.60300123403594" lon="121.01965165354659"><ele>7.0</ele><time>2026-04-18T07:18:23Z</time></trkpt><trkpt lat="14.603143430259289" lon="121.01968828305027"><ele>7.5</ele><time>2026-04-18T07:18:24Z</time></trkpt><trkpt lat="14.603283472321733" lon="121.01972822103977"><ele>8.0</ele><time>2026-04-18T07:18:25Z</time></trkpt><trkpt lat="14.603427443356097" lon="121.01976795308258"><ele>8.0</ele><time>2026-04-18T07:18:26Z</time></trkpt><trkpt lat="14.603571424216518" lon="121.01980466074446"><ele>8.0</ele><time>2026-04-18T07:18:27Z</time></trkpt><trkpt lat="14.603716814023723" lon="121.0198374732176"><ele>8.0</ele><time>2026-04-18T07:18:28Z</time></trkpt><trkpt lat="14.603861617355152" lon="121.01985977749843"><ele>8.0</ele><time>2026-04-18T07:18:29Z</time></trkpt><trkpt lat="14.604006159900655" lon="121.01986338517051"><ele>8.5</ele><time>2026-04-18T07:18:30Z</time></trkpt><trkpt lat="14.604144482719658" lon="121.01985276737541"><ele>9.0</ele><time>2026-04-18T07:18:31Z</time></trkpt><trkpt lat="14.604282084933335" lon="121.01984627994138"><ele>9.5</ele><time>2026-04-18T07:18:32Z</time></trkpt><trkpt lat="14.604411387050849" lon="121.01981157306756"><ele>10.0</ele><time>2026-04-18T07:18:33Z</time></trkpt><trkpt lat="14.604533653695972" lon="121.01975492383337"><ele>10.0</ele><time>2026-04-18T07:18:34.001Z</time></trkpt><trkpt lat="14.604649573717126" lon="121.01968806555"><ele>10.0</ele><time>2026-04-18T07:18:35.001Z</time></trkpt><trkpt lat="14.604756631120747" lon="121.01959640712657"><ele>10.0</ele><time>2026-04-18T07:18:36.001Z</time></trkpt><trkpt lat="14.604863136426305" lon="121.01950873661916"><ele>10.0</ele><time>2026-04-18T07:18:37.001Z</time></trkpt><trkpt lat="14.60497098152292" lon="121.01941054091944"><ele>10.0</ele><time>2026-04-18T07:18:38.001Z</time></trkpt><trkpt lat="14.605074054466574" lon="121.01930543005356"><ele>10.0</ele><time>2026-04-18T07:18:39.001Z</time></trkpt><trkpt lat="14.605179203006745" lon="121.0191982025063"><ele>10.0</ele><time>2026-04-18T07:18:40.001Z</time></trkpt><trkpt lat="14.605287232543919" lon="121.01908803705945"><ele>10.0</ele><time>2026-04-18T07:18:41.001Z</time></trkpt><trkpt lat="14.60539772522651" lon="121.01897536798458"><ele>10.333333333333334</ele><time>2026-04-18T07:18:42.001Z</time></trkpt><trkpt lat="14.605510460759014" lon="121.01886041459035"><ele>10.666666666666666</ele><time>2026-04-18T07:18:43.001Z</time></trkpt><trkpt lat="14.60562298345539" lon="121.01874551206225"><ele>11.0</ele><time>2026-04-18T07:18:44.001Z</time></trkpt><trkpt lat="14.605737975461114" lon="121.01862946293198"><ele>11.0</ele><time>2026-04-18T07:18:45.001Z</time></trkpt><trkpt lat="14.605853032706916" lon="121.01851226844319"><ele>11.0</ele><time>2026-04-18T07:18:46.001Z</time></trkpt><trkpt lat="14.605969057302547" lon="121.01839399164028"><ele>11.0</ele><time>2026-04-18T07:18:47.001Z</time></trkpt><trkpt lat="14.606085650833636" lon="121.01827513482775"><ele>11.333333333333332</ele><time>2026-04-18T07:18:48.001Z</time></trkpt><trkpt lat="14.606193702875208" lon="121.01814869378487"><ele>11.666666666666666</ele><time>2026-04-18T07:18:49.001Z</time></trkpt><trkpt lat="14.606314786764406" lon="121.0180344018981"><ele>12.0</ele><time>2026-04-18T07:18:50.001Z</time></trkpt><trkpt lat="14.606435869896977" lon="121.01791806436295"><ele>12.0</ele><time>2026-04-18T07:18:51.001Z</time></trkpt><trkpt lat="14.6065628534394" lon="121.01780512885193"><ele>12.0</ele><time>2026-04-18T07:18:52.001Z</time></trkpt><trkpt lat="14.60669852685196" lon="121.01769668428685"><ele>12.0</ele><time>2026-04-18T07:18:53.001Z</time></trkpt><trkpt lat="14.606846170939358" lon="121.01758924543772"><ele>12.0</ele><time>2026-04-18T07:18:54.001Z</time></trkpt><trkpt lat="14.607000626814136" lon="121.01749046506144"><ele>12.0</ele><time>2026-04-18T07:18:55.001Z</time></trkpt><trkpt lat="14.607165324166852" lon="121.01740051091711"><ele>12.0</ele><time>2026-04-18T07:18:56.001Z</time></trkpt><trkpt lat="14.607341887520139" lon="121.01731745424813"><ele>12.0</ele><time>2026-04-18T07:18:57.001Z</time></trkpt><trkpt lat="14.607523782877475" lon="121.01724521165036"><ele>12.0</ele><time>2026-04-18T07:18:58.001Z</time></trkpt><trkpt lat="14.607713468210902" lon="121.01718425058434"><ele>12.0</ele><time>2026-04-18T07:18:59.001Z</time></trkpt><trkpt lat="14.607910450475945" lon="121.01713453085813"><ele>10.666666666666666</ele><time>2026-04-18T07:19:00.001Z</time></trkpt><trkpt lat="14.608111373048345" lon="121.0170973993392"><ele>9.333333333333332</ele><time>2026-04-18T07:19:01.001Z</time></trkpt><trkpt lat="14.608311723336422" lon="121.01707130048678"><ele>8.0</ele><time>2026-04-18T07:19:02.001Z</time></trkpt><trkpt lat="14.608515773156181" lon="121.01704927995895"><ele>7.666666666666666</ele><time>2026-04-18T07:19:03.001Z</time></trkpt><trkpt lat="14.608721951195083" lon="121.0170334889885"><ele>7.333333333333334</ele><time>2026-04-18T07:19:04.001Z</time></trkpt><trkpt lat="14.608929672396659" lon="121.01703763606966"><ele>7.0</ele><time>2026-04-18T07:19:05.001Z</time></trkpt><trkpt lat="14.609138484749023" lon="121.01702674308963"><ele>7.0</ele><time>2026-04-18T07:19:06Z</time></trkpt><trkpt lat="14.609346918729141" lon="121.0170159144001"><ele>7.0</ele><time>2026-04-18T07:19:07Z</time></trkpt><trkpt lat="14.609553044526884" lon="121.01700520562623"><ele>7.0</ele><time>2026-04-18T07:19:08Z</time></trkpt><trkpt lat="14.609757692361176" lon="121.01697839915447"><ele>7.333333333333334</ele><time>2026-04-18T07:19:09Z</time></trkpt><trkpt lat="14.609964812470494" lon="121.01696940264961"><ele>7.666666666666666</ele><time>2026-04-18T07:19:10Z</time></trkpt><trkpt lat="14.61017079113255" lon="121.01696015688256"><ele>8.0</ele><time>2026-04-18T07:19:11Z</time></trkpt><trkpt lat="14.610378494061344" lon="121.01695007602332"><ele>9.0</ele><time>2026-04-18T07:19:12Z</time></trkpt><trkpt lat="14.610585592759247" lon="121.01693757415066"><ele>10.0</ele><time>2026-04-18T07:19:13Z</time></trkpt><trkpt lat="14.610797409728447" lon="121.01692798382079"><ele>11.0</ele><time>2026-04-18T07:19:14Z</time></trkpt><trkpt lat="14.611005717577383" lon="121.01691681963926"><ele>10.0</ele><time>2026-04-18T07:19:15Z</time></trkpt><trkpt lat="14.611213710740575" lon="121.01690556854189"><ele>9.0</ele><time>2026-04-18T07:19:16Z</time></trkpt><trkpt lat="14.611421014647137" lon="121.01689629881517"><ele>8.0</ele><time>2026-04-18T07:19:17Z</time></trkpt><trkpt lat="14.611624398451593" lon="121.01688557818288"><ele>8.0</ele><time>2026-04-18T07:19:18Z</time></trkpt><trkpt lat="14.611824545828881" lon="121.01687680734655"><ele>8.0</ele><time>2026-04-18T07:19:19Z</time></trkpt><trkpt lat="14.61202301945521" lon="121.01686794894826"><ele>8.0</ele><time>2026-04-18T07:19:20Z</time></trkpt><trkpt lat="14.612226509666806" lon="121.01686046691971"><ele>7.666666666666666</ele><time>2026-04-18T07:19:21Z</time></trkpt><trkpt lat="14.612430266626854" lon="121.01685274955074"><ele>7.333333333333334</ele><time>2026-04-18T07:19:22Z</time></trkpt><trkpt lat="14.612633349442689" lon="121.01684861250324"><ele>7.0</ele><time>2026-04-18T07:19:23Z</time></trkpt><trkpt lat="14.612838662946972" lon="121.01684483861241"><ele>8.666666666666668</ele><time>2026-04-18T07:19:24Z</time></trkpt><trkpt lat="14.613045210200124" lon="121.016842361516"><ele>10.333333333333334</ele><time>2026-04-18T07:19:25Z</time></trkpt><trkpt lat="14.613253724898657" lon="121.01683809527852"><ele>12.0</ele><time>2026-04-18T07:19:26Z</time></trkpt><trkpt lat="14.613463328066224" lon="121.01683225746824"><ele>11.0</ele><time>2026-04-18T07:19:27Z</time></trkpt><trkpt lat="14.613674489837344" lon="121.01682464142392"><ele>10.0</ele><time>2026-04-18T07:19:28Z</time></trkpt><trkpt lat="14.613885961846004" lon="121.01681582940337"><ele>9.0</ele><time>2026-04-18T07:19:29Z</time></trkpt><trkpt lat="14.61409333669214" lon="121.01680661554411"><ele>9.0</ele><time>2026-04-18T07:19:30Z</time></trkpt><trkpt lat="14.614297394963002" lon="121.0167975493784"><ele>9.0</ele><time>2026-04-18T07:19:31Z</time></trkpt><trkpt lat="14.61449672745972" lon="121.0167875255131"><ele>9.0</ele><time>2026-04-18T07:19:32Z</time></trkpt><trkpt lat="14.61468963727883" lon="121.01677381146519"><ele>10.0</ele><time>2026-04-18T07:19:33Z</time></trkpt><trkpt lat="14.61488025009878" lon="121.01675605863595"><ele>11.0</ele><time>2026-04-18T07:19:34Z</time></trkpt><trkpt lat="14.615069509348393" lon="121.01672871815708"><ele>12.0</ele><time>2026-04-18T07:19:35Z</time></trkpt><trkpt lat="14.615257693892941" lon="121.01669249825456"><ele>12.333333333333332</ele><time>2026-04-18T07:19:36Z</time></trkpt><trkpt lat="14.615444282766559" lon="121.01664764493337"><ele>12.666666666666666</ele><time>2026-04-18T07:19:37Z</time></trkpt><trkpt lat="14.615627946797824" lon="121.01659060491252"><ele>13.0</ele><time>2026-04-18T07:19:38Z</time></trkpt><trkpt lat="14.615807683399876" lon="121.01652238852147"><ele>13.0</ele><time>2026-04-18T07:19:39Z</time></trkpt><trkpt lat="14.615983771227452" lon="121.01644236624153"><ele>13.0</ele><time>2026-04-18T07:19:40Z</time></trkpt><trkpt lat="14.616153193102265" lon="121.01635228792234"><ele>13.0</ele><time>2026-04-18T07:19:41Z</time></trkpt><trkpt lat="14.616318493928057" lon="121.01625169709635"><ele>12.0</ele><time>2026-04-18T07:19:42Z</time></trkpt><trkpt lat="14.61647860987454" lon="121.01614630271217"><ele>11.0</ele><time>2026-04-18T07:19:43Z</time></trkpt><trkpt lat="14.61663555546937" lon="121.01604047583321"><ele>10.0</ele><time>2026-04-18T07:19:44Z</time></trkpt><trkpt lat="14.61679236810313" lon="121.0159311010637"><ele>10.0</ele><time>2026-04-18T07:19:45Z</time></trkpt><trkpt lat="14.61694551092862" lon="121.01582216642629"><ele>10.0</ele><time>2026-04-18T07:19:46Z</time></trkpt><trkpt lat="14.617097307644256" lon="121.01571659264926"><ele>10.0</ele><time>2026-04-18T07:19:47Z</time></trkpt><trkpt lat="14.617249506429747" lon="121.01561323858192"><ele>10.666666666666668</ele><time>2026-04-18T07:19:48Z</time></trkpt><trkpt lat="14.617402249961419" lon="121.01551121825133"><ele>11.333333333333334</ele><time>2026-04-18T07:19:49Z</time></trkpt><trkpt lat="14.617555653330422" lon="121.0154086627221"><ele>12.0</ele><time>2026-04-18T07:19:50Z</time></trkpt><trkpt lat="14.6177114807442" lon="121.01530720824648"><ele>11.666666666666666</ele><time>2026-04-18T07:19:51Z</time></trkpt><trkpt lat="14.617869235123115" lon="121.01521615109502"><ele>11.333333333333332</ele><time>2026-04-18T07:19:52Z</time></trkpt><trkpt lat="14.618033320058098" lon="121.01513137491008"><ele>11.0</ele><time>2026-04-18T07:19:53Z</time></trkpt><trkpt lat="14.618201611810889" lon="121.0150578921692"><ele>11.0</ele><time>2026-04-18T07:19:54Z</time></trkpt><trkpt lat="14.618376335454728" lon="121.01499951514623"><ele>11.0</ele><time>2026-04-18T07:19:55Z</time></trkpt><trkpt lat="14.61855720059884" lon="121.01495333955849"><ele>11.0</ele><time>2026-04-18T07:19:56Z</time></trkpt><trkpt lat="14.61873894283317" lon="121.01491961833496"><ele>11.0</ele><time>2026-04-18T07:19:57Z</time></trkpt><trkpt lat="14.618927721823542" lon="121.01489797635836"><ele>11.0</ele><time>2026-04-18T07:19:58Z</time></trkpt><trkpt lat="14.619120025638034" lon="121.01488834820282"><ele>11.0</ele><time>2026-04-18T07:19:59Z</time></trkpt><trkpt lat="14.619315585074167" lon="121.01489152918052"><ele>10.333333333333332</ele><time>2026-04-18T07:20:00Z</time></trkpt><trkpt lat="14.619514146272609" lon="121.01490377392653"><ele>9.666666666666666</ele><time>2026-04-18T07:20:01Z</time></trkpt><trkpt lat="14.619713557138718" lon="121.01491964976522"><ele>9.0</ele><time>2026-04-18T07:20:02Z</time></trkpt><trkpt lat="14.61991881551692" lon="121.01494474232572"><ele>9.0</ele><time>2026-04-18T07:20:03Z</time></trkpt><trkpt lat="14.620128660109447" lon="121.01497058952224"><ele>9.0</ele><time>2026-04-18T07:20:04Z</time></trkpt><trkpt lat="14.620339390582831" lon="121.01499557668315"><ele>9.0</ele><time>2026-04-18T07:20:05Z</time></trkpt><trkpt lat="14.620552472347777" lon="121.01501968748549"><ele>9.0</ele><time>2026-04-18T07:20:06Z</time></trkpt><trkpt lat="14.620767926213256" lon="121.01504347123553"><ele>9.0</ele><time>2026-04-18T07:20:07Z</time></trkpt><trkpt lat="14.620983512439139" lon="121.01506888595652"><ele>9.0</ele><time>2026-04-18T07:20:08Z</time></trkpt><trkpt lat="14.621198861633362" lon="121.01509559865303"><ele>9.0</ele><time>2026-04-18T07:20:09Z</time></trkpt><trkpt lat="14.621414038873805" lon="121.01512108805969"><ele>9.0</ele><time>2026-04-18T07:20:10Z</time></trkpt><trkpt lat="14.621627815343475" lon="121.01514580367375"><ele>9.0</ele><time>2026-04-18T07:20:11Z</time></trkpt><trkpt lat="14.621840220677162" lon="121.01517051541163"><ele>9.666666666666666</ele><time>2026-04-18T07:20:12Z</time></trkpt><trkpt lat="14.622049301681978" lon="121.01519441191071"><ele>10.333333333333332</ele><time>2026-04-18T07:20:13Z</time></trkpt><trkpt lat="14.622255468850112" lon="121.01521876421803"><ele>11.0</ele><time>2026-04-18T07:20:14Z</time></trkpt><trkpt lat="14.622457948429757" lon="121.0152416299118"><ele>11.0</ele><time>2026-04-18T07:20:15Z</time></trkpt><trkpt lat="14.622660733075728" lon="121.01526641543191"><ele>11.0</ele><time>2026-04-18T07:20:16Z</time></trkpt><trkpt lat="14.622861334827162" lon="121.01529151348436"><ele>11.0</ele><time>2026-04-18T07:20:17Z</time></trkpt><trkpt lat="14.623062609913136" lon="121.01531332707204"><ele>11.0</ele><time>2026-04-18T07:20:18Z</time></trkpt><trkpt lat="14.62326332151155" lon="121.0153359423293"><ele>11.0</ele><time>2026-04-18T07:20:19Z</time></trkpt><trkpt lat="14.623464643546944" lon="121.01535940183082"><ele>11.0</ele><time>2026-04-18T07:20:20Z</time></trkpt><trkpt lat="14.62366496438773" lon="121.0153830237869"><ele>11.0</ele><time>2026-04-18T07:20:21Z</time></trkpt><trkpt lat="14.623859916671673" lon="121.01540654257109"><ele>11.0</ele><time>2026-04-18T07:20:22Z</time></trkpt><trkpt lat="14.624058344557167" lon="121.01543071712805"><ele>11.0</ele><time>2026-04-18T07:20:23Z</time></trkpt><trkpt lat="14.62425384675904" lon="121.01545533661522"><ele>11.0</ele><time>2026-04-18T07:20:24Z</time></trkpt><trkpt lat="14.62444776736636" lon="121.01547909457535"><ele>11.0</ele><time>2026-04-18T07:20:25Z</time></trkpt><trkpt lat="14.624644679554894" lon="121.01549928429064"><ele>11.0</ele><time>2026-04-18T07:20:26Z</time></trkpt><trkpt lat="14.62483648866683" lon="121.01551675446346"><ele>11.666666666666666</ele><time>2026-04-18T07:20:27Z</time></trkpt><trkpt lat="14.625025690012983" lon="121.01552802926325"><ele>12.333333333333332</ele><time>2026-04-18T07:20:28Z</time></trkpt><trkpt lat="14.625214564899045" lon="121.01552672969827"><ele>13.0</ele><time>2026-04-18T07:20:29Z</time></trkpt><trkpt lat="14.625403048912988" lon="121.01551267089782"><ele>13.333333333333332</ele><time>2026-04-18T07:20:30Z</time></trkpt><trkpt lat="14.625586855095388" lon="121.01548925384088"><ele>13.666666666666668</ele><time>2026-04-18T07:20:31Z</time></trkpt><trkpt lat="14.62576403174194" lon="121.01544838265637"><ele>14.0</ele><time>2026-04-18T07:20:32Z</time></trkpt><trkpt lat="14.625936338439972" lon="121.01539251278164"><ele>14.0</ele><time>2026-04-18T07:20:33Z</time></trkpt><trkpt lat="14.626102761842537" lon="121.01532376512365"><ele>14.0</ele><time>2026-04-18T07:20:34Z</time></trkpt><trkpt lat="14.62626770344297" lon="121.01524260235784"><ele>14.0</ele><time>2026-04-18T07:20:35Z</time></trkpt><trkpt lat="14.626427838180392" lon="121.01514744631113"><ele>14.0</ele><time>2026-04-18T07:20:36Z</time></trkpt><trkpt lat="14.626582379839414" lon="121.01504167268506"><ele>14.0</ele><time>2026-04-18T07:20:37Z</time></trkpt><trkpt lat="14.62673683228851" lon="121.01491977153627"><ele>14.0</ele><time>2026-04-18T07:20:38Z</time></trkpt><trkpt lat="14.626890151183611" lon="121.01479156298076"><ele>14.666666666666668</ele><time>2026-04-18T07:20:39Z</time></trkpt><trkpt lat="14.627041017132088" lon="121.01465647530883"><ele>15.333333333333332</ele><time>2026-04-18T07:20:40Z</time></trkpt><trkpt lat="14.627190859673586" lon="121.01451390491737"><ele>16.0</ele><time>2026-04-18T07:20:41Z</time></trkpt><trkpt lat="14.627341117320476" lon="121.01436504766014"><ele>16.0</ele><time>2026-04-18T07:20:42Z</time></trkpt><trkpt lat="14.627491638092803" lon="121.01421366617282"><ele>16.0</ele><time>2026-04-18T07:20:43Z</time></trkpt><trkpt lat="14.627639582628404" lon="121.01406004648368"><ele>16.0</ele><time>2026-04-18T07:20:44Z</time></trkpt><trkpt lat="14.627788067297585" lon="121.01390504354261"><ele>15.333333333333332</ele><time>2026-04-18T07:20:45Z</time></trkpt><trkpt lat="14.627941681477877" lon="121.01374877503919"><ele>14.666666666666668</ele><time>2026-04-18T07:20:46Z</time></trkpt><trkpt lat="14.628092867152857" lon="121.01359406404526"><ele>14.0</ele><time>2026-04-18T07:20:47Z</time></trkpt><trkpt lat="14.628248187459974" lon="121.01343568270197"><ele>14.0</ele><time>2026-04-18T07:20:48Z</time></trkpt><trkpt lat="14.628403380747729" lon="121.01328203624897"><ele>14.0</ele><time>2026-04-18T07:20:49Z</time></trkpt><trkpt lat="14.628558896713768" lon="121.01312955553982"><ele>14.0</ele><time>2026-04-18T07:20:50Z</time></trkpt><trkpt lat="14.628712401973916" lon="121.0129796205268"><ele>13.0</ele><time>2026-04-18T07:20:51Z</time></trkpt><trkpt lat="14.62886121398514" lon="121.01283155500873"><ele>12.0</ele><time>2026-04-18T07:20:52Z</time></trkpt><trkpt lat="14.629005757718575" lon="121.01268692301107"><ele>11.0</ele><time>2026-04-18T07:20:53Z</time></trkpt><trkpt lat="14.629151061107521" lon="121.01254512389532"><ele>11.666666666666666</ele><time>2026-04-18T07:20:54Z</time></trkpt><trkpt lat="14.62929913502582" lon="121.01240912296201"><ele>12.333333333333332</ele><time>2026-04-18T07:20:55Z</time></trkpt><trkpt lat="14.629451242200712" lon="121.01227874627497"><ele>13.0</ele><time>2026-04-18T07:20:56Z</time></trkpt><trkpt lat="14.629606517480651" lon="121.01215007120611"><ele>13.0</ele><time>2026-04-18T07:20:57Z</time></trkpt><trkpt lat="14.629761327751188" lon="121.01201803591637"><ele>13.0</ele><time>2026-04-18T07:20:58.001Z</time></trkpt><trkpt lat="14.629918165738319" lon="121.01188846162606"><ele>13.0</ele><time>2026-04-18T07:20:59.001Z</time></trkpt><trkpt lat="14.630071513049714" lon="121.01175538997585"><ele>13.333333333333332</ele><time>2026-04-18T07:21:00.001Z</time></trkpt><trkpt lat="14.630216938248775" lon="121.01161367616258"><ele>13.666666666666668</ele><time>2026-04-18T07:21:01.001Z</time></trkpt><trkpt lat="14.630356357841473" lon="121.01146246354975"><ele>14.0</ele><time>2026-04-18T07:21:02.001Z</time></trkpt><trkpt lat="14.630489459150073" lon="121.01130561789346"><ele>13.0</ele><time>2026-04-18T07:21:03.001Z</time></trkpt><trkpt lat="14.630617973959861" lon="121.011146621385"><ele>12.0</ele><time>2026-04-18T07:21:04.001Z</time></trkpt><trkpt lat="14.630746321484235" lon="121.01098831646172"><ele>11.0</ele><time>2026-04-18T07:21:05.001Z</time></trkpt><trkpt lat="14.630875311148085" lon="121.01083133475133"><ele>11.0</ele><time>2026-04-18T07:21:06.001Z</time></trkpt><trkpt lat="14.631003280278556" lon="121.0106726585282"><ele>11.0</ele><time>2026-04-18T07:21:07.001Z</time></trkpt><trkpt lat="14.631133334417006" lon="121.01051586288591"><ele>11.0</ele><time>2026-04-18T07:21:08.001Z</time></trkpt><trkpt lat="14.631265093630038" lon="121.01036367740205"><ele>11.0</ele><time>2026-04-18T07:21:09.001Z</time></trkpt><trkpt lat="14.631399314154235" lon="121.01021564170557"><ele>11.0</ele><time>2026-04-18T07:21:10.001Z</time></trkpt><trkpt lat="14.63153875872468" lon="121.01007137969376"><ele>11.0</ele><time>2026-04-18T07:21:11.001Z</time></trkpt><trkpt lat="14.63168199377753" lon="121.0099334372213"><ele>11.333333333333332</ele><time>2026-04-18T07:21:12Z</time></trkpt><trkpt lat="14.63183219226214" lon="121.00980365330219"><ele>11.666666666666666</ele><time>2026-04-18T07:21:13Z</time></trkpt><trkpt lat="14.631988600833054" lon="121.00968268865464"><ele>12.0</ele><time>2026-04-18T07:21:14Z</time></trkpt><trkpt lat="14.632152204436279" lon="121.0095707585081"><ele>10.666666666666666</ele><time>2026-04-18T07:21:15Z</time></trkpt><trkpt lat="14.632320156002146" lon="121.00947022168143"><ele>9.333333333333332</ele><time>2026-04-18T07:21:16Z</time></trkpt><trkpt lat="14.632494143193583" lon="121.00938140957015"><ele>8.0</ele><time>2026-04-18T07:21:17Z</time></trkpt><trkpt lat="14.632674495967825" lon="121.00930559212608"><ele>8.333333333333332</ele><time>2026-04-18T07:21:18Z</time></trkpt><trkpt lat="14.632859636833661" lon="121.00924328587081"><ele>8.666666666666666</ele><time>2026-04-18T07:21:19Z</time></trkpt><trkpt lat="14.633048474533243" lon="121.0091944840822"><ele>9.0</ele><time>2026-04-18T07:21:20Z</time></trkpt><trkpt lat="14.633238847996465" lon="121.00915923042008"><ele>10.0</ele><time>2026-04-18T07:21:21Z</time></trkpt><trkpt lat="14.633431728994044" lon="121.00913208932873"><ele>11.0</ele><time>2026-04-18T07:21:22Z</time></trkpt><trkpt lat="14.633624572014172" lon="121.00910778144176"><ele>12.0</ele><time>2026-04-18T07:21:23Z</time></trkpt><trkpt lat="14.633820749649361" lon="121.00908735458142"><ele>12.0</ele><time>2026-04-18T07:21:24Z</time></trkpt><trkpt lat="14.634016324863648" lon="121.00906505297539"><ele>12.0</ele><time>2026-04-18T07:21:25Z</time></trkpt><trkpt lat="14.634211829240355" lon="121.00904349890062"><ele>12.0</ele><time>2026-04-18T07:21:26Z</time></trkpt><trkpt lat="14.634408135218132" lon="121.00902332963817"><ele>12.0</ele><time>2026-04-18T07:21:27Z</time></trkpt><trkpt lat="14.634603395399969" lon="121.00900290270297"><ele>12.0</ele><time>2026-04-18T07:21:28Z</time></trkpt><trkpt lat="14.634796565312403" lon="121.00898340840989"><ele>12.0</ele><time>2026-04-18T07:21:29Z</time></trkpt><trkpt lat="14.634987863821697" lon="121.0089646806831"><ele>12.0</ele><time>2026-04-18T07:21:30Z</time></trkpt><trkpt lat="14.635176771021241" lon="121.00894692572841"><ele>12.0</ele><time>2026-04-18T07:21:31Z</time></trkpt><trkpt lat="14.635360779137313" lon="121.00893356432061"><ele>12.0</ele><time>2026-04-18T07:21:32Z</time></trkpt><trkpt lat="14.635538644342237" lon="121.00892010285317"><ele>11.666666666666666</ele><time>2026-04-18T07:21:33Z</time></trkpt><trkpt lat="14.635712880468356" lon="121.00890373678989"><ele>11.333333333333332</ele><time>2026-04-18T07:21:34Z</time></trkpt><trkpt lat="14.635888192240444" lon="121.0088844156703"><ele>11.0</ele><time>2026-04-18T07:21:35Z</time></trkpt><trkpt lat="14.636064392736646" lon="121.00886689848612"><ele>12.333333333333332</ele><time>2026-04-18T07:21:36Z</time></trkpt><trkpt lat="14.636241460746753" lon="121.00884880247601"><ele>13.666666666666666</ele><time>2026-04-18T07:21:37Z</time></trkpt><trkpt lat="14.636420186209056" lon="121.00882686083831"><ele>15.0</ele><time>2026-04-18T07:21:38Z</time></trkpt><trkpt lat="14.636595416701146" lon="121.00879879768172"><ele>15.0</ele><time>2026-04-18T07:21:39Z</time></trkpt><trkpt lat="14.636768532530063" lon="121.00876435179953"><ele>15.0</ele><time>2026-04-18T07:21:40Z</time></trkpt><trkpt lat="14.636929503062548" lon="121.00872514534962"><ele>15.0</ele><time>2026-04-18T07:21:41Z</time></trkpt><trkpt lat="14.637074207994903" lon="121.00868357335906"><ele>14.2</ele><time>2026-04-18T07:21:42Z</time></trkpt><trkpt lat="14.63720088531603" lon="121.00864108707003"><ele>13.4</ele><time>2026-04-18T07:21:43Z</time></trkpt><trkpt lat="14.637305552704834" lon="121.0086029106467"><ele>12.600000000000001</ele><time>2026-04-18T07:21:44Z</time></trkpt><trkpt lat="14.637396150575691" lon="121.00856458792511"><ele>11.8</ele><time>2026-04-18T07:21:45Z</time></trkpt><trkpt lat="14.637472385965873" lon="121.00852879979229"><ele>11.0</ele><time>2026-04-18T07:21:46Z</time></trkpt><trkpt lat="14.637533851357734" lon="121.0084970073017"><ele>11.0</ele><time>2026-04-18T07:21:47Z</time></trkpt><trkpt lat="14.637628631202531" lon="121.0084454540845"><ele>11.0</ele><time>2026-04-18T07:21:49Z</time></trkpt><trkpt lat="14.637695217129592" lon="121.00840604938537"><ele>11.0</ele><time>2026-04-18T07:21:51Z</time></trkpt><trkpt lat="14.637764306583048" lon="121.00836839509819"><ele>11.0</ele><time>2026-04-18T07:21:55Z</time></trkpt><trkpt lat="14.63781661090273" lon="121.00833110513605"><ele>11.0</ele><time>2026-04-18T07:21:57Z</time></trkpt><trkpt lat="14.637886196912747" lon="121.0082706172652"><ele>11.0</ele><time>2026-04-18T07:21:59Z</time></trkpt><trkpt lat="14.637955640790636" lon="121.00820505430882"><ele>11.333333333333332</ele><time>2026-04-18T07:22:01Z</time></trkpt><trkpt lat="14.638014711428694" lon="121.00814614761916"><ele>11.666666666666666</ele><time>2026-04-18T07:22:03Z</time></trkpt><trkpt lat="14.638065814143319" lon="121.00809304628595"><ele>12.0</ele><time>2026-04-18T07:22:05Z</time></trkpt><trkpt lat="14.638118543362555" lon="121.00803533899563"><ele>12.333333333333332</ele><time>2026-04-18T07:22:07Z</time></trkpt><trkpt lat="14.638171698968652" lon="121.00797488650483"><ele>12.666666666666666</ele><time>2026-04-18T07:22:09Z</time></trkpt><trkpt lat="14.638226049743421" lon="121.00790858780964"><ele>13.0</ele><time>2026-04-18T07:22:11Z</time></trkpt><trkpt lat="14.638274055884485" lon="121.0078477862915"><ele>13.0</ele><time>2026-04-18T07:22:13Z</time></trkpt><trkpt lat="14.638318471733538" lon="121.00779010114906"><ele>13.0</ele><time>2026-04-18T07:22:15Z</time></trkpt><trkpt lat="14.63836148708001" lon="121.00773354631245"><ele>13.0</ele><time>2026-04-18T07:22:17Z</time></trkpt><trkpt lat="14.638399756749994" lon="121.00768126001492"><ele>13.0</ele><time>2026-04-18T07:22:19Z</time></trkpt><trkpt lat="14.638444328181933" lon="121.00762420598481"><ele>13.0</ele><time>2026-04-18T07:22:23Z</time></trkpt><trkpt lat="14.638488820825174" lon="121.00756375157648"><ele>13.0</ele><time>2026-04-18T07:22:29Z</time></trkpt><trkpt lat="14.638529040745123" lon="121.00751145108055"><ele>13.0</ele><time>2026-04-18T07:22:33Z</time></trkpt><trkpt lat="14.638575204415" lon="121.00745412642127"><ele>12.999999999999998</ele><time>2026-04-18T07:22:38Z</time></trkpt><trkpt lat="14.63862141894827" lon="121.00739643408664"><ele>13.0</ele><time>2026-04-18T07:22:41Z</time></trkpt><trkpt lat="14.638673476139706" lon="121.00733312419338"><ele>13.0</ele><time>2026-04-18T07:22:43Z</time></trkpt><trkpt lat="14.638736143633812" lon="121.00725390464677"><ele>13.0</ele><time>2026-04-18T07:22:45Z</time></trkpt><trkpt lat="14.638813113146611" lon="121.0071631488274"><ele>12.999999999999998</ele><time>2026-04-18T07:22:47Z</time></trkpt><trkpt lat="14.638857828923419" lon="121.00711522409178"><ele>13.0</ele><time>2026-04-18T07:22:48Z</time></trkpt><trkpt lat="14.638905340713565" lon="121.00706673413393"><ele>13.0</ele><time>2026-04-18T07:22:49Z</time></trkpt><trkpt lat="14.638959015851556" lon="121.00702067695133"><ele>13.0</ele><time>2026-04-18T07:22:50Z</time></trkpt><trkpt lat="14.639009204133453" lon="121.00697824203198"><ele>13.0</ele><time>2026-04-18T07:22:51Z</time></trkpt><trkpt lat="14.639065532561418" lon="121.00693474903863"><ele>13.0</ele><time>2026-04-18T07:22:52Z</time></trkpt><trkpt lat="14.639124520004135" lon="121.0068891767698"><ele>13.0</ele><time>2026-04-18T07:22:53Z</time></trkpt><trkpt lat="14.639189573974244" lon="121.00684366599741"><ele>13.0</ele><time>2026-04-18T07:22:54Z</time></trkpt><trkpt lat="14.639250286921115" lon="121.00679677737796"><ele>13.0</ele><time>2026-04-18T07:22:55Z</time></trkpt><trkpt lat="14.639312878158295" lon="121.00675173595914"><ele>12.999999999999998</ele><time>2026-04-18T07:22:56Z</time></trkpt><trkpt lat="14.639375090870056" lon="121.00670650721092"><ele>13.0</ele><time>2026-04-18T07:22:57Z</time></trkpt><trkpt lat="14.639436930185866" lon="121.00666230025593"><ele>13.0</ele><time>2026-04-18T07:22:58Z</time></trkpt><trkpt lat="14.639491708275349" lon="121.00662819433218"><ele>13.0</ele><time>2026-04-18T07:22:59Z</time></trkpt><trkpt lat="14.639583793799776" lon="121.00656760484232"><ele>12.999999999999998</ele><time>2026-04-18T07:23:01Z</time></trkpt><trkpt lat="14.639660352066374" lon="121.00652410282767"><ele>13.0</ele><time>2026-04-18T07:23:03Z</time></trkpt><trkpt lat="14.639728272558576" lon="121.00648840118218"><ele>12.999999999999998</ele><time>2026-04-18T07:23:05Z</time></trkpt><trkpt lat="14.639787271143161" lon="121.00645374759098"><ele>13.0</ele><time>2026-04-18T07:23:07Z</time></trkpt><trkpt lat="14.639861086780703" lon="121.00642225317081"><ele>13.0</ele><time>2026-04-18T07:23:10Z</time></trkpt><trkpt lat="14.639968151943252" lon="121.0064970946063"><ele>13.0</ele><time>2026-04-18T07:23:27Z</time></trkpt><trkpt lat="14.63997487277325" lon="121.0065658760229"><ele>12.999999999999998</ele><time>2026-04-18T07:23:30Z</time></trkpt><trkpt lat="14.640019069725978" lon="121.0065051342918"><ele>13.0</ele><time>2026-04-18T07:23:47Z</time></trkpt><trkpt lat="14.640023628919055" lon="121.00637433476841"><ele>13.0</ele><time>2026-04-18T07:23:52Z</time></trkpt><trkpt lat="14.640073666145705" lon="121.00633047656632"><ele>13.0</ele><time>2026-04-18T07:24:25Z</time></trkpt><trkpt lat="14.640288039995951" lon="121.00625768835135"><ele>13.0</ele><time>2026-04-18T07:24:45Z</time></trkpt><trkpt lat="14.640368624352025" lon="121.00621901132352"><ele>13.0</ele><time>2026-04-18T07:24:58Z</time></trkpt><trkpt lat="14.640409804567295" lon="121.00616788110261"><ele>13.0</ele><time>2026-04-18T07:25:08.037Z</time></trkpt><trkpt lat="14.640523730174587" lon="121.00622995995663"><ele>13.0</ele><time>2026-04-18T07:25:35.029Z</time></trkpt><trkpt lat="14.64058498159824" lon="121.00620823438871"><ele>13.0</ele><time>2026-04-18T07:25:40.027Z</time></trkpt><trkpt lat="14.640654986833617" lon="121.0061824040295"><ele>13.0</ele><time>2026-04-18T07:25:47.028Z</time></trkpt><trkpt lat="14.641045213321386" lon="121.00626904288382"><ele>13.0</ele><time>2026-04-18T07:27:02.011Z</time></trkpt><trkpt lat="14.641023514168685" lon="121.00640890384693"><ele>13.0</ele><time>2026-04-18T07:27:09.011Z</time></trkpt><trkpt lat="14.64483620006298" lon="121.0051013216069"><ele>13.0</ele><time>2026-04-18T07:30:28.001Z</time></trkpt><trkpt lat="14.644741738589126" lon="121.00501960494589"><ele>13.0</ele><time>2026-04-18T07:30:29.001Z</time></trkpt><trkpt lat="14.644762967938327" lon="121.00493079730589"><ele>13.0</ele><time>2026-04-18T07:30:30.001Z</time></trkpt><trkpt lat="14.644842691833421" lon="121.00477005336606"><ele>13.0</ele><time>2026-04-18T07:30:31.001Z</time></trkpt><trkpt lat="14.644876681910798" lon="121.0046029284264"><ele>14.0</ele><time>2026-04-18T07:30:32.001Z</time></trkpt><trkpt lat="14.644897962063189" lon="121.00445717384561"><ele>15.0</ele><time>2026-04-18T07:30:33.001Z</time></trkpt><trkpt lat="14.644862450790127" lon="121.00433340812286"><ele>16.0</ele><time>2026-04-18T07:30:34Z</time></trkpt><trkpt lat="14.644861224945155" lon="121.00418280142742"><ele>17.0</ele><time>2026-04-18T07:30:35Z</time></trkpt><trkpt lat="14.644829992672674" lon="121.0040426271424"><ele>17.666666666666668</ele><time>2026-04-18T07:30:36Z</time></trkpt><trkpt lat="14.64481528664777" lon="121.00387779055711"><ele>18.333333333333332</ele><time>2026-04-18T07:30:37Z</time></trkpt><trkpt lat="14.644783139178706" lon="121.00373247482361"><ele>19.0</ele><time>2026-04-18T07:30:38Z</time></trkpt><trkpt lat="14.64476067062544" lon="121.00357859251464"><ele>19.0</ele><time>2026-04-18T07:30:39Z</time></trkpt><trkpt lat="14.644759627939894" lon="121.00342969411952"><ele>19.0</ele><time>2026-04-18T07:30:40Z</time></trkpt><trkpt lat="14.6447263494236" lon="121.00327250835271"><ele>19.0</ele><time>2026-04-18T07:30:41Z</time></trkpt><trkpt lat="14.644703610145019" lon="121.00310017791514"><ele>19.333333333333332</ele><time>2026-04-18T07:30:42Z</time></trkpt><trkpt lat="14.644681699074937" lon="121.00294596416624"><ele>19.666666666666668</ele><time>2026-04-18T07:30:43Z</time></trkpt><trkpt lat="14.644655041589168" lon="121.00279212934655"><ele>20.0</ele><time>2026-04-18T07:30:44Z</time></trkpt><trkpt lat="14.644626573984757" lon="121.00262667489862"><ele>19.0</ele><time>2026-04-18T07:30:45Z</time></trkpt><trkpt lat="14.644599082571375" lon="121.0024528192187"><ele>18.0</ele><time>2026-04-18T07:30:46Z</time></trkpt><trkpt lat="14.64457305314633" lon="121.00228265506485"><ele>17.0</ele><time>2026-04-18T07:30:47Z</time></trkpt><trkpt lat="14.644547987430943" lon="121.00211315350478"><ele>17.0</ele><time>2026-04-18T07:30:48Z</time></trkpt><trkpt lat="14.644521905984023" lon="121.00194634078426"><ele>17.0</ele><time>2026-04-18T07:30:49Z</time></trkpt><trkpt lat="14.644494565131215" lon="121.00177872685167"><ele>17.0</ele><time>2026-04-18T07:30:50Z</time></trkpt><trkpt lat="14.644467230845931" lon="121.0016107577695"><ele>16.666666666666668</ele><time>2026-04-18T07:30:51Z</time></trkpt><trkpt lat="14.644440975224114" lon="121.00144300370029"><ele>16.333333333333332</ele><time>2026-04-18T07:30:52Z</time></trkpt><trkpt lat="14.64441345851682" lon="121.00127493816949"><ele>16.0</ele><time>2026-04-18T07:30:53Z</time></trkpt><trkpt lat="14.644387495699112" lon="121.00110027222861"><ele>16.0</ele><time>2026-04-18T07:30:54Z</time></trkpt><trkpt lat="14.644359421467815" lon="121.00093243380053"><ele>16.0</ele><time>2026-04-18T07:30:55Z</time></trkpt><trkpt lat="14.644329349570553" lon="121.00077012865455"><ele>16.0</ele><time>2026-04-18T07:30:56Z</time></trkpt><trkpt lat="14.644300257510647" lon="121.00060612860037"><ele>16.666666666666664</ele><time>2026-04-18T07:30:57Z</time></trkpt><trkpt lat="14.644271932701443" lon="121.00042762163716"><ele>17.333333333333332</ele><time>2026-04-18T07:30:58Z</time></trkpt><trkpt lat="14.644240574472066" lon="121.00026578737675"><ele>18.0</ele><time>2026-04-18T07:30:59Z</time></trkpt><trkpt lat="14.644209233248262" lon="121.00009658221886"><ele>18.0</ele><time>2026-04-18T07:31:00Z</time></trkpt><trkpt lat="14.644178302267884" lon="120.99993025845868"><ele>18.0</ele><time>2026-04-18T07:31:01Z</time></trkpt><trkpt lat="14.644147340632939" lon="120.999763987032"><ele>18.0</ele><time>2026-04-18T07:31:02Z</time></trkpt><trkpt lat="14.644116033959936" lon="120.99959458130144"><ele>18.0</ele><time>2026-04-18T07:31:03Z</time></trkpt><trkpt lat="14.644090539130634" lon="120.99941320594542"><ele>18.0</ele><time>2026-04-18T07:31:04Z</time></trkpt><trkpt lat="14.644066943563967" lon="120.99923867832297"><ele>18.0</ele><time>2026-04-18T07:31:05Z</time></trkpt><trkpt lat="14.64404873520438" lon="120.99905830740578"><ele>18.0</ele><time>2026-04-18T07:31:06Z</time></trkpt><trkpt lat="14.644030568454024" lon="120.99887445048158"><ele>18.0</ele><time>2026-04-18T07:31:07Z</time></trkpt><trkpt lat="14.644016870623071" lon="120.99868778772897"><ele>18.0</ele><time>2026-04-18T07:31:08Z</time></trkpt><trkpt lat="14.64400817623057" lon="120.99849579944701"><ele>19.0</ele><time>2026-04-18T07:31:09Z</time></trkpt><trkpt lat="14.643999685204538" lon="120.99830356314342"><ele>20.0</ele><time>2026-04-18T07:31:10Z</time></trkpt><trkpt lat="14.643993791896905" lon="120.99810835693401"><ele>21.0</ele><time>2026-04-18T07:31:11Z</time></trkpt><trkpt lat="14.643990448644088" lon="120.99791008938307"><ele>21.0</ele><time>2026-04-18T07:31:12Z</time></trkpt><trkpt lat="14.643984160232435" lon="120.99771193677837"><ele>21.0</ele><time>2026-04-18T07:31:13Z</time></trkpt><trkpt lat="14.643977727790755" lon="120.99751184775215"><ele>21.0</ele><time>2026-04-18T07:31:14Z</time></trkpt><trkpt lat="14.643973598727001" lon="120.99730971540184"><ele>21.333333333333332</ele><time>2026-04-18T07:31:15Z</time></trkpt><trkpt lat="14.643969534123654" lon="120.99711053767305"><ele>21.666666666666664</ele><time>2026-04-18T07:31:16Z</time></trkpt><trkpt lat="14.643964994364241" lon="120.99691419877094"><ele>22.0</ele><time>2026-04-18T07:31:17Z</time></trkpt><trkpt lat="14.643961775620923" lon="120.99671952706449"><ele>23.0</ele><time>2026-04-18T07:31:18Z</time></trkpt><trkpt lat="14.643959733691643" lon="120.99652867281168"><ele>24.0</ele><time>2026-04-18T07:31:19Z</time></trkpt><trkpt lat="14.643956121188731" lon="120.9963450214472"><ele>25.0</ele><time>2026-04-18T07:31:20Z</time></trkpt><trkpt lat="14.643951351535735" lon="120.99616727180958"><ele>25.0</ele><time>2026-04-18T07:31:21Z</time></trkpt><trkpt lat="14.643949501988942" lon="120.9959843689484"><ele>25.0</ele><time>2026-04-18T07:31:22Z</time></trkpt><trkpt lat="14.643959010555465" lon="120.99581176924092"><ele>25.0</ele><time>2026-04-18T07:31:23Z</time></trkpt><trkpt lat="14.643979529502017" lon="120.995637442897"><ele>24.666666666666668</ele><time>2026-04-18T07:31:24Z</time></trkpt><trkpt lat="14.644014914324899" lon="120.99546688186577"><ele>24.333333333333336</ele><time>2026-04-18T07:31:25Z</time></trkpt><trkpt lat="14.644066492407049" lon="120.99530233830187"><ele>24.0</ele><time>2026-04-18T07:31:26Z</time></trkpt><trkpt lat="14.64414465252683" lon="120.99515280627939"><ele>23.0</ele><time>2026-04-18T07:31:27Z</time></trkpt><trkpt lat="14.644236808067978" lon="120.99500254674528"><ele>22.0</ele><time>2026-04-18T07:31:28Z</time></trkpt><trkpt lat="14.644347903771093" lon="120.99489141930054"><ele>21.0</ele><time>2026-04-18T07:31:29Z</time></trkpt><trkpt lat="14.644472129279292" lon="120.99478371945195"><ele>21.0</ele><time>2026-04-18T07:31:30Z</time></trkpt><trkpt lat="14.64461701489957" lon="120.99469180420806"><ele>21.0</ele><time>2026-04-18T07:31:31Z</time></trkpt><trkpt lat="14.644776908530613" lon="120.99461724013536"><ele>21.0</ele><time>2026-04-18T07:31:32Z</time></trkpt><trkpt lat="14.644945893896258" lon="120.99456086783627"><ele>21.0</ele><time>2026-04-18T07:31:33Z</time></trkpt><trkpt lat="14.64511862648012" lon="120.99452731560534"><ele>21.0</ele><time>2026-04-18T07:31:34Z</time></trkpt><trkpt lat="14.645293363859071" lon="120.99452164028713"><ele>21.0</ele><time>2026-04-18T07:31:35Z</time></trkpt><trkpt lat="14.645467458499215" lon="120.99454352783451"><ele>21.666666666666668</ele><time>2026-04-18T07:31:36Z</time></trkpt><trkpt lat="14.645636998206212" lon="120.99458443511595"><ele>22.333333333333336</ele><time>2026-04-18T07:31:37Z</time></trkpt><trkpt lat="14.645802330639048" lon="120.99464157790995"><ele>23.0</ele><time>2026-04-18T07:31:38Z</time></trkpt><trkpt lat="14.645966059142228" lon="120.99470172255023"><ele>23.0</ele><time>2026-04-18T07:31:39Z</time></trkpt><trkpt lat="14.646134687361279" lon="120.99476980576837"><ele>23.0</ele><time>2026-04-18T07:31:40Z</time></trkpt><trkpt lat="14.646304360068603" lon="120.99484042484175"><ele>23.0</ele><time>2026-04-18T07:31:41Z</time></trkpt><trkpt lat="14.646476616685318" lon="120.99491305128025"><ele>23.0</ele><time>2026-04-18T07:31:42Z</time></trkpt><trkpt lat="14.646648556435123" lon="120.99498584980296"><ele>23.0</ele><time>2026-04-18T07:31:43Z</time></trkpt><trkpt lat="14.646818222580364" lon="120.99505786003809"><ele>23.0</ele><time>2026-04-18T07:31:44Z</time></trkpt><trkpt lat="14.64698586152104" lon="120.99512931792502"><ele>23.0</ele><time>2026-04-18T07:31:45Z</time></trkpt><trkpt lat="14.647141340985744" lon="120.99519513655063"><ele>23.0</ele><time>2026-04-18T07:31:46Z</time></trkpt><trkpt lat="14.647296003051077" lon="120.9952612287718"><ele>23.0</ele><time>2026-04-18T07:31:47Z</time></trkpt><trkpt lat="14.647447227410263" lon="120.99532399063573"><ele>23.0</ele><time>2026-04-18T07:31:48Z</time></trkpt><trkpt lat="14.647597269471037" lon="120.99538728028672"><ele>23.0</ele><time>2026-04-18T07:31:49Z</time></trkpt><trkpt lat="14.647745020241388" lon="120.99545273172127"><ele>23.0</ele><time>2026-04-18T07:31:50Z</time></trkpt><trkpt lat="14.647892062823802" lon="120.99551393553337"><ele>23.666666666666668</ele><time>2026-04-18T07:31:51Z</time></trkpt><trkpt lat="14.648041192851082" lon="120.99557678612227"><ele>24.333333333333336</ele><time>2026-04-18T07:31:52Z</time></trkpt><trkpt lat="14.648193426953052" lon="120.99563762500205"><ele>25.0</ele><time>2026-04-18T07:31:53Z</time></trkpt><trkpt lat="14.648344544532515" lon="120.99570333355827"><ele>25.0</ele><time>2026-04-18T07:31:54Z</time></trkpt><trkpt lat="14.648497491447284" lon="120.99576617357506"><ele>25.0</ele><time>2026-04-18T07:31:55Z</time></trkpt><trkpt lat="14.648650816810754" lon="120.9958292874952"><ele>25.0</ele><time>2026-04-18T07:31:56Z</time></trkpt><trkpt lat="14.64880335888799" lon="120.99589541715181"><ele>25.0</ele><time>2026-04-18T07:31:57Z</time></trkpt><trkpt lat="14.64895668462695" lon="120.99596122237048"><ele>25.0</ele><time>2026-04-18T07:31:58Z</time></trkpt><trkpt lat="14.649112522057525" lon="120.99602843294598"><ele>25.0</ele><time>2026-04-18T07:31:59Z</time></trkpt><trkpt lat="14.649268788692925" lon="120.99609527005869"><ele>25.0</ele><time>2026-04-18T07:32:00Z</time></trkpt><trkpt lat="14.649424441887843" lon="120.99616256962744"><ele>25.0</ele><time>2026-04-18T07:32:01Z</time></trkpt><trkpt lat="14.649579899800871" lon="120.99622766831688"><ele>25.0</ele><time>2026-04-18T07:32:02Z</time></trkpt><trkpt lat="14.649732504671952" lon="120.99629213251923"><ele>25.0</ele><time>2026-04-18T07:32:03Z</time></trkpt><trkpt lat="14.649885483354867" lon="120.99635671480429"><ele>25.0</ele><time>2026-04-18T07:32:04Z</time></trkpt><trkpt lat="14.650039702364444" lon="120.99642107304925"><ele>25.0</ele><time>2026-04-18T07:32:05Z</time></trkpt><trkpt lat="14.650191916236182" lon="120.99648583351906"><ele>25.333333333333336</ele><time>2026-04-18T07:32:06Z</time></trkpt><trkpt lat="14.650341489906204" lon="120.99655046970793"><ele>25.666666666666664</ele><time>2026-04-18T07:32:07Z</time></trkpt><trkpt lat="14.6504903288007" lon="120.99661456657246"><ele>26.0</ele><time>2026-04-18T07:32:08Z</time></trkpt><trkpt lat="14.650638778602437" lon="120.99667926056676"><ele>26.0</ele><time>2026-04-18T07:32:09Z</time></trkpt><trkpt lat="14.65078521874147" lon="120.99674220851027"><ele>26.0</ele><time>2026-04-18T07:32:10Z</time></trkpt><trkpt lat="14.650930099411205" lon="120.9968049709086"><ele>26.0</ele><time>2026-04-18T07:32:11Z</time></trkpt><trkpt lat="14.651072061725092" lon="120.99686595770723"><ele>26.666666666666664</ele><time>2026-04-18T07:32:12Z</time></trkpt><trkpt lat="14.651213175745873" lon="120.99692661135224"><ele>27.333333333333336</ele><time>2026-04-18T07:32:13Z</time></trkpt><trkpt lat="14.651352007325416" lon="120.99698549435335"><ele>28.0</ele><time>2026-04-18T07:32:14Z</time></trkpt><trkpt lat="14.651490803959117" lon="120.99704493481295"><ele>28.0</ele><time>2026-04-18T07:32:15Z</time></trkpt><trkpt lat="14.651629550760179" lon="120.99710865560549"><ele>28.0</ele><time>2026-04-18T07:32:16Z</time></trkpt><trkpt lat="14.651767487443733" lon="120.99717614863329"><ele>28.0</ele><time>2026-04-18T07:32:17Z</time></trkpt><trkpt lat="14.651907230637882" lon="120.99723951781621"><ele>27.0</ele><time>2026-04-18T07:32:18Z</time></trkpt><trkpt lat="14.652050129100646" lon="120.99730570318162"><ele>26.0</ele><time>2026-04-18T07:32:19Z</time></trkpt><trkpt lat="14.652192565596597" lon="120.99736928950638"><ele>25.0</ele><time>2026-04-18T07:32:20Z</time></trkpt><trkpt lat="14.652336367154408" lon="120.99743231098098"><ele>25.0</ele><time>2026-04-18T07:32:21Z</time></trkpt><trkpt lat="14.652480522427192" lon="120.9975010420096"><ele>25.0</ele><time>2026-04-18T07:32:22Z</time></trkpt><trkpt lat="14.652622018753906" lon="120.99757213047417"><ele>25.0</ele><time>2026-04-18T07:32:23Z</time></trkpt><trkpt lat="14.652764295617226" lon="120.99764686688752"><ele>24.666666666666668</ele><time>2026-04-18T07:32:24Z</time></trkpt><trkpt lat="14.652906602493339" lon="120.99771164016865"><ele>24.333333333333336</ele><time>2026-04-18T07:32:25Z</time></trkpt><trkpt lat="14.653053618393628" lon="120.99779335008687"><ele>24.0</ele><time>2026-04-18T07:32:26Z</time></trkpt><trkpt lat="14.653203151023233" lon="120.99787965034012"><ele>24.0</ele><time>2026-04-18T07:32:27Z</time></trkpt><trkpt lat="14.65335886749523" lon="120.99796207599341"><ele>24.0</ele><time>2026-04-18T07:32:28Z</time></trkpt><trkpt lat="14.653521246705079" lon="120.99805418925641"><ele>24.0</ele><time>2026-04-18T07:32:29Z</time></trkpt><trkpt lat="14.653680318835399" lon="120.99814498604556"><ele>24.0</ele><time>2026-04-18T07:32:30Z</time></trkpt><trkpt lat="14.65384224321438" lon="120.99824290163458"><ele>24.0</ele><time>2026-04-18T07:32:31Z</time></trkpt><trkpt lat="14.654008623982389" lon="120.99834769866297"><ele>24.0</ele><time>2026-04-18T07:32:32Z</time></trkpt><trkpt lat="14.654171818632776" lon="120.99844754004585"><ele>24.0</ele><time>2026-04-18T07:32:33Z</time></trkpt><trkpt lat="14.654333534151402" lon="120.99855326855182"><ele>24.0</ele><time>2026-04-18T07:32:34Z</time></trkpt><trkpt lat="14.65449141687678" lon="120.99865850427291"><ele>24.0</ele><time>2026-04-18T07:32:35Z</time></trkpt><trkpt lat="14.654651339536587" lon="120.99876337601856"><ele>24.333333333333336</ele><time>2026-04-18T07:32:36Z</time></trkpt><trkpt lat="14.654809802874018" lon="120.99887065081326"><ele>24.666666666666668</ele><time>2026-04-18T07:32:37Z</time></trkpt><trkpt lat="14.654971638100692" lon="120.99898537464604"><ele>25.0</ele><time>2026-04-18T07:32:38Z</time></trkpt><trkpt lat="14.65512694815418" lon="120.99909731207855"><ele>25.333333333333336</ele><time>2026-04-18T07:32:39Z</time></trkpt><trkpt lat="14.655279097340884" lon="120.9992113310556"><ele>25.666666666666664</ele><time>2026-04-18T07:32:40Z</time></trkpt><trkpt lat="14.655426347803921" lon="120.99932219772414"><ele>26.0</ele><time>2026-04-18T07:32:41Z</time></trkpt><trkpt lat="14.655569086826594" lon="120.99943167089373"><ele>26.0</ele><time>2026-04-18T07:32:42Z</time></trkpt><trkpt lat="14.655707958669426" lon="120.99953776550281"><ele>26.0</ele><time>2026-04-18T07:32:43Z</time></trkpt><trkpt lat="14.65584249641815" lon="120.99963997914509"><ele>26.0</ele><time>2026-04-18T07:32:44Z</time></trkpt><trkpt lat="14.655968639718168" lon="120.99973493815534"><ele>26.0</ele><time>2026-04-18T07:32:45Z</time></trkpt><trkpt lat="14.656093246097006" lon="120.99982695924291"><ele>26.0</ele><time>2026-04-18T07:32:46Z</time></trkpt><trkpt lat="14.65621673746683" lon="120.99991121667189"><ele>26.0</ele><time>2026-04-18T07:32:47Z</time></trkpt><trkpt lat="14.656343273168522" lon="120.99998954983141"><ele>26.0</ele><time>2026-04-18T07:32:48Z</time></trkpt><trkpt lat="14.656471646143192" lon="121.00005828319985"><ele>25.5</ele><time>2026-04-18T07:32:49Z</time></trkpt><trkpt lat="14.656604151970686" lon="121.00011494325695"><ele>25.0</ele><time>2026-04-18T07:32:50Z</time></trkpt><trkpt lat="14.65673748161538" lon="121.00015748021077"><ele>24.5</ele><time>2026-04-18T07:32:51Z</time></trkpt><trkpt lat="14.656872842883715" lon="121.00018707438188"><ele>24.0</ele><time>2026-04-18T07:32:52Z</time></trkpt><trkpt lat="14.657006795107517" lon="121.00020587564245"><ele>22.75</ele><time>2026-04-18T07:32:53Z</time></trkpt><trkpt lat="14.657137137712786" lon="121.00021297892145"><ele>21.5</ele><time>2026-04-18T07:32:54Z</time></trkpt><trkpt lat="14.657268813693168" lon="121.00021503058909"><ele>20.25</ele><time>2026-04-18T07:32:55Z</time></trkpt><trkpt lat="14.65740275800131" lon="121.00021338261554"><ele>19.0</ele><time>2026-04-18T07:32:56Z</time></trkpt><trkpt lat="14.657539827501198" lon="121.00021153967374"><ele>19.0</ele><time>2026-04-18T07:32:57Z</time></trkpt><trkpt lat="14.65768362539217" lon="121.00020873813612"><ele>19.0</ele><time>2026-04-18T07:32:58Z</time></trkpt><trkpt lat="14.65782834101016" lon="121.000207863719"><ele>19.0</ele><time>2026-04-18T07:32:59Z</time></trkpt><trkpt lat="14.65797768693958" lon="121.00020594355694"><ele>19.0</ele><time>2026-04-18T07:33:00Z</time></trkpt><trkpt lat="14.65813050011861" lon="121.00020332446901"><ele>19.0</ele><time>2026-04-18T07:33:01Z</time></trkpt><trkpt lat="14.658288562179742" lon="121.00020052622901"><ele>19.0</ele><time>2026-04-18T07:33:02Z</time></trkpt><trkpt lat="14.658451667281385" lon="121.00019861876267"><ele>19.0</ele><time>2026-04-18T07:33:03Z</time></trkpt><trkpt lat="14.658620373697143" lon="121.0001952998547"><ele>19.666666666666664</ele><time>2026-04-18T07:33:04Z</time></trkpt><trkpt lat="14.658794750834637" lon="121.00019664067993"><ele>20.333333333333332</ele><time>2026-04-18T07:33:05Z</time></trkpt><trkpt lat="14.658974451438732" lon="121.00020058874037"><ele>21.0</ele><time>2026-04-18T07:33:06Z</time></trkpt><trkpt lat="14.65915589612822" lon="121.00020409713389"><ele>21.0</ele><time>2026-04-18T07:33:07Z</time></trkpt><trkpt lat="14.659339060141292" lon="121.00020762418458"><ele>21.0</ele><time>2026-04-18T07:33:08Z</time></trkpt><trkpt lat="14.659522499702888" lon="121.00021072780386"><ele>21.0</ele><time>2026-04-18T07:33:09Z</time></trkpt><trkpt lat="14.659708215838123" lon="121.00021452841177"><ele>20.666666666666668</ele><time>2026-04-18T07:33:10Z</time></trkpt><trkpt lat="14.659897356218824" lon="121.0002208293301"><ele>20.333333333333336</ele><time>2026-04-18T07:33:11Z</time></trkpt><trkpt lat="14.660087289903958" lon="121.00022734179211"><ele>20.0</ele><time>2026-04-18T07:33:12Z</time></trkpt><trkpt lat="14.660285684696577" lon="121.00023490330635"><ele>20.666666666666668</ele><time>2026-04-18T07:33:13Z</time></trkpt><trkpt lat="14.660485427738163" lon="121.0002425234534"><ele>21.333333333333332</ele><time>2026-04-18T07:33:14Z</time></trkpt><trkpt lat="14.660686309570508" lon="121.0002497099542"><ele>22.0</ele><time>2026-04-18T07:33:15Z</time></trkpt><trkpt lat="14.660882385702571" lon="121.00025470828318"><ele>22.0</ele><time>2026-04-18T07:33:16Z</time></trkpt><trkpt lat="14.661076609156552" lon="121.0002608118728"><ele>22.0</ele><time>2026-04-18T07:33:17Z</time></trkpt><trkpt lat="14.661266767835167" lon="121.00026724985953"><ele>22.0</ele><time>2026-04-18T07:33:18Z</time></trkpt><trkpt lat="14.661453189764378" lon="121.0002741292754"><ele>22.0</ele><time>2026-04-18T07:33:19Z</time></trkpt><trkpt lat="14.66163502692121" lon="121.00028391628766"><ele>22.0</ele><time>2026-04-18T07:33:20Z</time></trkpt><trkpt lat="14.661810214304053" lon="121.00029275588733"><ele>22.0</ele><time>2026-04-18T07:33:21Z</time></trkpt><trkpt lat="14.661980917268659" lon="121.00030205847091"><ele>22.666666666666664</ele><time>2026-04-18T07:33:22Z</time></trkpt><trkpt lat="14.662149816842321" lon="121.0003097615424"><ele>23.333333333333332</ele><time>2026-04-18T07:33:23Z</time></trkpt><trkpt lat="14.662316941814192" lon="121.0003172242673"><ele>24.0</ele><time>2026-04-18T07:33:24Z</time></trkpt><trkpt lat="14.662480237194163" lon="121.00032170575079"><ele>24.0</ele><time>2026-04-18T07:33:25Z</time></trkpt><trkpt lat="14.662644286098292" lon="121.00032689454461"><ele>24.0</ele><time>2026-04-18T07:33:26Z</time></trkpt><trkpt lat="14.662808376282936" lon="121.00033124258097"><ele>24.0</ele><time>2026-04-18T07:33:27Z</time></trkpt><trkpt lat="14.66297120181968" lon="121.00033463200438"><ele>24.666666666666664</ele><time>2026-04-18T07:33:28Z</time></trkpt><trkpt lat="14.663133518016757" lon="121.00033653270025"><ele>25.333333333333332</ele><time>2026-04-18T07:33:29Z</time></trkpt><trkpt lat="14.663297088896078" lon="121.00033893855178"><ele>26.0</ele><time>2026-04-18T07:33:30Z</time></trkpt><trkpt lat="14.663461064300472" lon="121.00034067736907"><ele>25.333333333333332</ele><time>2026-04-18T07:33:31Z</time></trkpt><trkpt lat="14.663626989132704" lon="121.00034465891446"><ele>24.666666666666664</ele><time>2026-04-18T07:33:32Z</time></trkpt><trkpt lat="14.663793224884886" lon="121.00034742109878"><ele>24.0</ele><time>2026-04-18T07:33:33Z</time></trkpt><trkpt lat="14.663963584995065" lon="121.00034934095015"><ele>24.0</ele><time>2026-04-18T07:33:34Z</time></trkpt><trkpt lat="14.664133038611379" lon="121.00035063222707"><ele>24.0</ele><time>2026-04-18T07:33:35Z</time></trkpt><trkpt lat="14.6643047518992" lon="121.00035364480678"><ele>24.0</ele><time>2026-04-18T07:33:36Z</time></trkpt><trkpt lat="14.664479955458551" lon="121.00035845916842"><ele>25.0</ele><time>2026-04-18T07:33:37Z</time></trkpt><trkpt lat="14.66464944073397" lon="121.00035812576665"><ele>26.0</ele><time>2026-04-18T07:33:38Z</time></trkpt><trkpt lat="14.66482772209791" lon="121.00035956172769"><ele>27.0</ele><time>2026-04-18T07:33:39Z</time></trkpt><trkpt lat="14.665005827977717" lon="121.00036244826728"><ele>27.0</ele><time>2026-04-18T07:33:40Z</time></trkpt><trkpt lat="14.665184331058917" lon="121.00036613818001"><ele>27.0</ele><time>2026-04-18T07:33:41Z</time></trkpt><trkpt lat="14.665361287596857" lon="121.00036895723738"><ele>27.0</ele><time>2026-04-18T07:33:42Z</time></trkpt><trkpt lat="14.665541282157402" lon="121.00037116163965"><ele>27.666666666666664</ele><time>2026-04-18T07:33:43Z</time></trkpt><trkpt lat="14.665721700573469" lon="121.00037609513275"><ele>28.333333333333332</ele><time>2026-04-18T07:33:44Z</time></trkpt><trkpt lat="14.665906919017374" lon="121.00037826183124"><ele>29.0</ele><time>2026-04-18T07:33:45Z</time></trkpt><trkpt lat="14.66609150655935" lon="121.00037999881906"><ele>29.0</ele><time>2026-04-18T07:33:46Z</time></trkpt><trkpt lat="14.666278471882944" lon="121.00038264749938"><ele>29.0</ele><time>2026-04-18T07:33:47Z</time></trkpt><trkpt lat="14.666460891155072" lon="121.00038513108949"><ele>29.0</ele><time>2026-04-18T07:33:48Z</time></trkpt><trkpt lat="14.666647161038798" lon="121.00038831424604"><ele>29.0</ele><time>2026-04-18T07:33:49Z</time></trkpt><trkpt lat="14.666833266783186" lon="121.00039147683007"><ele>29.0</ele><time>2026-04-18T07:33:50Z</time></trkpt><trkpt lat="14.66701643067987" lon="121.0003935358934"><ele>29.0</ele><time>2026-04-18T07:33:51Z</time></trkpt><trkpt lat="14.667198327189473" lon="121.00039612810293"><ele>28.666666666666664</ele><time>2026-04-18T07:33:52Z</time></trkpt><trkpt lat="14.667376169187508" lon="121.00039922526399"><ele>28.333333333333336</ele><time>2026-04-18T07:33:53Z</time></trkpt><trkpt lat="14.667554514452135" lon="121.00040254066266"><ele>28.0</ele><time>2026-04-18T07:33:54Z</time></trkpt><trkpt lat="14.667730781714784" lon="121.0004076988052"><ele>28.666666666666668</ele><time>2026-04-18T07:33:55Z</time></trkpt><trkpt lat="14.667907024825235" lon="121.0004150837253"><ele>29.333333333333336</ele><time>2026-04-18T07:33:56Z</time></trkpt><trkpt lat="14.668077189769901" lon="121.00042403418458"><ele>30.0</ele><time>2026-04-18T07:33:57Z</time></trkpt><trkpt lat="14.668248111654664" lon="121.0004307469179"><ele>30.0</ele><time>2026-04-18T07:33:58Z</time></trkpt><trkpt lat="14.668413487675611" lon="121.00043660560186"><ele>30.0</ele><time>2026-04-18T07:33:59Z</time></trkpt><trkpt lat="14.668576523307749" lon="121.00044017871045"><ele>30.0</ele><time>2026-04-18T07:34:00Z</time></trkpt><trkpt lat="14.668738383241125" lon="121.00044468984755"><ele>29.666666666666664</ele><time>2026-04-18T07:34:01Z</time></trkpt><trkpt lat="14.668900787555813" lon="121.00044924119406"><ele>29.333333333333332</ele><time>2026-04-18T07:34:02Z</time></trkpt><trkpt lat="14.66906096937293" lon="121.00045811079754"><ele>29.0</ele><time>2026-04-18T07:34:03Z</time></trkpt><trkpt lat="14.669216665997071" lon="121.00046874857891"><ele>29.0</ele><time>2026-04-18T07:34:04Z</time></trkpt><trkpt lat="14.669373353327595" lon="121.00048185708496"><ele>29.0</ele><time>2026-04-18T07:34:05Z</time></trkpt><trkpt lat="14.669527138802762" lon="121.00049241427607"><ele>29.0</ele><time>2026-04-18T07:34:06Z</time></trkpt><trkpt lat="14.669676462040083" lon="121.00050585943482"><ele>29.0</ele><time>2026-04-18T07:34:07Z</time></trkpt><trkpt lat="14.669821176533347" lon="121.00051870863767"><ele>29.0</ele><time>2026-04-18T07:34:08Z</time></trkpt><trkpt lat="14.669961600858423" lon="121.00053465028383"><ele>29.0</ele><time>2026-04-18T07:34:09Z</time></trkpt><trkpt lat="14.670095612355329" lon="121.00054973911008"><ele>29.0</ele><time>2026-04-18T07:34:10Z</time></trkpt><trkpt lat="14.670225040365096" lon="121.00056387385823"><ele>29.75</ele><time>2026-04-18T07:34:11Z</time></trkpt><trkpt lat="14.670354315459074" lon="121.00057631331694"><ele>30.5</ele><time>2026-04-18T07:34:12Z</time></trkpt><trkpt lat="14.670481557706902" lon="121.00058646998696"><ele>31.25</ele><time>2026-04-18T07:34:13Z</time></trkpt><trkpt lat="14.670606567777208" lon="121.0005952305311"><ele>32.0</ele><time>2026-04-18T07:34:14Z</time></trkpt><trkpt lat="14.670732879154558" lon="121.00060506084664"><ele>32.0</ele><time>2026-04-18T07:34:15Z</time></trkpt><trkpt lat="14.670857918873702" lon="121.00061425089761"><ele>32.0</ele><time>2026-04-18T07:34:16Z</time></trkpt><trkpt lat="14.670987252877099" lon="121.00062399281711"><ele>32.0</ele><time>2026-04-18T07:34:17Z</time></trkpt><trkpt lat="14.671116810360443" lon="121.0006342735837"><ele>32.0</ele><time>2026-04-18T07:34:18Z</time></trkpt><trkpt lat="14.671247553199407" lon="121.00064361307346"><ele>33.25</ele><time>2026-04-18T07:34:19Z</time></trkpt><trkpt lat="14.671378632773704" lon="121.00065264974057"><ele>34.5</ele><time>2026-04-18T07:34:20Z</time></trkpt><trkpt lat="14.67151087690378" lon="121.00066239678135"><ele>35.75</ele><time>2026-04-18T07:34:21Z</time></trkpt><trkpt lat="14.67164343082099" lon="121.00067055673989"><ele>37.0</ele><time>2026-04-18T07:34:22Z</time></trkpt><trkpt lat="14.671774960466855" lon="121.00067746588061"><ele>37.0</ele><time>2026-04-18T07:34:23Z</time></trkpt><trkpt lat="14.671914962481111" lon="121.00068339916527"><ele>37.0</ele><time>2026-04-18T07:34:24Z</time></trkpt><trkpt lat="14.67205483419264" lon="121.00068582825114"><ele>37.0</ele><time>2026-04-18T07:34:25Z</time></trkpt><trkpt lat="14.672194446081654" lon="121.00068929637982"><ele>37.0</ele><time>2026-04-18T07:34:26Z</time></trkpt><trkpt lat="14.672337863215143" lon="121.00069123113387"><ele>36.0</ele><time>2026-04-18T07:34:27Z</time></trkpt><trkpt lat="14.672477580698175" lon="121.00069028784876"><ele>35.0</ele><time>2026-04-18T07:34:28Z</time></trkpt><trkpt lat="14.672616054199871" lon="121.0006889492603"><ele>34.0</ele><time>2026-04-18T07:34:29Z</time></trkpt><trkpt lat="14.672751363411864" lon="121.00068875120937"><ele>33.0</ele><time>2026-04-18T07:34:30Z</time></trkpt><trkpt lat="14.672883028622111" lon="121.00068584887299"><ele>32.5</ele><time>2026-04-18T07:34:31Z</time></trkpt><trkpt lat="14.673010462109437" lon="121.00068403318872"><ele>32.0</ele><time>2026-04-18T07:34:32Z</time></trkpt><trkpt lat="14.673134204565905" lon="121.00068301218695"><ele>31.5</ele><time>2026-04-18T07:34:33Z</time></trkpt><trkpt lat="14.673259994914241" lon="121.00068246229846"><ele>31.0</ele><time>2026-04-18T07:34:34Z</time></trkpt><trkpt lat="14.673387820007763" lon="121.0006842413704"><ele>31.0</ele><time>2026-04-18T07:34:35Z</time></trkpt><trkpt lat="14.673516831770055" lon="121.00068914620664"><ele>31.0</ele><time>2026-04-18T07:34:36Z</time></trkpt><trkpt lat="14.673646950565862" lon="121.00068950258388"><ele>31.0</ele><time>2026-04-18T07:34:37Z</time></trkpt><trkpt lat="14.673780892118236" lon="121.00069360330285"><ele>31.0</ele><time>2026-04-18T07:34:38Z</time></trkpt><trkpt lat="14.673910870783367" lon="121.00069569719906"><ele>29.5</ele><time>2026-04-18T07:34:39Z</time></trkpt><trkpt lat="14.67403734344595" lon="121.00069802529283"><ele>28.0</ele><time>2026-04-18T07:34:40Z</time></trkpt><trkpt lat="14.67417368532124" lon="121.00064145320528"><ele>26.5</ele><time>2026-04-18T07:34:41Z</time></trkpt><trkpt lat="14.6743132702624" lon="121.00064495255398"><ele>25.0</ele><time>2026-04-18T07:34:42Z</time></trkpt><trkpt lat="14.674455700398967" lon="121.00064937622057"><ele>23.75</ele><time>2026-04-18T07:34:43Z</time></trkpt><trkpt lat="14.674595545352055" lon="121.00065304266631"><ele>22.5</ele><time>2026-04-18T07:34:44Z</time></trkpt><trkpt lat="14.674727761955777" lon="121.00065639761782"><ele>21.25</ele><time>2026-04-18T07:34:45Z</time></trkpt><trkpt lat="14.674856925532564" lon="121.00067000936997"><ele>20.0</ele><time>2026-04-18T07:34:46Z</time></trkpt><trkpt lat="14.67498480035098" lon="121.00065194880804"><ele>20.0</ele><time>2026-04-18T07:34:47Z</time></trkpt><trkpt lat="14.675099904756934" lon="121.00063816112477"><ele>20.0</ele><time>2026-04-18T07:34:48Z</time></trkpt><trkpt lat="14.675203106617321" lon="121.00063043189627"><ele>20.0</ele><time>2026-04-18T07:34:49Z</time></trkpt><trkpt lat="14.675308599097606" lon="121.00062630433388"><ele>20.0</ele><time>2026-04-18T07:34:50Z</time></trkpt><trkpt lat="14.675414495920284" lon="121.00062317593999"><ele>20.0</ele><time>2026-04-18T07:34:51Z</time></trkpt><trkpt lat="14.675522892693353" lon="121.00062013606974"><ele>18.5</ele><time>2026-04-18T07:34:52Z</time></trkpt><trkpt lat="14.67563329958238" lon="121.00061480961482"><ele>17.0</ele><time>2026-04-18T07:34:53Z</time></trkpt><trkpt lat="14.675746607901607" lon="121.00061016837157"><ele>15.5</ele><time>2026-04-18T07:34:54Z</time></trkpt><trkpt lat="14.675868854441255" lon="121.00060110303495"><ele>14.0</ele><time>2026-04-18T07:34:55Z</time></trkpt><trkpt lat="14.675993488305323" lon="121.00058786506814"><ele>14.75</ele><time>2026-04-18T07:34:56Z</time></trkpt><trkpt lat="14.67612104620544" lon="121.0005794221708"><ele>15.5</ele><time>2026-04-18T07:34:57Z</time></trkpt><trkpt lat="14.6762536879705" lon="121.00056859670029"><ele>16.25</ele><time>2026-04-18T07:34:58Z</time></trkpt><trkpt lat="14.676387952783513" lon="121.00055277664394"><ele>17.0</ele><time>2026-04-18T07:34:59Z</time></trkpt><trkpt lat="14.676526008975706" lon="121.00053432102285"><ele>17.0</ele><time>2026-04-18T07:35:00Z</time></trkpt><trkpt lat="14.67666524210823" lon="121.00051199572746"><ele>17.0</ele><time>2026-04-18T07:35:01Z</time></trkpt><trkpt lat="14.676805553431233" lon="121.0004887974628"><ele>17.0</ele><time>2026-04-18T07:35:02Z</time></trkpt><trkpt lat="14.67694266281863" lon="121.00046457434388"><ele>17.0</ele><time>2026-04-18T07:35:03Z</time></trkpt><trkpt lat="14.67708037792431" lon="121.00044260153359"><ele>16.75</ele><time>2026-04-18T07:35:04Z</time></trkpt><trkpt lat="14.677215173437173" lon="121.00042398167614"><ele>16.5</ele><time>2026-04-18T07:35:05Z</time></trkpt><trkpt lat="14.677347903712995" lon="121.00040988771309"><ele>16.25</ele><time>2026-04-18T07:35:06Z</time></trkpt><trkpt lat="14.677474304284905" lon="121.00039743458389"><ele>16.0</ele><time>2026-04-18T07:35:07Z</time></trkpt><trkpt lat="14.677599042454395" lon="121.00038947115037"><ele>16.0</ele><time>2026-04-18T07:35:08Z</time></trkpt><trkpt lat="14.677714334835597" lon="121.00038397449218"><ele>16.0</ele><time>2026-04-18T07:35:09Z</time></trkpt><trkpt lat="14.677825165837765" lon="121.00037964906733"><ele>16.0</ele><time>2026-04-18T07:35:10Z</time></trkpt><trkpt lat="14.677926035237746" lon="121.0003777889514"><ele>16.0</ele><time>2026-04-18T07:35:11Z</time></trkpt><trkpt lat="14.67801515228592" lon="121.00037723260407"><ele>16.0</ele><time>2026-04-18T07:35:12Z</time></trkpt><trkpt lat="14.678097152461415" lon="121.00037955190858"><ele>15.999999999999998</ele><time>2026-04-18T07:35:13Z</time></trkpt><trkpt lat="14.678169605400797" lon="121.00038147975218"><ele>16.0</ele><time>2026-04-18T07:35:14Z</time></trkpt><trkpt lat="14.678284859090095" lon="121.00038224832075"><ele>16.0</ele><time>2026-04-18T07:35:16Z</time></trkpt><trkpt lat="14.67837258440031" lon="121.00038707447833"><ele>16.0</ele><time>2026-04-18T07:35:18Z</time></trkpt><trkpt lat="14.678445622555987" lon="121.00039304689416"><ele>15.999999999999998</ele><time>2026-04-18T07:35:21Z</time></trkpt><trkpt lat="14.67853320503985" lon="121.00039609227282"><ele>16.0</ele><time>2026-04-18T07:35:25Z</time></trkpt><trkpt lat="14.678599758177668" lon="121.00039628829316"><ele>16.400000000000002</ele><time>2026-04-18T07:35:29Z</time></trkpt><trkpt lat="14.678748547520318" lon="121.00034625652924"><ele>16.8</ele><time>2026-04-18T07:35:51Z</time></trkpt><trkpt lat="14.678854408451649" lon="121.00038814422895"><ele>17.200000000000003</ele><time>2026-04-18T07:35:53Z</time></trkpt><trkpt lat="14.678937912831735" lon="121.00041681821013"><ele>17.6</ele><time>2026-04-18T07:35:55Z</time></trkpt><trkpt lat="14.679026505262977" lon="121.00043730156918"><ele>18.0</ele><time>2026-04-18T07:35:56Z</time></trkpt><trkpt lat="14.679098443986911" lon="121.0004593381234"><ele>18.0</ele><time>2026-04-18T07:35:57Z</time></trkpt><trkpt lat="14.679176080759468" lon="121.00047656423763"><ele>18.0</ele><time>2026-04-18T07:35:58Z</time></trkpt><trkpt lat="14.67926000044232" lon="121.00049695321695"><ele>18.0</ele><time>2026-04-18T07:35:59Z</time></trkpt><trkpt lat="14.679342189418103" lon="121.00051293131986"><ele>18.0</ele><time>2026-04-18T07:36:00Z</time></trkpt><trkpt lat="14.679429285461392" lon="121.00053037871744"><ele>18.0</ele><time>2026-04-18T07:36:01Z</time></trkpt><trkpt lat="14.679553986870356" lon="121.00055116657595"><ele>17.0</ele><time>2026-04-18T07:36:02Z</time></trkpt><trkpt lat="14.679658951161871" lon="121.00057556740143"><ele>16.0</ele><time>2026-04-18T07:36:03Z</time></trkpt><trkpt lat="14.679772600013122" lon="121.0005973553416"><ele>15.0</ele><time>2026-04-18T07:36:04Z</time></trkpt><trkpt lat="14.679888464793375" lon="121.00061710527295"><ele>14.0</ele><time>2026-04-18T07:36:05Z</time></trkpt><trkpt lat="14.680010079578109" lon="121.00063349481155"><ele>14.0</ele><time>2026-04-18T07:36:06Z</time></trkpt><trkpt lat="14.680139878323555" lon="121.00064944822677"><ele>14.0</ele><time>2026-04-18T07:36:07Z</time></trkpt><trkpt lat="14.680272649705824" lon="121.00065922043085"><ele>14.0</ele><time>2026-04-18T07:36:08Z</time></trkpt><trkpt lat="14.6804068745762" lon="121.00066182950629"><ele>14.0</ele><time>2026-04-18T07:36:09Z</time></trkpt><trkpt lat="14.680549076939213" lon="121.00066972619636"><ele>12.333333333333334</ele><time>2026-04-18T07:36:10Z</time></trkpt><trkpt lat="14.680695883785045" lon="121.00067803811532"><ele>10.666666666666668</ele><time>2026-04-18T07:36:11Z</time></trkpt><trkpt lat="14.680845615493972" lon="121.00068476017121"><ele>9.0</ele><time>2026-04-18T07:36:12Z</time></trkpt><trkpt lat="14.68100376361627" lon="121.00069331978291"><ele>9.0</ele><time>2026-04-18T07:36:13Z</time></trkpt><trkpt lat="14.681163730107388" lon="121.0007012319689"><ele>9.0</ele><time>2026-04-18T07:36:14Z</time></trkpt><trkpt lat="14.681323678924636" lon="121.00070819111409"><ele>9.0</ele><time>2026-04-18T07:36:15Z</time></trkpt><trkpt lat="14.68148919965087" lon="121.00071489538298"><ele>9.0</ele><time>2026-04-18T07:36:16Z</time></trkpt><trkpt lat="14.681659498499926" lon="121.00072318350387"><ele>9.0</ele><time>2026-04-18T07:36:17Z</time></trkpt><trkpt lat="14.681832359022716" lon="121.00072871627354"><ele>9.0</ele><time>2026-04-18T07:36:18Z</time></trkpt><trkpt lat="14.682007121397557" lon="121.00073233539116"><ele>10.333333333333332</ele><time>2026-04-18T07:36:19Z</time></trkpt><trkpt lat="14.682187172953576" lon="121.00073627349683"><ele>11.666666666666666</ele><time>2026-04-18T07:36:20Z</time></trkpt><trkpt lat="14.682370748022306" lon="121.00074173843952"><ele>13.0</ele><time>2026-04-18T07:36:21Z</time></trkpt><trkpt lat="14.682555172768843" lon="121.00074691931333"><ele>13.0</ele><time>2026-04-18T07:36:22Z</time></trkpt><trkpt lat="14.682740432057683" lon="121.00075027802035"><ele>13.0</ele><time>2026-04-18T07:36:23Z</time></trkpt><trkpt lat="14.682925923490941" lon="121.00075245884216"><ele>13.0</ele><time>2026-04-18T07:36:24Z</time></trkpt><trkpt lat="14.683115056547585" lon="121.00075590355857"><ele>13.0</ele><time>2026-04-18T07:36:25Z</time></trkpt><trkpt lat="14.683304153390434" lon="121.00075985549537"><ele>13.0</ele><time>2026-04-18T07:36:26Z</time></trkpt><trkpt lat="14.683493034634461" lon="121.00076350647346"><ele>13.0</ele><time>2026-04-18T07:36:27Z</time></trkpt><trkpt lat="14.683687234569593" lon="121.00076734811124"><ele>12.0</ele><time>2026-04-18T07:36:28Z</time></trkpt><trkpt lat="14.683878731027514" lon="121.00077352774876"><ele>11.0</ele><time>2026-04-18T07:36:29Z</time></trkpt><trkpt lat="14.684072855713856" lon="121.00077828483462"><ele>10.0</ele><time>2026-04-18T07:36:30Z</time></trkpt><trkpt lat="14.684271241722488" lon="121.00078354762691"><ele>10.0</ele><time>2026-04-18T07:36:31Z</time></trkpt><trkpt lat="14.684473087047566" lon="121.00078828271299"><ele>10.0</ele><time>2026-04-18T07:36:32Z</time></trkpt><trkpt lat="14.684676130908052" lon="121.00079319837332"><ele>10.0</ele><time>2026-04-18T07:36:33Z</time></trkpt><trkpt lat="14.684881997284494" lon="121.00079815984087"><ele>10.0</ele><time>2026-04-18T07:36:34Z</time></trkpt><trkpt lat="14.685086438607497" lon="121.00080315454872"><ele>10.0</ele><time>2026-04-18T07:36:35Z</time></trkpt><trkpt lat="14.68529621941855" lon="121.000805325521"><ele>10.0</ele><time>2026-04-18T07:36:36Z</time></trkpt><trkpt lat="14.685506583596839" lon="121.00080878206458"><ele>11.333333333333334</ele><time>2026-04-18T07:36:37Z</time></trkpt><trkpt lat="14.685722383782739" lon="121.00081379409733"><ele>12.666666666666668</ele><time>2026-04-18T07:36:38Z</time></trkpt><trkpt lat="14.685940502711016" lon="121.0008222325412"><ele>14.0</ele><time>2026-04-18T07:36:39Z</time></trkpt><trkpt lat="14.686161951526154" lon="121.00082844467231"><ele>14.0</ele><time>2026-04-18T07:36:40Z</time></trkpt><trkpt lat="14.686385725955333" lon="121.0008322650364"><ele>14.0</ele><time>2026-04-18T07:36:41Z</time></trkpt><trkpt lat="14.686609681235113" lon="121.00083798627838"><ele>14.0</ele><time>2026-04-18T07:36:42Z</time></trkpt><trkpt lat="14.686835170361308" lon="121.00084248654986"><ele>14.0</ele><time>2026-04-18T07:36:43Z</time></trkpt><trkpt lat="14.687060286096745" lon="121.00084830859645"><ele>14.0</ele><time>2026-04-18T07:36:44Z</time></trkpt><trkpt lat="14.687285190492455" lon="121.00085539922557"><ele>14.0</ele><time>2026-04-18T07:36:45Z</time></trkpt><trkpt lat="14.687508550453241" lon="121.00086240743413"><ele>14.0</ele><time>2026-04-18T07:36:46Z</time></trkpt><trkpt lat="14.687733295589453" lon="121.00086835041853"><ele>14.0</ele><time>2026-04-18T07:36:47Z</time></trkpt><trkpt lat="14.687955362884418" lon="121.00087485667014"><ele>17.0</ele><time>2026-04-18T07:36:48Z</time></trkpt><trkpt lat="14.688174379719419" lon="121.0008772313257"><ele>20.0</ele><time>2026-04-18T07:36:49Z</time></trkpt><trkpt lat="14.688389615745153" lon="121.00088215648933"><ele>23.0</ele><time>2026-04-18T07:36:50Z</time></trkpt><trkpt lat="14.688600583472573" lon="121.00088663166999"><ele>23.666666666666668</ele><time>2026-04-18T07:36:51Z</time></trkpt><trkpt lat="14.688811383551865" lon="121.0008916286367"><ele>24.333333333333336</ele><time>2026-04-18T07:36:52Z</time></trkpt><trkpt lat="14.689020127742856" lon="121.00089754373136"><ele>25.0</ele><time>2026-04-18T07:36:53Z</time></trkpt><trkpt lat="14.689228579643046" lon="121.00090284623025"><ele>24.666666666666668</ele><time>2026-04-18T07:36:54Z</time></trkpt><trkpt lat="14.689437574732429" lon="121.00090642547755"><ele>24.333333333333336</ele><time>2026-04-18T07:36:55Z</time></trkpt><trkpt lat="14.689650077120994" lon="121.00091551223697"><ele>24.0</ele><time>2026-04-18T07:36:56Z</time></trkpt><trkpt lat="14.689859558285917" lon="121.0009137367775"><ele>24.0</ele><time>2026-04-18T07:36:57Z</time></trkpt><trkpt lat="14.690071217675298" lon="121.00091154276058"><ele>24.0</ele><time>2026-04-18T07:36:58Z</time></trkpt><trkpt lat="14.690286671436512" lon="121.00090442395211"><ele>24.0</ele><time>2026-04-18T07:36:59Z</time></trkpt><trkpt lat="14.690503656347584" lon="121.00089359381296"><ele>24.333333333333336</ele><time>2026-04-18T07:37:00Z</time></trkpt><trkpt lat="14.690721711682901" lon="121.0008771732849"><ele>24.666666666666668</ele><time>2026-04-18T07:37:01Z</time></trkpt><trkpt lat="14.690940375527436" lon="121.00085779392104"><ele>25.0</ele><time>2026-04-18T07:37:02Z</time></trkpt><trkpt lat="14.691159783425675" lon="121.00083396493703"><ele>24.333333333333336</ele><time>2026-04-18T07:37:03Z</time></trkpt><trkpt lat="14.691378963760766" lon="121.000807967115"><ele>23.666666666666668</ele><time>2026-04-18T07:37:04Z</time></trkpt><trkpt lat="14.691598254249364" lon="121.00078105865174"><ele>23.0</ele><time>2026-04-18T07:37:05Z</time></trkpt><trkpt lat="14.69181269774474" lon="121.00074825066845"><ele>22.666666666666668</ele><time>2026-04-18T07:37:06Z</time></trkpt><trkpt lat="14.692031411456545" lon="121.00071167515661"><ele>22.333333333333332</ele><time>2026-04-18T07:37:07Z</time></trkpt><trkpt lat="14.692252245122084" lon="121.00067198220249"><ele>22.0</ele><time>2026-04-18T07:37:08Z</time></trkpt><trkpt lat="14.692476808682333" lon="121.00063253842812"><ele>22.0</ele><time>2026-04-18T07:37:09Z</time></trkpt><trkpt lat="14.692702784113191" lon="121.00058866763791"><ele>22.0</ele><time>2026-04-18T07:37:10Z</time></trkpt><trkpt lat="14.692926381464066" lon="121.00053805139794"><ele>21.5</ele><time>2026-04-18T07:37:11Z</time></trkpt><trkpt lat="14.69315333021188" lon="121.00048162642474"><ele>21.0</ele><time>2026-04-18T07:37:12Z</time></trkpt><trkpt lat="14.693385360075194" lon="121.00042681951408"><ele>18.0</ele><time>2026-04-18T07:37:13Z</time></trkpt><trkpt lat="14.693616826068764" lon="121.00036783163715"><ele>15.0</ele><time>2026-04-18T07:37:14Z</time></trkpt><trkpt lat="14.693848988614414" lon="121.0003044729879"><ele>15.0</ele><time>2026-04-18T07:37:15Z</time></trkpt><trkpt lat="14.694079796893096" lon="121.00023743852381"><ele>15.0</ele><time>2026-04-18T07:37:16Z</time></trkpt><trkpt lat="14.694310901221023" lon="121.00016606623232"><ele>17.0</ele><time>2026-04-18T07:37:17Z</time></trkpt><trkpt lat="14.694538087235484" lon="121.00009375894182"><ele>19.0</ele><time>2026-04-18T07:37:18Z</time></trkpt><trkpt lat="14.69476670450622" lon="121.00001538088182"><ele>19.0</ele><time>2026-04-18T07:37:19Z</time></trkpt><trkpt lat="14.694995381000368" lon="120.9999290090064"><ele>19.0</ele><time>2026-04-18T07:37:20Z</time></trkpt><trkpt lat="14.69522030462259" lon="120.99984573652833"><ele>20.5</ele><time>2026-04-18T07:37:21Z</time></trkpt><trkpt lat="14.695445712402408" lon="120.99975498096683"><ele>22.0</ele><time>2026-04-18T07:37:22Z</time></trkpt><trkpt lat="14.69566830715843" lon="120.99966232921356"><ele>22.0</ele><time>2026-04-18T07:37:23Z</time></trkpt><trkpt lat="14.695891654554" lon="120.99956640970991"><ele>22.0</ele><time>2026-04-18T07:37:24Z</time></trkpt><trkpt lat="14.696111436174771" lon="120.99946711164975"><ele>22.0</ele><time>2026-04-18T07:37:25Z</time></trkpt><trkpt lat="14.696331020264262" lon="120.9993611313798"><ele>22.0</ele><time>2026-04-18T07:37:26Z</time></trkpt><trkpt lat="14.69654984681058" lon="120.99925303705758"><ele>21.0</ele><time>2026-04-18T07:37:27Z</time></trkpt><trkpt lat="14.696767277586734" lon="120.9991385464722"><ele>20.0</ele><time>2026-04-18T07:37:28Z</time></trkpt><trkpt lat="14.696986215012041" lon="120.99902463210401"><ele>20.0</ele><time>2026-04-18T07:37:29Z</time></trkpt><trkpt lat="14.697207319589676" lon="120.99890684896926"><ele>20.0</ele><time>2026-04-18T07:37:30Z</time></trkpt><trkpt lat="14.69742737472433" lon="120.99878686537564"><ele>20.0</ele><time>2026-04-18T07:37:31Z</time></trkpt><trkpt lat="14.697647169292225" lon="120.99866986378815"><ele>20.0</ele><time>2026-04-18T07:37:32Z</time></trkpt><trkpt lat="14.69786527044595" lon="120.99855291465173"><ele>19.5</ele><time>2026-04-18T07:37:33Z</time></trkpt><trkpt lat="14.698084504580404" lon="120.99843591242154"><ele>19.0</ele><time>2026-04-18T07:37:34Z</time></trkpt><trkpt lat="14.698302769580279" lon="120.99831989299854"><ele>19.5</ele><time>2026-04-18T07:37:35Z</time></trkpt><trkpt lat="14.698520522100594" lon="120.99820074508375"><ele>20.0</ele><time>2026-04-18T07:37:36Z</time></trkpt><trkpt lat="14.698734258067292" lon="120.99808384021968"><ele>20.0</ele><time>2026-04-18T07:37:37Z</time></trkpt><trkpt lat="14.698946239939659" lon="120.997968235345"><ele>20.0</ele><time>2026-04-18T07:37:38Z</time></trkpt><trkpt lat="14.699153872637645" lon="120.99785361924083"><ele>20.0</ele><time>2026-04-18T07:37:39Z</time></trkpt><trkpt lat="14.699359632161743" lon="120.99774256377249"><ele>20.0</ele><time>2026-04-18T07:37:40Z</time></trkpt><trkpt lat="14.69956064749344" lon="120.99763177959642"><ele>20.666666666666668</ele><time>2026-04-18T07:37:41Z</time></trkpt><trkpt lat="14.699758776197015" lon="120.99752500243879"><ele>21.333333333333332</ele><time>2026-04-18T07:37:42Z</time></trkpt><trkpt lat="14.699950922951164" lon="120.99742236454804"><ele>22.0</ele><time>2026-04-18T07:37:43Z</time></trkpt><trkpt lat="14.700139300671337" lon="120.9973199937085"><ele>22.0</ele><time>2026-04-18T07:37:44Z</time></trkpt><trkpt lat="14.70032561954778" lon="120.99722195635374"><ele>22.0</ele><time>2026-04-18T07:37:45Z</time></trkpt><trkpt lat="14.700508949794354" lon="120.99712507323673"><ele>22.0</ele><time>2026-04-18T07:37:46Z</time></trkpt><trkpt lat="14.70068704617814" lon="120.99703037119738"><ele>22.0</ele><time>2026-04-18T07:37:47Z</time></trkpt><trkpt lat="14.700864022141364" lon="120.99693692311014"><ele>22.0</ele><time>2026-04-18T07:37:48Z</time></trkpt><trkpt lat="14.701040863325314" lon="120.99684146346985"><ele>22.0</ele><time>2026-04-18T07:37:49Z</time></trkpt><trkpt lat="14.701219694349431" lon="120.99674690685447"><ele>20.333333333333332</ele><time>2026-04-18T07:37:50Z</time></trkpt><trkpt lat="14.701400471177555" lon="120.99664967354543"><ele>18.666666666666668</ele><time>2026-04-18T07:37:51Z</time></trkpt><trkpt lat="14.70158289505378" lon="120.9965504365248"><ele>17.0</ele><time>2026-04-18T07:37:52Z</time></trkpt><trkpt lat="14.701767680767382" lon="120.99644969125846"><ele>18.0</ele><time>2026-04-18T07:37:53Z</time></trkpt><trkpt lat="14.701954404164024" lon="120.99634735023325"><ele>19.0</ele><time>2026-04-18T07:37:54Z</time></trkpt><trkpt lat="14.70214307473257" lon="120.9962437429342"><ele>20.0</ele><time>2026-04-18T07:37:55Z</time></trkpt><trkpt lat="14.702336794889524" lon="120.99613812278736"><ele>20.0</ele><time>2026-04-18T07:37:56Z</time></trkpt><trkpt lat="14.702531616461107" lon="120.9960309605335"><ele>20.0</ele><time>2026-04-18T07:37:57Z</time></trkpt><trkpt lat="14.702728140127034" lon="120.99592530970872"><ele>20.0</ele><time>2026-04-18T07:37:58Z</time></trkpt><trkpt lat="14.702925021744301" lon="120.99581997299883"><ele>19.666666666666668</ele><time>2026-04-18T07:37:59Z</time></trkpt><trkpt lat="14.703120187638135" lon="120.99571464450209"><ele>19.333333333333332</ele><time>2026-04-18T07:38:00Z</time></trkpt><trkpt lat="14.703314711908781" lon="120.99561000640877"><ele>19.0</ele><time>2026-04-18T07:38:01Z</time></trkpt><trkpt lat="14.703509619381771" lon="120.99550707485331"><ele>19.0</ele><time>2026-04-18T07:38:02Z</time></trkpt><trkpt lat="14.703702099092483" lon="120.99540332256682"><ele>19.0</ele><time>2026-04-18T07:38:03Z</time></trkpt><trkpt lat="14.703893640108284" lon="120.99529998496764"><ele>19.0</ele><time>2026-04-18T07:38:04Z</time></trkpt><trkpt lat="14.704086962964737" lon="120.99519604772951"><ele>19.0</ele><time>2026-04-18T07:38:05Z</time></trkpt><trkpt lat="14.70428251582382" lon="120.99509215279353"><ele>19.0</ele><time>2026-04-18T07:38:06Z</time></trkpt><trkpt lat="14.704476641308405" lon="120.99498613322135"><ele>19.0</ele><time>2026-04-18T07:38:07Z</time></trkpt><trkpt lat="14.704670159505003" lon="120.99488194330954"><ele>18.666666666666664</ele><time>2026-04-18T07:38:08Z</time></trkpt><trkpt lat="14.704862143770393" lon="120.99477887373948"><ele>18.333333333333332</ele><time>2026-04-18T07:38:09Z</time></trkpt><trkpt lat="14.705054945726076" lon="120.99467468508922"><ele>18.0</ele><time>2026-04-18T07:38:10Z</time></trkpt><trkpt lat="14.705245053929962" lon="120.99457168867163"><ele>17.0</ele><time>2026-04-18T07:38:11Z</time></trkpt><trkpt lat="14.705435211261475" lon="120.99446918882767"><ele>16.0</ele><time>2026-04-18T07:38:12Z</time></trkpt><trkpt lat="14.705624886680168" lon="120.99436967709765"><ele>15.0</ele><time>2026-04-18T07:38:13Z</time></trkpt><trkpt lat="14.705811812278728" lon="120.99426912788381"><ele>15.0</ele><time>2026-04-18T07:38:14Z</time></trkpt><trkpt lat="14.705995506293418" lon="120.99417134639654"><ele>15.0</ele><time>2026-04-18T07:38:15Z</time></trkpt><trkpt lat="14.706177218073986" lon="120.99407468252997"><ele>15.0</ele><time>2026-04-18T07:38:16Z</time></trkpt><trkpt lat="14.70635363403622" lon="120.99397890465814"><ele>15.0</ele><time>2026-04-18T07:38:17Z</time></trkpt><trkpt lat="14.706528617009695" lon="120.99388419217806"><ele>15.0</ele><time>2026-04-18T07:38:18Z</time></trkpt><trkpt lat="14.706700316299605" lon="120.99379263733994"><ele>15.0</ele><time>2026-04-18T07:38:19Z</time></trkpt><trkpt lat="14.706872399636236" lon="120.99370095587123"><ele>15.333333333333332</ele><time>2026-04-18T07:38:20Z</time></trkpt><trkpt lat="14.70704505758654" lon="120.99360675817955"><ele>15.666666666666666</ele><time>2026-04-18T07:38:21Z</time></trkpt><trkpt lat="14.707217839128116" lon="120.99351201660336"><ele>16.0</ele><time>2026-04-18T07:38:22Z</time></trkpt><trkpt lat="14.707391579656736" lon="120.9934201197578"><ele>15.333333333333332</ele><time>2026-04-18T07:38:23Z</time></trkpt><trkpt lat="14.70756663680086" lon="120.9933246495889"><ele>14.666666666666668</ele><time>2026-04-18T07:38:24Z</time></trkpt><trkpt lat="14.707743533288577" lon="120.99322859765273"><ele>14.0</ele><time>2026-04-18T07:38:25Z</time></trkpt><trkpt lat="14.707923083613947" lon="120.99313148139196"><ele>16.333333333333336</ele><time>2026-04-18T07:38:26Z</time></trkpt><trkpt lat="14.708104786132367" lon="120.9930326401334"><ele>18.666666666666668</ele><time>2026-04-18T07:38:27Z</time></trkpt><trkpt lat="14.708286696450388" lon="120.99293489113248"><ele>21.0</ele><time>2026-04-18T07:38:28Z</time></trkpt><trkpt lat="14.708468747137243" lon="120.99283783029159"><ele>21.666666666666668</ele><time>2026-04-18T07:38:29Z</time></trkpt><trkpt lat="14.708653004880889" lon="120.9927398515938"><ele>22.333333333333336</ele><time>2026-04-18T07:38:30Z</time></trkpt><trkpt lat="14.708837855879624" lon="120.99264217925308"><ele>23.0</ele><time>2026-04-18T07:38:31Z</time></trkpt><trkpt lat="14.709023712128323" lon="120.99254524028407"><ele>21.0</ele><time>2026-04-18T07:38:32Z</time></trkpt><trkpt lat="14.70920796899268" lon="120.99244822520258"><ele>19.0</ele><time>2026-04-18T07:38:33Z</time></trkpt><trkpt lat="14.70939290733275" lon="120.99235094525626"><ele>17.0</ele><time>2026-04-18T07:38:34Z</time></trkpt><trkpt lat="14.709578757109277" lon="120.99225127201223"><ele>17.0</ele><time>2026-04-18T07:38:35Z</time></trkpt><trkpt lat="14.709764278948178" lon="120.9921497366799"><ele>17.0</ele><time>2026-04-18T07:38:36Z</time></trkpt><trkpt lat="14.709950516152631" lon="120.99204850022176"><ele>17.0</ele><time>2026-04-18T07:38:37Z</time></trkpt><trkpt lat="14.710139179861752" lon="120.99194676388592"><ele>18.0</ele><time>2026-04-18T07:38:38Z</time></trkpt><trkpt lat="14.710329504753002" lon="120.99184576307454"><ele>19.0</ele><time>2026-04-18T07:38:39Z</time></trkpt><trkpt lat="14.710522869082752" lon="120.99174180022239"><ele>20.0</ele><time>2026-04-18T07:38:40Z</time></trkpt><trkpt lat="14.710719302825972" lon="120.99163621434141"><ele>21.0</ele><time>2026-04-18T07:38:41Z</time></trkpt><trkpt lat="14.710920857920367" lon="120.99152722334017"><ele>22.0</ele><time>2026-04-18T07:38:42Z</time></trkpt><trkpt lat="14.711124309879148" lon="120.99141832722303"><ele>22.0</ele><time>2026-04-18T07:38:43Z</time></trkpt><trkpt lat="14.711329776158836" lon="120.99130624416381"><ele>22.0</ele><time>2026-04-18T07:38:44Z</time></trkpt><trkpt lat="14.711533009263613" lon="120.99119468502549"><ele>22.0</ele><time>2026-04-18T07:38:45Z</time></trkpt><trkpt lat="14.711732418310476" lon="120.99108642710183"><ele>22.0</ele><time>2026-04-18T07:38:46Z</time></trkpt><trkpt lat="14.711915392034784" lon="120.99098559343513"><ele>22.0</ele><time>2026-04-18T07:38:47Z</time></trkpt><trkpt lat="14.712089478034027" lon="120.9908895396949"><ele>23.0</ele><time>2026-04-18T07:38:48Z</time></trkpt><trkpt lat="14.712262607168329" lon="120.99079588285389"><ele>24.0</ele><time>2026-04-18T07:38:49Z</time></trkpt><trkpt lat="14.71242469509866" lon="120.99071092378838"><ele>25.0</ele><time>2026-04-18T07:38:50Z</time></trkpt><trkpt lat="14.712574838138362" lon="120.9906322654042"><ele>25.0</ele><time>2026-04-18T07:38:51Z</time></trkpt><trkpt lat="14.712721413799448" lon="120.99055548892686"><ele>25.0</ele><time>2026-04-18T07:38:52Z</time></trkpt><trkpt lat="14.712867852474728" lon="120.99047871303462"><ele>25.0</ele><time>2026-04-18T07:38:53Z</time></trkpt><trkpt lat="14.713016845228058" lon="120.99040214975038"><ele>24.666666666666668</ele><time>2026-04-18T07:38:54Z</time></trkpt><trkpt lat="14.713169174853986" lon="120.99032670845521"><ele>24.333333333333336</ele><time>2026-04-18T07:38:55Z</time></trkpt><trkpt lat="14.713326054862918" lon="120.99024617172897"><ele>24.0</ele><time>2026-04-18T07:38:56Z</time></trkpt><trkpt lat="14.713484230121386" lon="120.99016047254547"><ele>24.0</ele><time>2026-04-18T07:38:56.999Z</time></trkpt><trkpt lat="14.713644264742452" lon="120.99006724334909"><ele>24.0</ele><time>2026-04-18T07:38:57.999Z</time></trkpt><trkpt lat="14.713811466626684" lon="120.98997475240795"><ele>24.0</ele><time>2026-04-18T07:38:59Z</time></trkpt><trkpt lat="14.713984332026582" lon="120.9898808704989"><ele>23.666666666666668</ele><time>2026-04-18T07:39:00Z</time></trkpt><trkpt lat="14.714161733015683" lon="120.98978496425913"><ele>23.333333333333336</ele><time>2026-04-18T07:39:01Z</time></trkpt><trkpt lat="14.714340628063207" lon="120.98968950472312"><ele>23.0</ele><time>2026-04-18T07:39:02Z</time></trkpt><trkpt lat="14.714516562141515" lon="120.98959557025503"><ele>23.0</ele><time>2026-04-18T07:39:03Z</time></trkpt><trkpt lat="14.71469044960442" lon="120.9895033183405"><ele>23.0</ele><time>2026-04-18T07:39:04Z</time></trkpt><trkpt lat="14.714869351800623" lon="120.98941537169269"><ele>23.0</ele><time>2026-04-18T07:39:05Z</time></trkpt><trkpt lat="14.715053403297002" lon="120.989321366365"><ele>23.0</ele><time>2026-04-18T07:39:06Z</time></trkpt><trkpt lat="14.71523543709901" lon="120.98922305004031"><ele>23.0</ele><time>2026-04-18T07:39:07Z</time></trkpt><trkpt lat="14.715408539214478" lon="120.98912794537911"><ele>23.0</ele><time>2026-04-18T07:39:08Z</time></trkpt><trkpt lat="14.715580149514272" lon="120.98903737456529"><ele>24.333333333333336</ele><time>2026-04-18T07:39:09Z</time></trkpt><trkpt lat="14.715754211852891" lon="120.98894650831359"><ele>25.666666666666668</ele><time>2026-04-18T07:39:10Z</time></trkpt><trkpt lat="14.715934550841478" lon="120.98885252528127"><ele>27.0</ele><time>2026-04-18T07:39:11Z</time></trkpt><trkpt lat="14.7161166947172" lon="120.9887556041316"><ele>28.333333333333336</ele><time>2026-04-18T07:39:12Z</time></trkpt><trkpt lat="14.716286241732321" lon="120.98866323739088"><ele>29.666666666666668</ele><time>2026-04-18T07:39:13Z</time></trkpt><trkpt lat="14.716445249243645" lon="120.98857927665952"><ele>31.0</ele><time>2026-04-18T07:39:14Z</time></trkpt><trkpt lat="14.716593066530473" lon="120.9884999921783"><ele>31.0</ele><time>2026-04-18T07:39:15Z</time></trkpt><trkpt lat="14.716737249480412" lon="120.98842319083876"><ele>31.0</ele><time>2026-04-18T07:39:16Z</time></trkpt><trkpt lat="14.716878908528145" lon="120.98834893340202"><ele>31.0</ele><time>2026-04-18T07:39:17Z</time></trkpt><trkpt lat="14.71702000389612" lon="120.98827639557915"><ele>30.333333333333336</ele><time>2026-04-18T07:39:18Z</time></trkpt><trkpt lat="14.717159923058636" lon="120.98820237364967"><ele>29.666666666666664</ele><time>2026-04-18T07:39:19Z</time></trkpt><trkpt lat="14.71730118682959" lon="120.98812700861585"><ele>29.0</ele><time>2026-04-18T07:39:20Z</time></trkpt><trkpt lat="14.71744649731921" lon="120.98804925045148"><ele>29.0</ele><time>2026-04-18T07:39:21Z</time></trkpt><trkpt lat="14.717593924996013" lon="120.98796921005449"><ele>29.0</ele><time>2026-04-18T07:39:22Z</time></trkpt><trkpt lat="14.717742248338283" lon="120.98788957141728"><ele>29.0</ele><time>2026-04-18T07:39:23Z</time></trkpt><trkpt lat="14.717891157887525" lon="120.98780839711077"><ele>28.0</ele><time>2026-04-18T07:39:24Z</time></trkpt><trkpt lat="14.71803843942473" lon="120.98772786235367"><ele>27.0</ele><time>2026-04-18T07:39:25Z</time></trkpt><trkpt lat="14.718185791035598" lon="120.98764834719715"><ele>26.0</ele><time>2026-04-18T07:39:26Z</time></trkpt><trkpt lat="14.71833494970178" lon="120.9875684169435"><ele>24.666666666666664</ele><time>2026-04-18T07:39:27Z</time></trkpt><trkpt lat="14.718487710632125" lon="120.9874874066706"><ele>23.333333333333332</ele><time>2026-04-18T07:39:28Z</time></trkpt><trkpt lat="14.718640248037005" lon="120.98740378422659"><ele>22.0</ele><time>2026-04-18T07:39:29Z</time></trkpt><trkpt lat="14.718792637376925" lon="120.98732184429791"><ele>21.333333333333332</ele><time>2026-04-18T07:39:30Z</time></trkpt><trkpt lat="14.718938192183366" lon="120.98724294731299"><ele>20.666666666666668</ele><time>2026-04-18T07:39:31Z</time></trkpt><trkpt lat="14.7190783993448" lon="120.98716980247087"><ele>20.0</ele><time>2026-04-18T07:39:32Z</time></trkpt><trkpt lat="14.71921572949193" lon="120.98709705373899"><ele>20.0</ele><time>2026-04-18T07:39:33Z</time></trkpt><trkpt lat="14.719351091511786" lon="120.98702573474884"><ele>20.0</ele><time>2026-04-18T07:39:34Z</time></trkpt><trkpt lat="14.71948379926984" lon="120.98695534664589"><ele>20.0</ele><time>2026-04-18T07:39:35Z</time></trkpt><trkpt lat="14.719616371614277" lon="120.98688490329857"><ele>19.666666666666668</ele><time>2026-04-18T07:39:36Z</time></trkpt><trkpt lat="14.719750067009816" lon="120.9868123577572"><ele>19.333333333333332</ele><time>2026-04-18T07:39:37Z</time></trkpt><trkpt lat="14.71988426236842" lon="120.98673548786891"><ele>19.0</ele><time>2026-04-18T07:39:38Z</time></trkpt><trkpt lat="14.720021769550215" lon="120.98665439739655"><ele>17.666666666666664</ele><time>2026-04-18T07:39:39Z</time></trkpt><trkpt lat="14.720163909313232" lon="120.9865720672576"><ele>16.333333333333332</ele><time>2026-04-18T07:39:40Z</time></trkpt><trkpt lat="14.720308922220166" lon="120.98648981571301"><ele>15.0</ele><time>2026-04-18T07:39:41Z</time></trkpt><trkpt lat="14.720457516204709" lon="120.98640774175504"><ele>15.0</ele><time>2026-04-18T07:39:42Z</time></trkpt><trkpt lat="14.720609023064464" lon="120.98632492012521"><ele>15.0</ele><time>2026-04-18T07:39:43Z</time></trkpt><trkpt lat="14.720761429802419" lon="120.98624210731765"><ele>15.0</ele><time>2026-04-18T07:39:44Z</time></trkpt><trkpt lat="14.720914354179252" lon="120.98615842205184"><ele>16.0</ele><time>2026-04-18T07:39:45Z</time></trkpt><trkpt lat="14.72106784349462" lon="120.98607531053885"><ele>17.0</ele><time>2026-04-18T07:39:46Z</time></trkpt><trkpt lat="14.721221071929971" lon="120.98599166611174"><ele>18.0</ele><time>2026-04-18T07:39:47Z</time></trkpt><trkpt lat="14.72137325731307" lon="120.98590962466851"><ele>18.333333333333332</ele><time>2026-04-18T07:39:48Z</time></trkpt><trkpt lat="14.72152541686697" lon="120.98582584275412"><ele>18.666666666666664</ele><time>2026-04-18T07:39:49Z</time></trkpt><trkpt lat="14.721678920872378" lon="120.98574191852828"><ele>19.0</ele><time>2026-04-18T07:39:50Z</time></trkpt><trkpt lat="14.721833613881962" lon="120.98565871260874"><ele>19.0</ele><time>2026-04-18T07:39:51Z</time></trkpt><trkpt lat="14.721990488824026" lon="120.98557428273641"><ele>19.0</ele><time>2026-04-18T07:39:52Z</time></trkpt><trkpt lat="14.722150646108139" lon="120.98548832333503"><ele>19.0</ele><time>2026-04-18T07:39:53Z</time></trkpt><trkpt lat="14.722314165774737" lon="120.98539941904762"><ele>19.0</ele><time>2026-04-18T07:39:54Z</time></trkpt><trkpt lat="14.722480312799458" lon="120.98530696232837"><ele>19.0</ele><time>2026-04-18T07:39:55Z</time></trkpt><trkpt lat="14.722647795816455" lon="120.98521327104599"><ele>19.0</ele><time>2026-04-18T07:39:56Z</time></trkpt><trkpt lat="14.72282345238593" lon="120.98511924623133"><ele>19.666666666666664</ele><time>2026-04-18T07:39:57Z</time></trkpt><trkpt lat="14.723001653465499" lon="120.9850219386719"><ele>20.333333333333332</ele><time>2026-04-18T07:39:58Z</time></trkpt><trkpt lat="14.723182992468276" lon="120.98492155007517"><ele>21.0</ele><time>2026-04-18T07:39:59Z</time></trkpt><trkpt lat="14.723366894888196" lon="120.984818921301"><ele>19.666666666666668</ele><time>2026-04-18T07:40:00Z</time></trkpt><trkpt lat="14.72355675353164" lon="120.98471482598102"><ele>18.333333333333336</ele><time>2026-04-18T07:40:01Z</time></trkpt><trkpt lat="14.723748848039358" lon="120.98461046019452"><ele>17.0</ele><time>2026-04-18T07:40:02Z</time></trkpt><trkpt lat="14.723942705484134" lon="120.98450527133102"><ele>16.333333333333336</ele><time>2026-04-18T07:40:03Z</time></trkpt><trkpt lat="14.724136316106186" lon="120.98440037384744"><ele>15.666666666666668</ele><time>2026-04-18T07:40:04Z</time></trkpt><trkpt lat="14.72432606563912" lon="120.98429821243572"><ele>15.0</ele><time>2026-04-18T07:40:05Z</time></trkpt><trkpt lat="14.724505558311028" lon="120.98420209750347"><ele>14.666666666666668</ele><time>2026-04-18T07:40:06Z</time></trkpt><trkpt lat="14.724676370282753" lon="120.98411050600573"><ele>14.333333333333334</ele><time>2026-04-18T07:40:07Z</time></trkpt><trkpt lat="14.724843545480502" lon="120.9840205274056"><ele>14.0</ele><time>2026-04-18T07:40:08Z</time></trkpt><trkpt lat="14.725008898371213" lon="120.98393232807643"><ele>14.0</ele><time>2026-04-18T07:40:09Z</time></trkpt><trkpt lat="14.725169093315111" lon="120.98384553906207"><ele>14.0</ele><time>2026-04-18T07:40:10Z</time></trkpt><trkpt lat="14.725320771008972" lon="120.98376379567489"><ele>14.0</ele><time>2026-04-18T07:40:11Z</time></trkpt><trkpt lat="14.725464715452793" lon="120.98368567001964"><ele>13.666666666666668</ele><time>2026-04-18T07:40:12Z</time></trkpt><trkpt lat="14.725604221617697" lon="120.98360933785126"><ele>13.333333333333332</ele><time>2026-04-18T07:40:13Z</time></trkpt><trkpt lat="14.72574363887534" lon="120.98353440785948"><ele>13.0</ele><time>2026-04-18T07:40:14Z</time></trkpt><trkpt lat="14.725884967751432" lon="120.9834582655216"><ele>13.0</ele><time>2026-04-18T07:40:15Z</time></trkpt><trkpt lat="14.726027003868953" lon="120.98338163494878"><ele>13.0</ele><time>2026-04-18T07:40:16Z</time></trkpt><trkpt lat="14.726170161506094" lon="120.98330399573186"><ele>13.0</ele><time>2026-04-18T07:40:17Z</time></trkpt><trkpt lat="14.726306959729804" lon="120.98323005783158"><ele>13.0</ele><time>2026-04-18T07:40:18Z</time></trkpt><trkpt lat="14.726431780453813" lon="120.98316171477184"><ele>13.0</ele><time>2026-04-18T07:40:19Z</time></trkpt><trkpt lat="14.726550477654115" lon="120.9830965923402"><ele>13.0</ele><time>2026-04-18T07:40:20Z</time></trkpt><trkpt lat="14.726667114932322" lon="120.98303246873499"><ele>13.0</ele><time>2026-04-18T07:40:21Z</time></trkpt><trkpt lat="14.726786667500576" lon="120.9829666515395"><ele>12.75</ele><time>2026-04-18T07:40:22Z</time></trkpt><trkpt lat="14.726907057168733" lon="120.98289957829178"><ele>12.5</ele><time>2026-04-18T07:40:23Z</time></trkpt><trkpt lat="14.727031458161322" lon="120.98283313670254"><ele>12.25</ele><time>2026-04-18T07:40:24Z</time></trkpt><trkpt lat="14.72715952397873" lon="120.98276379787254"><ele>12.0</ele><time>2026-04-18T07:40:25Z</time></trkpt><trkpt lat="14.72728997733859" lon="120.98269336837133"><ele>12.0</ele><time>2026-04-18T07:40:26Z</time></trkpt><trkpt lat="14.727423726411153" lon="120.9826207439519"><ele>12.0</ele><time>2026-04-18T07:40:27Z</time></trkpt><trkpt lat="14.727559834243035" lon="120.98254666862017"><ele>12.0</ele><time>2026-04-18T07:40:28Z</time></trkpt><trkpt lat="14.727699783951183" lon="120.98247057058158"><ele>12.666666666666668</ele><time>2026-04-18T07:40:29Z</time></trkpt><trkpt lat="14.727842188665033" lon="120.98239122778796"><ele>13.333333333333334</ele><time>2026-04-18T07:40:30Z</time></trkpt><trkpt lat="14.727987716195065" lon="120.98231219335176"><ele>14.0</ele><time>2026-04-18T07:40:31Z</time></trkpt><trkpt lat="14.728138258949736" lon="120.98223160770682"><ele>14.0</ele><time>2026-04-18T07:40:32Z</time></trkpt><trkpt lat="14.728293250555625" lon="120.98214609909442"><ele>14.0</ele><time>2026-04-18T07:40:33Z</time></trkpt><trkpt lat="14.728451734525816" lon="120.98205901659344"><ele>14.0</ele><time>2026-04-18T07:40:34Z</time></trkpt><trkpt lat="14.728613269143969" lon="120.98197068544053"><ele>13.666666666666668</ele><time>2026-04-18T07:40:35Z</time></trkpt><trkpt lat="14.728777948393315" lon="120.98188096965839"><ele>13.333333333333332</ele><time>2026-04-18T07:40:36Z</time></trkpt><trkpt lat="14.728945897125858" lon="120.98179035370525"><ele>13.0</ele><time>2026-04-18T07:40:37Z</time></trkpt><trkpt lat="14.729116361636757" lon="120.98169852034047"><ele>13.0</ele><time>2026-04-18T07:40:38Z</time></trkpt><trkpt lat="14.7292881561506" lon="120.98160378284967"><ele>13.0</ele><time>2026-04-18T07:40:39Z</time></trkpt><trkpt lat="14.729464627781796" lon="120.98150959147566"><ele>13.0</ele><time>2026-04-18T07:40:40Z</time></trkpt><trkpt lat="14.729642379120188" lon="120.9814130791897"><ele>13.0</ele><time>2026-04-18T07:40:41Z</time></trkpt><trkpt lat="14.729822357687748" lon="120.98131484565393"><ele>13.0</ele><time>2026-04-18T07:40:42Z</time></trkpt><trkpt lat="14.730004809707077" lon="120.98121574890705"><ele>13.0</ele><time>2026-04-18T07:40:43Z</time></trkpt><trkpt lat="14.73018799845098" lon="120.98111639555054"><ele>13.0</ele><time>2026-04-18T07:40:44Z</time></trkpt><trkpt lat="14.730371047742025" lon="120.98101763501647"><ele>13.0</ele><time>2026-04-18T07:40:45Z</time></trkpt><trkpt lat="14.73055262052569" lon="120.98092072022916"><ele>13.0</ele><time>2026-04-18T07:40:46Z</time></trkpt><trkpt lat="14.730732659625925" lon="120.98082547837238"><ele>12.666666666666666</ele><time>2026-04-18T07:40:47Z</time></trkpt><trkpt lat="14.730909604802346" lon="120.98073217368653"><ele>12.333333333333332</ele><time>2026-04-18T07:40:48Z</time></trkpt><trkpt lat="14.731084305252338" lon="120.98063799383516"><ele>12.0</ele><time>2026-04-18T07:40:49Z</time></trkpt><trkpt lat="14.731257198758964" lon="120.98054399828659"><ele>12.0</ele><time>2026-04-18T07:40:50Z</time></trkpt><trkpt lat="14.731430994696279" lon="120.98044995374492"><ele>12.0</ele><time>2026-04-18T07:40:51Z</time></trkpt><trkpt lat="14.731603371470584" lon="120.98035570876202"><ele>12.0</ele><time>2026-04-18T07:40:52Z</time></trkpt><trkpt lat="14.731775392092915" lon="120.98026078865499"><ele>13.333333333333332</ele><time>2026-04-18T07:40:53Z</time></trkpt><trkpt lat="14.731947685806073" lon="120.98016669186977"><ele>14.666666666666666</ele><time>2026-04-18T07:40:54Z</time></trkpt><trkpt lat="14.732121823617325" lon="120.98007245906881"><ele>16.0</ele><time>2026-04-18T07:40:55Z</time></trkpt><trkpt lat="14.7322927921964" lon="120.97998020977657"><ele>16.0</ele><time>2026-04-18T07:40:56Z</time></trkpt><trkpt lat="14.732461258546016" lon="120.97988898594811"><ele>16.0</ele><time>2026-04-18T07:40:57Z</time></trkpt><trkpt lat="14.732624405909192" lon="120.97979959322522"><ele>16.0</ele><time>2026-04-18T07:40:58Z</time></trkpt><trkpt lat="14.732779637486994" lon="120.97971632433747"><ele>15.666666666666666</ele><time>2026-04-18T07:40:59Z</time></trkpt><trkpt lat="14.732925182328488" lon="120.9796383345268"><ele>15.333333333333332</ele><time>2026-04-18T07:41:00Z</time></trkpt><trkpt lat="14.733065628281468" lon="120.97956288943357"><ele>15.0</ele><time>2026-04-18T07:41:01Z</time></trkpt><trkpt lat="14.733204506295898" lon="120.97948908273496"><ele>15.0</ele><time>2026-04-18T07:41:02Z</time></trkpt><trkpt lat="14.733342464460897" lon="120.97941397087094"><ele>15.0</ele><time>2026-04-18T07:41:03Z</time></trkpt><trkpt lat="14.733481074182508" lon="120.97933850433135"><ele>15.0</ele><time>2026-04-18T07:41:04Z</time></trkpt><trkpt lat="14.733621926685839" lon="120.979264195556"><ele>15.0</ele><time>2026-04-18T07:41:05Z</time></trkpt><trkpt lat="14.733761632941182" lon="120.97918930469712"><ele>15.0</ele><time>2026-04-18T07:41:06Z</time></trkpt><trkpt lat="14.733902330276644" lon="120.9791131310582"><ele>15.0</ele><time>2026-04-18T07:41:07Z</time></trkpt><trkpt lat="14.734043683614283" lon="120.97903707951978"><ele>14.666666666666668</ele><time>2026-04-18T07:41:08Z</time></trkpt><trkpt lat="14.734186523022345" lon="120.97895823810205"><ele>14.333333333333334</ele><time>2026-04-18T07:41:09Z</time></trkpt><trkpt lat="14.734331548898709" lon="120.97887943101274"><ele>14.0</ele><time>2026-04-18T07:41:10Z</time></trkpt><trkpt lat="14.734479351238075" lon="120.97879803167721"><ele>13.666666666666668</ele><time>2026-04-18T07:41:11Z</time></trkpt><trkpt lat="14.734628313769809" lon="120.9787173646487"><ele>13.333333333333332</ele><time>2026-04-18T07:41:12Z</time></trkpt><trkpt lat="14.734779325000977" lon="120.97863544383175"><ele>13.0</ele><time>2026-04-18T07:41:13Z</time></trkpt><trkpt lat="14.734927589925473" lon="120.97855606463482"><ele>13.0</ele><time>2026-04-18T07:41:14Z</time></trkpt><trkpt lat="14.735074130002593" lon="120.97847806484693"><ele>13.0</ele><time>2026-04-18T07:41:15Z</time></trkpt><trkpt lat="14.735219130197667" lon="120.9783993416725"><ele>13.0</ele><time>2026-04-18T07:41:16Z</time></trkpt><trkpt lat="14.735362544645893" lon="120.97832145643599"><ele>12.666666666666666</ele><time>2026-04-18T07:41:17Z</time></trkpt><trkpt lat="14.735504503036612" lon="120.9782455304327"><ele>12.333333333333332</ele><time>2026-04-18T07:41:18Z</time></trkpt><trkpt lat="14.735647259973804" lon="120.97816907325065"><ele>12.0</ele><time>2026-04-18T07:41:19Z</time></trkpt><trkpt lat="14.735790552451826" lon="120.9780903315676"><ele>12.0</ele><time>2026-04-18T07:41:20Z</time></trkpt><trkpt lat="14.73593539786114" lon="120.97801158479564"><ele>12.0</ele><time>2026-04-18T07:41:21Z</time></trkpt><trkpt lat="14.736078657710669" lon="120.97793569545976"><ele>12.0</ele><time>2026-04-18T07:41:22Z</time></trkpt><trkpt lat="14.736218885112107" lon="120.97786174771535"><ele>12.0</ele><time>2026-04-18T07:41:23Z</time></trkpt><trkpt lat="14.736356052214033" lon="120.97778851595903"><ele>12.0</ele><time>2026-04-18T07:41:24Z</time></trkpt><trkpt lat="14.736491943188817" lon="120.97771483545144"><ele>12.0</ele><time>2026-04-18T07:41:25Z</time></trkpt><trkpt lat="14.73662306307262" lon="120.97764367046874"><ele>12.0</ele><time>2026-04-18T07:41:26Z</time></trkpt><trkpt lat="14.736750037332106" lon="120.97757282429333"><ele>12.0</ele><time>2026-04-18T07:41:27Z</time></trkpt><trkpt lat="14.73688015443439" lon="120.97750307958181"><ele>12.0</ele><time>2026-04-18T07:41:28Z</time></trkpt><trkpt lat="14.737013535668769" lon="120.97743416610852"><ele>12.0</ele><time>2026-04-18T07:41:29Z</time></trkpt><trkpt lat="14.737147513499796" lon="120.97736302927666"><ele>10.666666666666666</ele><time>2026-04-18T07:41:30Z</time></trkpt><trkpt lat="14.73728240136219" lon="120.97728918053164"><ele>9.333333333333332</ele><time>2026-04-18T07:41:31Z</time></trkpt><trkpt lat="14.737418523826436" lon="120.97721436799306"><ele>8.0</ele><time>2026-04-18T07:41:32Z</time></trkpt><trkpt lat="14.737554926590754" lon="120.9771393559123"><ele>8.0</ele><time>2026-04-18T07:41:33Z</time></trkpt><trkpt lat="14.737688145381394" lon="120.97706492068906"><ele>8.0</ele><time>2026-04-18T07:41:34Z</time></trkpt><trkpt lat="14.73782317480328" lon="120.97699104395149"><ele>8.0</ele><time>2026-04-18T07:41:35Z</time></trkpt><trkpt lat="14.73795961519421" lon="120.97691599782661"><ele>7.333333333333333</ele><time>2026-04-18T07:41:36Z</time></trkpt><trkpt lat="14.738094534268656" lon="120.97684182711942"><ele>6.666666666666666</ele><time>2026-04-18T07:41:37Z</time></trkpt><trkpt lat="14.738227224993521" lon="120.97676759512552"><ele>6.0</ele><time>2026-04-18T07:41:38Z</time></trkpt><trkpt lat="14.738358831148005" lon="120.97669699791999"><ele>6.25</ele><time>2026-04-18T07:41:39Z</time></trkpt><trkpt lat="14.73849141200002" lon="120.97662674436025"><ele>6.5</ele><time>2026-04-18T07:41:40Z</time></trkpt><trkpt lat="14.7386211036299" lon="120.97655751192768"><ele>6.75</ele><time>2026-04-18T07:41:41Z</time></trkpt><trkpt lat="14.738748939929886" lon="120.9764885573063"><ele>7.0</ele><time>2026-04-18T07:41:42Z</time></trkpt><trkpt lat="14.738874324969565" lon="120.97642047671398"><ele>6.5</ele><time>2026-04-18T07:41:43Z</time></trkpt><trkpt lat="14.738999006715208" lon="120.97635393877948"><ele>6.0</ele><time>2026-04-18T07:41:44Z</time></trkpt><trkpt lat="14.739125233665797" lon="120.9762868242448"><ele>5.5</ele><time>2026-04-18T07:41:45Z</time></trkpt><trkpt lat="14.739247957410436" lon="120.97621664643202"><ele>5.0</ele><time>2026-04-18T07:41:46Z</time></trkpt><trkpt lat="14.73937179578339" lon="120.97615089798623"><ele>4.75</ele><time>2026-04-18T07:41:47Z</time></trkpt><trkpt lat="14.739497296636094" lon="120.9760826119641"><ele>4.5</ele><time>2026-04-18T07:41:48Z</time></trkpt><trkpt lat="14.739622486026107" lon="120.97601646411815"><ele>4.25</ele><time>2026-04-18T07:41:49Z</time></trkpt><trkpt lat="14.739746363506221" lon="120.97595145858688"><ele>4.0</ele><time>2026-04-18T07:41:50Z</time></trkpt><trkpt lat="14.739867685700565" lon="120.97588707365294"><ele>4.75</ele><time>2026-04-18T07:41:51Z</time></trkpt><trkpt lat="14.739991107124403" lon="120.97582211083088"><ele>5.5</ele><time>2026-04-18T07:41:52Z</time></trkpt><trkpt lat="14.74011649200854" lon="120.97575489918916"><ele>6.25</ele><time>2026-04-18T07:41:53Z</time></trkpt><trkpt lat="14.740241884371935" lon="120.97568560225314"><ele>7.0</ele><time>2026-04-18T07:41:54Z</time></trkpt><trkpt lat="14.740368327397533" lon="120.9756171921521"><ele>7.0</ele><time>2026-04-18T07:41:55Z</time></trkpt><trkpt lat="14.740497814152196" lon="120.97554691708753"><ele>7.0</ele><time>2026-04-18T07:41:56Z</time></trkpt><trkpt lat="14.740631485275037" lon="120.9754750057421"><ele>7.0</ele><time>2026-04-18T07:41:57Z</time></trkpt><trkpt lat="14.740769400631661" lon="120.97539930334966"><ele>7.0</ele><time>2026-04-18T07:41:58Z</time></trkpt><trkpt lat="14.740906981501453" lon="120.97532428417061"><ele>7.0</ele><time>2026-04-18T07:41:59Z</time></trkpt><trkpt lat="14.74104495251442" lon="120.97524980130238"><ele>7.0</ele><time>2026-04-18T07:42:00Z</time></trkpt><trkpt lat="14.741182909324296" lon="120.97517647591938"><ele>6.666666666666667</ele><time>2026-04-18T07:42:01Z</time></trkpt><trkpt lat="14.741318226135315" lon="120.97510238393886"><ele>6.333333333333334</ele><time>2026-04-18T07:42:02Z</time></trkpt><trkpt lat="14.741455367582768" lon="120.97502775651901"><ele>6.0</ele><time>2026-04-18T07:42:03Z</time></trkpt><trkpt lat="14.741595705906017" lon="120.97495153384156"><ele>6.0</ele><time>2026-04-18T07:42:04Z</time></trkpt><trkpt lat="14.741735897317968" lon="120.97487541053897"><ele>6.0</ele><time>2026-04-18T07:42:05Z</time></trkpt><trkpt lat="14.741878536183396" lon="120.97479671538827"><ele>6.0</ele><time>2026-04-18T07:42:06Z</time></trkpt><trkpt lat="14.742024305832555" lon="120.97471809575366"><ele>6.333333333333334</ele><time>2026-04-18T07:42:07Z</time></trkpt><trkpt lat="14.742172651704703" lon="120.97463675113205"><ele>6.666666666666667</ele><time>2026-04-18T07:42:08Z</time></trkpt><trkpt lat="14.742324790456827" lon="120.97455558608914"><ele>7.0</ele><time>2026-04-18T07:42:09Z</time></trkpt><trkpt lat="14.74247914040034" lon="120.97447281160092"><ele>7.0</ele><time>2026-04-18T07:42:10Z</time></trkpt><trkpt lat="14.742637576470507" lon="120.9743889283557"><ele>7.0</ele><time>2026-04-18T07:42:11Z</time></trkpt><trkpt lat="14.742798275460915" lon="120.97430400063578"><ele>7.0</ele><time>2026-04-18T07:42:12Z</time></trkpt><trkpt lat="14.742963403280296" lon="120.97421670692285"><ele>7.0</ele><time>2026-04-18T07:42:13Z</time></trkpt><trkpt lat="14.743127889024494" lon="120.97412980323038"><ele>7.0</ele><time>2026-04-18T07:42:14Z</time></trkpt><trkpt lat="14.74329370267555" lon="120.97404432603363"><ele>7.0</ele><time>2026-04-18T07:42:15Z</time></trkpt><trkpt lat="14.74346263542072" lon="120.97395816501451"><ele>7.333333333333334</ele><time>2026-04-18T07:42:16Z</time></trkpt><trkpt lat="14.743633829880036" lon="120.97387130653989"><ele>7.666666666666666</ele><time>2026-04-18T07:42:17Z</time></trkpt><trkpt lat="14.74380617729748" lon="120.97378391063161"><ele>8.0</ele><time>2026-04-18T07:42:18Z</time></trkpt><trkpt lat="14.74398058921954" lon="120.97369445619874"><ele>8.0</ele><time>2026-04-18T07:42:19Z</time></trkpt><trkpt lat="14.744153964677716" lon="120.97360197795707"><ele>8.0</ele><time>2026-04-18T07:42:20Z</time></trkpt><trkpt lat="14.744326406167255" lon="120.97350794830795"><ele>8.0</ele><time>2026-04-18T07:42:21Z</time></trkpt><trkpt lat="14.744501563993053" lon="120.97341272538115"><ele>9.0</ele><time>2026-04-18T07:42:22Z</time></trkpt><trkpt lat="14.744673687240637" lon="120.9733202635598"><ele>10.0</ele><time>2026-04-18T07:42:23Z</time></trkpt><trkpt lat="14.74484621816783" lon="120.97322614169843"><ele>11.0</ele><time>2026-04-18T07:42:24Z</time></trkpt><trkpt lat="14.7450185117093" lon="120.97313310986766"><ele>11.0</ele><time>2026-04-18T07:42:25Z</time></trkpt><trkpt lat="14.745192883787944" lon="120.97303971958237"><ele>11.0</ele><time>2026-04-18T07:42:26Z</time></trkpt><trkpt lat="14.745367721634786" lon="120.97294614878251"><ele>11.0</ele><time>2026-04-18T07:42:27Z</time></trkpt><trkpt lat="14.74554215652059" lon="120.97285251157206"><ele>12.0</ele><time>2026-04-18T07:42:28Z</time></trkpt><trkpt lat="14.745715960208898" lon="120.97275905323296"><ele>13.0</ele><time>2026-04-18T07:42:29Z</time></trkpt><trkpt lat="14.745887101055459" lon="120.97266578687382"><ele>14.0</ele><time>2026-04-18T07:42:30Z</time></trkpt><trkpt lat="14.746055894646744" lon="120.9725746130621"><ele>14.0</ele><time>2026-04-18T07:42:31Z</time></trkpt><trkpt lat="14.746220399684724" lon="120.97248650851628"><ele>14.0</ele><time>2026-04-18T07:42:32Z</time></trkpt><trkpt lat="14.746380205297589" lon="120.97239913913248"><ele>14.0</ele><time>2026-04-18T07:42:33Z</time></trkpt><trkpt lat="14.746536027101223" lon="120.97231252128232"><ele>14.0</ele><time>2026-04-18T07:42:34Z</time></trkpt><trkpt lat="14.746687827638697" lon="120.97222837986551"><ele>14.0</ele><time>2026-04-18T07:42:35Z</time></trkpt><trkpt lat="14.746837112098168" lon="120.97214522620186"><ele>14.0</ele><time>2026-04-18T07:42:36Z</time></trkpt><trkpt lat="14.746979584212893" lon="120.97206842954476"><ele>14.666666666666668</ele><time>2026-04-18T07:42:37Z</time></trkpt><trkpt lat="14.747121105817726" lon="120.97199159800282"><ele>15.333333333333332</ele><time>2026-04-18T07:42:38Z</time></trkpt><trkpt lat="14.747263257810836" lon="120.97191410969829"><ele>16.0</ele><time>2026-04-18T07:42:39Z</time></trkpt><trkpt lat="14.747405778050357" lon="120.9718375148661"><ele>16.0</ele><time>2026-04-18T07:42:40Z</time></trkpt><trkpt lat="14.747547003337228" lon="120.97176038046958"><ele>16.0</ele><time>2026-04-18T07:42:41Z</time></trkpt><trkpt lat="14.747690640959739" lon="120.97168314919767"><ele>16.0</ele><time>2026-04-18T07:42:42Z</time></trkpt><trkpt lat="14.747834449632403" lon="120.97160586843327"><ele>16.666666666666664</ele><time>2026-04-18T07:42:43Z</time></trkpt><trkpt lat="14.747980683515111" lon="120.97152780190446"><ele>17.333333333333332</ele><time>2026-04-18T07:42:44Z</time></trkpt><trkpt lat="14.748129455060353" lon="120.97144854489352"><ele>18.0</ele><time>2026-04-18T07:42:45Z</time></trkpt><trkpt lat="14.748280124687833" lon="120.97136765411548"><ele>18.0</ele><time>2026-04-18T07:42:46Z</time></trkpt><trkpt lat="14.748431888337153" lon="120.97128616310668"><ele>18.0</ele><time>2026-04-18T07:42:47Z</time></trkpt><trkpt lat="14.748585800672808" lon="120.97120333887882"><ele>18.0</ele><time>2026-04-18T07:42:48Z</time></trkpt><trkpt lat="14.748740863432564" lon="120.97112013416972"><ele>18.666666666666668</ele><time>2026-04-18T07:42:49Z</time></trkpt><trkpt lat="14.748896608092517" lon="120.97103584805025"><ele>19.333333333333336</ele><time>2026-04-18T07:42:50Z</time></trkpt><trkpt lat="14.749052019133702" lon="120.97095161650725"><ele>20.0</ele><time>2026-04-18T07:42:51Z</time></trkpt><trkpt lat="14.749207971622658" lon="120.9708674065431"><ele>18.333333333333336</ele><time>2026-04-18T07:42:52Z</time></trkpt><trkpt lat="14.74936208374404" lon="120.97078375972268"><ele>16.666666666666668</ele><time>2026-04-18T07:42:53Z</time></trkpt><trkpt lat="14.749517278363845" lon="120.97070009764148"><ele>15.0</ele><time>2026-04-18T07:42:54Z</time></trkpt><trkpt lat="14.749673040308588" lon="120.97061597511559"><ele>15.0</ele><time>2026-04-18T07:42:55Z</time></trkpt><trkpt lat="14.749829086941487" lon="120.97053225301804"><ele>15.0</ele><time>2026-04-18T07:42:56Z</time></trkpt><trkpt lat="14.749984849107728" lon="120.97045025870304"><ele>15.0</ele><time>2026-04-18T07:42:57Z</time></trkpt><trkpt lat="14.750141448827911" lon="120.9703660858608"><ele>14.0</ele><time>2026-04-18T07:42:58Z</time></trkpt><trkpt lat="14.75029810413663" lon="120.97028192667211"><ele>13.0</ele><time>2026-04-18T07:42:59Z</time></trkpt><trkpt lat="14.750452892405477" lon="120.97019940517812"><ele>12.0</ele><time>2026-04-18T07:43:00Z</time></trkpt><trkpt lat="14.750608262123176" lon="120.97011625223952"><ele>12.0</ele><time>2026-04-18T07:43:01Z</time></trkpt><trkpt lat="14.750760548667385" lon="120.97003623711447"><ele>12.0</ele><time>2026-04-18T07:43:02Z</time></trkpt><trkpt lat="14.750911031685542" lon="120.96995259610208"><ele>12.0</ele><time>2026-04-18T07:43:03Z</time></trkpt><trkpt lat="14.751060873965113" lon="120.9698690873246"><ele>11.333333333333334</ele><time>2026-04-18T07:43:04Z</time></trkpt><trkpt lat="14.751209607841032" lon="120.9697868209291"><ele>10.666666666666668</ele><time>2026-04-18T07:43:05Z</time></trkpt><trkpt lat="14.751359675317307" lon="120.9697040331577"><ele>10.0</ele><time>2026-04-18T07:43:06Z</time></trkpt><trkpt lat="14.751508975199668" lon="120.96962532208546"><ele>10.0</ele><time>2026-04-18T07:43:07Z</time></trkpt><trkpt lat="14.751659353974967" lon="120.9695457064296"><ele>10.0</ele><time>2026-04-18T07:43:08Z</time></trkpt><trkpt lat="14.751809204951103" lon="120.96946690389956"><ele>10.0</ele><time>2026-04-18T07:43:09Z</time></trkpt><trkpt lat="14.751961487644856" lon="120.96938606074292"><ele>10.333333333333334</ele><time>2026-04-18T07:43:10Z</time></trkpt><trkpt lat="14.752118008784157" lon="120.96930485023957"><ele>10.666666666666666</ele><time>2026-04-18T07:43:11Z</time></trkpt><trkpt lat="14.752278502814997" lon="120.96921990092565"><ele>11.0</ele><time>2026-04-18T07:43:12Z</time></trkpt><trkpt lat="14.752443841745045" lon="120.96913385646454"><ele>11.333333333333332</ele><time>2026-04-18T07:43:13Z</time></trkpt><trkpt lat="14.752613876162906" lon="120.96904644214045"><ele>11.666666666666666</ele><time>2026-04-18T07:43:14Z</time></trkpt><trkpt lat="14.752787073108152" lon="120.96895768131522"><ele>12.0</ele><time>2026-04-18T07:43:15Z</time></trkpt><trkpt lat="14.752961999075517" lon="120.96886665848027"><ele>11.0</ele><time>2026-04-18T07:43:16Z</time></trkpt><trkpt lat="14.753139984135721" lon="120.96877397520184"><ele>10.0</ele><time>2026-04-18T07:43:17Z</time></trkpt><trkpt lat="14.753319181923853" lon="120.96868076665731"><ele>9.0</ele><time>2026-04-18T07:43:18Z</time></trkpt><trkpt lat="14.753497347076452" lon="120.9685857383428"><ele>9.0</ele><time>2026-04-18T07:43:19Z</time></trkpt><trkpt lat="14.75367564221216" lon="120.96848982131226"><ele>9.0</ele><time>2026-04-18T07:43:20Z</time></trkpt><trkpt lat="14.753853799450711" lon="120.96839507939443"><ele>9.0</ele><time>2026-04-18T07:43:21Z</time></trkpt><trkpt lat="14.754030672083628" lon="120.96830043596614"><ele>9.333333333333334</ele><time>2026-04-18T07:43:22Z</time></trkpt><trkpt lat="14.754207605460824" lon="120.96820489361778"><ele>9.666666666666668</ele><time>2026-04-18T07:43:23Z</time></trkpt><trkpt lat="14.754383757483389" lon="120.96810977426475"><ele>10.0</ele><time>2026-04-18T07:43:24Z</time></trkpt><trkpt lat="14.754560338898347" lon="120.96801404826326"><ele>10.0</ele><time>2026-04-18T07:43:25Z</time></trkpt><trkpt lat="14.754738223997066" lon="120.96791743678297"><ele>10.0</ele><time>2026-04-18T07:43:26Z</time></trkpt><trkpt lat="14.754920803831295" lon="120.96781779318421"><ele>10.0</ele><time>2026-04-18T07:43:27Z</time></trkpt><trkpt lat="14.75510483671245" lon="120.967717758512"><ele>9.666666666666668</ele><time>2026-04-18T07:43:28Z</time></trkpt><trkpt lat="14.755293446203698" lon="120.9676153589623"><ele>9.333333333333334</ele><time>2026-04-18T07:43:29Z</time></trkpt><trkpt lat="14.755483348221677" lon="120.96751250573867"><ele>9.0</ele><time>2026-04-18T07:43:30Z</time></trkpt><trkpt lat="14.755676648190116" lon="120.96740651680174"><ele>9.0</ele><time>2026-04-18T07:43:31Z</time></trkpt><trkpt lat="14.75587010357567" lon="120.96730225437737"><ele>9.0</ele><time>2026-04-18T07:43:32Z</time></trkpt><trkpt lat="14.75606439640938" lon="120.96719616912316"><ele>9.0</ele><time>2026-04-18T07:43:33Z</time></trkpt><trkpt lat="14.756259977054102" lon="120.96709073365012"><ele>10.333333333333332</ele><time>2026-04-18T07:43:34Z</time></trkpt><trkpt lat="14.75645468188315" lon="120.96698501027204"><ele>11.666666666666666</ele><time>2026-04-18T07:43:35Z</time></trkpt><trkpt lat="14.756648477367452" lon="120.96687820068988"><ele>13.0</ele><time>2026-04-18T07:43:36Z</time></trkpt><trkpt lat="14.75684280833976" lon="120.96676999593865"><ele>12.333333333333332</ele><time>2026-04-18T07:43:37Z</time></trkpt><trkpt lat="14.757034908596056" lon="120.96666350293403"><ele>11.666666666666666</ele><time>2026-04-18T07:43:38Z</time></trkpt><trkpt lat="14.757222646055585" lon="120.96655829165029"><ele>11.0</ele><time>2026-04-18T07:43:39Z</time></trkpt><trkpt lat="14.757407704331566" lon="120.96645513562899"><ele>11.0</ele><time>2026-04-18T07:43:40Z</time></trkpt><trkpt lat="14.757591981277569" lon="120.96635378350389"><ele>11.0</ele><time>2026-04-18T07:43:41Z</time></trkpt><trkpt lat="14.757774202353342" lon="120.96625841914715"><ele>11.0</ele><time>2026-04-18T07:43:42Z</time></trkpt><trkpt lat="14.757952758325542" lon="120.96616330343512"><ele>11.0</ele><time>2026-04-18T07:43:43Z</time></trkpt><trkpt lat="14.758129324683495" lon="120.96606925466048"><ele>11.0</ele><time>2026-04-18T07:43:44Z</time></trkpt><trkpt lat="14.758303161936354" lon="120.96597789484427"><ele>11.0</ele><time>2026-04-18T07:43:45Z</time></trkpt><trkpt lat="14.758475093316022" lon="120.9658848134469"><ele>11.666666666666666</ele><time>2026-04-18T07:43:46Z</time></trkpt><trkpt lat="14.758648225436744" lon="120.96579247194893"><ele>12.333333333333332</ele><time>2026-04-18T07:43:47Z</time></trkpt><trkpt lat="14.758822307834205" lon="120.96569991370076"><ele>13.0</ele><time>2026-04-18T07:43:48Z</time></trkpt><trkpt lat="14.758996493218783" lon="120.96560650057447"><ele>13.0</ele><time>2026-04-18T07:43:49Z</time></trkpt><trkpt lat="14.75917321550204" lon="120.96551151129643"><ele>13.0</ele><time>2026-04-18T07:43:50Z</time></trkpt><trkpt lat="14.759351470610044" lon="120.96541671155835"><ele>13.0</ele><time>2026-04-18T07:43:51Z</time></trkpt><trkpt lat="14.759529597672664" lon="120.96532078221593"><ele>13.0</ele><time>2026-04-18T07:43:52Z</time></trkpt><trkpt lat="14.759706955501468" lon="120.96522255330694"><ele>13.0</ele><time>2026-04-18T07:43:53Z</time></trkpt><trkpt lat="14.759888161184007" lon="120.96512057511222"><ele>13.0</ele><time>2026-04-18T07:43:54Z</time></trkpt><trkpt lat="14.760068797220848" lon="120.96501925464364"><ele>15.0</ele><time>2026-04-18T07:43:55Z</time></trkpt><trkpt lat="14.760251558975261" lon="120.9649169381829"><ele>17.0</ele><time>2026-04-18T07:43:56Z</time></trkpt><trkpt lat="14.760434682531764" lon="120.96481338435915"><ele>19.0</ele><time>2026-04-18T07:43:57Z</time></trkpt><trkpt lat="14.760617857553298" lon="120.964710052039"><ele>19.0</ele><time>2026-04-18T07:43:58Z</time></trkpt><trkpt lat="14.760801329113447" lon="120.96460686135933"><ele>19.0</ele><time>2026-04-18T07:43:59Z</time></trkpt><trkpt lat="14.760981563648956" lon="120.96450578816327"><ele>19.0</ele><time>2026-04-18T07:44:00Z</time></trkpt><trkpt lat="14.761159849706907" lon="120.96440858907614"><ele>18.666666666666664</ele><time>2026-04-18T07:44:01Z</time></trkpt><trkpt lat="14.761337928093226" lon="120.96431311793012"><ele>18.333333333333332</ele><time>2026-04-18T07:44:02Z</time></trkpt><trkpt lat="14.761515068045238" lon="120.96421924229982"><ele>18.0</ele><time>2026-04-18T07:44:03Z</time></trkpt><trkpt lat="14.761690021534461" lon="120.96412543577716"><ele>17.666666666666668</ele><time>2026-04-18T07:44:04Z</time></trkpt><trkpt lat="14.761863646456527" lon="120.96403087072616"><ele>17.333333333333336</ele><time>2026-04-18T07:44:05Z</time></trkpt><trkpt lat="14.762037291597021" lon="120.96393672768131"><ele>17.0</ele><time>2026-04-18T07:44:06Z</time></trkpt><trkpt lat="14.762210323152056" lon="120.96384302164181"><ele>16.666666666666668</ele><time>2026-04-18T07:44:07Z</time></trkpt><trkpt lat="14.762382638330756" lon="120.96375107176362"><ele>16.333333333333332</ele><time>2026-04-18T07:44:08Z</time></trkpt><trkpt lat="14.76255201879591" lon="120.96365785660922"><ele>16.0</ele><time>2026-04-18T07:44:09Z</time></trkpt><trkpt lat="14.762721287465196" lon="120.96356748592073"><ele>16.0</ele><time>2026-04-18T07:44:10Z</time></trkpt><trkpt lat="14.762889952968823" lon="120.96347786203262"><ele>16.0</ele><time>2026-04-18T07:44:11Z</time></trkpt><trkpt lat="14.76305967108174" lon="120.96338751476648"><ele>16.0</ele><time>2026-04-18T07:44:12Z</time></trkpt><trkpt lat="14.763229824124553" lon="120.96329590595816"><ele>16.0</ele><time>2026-04-18T07:44:13Z</time></trkpt><trkpt lat="14.76339820749293" lon="120.96320503354391"><ele>16.0</ele><time>2026-04-18T07:44:14Z</time></trkpt><trkpt lat="14.763565167705043" lon="120.96311529876509"><ele>16.0</ele><time>2026-04-18T07:44:15Z</time></trkpt><trkpt lat="14.763732054326821" lon="120.96302672965547"><ele>16.0</ele><time>2026-04-18T07:44:16Z</time></trkpt><trkpt lat="14.763897484526836" lon="120.96293875972836"><ele>16.0</ele><time>2026-04-18T07:44:17Z</time></trkpt><trkpt lat="14.764063433605077" lon="120.96284791280115"><ele>16.0</ele><time>2026-04-18T07:44:18Z</time></trkpt><trkpt lat="14.764229284263003" lon="120.96275794888838"><ele>14.333333333333332</ele><time>2026-04-18T07:44:19Z</time></trkpt><trkpt lat="14.764392950585455" lon="120.96266885952566"><ele>12.666666666666666</ele><time>2026-04-18T07:44:20Z</time></trkpt><trkpt lat="14.76455504334319" lon="120.9625812102674"><ele>11.0</ele><time>2026-04-18T07:44:21Z</time></trkpt><trkpt lat="14.764716571708085" lon="120.96249400390653"><ele>11.0</ele><time>2026-04-18T07:44:22Z</time></trkpt><trkpt lat="14.764877783293315" lon="120.96240683537519"><ele>11.0</ele><time>2026-04-18T07:44:23Z</time></trkpt><trkpt lat="14.765041891561626" lon="120.96231662556964"><ele>11.0</ele><time>2026-04-18T07:44:24Z</time></trkpt><trkpt lat="14.765204718829056" lon="120.96222719095286"><ele>11.0</ele><time>2026-04-18T07:44:25Z</time></trkpt><trkpt lat="14.765366532543489" lon="120.96213739505112"><ele>11.0</ele><time>2026-04-18T07:44:26Z</time></trkpt><trkpt lat="14.765527715368583" lon="120.96204698523545"><ele>11.0</ele><time>2026-04-18T07:44:27Z</time></trkpt><trkpt lat="14.76569394243359" lon="120.9619553614657"><ele>11.0</ele><time>2026-04-18T07:44:28Z</time></trkpt><trkpt lat="14.76586012973939" lon="120.96186540616137"><ele>11.0</ele><time>2026-04-18T07:44:29Z</time></trkpt><trkpt lat="14.766026672245802" lon="120.96177487025123"><ele>11.0</ele><time>2026-04-18T07:44:30Z</time></trkpt><trkpt lat="14.766193930888152" lon="120.96168499229431"><ele>10.666666666666666</ele><time>2026-04-18T07:44:31Z</time></trkpt><trkpt lat="14.766362978239032" lon="120.96159413641534"><ele>10.333333333333334</ele><time>2026-04-18T07:44:32Z</time></trkpt><trkpt lat="14.766532547589538" lon="120.96150299658512"><ele>10.0</ele><time>2026-04-18T07:44:33Z</time></trkpt><trkpt lat="14.766704054052369" lon="120.96141066702218"><ele>10.666666666666668</ele><time>2026-04-18T07:44:34Z</time></trkpt><trkpt lat="14.766874835953415" lon="120.96131830093294"><ele>11.333333333333334</ele><time>2026-04-18T07:44:35Z</time></trkpt><trkpt lat="14.767047372192128" lon="120.96122554250148"><ele>12.0</ele><time>2026-04-18T07:44:36Z</time></trkpt><trkpt lat="14.767218758179103" lon="120.96113200638206"><ele>12.0</ele><time>2026-04-18T07:44:37Z</time></trkpt><trkpt lat="14.76738767567331" lon="120.96103881419204"><ele>12.0</ele><time>2026-04-18T07:44:38Z</time></trkpt><trkpt lat="14.767556385282088" lon="120.96094669249248"><ele>12.0</ele><time>2026-04-18T07:44:39Z</time></trkpt><trkpt lat="14.767724065245792" lon="120.960855554354"><ele>11.333333333333334</ele><time>2026-04-18T07:44:40Z</time></trkpt><trkpt lat="14.76788959654287" lon="120.96076466539482"><ele>10.666666666666668</ele><time>2026-04-18T07:44:41Z</time></trkpt><trkpt lat="14.768054413434715" lon="120.960674866154"><ele>10.0</ele><time>2026-04-18T07:44:42Z</time></trkpt><trkpt lat="14.768221896841084" lon="120.96058459309353"><ele>10.0</ele><time>2026-04-18T07:44:43Z</time></trkpt><trkpt lat="14.768388047009992" lon="120.9604949441302"><ele>10.0</ele><time>2026-04-18T07:44:44Z</time></trkpt><trkpt lat="14.768554864308545" lon="120.96040564577127"><ele>10.0</ele><time>2026-04-18T07:44:45Z</time></trkpt><trkpt lat="14.768722610029332" lon="120.96031721461804"><ele>10.0</ele><time>2026-04-18T07:44:46Z</time></trkpt><trkpt lat="14.768888900649506" lon="120.9602270739044"><ele>10.0</ele><time>2026-04-18T07:44:47Z</time></trkpt><trkpt lat="14.76905381976629" lon="120.9601388016268"><ele>10.0</ele><time>2026-04-18T07:44:48Z</time></trkpt><trkpt lat="14.769217463636776" lon="120.9600517912511"><ele>9.666666666666668</ele><time>2026-04-18T07:44:49Z</time></trkpt><trkpt lat="14.76937824212549" lon="120.95996522783415"><ele>9.333333333333334</ele><time>2026-04-18T07:44:50Z</time></trkpt><trkpt lat="14.769539404985498" lon="120.9598773547227"><ele>9.0</ele><time>2026-04-18T07:44:51Z</time></trkpt><trkpt lat="14.769699866733886" lon="120.95979054676805"><ele>9.0</ele><time>2026-04-18T07:44:52Z</time></trkpt><trkpt lat="14.76986072063836" lon="120.95970301891535"><ele>9.0</ele><time>2026-04-18T07:44:53Z</time></trkpt><trkpt lat="14.770022333630246" lon="120.95961631160893"><ele>9.0</ele><time>2026-04-18T07:44:54Z</time></trkpt><trkpt lat="14.770185070520384" lon="120.95952866145285"><ele>9.333333333333334</ele><time>2026-04-18T07:44:55Z</time></trkpt><trkpt lat="14.770348205894727" lon="120.95943980552181"><ele>9.666666666666668</ele><time>2026-04-18T07:44:56Z</time></trkpt><trkpt lat="14.770512892765675" lon="120.95935122000812"><ele>10.0</ele><time>2026-04-18T07:44:57Z</time></trkpt><trkpt lat="14.770678266183303" lon="120.95926144070609"><ele>10.0</ele><time>2026-04-18T07:44:58Z</time></trkpt><trkpt lat="14.77084160990797" lon="120.95917114357691"><ele>10.0</ele><time>2026-04-18T07:44:59Z</time></trkpt><trkpt lat="14.771005496743085" lon="120.95908131903285"><ele>10.0</ele><time>2026-04-18T07:45:00Z</time></trkpt><trkpt lat="14.771170299821284" lon="120.95899206134119"><ele>10.333333333333334</ele><time>2026-04-18T07:45:01Z</time></trkpt><trkpt lat="14.771333975978653" lon="120.95890282759864"><ele>10.666666666666666</ele><time>2026-04-18T07:45:02Z</time></trkpt><trkpt lat="14.771496168751083" lon="120.95881463505846"><ele>11.0</ele><time>2026-04-18T07:45:03Z</time></trkpt><trkpt lat="14.7716608209693" lon="120.95872528864076"><ele>11.0</ele><time>2026-04-18T07:45:04Z</time></trkpt><trkpt lat="14.771825216487562" lon="120.95863642297714"><ele>11.0</ele><time>2026-04-18T07:45:05Z</time></trkpt><trkpt lat="14.771987037266436" lon="120.95854804275584"><ele>11.0</ele><time>2026-04-18T07:45:06Z</time></trkpt><trkpt lat="14.772148903700876" lon="120.95846087117795"><ele>11.0</ele><time>2026-04-18T07:45:07Z</time></trkpt><trkpt lat="14.772310165218954" lon="120.95837580155059"><ele>11.0</ele><time>2026-04-18T07:45:08Z</time></trkpt><trkpt lat="14.772467527338781" lon="120.95829018282681"><ele>11.0</ele><time>2026-04-18T07:45:09Z</time></trkpt><trkpt lat="14.772625376415608" lon="120.95820513628098"><ele>10.666666666666666</ele><time>2026-04-18T07:45:10Z</time></trkpt><trkpt lat="14.77278299635017" lon="120.95812096075318"><ele>10.333333333333334</ele><time>2026-04-18T07:45:11Z</time></trkpt><trkpt lat="14.772941521058824" lon="120.95803745034218"><ele>10.0</ele><time>2026-04-18T07:45:12Z</time></trkpt><trkpt lat="14.773099307081536" lon="120.95795251603556"><ele>10.0</ele><time>2026-04-18T07:45:13Z</time></trkpt><trkpt lat="14.773256023975637" lon="120.95786747897486"><ele>10.0</ele><time>2026-04-18T07:45:14Z</time></trkpt><trkpt lat="14.773412867851508" lon="120.95778240966159"><ele>10.0</ele><time>2026-04-18T07:45:15Z</time></trkpt><trkpt lat="14.773567807822241" lon="120.95769790774887"><ele>10.333333333333334</ele><time>2026-04-18T07:45:16Z</time></trkpt><trkpt lat="14.773722589622544" lon="120.95761506010075"><ele>10.666666666666666</ele><time>2026-04-18T07:45:17Z</time></trkpt><trkpt lat="14.773877494537679" lon="120.95753218108307"><ele>11.0</ele><time>2026-04-18T07:45:18Z</time></trkpt><trkpt lat="14.774031649442698" lon="120.95744926414916"><ele>11.333333333333332</ele><time>2026-04-18T07:45:19Z</time></trkpt><trkpt lat="14.7741875120191" lon="120.95736538388134"><ele>11.666666666666666</ele><time>2026-04-18T07:45:20Z</time></trkpt><trkpt lat="14.774344811365477" lon="120.95728139888891"><ele>12.0</ele><time>2026-04-18T07:45:21Z</time></trkpt><trkpt lat="14.774504448535703" lon="120.95719797271217"><ele>12.0</ele><time>2026-04-18T07:45:22Z</time></trkpt><trkpt lat="14.774664275379136" lon="120.95711433546312"><ele>12.0</ele><time>2026-04-18T07:45:23Z</time></trkpt><trkpt lat="14.77482818455586" lon="120.95702905849123"><ele>12.0</ele><time>2026-04-18T07:45:24Z</time></trkpt><trkpt lat="14.774991692669095" lon="120.95694207497277"><ele>12.0</ele><time>2026-04-18T07:45:25Z</time></trkpt><trkpt lat="14.775154596923755" lon="120.95685441247139"><ele>12.0</ele><time>2026-04-18T07:45:26Z</time></trkpt><trkpt lat="14.775320446367392" lon="120.95676595651746"><ele>12.0</ele><time>2026-04-18T07:45:27Z</time></trkpt><trkpt lat="14.775486507005146" lon="120.9566771560517"><ele>11.333333333333334</ele><time>2026-04-18T07:45:28Z</time></trkpt><trkpt lat="14.775654433508198" lon="120.95658969242264"><ele>10.666666666666668</ele><time>2026-04-18T07:45:29Z</time></trkpt><trkpt lat="14.77582236521512" lon="120.95650269167005"><ele>10.0</ele><time>2026-04-18T07:45:30Z</time></trkpt><trkpt lat="14.775990907796126" lon="120.95641524926631"><ele>9.0</ele><time>2026-04-18T07:45:31Z</time></trkpt><trkpt lat="14.77616231732607" lon="120.95632633070844"><ele>8.0</ele><time>2026-04-18T07:45:32Z</time></trkpt><trkpt lat="14.776332944773342" lon="120.95623699839106"><ele>7.0</ele><time>2026-04-18T07:45:33Z</time></trkpt><trkpt lat="14.776502462423881" lon="120.95614846814318"><ele>7.0</ele><time>2026-04-18T07:45:34Z</time></trkpt><trkpt lat="14.776669445582712" lon="120.9560574145654"><ele>7.0</ele><time>2026-04-18T07:45:35Z</time></trkpt><trkpt lat="14.776834196075729" lon="120.9559670051585"><ele>7.0</ele><time>2026-04-18T07:45:36Z</time></trkpt><trkpt lat="14.776998770465205" lon="120.95587815661486"><ele>8.0</ele><time>2026-04-18T07:45:37Z</time></trkpt><trkpt lat="14.777162526353582" lon="120.95578923660355"><ele>9.0</ele><time>2026-04-18T07:45:38Z</time></trkpt><trkpt lat="14.777324281275375" lon="120.95570090636933"><ele>10.0</ele><time>2026-04-18T07:45:39Z</time></trkpt><trkpt lat="14.777486890670868" lon="120.95561342086395"><ele>10.0</ele><time>2026-04-18T07:45:40Z</time></trkpt><trkpt lat="14.777650354381418" lon="120.95552635012972"><ele>10.0</ele><time>2026-04-18T07:45:41Z</time></trkpt><trkpt lat="14.777816988755662" lon="120.95543986921886"><ele>10.0</ele><time>2026-04-18T07:45:42Z</time></trkpt><trkpt lat="14.777987539373521" lon="120.95535332447959"><ele>9.666666666666668</ele><time>2026-04-18T07:45:43Z</time></trkpt><trkpt lat="14.778163923302372" lon="120.95526672813776"><ele>9.333333333333334</ele><time>2026-04-18T07:45:44Z</time></trkpt><trkpt lat="14.778346379735659" lon="120.95517991488589"><ele>9.0</ele><time>2026-04-18T07:45:45Z</time></trkpt><trkpt lat="14.778531616945298" lon="120.95508806210124"><ele>9.0</ele><time>2026-04-18T07:45:46Z</time></trkpt><trkpt lat="14.77871622302824" lon="120.95499246469542"><ele>9.0</ele><time>2026-04-18T07:45:47Z</time></trkpt><trkpt lat="14.778904458753594" lon="120.954894091912"><ele>9.0</ele><time>2026-04-18T07:45:48Z</time></trkpt><trkpt lat="14.77909113995574" lon="120.95479561923398"><ele>9.0</ele><time>2026-04-18T07:45:49Z</time></trkpt><trkpt lat="14.779276141175494" lon="120.95469665244461"><ele>9.0</ele><time>2026-04-18T07:45:50Z</time></trkpt><trkpt lat="14.779461341395201" lon="120.95459776465127"><ele>9.0</ele><time>2026-04-18T07:45:51Z</time></trkpt><trkpt lat="14.779644489592059" lon="120.95449738730129"><ele>8.666666666666666</ele><time>2026-04-18T07:45:52Z</time></trkpt><trkpt lat="14.779826457680747" lon="120.95439890136153"><ele>8.333333333333332</ele><time>2026-04-18T07:45:53Z</time></trkpt><trkpt lat="14.780005985105696" lon="120.95430065235747"><ele>8.0</ele><time>2026-04-18T07:45:54Z</time></trkpt><trkpt lat="14.780184499047971" lon="120.95420310323907"><ele>9.0</ele><time>2026-04-18T07:45:55Z</time></trkpt><trkpt lat="14.780358783046275" lon="120.95410885420624"><ele>10.0</ele><time>2026-04-18T07:45:56Z</time></trkpt><trkpt lat="14.780530335733047" lon="120.95401625380265"><ele>11.0</ele><time>2026-04-18T07:45:57Z</time></trkpt><trkpt lat="14.780694130055155" lon="120.95392903230288"><ele>11.0</ele><time>2026-04-18T07:45:58Z</time></trkpt><trkpt lat="14.780851573002586" lon="120.95384646239258"><ele>11.0</ele><time>2026-04-18T07:45:59Z</time></trkpt><trkpt lat="14.781003988504049" lon="120.95376616399975"><ele>11.0</ele><time>2026-04-18T07:46:00Z</time></trkpt><trkpt lat="14.781149576586227" lon="120.95368985428144"><ele>11.75</ele><time>2026-04-18T07:46:01Z</time></trkpt><trkpt lat="14.781286927177181" lon="120.95361819713766"><ele>12.5</ele><time>2026-04-18T07:46:02Z</time></trkpt><trkpt lat="14.781417754175386" lon="120.95355047861187"><ele>13.25</ele><time>2026-04-18T07:46:03Z</time></trkpt><trkpt lat="14.78154533823361" lon="120.9534827052301"><ele>14.0</ele><time>2026-04-18T07:46:04Z</time></trkpt><trkpt lat="14.781672512789452" lon="120.95341468385483"><ele>14.25</ele><time>2026-04-18T07:46:05Z</time></trkpt><trkpt lat="14.781801183203028" lon="120.9533469538049"><ele>14.5</ele><time>2026-04-18T07:46:06Z</time></trkpt><trkpt lat="14.78193112919239" lon="120.95327806556581"><ele>14.75</ele><time>2026-04-18T07:46:07Z</time></trkpt><trkpt lat="14.782063677421934" lon="120.95320662644868"><ele>15.0</ele><time>2026-04-18T07:46:08Z</time></trkpt><trkpt lat="14.782198016112625" lon="120.95313310996633"><ele>15.333333333333332</ele><time>2026-04-18T07:46:09Z</time></trkpt><trkpt lat="14.78233449025939" lon="120.95306025148925"><ele>15.666666666666666</ele><time>2026-04-18T07:46:10Z</time></trkpt><trkpt lat="14.782468928074165" lon="120.95298760445598"><ele>16.0</ele><time>2026-04-18T07:46:11Z</time></trkpt><trkpt lat="14.782606224468205" lon="120.95291529980916"><ele>16.0</ele><time>2026-04-18T07:46:12Z</time></trkpt><trkpt lat="14.782745394786131" lon="120.95284241312858"><ele>16.0</ele><time>2026-04-18T07:46:13Z</time></trkpt><trkpt lat="14.782885152591017" lon="120.95276901797939"><ele>16.0</ele><time>2026-04-18T07:46:14Z</time></trkpt><trkpt lat="14.783025035789944" lon="120.95269476111174"><ele>16.0</ele><time>2026-04-18T07:46:15Z</time></trkpt><trkpt lat="14.783164602488648" lon="120.95262026650765"><ele>16.0</ele><time>2026-04-18T07:46:16Z</time></trkpt><trkpt lat="14.78330518991687" lon="120.95254400992073"><ele>16.0</ele><time>2026-04-18T07:46:17Z</time></trkpt><trkpt lat="14.78344732986624" lon="120.95246804512276"><ele>15.333333333333332</ele><time>2026-04-18T07:46:18Z</time></trkpt><trkpt lat="14.783592287665094" lon="120.95238968023496"><ele>14.666666666666668</ele><time>2026-04-18T07:46:19Z</time></trkpt><trkpt lat="14.783736748901498" lon="120.95231238675282"><ele>14.0</ele><time>2026-04-18T07:46:20Z</time></trkpt><trkpt lat="14.78388228259678" lon="120.952234405144"><ele>14.0</ele><time>2026-04-18T07:46:21Z</time></trkpt><trkpt lat="14.784028202850989" lon="120.95215567688243"><ele>14.0</ele><time>2026-04-18T07:46:22Z</time></trkpt><trkpt lat="14.784170826868259" lon="120.95207482293208"><ele>14.0</ele><time>2026-04-18T07:46:23Z</time></trkpt><trkpt lat="14.784310390406409" lon="120.95199539590355"><ele>14.666666666666668</ele><time>2026-04-18T07:46:24Z</time></trkpt><trkpt lat="14.784450076946298" lon="120.95191628630343"><ele>15.333333333333332</ele><time>2026-04-18T07:46:25Z</time></trkpt><trkpt lat="14.784591064691313" lon="120.95183503760369"><ele>16.0</ele><time>2026-04-18T07:46:26Z</time></trkpt><trkpt lat="14.784730688324881" lon="120.95175663425859"><ele>15.333333333333332</ele><time>2026-04-18T07:46:27Z</time></trkpt><trkpt lat="14.784868000373228" lon="120.95167875743114"><ele>14.666666666666668</ele><time>2026-04-18T07:46:28Z</time></trkpt><trkpt lat="14.785004074489672" lon="120.95160243174419"><ele>14.0</ele><time>2026-04-18T07:46:29Z</time></trkpt><trkpt lat="14.78513884454057" lon="120.95152882936559"><ele>14.5</ele><time>2026-04-18T07:46:30Z</time></trkpt><trkpt lat="14.78527262541531" lon="120.9514562394382"><ele>15.0</ele><time>2026-04-18T07:46:31Z</time></trkpt><trkpt lat="14.785404301984384" lon="120.95138353306555"><ele>15.5</ele><time>2026-04-18T07:46:32Z</time></trkpt><trkpt lat="14.78553423526466" lon="120.95131289950913"><ele>16.0</ele><time>2026-04-18T07:46:33Z</time></trkpt><trkpt lat="14.785665249544834" lon="120.95124262503639"><ele>16.0</ele><time>2026-04-18T07:46:34Z</time></trkpt><trkpt lat="14.785796406489835" lon="120.95116966372764"><ele>16.0</ele><time>2026-04-18T07:46:35Z</time></trkpt><trkpt lat="14.785930194885385" lon="120.95109677558511"><ele>16.0</ele><time>2026-04-18T07:46:36Z</time></trkpt><trkpt lat="14.78606513798534" lon="120.9510228976677"><ele>16.0</ele><time>2026-04-18T07:46:37Z</time></trkpt><trkpt lat="14.786202604805583" lon="120.95094745917446"><ele>16.0</ele><time>2026-04-18T07:46:38Z</time></trkpt><trkpt lat="14.786343534404121" lon="120.95087137807225"><ele>16.0</ele><time>2026-04-18T07:46:39Z</time></trkpt><trkpt lat="14.786488281983162" lon="120.95079173389016"><ele>15.666666666666666</ele><time>2026-04-18T07:46:40Z</time></trkpt><trkpt lat="14.786636797265906" lon="120.95071293595103"><ele>15.333333333333332</ele><time>2026-04-18T07:46:41Z</time></trkpt><trkpt lat="14.786787636571361" lon="120.95063247775292"><ele>15.0</ele><time>2026-04-18T07:46:42Z</time></trkpt><trkpt lat="14.78694258262176" lon="120.95054940729635"><ele>14.666666666666668</ele><time>2026-04-18T07:46:43Z</time></trkpt><trkpt lat="14.787098118586542" lon="120.95046694825153"><ele>14.333333333333334</ele><time>2026-04-18T07:46:44Z</time></trkpt><trkpt lat="14.787255373485715" lon="120.95038399200928"><ele>14.0</ele><time>2026-04-18T07:46:45Z</time></trkpt><trkpt lat="14.787414134123834" lon="120.9502967904482"><ele>14.0</ele><time>2026-04-18T07:46:46Z</time></trkpt><trkpt lat="14.787576299321312" lon="120.95020878677772"><ele>14.0</ele><time>2026-04-18T07:46:47Z</time></trkpt><trkpt lat="14.787741246355038" lon="120.95011802505294"><ele>14.0</ele><time>2026-04-18T07:46:48Z</time></trkpt><trkpt lat="14.787909492769804" lon="120.95002668230504"><ele>14.333333333333334</ele><time>2026-04-18T07:46:49Z</time></trkpt><trkpt lat="14.788081190694138" lon="120.949934251588"><ele>14.666666666666668</ele><time>2026-04-18T07:46:50Z</time></trkpt><trkpt lat="14.78825726964441" lon="120.94983909206793"><ele>15.0</ele><time>2026-04-18T07:46:51Z</time></trkpt><trkpt lat="14.788436995110894" lon="120.9497413653397"><ele>13.666666666666666</ele><time>2026-04-18T07:46:52Z</time></trkpt><trkpt lat="14.788621133705163" lon="120.94963953662594"><ele>12.333333333333332</ele><time>2026-04-18T07:46:53Z</time></trkpt><trkpt lat="14.788807269473597" lon="120.94953687068825"><ele>11.0</ele><time>2026-04-18T07:46:54Z</time></trkpt><trkpt lat="14.788994828610917" lon="120.94943465544951"><ele>11.0</ele><time>2026-04-18T07:46:55Z</time></trkpt><trkpt lat="14.789181622774818" lon="120.94933213911982"><ele>11.0</ele><time>2026-04-18T07:46:56Z</time></trkpt><trkpt lat="14.789368511521078" lon="120.94923018347288"><ele>11.0</ele><time>2026-04-18T07:46:57Z</time></trkpt><trkpt lat="14.789557022489845" lon="120.94913017410103"><ele>10.666666666666666</ele><time>2026-04-18T07:46:58Z</time></trkpt><trkpt lat="14.789745937914736" lon="120.94902908514177"><ele>10.333333333333334</ele><time>2026-04-18T07:46:59Z</time></trkpt><trkpt lat="14.789933646749878" lon="120.94892798991336"><ele>10.0</ele><time>2026-04-18T07:47:00Z</time></trkpt><trkpt lat="14.790122678337667" lon="120.94882637100562"><ele>10.0</ele><time>2026-04-18T07:47:01Z</time></trkpt><trkpt lat="14.790311851874172" lon="120.94872460988505"><ele>10.0</ele><time>2026-04-18T07:47:02Z</time></trkpt><trkpt lat="14.79050258445731" lon="120.94862027684873"><ele>10.0</ele><time>2026-04-18T07:47:03Z</time></trkpt><trkpt lat="14.790693904789032" lon="120.9485144958893"><ele>10.0</ele><time>2026-04-18T07:47:04Z</time></trkpt><trkpt lat="14.790886905292961" lon="120.94840629279929"><ele>10.0</ele><time>2026-04-18T07:47:05Z</time></trkpt><trkpt lat="14.79108437809466" lon="120.9482979417952"><ele>10.0</ele><time>2026-04-18T07:47:06Z</time></trkpt><trkpt lat="14.79128302008295" lon="120.94818969780889"><ele>10.0</ele><time>2026-04-18T07:47:07Z</time></trkpt><trkpt lat="14.791484139805895" lon="120.94807917051253"><ele>10.0</ele><time>2026-04-18T07:47:08Z</time></trkpt><trkpt lat="14.791686846580443" lon="120.94796836143253"><ele>9.0</ele><time>2026-04-18T07:47:09Z</time></trkpt><trkpt lat="14.791889628347324" lon="120.94785730955286"><ele>8.0</ele><time>2026-04-18T07:47:10Z</time></trkpt><trkpt lat="14.792092593810308" lon="120.94774539725563"><ele>8.0</ele><time>2026-04-18T07:47:11Z</time></trkpt><trkpt lat="14.792295560529684" lon="120.94763381823262"><ele>8.0</ele><time>2026-04-18T07:47:12Z</time></trkpt><trkpt lat="14.792498473314124" lon="120.94752305161238"><ele>7.0</ele><time>2026-04-18T07:47:13Z</time></trkpt><trkpt lat="14.792699306797214" lon="120.94741460678046"><ele>6.0</ele><time>2026-04-18T07:47:14Z</time></trkpt><trkpt lat="14.792899130155691" lon="120.94730849451514"><ele>6.0</ele><time>2026-04-18T07:47:15Z</time></trkpt><trkpt lat="14.793101378433617" lon="120.94720339037728"><ele>6.0</ele><time>2026-04-18T07:47:16Z</time></trkpt><trkpt lat="14.793304009613255" lon="120.94709682152433"><ele>6.0</ele><time>2026-04-18T07:47:17Z</time></trkpt><trkpt lat="14.793504424709676" lon="120.94699127012984"><ele>6.0</ele><time>2026-04-18T07:47:18Z</time></trkpt><trkpt lat="14.793700367742371" lon="120.94688615157051"><ele>6.0</ele><time>2026-04-18T07:47:19Z</time></trkpt><trkpt lat="14.793892870437514" lon="120.94678230713096"><ele>6.333333333333334</ele><time>2026-04-18T07:47:20Z</time></trkpt><trkpt lat="14.794079157248461" lon="120.94667928937504"><ele>6.666666666666667</ele><time>2026-04-18T07:47:21Z</time></trkpt><trkpt lat="14.79425742978019" lon="120.946582482167"><ele>7.0</ele><time>2026-04-18T07:47:22Z</time></trkpt><trkpt lat="14.794428089991634" lon="120.9464893313801"><ele>7.0</ele><time>2026-04-18T07:47:23Z</time></trkpt><trkpt lat="14.794597566196675" lon="120.94639671298259"><ele>7.0</ele><time>2026-04-18T07:47:24Z</time></trkpt><trkpt lat="14.794763395242839" lon="120.94630369812857"><ele>7.0</ele><time>2026-04-18T07:47:25Z</time></trkpt><trkpt lat="14.794927684424668" lon="120.94621281030787"><ele>7.0</ele><time>2026-04-18T07:47:26Z</time></trkpt><trkpt lat="14.795091282335479" lon="120.94612257786274"><ele>7.0</ele><time>2026-04-18T07:47:27Z</time></trkpt><trkpt lat="14.79525601736946" lon="120.94603305669364"><ele>7.0</ele><time>2026-04-18T07:47:28Z</time></trkpt><trkpt lat="14.79542221343563" lon="120.94594293350929"><ele>7.333333333333334</ele><time>2026-04-18T07:47:29Z</time></trkpt><trkpt lat="14.795590230297238" lon="120.94585197970933"><ele>7.666666666666666</ele><time>2026-04-18T07:47:30Z</time></trkpt><trkpt lat="14.795758734385315" lon="120.94575994201006"><ele>8.0</ele><time>2026-04-18T07:47:31Z</time></trkpt><trkpt lat="14.795926662528684" lon="120.9456669288708"><ele>8.0</ele><time>2026-04-18T07:47:32Z</time></trkpt><trkpt lat="14.796091199041504" lon="120.9455771699007"><ele>8.0</ele><time>2026-04-18T07:47:33Z</time></trkpt><trkpt lat="14.796257191823251" lon="120.94548973644486"><ele>8.0</ele><time>2026-04-18T07:47:34Z</time></trkpt><trkpt lat="14.796423350049347" lon="120.945401390951"><ele>8.0</ele><time>2026-04-18T07:47:35Z</time></trkpt><trkpt lat="14.796591157578478" lon="120.9453114433813"><ele>8.0</ele><time>2026-04-18T07:47:36Z</time></trkpt><trkpt lat="14.796758887459195" lon="120.94522039298718"><ele>8.0</ele><time>2026-04-18T07:47:37Z</time></trkpt><trkpt lat="14.796928107450897" lon="120.94512779686644"><ele>7.333333333333333</ele><time>2026-04-18T07:47:38Z</time></trkpt><trkpt lat="14.797099802038591" lon="120.94503345732213"><ele>6.666666666666666</ele><time>2026-04-18T07:47:39Z</time></trkpt><trkpt lat="14.797272479596474" lon="120.94493952962962"><ele>6.0</ele><time>2026-04-18T07:47:40Z</time></trkpt><trkpt lat="14.797444762315996" lon="120.94484372643352"><ele>6.0</ele><time>2026-04-18T07:47:41Z</time></trkpt><trkpt lat="14.797617704869577" lon="120.94475081771607"><ele>6.0</ele><time>2026-04-18T07:47:42Z</time></trkpt><trkpt lat="14.79778973219135" lon="120.94465837038109"><ele>6.0</ele><time>2026-04-18T07:47:43Z</time></trkpt><trkpt lat="14.797959429710472" lon="120.9445671215059"><ele>6.666666666666666</ele><time>2026-04-18T07:47:44Z</time></trkpt><trkpt lat="14.798127965263472" lon="120.94447615978717"><ele>7.333333333333333</ele><time>2026-04-18T07:47:45Z</time></trkpt><trkpt lat="14.798294146662265" lon="120.94438669912385"><ele>8.0</ele><time>2026-04-18T07:47:46Z</time></trkpt><trkpt lat="14.798456289340336" lon="120.9442990512531"><ele>8.0</ele><time>2026-04-18T07:47:47Z</time></trkpt><trkpt lat="14.798613064414091" lon="120.94421642969547"><ele>8.0</ele><time>2026-04-18T07:47:48Z</time></trkpt><trkpt lat="14.798767122344975" lon="120.94413614667528"><ele>8.0</ele><time>2026-04-18T07:47:49Z</time></trkpt><trkpt lat="14.798915152809988" lon="120.94405995555512"><ele>8.333333333333332</ele><time>2026-04-18T07:47:50Z</time></trkpt><trkpt lat="14.799058378700613" lon="120.94398942931932"><ele>8.666666666666666</ele><time>2026-04-18T07:47:51Z</time></trkpt><trkpt lat="14.799203580816656" lon="120.94392774939394"><ele>9.0</ele><time>2026-04-18T07:47:52Z</time></trkpt><trkpt lat="14.799348265861191" lon="120.94387320243696"><ele>9.0</ele><time>2026-04-18T07:47:53Z</time></trkpt><trkpt lat="14.799493026391076" lon="120.94382445699313"><ele>9.0</ele><time>2026-04-18T07:47:54Z</time></trkpt><trkpt lat="14.79963907648891" lon="120.94378115058133"><ele>9.0</ele><time>2026-04-18T07:47:55Z</time></trkpt><trkpt lat="14.799783396139176" lon="120.94374117108157"><ele>9.0</ele><time>2026-04-18T07:47:56Z</time></trkpt><trkpt lat="14.799929534915611" lon="120.94371133675608"><ele>9.0</ele><time>2026-04-18T07:47:57Z</time></trkpt><trkpt lat="14.800078113111473" lon="120.94368816028266"><ele>9.0</ele><time>2026-04-18T07:47:58Z</time></trkpt><trkpt lat="14.800230210976565" lon="120.94366864006145"><ele>8.333333333333334</ele><time>2026-04-18T07:47:59Z</time></trkpt><trkpt lat="14.800380294720762" lon="120.94365213191487"><ele>7.666666666666667</ele><time>2026-04-18T07:48:00Z</time></trkpt><trkpt lat="14.800528509343689" lon="120.94363730044336"><ele>7.0</ele><time>2026-04-18T07:48:01Z</time></trkpt><trkpt lat="14.800679155208902" lon="120.9436242837988"><ele>7.0</ele><time>2026-04-18T07:48:02Z</time></trkpt><trkpt lat="14.800827293401623" lon="120.94361120900355"><ele>7.0</ele><time>2026-04-18T07:48:03Z</time></trkpt><trkpt lat="14.800972755486548" lon="120.94359965334185"><ele>7.0</ele><time>2026-04-18T07:48:04Z</time></trkpt><trkpt lat="14.80112027250032" lon="120.94358641044158"><ele>7.0</ele><time>2026-04-18T07:48:05Z</time></trkpt><trkpt lat="14.801271188054645" lon="120.94357171161566"><ele>7.333333333333334</ele><time>2026-04-18T07:48:06Z</time></trkpt><trkpt lat="14.801424280813594" lon="120.94355451426607"><ele>7.666666666666666</ele><time>2026-04-18T07:48:07Z</time></trkpt><trkpt lat="14.801580806252622" lon="120.94353323157299"><ele>8.0</ele><time>2026-04-18T07:48:08Z</time></trkpt><trkpt lat="14.801740396142655" lon="120.94350727970757"><ele>7.333333333333333</ele><time>2026-04-18T07:48:09Z</time></trkpt><trkpt lat="14.80189937587696" lon="120.94347431191173"><ele>6.666666666666666</ele><time>2026-04-18T07:48:10Z</time></trkpt><trkpt lat="14.802056164781527" lon="120.94343529924839"><ele>6.0</ele><time>2026-04-18T07:48:11Z</time></trkpt><trkpt lat="14.802210636806056" lon="120.94338787313556"><ele>6.0</ele><time>2026-04-18T07:48:12Z</time></trkpt><trkpt lat="14.802365061403705" lon="120.94333349075394"><ele>6.0</ele><time>2026-04-18T07:48:13Z</time></trkpt><trkpt lat="14.802518314539943" lon="120.94327300230475"><ele>6.0</ele><time>2026-04-18T07:48:14Z</time></trkpt><trkpt lat="14.802670906061357" lon="120.94320540052253"><ele>6.0</ele><time>2026-04-18T07:48:15Z</time></trkpt><trkpt lat="14.802822121423734" lon="120.94313175791527"><ele>6.0</ele><time>2026-04-18T07:48:16Z</time></trkpt><trkpt lat="14.802971022216356" lon="120.94305266945456"><ele>6.0</ele><time>2026-04-18T07:48:17Z</time></trkpt><trkpt lat="14.80311380354916" lon="120.94296700448541"><ele>6.0</ele><time>2026-04-18T07:48:18Z</time></trkpt><trkpt lat="14.803252529093081" lon="120.94287497849004"><ele>6.0</ele><time>2026-04-18T07:48:19Z</time></trkpt><trkpt lat="14.803385838928772" lon="120.94277919384949"><ele>6.0</ele><time>2026-04-18T07:48:20Z</time></trkpt><trkpt lat="14.803514646147113" lon="120.94268025882182"><ele>6.333333333333334</ele><time>2026-04-18T07:48:21Z</time></trkpt><trkpt lat="14.803640849430451" lon="120.94257427299837"><ele>6.666666666666667</ele><time>2026-04-18T07:48:22Z</time></trkpt><trkpt lat="14.803761851118164" lon="120.94246487131922"><ele>7.0</ele><time>2026-04-18T07:48:23Z</time></trkpt><trkpt lat="14.803879651403424" lon="120.94235044286938"><ele>7.0</ele><time>2026-04-18T07:48:24Z</time></trkpt><trkpt lat="14.803992432926554" lon="120.94223127176133"><ele>7.0</ele><time>2026-04-18T07:48:25Z</time></trkpt><trkpt lat="14.804098808685426" lon="120.94210976468428"><ele>7.0</ele><time>2026-04-18T07:48:26Z</time></trkpt><trkpt lat="14.80420262570712" lon="120.94198461906835"><ele>7.0</ele><time>2026-04-18T07:48:27Z</time></trkpt><trkpt lat="14.80430367444213" lon="120.9418585869991"><ele>7.0</ele><time>2026-04-18T07:48:28Z</time></trkpt><trkpt lat="14.804419626758461" lon="120.94174764059966"><ele>7.0</ele><time>2026-04-18T07:48:29Z</time></trkpt><trkpt lat="14.804536077598595" lon="120.94163494042108"><ele>7.333333333333334</ele><time>2026-04-18T07:48:30Z</time></trkpt><trkpt lat="14.8046529024402" lon="120.94152187827912"><ele>7.666666666666666</ele><time>2026-04-18T07:48:31Z</time></trkpt><trkpt lat="14.8047154061146" lon="120.94134912691065"><ele>8.0</ele><time>2026-04-18T07:48:32Z</time></trkpt><trkpt lat="14.804822460287237" lon="120.94122475364662"><ele>8.0</ele><time>2026-04-18T07:48:33Z</time></trkpt><trkpt lat="14.804931514045677" lon="120.94110222349666"><ele>8.0</ele><time>2026-04-18T07:48:34Z</time></trkpt><trkpt lat="14.805040503609767" lon="120.94098324670128"><ele>8.0</ele><time>2026-04-18T07:48:35Z</time></trkpt><trkpt lat="14.805151464481225" lon="120.94086902470978"><ele>8.0</ele><time>2026-04-18T07:48:36Z</time></trkpt><trkpt lat="14.805264961647799" lon="120.94076086070875"><ele>8.0</ele><time>2026-04-18T07:48:37Z</time></trkpt><trkpt lat="14.805380163881344" lon="120.94065835420928"><ele>8.0</ele><time>2026-04-18T07:48:38Z</time></trkpt><trkpt lat="14.805497739767752" lon="120.94055955433168"><ele>8.0</ele><time>2026-04-18T07:48:39Z</time></trkpt><trkpt lat="14.805616805481678" lon="120.9404670510007"><ele>8.0</ele><time>2026-04-18T07:48:40Z</time></trkpt><trkpt lat="14.80573777413081" lon="120.94037975397039"><ele>8.0</ele><time>2026-04-18T07:48:41Z</time></trkpt><trkpt lat="14.805862627966109" lon="120.94029606719698"><ele>8.0</ele><time>2026-04-18T07:48:42Z</time></trkpt><trkpt lat="14.805989299070719" lon="120.94021565279503"><ele>8.666666666666666</ele><time>2026-04-18T07:48:43Z</time></trkpt><trkpt lat="14.806118912647703" lon="120.94013802396748"><ele>9.333333333333334</ele><time>2026-04-18T07:48:44Z</time></trkpt><trkpt lat="14.806256162708927" lon="120.94006151099862"><ele>10.0</ele><time>2026-04-18T07:48:45Z</time></trkpt><trkpt lat="14.806396943813317" lon="120.93998320580725"><ele>10.333333333333334</ele><time>2026-04-18T07:48:46Z</time></trkpt><trkpt lat="14.806540813198003" lon="120.93990673132829"><ele>10.666666666666666</ele><time>2026-04-18T07:48:47Z</time></trkpt><trkpt lat="14.806687943031017" lon="120.93982700720738"><ele>11.0</ele><time>2026-04-18T07:48:48Z</time></trkpt><trkpt lat="14.80683762417693" lon="120.93974606685647"><ele>11.0</ele><time>2026-04-18T07:48:49Z</time></trkpt><trkpt lat="14.806988453920727" lon="120.93966398672366"><ele>11.0</ele><time>2026-04-18T07:48:50Z</time></trkpt><trkpt lat="14.807141197154573" lon="120.93958072944656"><ele>11.0</ele><time>2026-04-18T07:48:51Z</time></trkpt><trkpt lat="14.807297718012691" lon="120.93949746273158"><ele>11.0</ele><time>2026-04-18T07:48:52Z</time></trkpt><trkpt lat="14.807455122381674" lon="120.93941134382992"><ele>11.0</ele><time>2026-04-18T07:48:53Z</time></trkpt><trkpt lat="14.807613623902796" lon="120.93932467677816"><ele>11.0</ele><time>2026-04-18T07:48:54Z</time></trkpt><trkpt lat="14.807773898239324" lon="120.9392359620133"><ele>10.333333333333332</ele><time>2026-04-18T07:48:55Z</time></trkpt><trkpt lat="14.807936792107911" lon="120.93914659644467"><ele>9.666666666666666</ele><time>2026-04-18T07:48:56Z</time></trkpt><trkpt lat="14.808102864546196" lon="120.93905546328867"><ele>9.0</ele><time>2026-04-18T07:48:57Z</time></trkpt><trkpt lat="14.808270473359986" lon="120.93896371455575"><ele>9.0</ele><time>2026-04-18T07:48:58Z</time></trkpt><trkpt lat="14.80843848807126" lon="120.93887239779238"><ele>9.0</ele><time>2026-04-18T07:48:59Z</time></trkpt><trkpt lat="14.808609360067864" lon="120.93877993587449"><ele>9.0</ele><time>2026-04-18T07:49:00Z</time></trkpt><trkpt lat="14.808781397828554" lon="120.9386864280908"><ele>9.333333333333334</ele><time>2026-04-18T07:49:01Z</time></trkpt><trkpt lat="14.808953225244032" lon="120.93859376890632"><ele>9.666666666666668</ele><time>2026-04-18T07:49:02Z</time></trkpt><trkpt lat="14.80912563243798" lon="120.9384999418813"><ele>10.0</ele><time>2026-04-18T07:49:03Z</time></trkpt><trkpt lat="14.80929511436029" lon="120.93840615088311"><ele>10.0</ele><time>2026-04-18T07:49:04Z</time></trkpt><trkpt lat="14.809460906054158" lon="120.9383137234866"><ele>10.0</ele><time>2026-04-18T07:49:05Z</time></trkpt><trkpt lat="14.809623195286221" lon="120.93822239102154"><ele>10.0</ele><time>2026-04-18T07:49:06Z</time></trkpt><trkpt lat="14.809784488106152" lon="120.93813372354549"><ele>10.0</ele><time>2026-04-18T07:49:07Z</time></trkpt><trkpt lat="14.809943166742562" lon="120.9380457237563"><ele>10.0</ele><time>2026-04-18T07:49:08Z</time></trkpt><trkpt lat="14.810101644602813" lon="120.93795980057097"><ele>10.0</ele><time>2026-04-18T07:49:09Z</time></trkpt><trkpt lat="14.810260669339128" lon="120.93787433517258"><ele>10.333333333333334</ele><time>2026-04-18T07:49:10Z</time></trkpt><trkpt lat="14.810420006020607" lon="120.93778748202519"><ele>10.666666666666666</ele><time>2026-04-18T07:49:11Z</time></trkpt><trkpt lat="14.810581204141751" lon="120.93770026080932"><ele>11.0</ele><time>2026-04-18T07:49:12Z</time></trkpt><trkpt lat="14.810742156140877" lon="120.93760886369401"><ele>10.333333333333332</ele><time>2026-04-18T07:49:13Z</time></trkpt><trkpt lat="14.810903118371334" lon="120.937521666789"><ele>9.666666666666666</ele><time>2026-04-18T07:49:14Z</time></trkpt><trkpt lat="14.81106326104598" lon="120.93743393779813"><ele>9.0</ele><time>2026-04-18T07:49:15Z</time></trkpt><trkpt lat="14.81122653880346" lon="120.93734690559887"><ele>9.0</ele><time>2026-04-18T07:49:16Z</time></trkpt><trkpt lat="14.811387039798417" lon="120.93725995185233"><ele>9.0</ele><time>2026-04-18T07:49:17Z</time></trkpt><trkpt lat="14.811548932126492" lon="120.93717172239842"><ele>9.0</ele><time>2026-04-18T07:49:18Z</time></trkpt><trkpt lat="14.81171132117379" lon="120.9370841931583"><ele>9.0</ele><time>2026-04-18T07:49:19Z</time></trkpt><trkpt lat="14.811872320480926" lon="120.9369978516066"><ele>9.0</ele><time>2026-04-18T07:49:20Z</time></trkpt><trkpt lat="14.812034093828341" lon="120.93690988212458"><ele>9.0</ele><time>2026-04-18T07:49:21Z</time></trkpt><trkpt lat="14.812196865453236" lon="120.93682233550072"><ele>9.0</ele><time>2026-04-18T07:49:22Z</time></trkpt><trkpt lat="14.812361364262596" lon="120.93673402384215"><ele>9.0</ele><time>2026-04-18T07:49:23Z</time></trkpt><trkpt lat="14.81252375929722" lon="120.93664501920964"><ele>9.0</ele><time>2026-04-18T07:49:24Z</time></trkpt><trkpt lat="14.81268929373185" lon="120.93655598107264"><ele>9.0</ele><time>2026-04-18T07:49:25Z</time></trkpt><trkpt lat="14.812865438948068" lon="120.93648345314031"><ele>9.0</ele><time>2026-04-18T07:49:26Z</time></trkpt><trkpt lat="14.813033093728905" lon="120.93638982679441"><ele>9.0</ele><time>2026-04-18T07:49:27Z</time></trkpt><trkpt lat="14.813190880717174" lon="120.93628037047252"><ele>9.0</ele><time>2026-04-18T07:49:28Z</time></trkpt><trkpt lat="14.813356537665506" lon="120.93618878902411"><ele>9.0</ele><time>2026-04-18T07:49:29Z</time></trkpt><trkpt lat="14.813520102274776" lon="120.93609847647666"><ele>9.0</ele><time>2026-04-18T07:49:30Z</time></trkpt><trkpt lat="14.813683218354717" lon="120.93600722624888"><ele>8.666666666666666</ele><time>2026-04-18T07:49:31Z</time></trkpt><trkpt lat="14.81384244853709" lon="120.93591680896547"><ele>8.333333333333332</ele><time>2026-04-18T07:49:32Z</time></trkpt><trkpt lat="14.814000726471109" lon="120.93582591986292"><ele>8.0</ele><time>2026-04-18T07:49:33Z</time></trkpt><trkpt lat="14.814155666653186" lon="120.93573544690688"><ele>9.0</ele><time>2026-04-18T07:49:34Z</time></trkpt><trkpt lat="14.814309732576989" lon="120.93564066533708"><ele>10.0</ele><time>2026-04-18T07:49:35Z</time></trkpt><trkpt lat="14.81446221907263" lon="120.93554174751957"><ele>11.0</ele><time>2026-04-18T07:49:36Z</time></trkpt><trkpt lat="14.814615761492929" lon="120.93544053769627"><ele>11.666666666666666</ele><time>2026-04-18T07:49:37Z</time></trkpt><trkpt lat="14.814765930535183" lon="120.93533504002998"><ele>12.333333333333332</ele><time>2026-04-18T07:49:38Z</time></trkpt><trkpt lat="14.81490983982806" lon="120.93521960983763"><ele>13.0</ele><time>2026-04-18T07:49:39Z</time></trkpt><trkpt lat="14.815059615522612" lon="120.93510596276609"><ele>12.0</ele><time>2026-04-18T07:49:40Z</time></trkpt><trkpt lat="14.815207496274777" lon="120.93498912055298"><ele>11.0</ele><time>2026-04-18T07:49:41Z</time></trkpt><trkpt lat="14.815355903432613" lon="120.93486745320762"><ele>10.0</ele><time>2026-04-18T07:49:42Z</time></trkpt><trkpt lat="14.815505867604212" lon="120.93474020666153"><ele>10.0</ele><time>2026-04-18T07:49:43Z</time></trkpt><trkpt lat="14.815653556765168" lon="120.93460802471114"><ele>10.0</ele><time>2026-04-18T07:49:44Z</time></trkpt><trkpt lat="14.815802010987754" lon="120.9344713970373"><ele>10.0</ele><time>2026-04-18T07:49:45Z</time></trkpt><trkpt lat="14.815949101024845" lon="120.93432980225006"><ele>9.333333333333334</ele><time>2026-04-18T07:49:46Z</time></trkpt><trkpt lat="14.816093725605525" lon="120.93418588658876"><ele>8.666666666666666</ele><time>2026-04-18T07:49:47Z</time></trkpt><trkpt lat="14.816233514646973" lon="120.93403810558611"><ele>8.0</ele><time>2026-04-18T07:49:48Z</time></trkpt><trkpt lat="14.816370635843993" lon="120.93388956271103"><ele>8.0</ele><time>2026-04-18T07:49:49Z</time></trkpt><trkpt lat="14.816508098082025" lon="120.93373681738255"><ele>8.0</ele><time>2026-04-18T07:49:50Z</time></trkpt><trkpt lat="14.816646780781982" lon="120.93358301501222"><ele>8.0</ele><time>2026-04-18T07:49:51Z</time></trkpt><trkpt lat="14.81678999908293" lon="120.93342204710763"><ele>8.0</ele><time>2026-04-18T07:49:52Z</time></trkpt><trkpt lat="14.81693143095226" lon="120.93325482949948"><ele>8.0</ele><time>2026-04-18T07:49:53Z</time></trkpt><trkpt lat="14.8170673210953" lon="120.93308083581606"><ele>8.0</ele><time>2026-04-18T07:49:54Z</time></trkpt><trkpt lat="14.81719975585832" lon="120.93289936559626"><ele>8.0</ele><time>2026-04-18T07:49:55Z</time></trkpt><trkpt lat="14.817330777234593" lon="120.93271264198478"><ele>8.0</ele><time>2026-04-18T07:49:56Z</time></trkpt><trkpt lat="14.81745644131113" lon="120.93252242011177"><ele>8.0</ele><time>2026-04-18T07:49:57Z</time></trkpt><trkpt lat="14.817577641133884" lon="120.93232964559198"><ele>7.0</ele><time>2026-04-18T07:49:58Z</time></trkpt><trkpt lat="14.817696461492545" lon="120.93213133133379"><ele>6.0</ele><time>2026-04-18T07:49:59Z</time></trkpt><trkpt lat="14.81781293490614" lon="120.93192639064081"><ele>8.0</ele><time>2026-04-18T07:50:00Z</time></trkpt><trkpt lat="14.81792818935601" lon="120.93171764045337"><ele>10.0</ele><time>2026-04-18T07:50:01Z</time></trkpt><trkpt lat="14.81804298787906" lon="120.93150474218409"><ele>10.0</ele><time>2026-04-18T07:50:02Z</time></trkpt><trkpt lat="14.818158054221964" lon="120.93128713790382"><ele>10.0</ele><time>2026-04-18T07:50:03Z</time></trkpt><trkpt lat="14.81827502297395" lon="120.9310652131081"><ele>9.5</ele><time>2026-04-18T07:50:04Z</time></trkpt><trkpt lat="14.818393320145233" lon="120.9308427136675"><ele>9.0</ele><time>2026-04-18T07:50:05Z</time></trkpt><trkpt lat="14.818513208690971" lon="120.93061837238052"><ele>8.5</ele><time>2026-04-18T07:50:06Z</time></trkpt><trkpt lat="14.818633116016787" lon="120.93039528319393"><ele>8.0</ele><time>2026-04-18T07:50:07Z</time></trkpt><trkpt lat="14.8187535649664" lon="120.93017295669566"><ele>8.5</ele><time>2026-04-18T07:50:08Z</time></trkpt><trkpt lat="14.81887351850305" lon="120.92995261194248"><ele>9.0</ele><time>2026-04-18T07:50:09Z</time></trkpt><trkpt lat="14.81899182289253" lon="120.92973503892657"><ele>9.0</ele><time>2026-04-18T07:50:10Z</time></trkpt><trkpt lat="14.819111034603203" lon="120.92951508486972"><ele>9.0</ele><time>2026-04-18T07:50:11Z</time></trkpt><trkpt lat="14.819231187858767" lon="120.92929545653972"><ele>8.0</ele><time>2026-04-18T07:50:12Z</time></trkpt><trkpt lat="14.819352136684419" lon="120.92907545737569"><ele>7.0</ele><time>2026-04-18T07:50:13Z</time></trkpt><trkpt lat="14.819474618832425" lon="120.92885536557493"><ele>7.0</ele><time>2026-04-18T07:50:14Z</time></trkpt><trkpt lat="14.819598836875437" lon="120.92863066582888"><ele>7.0</ele><time>2026-04-18T07:50:15Z</time></trkpt><trkpt lat="14.819721072959346" lon="120.92840769714209"><ele>7.5</ele><time>2026-04-18T07:50:16Z</time></trkpt><trkpt lat="14.819842069512179" lon="120.92818262306263"><ele>8.0</ele><time>2026-04-18T07:50:17Z</time></trkpt><trkpt lat="14.819960979557537" lon="120.92796330581572"><ele>8.0</ele><time>2026-04-18T07:50:18Z</time></trkpt><trkpt lat="14.820077343010414" lon="120.92774828272695"><ele>8.0</ele><time>2026-04-18T07:50:19Z</time></trkpt><trkpt lat="14.820191897496896" lon="120.92753649334625"><ele>9.0</ele><time>2026-04-18T07:50:20Z</time></trkpt><trkpt lat="14.820304204717328" lon="120.92732463144394"><ele>10.0</ele><time>2026-04-18T07:50:21Z</time></trkpt><trkpt lat="14.820415431053004" lon="120.92711629608013"><ele>10.0</ele><time>2026-04-18T07:50:22Z</time></trkpt><trkpt lat="14.82052472224895" lon="120.92691076916273"><ele>10.0</ele><time>2026-04-18T07:50:23Z</time></trkpt><trkpt lat="14.820634339337616" lon="120.9267051196309"><ele>9.333333333333334</ele><time>2026-04-18T07:50:24Z</time></trkpt><trkpt lat="14.820742617920443" lon="120.92650381271811"><ele>8.666666666666666</ele><time>2026-04-18T07:50:25Z</time></trkpt><trkpt lat="14.820848670857307" lon="120.92630556246135"><ele>8.0</ele><time>2026-04-18T07:50:26Z</time></trkpt><trkpt lat="14.820952761572807" lon="120.9261102418194"><ele>7.333333333333333</ele><time>2026-04-18T07:50:27Z</time></trkpt><trkpt lat="14.8210556090325" lon="120.92591855016434"><ele>6.666666666666666</ele><time>2026-04-18T07:50:28Z</time></trkpt><trkpt lat="14.821156700739095" lon="120.92573085373415"><ele>6.0</ele><time>2026-04-18T07:50:29Z</time></trkpt><trkpt lat="14.821255699606326" lon="120.92554382350758"><ele>6.0</ele><time>2026-04-18T07:50:30Z</time></trkpt><trkpt lat="14.821353458703165" lon="120.92535849967736"><ele>6.0</ele><time>2026-04-18T07:50:31Z</time></trkpt><trkpt lat="14.821450590139943" lon="120.92517451747824"><ele>6.0</ele><time>2026-04-18T07:50:32Z</time></trkpt><trkpt lat="14.821547164512745" lon="120.92499235039743"><ele>6.0</ele><time>2026-04-18T07:50:33Z</time></trkpt><trkpt lat="14.821641862856634" lon="120.92481356656697"><ele>6.0</ele><time>2026-04-18T07:50:34Z</time></trkpt><trkpt lat="14.82173490617171" lon="120.92463558951893"><ele>6.0</ele><time>2026-04-18T07:50:35Z</time></trkpt><trkpt lat="14.821826273116525" lon="120.92446150574332"><ele>6.0</ele><time>2026-04-18T07:50:36Z</time></trkpt><trkpt lat="14.821917478547155" lon="120.92429266881618"><ele>6.0</ele><time>2026-04-18T07:50:37Z</time></trkpt><trkpt lat="14.822007598947419" lon="120.92412537269723"><ele>6.0</ele><time>2026-04-18T07:50:38Z</time></trkpt><trkpt lat="14.822096872856182" lon="120.92396001373335"><ele>6.0</ele><time>2026-04-18T07:50:39Z</time></trkpt><trkpt lat="14.822186122663325" lon="120.92379626120031"><ele>6.0</ele><time>2026-04-18T07:50:40Z</time></trkpt><trkpt lat="14.822273293539123" lon="120.92363323735472"><ele>6.0</ele><time>2026-04-18T07:50:41Z</time></trkpt><trkpt lat="14.822358872300024" lon="120.92347276112135"><ele>6.0</ele><time>2026-04-18T07:50:42Z</time></trkpt><trkpt lat="14.822441290998613" lon="120.92331326633317"><ele>6.0</ele><time>2026-04-18T07:50:43Z</time></trkpt><trkpt lat="14.822523239866463" lon="120.9231520416902"><ele>6.0</ele><time>2026-04-18T07:50:44Z</time></trkpt><trkpt lat="14.822607734073802" lon="120.92299212970632"><ele>6.0</ele><time>2026-04-18T07:50:45Z</time></trkpt><trkpt lat="14.82269222760224" lon="120.92283433327248"><ele>6.0</ele><time>2026-04-18T07:50:46Z</time></trkpt><trkpt lat="14.822776696475291" lon="120.92267491401063"><ele>6.0</ele><time>2026-04-18T07:50:47Z</time></trkpt><trkpt lat="14.822860103615216" lon="120.9225128598673"><ele>6.0</ele><time>2026-04-18T07:50:48Z</time></trkpt><trkpt lat="14.822942983644436" lon="120.92234820645714"><ele>6.0</ele><time>2026-04-18T07:50:49Z</time></trkpt><trkpt lat="14.823025896332604" lon="120.9221823231315"><ele>6.0</ele><time>2026-04-18T07:50:50Z</time></trkpt><trkpt lat="14.823110619905306" lon="120.9220202527272"><ele>6.0</ele><time>2026-04-18T07:50:51Z</time></trkpt><trkpt lat="14.82319671710466" lon="120.92186434063738"><ele>6.0</ele><time>2026-04-18T07:50:52Z</time></trkpt><trkpt lat="14.823282595852758" lon="120.92171279319228"><ele>6.0</ele><time>2026-04-18T07:50:53Z</time></trkpt><trkpt lat="14.823365080753373" lon="120.92156575791769"><ele>6.333333333333334</ele><time>2026-04-18T07:50:54Z</time></trkpt><trkpt lat="14.823445304736564" lon="120.92141964147193"><ele>6.666666666666667</ele><time>2026-04-18T07:50:55Z</time></trkpt><trkpt lat="14.823523770681028" lon="120.92127595940133"><ele>7.0</ele><time>2026-04-18T07:50:56Z</time></trkpt><trkpt lat="14.823601926173458" lon="120.92113442937604"><ele>7.0</ele><time>2026-04-18T07:50:57Z</time></trkpt><trkpt lat="14.823678185953357" lon="120.92099374906466"><ele>7.0</ele><time>2026-04-18T07:50:58Z</time></trkpt><trkpt lat="14.823753117903362" lon="120.92085536918897"><ele>7.0</ele><time>2026-04-18T07:50:59Z</time></trkpt><trkpt lat="14.823827869655767" lon="120.9207175772535"><ele>7.333333333333334</ele><time>2026-04-18T07:51:00Z</time></trkpt><trkpt lat="14.823901648224377" lon="120.92058226286144"><ele>7.666666666666666</ele><time>2026-04-18T07:51:01Z</time></trkpt><trkpt lat="14.823975092475527" lon="120.92044785437609"><ele>8.0</ele><time>2026-04-18T07:51:02Z</time></trkpt><trkpt lat="14.824047133235876" lon="120.92030743898248"><ele>8.0</ele><time>2026-04-18T07:51:03Z</time></trkpt><trkpt lat="14.824121169655362" lon="120.92016084071602"><ele>8.0</ele><time>2026-04-18T07:51:04Z</time></trkpt><trkpt lat="14.824198878205777" lon="120.92001172711646"><ele>8.0</ele><time>2026-04-18T07:51:05Z</time></trkpt><trkpt lat="14.824279411398805" lon="120.91985775589005"><ele>7.0</ele><time>2026-04-18T07:51:06Z</time></trkpt><trkpt lat="14.824362052847572" lon="120.91969717521923"><ele>6.0</ele><time>2026-04-18T07:51:07Z</time></trkpt><trkpt lat="14.824444804142662" lon="120.91953323229936"><ele>5.0</ele><time>2026-04-18T07:51:08Z</time></trkpt><trkpt lat="14.824528122981866" lon="120.91936743340393"><ele>6.0</ele><time>2026-04-18T07:51:09Z</time></trkpt><trkpt lat="14.824613744256983" lon="120.91920058046281"><ele>7.0</ele><time>2026-04-18T07:51:10Z</time></trkpt><trkpt lat="14.824701817876342" lon="120.9190299016443"><ele>8.0</ele><time>2026-04-18T07:51:11Z</time></trkpt><trkpt lat="14.824793020251093" lon="120.9188544319546"><ele>8.0</ele><time>2026-04-18T07:51:12Z</time></trkpt><trkpt lat="14.824886509930312" lon="120.91867591306578"><ele>8.0</ele><time>2026-04-18T07:51:13Z</time></trkpt><trkpt lat="14.82498136694743" lon="120.91849398507985"><ele>8.0</ele><time>2026-04-18T07:51:14Z</time></trkpt><trkpt lat="14.82507797516235" lon="120.91831237585004"><ele>7.666666666666666</ele><time>2026-04-18T07:51:15Z</time></trkpt><trkpt lat="14.825173074417267" lon="120.91813028651421"><ele>7.333333333333334</ele><time>2026-04-18T07:51:16Z</time></trkpt><trkpt lat="14.825268695101862" lon="120.91794885130949"><ele>7.0</ele><time>2026-04-18T07:51:17Z</time></trkpt><trkpt lat="14.82536375996417" lon="120.91777040056488"><ele>7.0</ele><time>2026-04-18T07:51:18Z</time></trkpt><trkpt lat="14.825454606825634" lon="120.91759989187649"><ele>7.0</ele><time>2026-04-18T07:51:19Z</time></trkpt><trkpt lat="14.825542271097895" lon="120.91743894739157"><ele>7.0</ele><time>2026-04-18T07:51:20Z</time></trkpt><trkpt lat="14.825622844667128" lon="120.91728884158405"><ele>6.75</ele><time>2026-04-18T07:51:21Z</time></trkpt><trkpt lat="14.825697600546281" lon="120.91714922202615"><ele>6.5</ele><time>2026-04-18T07:51:22Z</time></trkpt><trkpt lat="14.82576947127181" lon="120.91701623042981"><ele>6.25</ele><time>2026-04-18T07:51:23Z</time></trkpt><trkpt lat="14.825839105981556" lon="120.91688531680994"><ele>6.0</ele><time>2026-04-18T07:51:24Z</time></trkpt><trkpt lat="14.82590584317357" lon="120.91676090087712"><ele>6.25</ele><time>2026-04-18T07:51:25Z</time></trkpt><trkpt lat="14.825971665352286" lon="120.9166372243168"><ele>6.5</ele><time>2026-04-18T07:51:26Z</time></trkpt><trkpt lat="14.82603534122188" lon="120.91650489509684"><ele>6.75</ele><time>2026-04-18T07:51:27Z</time></trkpt><trkpt lat="14.826101079936162" lon="120.9163675475563"><ele>7.0</ele><time>2026-04-18T07:51:28Z</time></trkpt><trkpt lat="14.826170891014261" lon="120.91622369760664"><ele>7.0</ele><time>2026-04-18T07:51:29Z</time></trkpt><trkpt lat="14.826246516928524" lon="120.91607656893099"><ele>7.0</ele><time>2026-04-18T07:51:30Z</time></trkpt><trkpt lat="14.826327473737653" lon="120.91592514939234"><ele>7.0</ele><time>2026-04-18T07:51:31Z</time></trkpt><trkpt lat="14.826415250835591" lon="120.9157685268174"><ele>7.333333333333334</ele><time>2026-04-18T07:51:32Z</time></trkpt><trkpt lat="14.826510138568512" lon="120.91560244804748"><ele>7.666666666666666</ele><time>2026-04-18T07:51:33Z</time></trkpt><trkpt lat="14.82660835058983" lon="120.91542698097724"><ele>8.0</ele><time>2026-04-18T07:51:34Z</time></trkpt><trkpt lat="14.826709216992576" lon="120.9152447467098"><ele>7.666666666666666</ele><time>2026-04-18T07:51:35Z</time></trkpt><trkpt lat="14.826810797662663" lon="120.91506002074803"><ele>7.333333333333334</ele><time>2026-04-18T07:51:36Z</time></trkpt><trkpt lat="14.82691337054853" lon="120.91487366675506"><ele>7.0</ele><time>2026-04-18T07:51:37Z</time></trkpt><trkpt lat="14.827017931487461" lon="120.91468336020543"><ele>6.666666666666667</ele><time>2026-04-18T07:51:38Z</time></trkpt><trkpt lat="14.827122891648504" lon="120.91449041567158"><ele>6.333333333333334</ele><time>2026-04-18T07:51:39Z</time></trkpt><trkpt lat="14.827228669670584" lon="120.91429640738002"><ele>6.0</ele><time>2026-04-18T07:51:40Z</time></trkpt><trkpt lat="14.827333695321753" lon="120.91410068072116"><ele>6.0</ele><time>2026-04-18T07:51:41Z</time></trkpt><trkpt lat="14.827437330082878" lon="120.91390676052944"><ele>6.0</ele><time>2026-04-18T07:51:42Z</time></trkpt><trkpt lat="14.827540857604026" lon="120.9137132143382"><ele>6.0</ele><time>2026-04-18T07:51:43Z</time></trkpt><trkpt lat="14.82764370288802" lon="120.91352179146644"><ele>6.0</ele><time>2026-04-18T07:51:44Z</time></trkpt><trkpt lat="14.827745730015684" lon="120.91333267607537"><ele>6.0</ele><time>2026-04-18T07:51:45Z</time></trkpt><trkpt lat="14.827846519972335" lon="120.91314657276354"><ele>6.0</ele><time>2026-04-18T07:51:46Z</time></trkpt><trkpt lat="14.82794472147519" lon="120.91296257176869"><ele>6.0</ele><time>2026-04-18T07:51:47Z</time></trkpt><trkpt lat="14.828040317546844" lon="120.91277825952649"><ele>6.0</ele><time>2026-04-18T07:51:48Z</time></trkpt><trkpt lat="14.828136332119154" lon="120.91259365509295"><ele>6.0</ele><time>2026-04-18T07:51:49Z</time></trkpt><trkpt lat="14.828229875383137" lon="120.91241281831138"><ele>6.0</ele><time>2026-04-18T07:51:50Z</time></trkpt><trkpt lat="14.828321651551112" lon="120.91223696691873"><ele>6.0</ele><time>2026-04-18T07:51:51Z</time></trkpt><trkpt lat="14.82840787788517" lon="120.91207229182562"><ele>6.0</ele><time>2026-04-18T07:51:52Z</time></trkpt><trkpt lat="14.828491444805788" lon="120.9119144611349"><ele>6.0</ele><time>2026-04-18T07:51:53Z</time></trkpt><trkpt lat="14.828573650464868" lon="120.91176328395538"><ele>6.0</ele><time>2026-04-18T07:51:54Z</time></trkpt><trkpt lat="14.82865310797796" lon="120.9116168214054"><ele>6.0</ele><time>2026-04-18T07:51:55Z</time></trkpt><trkpt lat="14.828731700006536" lon="120.91147040106397"><ele>5.75</ele><time>2026-04-18T07:51:56Z</time></trkpt><trkpt lat="14.828804876502266" lon="120.91133215557542"><ele>5.5</ele><time>2026-04-18T07:51:57Z</time></trkpt><trkpt lat="14.828871450101191" lon="120.9112073812909"><ele>5.25</ele><time>2026-04-18T07:51:58Z</time></trkpt><trkpt lat="14.82893343440685" lon="120.91109073724621"><ele>5.0</ele><time>2026-04-18T07:51:59Z</time></trkpt><trkpt lat="14.828995364591444" lon="120.91097660924764"><ele>5.0</ele><time>2026-04-18T07:52:00Z</time></trkpt><trkpt lat="14.829057329276184" lon="120.91086346613199"><ele>5.0</ele><time>2026-04-18T07:52:01Z</time></trkpt><trkpt lat="14.829117771272411" lon="120.91075245899196"><ele>5.0</ele><time>2026-04-18T07:52:02Z</time></trkpt><trkpt lat="14.829173752922856" lon="120.91064758232112"><ele>5.0</ele><time>2026-04-18T07:52:03Z</time></trkpt><trkpt lat="14.829227533758187" lon="120.91054604725315"><ele>5.0</ele><time>2026-04-18T07:52:04Z</time></trkpt><trkpt lat="14.829281125523469" lon="120.91044721311218"><ele>5.0</ele><time>2026-04-18T07:52:05Z</time></trkpt><trkpt lat="14.829336788390734" lon="120.910354767794"><ele>5.0</ele><time>2026-04-18T07:52:06Z</time></trkpt><trkpt lat="14.82939500162139" lon="120.91026071297445"><ele>5.0</ele><time>2026-04-18T07:52:07Z</time></trkpt><trkpt lat="14.829457259454447" lon="120.91016247419859"><ele>5.0</ele><time>2026-04-18T07:52:08Z</time></trkpt><trkpt lat="14.829520627643115" lon="120.91006127615026"><ele>5.25</ele><time>2026-04-18T07:52:09Z</time></trkpt><trkpt lat="14.829585793831217" lon="120.9099583834863"><ele>5.5</ele><time>2026-04-18T07:52:10Z</time></trkpt><trkpt lat="14.82965274651959" lon="120.90985269155286"><ele>5.75</ele><time>2026-04-18T07:52:11Z</time></trkpt><trkpt lat="14.829717846780511" lon="120.90974874579204"><ele>6.0</ele><time>2026-04-18T07:52:12Z</time></trkpt><trkpt lat="14.829778808597451" lon="120.9096497717165"><ele>6.0</ele><time>2026-04-18T07:52:13Z</time></trkpt><trkpt lat="14.829833631809747" lon="120.90956288383771"><ele>6.0</ele><time>2026-04-18T07:52:14Z</time></trkpt><trkpt lat="14.829883174809234" lon="120.90948808845474"><ele>6.0</ele><time>2026-04-18T07:52:15Z</time></trkpt><trkpt lat="14.82992973028451" lon="120.90942695288322"><ele>6.0</ele><time>2026-04-18T07:52:16Z</time></trkpt><trkpt lat="14.830003870949637" lon="120.90940545070846"><ele>6.0</ele><time>2026-04-18T07:52:17Z</time></trkpt><trkpt lat="14.830070557170053" lon="120.90935249636537"><ele>6.0</ele><time>2026-04-18T07:52:19Z</time></trkpt><trkpt lat="14.83011503726388" lon="120.90925579966243"><ele>6.0</ele><time>2026-04-18T07:52:21Z</time></trkpt><trkpt lat="14.83017703300399" lon="120.90922647561663"><ele>6.0</ele><time>2026-04-18T07:52:23Z</time></trkpt><trkpt lat="14.830225795186887" lon="120.90917969037402"><ele>6.0</ele><time>2026-04-18T07:52:25Z</time></trkpt><trkpt lat="14.83026335611998" lon="120.90910715143843"><ele>6.0</ele><time>2026-04-18T07:52:27Z</time></trkpt><trkpt lat="14.830299293335319" lon="120.90902998347772"><ele>6.0</ele><time>2026-04-18T07:52:29Z</time></trkpt><trkpt lat="14.830343778718206" lon="120.90894024419227"><ele>6.0</ele><time>2026-04-18T07:52:31Z</time></trkpt><trkpt lat="14.8304137692812" lon="120.90886713712051"><ele>6.0</ele><time>2026-04-18T07:52:33Z</time></trkpt><trkpt lat="14.830428132397312" lon="120.9087702723782"><ele>6.0</ele><time>2026-04-18T07:52:35Z</time></trkpt><trkpt lat="14.830470309728561" lon="120.90869141327784"><ele>6.0</ele><time>2026-04-18T07:52:37Z</time></trkpt><trkpt lat="14.830508335341088" lon="120.9086199007599"><ele>6.0</ele><time>2026-04-18T07:52:39Z</time></trkpt><trkpt lat="14.830547096617305" lon="120.90854929397595"><ele>6.0</ele><time>2026-04-18T07:52:42Z</time></trkpt><trkpt lat="14.830577513252399" lon="120.90849133305099"><ele>6.0</ele><time>2026-04-18T07:52:45Z</time></trkpt><trkpt lat="14.830621039567774" lon="120.90840527309038"><ele>6.142857142857142</ele><time>2026-04-18T07:52:48Z</time></trkpt><trkpt lat="14.830659966808964" lon="120.90833320386746"><ele>6.285714285714286</ele><time>2026-04-18T07:52:50Z</time></trkpt><trkpt lat="14.830695534290657" lon="120.90826011738702"><ele>6.428571428571429</ele><time>2026-04-18T07:52:52Z</time></trkpt><trkpt lat="14.830729969476998" lon="120.90819225992614"><ele>6.571428571428571</ele><time>2026-04-18T07:52:54Z</time></trkpt><trkpt lat="14.83076900905205" lon="120.90812501555182"><ele>6.714285714285714</ele><time>2026-04-18T07:52:56Z</time></trkpt><trkpt lat="14.830801681456721" lon="120.90806921376796"><ele>6.857142857142857</ele><time>2026-04-18T07:52:58Z</time></trkpt><trkpt lat="14.830839202762556" lon="120.90801457870228"><ele>7.0</ele><time>2026-04-18T07:53:25Z</time></trkpt><trkpt lat="14.830888117001576" lon="120.90796885897242"><ele>7.000000000000001</ele><time>2026-04-18T07:53:32Z</time></trkpt><trkpt lat="14.830872764018405" lon="120.90790231201439"><ele>7.0</ele><time>2026-04-18T07:53:36Z</time></trkpt><trkpt lat="14.830882974055063" lon="120.90782618883759"><ele>7.0</ele><time>2026-04-18T07:53:44Z</time></trkpt><trkpt lat="14.830942938185157" lon="120.90778781936787"><ele>7.0</ele><time>2026-04-18T07:53:50Z</time></trkpt><trkpt lat="14.83099993643158" lon="120.90774526839095"><ele>7.000000000000001</ele><time>2026-04-18T07:53:58Z</time></trkpt><trkpt lat="14.831058285831357" lon="120.90769988462381"><ele>7.0</ele><time>2026-04-18T07:54:16Z</time></trkpt><trkpt lat="14.83113277436539" lon="120.9077634118303"><ele>7.000000000000001</ele><time>2026-04-18T07:55:08Z</time></trkpt><trkpt lat="14.831085005018755" lon="120.9078070418969"><ele>7.0</ele><time>2026-04-18T07:55:23Z</time></trkpt><trkpt lat="14.831018255265013" lon="120.90781326378193"><ele>7.0</ele><time>2026-04-18T07:55:32Z</time></trkpt><trkpt lat="14.83093441371927" lon="120.90790560172888"><ele>7.0</ele><time>2026-04-18T07:56:14Z</time></trkpt><trkpt lat="14.830887477836477" lon="120.90796293551598"><ele>7.000000000000001</ele><time>2026-04-18T07:56:25Z</time></trkpt><trkpt lat="14.830897951557924" lon="120.90803018451223"><ele>7.0</ele><time>2026-04-18T07:56:28Z</time></trkpt><trkpt lat="14.830816839434005" lon="120.90804332345814"><ele>7.0</ele><time>2026-04-18T07:58:26.013Z</time></trkpt><trkpt lat="14.830857354141964" lon="120.9079016608647"><ele>6.999999999999999</ele><time>2026-04-18T07:58:27.013Z</time></trkpt><trkpt lat="14.8309056179535" lon="120.90783704854611"><ele>6.999999999999999</ele><time>2026-04-18T07:58:38.013Z</time></trkpt><trkpt lat="14.830862731372624" lon="120.90775471372164"><ele>7.0</ele><time>2026-04-18T07:58:49.012Z</time></trkpt><trkpt lat="14.830933327741862" lon="120.90782772004842"><ele>7.0</ele><time>2026-04-18T07:59:25Z</time></trkpt><trkpt lat="14.831033696470902" lon="120.90801830705429"><ele>7.0</ele><time>2026-04-18T08:02:50Z</time></trkpt><trkpt lat="14.830946412362206" lon="120.90808469583472"><ele>7.0</ele><time>2026-04-18T08:02:52Z</time></trkpt><trkpt lat="14.830967989875106" lon="120.90789212618785"><ele>7.0</ele><time>2026-04-18T08:14:08Z</time></trkpt><trkpt lat="14.83099387853132" lon="120.90782091300537"><ele>7.0</ele><time>2026-04-18T08:17:09Z</time></trkpt><trkpt lat="14.831056136465989" lon="120.90775508856814"><ele>7.000000000000001</ele><time>2026-04-18T08:17:16Z</time></trkpt><trkpt lat="14.831098901003207" lon="120.90769908306767"><ele>7.0</ele><time>2026-04-18T08:17:22Z</time></trkpt><trkpt lat="14.83107943950286" lon="120.90762394378713"><ele>7.0</ele><time>2026-04-18T08:18:17Z</time></trkpt><trkpt lat="14.831045510597258" lon="120.9075507386238"><ele>7.0</ele><time>2026-04-18T08:18:20Z</time></trkpt><trkpt lat="14.831038294686325" lon="120.90747030204273"><ele>7.000000000000001</ele><time>2026-04-18T08:18:22Z</time></trkpt><trkpt lat="14.831050494564613" lon="120.90737394239505"><ele>7.0</ele><time>2026-04-18T08:18:24Z</time></trkpt><trkpt lat="14.83107671405812" lon="120.90727067035078"><ele>7.000000000000001</ele><time>2026-04-18T08:18:26Z</time></trkpt><trkpt lat="14.831099701601557" lon="120.9072048821662"><ele>7.0</ele><time>2026-04-18T08:18:27Z</time></trkpt><trkpt lat="14.831128527449291" lon="120.90713854161281"><ele>7.0</ele><time>2026-04-18T08:18:28Z</time></trkpt><trkpt lat="14.831163752175929" lon="120.90707188860846"><ele>7.0</ele><time>2026-04-18T08:18:29Z</time></trkpt><trkpt lat="14.831202579616596" lon="120.90700482195062"><ele>7.000000000000001</ele><time>2026-04-18T08:18:30Z</time></trkpt><trkpt lat="14.831241013086023" lon="120.90693054544349"><ele>7.0</ele><time>2026-04-18T08:18:31Z</time></trkpt><trkpt lat="14.83128248674586" lon="120.90685128414147"><ele>7.0</ele><time>2026-04-18T08:18:32Z</time></trkpt><trkpt lat="14.831326732864884" lon="120.90676684225996"><ele>6.999999999999999</ele><time>2026-04-18T08:18:33Z</time></trkpt><trkpt lat="14.831374500664092" lon="120.90667654145022"><ele>6.999999999999999</ele><time>2026-04-18T08:18:34Z</time></trkpt><trkpt lat="14.831423471089648" lon="120.9065824392604"><ele>7.0</ele><time>2026-04-18T08:18:35Z</time></trkpt><trkpt lat="14.831472411139169" lon="120.90648258888771"><ele>7.0</ele><time>2026-04-18T08:18:36Z</time></trkpt><trkpt lat="14.83152303323834" lon="120.90638118245207"><ele>7.0</ele><time>2026-04-18T08:18:37Z</time></trkpt><trkpt lat="14.831575782260888" lon="120.90627729028695"><ele>7.0</ele><time>2026-04-18T08:18:38Z</time></trkpt><trkpt lat="14.83163087979163" lon="120.9061659024264"><ele>7.0</ele><time>2026-04-18T08:18:39Z</time></trkpt><trkpt lat="14.8316883820624" lon="120.90605029982544"><ele>7.0</ele><time>2026-04-18T08:18:40Z</time></trkpt><trkpt lat="14.831747456780098" lon="120.90593151550334"><ele>7.75</ele><time>2026-04-18T08:18:41Z</time></trkpt><trkpt lat="14.831809658100312" lon="120.90580886370554"><ele>8.5</ele><time>2026-04-18T08:18:42Z</time></trkpt><trkpt lat="14.831873881335532" lon="120.90568310847657"><ele>9.25</ele><time>2026-04-18T08:18:43Z</time></trkpt><trkpt lat="14.831941773201688" lon="120.90555190419254"><ele>10.0</ele><time>2026-04-18T08:18:44Z</time></trkpt><trkpt lat="14.832013115880082" lon="120.9054157448671"><ele>10.0</ele><time>2026-04-18T08:18:45Z</time></trkpt><trkpt lat="14.832086074572523" lon="120.90527202354427"><ele>10.0</ele><time>2026-04-18T08:18:46Z</time></trkpt><trkpt lat="14.83216139154677" lon="120.90512333584232"><ele>10.0</ele><time>2026-04-18T08:18:47Z</time></trkpt><trkpt lat="14.832238277204853" lon="120.90496810599193"><ele>10.0</ele><time>2026-04-18T08:18:48Z</time></trkpt><trkpt lat="14.832318940858464" lon="120.9048075557852"><ele>10.0</ele><time>2026-04-18T08:18:49Z</time></trkpt><trkpt lat="14.832401198514937" lon="120.90464534766217"><ele>10.0</ele><time>2026-04-18T08:18:50Z</time></trkpt><trkpt lat="14.832484708222657" lon="120.90448231639152"><ele>10.0</ele><time>2026-04-18T08:18:51Z</time></trkpt><trkpt lat="14.83257152168238" lon="120.90431716218964"><ele>10.0</ele><time>2026-04-18T08:18:52Z</time></trkpt><trkpt lat="14.832659657767392" lon="120.90415230295368"><ele>10.0</ele><time>2026-04-18T08:18:53Z</time></trkpt><trkpt lat="14.832747702430218" lon="120.90398537747207"><ele>9.333333333333334</ele><time>2026-04-18T08:18:54Z</time></trkpt><trkpt lat="14.832835891480023" lon="120.90381585419428"><ele>8.666666666666666</ele><time>2026-04-18T08:18:55Z</time></trkpt><trkpt lat="14.832923656772223" lon="120.90364516281814"><ele>8.0</ele><time>2026-04-18T08:18:56Z</time></trkpt><trkpt lat="14.833014437439115" lon="120.90347354967247"><ele>8.0</ele><time>2026-04-18T08:18:57Z</time></trkpt><trkpt lat="14.833105612121377" lon="120.90330122332276"><ele>8.0</ele><time>2026-04-18T08:18:58Z</time></trkpt><trkpt lat="14.833198008189507" lon="120.90312888918443"><ele>8.0</ele><time>2026-04-18T08:18:59Z</time></trkpt><trkpt lat="14.833289989655695" lon="120.90295340397081"><ele>8.0</ele><time>2026-04-18T08:19:00Z</time></trkpt><trkpt lat="14.833382618645437" lon="120.90277947986092"><ele>8.0</ele><time>2026-04-18T08:19:01Z</time></trkpt><trkpt lat="14.833476239103726" lon="120.9026038038931"><ele>8.0</ele><time>2026-04-18T08:19:02Z</time></trkpt><trkpt lat="14.833570201966632" lon="120.9024297691015"><ele>9.0</ele><time>2026-04-18T08:19:03Z</time></trkpt><trkpt lat="14.833664115697792" lon="120.90224994167967"><ele>10.0</ele><time>2026-04-18T08:19:04Z</time></trkpt><trkpt lat="14.833755120404039" lon="120.90207115126562"><ele>11.0</ele><time>2026-04-18T08:19:05Z</time></trkpt><trkpt lat="14.833845196010676" lon="120.90189161820341"><ele>10.666666666666666</ele><time>2026-04-18T08:19:06Z</time></trkpt><trkpt lat="14.833935606574018" lon="120.9017119102754"><ele>10.333333333333334</ele><time>2026-04-18T08:19:07Z</time></trkpt><trkpt lat="14.83402842951097" lon="120.9015322381845"><ele>10.0</ele><time>2026-04-18T08:19:08Z</time></trkpt><trkpt lat="14.83412637929808" lon="120.90135005356434"><ele>10.0</ele><time>2026-04-18T08:19:09Z</time></trkpt><trkpt lat="14.834225177443464" lon="120.90116608498197"><ele>10.0</ele><time>2026-04-18T08:19:10Z</time></trkpt><trkpt lat="14.834324257702352" lon="120.90098203563858"><ele>10.0</ele><time>2026-04-18T08:19:11Z</time></trkpt><trkpt lat="14.834423445612217" lon="120.90079861493672"><ele>8.666666666666668</ele><time>2026-04-18T08:19:12Z</time></trkpt><trkpt lat="14.83452311864759" lon="120.90061400266795"><ele>7.333333333333334</ele><time>2026-04-18T08:19:13Z</time></trkpt><trkpt lat="14.834622211961575" lon="120.90043050756015"><ele>6.0</ele><time>2026-04-18T08:19:14Z</time></trkpt><trkpt lat="14.834723110529273" lon="120.900245004765"><ele>7.666666666666666</ele><time>2026-04-18T08:19:15Z</time></trkpt><trkpt lat="14.834823418023994" lon="120.90005946350446"><ele>9.333333333333332</ele><time>2026-04-18T08:19:16Z</time></trkpt><trkpt lat="14.8349236628856" lon="120.89987174758588"><ele>11.0</ele><time>2026-04-18T08:19:17Z</time></trkpt><trkpt lat="14.835023929329473" lon="120.89968315079386"><ele>11.0</ele><time>2026-04-18T08:19:18Z</time></trkpt><trkpt lat="14.835127119142872" lon="120.89949225159904"><ele>11.0</ele><time>2026-04-18T08:19:19Z</time></trkpt><trkpt lat="14.835230220286693" lon="120.89930064527151"><ele>11.0</ele><time>2026-04-18T08:19:20Z</time></trkpt><trkpt lat="14.83533729302848" lon="120.8991080343134"><ele>9.333333333333332</ele><time>2026-04-18T08:19:21Z</time></trkpt><trkpt lat="14.835445105377108" lon="120.89891511955878"><ele>7.666666666666666</ele><time>2026-04-18T08:19:22Z</time></trkpt><trkpt lat="14.83555355545529" lon="120.89872096871257"><ele>6.0</ele><time>2026-04-18T08:19:23Z</time></trkpt><trkpt lat="14.835661999912235" lon="120.8985274589148"><ele>6.333333333333334</ele><time>2026-04-18T08:19:24Z</time></trkpt><trkpt lat="14.835771416321986" lon="120.89833257590355"><ele>6.666666666666667</ele><time>2026-04-18T08:19:25Z</time></trkpt><trkpt lat="14.83588021151458" lon="120.89813802345077"><ele>7.0</ele><time>2026-04-18T08:19:26Z</time></trkpt><trkpt lat="14.835987603382723" lon="120.89794558062084"><ele>7.0</ele><time>2026-04-18T08:19:27Z</time></trkpt><trkpt lat="14.836092509971854" lon="120.89775763495804"><ele>7.0</ele><time>2026-04-18T08:19:28Z</time></trkpt><trkpt lat="14.836196724419052" lon="120.89757235466037"><ele>7.0</ele><time>2026-04-18T08:19:29Z</time></trkpt><trkpt lat="14.83630343291405" lon="120.89738807789253"><ele>9.0</ele><time>2026-04-18T08:19:30Z</time></trkpt><trkpt lat="14.836409040273995" lon="120.89720619532385"><ele>11.0</ele><time>2026-04-18T08:19:31Z</time></trkpt><trkpt lat="14.836514792236748" lon="120.89702442166356"><ele>13.0</ele><time>2026-04-18T08:19:32Z</time></trkpt><trkpt lat="14.836620719365984" lon="120.89684488387864"><ele>12.333333333333332</ele><time>2026-04-18T08:19:33Z</time></trkpt><trkpt lat="14.83672842442752" lon="120.89666269895287"><ele>11.666666666666666</ele><time>2026-04-18T08:19:34Z</time></trkpt><trkpt lat="14.836835964612288" lon="120.89647896485803"><ele>11.0</ele><time>2026-04-18T08:19:35Z</time></trkpt><trkpt lat="14.836945567883216" lon="120.8962943704313"><ele>10.333333333333332</ele><time>2026-04-18T08:19:36Z</time></trkpt><trkpt lat="14.837054621599478" lon="120.89610960415007"><ele>9.666666666666666</ele><time>2026-04-18T08:19:37Z</time></trkpt><trkpt lat="14.83716464514242" lon="120.89592166144155"><ele>9.0</ele><time>2026-04-18T08:19:38Z</time></trkpt><trkpt lat="14.83727526794928" lon="120.895733815522"><ele>9.0</ele><time>2026-04-18T08:19:39Z</time></trkpt><trkpt lat="14.837385935508996" lon="120.89554314946533"><ele>9.0</ele><time>2026-04-18T08:19:40Z</time></trkpt><trkpt lat="14.837498085370736" lon="120.8953539780841"><ele>9.0</ele><time>2026-04-18T08:19:41Z</time></trkpt><trkpt lat="14.837610956482992" lon="120.89516331329654"><ele>9.666666666666666</ele><time>2026-04-18T08:19:42Z</time></trkpt><trkpt lat="14.837725523358063" lon="120.89497182873345"><ele>10.333333333333332</ele><time>2026-04-18T08:19:43Z</time></trkpt><trkpt lat="14.837841562272764" lon="120.89477996186737"><ele>11.0</ele><time>2026-04-18T08:19:44Z</time></trkpt><trkpt lat="14.83795947106679" lon="120.89458794279675"><ele>11.0</ele><time>2026-04-18T08:19:45Z</time></trkpt><trkpt lat="14.838079096675187" lon="120.89439657365953"><ele>11.0</ele><time>2026-04-18T08:19:46Z</time></trkpt><trkpt lat="14.838200291027693" lon="120.89420170010104"><ele>11.0</ele><time>2026-04-18T08:19:47Z</time></trkpt><trkpt lat="14.838322328553861" lon="120.89400723717911"><ele>12.0</ele><time>2026-04-18T08:19:48Z</time></trkpt><trkpt lat="14.838445425193193" lon="120.8938109167478"><ele>13.0</ele><time>2026-04-18T08:19:49Z</time></trkpt><trkpt lat="14.838568869761088" lon="120.89361193518737"><ele>13.0</ele><time>2026-04-18T08:19:50Z</time></trkpt><trkpt lat="14.838694640976628" lon="120.89341341791791"><ele>13.0</ele><time>2026-04-18T08:19:51Z</time></trkpt><trkpt lat="14.838820664790624" lon="120.8932148263639"><ele>13.0</ele><time>2026-04-18T08:19:52Z</time></trkpt><trkpt lat="14.838946152161487" lon="120.89301664613389"><ele>13.0</ele><time>2026-04-18T08:19:53Z</time></trkpt><trkpt lat="14.83907174763136" lon="120.89281797133899"><ele>13.0</ele><time>2026-04-18T08:19:54Z</time></trkpt><trkpt lat="14.839197986325294" lon="120.89261804429155"><ele>13.0</ele><time>2026-04-18T08:19:55Z</time></trkpt><trkpt lat="14.839326512070219" lon="120.89241836475988"><ele>13.0</ele><time>2026-04-18T08:19:56Z</time></trkpt><trkpt lat="14.839456136402077" lon="120.89221636152907"><ele>13.0</ele><time>2026-04-18T08:19:57Z</time></trkpt><trkpt lat="14.83958819371927" lon="120.89201098269885"><ele>13.0</ele><time>2026-04-18T08:19:58Z</time></trkpt><trkpt lat="14.839720343408143" lon="120.89180584353984"><ele>13.0</ele><time>2026-04-18T08:19:59Z</time></trkpt><trkpt lat="14.839851809757532" lon="120.89159966232008"><ele>12.0</ele><time>2026-04-18T08:20:00Z</time></trkpt><trkpt lat="14.839983847314654" lon="120.89139465335018"><ele>11.0</ele><time>2026-04-18T08:20:01Z</time></trkpt><trkpt lat="14.840117432461348" lon="120.89118979005163"><ele>10.5</ele><time>2026-04-18T08:20:02Z</time></trkpt><trkpt lat="14.84025093066809" lon="120.89098235274935"><ele>10.0</ele><time>2026-04-18T08:20:03Z</time></trkpt><trkpt lat="14.840384850056742" lon="120.89077563392458"><ele>10.0</ele><time>2026-04-18T08:20:04Z</time></trkpt><trkpt lat="14.840520138058281" lon="120.89057002725693"><ele>10.0</ele><time>2026-04-18T08:20:05Z</time></trkpt><trkpt lat="14.840655397156834" lon="120.89036438364825"><ele>10.0</ele><time>2026-04-18T08:20:06Z</time></trkpt><trkpt lat="14.840789896692943" lon="120.89016130457006"><ele>10.0</ele><time>2026-04-18T08:20:07Z</time></trkpt><trkpt lat="14.840923026075924" lon="120.88996025857863"><ele>10.5</ele><time>2026-04-18T08:20:08Z</time></trkpt><trkpt lat="14.841057283935864" lon="120.88976180711067"><ele>11.0</ele><time>2026-04-18T08:20:09Z</time></trkpt><trkpt lat="14.841191388591655" lon="120.88956359953272"><ele>11.0</ele><time>2026-04-18T08:20:10Z</time></trkpt><trkpt lat="14.841327331794307" lon="120.88936404888143"><ele>11.0</ele><time>2026-04-18T08:20:11Z</time></trkpt><trkpt lat="14.841464247703207" lon="120.88916703031995"><ele>11.5</ele><time>2026-04-18T08:20:12Z</time></trkpt><trkpt lat="14.841601780720593" lon="120.88896791936915"><ele>12.0</ele><time>2026-04-18T08:20:13Z</time></trkpt><trkpt lat="14.841739987731517" lon="120.88876941400642"><ele>12.0</ele><time>2026-04-18T08:20:14Z</time></trkpt><trkpt lat="14.841879642362914" lon="120.88857360725297"><ele>12.0</ele><time>2026-04-18T08:20:15Z</time></trkpt><trkpt lat="14.84202194576511" lon="120.88837670994525"><ele>11.0</ele><time>2026-04-18T08:20:16Z</time></trkpt><trkpt lat="14.842163736108724" lon="120.88818053288738"><ele>10.0</ele><time>2026-04-18T08:20:17Z</time></trkpt><trkpt lat="14.842306452007584" lon="120.88798289549437"><ele>10.0</ele><time>2026-04-18T08:20:18Z</time></trkpt><trkpt lat="14.842449237965626" lon="120.88778481804707"><ele>10.0</ele><time>2026-04-18T08:20:19Z</time></trkpt><trkpt lat="14.842593517799049" lon="120.88758408298533"><ele>9.5</ele><time>2026-04-18T08:20:20Z</time></trkpt><trkpt lat="14.842738176832405" lon="120.88738407939637"><ele>9.0</ele><time>2026-04-18T08:20:21Z</time></trkpt><trkpt lat="14.842882790332979" lon="120.88718012409902"><ele>9.0</ele><time>2026-04-18T08:20:22Z</time></trkpt><trkpt lat="14.843030699518447" lon="120.88697770894342"><ele>9.0</ele><time>2026-04-18T08:20:23Z</time></trkpt><trkpt lat="14.843180281491533" lon="120.88677468840058"><ele>8.0</ele><time>2026-04-18T08:20:24Z</time></trkpt><trkpt lat="14.843329509446708" lon="120.88657075401541"><ele>7.0</ele><time>2026-04-18T08:20:25Z</time></trkpt><trkpt lat="14.843478779327043" lon="120.88636796310998"><ele>6.5</ele><time>2026-04-18T08:20:26Z</time></trkpt><trkpt lat="14.843628446288847" lon="120.88616448347608"><ele>6.0</ele><time>2026-04-18T08:20:27Z</time></trkpt><trkpt lat="14.843778628210481" lon="120.88596477397809"><ele>6.5</ele><time>2026-04-18T08:20:28Z</time></trkpt><trkpt lat="14.843927827476834" lon="120.88576658948354"><ele>7.0</ele><time>2026-04-18T08:20:29Z</time></trkpt><trkpt lat="14.844075994607927" lon="120.88556933853188"><ele>7.0</ele><time>2026-04-18T08:20:30Z</time></trkpt><trkpt lat="14.84422448192822" lon="120.88537309509753"><ele>7.0</ele><time>2026-04-18T08:20:31Z</time></trkpt><trkpt lat="14.84437196410292" lon="120.88517978766473"><ele>7.0</ele><time>2026-04-18T08:20:32Z</time></trkpt><trkpt lat="14.844520545136993" lon="120.88498534268304"><ele>7.0</ele><time>2026-04-18T08:20:33Z</time></trkpt><trkpt lat="14.844669099391236" lon="120.88479219821606"><ele>7.0</ele><time>2026-04-18T08:20:34Z</time></trkpt><trkpt lat="14.844817899055535" lon="120.88459697061553"><ele>7.0</ele><time>2026-04-18T08:20:35Z</time></trkpt><trkpt lat="14.844967269959898" lon="120.88440155707475"><ele>7.5</ele><time>2026-04-18T08:20:36Z</time></trkpt><trkpt lat="14.845118564448102" lon="120.88420664282751"><ele>8.0</ele><time>2026-04-18T08:20:37Z</time></trkpt><trkpt lat="14.845270718391111" lon="120.88401443498752"><ele>7.0</ele><time>2026-04-18T08:20:38Z</time></trkpt><trkpt lat="14.84542472040648" lon="120.88382074405102"><ele>6.0</ele><time>2026-04-18T08:20:39Z</time></trkpt><trkpt lat="14.84557776287668" lon="120.88362677576126"><ele>6.0</ele><time>2026-04-18T08:20:40Z</time></trkpt><trkpt lat="14.845732253955793" lon="120.88343209711185"><ele>6.0</ele><time>2026-04-18T08:20:41Z</time></trkpt><trkpt lat="14.845887901600456" lon="120.88323874634773"><ele>7.0</ele><time>2026-04-18T08:20:42Z</time></trkpt><trkpt lat="14.846044595835822" lon="120.88304721431363"><ele>8.0</ele><time>2026-04-18T08:20:43Z</time></trkpt><trkpt lat="14.846200517986018" lon="120.88285340889895"><ele>8.0</ele><time>2026-04-18T08:20:44Z</time></trkpt><trkpt lat="14.846356445971708" lon="120.88266130732993"><ele>8.0</ele><time>2026-04-18T08:20:45Z</time></trkpt><trkpt lat="14.846514102890122" lon="120.88246807337816"><ele>8.5</ele><time>2026-04-18T08:20:46Z</time></trkpt><trkpt lat="14.846671575378894" lon="120.88227374930509"><ele>9.0</ele><time>2026-04-18T08:20:47Z</time></trkpt><trkpt lat="14.846831343971951" lon="120.88208004951602"><ele>9.5</ele><time>2026-04-18T08:20:48Z</time></trkpt><trkpt lat="14.846991799981087" lon="120.88188675466422"><ele>10.0</ele><time>2026-04-18T08:20:49Z</time></trkpt><trkpt lat="14.847154508177987" lon="120.88169110377748"><ele>10.0</ele><time>2026-04-18T08:20:50Z</time></trkpt><trkpt lat="14.847315613576807" lon="120.88149676104376"><ele>10.0</ele><time>2026-04-18T08:20:51Z</time></trkpt><trkpt lat="14.84747813325618" lon="120.88129893843745"><ele>8.5</ele><time>2026-04-18T08:20:52Z</time></trkpt><trkpt lat="14.847640873107753" lon="120.88110074839788"><ele>7.0</ele><time>2026-04-18T08:20:53Z</time></trkpt><trkpt lat="14.847802845169776" lon="120.88090220385807"><ele>6.5</ele><time>2026-04-18T08:20:54Z</time></trkpt><trkpt lat="14.847965649300445" lon="120.88070389515495"><ele>6.0</ele><time>2026-04-18T08:20:55Z</time></trkpt><trkpt lat="14.848126190442416" lon="120.88050218048258"><ele>6.0</ele><time>2026-04-18T08:20:56Z</time></trkpt><trkpt lat="14.8482870259883" lon="120.88030250415393"><ele>6.0</ele><time>2026-04-18T08:20:57Z</time></trkpt><trkpt lat="14.84844775428335" lon="120.88010481986183"><ele>6.5</ele><time>2026-04-18T08:20:58Z</time></trkpt><trkpt lat="14.848608577388555" lon="120.87990655088899"><ele>7.0</ele><time>2026-04-18T08:20:59Z</time></trkpt><trkpt lat="14.848767783082742" lon="120.87970683722419"><ele>7.0</ele><time>2026-04-18T08:21:00Z</time></trkpt><trkpt lat="14.848926579656045" lon="120.87950740380676"><ele>7.0</ele><time>2026-04-18T08:21:01Z</time></trkpt><trkpt lat="14.849084916594359" lon="120.87930816367684"><ele>7.5</ele><time>2026-04-18T08:21:02Z</time></trkpt><trkpt lat="14.849242763957108" lon="120.8791104679357"><ele>8.0</ele><time>2026-04-18T08:21:03Z</time></trkpt><trkpt lat="14.849400263050324" lon="120.87891374653856"><ele>8.0</ele><time>2026-04-18T08:21:04Z</time></trkpt><trkpt lat="14.849555493218094" lon="120.87871649627948"><ele>8.0</ele><time>2026-04-18T08:21:05Z</time></trkpt><trkpt lat="14.849708444324868" lon="120.87851821372915"><ele>8.0</ele><time>2026-04-18T08:21:06Z</time></trkpt><trkpt lat="14.849862117776357" lon="120.87831948627831"><ele>8.0</ele><time>2026-04-18T08:21:07Z</time></trkpt><trkpt lat="14.850015243517303" lon="120.87812105634242"><ele>7.5</ele><time>2026-04-18T08:21:08Z</time></trkpt><trkpt lat="14.85016672244442" lon="120.87792206741426"><ele>7.0</ele><time>2026-04-18T08:21:09Z</time></trkpt><trkpt lat="14.850316271451488" lon="120.87772424162925"><ele>6.5</ele><time>2026-04-18T08:21:10Z</time></trkpt><trkpt lat="14.85046420062956" lon="120.87752824620235"><ele>6.0</ele><time>2026-04-18T08:21:11Z</time></trkpt><trkpt lat="14.850612126484076" lon="120.87733010564853"><ele>6.0</ele><time>2026-04-18T08:21:12Z</time></trkpt><trkpt lat="14.85076152415847" lon="120.877132545693"><ele>6.0</ele><time>2026-04-18T08:21:13Z</time></trkpt><trkpt lat="14.850910687583468" lon="120.87693300963113"><ele>6.0</ele><time>2026-04-18T08:21:14Z</time></trkpt><trkpt lat="14.851061667728965" lon="120.87673300642719"><ele>6.0</ele><time>2026-04-18T08:21:15Z</time></trkpt><trkpt lat="14.851210254018463" lon="120.87653577714472"><ele>6.0</ele><time>2026-04-18T08:21:16Z</time></trkpt><trkpt lat="14.851358027171042" lon="120.87633622291438"><ele>6.0</ele><time>2026-04-18T08:21:17Z</time></trkpt><trkpt lat="14.851504082669189" lon="120.87613804579178"><ele>6.0</ele><time>2026-04-18T08:21:18Z</time></trkpt><trkpt lat="14.851648497843046" lon="120.87593851350493"><ele>6.0</ele><time>2026-04-18T08:21:19Z</time></trkpt><trkpt lat="14.851795235056457" lon="120.87574247090816"><ele>6.5</ele><time>2026-04-18T08:21:20Z</time></trkpt><trkpt lat="14.851941133038737" lon="120.87554241404409"><ele>7.0</ele><time>2026-04-18T08:21:21Z</time></trkpt><trkpt lat="14.85208684216307" lon="120.87534354295187"><ele>7.0</ele><time>2026-04-18T08:21:22Z</time></trkpt><trkpt lat="14.852230607727927" lon="120.87514490604616"><ele>7.0</ele><time>2026-04-18T08:21:23Z</time></trkpt><trkpt lat="14.852375256782757" lon="120.87493908436151"><ele>8.0</ele><time>2026-04-18T08:21:24Z</time></trkpt><trkpt lat="14.852520323023391" lon="120.87473180994249"><ele>9.0</ele><time>2026-04-18T08:21:25Z</time></trkpt><trkpt lat="14.852668032585715" lon="120.87452363550335"><ele>9.0</ele><time>2026-04-18T08:21:26Z</time></trkpt><trkpt lat="14.8528167886885" lon="120.87431372213985"><ele>9.0</ele><time>2026-04-18T08:21:27Z</time></trkpt><trkpt lat="14.852966577957487" lon="120.87409971214588"><ele>9.0</ele><time>2026-04-18T08:21:28Z</time></trkpt><trkpt lat="14.853117516040037" lon="120.87388433931447"><ele>9.0</ele><time>2026-04-18T08:21:29Z</time></trkpt><trkpt lat="14.853267953441133" lon="120.87366740353751"><ele>9.0</ele><time>2026-04-18T08:21:30Z</time></trkpt><trkpt lat="14.853419691458274" lon="120.87344911239623"><ele>9.0</ele><time>2026-04-18T08:21:31Z</time></trkpt><trkpt lat="14.853568745129541" lon="120.8732287874941"><ele>9.0</ele><time>2026-04-18T08:21:32Z</time></trkpt><trkpt lat="14.853717060128703" lon="120.8730084336171"><ele>9.0</ele><time>2026-04-18T08:21:33Z</time></trkpt><trkpt lat="14.853861738696072" lon="120.87279034242498"><ele>9.5</ele><time>2026-04-18T08:21:34Z</time></trkpt><trkpt lat="14.854004919541739" lon="120.87257405651417"><ele>10.0</ele><time>2026-04-18T08:21:35Z</time></trkpt><trkpt lat="14.85414743052692" lon="120.87235724277964"><ele>9.0</ele><time>2026-04-18T08:21:36Z</time></trkpt><trkpt lat="14.854290610427318" lon="120.87214030122479"><ele>8.0</ele><time>2026-04-18T08:21:37Z</time></trkpt><trkpt lat="14.854430948259052" lon="120.87192203090876"><ele>9.0</ele><time>2026-04-18T08:21:38Z</time></trkpt><trkpt lat="14.854569544583264" lon="120.87170375404057"><ele>10.0</ele><time>2026-04-18T08:21:39Z</time></trkpt><trkpt lat="14.854706718797075" lon="120.8714820492822"><ele>10.0</ele><time>2026-04-18T08:21:40Z</time></trkpt><trkpt lat="14.854841019105168" lon="120.87126002756186"><ele>10.0</ele><time>2026-04-18T08:21:41Z</time></trkpt><trkpt lat="14.854975111722833" lon="120.87103816818139"><ele>9.0</ele><time>2026-04-18T08:21:42Z</time></trkpt><trkpt lat="14.855109919369957" lon="120.8708167855878"><ele>8.0</ele><time>2026-04-18T08:21:43Z</time></trkpt><trkpt lat="14.855244531329282" lon="120.8705950958954"><ele>7.5</ele><time>2026-04-18T08:21:44Z</time></trkpt><trkpt lat="14.855379740291495" lon="120.87037167505699"><ele>7.0</ele><time>2026-04-18T08:21:45Z</time></trkpt><trkpt lat="14.855512203049498" lon="120.870148618722"><ele>7.0</ele><time>2026-04-18T08:21:46Z</time></trkpt><trkpt lat="14.855645829403581" lon="120.86992477523775"><ele>7.0</ele><time>2026-04-18T08:21:47Z</time></trkpt><trkpt lat="14.855779130108273" lon="120.86969951169183"><ele>7.0</ele><time>2026-04-18T08:21:48Z</time></trkpt><trkpt lat="14.855914562361328" lon="120.8694745816531"><ele>7.0</ele><time>2026-04-18T08:21:49Z</time></trkpt><trkpt lat="14.856051178988558" lon="120.8692475607939"><ele>8.5</ele><time>2026-04-18T08:21:50Z</time></trkpt><trkpt lat="14.856188102041292" lon="120.86901880282164"><ele>10.0</ele><time>2026-04-18T08:21:51Z</time></trkpt><trkpt lat="14.856324950048316" lon="120.86878837716074"><ele>10.0</ele><time>2026-04-18T08:21:52Z</time></trkpt><trkpt lat="14.85646250686932" lon="120.86855732559908"><ele>10.0</ele><time>2026-04-18T08:21:53Z</time></trkpt><trkpt lat="14.856598939945794" lon="120.86832558720653"><ele>10.5</ele><time>2026-04-18T08:21:54Z</time></trkpt><trkpt lat="14.856736034457947" lon="120.86809599252737"><ele>11.0</ele><time>2026-04-18T08:21:55Z</time></trkpt><trkpt lat="14.856873225211928" lon="120.86786584814693"><ele>10.5</ele><time>2026-04-18T08:21:56Z</time></trkpt><trkpt lat="14.857012471346636" lon="120.86763564755391"><ele>10.0</ele><time>2026-04-18T08:21:57Z</time></trkpt><trkpt lat="14.857150434894205" lon="120.86740516579235"><ele>10.0</ele><time>2026-04-18T08:21:58Z</time></trkpt><trkpt lat="14.857288031023579" lon="120.86717479774215"><ele>10.0</ele><time>2026-04-18T08:21:59Z</time></trkpt><trkpt lat="14.857425659442612" lon="120.86694231034032"><ele>10.5</ele><time>2026-04-18T08:22:00Z</time></trkpt><trkpt lat="14.8575639633696" lon="120.86671019877444"><ele>11.0</ele><time>2026-04-18T08:22:01Z</time></trkpt><trkpt lat="14.857703249005434" lon="120.86647636791578"><ele>10.0</ele><time>2026-04-18T08:22:02Z</time></trkpt><trkpt lat="14.857842577170581" lon="120.8662420058016"><ele>9.0</ele><time>2026-04-18T08:22:03Z</time></trkpt><trkpt lat="14.857980867797558" lon="120.86600997500722"><ele>9.5</ele><time>2026-04-18T08:22:04Z</time></trkpt><trkpt lat="14.858119869214542" lon="120.86577637553651"><ele>10.0</ele><time>2026-04-18T08:22:05Z</time></trkpt><trkpt lat="14.858259511131893" lon="120.86554475776323"><ele>10.0</ele><time>2026-04-18T08:22:06Z</time></trkpt><trkpt lat="14.858398462210527" lon="120.86531384500857"><ele>10.0</ele><time>2026-04-18T08:22:07Z</time></trkpt><trkpt lat="14.858537198455997" lon="120.8650820531717"><ele>9.0</ele><time>2026-04-18T08:22:08Z</time></trkpt><trkpt lat="14.85867599231523" lon="120.86485032024586"><ele>8.0</ele><time>2026-04-18T08:22:09Z</time></trkpt><trkpt lat="14.858814109511796" lon="120.86461913830854"><ele>8.0</ele><time>2026-04-18T08:22:10Z</time></trkpt><trkpt lat="14.85895191376353" lon="120.86439071835919"><ele>8.0</ele><time>2026-04-18T08:22:11Z</time></trkpt><trkpt lat="14.859088350298235" lon="120.86416358054228"><ele>8.5</ele><time>2026-04-18T08:22:12Z</time></trkpt><trkpt lat="14.859224591984477" lon="120.8639358142051"><ele>9.0</ele><time>2026-04-18T08:22:13Z</time></trkpt><trkpt lat="14.859359983404955" lon="120.86370972148643"><ele>9.0</ele><time>2026-04-18T08:22:14Z</time></trkpt><trkpt lat="14.859495613020293" lon="120.86348490598853"><ele>9.0</ele><time>2026-04-18T08:22:15Z</time></trkpt><trkpt lat="14.859629365717712" lon="120.86326032931072"><ele>9.5</ele><time>2026-04-18T08:22:16Z</time></trkpt><trkpt lat="14.85976200851525" lon="120.86303753715352"><ele>10.0</ele><time>2026-04-18T08:22:17Z</time></trkpt><trkpt lat="14.859890902350092" lon="120.86281676508197"><ele>10.5</ele><time>2026-04-18T08:22:18Z</time></trkpt><trkpt lat="14.860018927836938" lon="120.86259599456385"><ele>11.0</ele><time>2026-04-18T08:22:19Z</time></trkpt><trkpt lat="14.860146614043758" lon="120.86237907263902"><ele>10.0</ele><time>2026-04-18T08:22:20Z</time></trkpt><trkpt lat="14.86027318877482" lon="120.86216531978063"><ele>9.0</ele><time>2026-04-18T08:22:21Z</time></trkpt><trkpt lat="14.860399207809936" lon="120.86195498970469"><ele>10.5</ele><time>2026-04-18T08:22:22Z</time></trkpt><trkpt lat="14.860523675517092" lon="120.86175012442565"><ele>12.0</ele><time>2026-04-18T08:22:23Z</time></trkpt><trkpt lat="14.860647892131396" lon="120.86154462945402"><ele>12.0</ele><time>2026-04-18T08:22:24Z</time></trkpt><trkpt lat="14.860772069400705" lon="120.8613378256014"><ele>12.0</ele><time>2026-04-18T08:22:25Z</time></trkpt><trkpt lat="14.860895301344229" lon="120.8611354436875"><ele>11.5</ele><time>2026-04-18T08:22:26Z</time></trkpt><trkpt lat="14.86101915852487" lon="120.86093103030899"><ele>11.0</ele><time>2026-04-18T08:22:27Z</time></trkpt><trkpt lat="14.86114153342696" lon="120.86072957331801"><ele>11.0</ele><time>2026-04-18T08:22:28Z</time></trkpt><trkpt lat="14.861263968697353" lon="120.86052674954443"><ele>11.0</ele><time>2026-04-18T08:22:29Z</time></trkpt><trkpt lat="14.861386869838276" lon="120.86032226090911"><ele>11.0</ele><time>2026-04-18T08:22:30Z</time></trkpt><trkpt lat="14.861511689731598" lon="120.86011900694302"><ele>11.0</ele><time>2026-04-18T08:22:31Z</time></trkpt><trkpt lat="14.861636735263366" lon="120.85991595070963"><ele>11.5</ele><time>2026-04-18T08:22:32Z</time></trkpt><trkpt lat="14.861759502007693" lon="120.85971335262845"><ele>12.0</ele><time>2026-04-18T08:22:33Z</time></trkpt><trkpt lat="14.86188557401335" lon="120.85951137355899"><ele>12.5</ele><time>2026-04-18T08:22:34Z</time></trkpt><trkpt lat="14.862015617376398" lon="120.85930986777906"><ele>13.0</ele><time>2026-04-18T08:22:35Z</time></trkpt><trkpt lat="14.862148354229204" lon="120.85910832799493"><ele>13.5</ele><time>2026-04-18T08:22:36Z</time></trkpt><trkpt lat="14.862281052145283" lon="120.85890526296426"><ele>14.0</ele><time>2026-04-18T08:22:37Z</time></trkpt><trkpt lat="14.862413982671178" lon="120.85870191879975"><ele>14.0</ele><time>2026-04-18T08:22:38Z</time></trkpt><trkpt lat="14.862543117166163" lon="120.85849720108833"><ele>14.0</ele><time>2026-04-18T08:22:39Z</time></trkpt><trkpt lat="14.862676372506968" lon="120.85829507635165"><ele>13.5</ele><time>2026-04-18T08:22:40Z</time></trkpt><trkpt lat="14.862811374349043" lon="120.85808963942686"><ele>13.0</ele><time>2026-04-18T08:22:41Z</time></trkpt><trkpt lat="14.862948591041972" lon="120.85788254514804"><ele>13.0</ele><time>2026-04-18T08:22:42Z</time></trkpt><trkpt lat="14.863085632368968" lon="120.85767675349707"><ele>13.0</ele><time>2026-04-18T08:22:43Z</time></trkpt><trkpt lat="14.8632227260564" lon="120.8574698495152"><ele>13.0</ele><time>2026-04-18T08:22:44Z</time></trkpt><trkpt lat="14.863361214594313" lon="120.85726176611506"><ele>13.0</ele><time>2026-04-18T08:22:45Z</time></trkpt><trkpt lat="14.86350240764399" lon="120.85705367231195"><ele>13.0</ele><time>2026-04-18T08:22:46Z</time></trkpt><trkpt lat="14.863644497925643" lon="120.85684339100935"><ele>13.0</ele><time>2026-04-18T08:22:47Z</time></trkpt><trkpt lat="14.86378812914525" lon="120.85663514087027"><ele>13.0</ele><time>2026-04-18T08:22:48Z</time></trkpt><trkpt lat="14.863932637675033" lon="120.85642495317542"><ele>13.0</ele><time>2026-04-18T08:22:49Z</time></trkpt><trkpt lat="14.864078120785845" lon="120.85621289446517"><ele>13.0</ele><time>2026-04-18T08:22:50Z</time></trkpt><trkpt lat="14.86422386346151" lon="120.85600116484983"><ele>13.0</ele><time>2026-04-18T08:22:51Z</time></trkpt><trkpt lat="14.864370058436217" lon="120.85579004773123"><ele>13.0</ele><time>2026-04-18T08:22:52Z</time></trkpt><trkpt lat="14.864519380372547" lon="120.8555787336021"><ele>13.0</ele><time>2026-04-18T08:22:53Z</time></trkpt><trkpt lat="14.864670507101131" lon="120.85536684036823"><ele>13.0</ele><time>2026-04-18T08:22:54Z</time></trkpt><trkpt lat="14.864823626818987" lon="120.85515498668322"><ele>13.0</ele><time>2026-04-18T08:22:55Z</time></trkpt><trkpt lat="14.864978349605002" lon="120.85494538703223"><ele>12.5</ele><time>2026-04-18T08:22:56Z</time></trkpt><trkpt lat="14.865133395503765" lon="120.85472987452643"><ele>12.0</ele><time>2026-04-18T08:22:57Z</time></trkpt><trkpt lat="14.86529018893017" lon="120.85451711299594"><ele>12.0</ele><time>2026-04-18T08:22:58Z</time></trkpt><trkpt lat="14.865448105929135" lon="120.85430192306215"><ele>12.0</ele><time>2026-04-18T08:22:59Z</time></trkpt><trkpt lat="14.865609494646879" lon="120.85408490575274"><ele>13.0</ele><time>2026-04-18T08:23:00Z</time></trkpt><trkpt lat="14.865771389286873" lon="120.85386569719377"><ele>14.0</ele><time>2026-04-18T08:23:01Z</time></trkpt><trkpt lat="14.865935250796227" lon="120.8536462086562"><ele>11.5</ele><time>2026-04-18T08:23:02Z</time></trkpt><trkpt lat="14.866102814104469" lon="120.85342765679864"><ele>9.0</ele><time>2026-04-18T08:23:03Z</time></trkpt><trkpt lat="14.866271157010418" lon="120.85320723112"><ele>9.0</ele><time>2026-04-18T08:23:04Z</time></trkpt><trkpt lat="14.866440657513017" lon="120.85298647752994"><ele>9.0</ele><time>2026-04-18T08:23:05Z</time></trkpt><trkpt lat="14.866612503831632" lon="120.85276588754657"><ele>8.5</ele><time>2026-04-18T08:23:06Z</time></trkpt><trkpt lat="14.866784923721493" lon="120.85254425119427"><ele>8.0</ele><time>2026-04-18T08:23:07Z</time></trkpt><trkpt lat="14.866958785738644" lon="120.8523229447191"><ele>8.0</ele><time>2026-04-18T08:23:08Z</time></trkpt><trkpt lat="14.867132721321363" lon="120.8521027525794"><ele>8.0</ele><time>2026-04-18T08:23:09Z</time></trkpt><trkpt lat="14.867309084877576" lon="120.85187914919187"><ele>9.0</ele><time>2026-04-18T08:23:10Z</time></trkpt><trkpt lat="14.867485770176302" lon="120.8516574414857"><ele>10.0</ele><time>2026-04-18T08:23:11Z</time></trkpt><trkpt lat="14.867662491753245" lon="120.85143830008391"><ele>10.0</ele><time>2026-04-18T08:23:12Z</time></trkpt><trkpt lat="14.867842152894415" lon="120.85121818333067"><ele>10.0</ele><time>2026-04-18T08:23:13Z</time></trkpt><trkpt lat="14.868023941612021" lon="120.85100005717332"><ele>10.5</ele><time>2026-04-18T08:23:14Z</time></trkpt><trkpt lat="14.868207188667451" lon="120.85078079372721"><ele>11.0</ele><time>2026-04-18T08:23:15Z</time></trkpt><trkpt lat="14.868390964241613" lon="120.85056612868439"><ele>10.0</ele><time>2026-04-18T08:23:16Z</time></trkpt><trkpt lat="14.868577072032313" lon="120.85035035986152"><ele>9.0</ele><time>2026-04-18T08:23:17Z</time></trkpt><trkpt lat="14.868762885340464" lon="120.85013495145411"><ele>9.0</ele><time>2026-04-18T08:23:18Z</time></trkpt><trkpt lat="14.868950935332393" lon="120.84991764977869"><ele>9.0</ele><time>2026-04-18T08:23:19Z</time></trkpt><trkpt lat="14.86913675132926" lon="120.84970153510324"><ele>9.5</ele><time>2026-04-18T08:23:20Z</time></trkpt><trkpt lat="14.869323050374597" lon="120.84948631220234"><ele>10.0</ele><time>2026-04-18T08:23:21Z</time></trkpt><trkpt lat="14.869508580882009" lon="120.84927206470908"><ele>10.0</ele><time>2026-04-18T08:23:22Z</time></trkpt><trkpt lat="14.869694898981637" lon="120.84905966809083"><ele>10.0</ele><time>2026-04-18T08:23:23Z</time></trkpt><trkpt lat="14.869881910739455" lon="120.84884947761422"><ele>10.0</ele><time>2026-04-18T08:23:24Z</time></trkpt><trkpt lat="14.870068986872816" lon="120.84863701595971"><ele>10.0</ele><time>2026-04-18T08:23:25Z</time></trkpt><trkpt lat="14.870254790066722" lon="120.84843224537784"><ele>9.5</ele><time>2026-04-18T08:23:26Z</time></trkpt><trkpt lat="14.87043821803464" lon="120.84822636234787"><ele>9.0</ele><time>2026-04-18T08:23:27Z</time></trkpt><trkpt lat="14.870621453175126" lon="120.84802276212861"><ele>9.0</ele><time>2026-04-18T08:23:28Z</time></trkpt><trkpt lat="14.870803923242184" lon="120.84782327840037"><ele>9.0</ele><time>2026-04-18T08:23:29Z</time></trkpt><trkpt lat="14.870983119366702" lon="120.84762987441107"><ele>9.0</ele><time>2026-04-18T08:23:30Z</time></trkpt><trkpt lat="14.871162723442698" lon="120.84743349388367"><ele>9.0</ele><time>2026-04-18T08:23:31Z</time></trkpt><trkpt lat="14.871342210628002" lon="120.8472377935026"><ele>9.0</ele><time>2026-04-18T08:23:32Z</time></trkpt><trkpt lat="14.871517636962947" lon="120.84704188660223"><ele>9.0</ele><time>2026-04-18T08:23:33Z</time></trkpt><trkpt lat="14.871694825167932" lon="120.84684533101145"><ele>9.0</ele><time>2026-04-18T08:23:34Z</time></trkpt><trkpt lat="14.871873422767841" lon="120.84665218319176"><ele>9.0</ele><time>2026-04-18T08:23:35Z</time></trkpt><trkpt lat="14.872050635061559" lon="120.84645887570696"><ele>9.0</ele><time>2026-04-18T08:23:36Z</time></trkpt><trkpt lat="14.872230159010424" lon="120.84626575526293"><ele>9.0</ele><time>2026-04-18T08:23:37Z</time></trkpt><trkpt lat="14.872411054317368" lon="120.84607424902482"><ele>9.5</ele><time>2026-04-18T08:23:38Z</time></trkpt><trkpt lat="14.87259165105367" lon="120.84588513932454"><ele>10.0</ele><time>2026-04-18T08:23:39Z</time></trkpt><trkpt lat="14.872773723910646" lon="120.84569664314193"><ele>10.0</ele><time>2026-04-18T08:23:40Z</time></trkpt><trkpt lat="14.872958037739528" lon="120.84550832054077"><ele>10.0</ele><time>2026-04-18T08:23:41Z</time></trkpt><trkpt lat="14.87314177820292" lon="120.8453224925369"><ele>10.0</ele><time>2026-04-18T08:23:42Z</time></trkpt><trkpt lat="14.873326853799252" lon="120.84513450888655"><ele>10.0</ele><time>2026-04-18T08:23:43Z</time></trkpt><trkpt lat="14.873510903664618" lon="120.8449489391774"><ele>10.5</ele><time>2026-04-18T08:23:44Z</time></trkpt><trkpt lat="14.873696252853751" lon="120.8447634818101"><ele>11.0</ele><time>2026-04-18T08:23:45Z</time></trkpt><trkpt lat="14.873881482054946" lon="120.84457794823543"><ele>11.0</ele><time>2026-04-18T08:23:46Z</time></trkpt><trkpt lat="14.874068750301067" lon="120.84439396550924"><ele>11.0</ele><time>2026-04-18T08:23:47Z</time></trkpt><trkpt lat="14.87425925198069" lon="120.84420983592288"><ele>9.5</ele><time>2026-04-18T08:23:48Z</time></trkpt><trkpt lat="14.874452655183475" lon="120.8440266163831"><ele>8.0</ele><time>2026-04-18T08:23:49Z</time></trkpt><trkpt lat="14.87464765609454" lon="120.84384358500628"><ele>8.0</ele><time>2026-04-18T08:23:50Z</time></trkpt><trkpt lat="14.874843250055555" lon="120.84365914244451"><ele>8.0</ele><time>2026-04-18T08:23:51Z</time></trkpt><trkpt lat="14.87504148541061" lon="120.84347470525755"><ele>9.0</ele><time>2026-04-18T08:23:52Z</time></trkpt><trkpt lat="14.875239809042263" lon="120.84329170435151"><ele>10.0</ele><time>2026-04-18T08:23:53Z</time></trkpt><trkpt lat="14.875438162056627" lon="120.8431093305525"><ele>10.0</ele><time>2026-04-18T08:23:54Z</time></trkpt><trkpt lat="14.875637029167311" lon="120.8429270257452"><ele>10.0</ele><time>2026-04-18T08:23:55Z</time></trkpt><trkpt lat="14.875836297866513" lon="120.84274520836613"><ele>10.5</ele><time>2026-04-18T08:23:56Z</time></trkpt><trkpt lat="14.876035025739439" lon="120.84256380178964"><ele>11.0</ele><time>2026-04-18T08:23:57Z</time></trkpt><trkpt lat="14.876235079677054" lon="120.8423811147921"><ele>11.0</ele><time>2026-04-18T08:23:58Z</time></trkpt><trkpt lat="14.876433505417719" lon="120.84220030848796"><ele>11.0</ele><time>2026-04-18T08:23:59Z</time></trkpt><trkpt lat="14.876635148085505" lon="120.84201986630565"><ele>10.5</ele><time>2026-04-18T08:24:00Z</time></trkpt><trkpt lat="14.876837045626287" lon="120.84184011893474"><ele>10.0</ele><time>2026-04-18T08:24:01Z</time></trkpt><trkpt lat="14.87703865830182" lon="120.8416606765773"><ele>11.0</ele><time>2026-04-18T08:24:02Z</time></trkpt><trkpt lat="14.877240879893487" lon="120.84148213865251"><ele>12.0</ele><time>2026-04-18T08:24:03Z</time></trkpt><trkpt lat="14.877443642693827" lon="120.84130239984677"><ele>12.5</ele><time>2026-04-18T08:24:04Z</time></trkpt><trkpt lat="14.877646570674896" lon="120.84112482357024"><ele>13.0</ele><time>2026-04-18T08:24:05Z</time></trkpt><trkpt lat="14.877847575173316" lon="120.84094720400135"><ele>13.0</ele><time>2026-04-18T08:24:06Z</time></trkpt><trkpt lat="14.878049444061206" lon="120.84076831785026"><ele>13.0</ele><time>2026-04-18T08:24:07Z</time></trkpt><trkpt lat="14.878251424151815" lon="120.84059168548848"><ele>12.5</ele><time>2026-04-18T08:24:08Z</time></trkpt><trkpt lat="14.87845528466271" lon="120.84041383689265"><ele>12.0</ele><time>2026-04-18T08:24:09Z</time></trkpt><trkpt lat="14.878657530943194" lon="120.84023862419532"><ele>11.0</ele><time>2026-04-18T08:24:10Z</time></trkpt><trkpt lat="14.878859780622665" lon="120.84006417518293"><ele>10.0</ele><time>2026-04-18T08:24:11Z</time></trkpt><trkpt lat="14.879061090046578" lon="120.8398931709326"><ele>10.0</ele><time>2026-04-18T08:24:12Z</time></trkpt><trkpt lat="14.879262499986792" lon="120.83972373439038"><ele>10.0</ele><time>2026-04-18T08:24:13Z</time></trkpt><trkpt lat="14.879462388091136" lon="120.8395585811047"><ele>10.0</ele><time>2026-04-18T08:24:14Z</time></trkpt><trkpt lat="14.879662133653717" lon="120.83939399725644"><ele>10.0</ele><time>2026-04-18T08:24:15Z</time></trkpt><trkpt lat="14.879859910885997" lon="120.83923345148698"><ele>10.0</ele><time>2026-04-18T08:24:16Z</time></trkpt><trkpt lat="14.880058580083908" lon="120.83907404132297"><ele>10.0</ele><time>2026-04-18T08:24:17Z</time></trkpt><trkpt lat="14.88025713719814" lon="120.83891397279052"><ele>10.5</ele><time>2026-04-18T08:24:18Z</time></trkpt><trkpt lat="14.880456439979529" lon="120.83875674867528"><ele>11.0</ele><time>2026-04-18T08:24:19Z</time></trkpt><trkpt lat="14.880655346151233" lon="120.83859852236387"><ele>11.0</ele><time>2026-04-18T08:24:20Z</time></trkpt><trkpt lat="14.88085411273809" lon="120.83844055344153"><ele>11.0</ele><time>2026-04-18T08:24:21Z</time></trkpt><trkpt lat="14.881052328987517" lon="120.83828521243647"><ele>11.0</ele><time>2026-04-18T08:24:22Z</time></trkpt><trkpt lat="14.881249930516232" lon="120.83813174809252"><ele>11.0</ele><time>2026-04-18T08:24:23Z</time></trkpt><trkpt lat="14.881447002380472" lon="120.83798112762543"><ele>11.0</ele><time>2026-04-18T08:24:24Z</time></trkpt><trkpt lat="14.88163956137297" lon="120.83783484802628"><ele>11.0</ele><time>2026-04-18T08:24:25Z</time></trkpt><trkpt lat="14.881832001846224" lon="120.83768461372708"><ele>12.0</ele><time>2026-04-18T08:24:26Z</time></trkpt><trkpt lat="14.882023155381216" lon="120.83753798408812"><ele>13.0</ele><time>2026-04-18T08:24:27Z</time></trkpt><trkpt lat="14.882218263657832" lon="120.83739115453692"><ele>13.0</ele><time>2026-04-18T08:24:28Z</time></trkpt><trkpt lat="14.882412634999485" lon="120.83724506621336"><ele>13.0</ele><time>2026-04-18T08:24:29Z</time></trkpt><trkpt lat="14.882610912893076" lon="120.8371047123671"><ele>11.5</ele><time>2026-04-18T08:24:30Z</time></trkpt><trkpt lat="14.882806615251619" lon="120.83695944342624"><ele>10.0</ele><time>2026-04-18T08:24:31Z</time></trkpt><trkpt lat="14.88300500826545" lon="120.8368171448543"><ele>10.5</ele><time>2026-04-18T08:24:32Z</time></trkpt><trkpt lat="14.883204183373888" lon="120.83667215786127"><ele>11.0</ele><time>2026-04-18T08:24:33Z</time></trkpt><trkpt lat="14.883399330599966" lon="120.83653287650088"><ele>10.0</ele><time>2026-04-18T08:24:34Z</time></trkpt><trkpt lat="14.883596764843558" lon="120.83639104378234"><ele>9.0</ele><time>2026-04-18T08:24:35Z</time></trkpt><trkpt lat="14.883793345880202" lon="120.83625056787396"><ele>9.0</ele><time>2026-04-18T08:24:36Z</time></trkpt><trkpt lat="14.88399269131401" lon="120.83610997374295"><ele>9.0</ele><time>2026-04-18T08:24:37Z</time></trkpt><trkpt lat="14.884192258376496" lon="120.8359688476725"><ele>10.5</ele><time>2026-04-18T08:24:38Z</time></trkpt><trkpt lat="14.884392067374453" lon="120.8358271833749"><ele>12.0</ele><time>2026-04-18T08:24:39Z</time></trkpt><trkpt lat="14.884591260826598" lon="120.83568599304006"><ele>12.0</ele><time>2026-04-18T08:24:40Z</time></trkpt><trkpt lat="14.884792751635802" lon="120.8355447933971"><ele>12.0</ele><time>2026-04-18T08:24:41Z</time></trkpt><trkpt lat="14.884995944534571" lon="120.8354033388073"><ele>11.5</ele><time>2026-04-18T08:24:42Z</time></trkpt><trkpt lat="14.88519881554322" lon="120.83526381754584"><ele>11.0</ele><time>2026-04-18T08:24:43Z</time></trkpt><trkpt lat="14.885404509260518" lon="120.83512489629955"><ele>11.0</ele><time>2026-04-18T08:24:44Z</time></trkpt><trkpt lat="14.885612418688364" lon="120.83498477292108"><ele>11.0</ele><time>2026-04-18T08:24:45Z</time></trkpt><trkpt lat="14.88582162022006" lon="120.83484625346003"><ele>11.0</ele><time>2026-04-18T08:24:46Z</time></trkpt><trkpt lat="14.886033761457877" lon="120.83470767781284"><ele>11.0</ele><time>2026-04-18T08:24:47Z</time></trkpt><trkpt lat="14.886247093322929" lon="120.83456759097709"><ele>11.0</ele><time>2026-04-18T08:24:48Z</time></trkpt><trkpt lat="14.886461661048948" lon="120.83442721590998"><ele>11.0</ele><time>2026-04-18T08:24:49Z</time></trkpt><trkpt lat="14.886677184123439" lon="120.83428753848877"><ele>10.0</ele><time>2026-04-18T08:24:50Z</time></trkpt><trkpt lat="14.886894147641405" lon="120.83414729613509"><ele>9.0</ele><time>2026-04-18T08:24:51Z</time></trkpt><trkpt lat="14.887111665956377" lon="120.83400836045269"><ele>9.0</ele><time>2026-04-18T08:24:52Z</time></trkpt><trkpt lat="14.887331387279232" lon="120.83386736053177"><ele>9.0</ele><time>2026-04-18T08:24:53Z</time></trkpt><trkpt lat="14.887550829704026" lon="120.83372771573859"><ele>9.0</ele><time>2026-04-18T08:24:54Z</time></trkpt><trkpt lat="14.887771684614096" lon="120.83358843300617"><ele>9.0</ele><time>2026-04-18T08:24:55Z</time></trkpt><trkpt lat="14.887993236944288" lon="120.83344758384321"><ele>9.0</ele><time>2026-04-18T08:24:56Z</time></trkpt><trkpt lat="14.88821679765168" lon="120.83331154421724"><ele>9.0</ele><time>2026-04-18T08:24:57Z</time></trkpt><trkpt lat="14.888441114546023" lon="120.83316133345592"><ele>9.5</ele><time>2026-04-18T08:24:58Z</time></trkpt><trkpt lat="14.888659180926341" lon="120.83302460398504"><ele>10.0</ele><time>2026-04-18T08:24:59Z</time></trkpt><trkpt lat="14.88888228557933" lon="120.8328832160933"><ele>10.0</ele><time>2026-04-18T08:25:00Z</time></trkpt><trkpt lat="14.88910324911243" lon="120.83274202434805"><ele>10.0</ele><time>2026-04-18T08:25:01Z</time></trkpt><trkpt lat="14.889324764632686" lon="120.83259870223226"><ele>9.5</ele><time>2026-04-18T08:25:02Z</time></trkpt><trkpt lat="14.889544997898824" lon="120.83245339885465"><ele>9.0</ele><time>2026-04-18T08:25:03Z</time></trkpt><trkpt lat="14.889766942372233" lon="120.83230808729756"><ele>9.0</ele><time>2026-04-18T08:25:04Z</time></trkpt><trkpt lat="14.889987088916973" lon="120.83216147909768"><ele>9.0</ele><time>2026-04-18T08:25:05Z</time></trkpt><trkpt lat="14.890206416543986" lon="120.83201476527542"><ele>9.5</ele><time>2026-04-18T08:25:06Z</time></trkpt><trkpt lat="14.890425818535121" lon="120.83186696048746"><ele>10.0</ele><time>2026-04-18T08:25:07Z</time></trkpt><trkpt lat="14.890645731369874" lon="120.83171761422636"><ele>9.0</ele><time>2026-04-18T08:25:08Z</time></trkpt><trkpt lat="14.890864939559213" lon="120.83156738616843"><ele>8.0</ele><time>2026-04-18T08:25:09Z</time></trkpt><trkpt lat="14.891085383941627" lon="120.83141601393069"><ele>8.0</ele><time>2026-04-18T08:25:10Z</time></trkpt><trkpt lat="14.8913054427467" lon="120.83126478426934"><ele>8.0</ele><time>2026-04-18T08:25:11Z</time></trkpt><trkpt lat="14.891525153741105" lon="120.8311129919702"><ele>8.5</ele><time>2026-04-18T08:25:12Z</time></trkpt><trkpt lat="14.891744999031255" lon="120.83096025761543"><ele>9.0</ele><time>2026-04-18T08:25:13Z</time></trkpt><trkpt lat="14.891964574786977" lon="120.83080745670391"><ele>10.0</ele><time>2026-04-18T08:25:14Z</time></trkpt><trkpt lat="14.892182556474431" lon="120.83065232530184"><ele>11.0</ele><time>2026-04-18T08:25:15Z</time></trkpt><trkpt lat="14.892400811569612" lon="120.8304977571991"><ele>10.5</ele><time>2026-04-18T08:25:16Z</time></trkpt><trkpt lat="14.892618027455443" lon="120.83034167450893"><ele>10.0</ele><time>2026-04-18T08:25:17Z</time></trkpt><trkpt lat="14.892834378261075" lon="120.83018544251142"><ele>11.0</ele><time>2026-04-18T08:25:18Z</time></trkpt><trkpt lat="14.89304918979956" lon="120.83002808605367"><ele>12.0</ele><time>2026-04-18T08:25:19Z</time></trkpt><trkpt lat="14.893264518168502" lon="120.82986947732567"><ele>11.5</ele><time>2026-04-18T08:25:20Z</time></trkpt><trkpt lat="14.893477138524359" lon="120.82971214438984"><ele>11.0</ele><time>2026-04-18T08:25:21Z</time></trkpt><trkpt lat="14.89369226541826" lon="120.82955126551393"><ele>11.0</ele><time>2026-04-18T08:25:22Z</time></trkpt><trkpt lat="14.893904380899324" lon="120.82939368534886"><ele>11.0</ele><time>2026-04-18T08:25:23Z</time></trkpt><trkpt lat="14.894116587253121" lon="120.82923282816192"><ele>11.5</ele><time>2026-04-18T08:25:24Z</time></trkpt><trkpt lat="14.89432763048051" lon="120.8290723098306"><ele>12.0</ele><time>2026-04-18T08:25:25Z</time></trkpt><trkpt lat="14.894538674510684" lon="120.82891062466835"><ele>12.0</ele><time>2026-04-18T08:25:26Z</time></trkpt><trkpt lat="14.894749634108791" lon="120.82874860664607"><ele>12.0</ele><time>2026-04-18T08:25:27Z</time></trkpt><trkpt lat="14.894959082328675" lon="120.82858822249759"><ele>12.5</ele><time>2026-04-18T08:25:28Z</time></trkpt><trkpt lat="14.895170363197144" lon="120.8284265151407"><ele>13.0</ele><time>2026-04-18T08:25:29Z</time></trkpt><trkpt lat="14.895380887211518" lon="120.82826395659316"><ele>13.0</ele><time>2026-04-18T08:25:30Z</time></trkpt><trkpt lat="14.895591659647087" lon="120.82809844210657"><ele>13.0</ele><time>2026-04-18T08:25:31Z</time></trkpt><trkpt lat="14.895803479436456" lon="120.82793236633889"><ele>11.5</ele><time>2026-04-18T08:25:32Z</time></trkpt><trkpt lat="14.896013086571088" lon="120.82776404716948"><ele>10.0</ele><time>2026-04-18T08:25:33Z</time></trkpt><trkpt lat="14.896223752728938" lon="120.82759350919646"><ele>9.5</ele><time>2026-04-18T08:25:34Z</time></trkpt><trkpt lat="14.896431596617406" lon="120.82742173230184"><ele>9.0</ele><time>2026-04-18T08:25:35Z</time></trkpt><trkpt lat="14.896638857198976" lon="120.8272499866216"><ele>9.5</ele><time>2026-04-18T08:25:36Z</time></trkpt><trkpt lat="14.896847788050152" lon="120.82707912636909"><ele>10.0</ele><time>2026-04-18T08:25:37Z</time></trkpt><trkpt lat="14.897054464279622" lon="120.82690709160664"><ele>11.0</ele><time>2026-04-18T08:25:38Z</time></trkpt><trkpt lat="14.897262895005664" lon="120.82673368978844"><ele>12.0</ele><time>2026-04-18T08:25:39Z</time></trkpt><trkpt lat="14.897470996008316" lon="120.82655465989741"><ele>12.5</ele><time>2026-04-18T08:25:40Z</time></trkpt><trkpt lat="14.897680329872747" lon="120.82637871957421"><ele>13.0</ele><time>2026-04-18T08:25:41Z</time></trkpt><trkpt lat="14.897891575877054" lon="120.82620078725411"><ele>13.0</ele><time>2026-04-18T08:25:42Z</time></trkpt><trkpt lat="14.898102715036474" lon="120.82602032504678"><ele>13.0</ele><time>2026-04-18T08:25:43Z</time></trkpt><trkpt lat="14.898314951399298" lon="120.82583570379241"><ele>12.5</ele><time>2026-04-18T08:25:44Z</time></trkpt><trkpt lat="14.898527322272074" lon="120.82564997884495"><ele>12.0</ele><time>2026-04-18T08:25:45Z</time></trkpt><trkpt lat="14.898740085322492" lon="120.82546385614246"><ele>12.0</ele><time>2026-04-18T08:25:46Z</time></trkpt><trkpt lat="14.898952599112036" lon="120.82527766912139"><ele>12.0</ele><time>2026-04-18T08:25:47Z</time></trkpt><trkpt lat="14.899163870426229" lon="120.8250920796685"><ele>13.5</ele><time>2026-04-18T08:25:48Z</time></trkpt><trkpt lat="14.899374043339543" lon="120.8249054207996"><ele>15.0</ele><time>2026-04-18T08:25:49Z</time></trkpt><trkpt lat="14.899585019135648" lon="120.8247198582038"><ele>15.0</ele><time>2026-04-18T08:25:50Z</time></trkpt><trkpt lat="14.899795467046172" lon="120.82453562601737"><ele>15.0</ele><time>2026-04-18T08:25:51Z</time></trkpt><trkpt lat="14.90000691883082" lon="120.8243513456093"><ele>16.0</ele><time>2026-04-18T08:25:52Z</time></trkpt><trkpt lat="14.90021837158038" lon="120.82416781879472"><ele>17.0</ele><time>2026-04-18T08:25:53Z</time></trkpt><trkpt lat="14.900432144324117" lon="120.82398525597979"><ele>17.0</ele><time>2026-04-18T08:25:54Z</time></trkpt><trkpt lat="14.90064314311956" lon="120.82380238017178"><ele>17.0</ele><time>2026-04-18T08:25:55Z</time></trkpt><trkpt lat="14.90085005854849" lon="120.82362060582788"><ele>16.5</ele><time>2026-04-18T08:25:56Z</time></trkpt><trkpt lat="14.9010532118336" lon="120.82344094706481"><ele>16.0</ele><time>2026-04-18T08:25:57Z</time></trkpt><trkpt lat="14.901252662612823" lon="120.82326796552007"><ele>16.0</ele><time>2026-04-18T08:25:58Z</time></trkpt><trkpt lat="14.90144752807392" lon="120.82309781333609"><ele>16.0</ele><time>2026-04-18T08:25:59Z</time></trkpt><trkpt lat="14.901639320909146" lon="120.82293605784581"><ele>16.0</ele><time>2026-04-18T08:26:00Z</time></trkpt><trkpt lat="14.901829244648944" lon="120.82277674568152"><ele>16.0</ele><time>2026-04-18T08:26:01Z</time></trkpt><trkpt lat="14.902018268148499" lon="120.82261482286529"><ele>16.0</ele><time>2026-04-18T08:26:02Z</time></trkpt><trkpt lat="14.90220394165584" lon="120.82245248104718"><ele>16.0</ele><time>2026-04-18T08:26:03Z</time></trkpt><trkpt lat="14.902387932636003" lon="120.8222946163483"><ele>16.0</ele><time>2026-04-18T08:26:04Z</time></trkpt><trkpt lat="14.90256540630027" lon="120.82213545301722"><ele>16.0</ele><time>2026-04-18T08:26:05Z</time></trkpt><trkpt lat="14.90274203950801" lon="120.82198041711227"><ele>14.5</ele><time>2026-04-18T08:26:06Z</time></trkpt><trkpt lat="14.902917456653977" lon="120.82182775495457"><ele>13.0</ele><time>2026-04-18T08:26:07Z</time></trkpt><trkpt lat="14.9030921394847" lon="120.82167656902126"><ele>13.0</ele><time>2026-04-18T08:26:08Z</time></trkpt><trkpt lat="14.903263915614078" lon="120.82152421336808"><ele>13.0</ele><time>2026-04-18T08:26:09Z</time></trkpt><trkpt lat="14.903434936884679" lon="120.82137217122819"><ele>13.0</ele><time>2026-04-18T08:26:10Z</time></trkpt><trkpt lat="14.903608271819442" lon="120.821220471664"><ele>13.0</ele><time>2026-04-18T08:26:11Z</time></trkpt><trkpt lat="14.903783280835263" lon="120.82106563125876"><ele>13.0</ele><time>2026-04-18T08:26:12Z</time></trkpt><trkpt lat="14.90395913671538" lon="120.82091294163435"><ele>13.0</ele><time>2026-04-18T08:26:13Z</time></trkpt><trkpt lat="14.904134864516708" lon="120.820757271908"><ele>13.5</ele><time>2026-04-18T08:26:14Z</time></trkpt><trkpt lat="14.904312750966163" lon="120.82059874677785"><ele>14.0</ele><time>2026-04-18T08:26:15Z</time></trkpt><trkpt lat="14.904487492658518" lon="120.82043951132076"><ele>14.0</ele><time>2026-04-18T08:26:16Z</time></trkpt><trkpt lat="14.90466184084425" lon="120.8202816332703"><ele>14.0</ele><time>2026-04-18T08:26:17Z</time></trkpt><trkpt lat="14.904833931076515" lon="120.8201231910379"><ele>12.5</ele><time>2026-04-18T08:26:18Z</time></trkpt><trkpt lat="14.905003773804273" lon="120.81996520466414"><ele>11.0</ele><time>2026-04-18T08:26:19Z</time></trkpt><trkpt lat="14.905181478634367" lon="120.8198079747296"><ele>9.5</ele><time>2026-04-18T08:26:20Z</time></trkpt><trkpt lat="14.905357960354308" lon="120.81965108256584"><ele>8.0</ele><time>2026-04-18T08:26:21Z</time></trkpt><trkpt lat="14.905536585461153" lon="120.81949516775904"><ele>8.0</ele><time>2026-04-18T08:26:22Z</time></trkpt><trkpt lat="14.905718073285746" lon="120.81933839111271"><ele>8.0</ele><time>2026-04-18T08:26:23Z</time></trkpt><trkpt lat="14.905899746315955" lon="120.81918092027146"><ele>9.0</ele><time>2026-04-18T08:26:24Z</time></trkpt><trkpt lat="14.90608416710417" lon="120.81901963195062"><ele>10.0</ele><time>2026-04-18T08:26:25Z</time></trkpt><trkpt lat="14.906269086614493" lon="120.8188566161457"><ele>10.0</ele><time>2026-04-18T08:26:26Z</time></trkpt><trkpt lat="14.906456038353538" lon="120.81869522445966"><ele>10.0</ele><time>2026-04-18T08:26:27Z</time></trkpt><trkpt lat="14.906647284059733" lon="120.81853288905937"><ele>11.0</ele><time>2026-04-18T08:26:28Z</time></trkpt><trkpt lat="14.9068434522172" lon="120.81836849364302"><ele>12.0</ele><time>2026-04-18T08:26:29Z</time></trkpt><trkpt lat="14.907042789565642" lon="120.81820196889554"><ele>12.0</ele><time>2026-04-18T08:26:30Z</time></trkpt><trkpt lat="14.90724167906758" lon="120.81803347472038"><ele>12.0</ele><time>2026-04-18T08:26:31Z</time></trkpt><trkpt lat="14.907441425293792" lon="120.81786102501405"><ele>11.5</ele><time>2026-04-18T08:26:32Z</time></trkpt><trkpt lat="14.907641781543452" lon="120.81768852909286"><ele>11.0</ele><time>2026-04-18T08:26:33Z</time></trkpt><trkpt lat="14.907842361891126" lon="120.81751298220956"><ele>12.0</ele><time>2026-04-18T08:26:34Z</time></trkpt><trkpt lat="14.908045384146593" lon="120.8173361186381"><ele>13.0</ele><time>2026-04-18T08:26:35Z</time></trkpt><trkpt lat="14.908247701245843" lon="120.81715995230846"><ele>12.0</ele><time>2026-04-18T08:26:36Z</time></trkpt><trkpt lat="14.908450606383235" lon="120.81698241295852"><ele>11.0</ele><time>2026-04-18T08:26:37Z</time></trkpt><trkpt lat="14.908652693089657" lon="120.81681138285009"><ele>11.0</ele><time>2026-04-18T08:26:38Z</time></trkpt><trkpt lat="14.90885051541397" lon="120.81663861766619"><ele>11.0</ele><time>2026-04-18T08:26:39Z</time></trkpt><trkpt lat="14.9090476447867" lon="120.81646640393035"><ele>10.0</ele><time>2026-04-18T08:26:40Z</time></trkpt><trkpt lat="14.90924544444745" lon="120.81629412474376"><ele>9.0</ele><time>2026-04-18T08:26:41Z</time></trkpt><trkpt lat="14.90944103408058" lon="120.81612100615814"><ele>10.0</ele><time>2026-04-18T08:26:42Z</time></trkpt><trkpt lat="14.909637111988632" lon="120.81594885966446"><ele>11.0</ele><time>2026-04-18T08:26:43Z</time></trkpt><trkpt lat="14.909832335204044" lon="120.81577664760094"><ele>11.0</ele><time>2026-04-18T08:26:44Z</time></trkpt><trkpt lat="14.910026730144843" lon="120.81560413295145"><ele>11.0</ele><time>2026-04-18T08:26:45Z</time></trkpt><trkpt lat="14.910224024140229" lon="120.81543119847373"><ele>10.5</ele><time>2026-04-18T08:26:46Z</time></trkpt><trkpt lat="14.910421004351297" lon="120.81525858863209"><ele>10.0</ele><time>2026-04-18T08:26:47Z</time></trkpt><trkpt lat="14.91061993084424" lon="120.81508359174713"><ele>10.0</ele><time>2026-04-18T08:26:48Z</time></trkpt><trkpt lat="14.910820748820399" lon="120.81490870795115"><ele>10.0</ele><time>2026-04-18T08:26:49Z</time></trkpt><trkpt lat="14.911021525674567" lon="120.81473707981411"><ele>9.0</ele><time>2026-04-18T08:26:50Z</time></trkpt><trkpt lat="14.911220581213545" lon="120.8145604682759"><ele>8.0</ele><time>2026-04-18T08:26:51Z</time></trkpt><trkpt lat="14.911418306758954" lon="120.81438396909638"><ele>9.0</ele><time>2026-04-18T08:26:52Z</time></trkpt><trkpt lat="14.91161847811324" lon="120.81420688617669"><ele>10.0</ele><time>2026-04-18T08:26:53Z</time></trkpt><trkpt lat="14.911819041018745" lon="120.8140282262877"><ele>8.0</ele><time>2026-04-18T08:26:54Z</time></trkpt><trkpt lat="14.91201964433509" lon="120.81385048888174"><ele>6.0</ele><time>2026-04-18T08:26:55Z</time></trkpt><trkpt lat="14.912220383224195" lon="120.81367307968434"><ele>6.0</ele><time>2026-04-18T08:26:56Z</time></trkpt><trkpt lat="14.91242262076451" lon="120.81349489341686"><ele>6.0</ele><time>2026-04-18T08:26:57Z</time></trkpt><trkpt lat="14.912626009708372" lon="120.81331494958128"><ele>6.5</ele><time>2026-04-18T08:26:58Z</time></trkpt><trkpt lat="14.912828523694857" lon="120.81313745183907"><ele>7.0</ele><time>2026-04-18T08:26:59Z</time></trkpt><trkpt lat="14.913031795692104" lon="120.8129592993789"><ele>7.0</ele><time>2026-04-18T08:27:00Z</time></trkpt><trkpt lat="14.913232808097725" lon="120.81278271726681"><ele>7.0</ele><time>2026-04-18T08:27:01Z</time></trkpt><trkpt lat="14.913430977159017" lon="120.81260963401958"><ele>7.5</ele><time>2026-04-18T08:27:02Z</time></trkpt><trkpt lat="14.913628634853744" lon="120.81243799338293"><ele>8.0</ele><time>2026-04-18T08:27:03Z</time></trkpt><trkpt lat="14.913822366221318" lon="120.81226962314217"><ele>8.0</ele><time>2026-04-18T08:27:04Z</time></trkpt><trkpt lat="14.914012742128344" lon="120.8121020425729"><ele>8.0</ele><time>2026-04-18T08:27:05Z</time></trkpt><trkpt lat="14.914201535704168" lon="120.8119372454145"><ele>8.0</ele><time>2026-04-18T08:27:06Z</time></trkpt><trkpt lat="14.914390223545078" lon="120.8117715391147"><ele>8.0</ele><time>2026-04-18T08:27:07Z</time></trkpt><trkpt lat="14.91457578959402" lon="120.81160762547479"><ele>8.0</ele><time>2026-04-18T08:27:08Z</time></trkpt><trkpt lat="14.914763684167045" lon="120.81144615775254"><ele>8.0</ele><time>2026-04-18T08:27:09Z</time></trkpt><trkpt lat="14.91495133470587" lon="120.81128524316505"><ele>8.0</ele><time>2026-04-18T08:27:10Z</time></trkpt><trkpt lat="14.915139367258805" lon="120.81112248377171"><ele>8.0</ele><time>2026-04-18T08:27:11Z</time></trkpt><trkpt lat="14.915327750409906" lon="120.81095737932861"><ele>8.0</ele><time>2026-04-18T08:27:12Z</time></trkpt><trkpt lat="14.915514371309007" lon="120.8107915110552"><ele>8.0</ele><time>2026-04-18T08:27:13Z</time></trkpt><trkpt lat="14.915705606440616" lon="120.81062748777993"><ele>8.0</ele><time>2026-04-18T08:27:14Z</time></trkpt><trkpt lat="14.915896035749073" lon="120.81046032956239"><ele>8.0</ele><time>2026-04-18T08:27:15Z</time></trkpt><trkpt lat="14.916087936164711" lon="120.81029212948876"><ele>7.5</ele><time>2026-04-18T08:27:16Z</time></trkpt><trkpt lat="14.916281546934977" lon="120.81012544434701"><ele>7.0</ele><time>2026-04-18T08:27:17Z</time></trkpt><trkpt lat="14.916477002687694" lon="120.80995675787162"><ele>7.0</ele><time>2026-04-18T08:27:18Z</time></trkpt><trkpt lat="14.916672001632067" lon="120.80978747809148"><ele>7.0</ele><time>2026-04-18T08:27:19Z</time></trkpt><trkpt lat="14.916866280614622" lon="120.80962031895533"><ele>6.5</ele><time>2026-04-18T08:27:20Z</time></trkpt><trkpt lat="14.9170615150948" lon="120.80945030173727"><ele>6.0</ele><time>2026-04-18T08:27:21Z</time></trkpt><trkpt lat="14.917257376954812" lon="120.80927932380371"><ele>6.0</ele><time>2026-04-18T08:27:22Z</time></trkpt><trkpt lat="14.917452573473343" lon="120.80910698075085"><ele>6.0</ele><time>2026-04-18T08:27:23Z</time></trkpt><trkpt lat="14.917648463074046" lon="120.80893613137178"><ele>6.0</ele><time>2026-04-18T08:27:24Z</time></trkpt><trkpt lat="14.917842439867727" lon="120.80876803064025"><ele>6.0</ele><time>2026-04-18T08:27:25Z</time></trkpt><trkpt lat="14.918034541271357" lon="120.80860120345062"><ele>7.5</ele><time>2026-04-18T08:27:26Z</time></trkpt><trkpt lat="14.918224448244754" lon="120.80843374239802"><ele>9.0</ele><time>2026-04-18T08:27:27Z</time></trkpt><trkpt lat="14.918414399035159" lon="120.80826868081125"><ele>9.0</ele><time>2026-04-18T08:27:28Z</time></trkpt><trkpt lat="14.918603074271568" lon="120.80810768117938"><ele>9.0</ele><time>2026-04-18T08:27:29Z</time></trkpt><trkpt lat="14.918789393331483" lon="120.80795412080423"><ele>9.0</ele><time>2026-04-18T08:27:30Z</time></trkpt><trkpt lat="14.918971727825175" lon="120.8078019550016"><ele>9.0</ele><time>2026-04-18T08:27:31Z</time></trkpt><trkpt lat="14.919151461078096" lon="120.8076504516232"><ele>8.5</ele><time>2026-04-18T08:27:32Z</time></trkpt><trkpt lat="14.919328538465212" lon="120.80750127783871"><ele>8.0</ele><time>2026-04-18T08:27:33Z</time></trkpt><trkpt lat="14.91950328562502" lon="120.80735149103353"><ele>8.0</ele><time>2026-04-18T08:27:34Z</time></trkpt><trkpt lat="14.919678884647071" lon="120.80720325056922"><ele>8.0</ele><time>2026-04-18T08:27:35Z</time></trkpt><trkpt lat="14.919855864231167" lon="120.8070564802171"><ele>8.0</ele><time>2026-04-18T08:27:36Z</time></trkpt><trkpt lat="14.920032254926864" lon="120.80690863529074"><ele>8.0</ele><time>2026-04-18T08:27:37Z</time></trkpt><trkpt lat="14.920207248532119" lon="120.80676094878542"><ele>7.5</ele><time>2026-04-18T08:27:38Z</time></trkpt><trkpt lat="14.92038259719032" lon="120.8066105655897"><ele>7.0</ele><time>2026-04-18T08:27:39Z</time></trkpt><trkpt lat="14.920555689430424" lon="120.80645942673216"><ele>7.0</ele><time>2026-04-18T08:27:40Z</time></trkpt><trkpt lat="14.920729673113717" lon="120.80630706485857"><ele>7.0</ele><time>2026-04-18T08:27:41Z</time></trkpt><trkpt lat="14.920904310283385" lon="120.80615306239454"><ele>7.0</ele><time>2026-04-18T08:27:42Z</time></trkpt><trkpt lat="14.921079735897107" lon="120.80599952069957"><ele>7.0</ele><time>2026-04-18T08:27:43Z</time></trkpt><trkpt lat="14.921255828093292" lon="120.80584416673715"><ele>6.5</ele><time>2026-04-18T08:27:44Z</time></trkpt><trkpt lat="14.92143224183202" lon="120.8056908305047"><ele>6.0</ele><time>2026-04-18T08:27:45Z</time></trkpt><trkpt lat="14.921609243028561" lon="120.8055390657248"><ele>6.5</ele><time>2026-04-18T08:27:46Z</time></trkpt><trkpt lat="14.92178559019507" lon="120.8053858059046"><ele>7.0</ele><time>2026-04-18T08:27:47Z</time></trkpt><trkpt lat="14.921960830748246" lon="120.80523240458815"><ele>6.0</ele><time>2026-04-18T08:27:48Z</time></trkpt><trkpt lat="14.922136141524593" lon="120.80507867236206"><ele>5.0</ele><time>2026-04-18T08:27:49Z</time></trkpt><trkpt lat="14.92231373960323" lon="120.80492377108787"><ele>5.0</ele><time>2026-04-18T08:27:50Z</time></trkpt><trkpt lat="14.922490337464803" lon="120.80476936570132"><ele>5.0</ele><time>2026-04-18T08:27:51Z</time></trkpt><trkpt lat="14.92266749765861" lon="120.80461515813973"><ele>5.5</ele><time>2026-04-18T08:27:52Z</time></trkpt><trkpt lat="14.922844201836893" lon="120.80446151412568"><ele>6.0</ele><time>2026-04-18T08:27:53Z</time></trkpt><trkpt lat="14.923019780936082" lon="120.80430635997904"><ele>7.0</ele><time>2026-04-18T08:27:54Z</time></trkpt><trkpt lat="14.923195824819235" lon="120.80414893224142"><ele>8.0</ele><time>2026-04-18T08:27:55Z</time></trkpt><trkpt lat="14.923370701107444" lon="120.8039893105921"><ele>7.0</ele><time>2026-04-18T08:27:56Z</time></trkpt><trkpt lat="14.923545897910067" lon="120.80382967987279"><ele>6.0</ele><time>2026-04-18T08:27:57Z</time></trkpt><trkpt lat="14.92372067991664" lon="120.80367055836172"><ele>6.0</ele><time>2026-04-18T08:27:58Z</time></trkpt><trkpt lat="14.92389645794299" lon="120.80351133125514"><ele>6.0</ele><time>2026-04-18T08:27:59Z</time></trkpt><trkpt lat="14.924070518374975" lon="120.80335324595121"><ele>6.5</ele><time>2026-04-18T08:28:00Z</time></trkpt><trkpt lat="14.924244845629639" lon="120.80319775465242"><ele>7.0</ele><time>2026-04-18T08:28:01Z</time></trkpt><trkpt lat="14.924419563819441" lon="120.80304310965991"><ele>7.0</ele><time>2026-04-18T08:28:02Z</time></trkpt><trkpt lat="14.92459673466208" lon="120.80288894921581"><ele>7.0</ele><time>2026-04-18T08:28:03Z</time></trkpt><trkpt lat="14.924774882044666" lon="120.80273094715842"><ele>7.5</ele><time>2026-04-18T08:28:04Z</time></trkpt><trkpt lat="14.924951850889997" lon="120.80257277114893"><ele>8.0</ele><time>2026-04-18T08:28:05Z</time></trkpt><trkpt lat="14.925129242397542" lon="120.8024141354498"><ele>7.0</ele><time>2026-04-18T08:28:06Z</time></trkpt><trkpt lat="14.92530721151082" lon="120.80225802489015"><ele>6.0</ele><time>2026-04-18T08:28:07Z</time></trkpt><trkpt lat="14.925485442286687" lon="120.80210068391249"><ele>6.0</ele><time>2026-04-18T08:28:08Z</time></trkpt><trkpt lat="14.925663794950443" lon="120.80194323144646"><ele>6.0</ele><time>2026-04-18T08:28:09Z</time></trkpt><trkpt lat="14.925842285347347" lon="120.80178613457181"><ele>5.5</ele><time>2026-04-18T08:28:10Z</time></trkpt><trkpt lat="14.92602071703072" lon="120.80162767275132"><ele>5.0</ele><time>2026-04-18T08:28:11Z</time></trkpt><trkpt lat="14.926200362339303" lon="120.80146882101253"><ele>5.0</ele><time>2026-04-18T08:28:12Z</time></trkpt><trkpt lat="14.926378065354147" lon="120.80131081496812"><ele>5.0</ele><time>2026-04-18T08:28:13Z</time></trkpt><trkpt lat="14.926554656885983" lon="120.80115633879656"><ele>5.5</ele><time>2026-04-18T08:28:14Z</time></trkpt><trkpt lat="14.926731401579229" lon="120.8010043734908"><ele>6.0</ele><time>2026-04-18T08:28:15Z</time></trkpt><trkpt lat="14.926907554028615" lon="120.80085004072292"><ele>5.0</ele><time>2026-04-18T08:28:16Z</time></trkpt><trkpt lat="14.927083586268946" lon="120.80069465715562"><ele>4.0</ele><time>2026-04-18T08:28:17Z</time></trkpt><trkpt lat="14.92726033569148" lon="120.80054110784685"><ele>4.0</ele><time>2026-04-18T08:28:18Z</time></trkpt><trkpt lat="14.927438257844333" lon="120.80038629474612"><ele>4.0</ele><time>2026-04-18T08:28:19Z</time></trkpt><trkpt lat="14.927615366723092" lon="120.80023072395558"><ele>3.5</ele><time>2026-04-18T08:28:20Z</time></trkpt><trkpt lat="14.927792725594214" lon="120.80007452933732"><ele>3.0</ele><time>2026-04-18T08:28:21Z</time></trkpt><trkpt lat="14.927972270175305" lon="120.79991701295614"><ele>3.0</ele><time>2026-04-18T08:28:22Z</time></trkpt><trkpt lat="14.928151791534022" lon="120.79976027520966"><ele>3.0</ele><time>2026-04-18T08:28:23Z</time></trkpt><trkpt lat="14.928331440629918" lon="120.7996030303219"><ele>3.5</ele><time>2026-04-18T08:28:24Z</time></trkpt><trkpt lat="14.928510181338051" lon="120.79944634631735"><ele>4.0</ele><time>2026-04-18T08:28:25Z</time></trkpt><trkpt lat="14.928690908031564" lon="120.79928772027797"><ele>4.5</ele><time>2026-04-18T08:28:26Z</time></trkpt><trkpt lat="14.928872059981087" lon="120.79912983312974"><ele>5.0</ele><time>2026-04-18T08:28:27Z</time></trkpt><trkpt lat="14.929053783727332" lon="120.79897016448805"><ele>4.5</ele><time>2026-04-18T08:28:28Z</time></trkpt><trkpt lat="14.929237341333979" lon="120.79880937865805"><ele>4.0</ele><time>2026-04-18T08:28:29Z</time></trkpt><trkpt lat="14.929422392658685" lon="120.79864815361131"><ele>4.5</ele><time>2026-04-18T08:28:30Z</time></trkpt><trkpt lat="14.929606384302053" lon="120.79848723211825"><ele>5.0</ele><time>2026-04-18T08:28:31Z</time></trkpt><trkpt lat="14.929788079349676" lon="120.79832610574996"><ele>5.0</ele><time>2026-04-18T08:28:32Z</time></trkpt><trkpt lat="14.929971176621962" lon="120.7981641542711"><ele>5.0</ele><time>2026-04-18T08:28:33Z</time></trkpt><trkpt lat="14.930155168825861" lon="120.79800219835286"><ele>5.5</ele><time>2026-04-18T08:28:34Z</time></trkpt><trkpt lat="14.930336862612403" lon="120.79784345121851"><ele>6.0</ele><time>2026-04-18T08:28:35Z</time></trkpt><trkpt lat="14.9305163622382" lon="120.79768049719698"><ele>5.5</ele><time>2026-04-18T08:28:36Z</time></trkpt><trkpt lat="14.93069522390547" lon="120.79751874593666"><ele>5.0</ele><time>2026-04-18T08:28:37Z</time></trkpt><trkpt lat="14.930876396248461" lon="120.79735764736824"><ele>5.5</ele><time>2026-04-18T08:28:38Z</time></trkpt><trkpt lat="14.931057826878698" lon="120.79719736542785"><ele>6.0</ele><time>2026-04-18T08:28:39Z</time></trkpt><trkpt lat="14.931239455072067" lon="120.79703630787932"><ele>6.0</ele><time>2026-04-18T08:28:40Z</time></trkpt><trkpt lat="14.931421732620576" lon="120.79687473341876"><ele>6.0</ele><time>2026-04-18T08:28:41Z</time></trkpt><trkpt lat="14.931603700826335" lon="120.79671403322753"><ele>6.0</ele><time>2026-04-18T08:28:42Z</time></trkpt><trkpt lat="14.931786614083382" lon="120.79655357804045"><ele>6.0</ele><time>2026-04-18T08:28:43Z</time></trkpt><trkpt lat="14.931969187496843" lon="120.79639234319724"><ele>6.0</ele><time>2026-04-18T08:28:44Z</time></trkpt><trkpt lat="14.932153022928125" lon="120.79623125534546"><ele>6.0</ele><time>2026-04-18T08:28:45Z</time></trkpt><trkpt lat="14.93233672508626" lon="120.79607143415063"><ele>5.5</ele><time>2026-04-18T08:28:46Z</time></trkpt><trkpt lat="14.93252045849896" lon="120.79591148430106"><ele>5.0</ele><time>2026-04-18T08:28:47Z</time></trkpt><trkpt lat="14.93270395985545" lon="120.79575045442967"><ele>5.0</ele><time>2026-04-18T08:28:48Z</time></trkpt><trkpt lat="14.932887008463466" lon="120.79559023244666"><ele>5.0</ele><time>2026-04-18T08:28:49Z</time></trkpt><trkpt lat="14.933070297308184" lon="120.79542906850229"><ele>5.0</ele><time>2026-04-18T08:28:50Z</time></trkpt><trkpt lat="14.933254536310583" lon="120.79526892099148"><ele>5.0</ele><time>2026-04-18T08:28:51Z</time></trkpt><trkpt lat="14.933438660282519" lon="120.7951097591602"><ele>6.0</ele><time>2026-04-18T08:28:52Z</time></trkpt><trkpt lat="14.933623938196455" lon="120.79494725519278"><ele>7.0</ele><time>2026-04-18T08:28:53Z</time></trkpt><trkpt lat="14.933808886297896" lon="120.79478532223348"><ele>7.0</ele><time>2026-04-18T08:28:54Z</time></trkpt><trkpt lat="14.933994598254623" lon="120.79462313029703"><ele>7.0</ele><time>2026-04-18T08:28:55Z</time></trkpt><trkpt lat="14.934180238173028" lon="120.7944607612481"><ele>7.0</ele><time>2026-04-18T08:28:56Z</time></trkpt><trkpt lat="14.934364907801026" lon="120.79429896794568"><ele>7.0</ele><time>2026-04-18T08:28:57Z</time></trkpt><trkpt lat="14.934547286261157" lon="120.79413866333223"><ele>7.0</ele><time>2026-04-18T08:28:58Z</time></trkpt><trkpt lat="14.934726071039206" lon="120.79398015012954"><ele>7.0</ele><time>2026-04-18T08:28:59Z</time></trkpt><trkpt lat="14.9349007082442" lon="120.79382240701784"><ele>6.0</ele><time>2026-04-18T08:29:00Z</time></trkpt><trkpt lat="14.935074691184775" lon="120.79366600977686"><ele>5.0</ele><time>2026-04-18T08:29:01Z</time></trkpt><trkpt lat="14.935248049845924" lon="120.79351173967352"><ele>4.5</ele><time>2026-04-18T08:29:02Z</time></trkpt><trkpt lat="14.935421548306039" lon="120.7933585416456"><ele>4.0</ele><time>2026-04-18T08:29:03Z</time></trkpt><trkpt lat="14.935594723357235" lon="120.7932066462749"><ele>4.0</ele><time>2026-04-18T08:29:04Z</time></trkpt><trkpt lat="14.935769218922047" lon="120.79305477611288"><ele>4.0</ele><time>2026-04-18T08:29:05Z</time></trkpt><trkpt lat="14.935944231305351" lon="120.79290195068646"><ele>5.0</ele><time>2026-04-18T08:29:06Z</time></trkpt><trkpt lat="14.936118967021548" lon="120.79274500892434"><ele>6.0</ele><time>2026-04-18T08:29:07Z</time></trkpt><trkpt lat="14.936295194227718" lon="120.79259098286778"><ele>6.0</ele><time>2026-04-18T08:29:08Z</time></trkpt><trkpt lat="14.936475137279157" lon="120.79243783578625"><ele>6.0</ele><time>2026-04-18T08:29:09Z</time></trkpt><trkpt lat="14.936658084957804" lon="120.79228621133521"><ele>5.5</ele><time>2026-04-18T08:29:10Z</time></trkpt><trkpt lat="14.936842913701536" lon="120.79212953407293"><ele>5.0</ele><time>2026-04-18T08:29:11Z</time></trkpt><trkpt lat="14.937028814750924" lon="120.79197284808137"><ele>5.5</ele><time>2026-04-18T08:29:12Z</time></trkpt><trkpt lat="14.937215107451326" lon="120.7918143428"><ele>6.0</ele><time>2026-04-18T08:29:13Z</time></trkpt><trkpt lat="14.937399970518257" lon="120.79165314151001"><ele>5.5</ele><time>2026-04-18T08:29:14Z</time></trkpt><trkpt lat="14.937586613542601" lon="120.79149121170104"><ele>5.0</ele><time>2026-04-18T08:29:15Z</time></trkpt><trkpt lat="14.93776902857066" lon="120.79133298483163"><ele>5.0</ele><time>2026-04-18T08:29:16Z</time></trkpt><trkpt lat="14.937951389641468" lon="120.7911737268167"><ele>5.0</ele><time>2026-04-18T08:29:17Z</time></trkpt><trkpt lat="14.938131077852915" lon="120.79101457421089"><ele>4.5</ele><time>2026-04-18T08:29:18Z</time></trkpt><trkpt lat="14.938309396785346" lon="120.79085850613971"><ele>4.0</ele><time>2026-04-18T08:29:19Z</time></trkpt><trkpt lat="14.93848771104117" lon="120.79070136241783"><ele>4.0</ele><time>2026-04-18T08:29:20Z</time></trkpt><trkpt lat="14.938665378724577" lon="120.79054514638626"><ele>4.0</ele><time>2026-04-18T08:29:21Z</time></trkpt><trkpt lat="14.938842057613988" lon="120.79039038527517"><ele>4.0</ele><time>2026-04-18T08:29:22Z</time></trkpt><trkpt lat="14.939018159507738" lon="120.79023639718544"><ele>4.0</ele><time>2026-04-18T08:29:23Z</time></trkpt><trkpt lat="14.939194194493691" lon="120.79008513008866"><ele>5.0</ele><time>2026-04-18T08:29:24Z</time></trkpt><trkpt lat="14.939368706078808" lon="120.78993029199277"><ele>6.0</ele><time>2026-04-18T08:29:25Z</time></trkpt><trkpt lat="14.939544211373255" lon="120.7897757971397"><ele>6.0</ele><time>2026-04-18T08:29:26Z</time></trkpt><trkpt lat="14.939718703970017" lon="120.7896210899444"><ele>6.0</ele><time>2026-04-18T08:29:27Z</time></trkpt><trkpt lat="14.939895393499006" lon="120.78947133226877"><ele>6.5</ele><time>2026-04-18T08:29:28Z</time></trkpt><trkpt lat="14.940069029474158" lon="120.78931964510569"><ele>7.0</ele><time>2026-04-18T08:29:29Z</time></trkpt><trkpt lat="14.940246168193825" lon="120.78916749232992"><ele>7.0</ele><time>2026-04-18T08:29:30Z</time></trkpt><trkpt lat="14.940421083730163" lon="120.78901485937904"><ele>7.0</ele><time>2026-04-18T08:29:31Z</time></trkpt><trkpt lat="14.940592754095272" lon="120.78886469422004"><ele>7.0</ele><time>2026-04-18T08:29:32Z</time></trkpt><trkpt lat="14.940759539103091" lon="120.78871784070898"><ele>7.0</ele><time>2026-04-18T08:29:33Z</time></trkpt><trkpt lat="14.940922865964302" lon="120.78857455164034"><ele>7.0</ele><time>2026-04-18T08:29:34Z</time></trkpt><trkpt lat="14.94108396494901" lon="120.78843237979329"><ele>7.0</ele><time>2026-04-18T08:29:35Z</time></trkpt><trkpt lat="14.941246210394597" lon="120.78828901607712"><ele>7.0</ele><time>2026-04-18T08:29:36Z</time></trkpt><trkpt lat="14.94141601564428" lon="120.78815354628583"><ele>7.0</ele><time>2026-04-18T08:29:37Z</time></trkpt><trkpt lat="14.941579166766749" lon="120.78800998289522"><ele>6.333333333333334</ele><time>2026-04-18T08:29:38Z</time></trkpt><trkpt lat="14.941738806771625" lon="120.78786517732979"><ele>5.666666666666667</ele><time>2026-04-18T08:29:39Z</time></trkpt><trkpt lat="14.941890149079715" lon="120.78771771385512"><ele>5.0</ele><time>2026-04-18T08:29:40Z</time></trkpt><trkpt lat="14.942051248898554" lon="120.7875758720236"><ele>4.666666666666667</ele><time>2026-04-18T08:29:41Z</time></trkpt><trkpt lat="14.942212321881087" lon="120.78743426892724"><ele>4.333333333333333</ele><time>2026-04-18T08:29:42Z</time></trkpt><trkpt lat="14.942371750636061" lon="120.78729178930553"><ele>4.0</ele><time>2026-04-18T08:29:43Z</time></trkpt><trkpt lat="14.942532425612141" lon="120.78715079541794"><ele>4.0</ele><time>2026-04-18T08:29:44Z</time></trkpt><trkpt lat="14.942691165044346" lon="120.78701254860854"><ele>4.0</ele><time>2026-04-18T08:29:45Z</time></trkpt><trkpt lat="14.94284713631831" lon="120.78687495439306"><ele>4.0</ele><time>2026-04-18T08:29:46Z</time></trkpt><trkpt lat="14.942997711526829" lon="120.78673739836248"><ele>4.0</ele><time>2026-04-18T08:29:47Z</time></trkpt><trkpt lat="14.943148495865072" lon="120.78660425287681"><ele>4.0</ele><time>2026-04-18T08:29:48Z</time></trkpt><trkpt lat="14.9432975979357" lon="120.78647337630818"><ele>4.0</ele><time>2026-04-18T08:29:49Z</time></trkpt><trkpt lat="14.943443778696558" lon="120.78634654748173"><ele>4.333333333333333</ele><time>2026-04-18T08:29:50Z</time></trkpt><trkpt lat="14.943593059076559" lon="120.7862177294509"><ele>4.666666666666667</ele><time>2026-04-18T08:29:51Z</time></trkpt><trkpt lat="14.943741507195192" lon="120.78608897367943"><ele>5.0</ele><time>2026-04-18T08:29:52Z</time></trkpt><trkpt lat="14.94388926355714" lon="120.78596091661217"><ele>5.0</ele><time>2026-04-18T08:29:53Z</time></trkpt><trkpt lat="14.944039151343356" lon="120.78583184958981"><ele>5.0</ele><time>2026-04-18T08:29:54Z</time></trkpt><trkpt lat="14.944187667306393" lon="120.78570009382513"><ele>5.0</ele><time>2026-04-18T08:29:55Z</time></trkpt><trkpt lat="14.944338202084957" lon="120.785569765902"><ele>5.0</ele><time>2026-04-18T08:29:56Z</time></trkpt><trkpt lat="14.944488940092524" lon="120.78543575301688"><ele>5.0</ele><time>2026-04-18T08:29:57Z</time></trkpt><trkpt lat="14.94464129258652" lon="120.78530218580374"><ele>5.0</ele><time>2026-04-18T08:29:58Z</time></trkpt><trkpt lat="14.944795608067066" lon="120.7851671975202"><ele>5.333333333333334</ele><time>2026-04-18T08:29:59Z</time></trkpt><trkpt lat="14.944951268569227" lon="120.78503186651677"><ele>5.666666666666667</ele><time>2026-04-18T08:30:00Z</time></trkpt><trkpt lat="14.945106687306637" lon="120.78489643920288"><ele>6.0</ele><time>2026-04-18T08:30:01Z</time></trkpt><trkpt lat="14.945263179898065" lon="120.78476037705289"><ele>6.0</ele><time>2026-04-18T08:30:02Z</time></trkpt><trkpt lat="14.945420292359117" lon="120.7846239759852"><ele>6.0</ele><time>2026-04-18T08:30:03Z</time></trkpt><trkpt lat="14.945578837721817" lon="120.78448473270115"><ele>6.0</ele><time>2026-04-18T08:30:04Z</time></trkpt><trkpt lat="14.945737465085037" lon="120.78434617891561"><ele>5.666666666666667</ele><time>2026-04-18T08:30:05Z</time></trkpt><trkpt lat="14.945894923604289" lon="120.78420364595291"><ele>5.333333333333334</ele><time>2026-04-18T08:30:06Z</time></trkpt><trkpt lat="14.946055209795398" lon="120.78406446276298"><ele>5.0</ele><time>2026-04-18T08:30:07Z</time></trkpt><trkpt lat="14.946215448829582" lon="120.7839242967795"><ele>5.0</ele><time>2026-04-18T08:30:08Z</time></trkpt><trkpt lat="14.946376367346236" lon="120.78378134306756"><ele>5.0</ele><time>2026-04-18T08:30:09Z</time></trkpt><trkpt lat="14.94653834306502" lon="120.78363786076872"><ele>5.0</ele><time>2026-04-18T08:30:10Z</time></trkpt><trkpt lat="14.946701032711838" lon="120.78349366239831"><ele>5.666666666666667</ele><time>2026-04-18T08:30:11Z</time></trkpt><trkpt lat="14.9468649832571" lon="120.78334966137396"><ele>6.333333333333334</ele><time>2026-04-18T08:30:12Z</time></trkpt><trkpt lat="14.947029624441198" lon="120.78320669321899"><ele>7.0</ele><time>2026-04-18T08:30:13Z</time></trkpt><trkpt lat="14.947194928233673" lon="120.78306399271113"><ele>7.0</ele><time>2026-04-18T08:30:14Z</time></trkpt><trkpt lat="14.947360754457819" lon="120.7829214552583"><ele>7.0</ele><time>2026-04-18T08:30:15Z</time></trkpt><trkpt lat="14.947526436133694" lon="120.78277813356496"><ele>7.0</ele><time>2026-04-18T08:30:16Z</time></trkpt><trkpt lat="14.947693926950159" lon="120.78263253727265"><ele>7.333333333333334</ele><time>2026-04-18T08:30:17Z</time></trkpt><trkpt lat="14.947861846425974" lon="120.78248616560943"><ele>7.666666666666666</ele><time>2026-04-18T08:30:18Z</time></trkpt><trkpt lat="14.948030858938806" lon="120.78233816479418"><ele>8.0</ele><time>2026-04-18T08:30:19Z</time></trkpt><trkpt lat="14.94820158285138" lon="120.78219071799028"><ele>8.0</ele><time>2026-04-18T08:30:20Z</time></trkpt><trkpt lat="14.948373410667237" lon="120.78204050051076"><ele>8.0</ele><time>2026-04-18T08:30:21Z</time></trkpt><trkpt lat="14.948546845907149" lon="120.78189025724137"><ele>8.5</ele><time>2026-04-18T08:30:22Z</time></trkpt><trkpt lat="14.94871881394981" lon="120.7817382264241"><ele>9.0</ele><time>2026-04-18T08:30:23Z</time></trkpt><trkpt lat="14.94889342114349" lon="120.7815856908545"><ele>9.0</ele><time>2026-04-18T08:30:24Z</time></trkpt><trkpt lat="14.949068773031561" lon="120.7814322707748"><ele>9.0</ele><time>2026-04-18T08:30:25Z</time></trkpt><trkpt lat="14.949244137280996" lon="120.78127770790785"><ele>8.5</ele><time>2026-04-18T08:30:26Z</time></trkpt><trkpt lat="14.94942028561592" lon="120.7811229591958"><ele>8.0</ele><time>2026-04-18T08:30:27Z</time></trkpt><trkpt lat="14.949597880207108" lon="120.78096728392684"><ele>8.0</ele><time>2026-04-18T08:30:28Z</time></trkpt><trkpt lat="14.949776641042495" lon="120.78081219156348"><ele>8.0</ele><time>2026-04-18T08:30:29Z</time></trkpt><trkpt lat="14.949955880387833" lon="120.78065657585333"><ele>8.0</ele><time>2026-04-18T08:30:30Z</time></trkpt><trkpt lat="14.950134156114112" lon="120.78049871711313"><ele>8.0</ele><time>2026-04-18T08:30:31Z</time></trkpt><trkpt lat="14.950312808325885" lon="120.78033867001149"><ele>8.5</ele><time>2026-04-18T08:30:32Z</time></trkpt><trkpt lat="14.950491079812966" lon="120.78017926976227"><ele>9.0</ele><time>2026-04-18T08:30:33Z</time></trkpt><trkpt lat="14.950672398288122" lon="120.78001945904711"><ele>9.0</ele><time>2026-04-18T08:30:34Z</time></trkpt><trkpt lat="14.950854315524186" lon="120.77986088190889"><ele>9.0</ele><time>2026-04-18T08:30:35Z</time></trkpt><trkpt lat="14.951037563823101" lon="120.7797008697207"><ele>9.5</ele><time>2026-04-18T08:30:36Z</time></trkpt><trkpt lat="14.951221474020874" lon="120.7795406164313"><ele>10.0</ele><time>2026-04-18T08:30:37Z</time></trkpt><trkpt lat="14.951403990075082" lon="120.77937977395675"><ele>10.0</ele><time>2026-04-18T08:30:38Z</time></trkpt><trkpt lat="14.951587387335213" lon="120.7792185533165"><ele>10.0</ele><time>2026-04-18T08:30:39Z</time></trkpt><trkpt lat="14.951772043778005" lon="120.77905509721862"><ele>10.0</ele><time>2026-04-18T08:30:40Z</time></trkpt><trkpt lat="14.951957835146631" lon="120.77889411631385"><ele>10.0</ele><time>2026-04-18T08:30:41Z</time></trkpt><trkpt lat="14.95214054982541" lon="120.77873225836653"><ele>10.0</ele><time>2026-04-18T08:30:42Z</time></trkpt><trkpt lat="14.952325434496043" lon="120.77857277550808"><ele>10.0</ele><time>2026-04-18T08:30:43Z</time></trkpt><trkpt lat="14.952510277572332" lon="120.7784138850183"><ele>9.5</ele><time>2026-04-18T08:30:44Z</time></trkpt><trkpt lat="14.952695376293498" lon="120.77825368112195"><ele>9.0</ele><time>2026-04-18T08:30:45Z</time></trkpt><trkpt lat="14.952880293438884" lon="120.77809229766636"><ele>9.0</ele><time>2026-04-18T08:30:46Z</time></trkpt><trkpt lat="14.953065783067407" lon="120.7779263488354"><ele>9.0</ele><time>2026-04-18T08:30:47Z</time></trkpt><trkpt lat="14.953249424013197" lon="120.77776245058058"><ele>9.5</ele><time>2026-04-18T08:30:48Z</time></trkpt><trkpt lat="14.95343530148515" lon="120.77759952037815"><ele>10.0</ele><time>2026-04-18T08:30:49Z</time></trkpt><trkpt lat="14.95362078635669" lon="120.77743734088614"><ele>10.0</ele><time>2026-04-18T08:30:50Z</time></trkpt><trkpt lat="14.953808205919506" lon="120.77727307933051"><ele>10.0</ele><time>2026-04-18T08:30:51Z</time></trkpt><trkpt lat="14.953994220922537" lon="120.77710774446562"><ele>10.0</ele><time>2026-04-18T08:30:52Z</time></trkpt><trkpt lat="14.954179418176011" lon="120.77694520444845"><ele>10.0</ele><time>2026-04-18T08:30:53Z</time></trkpt><trkpt lat="14.954363545412155" lon="120.77678491237317"><ele>9.5</ele><time>2026-04-18T08:30:54Z</time></trkpt><trkpt lat="14.954545700465427" lon="120.77662681443037"><ele>9.0</ele><time>2026-04-18T08:30:55Z</time></trkpt><trkpt lat="14.9547277661686" lon="120.77647043565277"><ele>9.0</ele><time>2026-04-18T08:30:56Z</time></trkpt><trkpt lat="14.954909077755419" lon="120.77631155624519"><ele>9.0</ele><time>2026-04-18T08:30:57Z</time></trkpt><trkpt lat="14.955086179812543" lon="120.7761563653298"><ele>10.0</ele><time>2026-04-18T08:30:58Z</time></trkpt><trkpt lat="14.955259601672099" lon="120.77600009888533"><ele>11.0</ele><time>2026-04-18T08:30:59Z</time></trkpt><trkpt lat="14.95543154821206" lon="120.7758467445011"><ele>11.0</ele><time>2026-04-18T08:31:00Z</time></trkpt><trkpt lat="14.955600264902088" lon="120.77569713493872"><ele>11.0</ele><time>2026-04-18T08:31:01Z</time></trkpt><trkpt lat="14.955770569268644" lon="120.77554510822746"><ele>11.0</ele><time>2026-04-18T08:31:02Z</time></trkpt><trkpt lat="14.955941000359967" lon="120.7753973693007"><ele>10.5</ele><time>2026-04-18T08:31:03Z</time></trkpt><trkpt lat="14.956122555591694" lon="120.77525869682363"><ele>10.0</ele><time>2026-04-18T08:31:04Z</time></trkpt><trkpt lat="14.956278986435544" lon="120.77509159589992"><ele>9.5</ele><time>2026-04-18T08:31:05Z</time></trkpt><trkpt lat="14.956450981244652" lon="120.77493407747784"><ele>9.0</ele><time>2026-04-18T08:31:06Z</time></trkpt><trkpt lat="14.956623876187907" lon="120.77477981927372"><ele>9.5</ele><time>2026-04-18T08:31:07Z</time></trkpt><trkpt lat="14.956800246675254" lon="120.77462487410409"><ele>10.0</ele><time>2026-04-18T08:31:08Z</time></trkpt><trkpt lat="14.95697839026622" lon="120.77446696711391"><ele>9.0</ele><time>2026-04-18T08:31:09Z</time></trkpt><trkpt lat="14.957158963045805" lon="120.77430716693726"><ele>8.0</ele><time>2026-04-18T08:31:10Z</time></trkpt><trkpt lat="14.957341956357208" lon="120.77414674959142"><ele>8.0</ele><time>2026-04-18T08:31:11Z</time></trkpt><trkpt lat="14.957525197842541" lon="120.77398631812636"><ele>8.0</ele><time>2026-04-18T08:31:12Z</time></trkpt><trkpt lat="14.957710096403098" lon="120.77382568116184"><ele>7.5</ele><time>2026-04-18T08:31:13Z</time></trkpt><trkpt lat="14.957896513812772" lon="120.77366007633543"><ele>7.0</ele><time>2026-04-18T08:31:14Z</time></trkpt><trkpt lat="14.958084895046202" lon="120.7734939301087"><ele>7.0</ele><time>2026-04-18T08:31:15Z</time></trkpt><trkpt lat="14.958274586861563" lon="120.77332692102554"><ele>7.0</ele><time>2026-04-18T08:31:16Z</time></trkpt><trkpt lat="14.958462739542169" lon="120.7731613264247"><ele>6.0</ele><time>2026-04-18T08:31:17Z</time></trkpt><trkpt lat="14.958654108600628" lon="120.77299445715187"><ele>5.0</ele><time>2026-04-18T08:31:18Z</time></trkpt><trkpt lat="14.958845837815558" lon="120.7728253578854"><ele>6.0</ele><time>2026-04-18T08:31:19Z</time></trkpt><trkpt lat="14.95903830979162" lon="120.77265479629928"><ele>7.0</ele><time>2026-04-18T08:31:20Z</time></trkpt><trkpt lat="14.959231572656112" lon="120.77248582942556"><ele>7.0</ele><time>2026-04-18T08:31:21Z</time></trkpt><trkpt lat="14.959427877352349" lon="120.77231530318458"><ele>7.0</ele><time>2026-04-18T08:31:22Z</time></trkpt><trkpt lat="14.959623466786448" lon="120.77214420229129"><ele>7.0</ele><time>2026-04-18T08:31:23Z</time></trkpt><trkpt lat="14.95981966836923" lon="120.77196996924317"><ele>7.0</ele><time>2026-04-18T08:31:24Z</time></trkpt><trkpt lat="14.960016778010704" lon="120.77179318805804"><ele>6.0</ele><time>2026-04-18T08:31:25Z</time></trkpt><trkpt lat="14.960214409683825" lon="120.77161853451314"><ele>5.0</ele><time>2026-04-18T08:31:26Z</time></trkpt><trkpt lat="14.960411992862522" lon="120.77144271463939"><ele>5.0</ele><time>2026-04-18T08:31:27Z</time></trkpt><trkpt lat="14.960609746809059" lon="120.77126568033363"><ele>5.0</ele><time>2026-04-18T08:31:28Z</time></trkpt><trkpt lat="14.960807528317916" lon="120.77108783003307"><ele>6.0</ele><time>2026-04-18T08:31:29Z</time></trkpt><trkpt lat="14.961005356524407" lon="120.77090989100354"><ele>7.0</ele><time>2026-04-18T08:31:30Z</time></trkpt><trkpt lat="14.961204511798003" lon="120.77073370204994"><ele>7.0</ele><time>2026-04-18T08:31:31Z</time></trkpt><trkpt lat="14.961402526158643" lon="120.77055475800755"><ele>7.0</ele><time>2026-04-18T08:31:32Z</time></trkpt><trkpt lat="14.961598695457656" lon="120.77037697260683"><ele>6.5</ele><time>2026-04-18T08:31:33Z</time></trkpt><trkpt lat="14.961795832126981" lon="120.77020060917972"><ele>6.0</ele><time>2026-04-18T08:31:34Z</time></trkpt><trkpt lat="14.961994114471421" lon="120.77002690183296"><ele>6.0</ele><time>2026-04-18T08:31:35Z</time></trkpt><trkpt lat="14.96219314224768" lon="120.76985152327303"><ele>6.0</ele><time>2026-04-18T08:31:36Z</time></trkpt><trkpt lat="14.962393315866695" lon="120.76967677401983"><ele>5.5</ele><time>2026-04-18T08:31:37Z</time></trkpt><trkpt lat="14.962592914203059" lon="120.76949947427218"><ele>5.0</ele><time>2026-04-18T08:31:38Z</time></trkpt><trkpt lat="14.962795381316226" lon="120.76932280251438"><ele>5.0</ele><time>2026-04-18T08:31:39Z</time></trkpt><trkpt lat="14.962997851741298" lon="120.76914559571534"><ele>5.0</ele><time>2026-04-18T08:31:40Z</time></trkpt><trkpt lat="14.963201436285877" lon="120.76896586249953"><ele>4.5</ele><time>2026-04-18T08:31:41Z</time></trkpt><trkpt lat="14.963405468293987" lon="120.7687868131831"><ele>4.0</ele><time>2026-04-18T08:31:42Z</time></trkpt><trkpt lat="14.963608231827841" lon="120.7686091900316"><ele>4.5</ele><time>2026-04-18T08:31:43Z</time></trkpt><trkpt lat="14.96381349321953" lon="120.76842968734144"><ele>5.0</ele><time>2026-04-18T08:31:44Z</time></trkpt><trkpt lat="14.964016854761116" lon="120.76825167767595"><ele>6.0</ele><time>2026-04-18T08:31:45Z</time></trkpt><trkpt lat="14.964221257591845" lon="120.76807278213471"><ele>7.0</ele><time>2026-04-18T08:31:46Z</time></trkpt><trkpt lat="14.964425591202845" lon="120.76789261567527"><ele>7.0</ele><time>2026-04-18T08:31:47Z</time></trkpt><trkpt lat="14.964630503506893" lon="120.76771135275"><ele>7.0</ele><time>2026-04-18T08:31:48Z</time></trkpt><trkpt lat="14.964835799975923" lon="120.76753022026651"><ele>6.0</ele><time>2026-04-18T08:31:49Z</time></trkpt><trkpt lat="14.965040167335406" lon="120.76735018731301"><ele>5.0</ele><time>2026-04-18T08:31:50Z</time></trkpt><trkpt lat="14.965247412352246" lon="120.76717035806644"><ele>5.0</ele><time>2026-04-18T08:31:51Z</time></trkpt><trkpt lat="14.965454848126154" lon="120.76699138220268"><ele>5.0</ele><time>2026-04-18T08:31:52Z</time></trkpt><trkpt lat="14.965662532593946" lon="120.76681388481649"><ele>3.5</ele><time>2026-04-18T08:31:53Z</time></trkpt><trkpt lat="14.965865967257946" lon="120.76663767668337"><ele>2.0</ele><time>2026-04-18T08:31:54Z</time></trkpt><trkpt lat="14.96607430614678" lon="120.76646230867436"><ele>2.0</ele><time>2026-04-18T08:31:55Z</time></trkpt><trkpt lat="14.96627814311167" lon="120.76628869766974"><ele>2.0</ele><time>2026-04-18T08:31:56Z</time></trkpt><trkpt lat="14.966480705522214" lon="120.76611587734713"><ele>3.0</ele><time>2026-04-18T08:31:57Z</time></trkpt><trkpt lat="14.966683461679558" lon="120.76594336878311"><ele>4.0</ele><time>2026-04-18T08:31:58Z</time></trkpt><trkpt lat="14.96688432193705" lon="120.76576959892505"><ele>4.0</ele><time>2026-04-18T08:31:59Z</time></trkpt><trkpt lat="14.967085645239184" lon="120.76559803094071"><ele>4.0</ele><time>2026-04-18T08:32:00Z</time></trkpt><trkpt lat="14.96728643803984" lon="120.76542823464095"><ele>4.0</ele><time>2026-04-18T08:32:01Z</time></trkpt><trkpt lat="14.967487758798791" lon="120.76525964088668"><ele>4.0</ele><time>2026-04-18T08:32:02Z</time></trkpt><trkpt lat="14.96768918384142" lon="120.76509171826636"><ele>4.0</ele><time>2026-04-18T08:32:03Z</time></trkpt><trkpt lat="14.967889989343492" lon="120.764925852324"><ele>4.0</ele><time>2026-04-18T08:32:04Z</time></trkpt><trkpt lat="14.968090372470327" lon="120.76476157717774"><ele>4.0</ele><time>2026-04-18T08:32:05Z</time></trkpt><trkpt lat="14.968289255550594" lon="120.76459955821329"><ele>4.0</ele><time>2026-04-18T08:32:06Z</time></trkpt><trkpt lat="14.968484988420881" lon="120.76443959816429"><ele>7.0</ele><time>2026-04-18T08:32:07Z</time></trkpt><trkpt lat="14.968676977982456" lon="120.76428160783286"><ele>10.0</ele><time>2026-04-18T08:32:08Z</time></trkpt><trkpt lat="14.968864522864447" lon="120.76412743806057"><ele>10.0</ele><time>2026-04-18T08:32:09Z</time></trkpt><trkpt lat="14.969046388390892" lon="120.76397876707503"><ele>10.0</ele><time>2026-04-18T08:32:10Z</time></trkpt><trkpt lat="14.969223192418855" lon="120.76383457041527"><ele>9.666666666666668</ele><time>2026-04-18T08:32:11Z</time></trkpt><trkpt lat="14.969400058592862" lon="120.76369399104948"><ele>9.333333333333334</ele><time>2026-04-18T08:32:12Z</time></trkpt><trkpt lat="14.969577485711508" lon="120.76355099568265"><ele>9.0</ele><time>2026-04-18T08:32:13Z</time></trkpt><trkpt lat="14.969754574347098" lon="120.76340729362205"><ele>9.0</ele><time>2026-04-18T08:32:14Z</time></trkpt><trkpt lat="14.969930503015801" lon="120.76326412896202"><ele>9.0</ele><time>2026-04-18T08:32:15Z</time></trkpt><trkpt lat="14.97010777367692" lon="120.76312730049966"><ele>9.0</ele><time>2026-04-18T08:32:16Z</time></trkpt><trkpt lat="14.97028585627767" lon="120.76298759304865"><ele>8.333333333333334</ele><time>2026-04-18T08:32:17Z</time></trkpt><trkpt lat="14.97046264662706" lon="120.76284842648451"><ele>7.666666666666667</ele><time>2026-04-18T08:32:18Z</time></trkpt><trkpt lat="14.97064002634456" lon="120.76270820810605"><ele>7.0</ele><time>2026-04-18T08:32:19Z</time></trkpt><trkpt lat="14.97081987951414" lon="120.76256885778936"><ele>6.0</ele><time>2026-04-18T08:32:20Z</time></trkpt><trkpt lat="14.971003242988466" lon="120.7624284536171"><ele>5.0</ele><time>2026-04-18T08:32:21Z</time></trkpt><trkpt lat="14.971186037602596" lon="120.76228731350832"><ele>5.0</ele><time>2026-04-18T08:32:22Z</time></trkpt><trkpt lat="14.971371871178105" lon="120.76214581648786"><ele>5.0</ele><time>2026-04-18T08:32:23Z</time></trkpt><trkpt lat="14.971557930324382" lon="120.76200211424208"><ele>5.0</ele><time>2026-04-18T08:32:24Z</time></trkpt><trkpt lat="14.971743298358955" lon="120.76186003917545"><ele>5.0</ele><time>2026-04-18T08:32:25Z</time></trkpt><trkpt lat="14.97192875501012" lon="120.76171900207575"><ele>5.0</ele><time>2026-04-18T08:32:26Z</time></trkpt><trkpt lat="14.972112520539264" lon="120.76157898903645"><ele>5.0</ele><time>2026-04-18T08:32:27Z</time></trkpt><trkpt lat="14.972294864744903" lon="120.76144115327797"><ele>5.0</ele><time>2026-04-18T08:32:28Z</time></trkpt><trkpt lat="14.972477106602328" lon="120.76130398848058"><ele>5.0</ele><time>2026-04-18T08:32:29Z</time></trkpt><trkpt lat="14.97266034796098" lon="120.76116421773804"><ele>5.5</ele><time>2026-04-18T08:32:30Z</time></trkpt><trkpt lat="14.972844199070106" lon="120.76102498069088"><ele>6.0</ele><time>2026-04-18T08:32:31Z</time></trkpt><trkpt lat="14.973028838304186" lon="120.76088579585453"><ele>6.0</ele><time>2026-04-18T08:32:32Z</time></trkpt><trkpt lat="14.973214561753279" lon="120.76074976599368"><ele>6.0</ele><time>2026-04-18T08:32:33Z</time></trkpt><trkpt lat="14.973399556546685" lon="120.76061199378258"><ele>6.5</ele><time>2026-04-18T08:32:34Z</time></trkpt><trkpt lat="14.973586309484281" lon="120.76047408044866"><ele>7.0</ele><time>2026-04-18T08:32:35Z</time></trkpt><trkpt lat="14.97377131599216" lon="120.7603349882639"><ele>6.0</ele><time>2026-04-18T08:32:36Z</time></trkpt><trkpt lat="14.973958183351264" lon="120.76019686869702"><ele>5.0</ele><time>2026-04-18T08:32:37Z</time></trkpt><trkpt lat="14.974146429683904" lon="120.76005947166746"><ele>5.0</ele><time>2026-04-18T08:32:38Z</time></trkpt><trkpt lat="14.97433580114083" lon="120.75992140940869"><ele>5.0</ele><time>2026-04-18T08:32:39Z</time></trkpt><trkpt lat="14.974526836097446" lon="120.75978342452248"><ele>5.0</ele><time>2026-04-18T08:32:40Z</time></trkpt><trkpt lat="14.974718267265125" lon="120.75964369452761"><ele>5.0</ele><time>2026-04-18T08:32:41Z</time></trkpt><trkpt lat="14.974914061603958" lon="120.7595025556535"><ele>5.5</ele><time>2026-04-18T08:32:42Z</time></trkpt><trkpt lat="14.97511026660172" lon="120.75936008726102"><ele>6.0</ele><time>2026-04-18T08:32:43Z</time></trkpt><trkpt lat="14.975308623632484" lon="120.75921712167711"><ele>6.0</ele><time>2026-04-18T08:32:44Z</time></trkpt><trkpt lat="14.97550907175197" lon="120.75907495537308"><ele>6.0</ele><time>2026-04-18T08:32:45Z</time></trkpt><trkpt lat="14.975711443573896" lon="120.75893331132089"><ele>5.5</ele><time>2026-04-18T08:32:46Z</time></trkpt><trkpt lat="14.975916001984427" lon="120.75879244625877"><ele>5.0</ele><time>2026-04-18T08:32:47Z</time></trkpt><trkpt lat="14.97612046472745" lon="120.75865390349988"><ele>5.0</ele><time>2026-04-18T08:32:48Z</time></trkpt><trkpt lat="14.976328660952952" lon="120.75850905254666"><ele>5.0</ele><time>2026-04-18T08:32:49Z</time></trkpt><trkpt lat="14.976536530809739" lon="120.75836810080501"><ele>5.0</ele><time>2026-04-18T08:32:50Z</time></trkpt><trkpt lat="14.976742645885228" lon="120.75822298270022"><ele>5.0</ele><time>2026-04-18T08:32:51Z</time></trkpt><trkpt lat="14.976949650370699" lon="120.75807741194733"><ele>5.0</ele><time>2026-04-18T08:32:52Z</time></trkpt><trkpt lat="14.97715848290648" lon="120.75793360661864"><ele>5.0</ele><time>2026-04-18T08:32:53Z</time></trkpt><trkpt lat="14.977367465374842" lon="120.75778825897665"><ele>6.0</ele><time>2026-04-18T08:32:54Z</time></trkpt><trkpt lat="14.977577089068303" lon="120.75764350376815"><ele>7.0</ele><time>2026-04-18T08:32:55Z</time></trkpt><trkpt lat="14.97778539818658" lon="120.75749930606905"><ele>7.0</ele><time>2026-04-18T08:32:56Z</time></trkpt><trkpt lat="14.977993178711166" lon="120.75735871588469"><ele>7.0</ele><time>2026-04-18T08:32:57Z</time></trkpt><trkpt lat="14.978199587141479" lon="120.75721845362742"><ele>7.0</ele><time>2026-04-18T08:32:58Z</time></trkpt><trkpt lat="14.97840510849128" lon="120.7570802939079"><ele>7.0</ele><time>2026-04-18T08:32:59Z</time></trkpt><trkpt lat="14.978612332057516" lon="120.75694472111523"><ele>7.5</ele><time>2026-04-18T08:33:00Z</time></trkpt><trkpt lat="14.978818248670283" lon="120.75681016872858"><ele>8.0</ele><time>2026-04-18T08:33:01Z</time></trkpt><trkpt lat="14.979020295594523" lon="120.7566786958347"><ele>7.5</ele><time>2026-04-18T08:33:02Z</time></trkpt><trkpt lat="14.979219794515572" lon="120.75654988948472"><ele>7.0</ele><time>2026-04-18T08:33:03Z</time></trkpt><trkpt lat="14.979416154789266" lon="120.75642279938619"><ele>7.0</ele><time>2026-04-18T08:33:04Z</time></trkpt><trkpt lat="14.979609575877255" lon="120.7562974234655"><ele>7.0</ele><time>2026-04-18T08:33:05Z</time></trkpt><trkpt lat="14.979802818699488" lon="120.75617261961484"><ele>7.0</ele><time>2026-04-18T08:33:06Z</time></trkpt><trkpt lat="14.979995965947381" lon="120.75604980478127"><ele>7.0</ele><time>2026-04-18T08:33:07Z</time></trkpt><trkpt lat="14.980189332098206" lon="120.75592508520587"><ele>7.5</ele><time>2026-04-18T08:33:08Z</time></trkpt><trkpt lat="14.980383180514076" lon="120.75580142333186"><ele>8.0</ele><time>2026-04-18T08:33:09Z</time></trkpt><trkpt lat="14.980576626997332" lon="120.75567533901354"><ele>8.0</ele><time>2026-04-18T08:33:10Z</time></trkpt><trkpt lat="14.98077260809261" lon="120.75554793276679"><ele>8.0</ele><time>2026-04-18T08:33:11Z</time></trkpt><trkpt lat="14.980969040435275" lon="120.75542012116682"><ele>8.0</ele><time>2026-04-18T08:33:12Z</time></trkpt><trkpt lat="14.981167291208777" lon="120.75529504538567"><ele>8.0</ele><time>2026-04-18T08:33:13Z</time></trkpt><trkpt lat="14.981365380322027" lon="120.75516541011234"><ele>7.0</ele><time>2026-04-18T08:33:14Z</time></trkpt><trkpt lat="14.981565970872206" lon="120.75503558426581"><ele>6.0</ele><time>2026-04-18T08:33:15Z</time></trkpt><trkpt lat="14.981767029566635" lon="120.75490844692858"><ele>5.0</ele><time>2026-04-18T08:33:16Z</time></trkpt><trkpt lat="14.981969376238293" lon="120.75478207370773"><ele>4.0</ele><time>2026-04-18T08:33:17Z</time></trkpt><trkpt lat="14.98217218263134" lon="120.75465641235063"><ele>4.0</ele><time>2026-04-18T08:33:18Z</time></trkpt><trkpt lat="14.982374986078677" lon="120.75453200025773"><ele>4.0</ele><time>2026-04-18T08:33:19Z</time></trkpt><trkpt lat="14.982579285581595" lon="120.75440980446652"><ele>4.5</ele><time>2026-04-18T08:33:20Z</time></trkpt><trkpt lat="14.982785791755187" lon="120.75428835283776"><ele>5.0</ele><time>2026-04-18T08:33:21Z</time></trkpt><trkpt lat="14.982994424503618" lon="120.7541663488555"><ele>5.0</ele><time>2026-04-18T08:33:22Z</time></trkpt><trkpt lat="14.983204652042994" lon="120.75404305130489"><ele>5.0</ele><time>2026-04-18T08:33:23Z</time></trkpt><trkpt lat="14.983416868717104" lon="120.75392119359981"><ele>6.0</ele><time>2026-04-18T08:33:24Z</time></trkpt><trkpt lat="14.983633248767445" lon="120.75380318925401"><ele>7.0</ele><time>2026-04-18T08:33:25Z</time></trkpt><trkpt lat="14.98384805134639" lon="120.75367977305716"><ele>7.0</ele><time>2026-04-18T08:33:26Z</time></trkpt><trkpt lat="14.984065387856466" lon="120.75355844481281"><ele>7.0</ele><time>2026-04-18T08:33:27Z</time></trkpt><trkpt lat="14.984280432329967" lon="120.75343359886489"><ele>6.0</ele><time>2026-04-18T08:33:28Z</time></trkpt><trkpt lat="14.984496075669728" lon="120.75330909806662"><ele>5.0</ele><time>2026-04-18T08:33:29Z</time></trkpt><trkpt lat="14.9847077350733" lon="120.75318126689689"><ele>5.0</ele><time>2026-04-18T08:33:30Z</time></trkpt><trkpt lat="14.984914810587219" lon="120.75305280347271"><ele>5.0</ele><time>2026-04-18T08:33:31Z</time></trkpt><trkpt lat="14.985122062314383" lon="120.75292320972707"><ele>4.5</ele><time>2026-04-18T08:33:32Z</time></trkpt><trkpt lat="14.985327525851087" lon="120.75279427767654"><ele>4.0</ele><time>2026-04-18T08:33:33Z</time></trkpt><trkpt lat="14.985533246444856" lon="120.75266642743432"><ele>5.0</ele><time>2026-04-18T08:33:34Z</time></trkpt><trkpt lat="14.985736896496501" lon="120.75253793460531"><ele>6.0</ele><time>2026-04-18T08:33:35Z</time></trkpt><trkpt lat="14.985941457315755" lon="120.75241086556636"><ele>6.5</ele><time>2026-04-18T08:33:36Z</time></trkpt><trkpt lat="14.986147166870253" lon="120.75228510861777"><ele>7.0</ele><time>2026-04-18T08:33:37Z</time></trkpt><trkpt lat="14.986355475217804" lon="120.75216095430083"><ele>7.0</ele><time>2026-04-18T08:33:38Z</time></trkpt><trkpt lat="14.98656448810999" lon="120.75203835682807"><ele>7.0</ele><time>2026-04-18T08:33:39Z</time></trkpt><trkpt lat="14.986773497793804" lon="120.75191515834172"><ele>7.0</ele><time>2026-04-18T08:33:40Z</time></trkpt><trkpt lat="14.986983628487549" lon="120.75179186437767"><ele>7.0</ele><time>2026-04-18T08:33:41Z</time></trkpt><trkpt lat="14.987196282795798" lon="120.75167122375872"><ele>7.0</ele><time>2026-04-18T08:33:42Z</time></trkpt><trkpt lat="14.987409602096147" lon="120.75155058957168"><ele>7.0</ele><time>2026-04-18T08:33:43Z</time></trkpt><trkpt lat="14.987623312873412" lon="120.7514296675528"><ele>6.0</ele><time>2026-04-18T08:33:44Z</time></trkpt><trkpt lat="14.98783668265653" lon="120.7513085769833"><ele>5.0</ele><time>2026-04-18T08:33:45Z</time></trkpt><trkpt lat="14.988050099790469" lon="120.7511904965377"><ele>5.0</ele><time>2026-04-18T08:33:46Z</time></trkpt><trkpt lat="14.98826340402514" lon="120.75106774036828"><ele>5.0</ele><time>2026-04-18T08:33:47Z</time></trkpt><trkpt lat="14.988476348724197" lon="120.75094760034833"><ele>7.0</ele><time>2026-04-18T08:33:48Z</time></trkpt><trkpt lat="14.988690100302438" lon="120.75082629287428"><ele>9.0</ele><time>2026-04-18T08:33:49Z</time></trkpt><trkpt lat="14.988904626118913" lon="120.75070346682823"><ele>9.0</ele><time>2026-04-18T08:33:50Z</time></trkpt><trkpt lat="14.989120532311855" lon="120.75058306743723"><ele>9.0</ele><time>2026-04-18T08:33:51Z</time></trkpt><trkpt lat="14.989337597803068" lon="120.75045959326594"><ele>9.0</ele><time>2026-04-18T08:33:52Z</time></trkpt><trkpt lat="14.98955528933398" lon="120.75033727281269"><ele>9.0</ele><time>2026-04-18T08:33:53Z</time></trkpt><trkpt lat="14.989775081897372" lon="120.75021448801118"><ele>9.5</ele><time>2026-04-18T08:33:54Z</time></trkpt><trkpt lat="14.989996640570096" lon="120.75009269488271"><ele>10.0</ele><time>2026-04-18T08:33:55Z</time></trkpt><trkpt lat="14.99022016900189" lon="120.74997145212069"><ele>10.5</ele><time>2026-04-18T08:33:56Z</time></trkpt><trkpt lat="14.990445065481012" lon="120.74984930893967"><ele>11.0</ele><time>2026-04-18T08:33:57Z</time></trkpt><trkpt lat="14.990668004300511" lon="120.74972994710559"><ele>10.0</ele><time>2026-04-18T08:33:58Z</time></trkpt><trkpt lat="14.990888832974555" lon="120.74960375566876"><ele>9.0</ele><time>2026-04-18T08:33:59Z</time></trkpt><trkpt lat="14.991110895272985" lon="120.74947808550436"><ele>9.5</ele><time>2026-04-18T08:34:00Z</time></trkpt><trkpt lat="14.991330474395829" lon="120.74935258440446"><ele>10.0</ele><time>2026-04-18T08:34:01Z</time></trkpt><trkpt lat="14.991552610107304" lon="120.74922682526677"><ele>11.0</ele><time>2026-04-18T08:34:02Z</time></trkpt><trkpt lat="14.991775066706767" lon="120.7491013286809"><ele>12.0</ele><time>2026-04-18T08:34:03Z</time></trkpt><trkpt lat="14.99199723307448" lon="120.74897525886117"><ele>12.0</ele><time>2026-04-18T08:34:04Z</time></trkpt><trkpt lat="14.992219590055084" lon="120.74884784823713"><ele>12.0</ele><time>2026-04-18T08:34:05Z</time></trkpt><trkpt lat="14.992442768221714" lon="120.7487208664647"><ele>11.5</ele><time>2026-04-18T08:34:06Z</time></trkpt><trkpt lat="14.992665949999756" lon="120.74859227096809"><ele>11.0</ele><time>2026-04-18T08:34:07Z</time></trkpt><trkpt lat="14.992889507607499" lon="120.74846328412946"><ele>12.0</ele><time>2026-04-18T08:34:08Z</time></trkpt><trkpt lat="14.99311458806444" lon="120.74833325301881"><ele>13.0</ele><time>2026-04-18T08:34:09Z</time></trkpt><trkpt lat="14.993338205829048" lon="120.74820433919679"><ele>10.5</ele><time>2026-04-18T08:34:10Z</time></trkpt><trkpt lat="14.993561824237803" lon="120.74807534823266"><ele>8.0</ele><time>2026-04-18T08:34:11Z</time></trkpt><trkpt lat="14.99378582825856" lon="120.74794666320268"><ele>8.0</ele><time>2026-04-18T08:34:12Z</time></trkpt><trkpt lat="14.994009172376652" lon="120.74781639564483"><ele>8.0</ele><time>2026-04-18T08:34:13Z</time></trkpt><trkpt lat="14.994233574997152" lon="120.74768617012327"><ele>8.0</ele><time>2026-04-18T08:34:14Z</time></trkpt><trkpt lat="14.99445732154353" lon="120.74755416243977"><ele>8.0</ele><time>2026-04-18T08:34:15Z</time></trkpt><trkpt lat="14.994681604161046" lon="120.74742176618679"><ele>8.0</ele><time>2026-04-18T08:34:16Z</time></trkpt><trkpt lat="14.99490490276494" lon="120.74728765038616"><ele>8.0</ele><time>2026-04-18T08:34:17Z</time></trkpt><trkpt lat="14.995127056379275" lon="120.7471532478908"><ele>8.5</ele><time>2026-04-18T08:34:18Z</time></trkpt><trkpt lat="14.99534974552979" lon="120.74702001378131"><ele>9.0</ele><time>2026-04-18T08:34:19Z</time></trkpt><trkpt lat="14.995571603735378" lon="120.74688513680023"><ele>8.5</ele><time>2026-04-18T08:34:20Z</time></trkpt><trkpt lat="14.995792714984187" lon="120.74675076892487"><ele>8.0</ele><time>2026-04-18T08:34:21Z</time></trkpt><trkpt lat="14.996012232273445" lon="120.74661635721611"><ele>7.0</ele><time>2026-04-18T08:34:22Z</time></trkpt><trkpt lat="14.99623076881819" lon="120.74648133038846"><ele>6.0</ele><time>2026-04-18T08:34:23Z</time></trkpt><trkpt lat="14.996448884825124" lon="120.74634695240132"><ele>6.0</ele><time>2026-04-18T08:34:24Z</time></trkpt><trkpt lat="14.99666703467824" lon="120.74621297364122"><ele>6.0</ele><time>2026-04-18T08:34:25Z</time></trkpt><trkpt lat="14.996884729373015" lon="120.74607908179472"><ele>6.0</ele><time>2026-04-18T08:34:26Z</time></trkpt><trkpt lat="14.997101322188314" lon="120.74594470003846"><ele>6.0</ele><time>2026-04-18T08:34:27Z</time></trkpt><trkpt lat="14.997316814092203" lon="120.74580961045672"><ele>5.0</ele><time>2026-04-18T08:34:28Z</time></trkpt><trkpt lat="14.997531620353401" lon="120.74567598346262"><ele>4.0</ele><time>2026-04-18T08:34:29Z</time></trkpt><trkpt lat="14.997744940584028" lon="120.74554198039667"><ele>4.0</ele><time>2026-04-18T08:34:30Z</time></trkpt><trkpt lat="14.997955435243798" lon="120.74540793963675"><ele>4.0</ele><time>2026-04-18T08:34:31Z</time></trkpt><trkpt lat="14.99816287064984" lon="120.74527463334346"><ele>4.5</ele><time>2026-04-18T08:34:32Z</time></trkpt><trkpt lat="14.998366563821074" lon="120.74514275375331"><ele>5.0</ele><time>2026-04-18T08:34:33Z</time></trkpt><trkpt lat="14.998567060380838" lon="120.7450132271436"><ele>5.0</ele><time>2026-04-18T08:34:34Z</time></trkpt><trkpt lat="14.998765272399675" lon="120.74488654635701"><ele>5.0</ele><time>2026-04-18T08:34:35Z</time></trkpt><trkpt lat="14.998962091679164" lon="120.74476010767219"><ele>5.0</ele><time>2026-04-18T08:34:36Z</time></trkpt><trkpt lat="14.99915931938973" lon="120.74463132623353"><ele>5.0</ele><time>2026-04-18T08:34:37Z</time></trkpt><trkpt lat="14.999357608204079" lon="120.74450380833483"><ele>6.0</ele><time>2026-04-18T08:34:38Z</time></trkpt><trkpt lat="14.99955625833118" lon="120.74437604685352"><ele>7.0</ele><time>2026-04-18T08:34:39Z</time></trkpt><trkpt lat="14.99975591875234" lon="120.74424908664416"><ele>7.0</ele><time>2026-04-18T08:34:40Z</time></trkpt><trkpt lat="14.999956439663134" lon="120.74412312041204"><ele>7.0</ele><time>2026-04-18T08:34:41Z</time></trkpt><trkpt lat="15.00015423163795" lon="120.74399904992566"><ele>7.0</ele><time>2026-04-18T08:34:42Z</time></trkpt><trkpt lat="15.000349220921127" lon="120.74387600347694"><ele>7.0</ele><time>2026-04-18T08:34:43Z</time></trkpt><trkpt lat="15.00054435690137" lon="120.74375266832051"><ele>7.0</ele><time>2026-04-18T08:34:44Z</time></trkpt><trkpt lat="15.000739193208444" lon="120.74362676084102"><ele>7.0</ele><time>2026-04-18T08:34:45Z</time></trkpt><trkpt lat="15.000933372374103" lon="120.74349458294834"><ele>6.5</ele><time>2026-04-18T08:34:46Z</time></trkpt><trkpt lat="15.00112921866628" lon="120.7433615848396"><ele>6.0</ele><time>2026-04-18T08:34:47Z</time></trkpt><trkpt lat="15.001326947514977" lon="120.74322472703876"><ele>6.0</ele><time>2026-04-18T08:34:48Z</time></trkpt><trkpt lat="15.001523068513883" lon="120.74308192173932"><ele>6.0</ele><time>2026-04-18T08:34:49Z</time></trkpt><trkpt lat="15.001721375068177" lon="120.74293915995561"><ele>7.0</ele><time>2026-04-18T08:34:50Z</time></trkpt><trkpt lat="15.001920491519288" lon="120.74279648337516"><ele>8.0</ele><time>2026-04-18T08:34:51Z</time></trkpt><trkpt lat="15.002118518361902" lon="120.74265547689596"><ele>8.0</ele><time>2026-04-18T08:34:52Z</time></trkpt><trkpt lat="15.002315307121004" lon="120.74251460578357"><ele>8.0</ele><time>2026-04-18T08:34:53Z</time></trkpt><trkpt lat="15.002508621190774" lon="120.74237577145567"><ele>9.0</ele><time>2026-04-18T08:34:54Z</time></trkpt><trkpt lat="15.002698812516728" lon="120.74223925272283"><ele>10.0</ele><time>2026-04-18T08:34:55Z</time></trkpt><trkpt lat="15.002890061694961" lon="120.7421037716043"><ele>10.0</ele><time>2026-04-18T08:34:56Z</time></trkpt><trkpt lat="15.00308204518097" lon="120.74196825742963"><ele>10.0</ele><time>2026-04-18T08:34:57Z</time></trkpt><trkpt lat="15.00327459198904" lon="120.74183112982934"><ele>8.0</ele><time>2026-04-18T08:34:58Z</time></trkpt><trkpt lat="15.003468382809157" lon="120.7416952143798"><ele>6.0</ele><time>2026-04-18T08:34:59Z</time></trkpt><trkpt lat="15.003662775515272" lon="120.74155994665445"><ele>6.0</ele><time>2026-04-18T08:35:00Z</time></trkpt><trkpt lat="15.003857653978319" lon="120.74142251412465"><ele>6.0</ele><time>2026-04-18T08:35:01Z</time></trkpt><trkpt lat="15.004051865090943" lon="120.7412857863869"><ele>6.0</ele><time>2026-04-18T08:35:02Z</time></trkpt><trkpt lat="15.004243276057814" lon="120.74115046523545"><ele>6.0</ele><time>2026-04-18T08:35:03Z</time></trkpt><trkpt lat="15.004431205610931" lon="120.7410151089078"><ele>6.0</ele><time>2026-04-18T08:35:04Z</time></trkpt><trkpt lat="15.004615199384956" lon="120.74087905796343"><ele>6.0</ele><time>2026-04-18T08:35:05Z</time></trkpt><trkpt lat="15.004795756695563" lon="120.74074679107855"><ele>6.0</ele><time>2026-04-18T08:35:06Z</time></trkpt><trkpt lat="15.004973199215232" lon="120.74061654174366"><ele>5.666666666666667</ele><time>2026-04-18T08:35:07Z</time></trkpt><trkpt lat="15.005147822555367" lon="120.74048726792736"><ele>5.333333333333334</ele><time>2026-04-18T08:35:08Z</time></trkpt><trkpt lat="15.00531802322114" lon="120.7403639642234"><ele>5.0</ele><time>2026-04-18T08:35:09Z</time></trkpt><trkpt lat="15.005479888001048" lon="120.7402445272453"><ele>5.0</ele><time>2026-04-18T08:35:10Z</time></trkpt><trkpt lat="15.005637233661862" lon="120.74012925935945"><ele>5.0</ele><time>2026-04-18T08:35:11Z</time></trkpt><trkpt lat="15.005792665267657" lon="120.7400167593796"><ele>5.0</ele><time>2026-04-18T08:35:12Z</time></trkpt><trkpt lat="15.005945176970048" lon="120.73990608644975"><ele>5.0</ele><time>2026-04-18T08:35:13Z</time></trkpt><trkpt lat="15.006094672008155" lon="120.73979690778194"><ele>5.0</ele><time>2026-04-18T08:35:14Z</time></trkpt><trkpt lat="15.006244511976698" lon="120.7396852257332"><ele>5.0</ele><time>2026-04-18T08:35:15Z</time></trkpt><trkpt lat="15.0063966137305" lon="120.73957213470098"><ele>5.0</ele><time>2026-04-18T08:35:16Z</time></trkpt><trkpt lat="15.006552669147005" lon="120.73945921327208"><ele>5.0</ele><time>2026-04-18T08:35:17Z</time></trkpt><trkpt lat="15.006709460600135" lon="120.73934315134112"><ele>5.0</ele><time>2026-04-18T08:35:18Z</time></trkpt><trkpt lat="15.006869103123007" lon="120.73922332398418"><ele>5.666666666666667</ele><time>2026-04-18T08:35:19Z</time></trkpt><trkpt lat="15.007028378761284" lon="120.7391018559541"><ele>6.333333333333334</ele><time>2026-04-18T08:35:20Z</time></trkpt><trkpt lat="15.007189937466762" lon="120.73897864469332"><ele>7.0</ele><time>2026-04-18T08:35:21Z</time></trkpt><trkpt lat="15.007352820919406" lon="120.73885449222529"><ele>7.0</ele><time>2026-04-18T08:35:22Z</time></trkpt><trkpt lat="15.007518429907075" lon="120.73872974761147"><ele>7.0</ele><time>2026-04-18T08:35:23Z</time></trkpt><trkpt lat="15.007685364454169" lon="120.7386038432374"><ele>7.0</ele><time>2026-04-18T08:35:24Z</time></trkpt><trkpt lat="15.00785452926001" lon="120.73847589575699"><ele>6.333333333333334</ele><time>2026-04-18T08:35:25Z</time></trkpt><trkpt lat="15.00802230719587" lon="120.73834698365482"><ele>5.666666666666667</ele><time>2026-04-18T08:35:26Z</time></trkpt><trkpt lat="15.008188927468233" lon="120.73821647115258"><ele>5.0</ele><time>2026-04-18T08:35:27Z</time></trkpt><trkpt lat="15.008356637365429" lon="120.73808445769345"><ele>5.0</ele><time>2026-04-18T08:35:28Z</time></trkpt><trkpt lat="15.008522283368706" lon="120.73795318617012"><ele>5.0</ele><time>2026-04-18T08:35:29Z</time></trkpt><trkpt lat="15.00868495364198" lon="120.73782482165802"><ele>5.0</ele><time>2026-04-18T08:35:30Z</time></trkpt><trkpt lat="15.008839643983249" lon="120.73770162051738"><ele>4.666666666666667</ele><time>2026-04-18T08:35:31Z</time></trkpt><trkpt lat="15.00899238237113" lon="120.73758164413489"><ele>4.333333333333333</ele><time>2026-04-18T08:35:32Z</time></trkpt><trkpt lat="15.00914357222672" lon="120.73746325109133"><ele>4.0</ele><time>2026-04-18T08:35:33Z</time></trkpt><trkpt lat="15.00929336249332" lon="120.73734730207421"><ele>5.0</ele><time>2026-04-18T08:35:34Z</time></trkpt><trkpt lat="15.009441036881837" lon="120.73723191606943"><ele>6.0</ele><time>2026-04-18T08:35:35Z</time></trkpt><trkpt lat="15.009591138725286" lon="120.73711350259202"><ele>7.0</ele><time>2026-04-18T08:35:36Z</time></trkpt><trkpt lat="15.00974224390716" lon="120.73699445667427"><ele>6.333333333333334</ele><time>2026-04-18T08:35:37Z</time></trkpt><trkpt lat="15.009894791379594" lon="120.73687414854624"><ele>5.666666666666667</ele><time>2026-04-18T08:35:38Z</time></trkpt><trkpt lat="15.010048370815053" lon="120.73675386043638"><ele>5.0</ele><time>2026-04-18T08:35:39Z</time></trkpt><trkpt lat="15.010202673855128" lon="120.73663046007904"><ele>5.0</ele><time>2026-04-18T08:35:40Z</time></trkpt><trkpt lat="15.010359466116258" lon="120.73650701728168"><ele>5.0</ele><time>2026-04-18T08:35:41Z</time></trkpt><trkpt lat="15.010516762507594" lon="120.73638089394238"><ele>5.0</ele><time>2026-04-18T08:35:42Z</time></trkpt><trkpt lat="15.010676240552035" lon="120.73625195692769"><ele>5.333333333333334</ele><time>2026-04-18T08:35:43Z</time></trkpt><trkpt lat="15.010837947293732" lon="120.73612137281111"><ele>5.666666666666667</ele><time>2026-04-18T08:35:44Z</time></trkpt><trkpt lat="15.01099963566231" lon="120.7359893278647"><ele>6.0</ele><time>2026-04-18T08:35:45Z</time></trkpt><trkpt lat="15.01116332815488" lon="120.73585690914715"><ele>6.0</ele><time>2026-04-18T08:35:46Z</time></trkpt><trkpt lat="15.01132905730627" lon="120.73572377176498"><ele>6.0</ele><time>2026-04-18T08:35:47Z</time></trkpt><trkpt lat="15.011495023813913" lon="120.73558873529926"><ele>6.0</ele><time>2026-04-18T08:35:48Z</time></trkpt><trkpt lat="15.01166148386663" lon="120.73545141025791"><ele>6.333333333333334</ele><time>2026-04-18T08:35:49Z</time></trkpt><trkpt lat="15.01182922445823" lon="120.73531214334763"><ele>6.666666666666667</ele><time>2026-04-18T08:35:50Z</time></trkpt><trkpt lat="15.011996884414648" lon="120.73517229555102"><ele>7.0</ele><time>2026-04-18T08:35:51Z</time></trkpt><trkpt lat="15.01216552524644" lon="120.73503021140647"><ele>7.333333333333334</ele><time>2026-04-18T08:35:52Z</time></trkpt><trkpt lat="15.012335303618935" lon="120.73488991448964"><ele>7.666666666666666</ele><time>2026-04-18T08:35:53Z</time></trkpt><trkpt lat="15.012504092434732" lon="120.73475006762091"><ele>8.0</ele><time>2026-04-18T08:35:54Z</time></trkpt><trkpt lat="15.012671990322133" lon="120.73461193415251"><ele>8.0</ele><time>2026-04-18T08:35:55Z</time></trkpt><trkpt lat="15.012841571541228" lon="120.73447425389396"><ele>8.0</ele><time>2026-04-18T08:35:56Z</time></trkpt><trkpt lat="15.013011120753285" lon="120.73433476489097"><ele>8.0</ele><time>2026-04-18T08:35:57Z</time></trkpt><trkpt lat="15.013179824908368" lon="120.73419685857303"><ele>7.333333333333333</ele><time>2026-04-18T08:35:58Z</time></trkpt><trkpt lat="15.013345611296156" lon="120.73406171350533"><ele>6.666666666666666</ele><time>2026-04-18T08:35:59Z</time></trkpt><trkpt lat="15.013506263351795" lon="120.7339270399276"><ele>6.0</ele><time>2026-04-18T08:36:00Z</time></trkpt><trkpt lat="15.013664972409423" lon="120.73379547548691"><ele>6.0</ele><time>2026-04-18T08:36:01Z</time></trkpt><trkpt lat="15.013817390518417" lon="120.73366584572835"><ele>6.0</ele><time>2026-04-18T08:36:02Z</time></trkpt><trkpt lat="15.013967942962338" lon="120.73353603701143"><ele>6.0</ele><time>2026-04-18T08:36:03Z</time></trkpt><trkpt lat="15.014116954726893" lon="120.73340741430779"><ele>6.0</ele><time>2026-04-18T08:36:04Z</time></trkpt><trkpt lat="15.014264892374923" lon="120.73327884853144"><ele>6.0</ele><time>2026-04-18T08:36:05Z</time></trkpt><trkpt lat="15.014411968757132" lon="120.73315121406242"><ele>6.0</ele><time>2026-04-18T08:36:06Z</time></trkpt><trkpt lat="15.014558283005323" lon="120.73302279451735"><ele>6.0</ele><time>2026-04-18T08:36:07Z</time></trkpt><trkpt lat="15.014703770750737" lon="120.73289455896754"><ele>6.0</ele><time>2026-04-18T08:36:08Z</time></trkpt><trkpt lat="15.014848372673484" lon="120.73276701630975"><ele>6.0</ele><time>2026-04-18T08:36:09Z</time></trkpt><trkpt lat="15.014993953748126" lon="120.73263930486736"><ele>6.0</ele><time>2026-04-18T08:36:10Z</time></trkpt><trkpt lat="15.015140340204715" lon="120.73251032473033"><ele>6.0</ele><time>2026-04-18T08:36:11Z</time></trkpt><trkpt lat="15.015286993931735" lon="120.73237987152812"><ele>6.0</ele><time>2026-04-18T08:36:12Z</time></trkpt><trkpt lat="15.015436437023993" lon="120.7322487323896"><ele>6.0</ele><time>2026-04-18T08:36:13Z</time></trkpt><trkpt lat="15.015587489763673" lon="120.73211502663327"><ele>6.0</ele><time>2026-04-18T08:36:14Z</time></trkpt><trkpt lat="15.015738044880619" lon="120.73198036086455"><ele>6.0</ele><time>2026-04-18T08:36:15Z</time></trkpt><trkpt lat="15.015888602168605" lon="120.73184503129738"><ele>6.333333333333334</ele><time>2026-04-18T08:36:16Z</time></trkpt><trkpt lat="15.016040431982264" lon="120.73170930026056"><ele>6.666666666666667</ele><time>2026-04-18T08:36:17Z</time></trkpt><trkpt lat="15.0161918824022" lon="120.73157172470493"><ele>7.0</ele><time>2026-04-18T08:36:18Z</time></trkpt><trkpt lat="15.016344958814601" lon="120.7314317450456"><ele>7.0</ele><time>2026-04-18T08:36:19Z</time></trkpt><trkpt lat="15.016500028679452" lon="120.73128751272748"><ele>7.0</ele><time>2026-04-18T08:36:20Z</time></trkpt><trkpt lat="15.016653423229895" lon="120.73114288458736"><ele>7.0</ele><time>2026-04-18T08:36:21Z</time></trkpt><trkpt lat="15.01680609494452" lon="120.73099518353975"><ele>6.666666666666667</ele><time>2026-04-18T08:36:22Z</time></trkpt><trkpt lat="15.016957114023198" lon="120.7308494910616"><ele>6.333333333333334</ele><time>2026-04-18T08:36:23Z</time></trkpt><trkpt lat="15.017111079548522" lon="120.73070612853458"><ele>6.0</ele><time>2026-04-18T08:36:24Z</time></trkpt><trkpt lat="15.01726609448105" lon="120.73056344581512"><ele>6.0</ele><time>2026-04-18T08:36:25Z</time></trkpt><trkpt lat="15.01742067553814" lon="120.73041983929622"><ele>6.0</ele><time>2026-04-18T08:36:26Z</time></trkpt><trkpt lat="15.017574691529866" lon="120.73027402714027"><ele>6.0</ele><time>2026-04-18T08:36:27Z</time></trkpt><trkpt lat="15.017730586061887" lon="120.73012786623696"><ele>6.666666666666666</ele><time>2026-04-18T08:36:28Z</time></trkpt><trkpt lat="15.01788722336313" lon="120.72998077562782"><ele>7.333333333333333</ele><time>2026-04-18T08:36:29Z</time></trkpt><trkpt lat="15.018044814664886" lon="120.72983274495915"><ele>8.0</ele><time>2026-04-18T08:36:30Z</time></trkpt><trkpt lat="15.018204281459855" lon="120.72968430337002"><ele>6.666666666666666</ele><time>2026-04-18T08:36:31Z</time></trkpt><trkpt lat="15.01836358713931" lon="120.72953456551699"><ele>5.333333333333333</ele><time>2026-04-18T08:36:32Z</time></trkpt><trkpt lat="15.01852219869128" lon="120.729385384993"><ele>4.0</ele><time>2026-04-18T08:36:33Z</time></trkpt><trkpt lat="15.01867889432144" lon="120.72923730010623"><ele>4.0</ele><time>2026-04-18T08:36:34Z</time></trkpt><trkpt lat="15.018834832277157" lon="120.72909137309377"><ele>4.0</ele><time>2026-04-18T08:36:35Z</time></trkpt><trkpt lat="15.018989382707966" lon="120.72894561393952"><ele>4.0</ele><time>2026-04-18T08:36:36Z</time></trkpt><trkpt lat="15.019143943639268" lon="120.72879834582866"><ele>3.6666666666666665</ele><time>2026-04-18T08:36:37Z</time></trkpt><trkpt lat="15.019300304002599" lon="120.72864952177373"><ele>3.333333333333333</ele><time>2026-04-18T08:36:38Z</time></trkpt><trkpt lat="15.019457926495825" lon="120.72850001687928"><ele>3.0</ele><time>2026-04-18T08:36:39Z</time></trkpt><trkpt lat="15.019616873908284" lon="120.72834786997494"><ele>2.6666666666666665</ele><time>2026-04-18T08:36:40Z</time></trkpt><trkpt lat="15.019774251623042" lon="120.7281952138285"><ele>2.333333333333333</ele><time>2026-04-18T08:36:41Z</time></trkpt><trkpt lat="15.019933982230064" lon="120.72804070391113"><ele>2.0</ele><time>2026-04-18T08:36:42Z</time></trkpt><trkpt lat="15.020095150118598" lon="120.72788645737873"><ele>1.6666666666666665</ele><time>2026-04-18T08:36:43Z</time></trkpt><trkpt lat="15.020257149537686" lon="120.72772945039699"><ele>1.3333333333333333</ele><time>2026-04-18T08:36:44Z</time></trkpt><trkpt lat="15.020418352521887" lon="120.72757002444257"><ele>1.0</ele><time>2026-04-18T08:36:45Z</time></trkpt><trkpt lat="15.020580027284902" lon="120.727410541099"><ele>1.0</ele><time>2026-04-18T08:36:46Z</time></trkpt><trkpt lat="15.020742702391754" lon="120.72724978380548"><ele>1.0</ele><time>2026-04-18T08:36:47Z</time></trkpt><trkpt lat="15.020902816403515" lon="120.7270892612278"><ele>1.0</ele><time>2026-04-18T08:36:48Z</time></trkpt><trkpt lat="15.02106320556568" lon="120.72692929817788"><ele>2.0</ele><time>2026-04-18T08:36:49Z</time></trkpt><trkpt lat="15.021224348447369" lon="120.72676826118193"><ele>3.0</ele><time>2026-04-18T08:36:50Z</time></trkpt><trkpt lat="15.021386702149062" lon="120.72660697953714"><ele>4.0</ele><time>2026-04-18T08:36:51Z</time></trkpt><trkpt lat="15.02154901422171" lon="120.7264447809515"><ele>5.5</ele><time>2026-04-18T08:36:52Z</time></trkpt><trkpt lat="15.02171225158487" lon="120.72628142928575"><ele>7.0</ele><time>2026-04-18T08:36:53Z</time></trkpt><trkpt lat="15.021876589787112" lon="120.72611566438337"><ele>7.5</ele><time>2026-04-18T08:36:54Z</time></trkpt><trkpt lat="15.022041716415119" lon="120.72594881934127"><ele>8.0</ele><time>2026-04-18T08:36:55Z</time></trkpt><trkpt lat="15.022207119709082" lon="120.72578062197582"><ele>8.0</ele><time>2026-04-18T08:36:56Z</time></trkpt><trkpt lat="15.022373282087614" lon="120.72561267707205"><ele>8.0</ele><time>2026-04-18T08:36:57Z</time></trkpt><trkpt lat="15.022541837292916" lon="120.7254420564495"><ele>7.5</ele><time>2026-04-18T08:36:58Z</time></trkpt><trkpt lat="15.022711414801297" lon="120.72526991608827"><ele>7.0</ele><time>2026-04-18T08:36:59Z</time></trkpt><trkpt lat="15.022883961010168" lon="120.72509632137357"><ele>7.0</ele><time>2026-04-18T08:37:00Z</time></trkpt><trkpt lat="15.023057902629926" lon="120.72492298189349"><ele>7.0</ele><time>2026-04-18T08:37:01Z</time></trkpt><trkpt lat="15.023231504008171" lon="120.72474890672639"><ele>7.0</ele><time>2026-04-18T08:37:02Z</time></trkpt><trkpt lat="15.023405866620836" lon="120.72457610764923"><ele>7.0</ele><time>2026-04-18T08:37:03Z</time></trkpt><trkpt lat="15.023578766556636" lon="120.72440539625603"><ele>7.0</ele><time>2026-04-18T08:37:04Z</time></trkpt><trkpt lat="15.023747633321792" lon="120.72423376181395"><ele>7.0</ele><time>2026-04-18T08:37:05Z</time></trkpt><trkpt lat="15.023908525438621" lon="120.72406407886535"><ele>7.0</ele><time>2026-04-18T08:37:06Z</time></trkpt><trkpt lat="15.024065385442105" lon="120.72389877574544"><ele>7.0</ele><time>2026-04-18T08:37:07Z</time></trkpt><trkpt lat="15.024218569835403" lon="120.72373691112334"><ele>7.0</ele><time>2026-04-18T08:37:08Z</time></trkpt><trkpt lat="15.024366226875228" lon="120.7235800939299"><ele>7.0</ele><time>2026-04-18T08:37:09Z</time></trkpt><trkpt lat="15.024513637517781" lon="120.72340807264348"><ele>7.0</ele><time>2026-04-18T08:37:10Z</time></trkpt><trkpt lat="15.02465864986102" lon="120.72324845987863"><ele>7.0</ele><time>2026-04-18T08:37:11Z</time></trkpt><trkpt lat="15.024798386681486" lon="120.72309000393454"><ele>7.0</ele><time>2026-04-18T08:37:12Z</time></trkpt><trkpt lat="15.024937518495099" lon="120.7229311448171"><ele>7.0</ele><time>2026-04-18T08:37:13Z</time></trkpt><trkpt lat="15.025079219278965" lon="120.72277417365432"><ele>7.0</ele><time>2026-04-18T08:37:14Z</time></trkpt><trkpt lat="15.025221511337056" lon="120.72261537300264"><ele>5.666666666666667</ele><time>2026-04-18T08:37:15Z</time></trkpt><trkpt lat="15.02536381765128" lon="120.7224571319623"><ele>4.333333333333334</ele><time>2026-04-18T08:37:16Z</time></trkpt><trkpt lat="15.02550779826141" lon="120.72229547782678"><ele>3.0</ele><time>2026-04-18T08:37:17Z</time></trkpt><trkpt lat="15.025653148447704" lon="120.722133495992"><ele>3.0</ele><time>2026-04-18T08:37:18Z</time></trkpt><trkpt lat="15.02580001946946" lon="120.72197127093864"><ele>3.0</ele><time>2026-04-18T08:37:19Z</time></trkpt><trkpt lat="15.025947703515158" lon="120.72180724665557"><ele>3.0</ele><time>2026-04-18T08:37:20Z</time></trkpt><trkpt lat="15.02609574443519" lon="120.72164190733032"><ele>4.0</ele><time>2026-04-18T08:37:21Z</time></trkpt><trkpt lat="15.026244035008988" lon="120.72147558054131"><ele>5.0</ele><time>2026-04-18T08:37:22Z</time></trkpt><trkpt lat="15.026390494223982" lon="120.72130996197946"><ele>6.0</ele><time>2026-04-18T08:37:23Z</time></trkpt><trkpt lat="15.026532908017687" lon="120.72115032859082"><ele>6.0</ele><time>2026-04-18T08:37:24Z</time></trkpt><trkpt lat="15.026670152016864" lon="120.72099756078354"><ele>6.0</ele><time>2026-04-18T08:37:25Z</time></trkpt><trkpt lat="15.026804640539066" lon="120.72084631144234"><ele>6.0</ele><time>2026-04-18T08:37:26Z</time></trkpt><trkpt lat="15.026936919201205" lon="120.72069602439768"><ele>6.0</ele><time>2026-04-18T08:37:27Z</time></trkpt><trkpt lat="15.027069949872285" lon="120.72054567395413"><ele>6.0</ele><time>2026-04-18T08:37:28Z</time></trkpt><trkpt lat="15.027202895929072" lon="120.72039428225372"><ele>6.0</ele><time>2026-04-18T08:37:29Z</time></trkpt><trkpt lat="15.027336083219565" lon="120.72024111379405"><ele>6.333333333333334</ele><time>2026-04-18T08:37:30Z</time></trkpt><trkpt lat="15.027472510283992" lon="120.72008777940081"><ele>6.666666666666667</ele><time>2026-04-18T08:37:31Z</time></trkpt><trkpt lat="15.02760718182979" lon="120.7199326346502"><ele>7.0</ele><time>2026-04-18T08:37:32Z</time></trkpt><trkpt lat="15.027740262742064" lon="120.7197805637001"><ele>6.666666666666667</ele><time>2026-04-18T08:37:33Z</time></trkpt><trkpt lat="15.027870829895301" lon="120.7196318925218"><ele>6.333333333333334</ele><time>2026-04-18T08:37:34Z</time></trkpt><trkpt lat="15.02799707276665" lon="120.71948472287735"><ele>6.0</ele><time>2026-04-18T08:37:35Z</time></trkpt><trkpt lat="15.028121784782895" lon="120.71934156127958"><ele>6.0</ele><time>2026-04-18T08:37:36Z</time></trkpt><trkpt lat="15.028245604131913" lon="120.7191986119427"><ele>6.0</ele><time>2026-04-18T08:37:37Z</time></trkpt><trkpt lat="15.028367815143188" lon="120.71905515399928"><ele>6.0</ele><time>2026-04-18T08:37:38Z</time></trkpt><trkpt lat="15.028490187590148" lon="120.71891022149944"><ele>6.333333333333334</ele><time>2026-04-18T08:37:39Z</time></trkpt><trkpt lat="15.02861288197396" lon="120.71876325796173"><ele>6.666666666666667</ele><time>2026-04-18T08:37:40Z</time></trkpt><trkpt lat="15.028739395531396" lon="120.7186152019501"><ele>7.0</ele><time>2026-04-18T08:37:41Z</time></trkpt><trkpt lat="15.02886643660564" lon="120.71846668510075"><ele>7.0</ele><time>2026-04-18T08:37:42Z</time></trkpt><trkpt lat="15.028994885162698" lon="120.7183171253341"><ele>7.0</ele><time>2026-04-18T08:37:43Z</time></trkpt><trkpt lat="15.029124334484363" lon="120.71816502108231"><ele>7.0</ele><time>2026-04-18T08:37:44Z</time></trkpt><trkpt lat="15.029254354152497" lon="120.7180090198106"><ele>7.0</ele><time>2026-04-18T08:37:45Z</time></trkpt><trkpt lat="15.02938623137999" lon="120.7178514137954"><ele>7.0</ele><time>2026-04-18T08:37:46Z</time></trkpt><trkpt lat="15.029518746200951" lon="120.71769237390436"><ele>7.0</ele><time>2026-04-18T08:37:47Z</time></trkpt><trkpt lat="15.02965398547523" lon="120.71753084292061"><ele>7.0</ele><time>2026-04-18T08:37:48Z</time></trkpt><trkpt lat="15.029791358298235" lon="120.71736714372267"><ele>7.0</ele><time>2026-04-18T08:37:49Z</time></trkpt><trkpt lat="15.029930184986597" lon="120.71719918186375"><ele>7.0</ele><time>2026-04-18T08:37:50Z</time></trkpt><trkpt lat="15.03006997754655" lon="120.71702881335936"><ele>7.0</ele><time>2026-04-18T08:37:51Z</time></trkpt><trkpt lat="15.03021145989137" lon="120.7168573863397"><ele>7.0</ele><time>2026-04-18T08:37:52Z</time></trkpt><trkpt lat="15.030353018680527" lon="120.71668509193952"><ele>7.0</ele><time>2026-04-18T08:37:53Z</time></trkpt><trkpt lat="15.030494808028994" lon="120.71651062200107"><ele>7.0</ele><time>2026-04-18T08:37:54Z</time></trkpt><trkpt lat="15.03063924517405" lon="120.71633309823378"><ele>7.0</ele><time>2026-04-18T08:37:55Z</time></trkpt><trkpt lat="15.030785526724644" lon="120.71615260532792"><ele>6.5</ele><time>2026-04-18T08:37:56Z</time></trkpt><trkpt lat="15.03093542520577" lon="120.71596887075071"><ele>6.0</ele><time>2026-04-18T08:37:57Z</time></trkpt><trkpt lat="15.031085636759839" lon="120.71578359374311"><ele>6.0</ele><time>2026-04-18T08:37:58Z</time></trkpt><trkpt lat="15.03123544821494" lon="120.71559538799124"><ele>6.0</ele><time>2026-04-18T08:37:59Z</time></trkpt><trkpt lat="15.031384048148412" lon="120.71540700803317"><ele>6.0</ele><time>2026-04-18T08:38:00Z</time></trkpt><trkpt lat="15.031534355817243" lon="120.71521969344394"><ele>6.0</ele><time>2026-04-18T08:38:01Z</time></trkpt><trkpt lat="15.031685729316939" lon="120.7150310316787"><ele>5.5</ele><time>2026-04-18T08:38:02Z</time></trkpt><trkpt lat="15.031838258847344" lon="120.71484269326582"><ele>5.0</ele><time>2026-04-18T08:38:03Z</time></trkpt><trkpt lat="15.03199173390656" lon="120.71465397668051"><ele>5.0</ele><time>2026-04-18T08:38:04Z</time></trkpt><trkpt lat="15.032143154013877" lon="120.71446282261104"><ele>5.0</ele><time>2026-04-18T08:38:05Z</time></trkpt><trkpt lat="15.032293668104826" lon="120.7142721358579"><ele>5.0</ele><time>2026-04-18T08:38:06Z</time></trkpt><trkpt lat="15.032444987196069" lon="120.71408005448995"><ele>5.0</ele><time>2026-04-18T08:38:07Z</time></trkpt><trkpt lat="15.032594032006227" lon="120.713888882169"><ele>5.5</ele><time>2026-04-18T08:38:08Z</time></trkpt><trkpt lat="15.032742402022174" lon="120.71369814770169"><ele>6.0</ele><time>2026-04-18T08:38:09Z</time></trkpt><trkpt lat="15.032887030769977" lon="120.71350987273497"><ele>6.0</ele><time>2026-04-18T08:38:10Z</time></trkpt><trkpt lat="15.033027893673308" lon="120.71332381930387"><ele>6.0</ele><time>2026-04-18T08:38:11Z</time></trkpt><trkpt lat="15.033168365687676" lon="120.71313804568273"><ele>6.0</ele><time>2026-04-18T08:38:12Z</time></trkpt><trkpt lat="15.033305510894426" lon="120.71295412431326"><ele>6.0</ele><time>2026-04-18T08:38:13Z</time></trkpt><trkpt lat="15.033440473558837" lon="120.71277412130603"><ele>6.0</ele><time>2026-04-18T08:38:14Z</time></trkpt><trkpt lat="15.033573878736973" lon="120.71259515996152"><ele>6.0</ele><time>2026-04-18T08:38:15Z</time></trkpt><trkpt lat="15.033706435672517" lon="120.71241929542678"><ele>6.0</ele><time>2026-04-18T08:38:16Z</time></trkpt><trkpt lat="15.033839351883703" lon="120.7122445931293"><ele>6.0</ele><time>2026-04-18T08:38:17Z</time></trkpt><trkpt lat="15.033971295977437" lon="120.71206942321896"><ele>7.0</ele><time>2026-04-18T08:38:18Z</time></trkpt><trkpt lat="15.034102503814355" lon="120.71189130282382"><ele>8.0</ele><time>2026-04-18T08:38:19Z</time></trkpt><trkpt lat="15.034233955977035" lon="120.71171474778025"><ele>9.0</ele><time>2026-04-18T08:38:20Z</time></trkpt><trkpt lat="15.034363344262584" lon="120.71154021961303"><ele>9.333333333333334</ele><time>2026-04-18T08:38:21Z</time></trkpt><trkpt lat="15.034493399947293" lon="120.71136398059365"><ele>9.666666666666668</ele><time>2026-04-18T08:38:22Z</time></trkpt><trkpt lat="15.034623393320434" lon="120.7111876814414"><ele>10.0</ele><time>2026-04-18T08:38:23Z</time></trkpt><trkpt lat="15.034756081013771" lon="120.71101176881645"><ele>9.0</ele><time>2026-04-18T08:38:24Z</time></trkpt><trkpt lat="15.034891011575688" lon="120.71083497861997"><ele>8.0</ele><time>2026-04-18T08:38:25Z</time></trkpt><trkpt lat="15.03502647119684" lon="120.71065814613155"><ele>7.0</ele><time>2026-04-18T08:38:26Z</time></trkpt><trkpt lat="15.035162910910648" lon="120.71048129684833"><ele>7.0</ele><time>2026-04-18T08:38:27Z</time></trkpt><trkpt lat="15.035298994925844" lon="120.71030296637294"><ele>7.0</ele><time>2026-04-18T08:38:28Z</time></trkpt><trkpt lat="15.035436455429021" lon="120.71012584038981"><ele>7.0</ele><time>2026-04-18T08:38:29Z</time></trkpt><trkpt lat="15.035572580482125" lon="120.709950627903"><ele>7.0</ele><time>2026-04-18T08:38:30Z</time></trkpt><trkpt lat="15.03570693775573" lon="120.70978290046645"><ele>7.0</ele><time>2026-04-18T08:38:31Z</time></trkpt><trkpt lat="15.035836066962817" lon="120.70962393713492"><ele>7.0</ele><time>2026-04-18T08:38:31.999Z</time></trkpt><trkpt lat="15.03596053053476" lon="120.70946798656344"><ele>7.666666666666667</ele><time>2026-04-18T08:38:32.999Z</time></trkpt><trkpt lat="15.036085458187829" lon="120.70931505164309"><ele>8.333333333333334</ele><time>2026-04-18T08:38:33.999Z</time></trkpt><trkpt lat="15.036207928732951" lon="120.70916504684504"><ele>9.0</ele><time>2026-04-18T08:38:34.999Z</time></trkpt><trkpt lat="15.03632866627573" lon="120.7090171358684"><ele>9.0</ele><time>2026-04-18T08:38:35.999Z</time></trkpt><trkpt lat="15.036443116249616" lon="120.70887439848418"><ele>9.0</ele><time>2026-04-18T08:38:36.999Z</time></trkpt><trkpt lat="15.036552025542779" lon="120.70873625295596"><ele>9.0</ele><time>2026-04-18T08:38:37.999Z</time></trkpt><trkpt lat="15.036661338794248" lon="120.70859876395781"><ele>9.0</ele><time>2026-04-18T08:38:38.999Z</time></trkpt><trkpt lat="15.036770077154415" lon="120.70846162381383"><ele>9.0</ele><time>2026-04-18T08:38:39.999Z</time></trkpt><trkpt lat="15.036878791839213" lon="120.7083231875703"><ele>9.0</ele><time>2026-04-18T08:38:40.999Z</time></trkpt><trkpt lat="15.036988899481761" lon="120.70818249509684"><ele>9.0</ele><time>2026-04-18T08:38:41.999Z</time></trkpt><trkpt lat="15.037101809580996" lon="120.70803906784592"><ele>9.0</ele><time>2026-04-18T08:38:42.999Z</time></trkpt><trkpt lat="15.03721497950871" lon="120.70789428870484"><ele>9.0</ele><time>2026-04-18T08:38:43.999Z</time></trkpt><trkpt lat="15.037331174703494" lon="120.70774626656602"><ele>9.0</ele><time>2026-04-18T08:38:44.999Z</time></trkpt><trkpt lat="15.037448276573098" lon="120.70759665111578"><ele>9.0</ele><time>2026-04-18T08:38:45.999Z</time></trkpt><trkpt lat="15.037565566368706" lon="120.70744402130939"><ele>9.0</ele><time>2026-04-18T08:38:46.999Z</time></trkpt><trkpt lat="15.03768386335465" lon="120.70728910113078"><ele>9.0</ele><time>2026-04-18T08:38:47.999Z</time></trkpt><trkpt lat="15.037805430002672" lon="120.70713276441244"><ele>9.0</ele><time>2026-04-18T08:38:48.999Z</time></trkpt><trkpt lat="15.037930476203417" lon="120.70697703220469"><ele>9.0</ele><time>2026-04-18T08:38:49.999Z</time></trkpt><trkpt lat="15.038058150455985" lon="120.7068216805197"><ele>9.0</ele><time>2026-04-18T08:38:50.999Z</time></trkpt><trkpt lat="15.038188552660223" lon="120.70666393347128"><ele>9.0</ele><time>2026-04-18T08:38:51.999Z</time></trkpt><trkpt lat="15.038320674836694" lon="120.70650532310502"><ele>9.0</ele><time>2026-04-18T08:38:52.999Z</time></trkpt><trkpt lat="15.038455019924223" lon="120.70634406189025"><ele>9.0</ele><time>2026-04-18T08:38:53.999Z</time></trkpt><trkpt lat="15.03858991803375" lon="120.70618316876478"><ele>9.0</ele><time>2026-04-18T08:38:54.999Z</time></trkpt><trkpt lat="15.038723660408126" lon="120.70602563997669"><ele>9.0</ele><time>2026-04-18T08:38:55.999Z</time></trkpt><trkpt lat="15.038857380040316" lon="120.70586951022743"><ele>9.0</ele><time>2026-04-18T08:38:56.999Z</time></trkpt><trkpt lat="15.038992302333918" lon="120.70571198302572"><ele>9.0</ele><time>2026-04-18T08:38:57.999Z</time></trkpt><trkpt lat="15.03912586173121" lon="120.70555536303065"><ele>9.0</ele><time>2026-04-18T08:38:58.999Z</time></trkpt><trkpt lat="15.039260707114389" lon="120.70539975171876"><ele>8.333333333333334</ele><time>2026-04-18T08:38:59.999Z</time></trkpt><trkpt lat="15.039393887453482" lon="120.70524819585172"><ele>7.666666666666667</ele><time>2026-04-18T08:39:00.999Z</time></trkpt><trkpt lat="15.039525734044414" lon="120.70509645826289"><ele>7.0</ele><time>2026-04-18T08:39:01.999Z</time></trkpt><trkpt lat="15.039657829687746" lon="120.70494414486691"><ele>7.0</ele><time>2026-04-18T08:39:02.999Z</time></trkpt><trkpt lat="15.039792528953495" lon="120.70479002785412"><ele>7.0</ele><time>2026-04-18T08:39:03.999Z</time></trkpt><trkpt lat="15.039927943366179" lon="120.70463582720663"><ele>7.0</ele><time>2026-04-18T08:39:04.999Z</time></trkpt><trkpt lat="15.040065713750495" lon="120.70447992961917"><ele>7.0</ele><time>2026-04-18T08:39:05.999Z</time></trkpt><trkpt lat="15.040204637418668" lon="120.70432269288736"><ele>7.0</ele><time>2026-04-18T08:39:06.999Z</time></trkpt><trkpt lat="15.04034682701638" lon="120.70416384329198"><ele>7.0</ele><time>2026-04-18T08:39:07.999Z</time></trkpt><trkpt lat="15.04048901247001" lon="120.70400605654089"><ele>7.0</ele><time>2026-04-18T08:39:08.999Z</time></trkpt><trkpt lat="15.040632698521588" lon="120.70384965073961"><ele>7.0</ele><time>2026-04-18T08:39:09.999Z</time></trkpt><trkpt lat="15.040778678815176" lon="120.70369647534409"><ele>7.0</ele><time>2026-04-18T08:39:10.999Z</time></trkpt><trkpt lat="15.04092397853213" lon="120.70354176276139"><ele>7.333333333333334</ele><time>2026-04-18T08:39:11.999Z</time></trkpt><trkpt lat="15.041065985701808" lon="120.70338755196626"><ele>7.666666666666666</ele><time>2026-04-18T08:39:12.999Z</time></trkpt><trkpt lat="15.041209816522917" lon="120.70323334796332"><ele>8.0</ele><time>2026-04-18T08:39:14Z</time></trkpt><trkpt lat="15.041352134888006" lon="120.70307873779598"><ele>8.0</ele><time>2026-04-18T08:39:15Z</time></trkpt><trkpt lat="15.041492944407727" lon="120.70292606622762"><ele>8.0</ele><time>2026-04-18T08:39:16Z</time></trkpt><trkpt lat="15.04163130085456" lon="120.70277567925801"><ele>8.0</ele><time>2026-04-18T08:39:17Z</time></trkpt><trkpt lat="15.041767601537186" lon="120.7026280278089"><ele>8.333333333333332</ele><time>2026-04-18T08:39:18Z</time></trkpt><trkpt lat="15.041901146314778" lon="120.70248279680044"><ele>8.666666666666666</ele><time>2026-04-18T08:39:19Z</time></trkpt><trkpt lat="15.042033868979415" lon="120.70233946706905"><ele>9.0</ele><time>2026-04-18T08:39:20Z</time></trkpt><trkpt lat="15.042162143094112" lon="120.70219730238918"><ele>9.0</ele><time>2026-04-18T08:39:21Z</time></trkpt><trkpt lat="15.042289528689112" lon="120.70205443048373"><ele>9.0</ele><time>2026-04-18T08:39:22Z</time></trkpt><trkpt lat="15.042417499152139" lon="120.7019115084859"><ele>9.0</ele><time>2026-04-18T08:39:23Z</time></trkpt><trkpt lat="15.042545784162165" lon="120.70177075803552"><ele>9.333333333333334</ele><time>2026-04-18T08:39:24Z</time></trkpt><trkpt lat="15.042674234891418" lon="120.70163176910116"><ele>9.666666666666668</ele><time>2026-04-18T08:39:25Z</time></trkpt><trkpt lat="15.042807940624115" lon="120.70149226652119"><ele>10.0</ele><time>2026-04-18T08:39:26Z</time></trkpt><trkpt lat="15.042943550124042" lon="120.7013489052706"><ele>10.0</ele><time>2026-04-18T08:39:27Z</time></trkpt><trkpt lat="15.043084198691187" lon="120.7012054464764"><ele>10.0</ele><time>2026-04-18T08:39:28Z</time></trkpt><trkpt lat="15.043228798753317" lon="120.70105814650361"><ele>10.0</ele><time>2026-04-18T08:39:29Z</time></trkpt><trkpt lat="15.043375373205254" lon="120.70090869984362"><ele>9.0</ele><time>2026-04-18T08:39:30Z</time></trkpt><trkpt lat="15.043525020684633" lon="120.7007573048108"><ele>8.0</ele><time>2026-04-18T08:39:31Z</time></trkpt><trkpt lat="15.043675204616356" lon="120.70060397637815"><ele>7.0</ele><time>2026-04-18T08:39:32Z</time></trkpt><trkpt lat="15.043826522994523" lon="120.70044929816814"><ele>7.0</ele><time>2026-04-18T08:39:33Z</time></trkpt><trkpt lat="15.043981411395592" lon="120.70029257383227"><ele>7.0</ele><time>2026-04-18T08:39:34Z</time></trkpt><trkpt lat="15.04413841891608" lon="120.7001341352375"><ele>7.0</ele><time>2026-04-18T08:39:35Z</time></trkpt><trkpt lat="15.044298539425391" lon="120.69997394235847"><ele>7.5</ele><time>2026-04-18T08:39:36Z</time></trkpt><trkpt lat="15.044459862732634" lon="120.69981293089104"><ele>8.0</ele><time>2026-04-18T08:39:37Z</time></trkpt><trkpt lat="15.044623763023774" lon="120.69964947728278"><ele>8.0</ele><time>2026-04-18T08:39:38Z</time></trkpt><trkpt lat="15.044786934555015" lon="120.69948561466028"><ele>8.0</ele><time>2026-04-18T08:39:39Z</time></trkpt><trkpt lat="15.044952433669486" lon="120.6993199385311"><ele>7.5</ele><time>2026-04-18T08:39:40Z</time></trkpt><trkpt lat="15.04511929501683" lon="120.69915360016066"><ele>7.0</ele><time>2026-04-18T08:39:41Z</time></trkpt><trkpt lat="15.045286592547281" lon="120.6989881546207"><ele>7.0</ele><time>2026-04-18T08:39:42Z</time></trkpt><trkpt lat="15.045454364398605" lon="120.69882193452716"><ele>7.0</ele><time>2026-04-18T08:39:43Z</time></trkpt><trkpt lat="15.045623677227383" lon="120.69865439439226"><ele>7.0</ele><time>2026-04-18T08:39:44Z</time></trkpt><trkpt lat="15.045792340327905" lon="120.69848517421087"><ele>7.0</ele><time>2026-04-18T08:39:45Z</time></trkpt><trkpt lat="15.045962188897263" lon="120.69831602437151"><ele>6.0</ele><time>2026-04-18T08:39:46Z</time></trkpt><trkpt lat="15.046132830457703" lon="120.69814838436047"><ele>5.0</ele><time>2026-04-18T08:39:47Z</time></trkpt><trkpt lat="15.046303900372731" lon="120.69798204549507"><ele>5.0</ele><time>2026-04-18T08:39:48Z</time></trkpt><trkpt lat="15.046474873698308" lon="120.69781785991815"><ele>5.0</ele><time>2026-04-18T08:39:49Z</time></trkpt><trkpt lat="15.046645983752926" lon="120.69765377190006"><ele>7.0</ele><time>2026-04-18T08:39:50Z</time></trkpt><trkpt lat="15.04681678510509" lon="120.69748905296994"><ele>9.0</ele><time>2026-04-18T08:39:51Z</time></trkpt><trkpt lat="15.046988443745526" lon="120.69732340505782"><ele>9.0</ele><time>2026-04-18T08:39:52Z</time></trkpt><trkpt lat="15.047161999272761" lon="120.6971592631183"><ele>9.0</ele><time>2026-04-18T08:39:53Z</time></trkpt><trkpt lat="15.047334731436955" lon="120.69699712681236"><ele>9.0</ele><time>2026-04-18T08:39:54Z</time></trkpt><trkpt lat="15.047505377279256" lon="120.69683604716488"><ele>9.0</ele><time>2026-04-18T08:39:55Z</time></trkpt><trkpt lat="15.047671814568142" lon="120.69667685491308"><ele>9.0</ele><time>2026-04-18T08:39:56Z</time></trkpt><trkpt lat="15.047835904624794" lon="120.69652252082551"><ele>9.0</ele><time>2026-04-18T08:39:57Z</time></trkpt><trkpt lat="15.048000061895586" lon="120.69636890927592"><ele>9.0</ele><time>2026-04-18T08:39:58Z</time></trkpt><trkpt lat="15.048167120513023" lon="120.69621607300353"><ele>8.5</ele><time>2026-04-18T08:39:59Z</time></trkpt><trkpt lat="15.048336138510367" lon="120.69606259781062"><ele>8.0</ele><time>2026-04-18T08:40:00Z</time></trkpt><trkpt lat="15.048506257365608" lon="120.69590787929434"><ele>8.0</ele><time>2026-04-18T08:40:01Z</time></trkpt><trkpt lat="15.048677653187891" lon="120.69575200434265"><ele>8.0</ele><time>2026-04-18T08:40:02Z</time></trkpt><trkpt lat="15.048850777747115" lon="120.69559427175876"><ele>8.0</ele><time>2026-04-18T08:40:03Z</time></trkpt><trkpt lat="15.04902618222565" lon="120.69543629087605"><ele>8.0</ele><time>2026-04-18T08:40:04Z</time></trkpt><trkpt lat="15.049203648120526" lon="120.69527695590524"><ele>9.5</ele><time>2026-04-18T08:40:05Z</time></trkpt><trkpt lat="15.04938437891278" lon="120.69511661938255"><ele>11.0</ele><time>2026-04-18T08:40:06Z</time></trkpt><trkpt lat="15.049569612583705" lon="120.6949514915798"><ele>11.0</ele><time>2026-04-18T08:40:07Z</time></trkpt><trkpt lat="15.049755616402534" lon="120.69478447167849"><ele>11.0</ele><time>2026-04-18T08:40:08Z</time></trkpt><trkpt lat="15.049941741714392" lon="120.6946214537589"><ele>10.5</ele><time>2026-04-18T08:40:09Z</time></trkpt><trkpt lat="15.050130254709726" lon="120.69446002563957"><ele>10.0</ele><time>2026-04-18T08:40:10Z</time></trkpt><trkpt lat="15.050320152545062" lon="120.69429693684928"><ele>9.5</ele><time>2026-04-18T08:40:11Z</time></trkpt><trkpt lat="15.050509954449328" lon="120.69413404902821"><ele>9.0</ele><time>2026-04-18T08:40:12Z</time></trkpt><trkpt lat="15.050699466265858" lon="120.69397169421796"><ele>10.0</ele><time>2026-04-18T08:40:13Z</time></trkpt><trkpt lat="15.050888231637257" lon="120.69380819385505"><ele>11.0</ele><time>2026-04-18T08:40:14Z</time></trkpt><trkpt lat="15.051073821443513" lon="120.69364647435059"><ele>12.5</ele><time>2026-04-18T08:40:15Z</time></trkpt><trkpt lat="15.051260076658878" lon="120.69348630794069"><ele>14.0</ele><time>2026-04-18T08:40:16Z</time></trkpt><trkpt lat="15.051445790134547" lon="120.69332597093174"><ele>12.0</ele><time>2026-04-18T08:40:17Z</time></trkpt><trkpt lat="15.051633674587348" lon="120.69316518231791"><ele>10.0</ele><time>2026-04-18T08:40:18Z</time></trkpt><trkpt lat="15.051821654993287" lon="120.69300352319408"><ele>10.0</ele><time>2026-04-18T08:40:19Z</time></trkpt><trkpt lat="15.052012010574517" lon="120.69284296458969"><ele>10.0</ele><time>2026-04-18T08:40:20Z</time></trkpt><trkpt lat="15.052203871952019" lon="120.6926815353521"><ele>10.5</ele><time>2026-04-18T08:40:21Z</time></trkpt><trkpt lat="15.052398832621128" lon="120.69252007129914"><ele>11.0</ele><time>2026-04-18T08:40:22Z</time></trkpt><trkpt lat="15.0525954750332" lon="120.69235727528809"><ele>11.0</ele><time>2026-04-18T08:40:23Z</time></trkpt><trkpt lat="15.052793481778902" lon="120.69219387031326"><ele>11.0</ele><time>2026-04-18T08:40:24Z</time></trkpt><trkpt lat="15.05299334418523" lon="120.69202984319482"><ele>11.0</ele><time>2026-04-18T08:40:25Z</time></trkpt><trkpt lat="15.053194623264753" lon="120.69186311468486"><ele>11.0</ele><time>2026-04-18T08:40:26Z</time></trkpt><trkpt lat="15.053396091869395" lon="120.69169695464561"><ele>11.0</ele><time>2026-04-18T08:40:27Z</time></trkpt><trkpt lat="15.053597966369757" lon="120.6915315230585"><ele>11.0</ele><time>2026-04-18T08:40:28Z</time></trkpt><trkpt lat="15.053802836234624" lon="120.69136877691332"><ele>11.0</ele><time>2026-04-18T08:40:29Z</time></trkpt><trkpt lat="15.05400833550529" lon="120.69120652580554"><ele>11.0</ele><time>2026-04-18T08:40:30Z</time></trkpt><trkpt lat="15.054214924836542" lon="120.69104358025399"><ele>10.5</ele><time>2026-04-18T08:40:31Z</time></trkpt><trkpt lat="15.054422886225975" lon="120.69087801200179"><ele>10.0</ele><time>2026-04-18T08:40:32Z</time></trkpt><trkpt lat="15.054630641880438" lon="120.69071451627909"><ele>10.0</ele><time>2026-04-18T08:40:32.999Z</time></trkpt><trkpt lat="15.054840386790271" lon="120.6905509093636"><ele>10.0</ele><time>2026-04-18T08:40:33.999Z</time></trkpt><trkpt lat="15.055050670046557" lon="120.6903878722161"><ele>10.0</ele><time>2026-04-18T08:40:34.999Z</time></trkpt><trkpt lat="15.055262054800583" lon="120.69022367882361"><ele>10.0</ele><time>2026-04-18T08:40:35.999Z</time></trkpt><trkpt lat="15.055473481579412" lon="120.69006005400595"><ele>10.0</ele><time>2026-04-18T08:40:36.999Z</time></trkpt><trkpt lat="15.055682440641487" lon="120.68989617558644"><ele>10.0</ele><time>2026-04-18T08:40:37.999Z</time></trkpt><trkpt lat="15.055892770356191" lon="120.68973451692032"><ele>10.0</ele><time>2026-04-18T08:40:38.999Z</time></trkpt><trkpt lat="15.056102664371073" lon="120.6895739395437"><ele>10.0</ele><time>2026-04-18T08:40:39.999Z</time></trkpt><trkpt lat="15.056315163444403" lon="120.68941368082191"><ele>10.0</ele><time>2026-04-18T08:40:40.999Z</time></trkpt><trkpt lat="15.056529489694132" lon="120.68925419411515"><ele>10.0</ele><time>2026-04-18T08:40:41.999Z</time></trkpt><trkpt lat="15.056747452175873" lon="120.68909782316327"><ele>10.0</ele><time>2026-04-18T08:40:42.999Z</time></trkpt><trkpt lat="15.056968087440932" lon="120.68894129076784"><ele>10.0</ele><time>2026-04-18T08:40:43.999Z</time></trkpt><trkpt lat="15.057189672475458" lon="120.68878436233983"><ele>10.0</ele><time>2026-04-18T08:40:44.999Z</time></trkpt><trkpt lat="15.057411153603345" lon="120.68862482356957"><ele>10.0</ele><time>2026-04-18T08:40:45.999Z</time></trkpt><trkpt lat="15.057631926291313" lon="120.6884645772783"><ele>12.0</ele><time>2026-04-18T08:40:46.999Z</time></trkpt><trkpt lat="15.057853631344727" lon="120.68830274528979"><ele>14.0</ele><time>2026-04-18T08:40:47.999Z</time></trkpt><trkpt lat="15.058073784339541" lon="120.6881438237935"><ele>14.0</ele><time>2026-04-18T08:40:48.999Z</time></trkpt><trkpt lat="15.058293089908636" lon="120.68798388167369"><ele>14.0</ele><time>2026-04-18T08:40:49.999Z</time></trkpt><trkpt lat="15.058508913623093" lon="120.68782649201087"><ele>14.0</ele><time>2026-04-18T08:40:50.999Z</time></trkpt><trkpt lat="15.058722002896117" lon="120.68767255687304"><ele>14.0</ele><time>2026-04-18T08:40:51.999Z</time></trkpt><trkpt lat="15.058929619368786" lon="120.68751869950586"><ele>14.0</ele><time>2026-04-18T08:40:52.999Z</time></trkpt><trkpt lat="15.0591315577785" lon="120.68737439771421"><ele>14.0</ele><time>2026-04-18T08:40:53.999Z</time></trkpt><trkpt lat="15.059326141214623" lon="120.68723408102781"><ele>14.0</ele><time>2026-04-18T08:40:54.999Z</time></trkpt><trkpt lat="15.059513703377528" lon="120.68709782256657"><ele>14.0</ele><time>2026-04-18T08:40:55.999Z</time></trkpt><trkpt lat="15.059694002589229" lon="120.68696650185963"><ele>14.333333333333334</ele><time>2026-04-18T08:40:56.999Z</time></trkpt><trkpt lat="15.059865516318272" lon="120.68684310116257"><ele>14.666666666666668</ele><time>2026-04-18T08:40:57.999Z</time></trkpt><trkpt lat="15.060031136621607" lon="120.68672461493252"><ele>15.0</ele><time>2026-04-18T08:40:58.999Z</time></trkpt><trkpt lat="15.060193700441877" lon="120.68660906800667"><ele>15.0</ele><time>2026-04-18T08:40:59.999Z</time></trkpt><trkpt lat="15.060355834803227" lon="120.68649376012162"><ele>15.0</ele><time>2026-04-18T08:41:00.999Z</time></trkpt><trkpt lat="15.0605182536376" lon="120.68637762618133"><ele>15.0</ele><time>2026-04-18T08:41:01.999Z</time></trkpt><trkpt lat="15.060682808179099" lon="120.68626473062359"><ele>15.0</ele><time>2026-04-18T08:41:02.999Z</time></trkpt><trkpt lat="15.060847128107989" lon="120.68614891041882"><ele>15.0</ele><time>2026-04-18T08:41:03.999Z</time></trkpt><trkpt lat="15.06101122334044" lon="120.68602998533396"><ele>15.0</ele><time>2026-04-18T08:41:04.999Z</time></trkpt><trkpt lat="15.06118193366439" lon="120.68591459324736"><ele>14.666666666666668</ele><time>2026-04-18T08:41:05.999Z</time></trkpt><trkpt lat="15.061357516815507" lon="120.68579562294697"><ele>14.333333333333334</ele><time>2026-04-18T08:41:06.999Z</time></trkpt><trkpt lat="15.061536793936243" lon="120.68567604003847"><ele>14.0</ele><time>2026-04-18T08:41:07.999Z</time></trkpt><trkpt lat="15.061721270673015" lon="120.68555454298048"><ele>14.0</ele><time>2026-04-18T08:41:08.999Z</time></trkpt><trkpt lat="15.061910552749934" lon="120.68543091045133"><ele>14.0</ele><time>2026-04-18T08:41:09.999Z</time></trkpt><trkpt lat="15.062102444520812" lon="120.68530495855458"><ele>14.0</ele><time>2026-04-18T08:41:10.999Z</time></trkpt><trkpt lat="15.062296946254195" lon="120.68517734545863"><ele>14.0</ele><time>2026-04-18T08:41:11.999Z</time></trkpt><trkpt lat="15.06249267111223" lon="120.685048294589"><ele>15.0</ele><time>2026-04-18T08:41:12.999Z</time></trkpt><trkpt lat="15.062690779146111" lon="120.68491761901142"><ele>16.0</ele><time>2026-04-18T08:41:13.999Z</time></trkpt><trkpt lat="15.0628918126402" lon="120.68478665994392"><ele>16.0</ele><time>2026-04-18T08:41:14.999Z</time></trkpt><trkpt lat="15.063092709382737" lon="120.68465458846381"><ele>16.0</ele><time>2026-04-18T08:41:15.999Z</time></trkpt><trkpt lat="15.063296515898513" lon="120.68452276915966"><ele>16.0</ele><time>2026-04-18T08:41:16.999Z</time></trkpt><trkpt lat="15.063503196257495" lon="120.68439278175936"><ele>16.0</ele><time>2026-04-18T08:41:17.999Z</time></trkpt><trkpt lat="15.063710196311817" lon="120.68426238241211"><ele>16.0</ele><time>2026-04-18T08:41:18.999Z</time></trkpt><trkpt lat="15.063919294957092" lon="120.68413225746555"><ele>16.0</ele><time>2026-04-18T08:41:20Z</time></trkpt><trkpt lat="15.06413116820379" lon="120.68400180561986"><ele>16.0</ele><time>2026-04-18T08:41:21Z</time></trkpt><trkpt lat="15.064343164083265" lon="120.68386963513858"><ele>16.0</ele><time>2026-04-18T08:41:22Z</time></trkpt><trkpt lat="15.064557237600344" lon="120.68373830246688"><ele>16.0</ele><time>2026-04-18T08:41:23Z</time></trkpt><trkpt lat="15.064773928102625" lon="120.68360792232657"><ele>16.0</ele><time>2026-04-18T08:41:24Z</time></trkpt><trkpt lat="15.064992253535086" lon="120.68347825963548"><ele>17.0</ele><time>2026-04-18T08:41:25Z</time></trkpt><trkpt lat="15.065213581707269" lon="120.68334806216758"><ele>18.0</ele><time>2026-04-18T08:41:26Z</time></trkpt><trkpt lat="15.065437169027552" lon="120.68321889522025"><ele>18.0</ele><time>2026-04-18T08:41:27Z</time></trkpt><trkpt lat="15.065660412727457" lon="120.68308910532053"><ele>18.0</ele><time>2026-04-18T08:41:28Z</time></trkpt><trkpt lat="15.065884422842673" lon="120.68295800483835"><ele>18.0</ele><time>2026-04-18T08:41:29Z</time></trkpt><trkpt lat="15.066108846208374" lon="120.68282780340435"><ele>18.0</ele><time>2026-04-18T08:41:30Z</time></trkpt><trkpt lat="15.06633405038745" lon="120.68269714372693"><ele>18.0</ele><time>2026-04-18T08:41:31Z</time></trkpt><trkpt lat="15.06655871055652" lon="120.68256537872739"><ele>18.0</ele><time>2026-04-18T08:41:32Z</time></trkpt><trkpt lat="15.066781751187888" lon="120.68243150671086"><ele>17.5</ele><time>2026-04-18T08:41:33Z</time></trkpt><trkpt lat="15.067006291038927" lon="120.68229886854004"><ele>17.0</ele><time>2026-04-18T08:41:34Z</time></trkpt><trkpt lat="15.067231828030035" lon="120.68216730977296"><ele>17.0</ele><time>2026-04-18T08:41:35Z</time></trkpt><trkpt lat="15.067458208218603" lon="120.68203543409903"><ele>17.0</ele><time>2026-04-18T08:41:36Z</time></trkpt><trkpt lat="15.06768588546556" lon="120.68190459553887"><ele>18.5</ele><time>2026-04-18T08:41:37Z</time></trkpt><trkpt lat="15.067916038317563" lon="120.6817733798017"><ele>20.0</ele><time>2026-04-18T08:41:38Z</time></trkpt><trkpt lat="15.068146316964867" lon="120.68164313151365"><ele>21.5</ele><time>2026-04-18T08:41:39Z</time></trkpt><trkpt lat="15.068375875440925" lon="120.68151222691672"><ele>23.0</ele><time>2026-04-18T08:41:40Z</time></trkpt><trkpt lat="15.068603093587003" lon="120.68138276071211"><ele>23.0</ele><time>2026-04-18T08:41:41Z</time></trkpt><trkpt lat="15.068832297619078" lon="120.68125394378087"><ele>23.0</ele><time>2026-04-18T08:41:42Z</time></trkpt><trkpt lat="15.069058871834837" lon="120.68112629344533"><ele>22.0</ele><time>2026-04-18T08:41:43Z</time></trkpt><trkpt lat="15.069284190217822" lon="120.68099913260993"><ele>21.0</ele><time>2026-04-18T08:41:44Z</time></trkpt><trkpt lat="15.06950748421084" lon="120.68087328400907"><ele>21.0</ele><time>2026-04-18T08:41:45Z</time></trkpt><trkpt lat="15.069730217122205" lon="120.68074921346607"><ele>21.0</ele><time>2026-04-18T08:41:46Z</time></trkpt><trkpt lat="15.069954144300214" lon="120.68062644912798"><ele>21.0</ele><time>2026-04-18T08:41:47Z</time></trkpt><trkpt lat="15.07017786008868" lon="120.68050490098318"><ele>21.0</ele><time>2026-04-18T08:41:48Z</time></trkpt><trkpt lat="15.070401808477163" lon="120.68038342585179"><ele>22.0</ele><time>2026-04-18T08:41:49Z</time></trkpt><trkpt lat="15.070625842519366" lon="120.68026418358207"><ele>23.0</ele><time>2026-04-18T08:41:50Z</time></trkpt><trkpt lat="15.07085013681335" lon="120.68014581090681"><ele>23.5</ele><time>2026-04-18T08:41:51Z</time></trkpt><trkpt lat="15.071075344231321" lon="120.68002817324042"><ele>24.0</ele><time>2026-04-18T08:41:52Z</time></trkpt><trkpt lat="15.071301382468258" lon="120.67990983541942"><ele>24.0</ele><time>2026-04-18T08:41:53Z</time></trkpt><trkpt lat="15.071527919872807" lon="120.67979279187789"><ele>24.0</ele><time>2026-04-18T08:41:54Z</time></trkpt><trkpt lat="15.071753493964723" lon="120.67967652522094"><ele>22.5</ele><time>2026-04-18T08:41:55Z</time></trkpt><trkpt lat="15.071978528020269" lon="120.67956093747756"><ele>21.0</ele><time>2026-04-18T08:41:56Z</time></trkpt><trkpt lat="15.072201137549275" lon="120.67944611086062"><ele>21.5</ele><time>2026-04-18T08:41:57Z</time></trkpt><trkpt lat="15.072419250610961" lon="120.679333607457"><ele>22.0</ele><time>2026-04-18T08:41:58Z</time></trkpt><trkpt lat="15.072634682298641" lon="120.67922348916629"><ele>23.0</ele><time>2026-04-18T08:41:59Z</time></trkpt><trkpt lat="15.072846259512074" lon="120.67911575850859"><ele>24.0</ele><time>2026-04-18T08:42:00Z</time></trkpt><trkpt lat="15.07305369930604" lon="120.67900874113559"><ele>24.0</ele><time>2026-04-18T08:42:01Z</time></trkpt><trkpt lat="15.073258669460698" lon="120.67890285720596"><ele>24.0</ele><time>2026-04-18T08:42:02Z</time></trkpt><trkpt lat="15.073458744150464" lon="120.67879629299367"><ele>24.0</ele><time>2026-04-18T08:42:03Z</time></trkpt><trkpt lat="15.073657164208814" lon="120.67870145175515"><ele>24.0</ele><time>2026-04-18T08:42:04Z</time></trkpt><trkpt lat="15.07385032426101" lon="120.67860402237767"><ele>24.0</ele><time>2026-04-18T08:42:05Z</time></trkpt><trkpt lat="15.07404195463603" lon="120.67850715966057"><ele>24.666666666666664</ele><time>2026-04-18T08:42:06Z</time></trkpt><trkpt lat="15.074233224547427" lon="120.6784144697158"><ele>25.333333333333332</ele><time>2026-04-18T08:42:07Z</time></trkpt><trkpt lat="15.074422013445492" lon="120.67832156857901"><ele>26.0</ele><time>2026-04-18T08:42:08Z</time></trkpt><trkpt lat="15.074607432312911" lon="120.67822678051952"><ele>26.0</ele><time>2026-04-18T08:42:09Z</time></trkpt><trkpt lat="15.074794562307698" lon="120.6781319020411"><ele>26.0</ele><time>2026-04-18T08:42:10Z</time></trkpt><trkpt lat="15.07498198459914" lon="120.6780377856527"><ele>26.0</ele><time>2026-04-18T08:42:11Z</time></trkpt><trkpt lat="15.075168867429408" lon="120.67794116916569"><ele>26.333333333333332</ele><time>2026-04-18T08:42:12Z</time></trkpt><trkpt lat="15.075358547556986" lon="120.67784777112577"><ele>26.666666666666664</ele><time>2026-04-18T08:42:13Z</time></trkpt><trkpt lat="15.075549148809335" lon="120.67775396608968"><ele>27.0</ele><time>2026-04-18T08:42:14Z</time></trkpt><trkpt lat="15.075741824890372" lon="120.67765862853199"><ele>26.0</ele><time>2026-04-18T08:42:15Z</time></trkpt><trkpt lat="15.07593670448139" lon="120.67756474520415"><ele>25.0</ele><time>2026-04-18T08:42:16Z</time></trkpt><trkpt lat="15.076134524671259" lon="120.6774725404583"><ele>24.0</ele><time>2026-04-18T08:42:17Z</time></trkpt><trkpt lat="15.076334559707991" lon="120.6773802738284"><ele>24.0</ele><time>2026-04-18T08:42:18Z</time></trkpt><trkpt lat="15.07653802693163" lon="120.67728928919715"><ele>24.0</ele><time>2026-04-18T08:42:19Z</time></trkpt><trkpt lat="15.076743038031175" lon="120.67719818221028"><ele>24.0</ele><time>2026-04-18T08:42:20Z</time></trkpt><trkpt lat="15.076950989614282" lon="120.67710645794321"><ele>24.5</ele><time>2026-04-18T08:42:21Z</time></trkpt><trkpt lat="15.077161953738917" lon="120.67701310865714"><ele>25.0</ele><time>2026-04-18T08:42:22Z</time></trkpt><trkpt lat="15.077376431953113" lon="120.67691891887769"><ele>25.0</ele><time>2026-04-18T08:42:23Z</time></trkpt><trkpt lat="15.07759379302311" lon="120.67682184379072"><ele>25.0</ele><time>2026-04-18T08:42:24Z</time></trkpt><trkpt lat="15.077813954074967" lon="120.67672399187116"><ele>25.0</ele><time>2026-04-18T08:42:25Z</time></trkpt><trkpt lat="15.078036852488582" lon="120.67662553282035"><ele>25.0</ele><time>2026-04-18T08:42:26Z</time></trkpt><trkpt lat="15.078262137607275" lon="120.67652771567425"><ele>26.0</ele><time>2026-04-18T08:42:27Z</time></trkpt><trkpt lat="15.078489474778351" lon="120.67642785154834"><ele>27.0</ele><time>2026-04-18T08:42:28Z</time></trkpt><trkpt lat="15.078716916911098" lon="120.67632797753427"><ele>27.0</ele><time>2026-04-18T08:42:29Z</time></trkpt><trkpt lat="15.078942120271396" lon="120.67623088014587"><ele>27.0</ele><time>2026-04-18T08:42:30Z</time></trkpt><trkpt lat="15.079162696537628" lon="120.67613317991007"><ele>26.5</ele><time>2026-04-18T08:42:31Z</time></trkpt><trkpt lat="15.079379936375005" lon="120.67604002600535"><ele>26.0</ele><time>2026-04-18T08:42:32Z</time></trkpt><trkpt lat="15.079590785225207" lon="120.6759530449394"><ele>26.0</ele><time>2026-04-18T08:42:33Z</time></trkpt><trkpt lat="15.079796501348842" lon="120.67586826879187"><ele>26.0</ele><time>2026-04-18T08:42:34Z</time></trkpt><trkpt lat="15.07999729788913" lon="120.67578466708039"><ele>26.0</ele><time>2026-04-18T08:42:35Z</time></trkpt><trkpt lat="15.080192499865671" lon="120.67570326375137"><ele>25.666666666666664</ele><time>2026-04-18T08:42:36Z</time></trkpt><trkpt lat="15.080386127449419" lon="120.67562265945223"><ele>25.333333333333336</ele><time>2026-04-18T08:42:37Z</time></trkpt><trkpt lat="15.080575744352082" lon="120.67554320214315"><ele>25.0</ele><time>2026-04-18T08:42:38Z</time></trkpt><trkpt lat="15.080762041790626" lon="120.67546298416453"><ele>26.0</ele><time>2026-04-18T08:42:39Z</time></trkpt><trkpt lat="15.080947625209934" lon="120.67538628722164"><ele>27.0</ele><time>2026-04-18T08:42:40Z</time></trkpt><trkpt lat="15.081133753356337" lon="120.67530848996931"><ele>28.0</ele><time>2026-04-18T08:42:41Z</time></trkpt><trkpt lat="15.081319642917444" lon="120.6752326073322"><ele>28.333333333333336</ele><time>2026-04-18T08:42:42Z</time></trkpt><trkpt lat="15.081505942437595" lon="120.67515787054826"><ele>28.666666666666664</ele><time>2026-04-18T08:42:43Z</time></trkpt><trkpt lat="15.08169345732269" lon="120.67508440251036"><ele>29.0</ele><time>2026-04-18T08:42:44Z</time></trkpt><trkpt lat="15.081883162801974" lon="120.67501087890679"><ele>27.333333333333332</ele><time>2026-04-18T08:42:45Z</time></trkpt><trkpt lat="15.082074713977008" lon="120.67493655404502"><ele>25.666666666666664</ele><time>2026-04-18T08:42:46Z</time></trkpt><trkpt lat="15.082268451627813" lon="120.67486392096747"><ele>24.0</ele><time>2026-04-18T08:42:47Z</time></trkpt><trkpt lat="15.082462435864104" lon="120.67478909381886"><ele>24.0</ele><time>2026-04-18T08:42:48Z</time></trkpt><trkpt lat="15.082656774253874" lon="120.67471247089047"><ele>24.0</ele><time>2026-04-18T08:42:49Z</time></trkpt><trkpt lat="15.082855725321625" lon="120.6746402213185"><ele>24.0</ele><time>2026-04-18T08:42:50Z</time></trkpt><trkpt lat="15.083055377021362" lon="120.67456522010588"><ele>24.0</ele><time>2026-04-18T08:42:51Z</time></trkpt><trkpt lat="15.083253922278399" lon="120.67448924603914"><ele>24.0</ele><time>2026-04-18T08:42:52Z</time></trkpt><trkpt lat="15.083450841514745" lon="120.67441254466048"><ele>24.0</ele><time>2026-04-18T08:42:53Z</time></trkpt><trkpt lat="15.083647091190656" lon="120.67433605503481"><ele>24.0</ele><time>2026-04-18T08:42:54Z</time></trkpt><trkpt lat="15.083842772584006" lon="120.67426053167024"><ele>24.0</ele><time>2026-04-18T08:42:55Z</time></trkpt><trkpt lat="15.084038471077173" lon="120.67418372722105"><ele>24.0</ele><time>2026-04-18T08:42:56Z</time></trkpt><trkpt lat="15.084235048124315" lon="120.67410651154808"><ele>24.0</ele><time>2026-04-18T08:42:57Z</time></trkpt><trkpt lat="15.084430748847183" lon="120.6740283162574"><ele>24.0</ele><time>2026-04-18T08:42:58Z</time></trkpt><trkpt lat="15.084626670502532" lon="120.67394845561597"><ele>24.0</ele><time>2026-04-18T08:42:59Z</time></trkpt><trkpt lat="15.084822240144943" lon="120.67386964091541"><ele>24.333333333333336</ele><time>2026-04-18T08:43:00Z</time></trkpt><trkpt lat="15.085018696293437" lon="120.67378994010107"><ele>24.666666666666668</ele><time>2026-04-18T08:43:01Z</time></trkpt><trkpt lat="15.085215314282914" lon="120.6737098403132"><ele>25.0</ele><time>2026-04-18T08:43:02Z</time></trkpt><trkpt lat="15.085412617307606" lon="120.67362848179586"><ele>25.333333333333336</ele><time>2026-04-18T08:43:03Z</time></trkpt><trkpt lat="15.085610403516643" lon="120.67354663468946"><ele>25.666666666666664</ele><time>2026-04-18T08:43:03.999Z</time></trkpt><trkpt lat="15.085807810738611" lon="120.6734643227477"><ele>26.0</ele><time>2026-04-18T08:43:04.999Z</time></trkpt><trkpt lat="15.08600777450046" lon="120.67338206904128"><ele>26.0</ele><time>2026-04-18T08:43:05.999Z</time></trkpt><trkpt lat="15.086209665946237" lon="120.67329893849298"><ele>26.0</ele><time>2026-04-18T08:43:06.999Z</time></trkpt><trkpt lat="15.086413782893569" lon="120.6732166809465"><ele>26.0</ele><time>2026-04-18T08:43:07.999Z</time></trkpt><trkpt lat="15.086621314581327" lon="120.67313458615574"><ele>26.0</ele><time>2026-04-18T08:43:08.999Z</time></trkpt><trkpt lat="15.086831532819692" lon="120.67305326311259"><ele>26.0</ele><time>2026-04-18T08:43:09.999Z</time></trkpt><trkpt lat="15.087045888948763" lon="120.67297081543121"><ele>26.0</ele><time>2026-04-18T08:43:10.999Z</time></trkpt><trkpt lat="15.087264027689166" lon="120.67288608230737"><ele>26.0</ele><time>2026-04-18T08:43:11.999Z</time></trkpt><trkpt lat="15.087484315131618" lon="120.67279730252713"><ele>27.5</ele><time>2026-04-18T08:43:12.999Z</time></trkpt><trkpt lat="15.087707801127449" lon="120.67270487105786"><ele>29.0</ele><time>2026-04-18T08:43:13.999Z</time></trkpt><trkpt lat="15.087931351265786" lon="120.67261008002082"><ele>29.0</ele><time>2026-04-18T08:43:14.999Z</time></trkpt><trkpt lat="15.088156799911463" lon="120.67251310043628"><ele>29.0</ele><time>2026-04-18T08:43:15.999Z</time></trkpt><trkpt lat="15.088384282248793" lon="120.67241482157247"><ele>28.5</ele><time>2026-04-18T08:43:16.999Z</time></trkpt><trkpt lat="15.088612174256301" lon="120.67231445091043"><ele>28.0</ele><time>2026-04-18T08:43:17.999Z</time></trkpt><trkpt lat="15.08883923831793" lon="120.6722134056495"><ele>28.0</ele><time>2026-04-18T08:43:18.999Z</time></trkpt><trkpt lat="15.089063871474508" lon="120.67211414554143"><ele>28.0</ele><time>2026-04-18T08:43:19.999Z</time></trkpt><trkpt lat="15.089283730430386" lon="120.67201644630053"><ele>28.0</ele><time>2026-04-18T08:43:20.999Z</time></trkpt><trkpt lat="15.089500402948662" lon="120.67192049676532"><ele>28.0</ele><time>2026-04-18T08:43:21.999Z</time></trkpt><trkpt lat="15.089713580660705" lon="120.67182559810398"><ele>28.5</ele><time>2026-04-18T08:43:22.999Z</time></trkpt><trkpt lat="15.089925109312226" lon="120.67173049750888"><ele>29.0</ele><time>2026-04-18T08:43:23.999Z</time></trkpt><trkpt lat="15.09013447658748" lon="120.67163623053477"><ele>29.0</ele><time>2026-04-18T08:43:24.999Z</time></trkpt><trkpt lat="15.090340231258434" lon="120.67154382792374"><ele>29.0</ele><time>2026-04-18T08:43:26Z</time></trkpt><trkpt lat="15.090542647959058" lon="120.67145497787622"><ele>29.0</ele><time>2026-04-18T08:43:27Z</time></trkpt><trkpt lat="15.090741513352963" lon="120.67136413869956"><ele>29.0</ele><time>2026-04-18T08:43:28Z</time></trkpt><trkpt lat="15.090936054093978" lon="120.67127100597882"><ele>29.0</ele><time>2026-04-18T08:43:29Z</time></trkpt><trkpt lat="15.091126849139702" lon="120.67118035938424"><ele>29.0</ele><time>2026-04-18T08:43:30Z</time></trkpt><trkpt lat="15.09131644764683" lon="120.67109260400397"><ele>29.0</ele><time>2026-04-18T08:43:31Z</time></trkpt><trkpt lat="15.091502702049391" lon="120.67100586864338"><ele>29.0</ele><time>2026-04-18T08:43:32Z</time></trkpt><trkpt lat="15.091687400128887" lon="120.67091994784636"><ele>29.0</ele><time>2026-04-18T08:43:33Z</time></trkpt><trkpt lat="15.091870369746593" lon="120.67083374700594"><ele>29.0</ele><time>2026-04-18T08:43:34Z</time></trkpt><trkpt lat="15.092051882629093" lon="120.67074884563254"><ele>29.0</ele><time>2026-04-18T08:43:35Z</time></trkpt><trkpt lat="15.092232927623952" lon="120.67066356607141"><ele>29.0</ele><time>2026-04-18T08:43:36Z</time></trkpt><trkpt lat="15.092415445403418" lon="120.67057934506599"><ele>28.666666666666664</ele><time>2026-04-18T08:43:37Z</time></trkpt><trkpt lat="15.092598209705317" lon="120.67049388512874"><ele>28.333333333333336</ele><time>2026-04-18T08:43:38Z</time></trkpt><trkpt lat="15.092780870941978" lon="120.67040750455305"><ele>28.0</ele><time>2026-04-18T08:43:39Z</time></trkpt><trkpt lat="15.092963607116511" lon="120.67032127194088"><ele>28.666666666666668</ele><time>2026-04-18T08:43:40Z</time></trkpt><trkpt lat="15.093143688187144" lon="120.67023379282371"><ele>29.333333333333336</ele><time>2026-04-18T08:43:41Z</time></trkpt><trkpt lat="15.093323258235475" lon="120.67014596790936"><ele>30.0</ele><time>2026-04-18T08:43:42Z</time></trkpt><trkpt lat="15.093500489024734" lon="120.67005907816504"><ele>30.0</ele><time>2026-04-18T08:43:43Z</time></trkpt><trkpt lat="15.09367578552598" lon="120.66997417499356"><ele>30.0</ele><time>2026-04-18T08:43:44Z</time></trkpt><trkpt lat="15.093851303700038" lon="120.6698898156866"><ele>30.0</ele><time>2026-04-18T08:43:45Z</time></trkpt><trkpt lat="15.09402477387925" lon="120.66980663689633"><ele>30.333333333333336</ele><time>2026-04-18T08:43:46Z</time></trkpt><trkpt lat="15.09419710362315" lon="120.66972190714733"><ele>30.666666666666668</ele><time>2026-04-18T08:43:47Z</time></trkpt><trkpt lat="15.09436769270645" lon="120.6696400323498"><ele>31.0</ele><time>2026-04-18T08:43:48Z</time></trkpt><trkpt lat="15.09453615673395" lon="120.66955590858885"><ele>31.0</ele><time>2026-04-18T08:43:49Z</time></trkpt><trkpt lat="15.094703026145002" lon="120.66947243154357"><ele>31.0</ele><time>2026-04-18T08:43:50Z</time></trkpt><trkpt lat="15.094869492129252" lon="120.66938851281482"><ele>31.0</ele><time>2026-04-18T08:43:51Z</time></trkpt><trkpt lat="15.095035729686433" lon="120.6693055023995"><ele>31.666666666666668</ele><time>2026-04-18T08:43:52Z</time></trkpt><trkpt lat="15.095202513916833" lon="120.66922145595763"><ele>32.333333333333336</ele><time>2026-04-18T08:43:53Z</time></trkpt><trkpt lat="15.095370229412401" lon="120.6691357376643"><ele>33.0</ele><time>2026-04-18T08:43:54Z</time></trkpt><trkpt lat="15.09554003747972" lon="120.66905131043563"><ele>33.0</ele><time>2026-04-18T08:43:55Z</time></trkpt><trkpt lat="15.09570840156421" lon="120.66896538781013"><ele>33.0</ele><time>2026-04-18T08:43:56Z</time></trkpt><trkpt lat="15.095875959403708" lon="120.66887986486942"><ele>33.0</ele><time>2026-04-18T08:43:57Z</time></trkpt><trkpt lat="15.09603868518762" lon="120.66879568461263"><ele>32.666666666666664</ele><time>2026-04-18T08:43:58Z</time></trkpt><trkpt lat="15.096200339858841" lon="120.66871282137903"><ele>32.33333333333333</ele><time>2026-04-18T08:43:59Z</time></trkpt><trkpt lat="15.09636128685291" lon="120.6686302096411"><ele>32.0</ele><time>2026-04-18T08:44:00Z</time></trkpt><trkpt lat="15.096520453487667" lon="120.66854867329319"><ele>32.33333333333333</ele><time>2026-04-18T08:44:01Z</time></trkpt><trkpt lat="15.096676689790863" lon="120.66846680720843"><ele>32.666666666666664</ele><time>2026-04-18T08:44:02Z</time></trkpt><trkpt lat="15.096831150623755" lon="120.66838629394745"><ele>33.0</ele><time>2026-04-18T08:44:03Z</time></trkpt><trkpt lat="15.096987380794555" lon="120.66830654917744"><ele>33.0</ele><time>2026-04-18T08:44:04Z</time></trkpt><trkpt lat="15.097143537866128" lon="120.66822493047326"><ele>33.0</ele><time>2026-04-18T08:44:05Z</time></trkpt><trkpt lat="15.097300503889223" lon="120.66814059805824"><ele>33.0</ele><time>2026-04-18T08:44:06Z</time></trkpt><trkpt lat="15.097459177994278" lon="120.66805647786195"><ele>32.333333333333336</ele><time>2026-04-18T08:44:07Z</time></trkpt><trkpt lat="15.097618693729135" lon="120.66797158172919"><ele>31.666666666666668</ele><time>2026-04-18T08:44:08Z</time></trkpt><trkpt lat="15.097775678567329" lon="120.6678855811977"><ele>31.0</ele><time>2026-04-18T08:44:09Z</time></trkpt><trkpt lat="15.097929558189945" lon="120.66780285126606"><ele>31.666666666666668</ele><time>2026-04-18T08:44:10Z</time></trkpt><trkpt lat="15.098081733035249" lon="120.66772106604053"><ele>32.333333333333336</ele><time>2026-04-18T08:44:11Z</time></trkpt><trkpt lat="15.098229640576525" lon="120.66763937191139"><ele>33.0</ele><time>2026-04-18T08:44:12Z</time></trkpt><trkpt lat="15.09837522155482" lon="120.66756149606384"><ele>33.666666666666664</ele><time>2026-04-18T08:44:13Z</time></trkpt><trkpt lat="15.098521384838175" lon="120.66748409715319"><ele>34.33333333333333</ele><time>2026-04-18T08:44:14Z</time></trkpt><trkpt lat="15.098664932847988" lon="120.66740752280695"><ele>35.0</ele><time>2026-04-18T08:44:15Z</time></trkpt><trkpt lat="15.098808307468584" lon="120.66732928722882"><ele>35.0</ele><time>2026-04-18T08:44:16Z</time></trkpt><trkpt lat="15.098949232833252" lon="120.66725026973437"><ele>35.0</ele><time>2026-04-18T08:44:17Z</time></trkpt><trkpt lat="15.099092681938705" lon="120.66717277412137"><ele>35.0</ele><time>2026-04-18T08:44:18Z</time></trkpt><trkpt lat="15.09923762727318" lon="120.66709123604848"><ele>35.0</ele><time>2026-04-18T08:44:19Z</time></trkpt><trkpt lat="15.099384714887554" lon="120.66700905991723"><ele>35.0</ele><time>2026-04-18T08:44:20Z</time></trkpt><trkpt lat="15.099533897267808" lon="120.66692644031248"><ele>35.0</ele><time>2026-04-18T08:44:21Z</time></trkpt><trkpt lat="15.099684524151845" lon="120.66683917587277"><ele>35.0</ele><time>2026-04-18T08:44:22Z</time></trkpt><trkpt lat="15.099836958653437" lon="120.66674949446752"><ele>35.0</ele><time>2026-04-18T08:44:23Z</time></trkpt><trkpt lat="15.099992639031239" lon="120.6666592576493"><ele>35.0</ele><time>2026-04-18T08:44:24Z</time></trkpt><trkpt lat="15.100151735242394" lon="120.66656841331707"><ele>35.666666666666664</ele><time>2026-04-18T08:44:25Z</time></trkpt><trkpt lat="15.100317121415719" lon="120.66647411319782"><ele>36.333333333333336</ele><time>2026-04-18T08:44:26Z</time></trkpt><trkpt lat="15.100485318400596" lon="120.66637713542522"><ele>37.0</ele><time>2026-04-18T08:44:27Z</time></trkpt><trkpt lat="15.100643205057377" lon="120.66628476879245"><ele>36.333333333333336</ele><time>2026-04-18T08:44:28Z</time></trkpt><trkpt lat="15.10078344129084" lon="120.6662002505566"><ele>35.666666666666664</ele><time>2026-04-18T08:44:29Z</time></trkpt><trkpt lat="15.100915539920805" lon="120.66612176249937"><ele>35.0</ele><time>2026-04-18T08:44:30Z</time></trkpt><trkpt lat="15.101044970123558" lon="120.66604708986138"><ele>35.0</ele><time>2026-04-18T08:44:31Z</time></trkpt><trkpt lat="15.101171042092947" lon="120.66597313042054"><ele>35.0</ele><time>2026-04-18T08:44:32Z</time></trkpt><trkpt lat="15.101294669941446" lon="120.66590127474285"><ele>35.0</ele><time>2026-04-18T08:44:33Z</time></trkpt><trkpt lat="15.101411030405574" lon="120.66583267989824"><ele>35.0</ele><time>2026-04-18T08:44:34Z</time></trkpt><trkpt lat="15.101520753328161" lon="120.66576997464347"><ele>35.0</ele><time>2026-04-18T08:44:35Z</time></trkpt><trkpt lat="15.101629345077647" lon="120.66570606167133"><ele>35.0</ele><time>2026-04-18T08:44:36Z</time></trkpt><trkpt lat="15.10173693307572" lon="120.66564358921721"><ele>35.0</ele><time>2026-04-18T08:44:37Z</time></trkpt><trkpt lat="15.101844933106117" lon="120.6655822852838"><ele>35.0</ele><time>2026-04-18T08:44:38Z</time></trkpt><trkpt lat="15.101955457575048" lon="120.66551991258433"><ele>35.0</ele><time>2026-04-18T08:44:39Z</time></trkpt><trkpt lat="15.102065369868281" lon="120.66545586619993"><ele>35.0</ele><time>2026-04-18T08:44:40Z</time></trkpt><trkpt lat="15.10217746837123" lon="120.66539271573434"><ele>35.0</ele><time>2026-04-18T08:44:41Z</time></trkpt><trkpt lat="15.102291321111176" lon="120.66532920431987"><ele>35.0</ele><time>2026-04-18T08:44:42Z</time></trkpt><trkpt lat="15.102408706474785" lon="120.6652629881309"><ele>35.5</ele><time>2026-04-18T08:44:43Z</time></trkpt><trkpt lat="15.102527112845785" lon="120.66519634887045"><ele>36.0</ele><time>2026-04-18T08:44:44Z</time></trkpt><trkpt lat="15.10264860204921" lon="120.66512751487527"><ele>36.5</ele><time>2026-04-18T08:44:45Z</time></trkpt><trkpt lat="15.102775165393375" lon="120.66505344684059"><ele>37.0</ele><time>2026-04-18T08:44:46Z</time></trkpt><trkpt lat="15.102907420226021" lon="120.66497868690182"><ele>37.0</ele><time>2026-04-18T08:44:47Z</time></trkpt><trkpt lat="15.10304229270691" lon="120.66489995438327"><ele>37.0</ele><time>2026-04-18T08:44:48Z</time></trkpt><trkpt lat="15.103181596880694" lon="120.6648186018297"><ele>37.0</ele><time>2026-04-18T08:44:49Z</time></trkpt><trkpt lat="15.103322566575187" lon="120.66473523576354"><ele>36.0</ele><time>2026-04-18T08:44:50Z</time></trkpt><trkpt lat="15.103466340641505" lon="120.6646493840953"><ele>35.0</ele><time>2026-04-18T08:44:51Z</time></trkpt><trkpt lat="15.103608049035735" lon="120.66456230626055"><ele>34.0</ele><time>2026-04-18T08:44:52Z</time></trkpt><trkpt lat="15.10375227262073" lon="120.6644739509228"><ele>34.333333333333336</ele><time>2026-04-18T08:44:53Z</time></trkpt><trkpt lat="15.103900287232243" lon="120.66438410937654"><ele>34.666666666666664</ele><time>2026-04-18T08:44:54Z</time></trkpt><trkpt lat="15.104050238842124" lon="120.66429246221477"><ele>35.0</ele><time>2026-04-18T08:44:55Z</time></trkpt><trkpt lat="15.104204660810328" lon="120.66419987234435"><ele>35.0</ele><time>2026-04-18T08:44:56Z</time></trkpt><trkpt lat="15.10435885288112" lon="120.66410500448453"><ele>35.0</ele><time>2026-04-18T08:44:57Z</time></trkpt><trkpt lat="15.10451731781263" lon="120.66401000232669"><ele>35.0</ele><time>2026-04-18T08:44:58Z</time></trkpt><trkpt lat="15.104677707137201" lon="120.66391535539537"><ele>35.0</ele><time>2026-04-18T08:44:59Z</time></trkpt><trkpt lat="15.10484210704174" lon="120.66382152737154"><ele>35.0</ele><time>2026-04-18T08:45:00Z</time></trkpt><trkpt lat="15.105008751093159" lon="120.66372514240564"><ele>35.0</ele><time>2026-04-18T08:45:01Z</time></trkpt><trkpt lat="15.105176381690757" lon="120.66362722234585"><ele>35.33333333333333</ele><time>2026-04-18T08:45:02Z</time></trkpt><trkpt lat="15.105343220752198" lon="120.66352745741086"><ele>35.666666666666664</ele><time>2026-04-18T08:45:03Z</time></trkpt><trkpt lat="15.105510832861912" lon="120.66342252619964"><ele>36.0</ele><time>2026-04-18T08:45:04Z</time></trkpt><trkpt lat="15.105676195538688" lon="120.6633249002367"><ele>36.0</ele><time>2026-04-18T08:45:05Z</time></trkpt><trkpt lat="15.105837604386293" lon="120.66322673320582"><ele>36.0</ele><time>2026-04-18T08:45:06Z</time></trkpt><trkpt lat="15.105994592983945" lon="120.66313063766171"><ele>36.0</ele><time>2026-04-18T08:45:07Z</time></trkpt><trkpt lat="15.10615050481671" lon="120.66303344643103"><ele>36.0</ele><time>2026-04-18T08:45:08Z</time></trkpt><trkpt lat="15.10630380096714" lon="120.66293705022498"><ele>36.0</ele><time>2026-04-18T08:45:09Z</time></trkpt><trkpt lat="15.106456411266628" lon="120.6628414102099"><ele>36.0</ele><time>2026-04-18T08:45:10Z</time></trkpt><trkpt lat="15.106606663136873" lon="120.66274528592704"><ele>37.0</ele><time>2026-04-18T08:45:11Z</time></trkpt><trkpt lat="15.106757325690387" lon="120.6626497584944"><ele>38.0</ele><time>2026-04-18T08:45:12Z</time></trkpt><trkpt lat="15.106908837185522" lon="120.66255422585752"><ele>39.0</ele><time>2026-04-18T08:45:13Z</time></trkpt><trkpt lat="15.107057297762884" lon="120.66246013392727"><ele>39.0</ele><time>2026-04-18T08:45:13.999Z</time></trkpt><trkpt lat="15.107204519807782" lon="120.66236731400343"><ele>39.0</ele><time>2026-04-18T08:45:14.999Z</time></trkpt><trkpt lat="15.107348442252674" lon="120.66227565926356"><ele>39.0</ele><time>2026-04-18T08:45:15.999Z</time></trkpt><trkpt lat="15.107486843840164" lon="120.66218756892304"><ele>39.0</ele><time>2026-04-18T08:45:16.999Z</time></trkpt><trkpt lat="15.107623019442402" lon="120.66210219807954"><ele>39.0</ele><time>2026-04-18T08:45:17.999Z</time></trkpt><trkpt lat="15.10775454156905" lon="120.66201695397247"><ele>39.0</ele><time>2026-04-18T08:45:18.999Z</time></trkpt><trkpt lat="15.107884389321091" lon="120.66193292994069"><ele>39.0</ele><time>2026-04-18T08:45:19.999Z</time></trkpt><trkpt lat="15.10801028248282" lon="120.66185035677495"><ele>39.0</ele><time>2026-04-18T08:45:20.999Z</time></trkpt><trkpt lat="15.108132939003136" lon="120.6617681085835"><ele>39.0</ele><time>2026-04-18T08:45:21.999Z</time></trkpt><trkpt lat="15.10825394422073" lon="120.66168882449601"><ele>39.0</ele><time>2026-04-18T08:45:22.999Z</time></trkpt><trkpt lat="15.108374631410259" lon="120.66161000375476"><ele>39.0</ele><time>2026-04-18T08:45:23.999Z</time></trkpt><trkpt lat="15.108494468545109" lon="120.66153027845552"><ele>39.0</ele><time>2026-04-18T08:45:24.999Z</time></trkpt><trkpt lat="15.108616130786615" lon="120.66145099721537"><ele>39.0</ele><time>2026-04-18T08:45:25.999Z</time></trkpt><trkpt lat="15.108737778449726" lon="120.66136880314755"><ele>39.0</ele><time>2026-04-18T08:45:26.999Z</time></trkpt><trkpt lat="15.108859675861321" lon="120.66129141549806"><ele>39.0</ele><time>2026-04-18T08:45:27.999Z</time></trkpt><trkpt lat="15.108979961837818" lon="120.66120941314823"><ele>39.0</ele><time>2026-04-18T08:45:28.999Z</time></trkpt><trkpt lat="15.10910176432086" lon="120.66112850402034"><ele>39.0</ele><time>2026-04-18T08:45:29.999Z</time></trkpt><trkpt lat="15.109220479718482" lon="120.66104781976891"><ele>39.0</ele><time>2026-04-18T08:45:30.999Z</time></trkpt><trkpt lat="15.109338563306355" lon="120.66096845951986"><ele>39.75</ele><time>2026-04-18T08:45:31.999Z</time></trkpt><trkpt lat="15.10945502866108" lon="120.66089049961734"><ele>40.5</ele><time>2026-04-18T08:45:32.999Z</time></trkpt><trkpt lat="15.109570450800284" lon="120.66081278158909"><ele>41.25</ele><time>2026-04-18T08:45:33.999Z</time></trkpt><trkpt lat="15.109685381103972" lon="120.660736474545"><ele>42.0</ele><time>2026-04-18T08:45:34.999Z</time></trkpt><trkpt lat="15.109799799052743" lon="120.66065967776034"><ele>42.25</ele><time>2026-04-18T08:45:35.999Z</time></trkpt><trkpt lat="15.109912825953678" lon="120.66058408373263"><ele>42.5</ele><time>2026-04-18T08:45:36.999Z</time></trkpt><trkpt lat="15.11002357181846" lon="120.66050793303884"><ele>42.75</ele><time>2026-04-18T08:45:37.999Z</time></trkpt><trkpt lat="15.110133515993583" lon="120.66043285090088"><ele>43.0</ele><time>2026-04-18T08:45:38.999Z</time></trkpt><trkpt lat="15.110242810978349" lon="120.66035818135461"><ele>43.0</ele><time>2026-04-18T08:45:39.999Z</time></trkpt><trkpt lat="15.110352191075586" lon="120.6602838120178"><ele>43.0</ele><time>2026-04-18T08:45:40.999Z</time></trkpt><trkpt lat="15.110462534931573" lon="120.66020984172111"><ele>43.0</ele><time>2026-04-18T08:45:41.999Z</time></trkpt><trkpt lat="15.11057309010898" lon="120.66013419372106"><ele>43.0</ele><time>2026-04-18T08:45:42.999Z</time></trkpt><trkpt lat="15.11068313182104" lon="120.66005974269137"><ele>43.0</ele><time>2026-04-18T08:45:43.999Z</time></trkpt><trkpt lat="15.110792118601902" lon="120.65998507950704"><ele>43.0</ele><time>2026-04-18T08:45:44.999Z</time></trkpt><trkpt lat="15.110897802425308" lon="120.659912018722"><ele>43.0</ele><time>2026-04-18T08:45:45.999Z</time></trkpt><trkpt lat="15.111005226082211" lon="120.659838017686"><ele>43.0</ele><time>2026-04-18T08:45:46.999Z</time></trkpt><trkpt lat="15.111113446787341" lon="120.65976400298945"><ele>43.0</ele><time>2026-04-18T08:45:47.999Z</time></trkpt><trkpt lat="15.111221383069534" lon="120.65968898716682"><ele>43.0</ele><time>2026-04-18T08:45:48.999Z</time></trkpt><trkpt lat="15.111329209149302" lon="120.65961412561178"><ele>43.0</ele><time>2026-04-18T08:45:49.999Z</time></trkpt><trkpt lat="15.111436409476616" lon="120.65954021621961"><ele>43.0</ele><time>2026-04-18T08:45:50.999Z</time></trkpt><trkpt lat="15.111540529538456" lon="120.65946793491464"><ele>43.25</ele><time>2026-04-18T08:45:51.999Z</time></trkpt><trkpt lat="15.11164259955694" lon="120.65939568592354"><ele>43.5</ele><time>2026-04-18T08:45:52.999Z</time></trkpt><trkpt lat="15.111744642027311" lon="120.6593244158209"><ele>43.75</ele><time>2026-04-18T08:45:53.999Z</time></trkpt><trkpt lat="15.111845006469455" lon="120.65925442313487"><ele>44.0</ele><time>2026-04-18T08:45:54.999Z</time></trkpt><trkpt lat="15.11194582185985" lon="120.65918483474314"><ele>44.0</ele><time>2026-04-18T08:45:55.999Z</time></trkpt><trkpt lat="15.112045244027888" lon="120.6591155756192"><ele>44.0</ele><time>2026-04-18T08:45:56.999Z</time></trkpt><trkpt lat="15.112142179539534" lon="120.65904755631131"><ele>44.0</ele><time>2026-04-18T08:45:57.999Z</time></trkpt><trkpt lat="15.112237260031268" lon="120.65898026523807"><ele>44.0</ele><time>2026-04-18T08:45:58.999Z</time></trkpt><trkpt lat="15.112332292483085" lon="120.65891336068478"><ele>43.5</ele><time>2026-04-18T08:45:59.999Z</time></trkpt><trkpt lat="15.112429222294864" lon="120.6588456844597"><ele>43.0</ele><time>2026-04-18T08:46:00.999Z</time></trkpt><trkpt lat="15.112525975589" lon="120.65877520000627"><ele>42.5</ele><time>2026-04-18T08:46:01.999Z</time></trkpt><trkpt lat="15.112625751466362" lon="120.6587044492038"><ele>42.0</ele><time>2026-04-18T08:46:02.999Z</time></trkpt><trkpt lat="15.11272647664399" lon="120.6586322398708"><ele>42.5</ele><time>2026-04-18T08:46:03.999Z</time></trkpt><trkpt lat="15.11282766803967" lon="120.65855824195818"><ele>43.0</ele><time>2026-04-18T08:46:04.999Z</time></trkpt><trkpt lat="15.1129297686263" lon="120.65848119832123"><ele>43.5</ele><time>2026-04-18T08:46:05.999Z</time></trkpt><trkpt lat="15.113035149957236" lon="120.65840130944714"><ele>44.0</ele><time>2026-04-18T08:46:06.999Z</time></trkpt><trkpt lat="15.113143849810061" lon="120.65831626898512"><ele>44.0</ele><time>2026-04-18T08:46:07.999Z</time></trkpt><trkpt lat="15.113256919839312" lon="120.65822684520677"><ele>44.0</ele><time>2026-04-18T08:46:08.999Z</time></trkpt><trkpt lat="15.113376150082715" lon="120.65813562258394"><ele>44.0</ele><time>2026-04-18T08:46:09.999Z</time></trkpt><trkpt lat="15.113499319678084" lon="120.6580422875083"><ele>44.0</ele><time>2026-04-18T08:46:10.999Z</time></trkpt><trkpt lat="15.113627640644145" lon="120.6579487966934"><ele>44.0</ele><time>2026-04-18T08:46:11.999Z</time></trkpt><trkpt lat="15.113759194136213" lon="120.6578541673885"><ele>44.0</ele><time>2026-04-18T08:46:12.999Z</time></trkpt><trkpt lat="15.113889206459557" lon="120.65775868250334"><ele>44.0</ele><time>2026-04-18T08:46:13.999Z</time></trkpt><trkpt lat="15.114018757622588" lon="120.65766202925911"><ele>43.0</ele><time>2026-04-18T08:46:14.999Z</time></trkpt><trkpt lat="15.11414857358184" lon="120.65756677376638"><ele>42.0</ele><time>2026-04-18T08:46:15.999Z</time></trkpt><trkpt lat="15.114280350327686" lon="120.65747049333407"><ele>41.0</ele><time>2026-04-18T08:46:16.999Z</time></trkpt><trkpt lat="15.114415416246832" lon="120.65737357737433"><ele>41.0</ele><time>2026-04-18T08:46:17.999Z</time></trkpt><trkpt lat="15.114551853773342" lon="120.65727517938026"><ele>41.0</ele><time>2026-04-18T08:46:18.999Z</time></trkpt><trkpt lat="15.11468887118075" lon="120.65717444534971"><ele>41.0</ele><time>2026-04-18T08:46:19.999Z</time></trkpt><trkpt lat="15.114829860270088" lon="120.65706984779062"><ele>42.0</ele><time>2026-04-18T08:46:20.999Z</time></trkpt><trkpt lat="15.114973080768818" lon="120.65696310210868"><ele>43.0</ele><time>2026-04-18T08:46:21.999Z</time></trkpt><trkpt lat="15.115118906797198" lon="120.6568539426239"><ele>44.0</ele><time>2026-04-18T08:46:22.999Z</time></trkpt><trkpt lat="15.115268873139273" lon="120.65674238676728"><ele>44.33333333333333</ele><time>2026-04-18T08:46:23.999Z</time></trkpt><trkpt lat="15.115422267762092" lon="120.6566281875166"><ele>44.666666666666664</ele><time>2026-04-18T08:46:24.999Z</time></trkpt><trkpt lat="15.115578217443236" lon="120.65651188955513"><ele>45.0</ele><time>2026-04-18T08:46:25.999Z</time></trkpt><trkpt lat="15.115736713507943" lon="120.65639135310109"><ele>45.0</ele><time>2026-04-18T08:46:26.999Z</time></trkpt><trkpt lat="15.115896383355727" lon="120.65626992494668"><ele>45.0</ele><time>2026-04-18T08:46:27.999Z</time></trkpt><trkpt lat="15.11605927726325" lon="120.6561465750469"><ele>45.0</ele><time>2026-04-18T08:46:28.999Z</time></trkpt><trkpt lat="15.11622446687908" lon="120.65602002437677"><ele>44.333333333333336</ele><time>2026-04-18T08:46:29.999Z</time></trkpt><trkpt lat="15.116393983150319" lon="120.65589007669392"><ele>43.66666666666667</ele><time>2026-04-18T08:46:30.999Z</time></trkpt><trkpt lat="15.116564927679699" lon="120.65575902990409"><ele>43.0</ele><time>2026-04-18T08:46:31.999Z</time></trkpt><trkpt lat="15.116738844075382" lon="120.65562531120624"><ele>43.0</ele><time>2026-04-18T08:46:32.999Z</time></trkpt><trkpt lat="15.116916418940933" lon="120.6554879864201"><ele>43.0</ele><time>2026-04-18T08:46:33.999Z</time></trkpt><trkpt lat="15.117096058632047" lon="120.65534906759115"><ele>43.0</ele><time>2026-04-18T08:46:34.999Z</time></trkpt><trkpt lat="15.117278219930409" lon="120.65520758673789"><ele>42.0</ele><time>2026-04-18T08:46:35.999Z</time></trkpt><trkpt lat="15.117462184748215" lon="120.6550645394939"><ele>41.0</ele><time>2026-04-18T08:46:36.999Z</time></trkpt><trkpt lat="15.117648961850882" lon="120.65491876137078"><ele>41.0</ele><time>2026-04-18T08:46:37.999Z</time></trkpt><trkpt lat="15.117839816438758" lon="120.65477105370172"><ele>41.0</ele><time>2026-04-18T08:46:38.999Z</time></trkpt><trkpt lat="15.118033712096064" lon="120.65462053689221"><ele>41.0</ele><time>2026-04-18T08:46:39.999Z</time></trkpt><trkpt lat="15.1182300119557" lon="120.6544671583182"><ele>41.0</ele><time>2026-04-18T08:46:40.999Z</time></trkpt><trkpt lat="15.11842807706898" lon="120.65431083178423"><ele>43.0</ele><time>2026-04-18T08:46:41.999Z</time></trkpt><trkpt lat="15.118627516944667" lon="120.65415276573427"><ele>45.0</ele><time>2026-04-18T08:46:42.999Z</time></trkpt><trkpt lat="15.118829274954663" lon="120.65399060544841"><ele>45.0</ele><time>2026-04-18T08:46:43.999Z</time></trkpt><trkpt lat="15.119030549304911" lon="120.65382699578657"><ele>45.0</ele><time>2026-04-18T08:46:44.999Z</time></trkpt><trkpt lat="15.119233362511" lon="120.65366258868589"><ele>45.5</ele><time>2026-04-18T08:46:45.999Z</time></trkpt><trkpt lat="15.119436829855223" lon="120.65349595009924"><ele>46.0</ele><time>2026-04-18T08:46:46.999Z</time></trkpt><trkpt lat="15.119642014597964" lon="120.65332940661858"><ele>46.0</ele><time>2026-04-18T08:46:47.999Z</time></trkpt><trkpt lat="15.11984862261527" lon="120.65316125040164"><ele>46.0</ele><time>2026-04-18T08:46:48.999Z</time></trkpt><trkpt lat="15.120054919002454" lon="120.65299256462771"><ele>46.0</ele><time>2026-04-18T08:46:49.999Z</time></trkpt><trkpt lat="15.120261234362593" lon="120.65282372889203"><ele>46.0</ele><time>2026-04-18T08:46:50.999Z</time></trkpt><trkpt lat="15.120466447507702" lon="120.65265329981179"><ele>46.0</ele><time>2026-04-18T08:46:51.999Z</time></trkpt><trkpt lat="15.120670999699506" lon="120.65248333016305"><ele>46.0</ele><time>2026-04-18T08:46:52.999Z</time></trkpt><trkpt lat="15.120874287409727" lon="120.6523144551866"><ele>45.5</ele><time>2026-04-18T08:46:53.999Z</time></trkpt><trkpt lat="15.121076784349631" lon="120.65214562803567"><ele>45.0</ele><time>2026-04-18T08:46:54.999Z</time></trkpt><trkpt lat="15.121277521188262" lon="120.65197917959634"><ele>45.0</ele><time>2026-04-18T08:46:55.999Z</time></trkpt><trkpt lat="15.121476418594908" lon="120.65181310372002"><ele>45.0</ele><time>2026-04-18T08:46:56.999Z</time></trkpt><trkpt lat="15.121674417507286" lon="120.65164790938002"><ele>45.0</ele><time>2026-04-18T08:46:57.999Z</time></trkpt><trkpt lat="15.121869472767878" lon="120.65148021733638"><ele>45.0</ele><time>2026-04-18T08:46:58.999Z</time></trkpt><trkpt lat="15.122064516063737" lon="120.65131233846725"><ele>45.0</ele><time>2026-04-18T08:46:59.999Z</time></trkpt><trkpt lat="15.122260281095208" lon="120.6511436774645"><ele>45.0</ele><time>2026-04-18T08:47:00.999Z</time></trkpt><trkpt lat="15.122456247746033" lon="120.65097424140482"><ele>46.0</ele><time>2026-04-18T08:47:01.999Z</time></trkpt><trkpt lat="15.122653699823543" lon="120.65080369829441"><ele>47.0</ele><time>2026-04-18T08:47:02.999Z</time></trkpt><trkpt lat="15.122852426537039" lon="120.65063271351865"><ele>47.0</ele><time>2026-04-18T08:47:03.999Z</time></trkpt><trkpt lat="15.123051635534688" lon="120.65045955602614"><ele>47.0</ele><time>2026-04-18T08:47:04.999Z</time></trkpt><trkpt lat="15.123251238433465" lon="120.65028549470821"><ele>48.0</ele><time>2026-04-18T08:47:05.999Z</time></trkpt><trkpt lat="15.12345028411459" lon="120.65011155782663"><ele>49.0</ele><time>2026-04-18T08:47:06.999Z</time></trkpt><trkpt lat="15.123645766540193" lon="120.64993873603204"><ele>49.0</ele><time>2026-04-18T08:47:07.999Z</time></trkpt><trkpt lat="15.123839137393658" lon="120.64976905103592"><ele>49.0</ele><time>2026-04-18T08:47:08.999Z</time></trkpt><trkpt lat="15.124027996274943" lon="120.64960038153623"><ele>49.0</ele><time>2026-04-18T08:47:09.999Z</time></trkpt><trkpt lat="15.124214048021052" lon="120.64943550585313"><ele>49.0</ele><time>2026-04-18T08:47:10.999Z</time></trkpt><trkpt lat="15.124397766237363" lon="120.64927149672067"><ele>49.0</ele><time>2026-04-18T08:47:11.999Z</time></trkpt><trkpt lat="15.124579974778266" lon="120.64910807632478"><ele>49.0</ele><time>2026-04-18T08:47:12.999Z</time></trkpt><trkpt lat="15.124757356447537" lon="120.64894629351863"><ele>48.5</ele><time>2026-04-18T08:47:13.999Z</time></trkpt><trkpt lat="15.124932884365263" lon="120.64878586554809"><ele>48.0</ele><time>2026-04-18T08:47:14.999Z</time></trkpt><trkpt lat="15.125101201646393" lon="120.64863037182806"><ele>48.66666666666667</ele><time>2026-04-18T08:47:15.999Z</time></trkpt><trkpt lat="15.125262616451867" lon="120.64848216911672"><ele>49.333333333333336</ele><time>2026-04-18T08:47:16.999Z</time></trkpt><trkpt lat="15.125418475590697" lon="120.64834156150485"><ele>50.0</ele><time>2026-04-18T08:47:17.999Z</time></trkpt><trkpt lat="15.12556734008918" lon="120.64820627657262"><ele>50.0</ele><time>2026-04-18T08:47:18.999Z</time></trkpt><trkpt lat="15.125708450064499" lon="120.64807778965482"><ele>50.0</ele><time>2026-04-18T08:47:19.999Z</time></trkpt><trkpt lat="15.125842867686254" lon="120.64795306611029"><ele>50.0</ele><time>2026-04-18T08:47:20.999Z</time></trkpt><trkpt lat="15.125973328765795" lon="120.64783140451117"><ele>49.333333333333336</ele><time>2026-04-18T08:47:21.999Z</time></trkpt><trkpt lat="15.126100392977166" lon="120.64771161980565"><ele>48.66666666666667</ele><time>2026-04-18T08:47:22.999Z</time></trkpt><trkpt lat="15.12622074012066" lon="120.64759847573482"><ele>48.0</ele><time>2026-04-18T08:47:23.999Z</time></trkpt><trkpt lat="15.12633303927913" lon="120.64749161462747"><ele>48.0</ele><time>2026-04-18T08:47:24.999Z</time></trkpt><trkpt lat="15.126440944879151" lon="120.6473888385813"><ele>48.0</ele><time>2026-04-18T08:47:25.999Z</time></trkpt><trkpt lat="15.126547152971902" lon="120.64729002900297"><ele>48.0</ele><time>2026-04-18T08:47:26.999Z</time></trkpt><trkpt lat="15.126652923735655" lon="120.64719301071692"><ele>48.0</ele><time>2026-04-18T08:47:27.999Z</time></trkpt><trkpt lat="15.126756507978827" lon="120.64709567633845"><ele>48.0</ele><time>2026-04-18T08:47:28.999Z</time></trkpt><trkpt lat="15.126859805702953" lon="120.64699753382912"><ele>48.0</ele><time>2026-04-18T08:47:29.999Z</time></trkpt><trkpt lat="15.12696248449634" lon="120.64690009172914"><ele>48.0</ele><time>2026-04-18T08:47:30.999Z</time></trkpt><trkpt lat="15.127065350795409" lon="120.64680304415793"><ele>48.0</ele><time>2026-04-18T08:47:31.999Z</time></trkpt><trkpt lat="15.127167573246727" lon="120.64670855904802"><ele>48.0</ele><time>2026-04-18T08:47:32.999Z</time></trkpt><trkpt lat="15.127270249803647" lon="120.64661265467312"><ele>48.0</ele><time>2026-04-18T08:47:33.999Z</time></trkpt><trkpt lat="15.127372338574181" lon="120.64651641708872"><ele>48.0</ele><time>2026-04-18T08:47:34.999Z</time></trkpt><trkpt lat="15.127474406158429" lon="120.6464173884368"><ele>48.0</ele><time>2026-04-18T08:47:35.999Z</time></trkpt><trkpt lat="15.127575506851382" lon="120.6463192602023"><ele>48.0</ele><time>2026-04-18T08:47:36.999Z</time></trkpt><trkpt lat="15.127676385732688" lon="120.64622060909713"><ele>48.0</ele><time>2026-04-18T08:47:37.999Z</time></trkpt><trkpt lat="15.127777807138546" lon="120.64612115643229"><ele>48.0</ele><time>2026-04-18T08:47:38.999Z</time></trkpt><trkpt lat="15.127881298470925" lon="120.64602345253354"><ele>48.0</ele><time>2026-04-18T08:47:39.999Z</time></trkpt><trkpt lat="15.127982847616037" lon="120.64592688382085"><ele>48.25</ele><time>2026-04-18T08:47:40.999Z</time></trkpt><trkpt lat="15.128081841202842" lon="120.64583089783123"><ele>48.5</ele><time>2026-04-18T08:47:41.999Z</time></trkpt><trkpt lat="15.128177521205002" lon="120.64573878576854"><ele>48.75</ele><time>2026-04-18T08:47:42.999Z</time></trkpt><trkpt lat="15.1282746153858" lon="120.64564516040362"><ele>49.0</ele><time>2026-04-18T08:47:43.999Z</time></trkpt><trkpt lat="15.128371509833945" lon="120.64555113533395"><ele>49.0</ele><time>2026-04-18T08:47:44.999Z</time></trkpt><trkpt lat="15.12847026818658" lon="120.64545745067112"><ele>49.0</ele><time>2026-04-18T08:47:45.999Z</time></trkpt><trkpt lat="15.128572047550554" lon="120.6453602640297"><ele>49.0</ele><time>2026-04-18T08:47:46.999Z</time></trkpt><trkpt lat="15.128676150144942" lon="120.64525999224436"><ele>49.0</ele><time>2026-04-18T08:47:47.999Z</time></trkpt><trkpt lat="15.128780704435139" lon="120.6451571222919"><ele>49.0</ele><time>2026-04-18T08:47:48.999Z</time></trkpt><trkpt lat="15.128887173858153" lon="120.64505368685545"><ele>49.0</ele><time>2026-04-18T08:47:49.999Z</time></trkpt><trkpt lat="15.128994739492715" lon="120.64494831212684"><ele>49.0</ele><time>2026-04-18T08:47:50.999Z</time></trkpt><trkpt lat="15.129102822240993" lon="120.6448412376236"><ele>49.0</ele><time>2026-04-18T08:47:51.999Z</time></trkpt><trkpt lat="15.129212373639499" lon="120.6447330382884"><ele>49.33333333333333</ele><time>2026-04-18T08:47:52.999Z</time></trkpt><trkpt lat="15.129323846505988" lon="120.64462385021325"><ele>49.66666666666667</ele><time>2026-04-18T08:47:53.999Z</time></trkpt><trkpt lat="15.129436856033797" lon="120.64451219283312"><ele>50.0</ele><time>2026-04-18T08:47:54.999Z</time></trkpt><trkpt lat="15.12955290146761" lon="120.64439881284109"><ele>51.0</ele><time>2026-04-18T08:47:55.999Z</time></trkpt><trkpt lat="15.12966943012903" lon="120.64428304957133"><ele>52.0</ele><time>2026-04-18T08:47:56.999Z</time></trkpt><trkpt lat="15.129786877236661" lon="120.64416472094995"><ele>53.0</ele><time>2026-04-18T08:47:57.999Z</time></trkpt><trkpt lat="15.129906315885078" lon="120.64404504444427"><ele>53.0</ele><time>2026-04-18T08:47:58.999Z</time></trkpt><trkpt lat="15.130027200437231" lon="120.64392268080734"><ele>53.0</ele><time>2026-04-18T08:47:59.999Z</time></trkpt><trkpt lat="15.13015181823637" lon="120.64379819721565"><ele>53.0</ele><time>2026-04-18T08:48:00.999Z</time></trkpt><trkpt lat="15.130278031733223" lon="120.64366999829453"><ele>53.0</ele><time>2026-04-18T08:48:01.999Z</time></trkpt><trkpt lat="15.130407752364542" lon="120.6435385221635"><ele>53.0</ele><time>2026-04-18T08:48:02.999Z</time></trkpt><trkpt lat="15.130538132050354" lon="120.64340456062538"><ele>53.0</ele><time>2026-04-18T08:48:03.999Z</time></trkpt><trkpt lat="15.130672035337566" lon="120.64326870882228"><ele>52.0</ele><time>2026-04-18T08:48:04.999Z</time></trkpt><trkpt lat="15.130807816385241" lon="120.64312989269781"><ele>51.0</ele><time>2026-04-18T08:48:05.999Z</time></trkpt><trkpt lat="15.13094570614475" lon="120.64298821738545"><ele>50.0</ele><time>2026-04-18T08:48:06.999Z</time></trkpt><trkpt lat="15.13108646641114" lon="120.64284246342856"><ele>50.333333333333336</ele><time>2026-04-18T08:48:07.999Z</time></trkpt><trkpt lat="15.131230837284885" lon="120.64269404054227"><ele>50.66666666666667</ele><time>2026-04-18T08:48:08.999Z</time></trkpt><trkpt lat="15.131378147506112" lon="120.64254140191433"><ele>51.0</ele><time>2026-04-18T08:48:09.999Z</time></trkpt><trkpt lat="15.131528261694196" lon="120.64238733578024"><ele>51.0</ele><time>2026-04-18T08:48:10.999Z</time></trkpt><trkpt lat="15.131680558884552" lon="120.64223265114855"><ele>51.0</ele><time>2026-04-18T08:48:11.999Z</time></trkpt><trkpt lat="15.131833000630627" lon="120.64207769962289"><ele>51.0</ele><time>2026-04-18T08:48:12.999Z</time></trkpt><trkpt lat="15.131986386221286" lon="120.64192038990583"><ele>51.33333333333333</ele><time>2026-04-18T08:48:13.999Z</time></trkpt><trkpt lat="15.13213976914105" lon="120.64176073450793"><ele>51.666666666666664</ele><time>2026-04-18T08:48:14.999Z</time></trkpt><trkpt lat="15.132295147444943" lon="120.64159977335926"><ele>52.0</ele><time>2026-04-18T08:48:15.999Z</time></trkpt><trkpt lat="15.1324480867048" lon="120.64143706333742"><ele>52.0</ele><time>2026-04-18T08:48:16.999Z</time></trkpt><trkpt lat="15.132601350444318" lon="120.64127511664033"><ele>52.0</ele><time>2026-04-18T08:48:17.999Z</time></trkpt><trkpt lat="15.132753824025169" lon="120.64111287950189"><ele>52.0</ele><time>2026-04-18T08:48:18.999Z</time></trkpt><trkpt lat="15.132905849578245" lon="120.64095264802624"><ele>52.33333333333333</ele><time>2026-04-18T08:48:19.999Z</time></trkpt><trkpt lat="15.133059848531847" lon="120.64079121563016"><ele>52.66666666666667</ele><time>2026-04-18T08:48:20.999Z</time></trkpt><trkpt lat="15.133212766423542" lon="120.64062738740509"><ele>53.0</ele><time>2026-04-18T08:48:21.999Z</time></trkpt><trkpt lat="15.13336666669047" lon="120.64046444251765"><ele>53.0</ele><time>2026-04-18T08:48:22.999Z</time></trkpt><trkpt lat="15.133518625039152" lon="120.64030328440344"><ele>53.0</ele><time>2026-04-18T08:48:23.999Z</time></trkpt><trkpt lat="15.133668898273939" lon="120.64014324167866"><ele>53.0</ele><time>2026-04-18T08:48:24.999Z</time></trkpt><trkpt lat="15.133814809037611" lon="120.63998393371286"><ele>53.333333333333336</ele><time>2026-04-18T08:48:25.999Z</time></trkpt><trkpt lat="15.133957098263291" lon="120.63982625404691"><ele>53.66666666666667</ele><time>2026-04-18T08:48:26.999Z</time></trkpt><trkpt lat="15.134095118680435" lon="120.6396734490074"><ele>54.0</ele><time>2026-04-18T08:48:27.999Z</time></trkpt><trkpt lat="15.134230965490387" lon="120.63952449417486"><ele>54.66666666666667</ele><time>2026-04-18T08:48:28.999Z</time></trkpt><trkpt lat="15.134364977853663" lon="120.63937745260392"><ele>55.333333333333336</ele><time>2026-04-18T08:48:29.999Z</time></trkpt><trkpt lat="15.134494852422531" lon="120.63923345766005"><ele>56.0</ele><time>2026-04-18T08:48:30.999Z</time></trkpt><trkpt lat="15.134621661630959" lon="120.63909095257347"><ele>56.0</ele><time>2026-04-18T08:48:31.999Z</time></trkpt><trkpt lat="15.134747199660655" lon="120.63895095568166"><ele>56.0</ele><time>2026-04-18T08:48:32.999Z</time></trkpt><trkpt lat="15.134871204616058" lon="120.63881126528051"><ele>56.0</ele><time>2026-04-18T08:48:33.999Z</time></trkpt><trkpt lat="15.134993776265842" lon="120.63867409709452"><ele>56.333333333333336</ele><time>2026-04-18T08:48:34.999Z</time></trkpt><trkpt lat="15.135115953296586" lon="120.63853732306545"><ele>56.66666666666667</ele><time>2026-04-18T08:48:35.999Z</time></trkpt><trkpt lat="15.135239341062272" lon="120.63840045581537"><ele>57.0</ele><time>2026-04-18T08:48:36.999Z</time></trkpt><trkpt lat="15.13536440550183" lon="120.63826332669984"><ele>57.0</ele><time>2026-04-18T08:48:37.999Z</time></trkpt><trkpt lat="15.13548893372545" lon="120.63812457931988"><ele>57.0</ele><time>2026-04-18T08:48:38.999Z</time></trkpt><trkpt lat="15.135614589442095" lon="120.63798429586372"><ele>57.0</ele><time>2026-04-18T08:48:39.999Z</time></trkpt><trkpt lat="15.135739604186986" lon="120.63784345839701"><ele>57.0</ele><time>2026-04-18T08:48:40.999Z</time></trkpt><trkpt lat="15.135863605539196" lon="120.63770221717374"><ele>57.0</ele><time>2026-04-18T08:48:41.999Z</time></trkpt><trkpt lat="15.135988738044443" lon="120.63755897386024"><ele>57.0</ele><time>2026-04-18T08:48:42.999Z</time></trkpt><trkpt lat="15.136115039426382" lon="120.63741281745502"><ele>57.0</ele><time>2026-04-18T08:48:43.999Z</time></trkpt><trkpt lat="15.136244994074906" lon="120.63726356396371"><ele>57.0</ele><time>2026-04-18T08:48:44.999Z</time></trkpt><trkpt lat="15.136376856311161" lon="120.63711236220135"><ele>57.0</ele><time>2026-04-18T08:48:45.999Z</time></trkpt><trkpt lat="15.136510117889111" lon="120.63695933909696"><ele>56.33333333333333</ele><time>2026-04-18T08:48:46.999Z</time></trkpt><trkpt lat="15.13664518634343" lon="120.63680501351251"><ele>55.666666666666664</ele><time>2026-04-18T08:48:47.999Z</time></trkpt><trkpt lat="15.136782037735518" lon="120.63664997628234"><ele>55.0</ele><time>2026-04-18T08:48:48.999Z</time></trkpt><trkpt lat="15.136921300143138" lon="120.63649342038211"><ele>55.0</ele><time>2026-04-18T08:48:49.999Z</time></trkpt><trkpt lat="15.137062297899044" lon="120.63633560848389"><ele>55.0</ele><time>2026-04-18T08:48:50.999Z</time></trkpt><trkpt lat="15.13720493375189" lon="120.63617575531298"><ele>55.0</ele><time>2026-04-18T08:48:51.999Z</time></trkpt><trkpt lat="15.137349570133035" lon="120.63601467483734"><ele>56.0</ele><time>2026-04-18T08:48:52.999Z</time></trkpt><trkpt lat="15.137497189283321" lon="120.63585221641371"><ele>57.0</ele><time>2026-04-18T08:48:53.999Z</time></trkpt><trkpt lat="15.137647394458043" lon="120.63568753920549"><ele>58.0</ele><time>2026-04-18T08:48:54.999Z</time></trkpt><trkpt lat="15.137799826694078" lon="120.6355210990757"><ele>58.0</ele><time>2026-04-18T08:48:55.999Z</time></trkpt><trkpt lat="15.13795424928774" lon="120.6353516531632"><ele>58.0</ele><time>2026-04-18T08:48:56.999Z</time></trkpt><trkpt lat="15.138112301685648" lon="120.63517908044167"><ele>60.0</ele><time>2026-04-18T08:48:57.999Z</time></trkpt><trkpt lat="15.138272476327867" lon="120.63500464088904"><ele>62.0</ele><time>2026-04-18T08:48:58.999Z</time></trkpt><trkpt lat="15.13843461391076" lon="120.63482824851692"><ele>62.0</ele><time>2026-04-18T08:48:59.999Z</time></trkpt><trkpt lat="15.138597232605566" lon="120.63464935263134"><ele>62.0</ele><time>2026-04-18T08:49:00.999Z</time></trkpt><trkpt lat="15.138761332096486" lon="120.63446961894567"><ele>62.0</ele><time>2026-04-18T08:49:01.999Z</time></trkpt><trkpt lat="15.13892570337326" lon="120.63428856105551"><ele>62.0</ele><time>2026-04-18T08:49:02.999Z</time></trkpt><trkpt lat="15.139092064310807" lon="120.63410715918197"><ele>61.0</ele><time>2026-04-18T08:49:03.999Z</time></trkpt><trkpt lat="15.139259500029596" lon="120.63392514706521"><ele>60.0</ele><time>2026-04-18T08:49:04.999Z</time></trkpt><trkpt lat="15.13942859561506" lon="120.63374369600027"><ele>59.0</ele><time>2026-04-18T08:49:05.999Z</time></trkpt><trkpt lat="15.13959958854953" lon="120.63356176219715"><ele>58.0</ele><time>2026-04-18T08:49:06.999Z</time></trkpt><trkpt lat="15.139770766778625" lon="120.6333802634575"><ele>59.5</ele><time>2026-04-18T08:49:07.999Z</time></trkpt><trkpt lat="15.139940468942564" lon="120.63320028460912"><ele>61.0</ele><time>2026-04-18T08:49:08.999Z</time></trkpt><trkpt lat="15.140107764736355" lon="120.63302203613168"><ele>61.0</ele><time>2026-04-18T08:49:09.999Z</time></trkpt><trkpt lat="15.140272480216879" lon="120.6328466765304"><ele>61.0</ele><time>2026-04-18T08:49:10.999Z</time></trkpt><trkpt lat="15.14043343500395" lon="120.63267301449433"><ele>61.0</ele><time>2026-04-18T08:49:11.999Z</time></trkpt><trkpt lat="15.140593137591537" lon="120.6325042531891"><ele>61.0</ele><time>2026-04-18T08:49:12.999Z</time></trkpt><trkpt lat="15.140750707389937" lon="120.632339538216"><ele>61.0</ele><time>2026-04-18T08:49:13.999Z</time></trkpt><trkpt lat="15.140905617308162" lon="120.63217754176915"><ele>61.0</ele><time>2026-04-18T08:49:14.999Z</time></trkpt><trkpt lat="15.141058659698245" lon="120.63201804363453"><ele>61.0</ele><time>2026-04-18T08:49:15.999Z</time></trkpt><trkpt lat="15.141209457937745" lon="120.63186042005866"><ele>61.0</ele><time>2026-04-18T08:49:16.999Z</time></trkpt><trkpt lat="15.14135977352045" lon="120.63170529378746"><ele>61.0</ele><time>2026-04-18T08:49:17.999Z</time></trkpt><trkpt lat="15.141510860517087" lon="120.63154915498575"><ele>61.0</ele><time>2026-04-18T08:49:18.999Z</time></trkpt><trkpt lat="15.141662443919765" lon="120.63139330131938"><ele>61.33333333333333</ele><time>2026-04-18T08:49:19.999Z</time></trkpt><trkpt lat="15.14181600037824" lon="120.63123587858678"><ele>61.66666666666667</ele><time>2026-04-18T08:49:20.999Z</time></trkpt><trkpt lat="15.141971202831552" lon="120.63107664078288"><ele>62.0</ele><time>2026-04-18T08:49:21.999Z</time></trkpt><trkpt lat="15.14212767874175" lon="120.6309152786237"><ele>62.333333333333336</ele><time>2026-04-18T08:49:22.999Z</time></trkpt><trkpt lat="15.142286235602322" lon="120.63075348970382"><ele>62.66666666666667</ele><time>2026-04-18T08:49:23.999Z</time></trkpt><trkpt lat="15.142447030445602" lon="120.63059209780802"><ele>63.0</ele><time>2026-04-18T08:49:24.999Z</time></trkpt><trkpt lat="15.142608994396078" lon="120.63042880815469"><ele>63.0</ele><time>2026-04-18T08:49:25.999Z</time></trkpt><trkpt lat="15.142774900595898" lon="120.63026406015197"><ele>63.0</ele><time>2026-04-18T08:49:26.999Z</time></trkpt><trkpt lat="15.142943582756962" lon="120.63009793928869"><ele>63.0</ele><time>2026-04-18T08:49:27.999Z</time></trkpt><trkpt lat="15.14311521692683" lon="120.62993103454241"><ele>63.0</ele><time>2026-04-18T08:49:28.999Z</time></trkpt><trkpt lat="15.143287767346495" lon="120.6297608356726"><ele>63.0</ele><time>2026-04-18T08:49:29.999Z</time></trkpt><trkpt lat="15.143463579473135" lon="120.62958894918218"><ele>63.0</ele><time>2026-04-18T08:49:30.999Z</time></trkpt><trkpt lat="15.14364285147216" lon="120.62941308408638"><ele>63.0</ele><time>2026-04-18T08:49:31.999Z</time></trkpt><trkpt lat="15.143824074992558" lon="120.62923650058487"><ele>63.0</ele><time>2026-04-18T08:49:32.999Z</time></trkpt><trkpt lat="15.14400684998323" lon="120.62905976229196"><ele>63.0</ele><time>2026-04-18T08:49:33.999Z</time></trkpt><trkpt lat="15.144191597909815" lon="120.62888056218597"><ele>63.0</ele><time>2026-04-18T08:49:34.999Z</time></trkpt><trkpt lat="15.144378354826024" lon="120.62869995889149"><ele>63.0</ele><time>2026-04-18T08:49:35.999Z</time></trkpt><trkpt lat="15.144565720241127" lon="120.62851795093027"><ele>63.0</ele><time>2026-04-18T08:49:36.999Z</time></trkpt><trkpt lat="15.144754755413024" lon="120.6283357353098"><ele>63.0</ele><time>2026-04-18T08:49:37.999Z</time></trkpt><trkpt lat="15.14494523424786" lon="120.62815237122523"><ele>63.0</ele><time>2026-04-18T08:49:38.999Z</time></trkpt><trkpt lat="15.145137626534012" lon="120.62796758601054"><ele>63.5</ele><time>2026-04-18T08:49:39.999Z</time></trkpt><trkpt lat="15.145331564624565" lon="120.62778286307629"><ele>64.0</ele><time>2026-04-18T08:49:40.999Z</time></trkpt><trkpt lat="15.145526273906158" lon="120.62759780245875"><ele>63.5</ele><time>2026-04-18T08:49:41.999Z</time></trkpt><trkpt lat="15.145722306296376" lon="120.62741167381635"><ele>63.0</ele><time>2026-04-18T08:49:42.999Z</time></trkpt><trkpt lat="15.14591927917084" lon="120.62722516515441"><ele>63.0</ele><time>2026-04-18T08:49:44Z</time></trkpt><trkpt lat="15.146117404609322" lon="120.62703902327756"><ele>63.0</ele><time>2026-04-18T08:49:45Z</time></trkpt><trkpt lat="15.146316996145238" lon="120.62685280874753"><ele>62.5</ele><time>2026-04-18T08:49:46Z</time></trkpt><trkpt lat="15.146517191011855" lon="120.62666650163749"><ele>62.0</ele><time>2026-04-18T08:49:47Z</time></trkpt><trkpt lat="15.146716280765622" lon="120.62648002857524"><ele>62.0</ele><time>2026-04-18T08:49:48Z</time></trkpt><trkpt lat="15.146915269176034" lon="120.6262954956331"><ele>62.0</ele><time>2026-04-18T08:49:49Z</time></trkpt><trkpt lat="15.147113452509432" lon="120.62611323640085"><ele>62.5</ele><time>2026-04-18T08:49:50Z</time></trkpt><trkpt lat="15.147310969140289" lon="120.6259323089555"><ele>63.0</ele><time>2026-04-18T08:49:51Z</time></trkpt><trkpt lat="15.147508353002594" lon="120.62575312714237"><ele>63.5</ele><time>2026-04-18T08:49:52Z</time></trkpt><trkpt lat="15.147707058120009" lon="120.62557696776202"><ele>64.0</ele><time>2026-04-18T08:49:53Z</time></trkpt><trkpt lat="15.147905485839598" lon="120.62539963913305"><ele>63.0</ele><time>2026-04-18T08:49:54Z</time></trkpt><trkpt lat="15.148105773683481" lon="120.62522235018125"><ele>62.0</ele><time>2026-04-18T08:49:55Z</time></trkpt><trkpt lat="15.148304904234848" lon="120.62504229602322"><ele>62.0</ele><time>2026-04-18T08:49:56Z</time></trkpt><trkpt lat="15.1485052276184" lon="120.62486332293965"><ele>62.0</ele><time>2026-04-18T08:49:57Z</time></trkpt><trkpt lat="15.148704994176143" lon="120.62468263385823"><ele>62.0</ele><time>2026-04-18T08:49:58Z</time></trkpt><trkpt lat="15.148903798308096" lon="120.6245042461229"><ele>62.0</ele><time>2026-04-18T08:49:59Z</time></trkpt><trkpt lat="15.149101774953163" lon="120.624328582079"><ele>60.5</ele><time>2026-04-18T08:50:00Z</time></trkpt><trkpt lat="15.149296404484772" lon="120.62415747855333"><ele>59.0</ele><time>2026-04-18T08:50:01Z</time></trkpt><trkpt lat="15.14948867786313" lon="120.62398953336475"><ele>59.0</ele><time>2026-04-18T08:50:02Z</time></trkpt><trkpt lat="15.149678656091545" lon="120.62382392160394"><ele>59.0</ele><time>2026-04-18T08:50:03Z</time></trkpt><trkpt lat="15.149864680405159" lon="120.62366141196809"><ele>62.0</ele><time>2026-04-18T08:50:04Z</time></trkpt><trkpt lat="15.150047509183791" lon="120.62350097033871"><ele>65.0</ele><time>2026-04-18T08:50:05Z</time></trkpt><trkpt lat="15.150227986846305" lon="120.62334260764078"><ele>65.0</ele><time>2026-04-18T08:50:06Z</time></trkpt><trkpt lat="15.15040809299267" lon="120.62318606543218"><ele>65.0</ele><time>2026-04-18T08:50:07Z</time></trkpt><trkpt lat="15.150588135829114" lon="120.6230306159339"><ele>65.5</ele><time>2026-04-18T08:50:08Z</time></trkpt><trkpt lat="15.15076871415764" lon="120.62287474507536"><ele>66.0</ele><time>2026-04-18T08:50:09Z</time></trkpt><trkpt lat="15.150949166616146" lon="120.62271997288605"><ele>67.5</ele><time>2026-04-18T08:50:10Z</time></trkpt><trkpt lat="15.151129700677332" lon="120.622566070211"><ele>69.0</ele><time>2026-04-18T08:50:11Z</time></trkpt><trkpt lat="15.151309166279093" lon="120.62241549762707"><ele>69.0</ele><time>2026-04-18T08:50:12Z</time></trkpt><trkpt lat="15.151487469203424" lon="120.62226566501958"><ele>69.0</ele><time>2026-04-18T08:50:13Z</time></trkpt><trkpt lat="15.15166137601017" lon="120.62211631612968"><ele>68.66666666666667</ele><time>2026-04-18T08:50:14Z</time></trkpt><trkpt lat="15.151829111504012" lon="120.62197276747366"><ele>68.33333333333334</ele><time>2026-04-18T08:50:15Z</time></trkpt><trkpt lat="15.15198928534829" lon="120.6218357856761"><ele>68.0</ele><time>2026-04-18T08:50:16Z</time></trkpt><trkpt lat="15.152144420827405" lon="120.62170461903146"><ele>68.0</ele><time>2026-04-18T08:50:17Z</time></trkpt><trkpt lat="15.152297967431243" lon="120.62157515351993"><ele>68.0</ele><time>2026-04-18T08:50:18Z</time></trkpt><trkpt lat="15.152451391775498" lon="120.62144863009038"><ele>68.0</ele><time>2026-04-18T08:50:19Z</time></trkpt><trkpt lat="15.152608593529921" lon="120.6213239246821"><ele>68.33333333333334</ele><time>2026-04-18T08:50:20Z</time></trkpt><trkpt lat="15.152772649449163" lon="120.62119785508368"><ele>68.66666666666667</ele><time>2026-04-18T08:50:21Z</time></trkpt><trkpt lat="15.152942712676637" lon="120.62106910964802"><ele>69.0</ele><time>2026-04-18T08:50:22Z</time></trkpt><trkpt lat="15.15311582335902" lon="120.6209348968598"><ele>69.66666666666667</ele><time>2026-04-18T08:50:23Z</time></trkpt><trkpt lat="15.153291891948394" lon="120.62079663668855"><ele>70.33333333333334</ele><time>2026-04-18T08:50:24Z</time></trkpt><trkpt lat="15.153469347272432" lon="120.62065535093252"><ele>71.0</ele><time>2026-04-18T08:50:25Z</time></trkpt><trkpt lat="15.153649240410948" lon="120.62051217453539"><ele>71.0</ele><time>2026-04-18T08:50:26Z</time></trkpt><trkpt lat="15.153830468724625" lon="120.62036795998321"><ele>71.0</ele><time>2026-04-18T08:50:27Z</time></trkpt><trkpt lat="15.154010361327776" lon="120.6202256380251"><ele>71.0</ele><time>2026-04-18T08:50:28Z</time></trkpt><trkpt lat="15.154188875386307" lon="120.62008396497306"><ele>71.0</ele><time>2026-04-18T08:50:29Z</time></trkpt><trkpt lat="15.15436703962157" lon="120.61994333334925"><ele>71.0</ele><time>2026-04-18T08:50:30Z</time></trkpt><trkpt lat="15.154542854999134" lon="120.61980463903038"><ele>71.0</ele><time>2026-04-18T08:50:31Z</time></trkpt><trkpt lat="15.154717158809477" lon="120.61966685941161"><ele>71.0</ele><time>2026-04-18T08:50:32Z</time></trkpt><trkpt lat="15.154890692880672" lon="120.61952887019326"><ele>71.0</ele><time>2026-04-18T08:50:33Z</time></trkpt><trkpt lat="15.155063497633144" lon="120.61939181744076"><ele>71.66666666666667</ele><time>2026-04-18T08:50:34Z</time></trkpt><trkpt lat="15.1552334711588" lon="120.61925773607993"><ele>72.33333333333333</ele><time>2026-04-18T08:50:35Z</time></trkpt><trkpt lat="15.155401555689034" lon="120.6191265029732"><ele>73.0</ele><time>2026-04-18T08:50:36Z</time></trkpt><trkpt lat="15.155567849476178" lon="120.61899574965307"><ele>73.0</ele><time>2026-04-18T08:50:37Z</time></trkpt><trkpt lat="15.15573172943643" lon="120.61886829216354"><ele>73.0</ele><time>2026-04-18T08:50:38Z</time></trkpt><trkpt lat="15.155892722511018" lon="120.6187429363888"><ele>73.0</ele><time>2026-04-18T08:50:39Z</time></trkpt><trkpt lat="15.156051412712939" lon="120.61861921627374"><ele>73.66666666666666</ele><time>2026-04-18T08:50:40Z</time></trkpt><trkpt lat="15.156208727950272" lon="120.61849527861833"><ele>74.33333333333333</ele><time>2026-04-18T08:50:41Z</time></trkpt><trkpt lat="15.156365876064905" lon="120.61837059933983"><ele>75.0</ele><time>2026-04-18T08:50:42Z</time></trkpt><trkpt lat="15.156522497343952" lon="120.61824443350801"><ele>74.33333333333333</ele><time>2026-04-18T08:50:43Z</time></trkpt><trkpt lat="15.156678939673474" lon="120.6181194728282"><ele>73.66666666666666</ele><time>2026-04-18T08:50:44Z</time></trkpt><trkpt lat="15.156833556556913" lon="120.61799821305253"><ele>73.0</ele><time>2026-04-18T08:50:45Z</time></trkpt><trkpt lat="15.156987256359402" lon="120.617879412114"><ele>73.0</ele><time>2026-04-18T08:50:46Z</time></trkpt><trkpt lat="15.157141747922761" lon="120.61776166128371"><ele>73.0</ele><time>2026-04-18T08:50:47Z</time></trkpt><trkpt lat="15.157294512530145" lon="120.61764520248093"><ele>73.0</ele><time>2026-04-18T08:50:48Z</time></trkpt><trkpt lat="15.157446923877815" lon="120.6175285611236"><ele>73.0</ele><time>2026-04-18T08:50:49Z</time></trkpt><trkpt lat="15.157601690491536" lon="120.6174114425823"><ele>73.0</ele><time>2026-04-18T08:50:50Z</time></trkpt><trkpt lat="15.15775728298575" lon="120.6172940563014"><ele>73.0</ele><time>2026-04-18T08:50:51Z</time></trkpt><trkpt lat="15.157913427798654" lon="120.61717563209405"><ele>73.0</ele><time>2026-04-18T08:50:52Z</time></trkpt><trkpt lat="15.15806688579378" lon="120.61705853942925"><ele>73.0</ele><time>2026-04-18T08:50:53Z</time></trkpt><trkpt lat="15.158216158230571" lon="120.61694580388401"><ele>73.0</ele><time>2026-04-18T08:50:54Z</time></trkpt><trkpt lat="15.158358681200964" lon="120.61683856120945"><ele>74.0</ele><time>2026-04-18T08:50:55Z</time></trkpt><trkpt lat="15.158496859704327" lon="120.61673577286369"><ele>75.0</ele><time>2026-04-18T08:50:56Z</time></trkpt><trkpt lat="15.158626686800515" lon="120.61663955629272"><ele>76.0</ele><time>2026-04-18T08:50:57Z</time></trkpt><trkpt lat="15.158751960882068" lon="120.61654704016416"><ele>76.0</ele><time>2026-04-18T08:50:58Z</time></trkpt><trkpt lat="15.15887658018759" lon="120.616455470934"><ele>76.0</ele><time>2026-04-18T08:50:59Z</time></trkpt><trkpt lat="15.158998675389562" lon="120.61636551589382"><ele>76.0</ele><time>2026-04-18T08:51:00Z</time></trkpt><trkpt lat="15.15911985905838" lon="120.61627745489137"><ele>76.0</ele><time>2026-04-18T08:51:01Z</time></trkpt><trkpt lat="15.15924211616068" lon="120.61618836036071"><ele>76.0</ele><time>2026-04-18T08:51:02Z</time></trkpt><trkpt lat="15.159368049574297" lon="120.61609823235611"><ele>76.0</ele><time>2026-04-18T08:51:03Z</time></trkpt><trkpt lat="15.159496365096707" lon="120.61600704617055"><ele>76.0</ele><time>2026-04-18T08:51:04Z</time></trkpt><trkpt lat="15.159625707577018" lon="120.61591390335661"><ele>76.0</ele><time>2026-04-18T08:51:05Z</time></trkpt><trkpt lat="15.159757659662842" lon="120.61581984826061"><ele>76.0</ele><time>2026-04-18T08:51:06Z</time></trkpt><trkpt lat="15.159890608074171" lon="120.61572535470975"><ele>76.33333333333333</ele><time>2026-04-18T08:51:07Z</time></trkpt><trkpt lat="15.160022542611095" lon="120.61563142073688"><ele>76.66666666666667</ele><time>2026-04-18T08:51:08Z</time></trkpt><trkpt lat="15.160152795646129" lon="120.61553906948613"><ele>77.0</ele><time>2026-04-18T08:51:09Z</time></trkpt><trkpt lat="15.16028292046643" lon="120.61544790354947"><ele>77.0</ele><time>2026-04-18T08:51:10Z</time></trkpt><trkpt lat="15.160413672127836" lon="120.6153562553787"><ele>77.0</ele><time>2026-04-18T08:51:11Z</time></trkpt><trkpt lat="15.160545506750516" lon="120.61526320352428"><ele>77.0</ele><time>2026-04-18T08:51:12Z</time></trkpt><trkpt lat="15.160678519574711" lon="120.61517030292254"><ele>77.33333333333334</ele><time>2026-04-18T08:51:13Z</time></trkpt><trkpt lat="15.160810937929277" lon="120.61507682884535"><ele>77.66666666666667</ele><time>2026-04-18T08:51:14Z</time></trkpt><trkpt lat="15.16094576950868" lon="120.61498315912985"><ele>78.0</ele><time>2026-04-18T08:51:15Z</time></trkpt><trkpt lat="15.16107995862393" lon="120.61489019284873"><ele>78.0</ele><time>2026-04-18T08:51:16Z</time></trkpt><trkpt lat="15.161211665660083" lon="120.6147972092413"><ele>78.0</ele><time>2026-04-18T08:51:17Z</time></trkpt><trkpt lat="15.161345914766855" lon="120.61470331882771"><ele>78.0</ele><time>2026-04-18T08:51:18Z</time></trkpt><trkpt lat="15.161481072133961" lon="120.61461016714803"><ele>77.33333333333333</ele><time>2026-04-18T08:51:19Z</time></trkpt><trkpt lat="15.161615829805683" lon="120.61451597255926"><ele>76.66666666666666</ele><time>2026-04-18T08:51:20Z</time></trkpt><trkpt lat="15.16175054304598" lon="120.614422944752"><ele>76.0</ele><time>2026-04-18T08:51:21Z</time></trkpt><trkpt lat="15.16188598661504" lon="120.61432926112799"><ele>76.0</ele><time>2026-04-18T08:51:22Z</time></trkpt><trkpt lat="15.162024914609692" lon="120.61423422421971"><ele>76.0</ele><time>2026-04-18T08:51:23Z</time></trkpt><trkpt lat="15.16216561738448" lon="120.61413984379531"><ele>76.0</ele><time>2026-04-18T08:51:24Z</time></trkpt><trkpt lat="15.162309102595588" lon="120.61404373107302"><ele>76.0</ele><time>2026-04-18T08:51:25Z</time></trkpt><trkpt lat="15.162456718921426" lon="120.6139463085918"><ele>76.0</ele><time>2026-04-18T08:51:26Z</time></trkpt><trkpt lat="15.162606172649914" lon="120.61384729468223"><ele>76.0</ele><time>2026-04-18T08:51:27Z</time></trkpt><trkpt lat="15.162754159380455" lon="120.61374729311355"><ele>76.33333333333333</ele><time>2026-04-18T08:51:28Z</time></trkpt><trkpt lat="15.162903197899654" lon="120.61364546902023"><ele>76.66666666666667</ele><time>2026-04-18T08:51:29Z</time></trkpt><trkpt lat="15.163054061118482" lon="120.61354327312873"><ele>77.0</ele><time>2026-04-18T08:51:30Z</time></trkpt><trkpt lat="15.163209070534146" lon="120.61344005383785"><ele>77.33333333333334</ele><time>2026-04-18T08:51:30.999Z</time></trkpt><trkpt lat="15.163367982990062" lon="120.61333583486432"><ele>77.66666666666667</ele><time>2026-04-18T08:51:31.999Z</time></trkpt><trkpt lat="15.163527314850684" lon="120.6132295218306"><ele>78.0</ele><time>2026-04-18T08:51:32.999Z</time></trkpt><trkpt lat="15.163687742096574" lon="120.61312271959834"><ele>78.0</ele><time>2026-04-18T08:51:33.999Z</time></trkpt><trkpt lat="15.163848151847436" lon="120.61301558581307"><ele>78.0</ele><time>2026-04-18T08:51:34.999Z</time></trkpt><trkpt lat="15.164014735797076" lon="120.61290751896732"><ele>78.0</ele><time>2026-04-18T08:51:35.999Z</time></trkpt><trkpt lat="15.164182395804781" lon="120.61279810198612"><ele>78.33333333333333</ele><time>2026-04-18T08:51:36.999Z</time></trkpt><trkpt lat="15.164352630749185" lon="120.6126859266769"><ele>78.66666666666666</ele><time>2026-04-18T08:51:37.999Z</time></trkpt><trkpt lat="15.16452413238281" lon="120.61257367576589"><ele>79.0</ele><time>2026-04-18T08:51:38.999Z</time></trkpt><trkpt lat="15.164697424167956" lon="120.61246099176678"><ele>77.66666666666666</ele><time>2026-04-18T08:51:39.999Z</time></trkpt><trkpt lat="15.164870737910686" lon="120.61234988037386"><ele>76.33333333333333</ele><time>2026-04-18T08:51:40.999Z</time></trkpt><trkpt lat="15.165046939332248" lon="120.6122372190538"><ele>75.0</ele><time>2026-04-18T08:51:41.999Z</time></trkpt><trkpt lat="15.165224155714442" lon="120.61212376054317"><ele>75.0</ele><time>2026-04-18T08:51:42.999Z</time></trkpt><trkpt lat="15.165403986424934" lon="120.61200806506803"><ele>75.0</ele><time>2026-04-18T08:51:43.999Z</time></trkpt><trkpt lat="15.165585544596047" lon="120.61189160328324"><ele>75.0</ele><time>2026-04-18T08:51:44.999Z</time></trkpt><trkpt lat="15.165765783349265" lon="120.61177518368754"><ele>75.66666666666667</ele><time>2026-04-18T08:51:45.999Z</time></trkpt><trkpt lat="15.16594306703246" lon="120.6116604581799"><ele>76.33333333333334</ele><time>2026-04-18T08:51:46.999Z</time></trkpt><trkpt lat="15.1661157025679" lon="120.61154907358971"><ele>77.0</ele><time>2026-04-18T08:51:47.999Z</time></trkpt><trkpt lat="15.166281348491035" lon="120.6114416563364"><ele>77.0</ele><time>2026-04-18T08:51:49Z</time></trkpt><trkpt lat="15.166445102205317" lon="120.61133482995614"><ele>77.0</ele><time>2026-04-18T08:51:50Z</time></trkpt><trkpt lat="15.166607212358523" lon="120.61122977122385"><ele>77.0</ele><time>2026-04-18T08:51:51Z</time></trkpt><trkpt lat="15.166765670602594" lon="120.61112846142412"><ele>77.33333333333334</ele><time>2026-04-18T08:51:52Z</time></trkpt><trkpt lat="15.166921239378045" lon="120.61102787463233"><ele>77.66666666666667</ele><time>2026-04-18T08:51:53Z</time></trkpt><trkpt lat="15.167073198846744" lon="120.61093019334677"><ele>78.0</ele><time>2026-04-18T08:51:54Z</time></trkpt><trkpt lat="15.167222579215297" lon="120.61083569327548"><ele>78.33333333333333</ele><time>2026-04-18T08:51:55Z</time></trkpt><trkpt lat="15.167371695631681" lon="120.61074319086663"><ele>78.66666666666666</ele><time>2026-04-18T08:51:56Z</time></trkpt><trkpt lat="15.167519733226" lon="120.61065274337409"><ele>79.0</ele><time>2026-04-18T08:51:57Z</time></trkpt><trkpt lat="15.167666183198833" lon="120.61056400320132"><ele>79.0</ele><time>2026-04-18T08:51:58Z</time></trkpt><trkpt lat="15.167809460745435" lon="120.61047530817238"><ele>79.0</ele><time>2026-04-18T08:51:59Z</time></trkpt><trkpt lat="15.167951700209068" lon="120.6103848251358"><ele>79.0</ele><time>2026-04-18T08:52:00Z</time></trkpt><trkpt lat="15.168095526384338" lon="120.61029561422356"><ele>79.0</ele><time>2026-04-18T08:52:01Z</time></trkpt><trkpt lat="15.168239477666367" lon="120.6102060234352"><ele>79.0</ele><time>2026-04-18T08:52:02Z</time></trkpt><trkpt lat="15.16838270680244" lon="120.6101182102888"><ele>79.0</ele><time>2026-04-18T08:52:03Z</time></trkpt><trkpt lat="15.16852561635797" lon="120.610030179234"><ele>79.0</ele><time>2026-04-18T08:52:04Z</time></trkpt><trkpt lat="15.168669583308674" lon="120.6099436648599"><ele>79.0</ele><time>2026-04-18T08:52:05Z</time></trkpt><trkpt lat="15.168815156174656" lon="120.60985529577111"><ele>79.0</ele><time>2026-04-18T08:52:06Z</time></trkpt><trkpt lat="15.168960511662716" lon="120.60976733084016"><ele>80.33333333333333</ele><time>2026-04-18T08:52:07Z</time></trkpt><trkpt lat="15.169105691920844" lon="120.60967927076258"><ele>81.66666666666667</ele><time>2026-04-18T08:52:08Z</time></trkpt><trkpt lat="15.16925377841649" lon="120.60958876758222"><ele>83.0</ele><time>2026-04-18T08:52:09Z</time></trkpt><trkpt lat="15.169396617152122" lon="120.6095054975342"><ele>82.66666666666667</ele><time>2026-04-18T08:52:10Z</time></trkpt><trkpt lat="15.16954204153139" lon="120.60941913845667"><ele>82.33333333333333</ele><time>2026-04-18T08:52:11Z</time></trkpt><trkpt lat="15.169689373284426" lon="120.60933180467629"><ele>82.0</ele><time>2026-04-18T08:52:12Z</time></trkpt><trkpt lat="15.169837897137121" lon="120.60924479455464"><ele>83.33333333333333</ele><time>2026-04-18T08:52:13Z</time></trkpt><trkpt lat="15.169988716879537" lon="120.60915786993856"><ele>84.66666666666667</ele><time>2026-04-18T08:52:14Z</time></trkpt><trkpt lat="15.170141951989224" lon="120.60906867904245"><ele>86.0</ele><time>2026-04-18T08:52:15Z</time></trkpt><trkpt lat="15.170295864669352" lon="120.60897922112622"><ele>86.0</ele><time>2026-04-18T08:52:16Z</time></trkpt><trkpt lat="15.170448716103449" lon="120.60889026689837"><ele>86.0</ele><time>2026-04-18T08:52:17Z</time></trkpt><trkpt lat="15.170598751287583" lon="120.60880155777787"><ele>86.0</ele><time>2026-04-18T08:52:18Z</time></trkpt><trkpt lat="15.170746403320289" lon="120.60871475716453"><ele>85.66666666666667</ele><time>2026-04-18T08:52:19Z</time></trkpt><trkpt lat="15.17089703462832" lon="120.60862934099659"><ele>85.33333333333333</ele><time>2026-04-18T08:52:20Z</time></trkpt><trkpt lat="15.171051378421998" lon="120.60854124088331"><ele>85.0</ele><time>2026-04-18T08:52:21Z</time></trkpt><trkpt lat="15.17120564280979" lon="120.6084506138774"><ele>85.0</ele><time>2026-04-18T08:52:22Z</time></trkpt><trkpt lat="15.171363540584492" lon="120.60836115667638"><ele>85.0</ele><time>2026-04-18T08:52:23Z</time></trkpt><trkpt lat="15.17152584731877" lon="120.60827142256937"><ele>85.0</ele><time>2026-04-18T08:52:24Z</time></trkpt><trkpt lat="15.171692449692344" lon="120.60817823100521"><ele>85.0</ele><time>2026-04-18T08:52:25Z</time></trkpt><trkpt lat="15.171862857466984" lon="120.60808286220261"><ele>85.0</ele><time>2026-04-18T08:52:26Z</time></trkpt><trkpt lat="15.172037516786386" lon="120.60798418925091"><ele>85.0</ele><time>2026-04-18T08:52:27Z</time></trkpt><trkpt lat="15.172216610949171" lon="120.60788291063706"><ele>86.0</ele><time>2026-04-18T08:52:28Z</time></trkpt><trkpt lat="15.1723995644934" lon="120.60778010896463"><ele>87.0</ele><time>2026-04-18T08:52:29Z</time></trkpt><trkpt lat="15.17258748312688" lon="120.60767580243532"><ele>88.0</ele><time>2026-04-18T08:52:30Z</time></trkpt><trkpt lat="15.17277728413536" lon="120.607570695907"><ele>88.0</ele><time>2026-04-18T08:52:31Z</time></trkpt><trkpt lat="15.172969347533776" lon="120.60746359302757"><ele>88.0</ele><time>2026-04-18T08:52:32Z</time></trkpt><trkpt lat="15.173165344572366" lon="120.60735554450109"><ele>88.0</ele><time>2026-04-18T08:52:33Z</time></trkpt><trkpt lat="15.17336242772003" lon="120.60724698411212"><ele>86.5</ele><time>2026-04-18T08:52:34Z</time></trkpt><trkpt lat="15.173563509899902" lon="120.6071383011994"><ele>85.0</ele><time>2026-04-18T08:52:35Z</time></trkpt><trkpt lat="15.173768690868055" lon="120.6070285973271"><ele>85.5</ele><time>2026-04-18T08:52:36Z</time></trkpt><trkpt lat="15.1739756978346" lon="120.6069189757025"><ele>86.0</ele><time>2026-04-18T08:52:37Z</time></trkpt><trkpt lat="15.174183780166647" lon="120.6068063979928"><ele>85.0</ele><time>2026-04-18T08:52:38Z</time></trkpt><trkpt lat="15.174392972789791" lon="120.60669372371316"><ele>84.0</ele><time>2026-04-18T08:52:39Z</time></trkpt><trkpt lat="15.174602157291789" lon="120.60658101538685"><ele>84.0</ele><time>2026-04-18T08:52:40Z</time></trkpt><trkpt lat="15.174816217896483" lon="120.6064703512087"><ele>84.0</ele><time>2026-04-18T08:52:41Z</time></trkpt><trkpt lat="15.175025128573472" lon="120.60635810153298"><ele>84.5</ele><time>2026-04-18T08:52:42Z</time></trkpt><trkpt lat="15.1752330459417" lon="120.60624840132094"><ele>85.0</ele><time>2026-04-18T08:52:43Z</time></trkpt><trkpt lat="15.17544003225968" lon="120.60613931050476"><ele>85.5</ele><time>2026-04-18T08:52:44Z</time></trkpt><trkpt lat="15.17564475220045" lon="120.60603117744162"><ele>86.0</ele><time>2026-04-18T08:52:45Z</time></trkpt><trkpt lat="15.175847199798506" lon="120.60592357816682"><ele>86.66666666666667</ele><time>2026-04-18T08:52:46Z</time></trkpt><trkpt lat="15.176047665976506" lon="120.60581641093685"><ele>87.33333333333333</ele><time>2026-04-18T08:52:47Z</time></trkpt><trkpt lat="15.176246017069582" lon="120.60571147604259"><ele>88.0</ele><time>2026-04-18T08:52:48Z</time></trkpt><trkpt lat="15.176446780326804" lon="120.6056074080947"><ele>87.5</ele><time>2026-04-18T08:52:49Z</time></trkpt><trkpt lat="15.176647412332903" lon="120.60550258604148"><ele>87.0</ele><time>2026-04-18T08:52:50Z</time></trkpt><trkpt lat="15.1768490136206" lon="120.60539763096622"><ele>89.5</ele><time>2026-04-18T08:52:51Z</time></trkpt><trkpt lat="15.177051540417056" lon="120.60529506278901"><ele>92.0</ele><time>2026-04-18T08:52:52Z</time></trkpt><trkpt lat="15.177254711324272" lon="120.60519291287903"><ele>91.5</ele><time>2026-04-18T08:52:53Z</time></trkpt><trkpt lat="15.177458504243692" lon="120.60508959849983"><ele>91.0</ele><time>2026-04-18T08:52:54Z</time></trkpt><trkpt lat="15.177661931634036" lon="120.60498569731305"><ele>91.0</ele><time>2026-04-18T08:52:55Z</time></trkpt><trkpt lat="15.17786591771768" lon="120.60488210837791"><ele>91.0</ele><time>2026-04-18T08:52:56Z</time></trkpt><trkpt lat="15.178071359048413" lon="120.6047795468445"><ele>89.0</ele><time>2026-04-18T08:52:57Z</time></trkpt><trkpt lat="15.178278494947307" lon="120.6046783128181"><ele>87.0</ele><time>2026-04-18T08:52:58Z</time></trkpt><trkpt lat="15.178486397310511" lon="120.60457612449605"><ele>88.5</ele><time>2026-04-18T08:52:59Z</time></trkpt><trkpt lat="15.178696798789671" lon="120.60447344150812"><ele>90.0</ele><time>2026-04-18T08:53:00Z</time></trkpt><trkpt lat="15.17890657483632" lon="120.60437212387941"><ele>90.5</ele><time>2026-04-18T08:53:01Z</time></trkpt><trkpt lat="15.179117690282192" lon="120.60427137903176"><ele>91.0</ele><time>2026-04-18T08:53:02Z</time></trkpt><trkpt lat="15.179329955088765" lon="120.60416813503439"><ele>91.0</ele><time>2026-04-18T08:53:03Z</time></trkpt><trkpt lat="15.179542019770496" lon="120.60406361677266"><ele>91.0</ele><time>2026-04-18T08:53:04Z</time></trkpt><trkpt lat="15.17975747937234" lon="120.60395349721539"><ele>90.5</ele><time>2026-04-18T08:53:05Z</time></trkpt><trkpt lat="15.179972099805386" lon="120.60384719629923"><ele>90.0</ele><time>2026-04-18T08:53:06Z</time></trkpt><trkpt lat="15.180188962610531" lon="120.6037447596063"><ele>91.0</ele><time>2026-04-18T08:53:07Z</time></trkpt><trkpt lat="15.180407903304564" lon="120.60364230222913"><ele>92.0</ele><time>2026-04-18T08:53:08Z</time></trkpt><trkpt lat="15.180627731878111" lon="120.60354095085557"><ele>91.5</ele><time>2026-04-18T08:53:09Z</time></trkpt><trkpt lat="15.180850014914723" lon="120.60343788099256"><ele>91.0</ele><time>2026-04-18T08:53:10Z</time></trkpt><trkpt lat="15.181072785648547" lon="120.60333468179813"><ele>91.0</ele><time>2026-04-18T08:53:11Z</time></trkpt><trkpt lat="15.181297849543704" lon="120.60323040920778"><ele>91.0</ele><time>2026-04-18T08:53:12Z</time></trkpt><trkpt lat="15.181525481701074" lon="120.60312502020751"><ele>90.5</ele><time>2026-04-18T08:53:13Z</time></trkpt><trkpt lat="15.181751214328948" lon="120.60302085991455"><ele>90.0</ele><time>2026-04-18T08:53:14Z</time></trkpt><trkpt lat="15.181974984819513" lon="120.60292064479016"><ele>90.5</ele><time>2026-04-18T08:53:15Z</time></trkpt><trkpt lat="15.182195990529761" lon="120.60282295080783"><ele>91.0</ele><time>2026-04-18T08:53:16Z</time></trkpt><trkpt lat="15.182414743298915" lon="120.6027262058701"><ele>90.0</ele><time>2026-04-18T08:53:17Z</time></trkpt><trkpt lat="15.18262947429694" lon="120.60263063103197"><ele>89.0</ele><time>2026-04-18T08:53:18Z</time></trkpt><trkpt lat="15.182843126835325" lon="120.60253646095396"><ele>89.0</ele><time>2026-04-18T08:53:19Z</time></trkpt><trkpt lat="15.183053279213894" lon="120.60244266213297"><ele>89.0</ele><time>2026-04-18T08:53:20Z</time></trkpt><trkpt lat="15.183262471379127" lon="120.60234985611329"><ele>88.33333333333334</ele><time>2026-04-18T08:53:21Z</time></trkpt><trkpt lat="15.183469318299057" lon="120.60225784428951"><ele>87.66666666666667</ele><time>2026-04-18T08:53:22Z</time></trkpt><trkpt lat="15.183674773347368" lon="120.60216601242807"><ele>87.0</ele><time>2026-04-18T08:53:23Z</time></trkpt><trkpt lat="15.183879994739689" lon="120.60207475862146"><ele>87.66666666666667</ele><time>2026-04-18T08:53:24Z</time></trkpt><trkpt lat="15.18408467515909" lon="120.60198602365729"><ele>88.33333333333334</ele><time>2026-04-18T08:53:25Z</time></trkpt><trkpt lat="15.184288883070009" lon="120.60189706817427"><ele>89.0</ele><time>2026-04-18T08:53:26Z</time></trkpt><trkpt lat="15.18449229991827" lon="120.60180958105809"><ele>89.0</ele><time>2026-04-18T08:53:27Z</time></trkpt><trkpt lat="15.184693684824195" lon="120.60172279013517"><ele>89.0</ele><time>2026-04-18T08:53:28Z</time></trkpt><trkpt lat="15.184893266418488" lon="120.60163555695202"><ele>89.0</ele><time>2026-04-18T08:53:29Z</time></trkpt><trkpt lat="15.185091699077821" lon="120.60154782318207"><ele>89.0</ele><time>2026-04-18T08:53:30Z</time></trkpt><trkpt lat="15.185288946901274" lon="120.60146316968601"><ele>89.0</ele><time>2026-04-18T08:53:31Z</time></trkpt><trkpt lat="15.18548603088311" lon="120.60138016095061"><ele>89.0</ele><time>2026-04-18T08:53:32Z</time></trkpt><trkpt lat="15.185681521089617" lon="120.60129720113514"><ele>89.0</ele><time>2026-04-18T08:53:33Z</time></trkpt><trkpt lat="15.185876105313541" lon="120.60121690008268"><ele>89.0</ele><time>2026-04-18T08:53:34Z</time></trkpt><trkpt lat="15.186067700999358" lon="120.60113593183121"><ele>89.0</ele><time>2026-04-18T08:53:35Z</time></trkpt><trkpt lat="15.186257850913938" lon="120.60105568256083"><ele>89.0</ele><time>2026-04-18T08:53:35.999Z</time></trkpt><trkpt lat="15.186445623539633" lon="120.60097306375158"><ele>89.0</ele><time>2026-04-18T08:53:36.999Z</time></trkpt><trkpt lat="15.18663252152055" lon="120.6008930477086"><ele>89.0</ele><time>2026-04-18T08:53:37.999Z</time></trkpt><trkpt lat="15.186819150035502" lon="120.60081498764939"><ele>88.66666666666667</ele><time>2026-04-18T08:53:38.999Z</time></trkpt><trkpt lat="15.187005073603746" lon="120.60073968578318"><ele>88.33333333333333</ele><time>2026-04-18T08:53:39.999Z</time></trkpt><trkpt lat="15.187192999963164" lon="120.60066573400239"><ele>88.0</ele><time>2026-04-18T08:53:40.999Z</time></trkpt><trkpt lat="15.187378921475869" lon="120.60059277075932"><ele>88.66666666666666</ele><time>2026-04-18T08:53:41.999Z</time></trkpt><trkpt lat="15.187566219942681" lon="120.60051742189474"><ele>89.33333333333333</ele><time>2026-04-18T08:53:42.999Z</time></trkpt><trkpt lat="15.187752616784367" lon="120.60044324406259"><ele>90.0</ele><time>2026-04-18T08:53:43.999Z</time></trkpt><trkpt lat="15.18793892432391" lon="120.60036860361873"><ele>90.0</ele><time>2026-04-18T08:53:44.999Z</time></trkpt><trkpt lat="15.1881258537504" lon="120.60029401670143"><ele>90.0</ele><time>2026-04-18T08:53:45.999Z</time></trkpt><trkpt lat="15.188309753201791" lon="120.60021940327611"><ele>90.0</ele><time>2026-04-18T08:53:46.999Z</time></trkpt><trkpt lat="15.188491834929978" lon="120.60014574272246"><ele>90.0</ele><time>2026-04-18T08:53:47.999Z</time></trkpt><trkpt lat="15.188670989396932" lon="120.6000749155879"><ele>90.0</ele><time>2026-04-18T08:53:48.999Z</time></trkpt><trkpt lat="15.188848762528599" lon="120.60000485012941"><ele>90.0</ele><time>2026-04-18T08:53:49.999Z</time></trkpt><trkpt lat="15.189025692994017" lon="120.59993545378315"><ele>90.66666666666667</ele><time>2026-04-18T08:53:50.999Z</time></trkpt><trkpt lat="15.189203999345452" lon="120.59986743936585"><ele>91.33333333333334</ele><time>2026-04-18T08:53:51.999Z</time></trkpt><trkpt lat="15.189381420141707" lon="120.59979938187742"><ele>92.0</ele><time>2026-04-18T08:53:52.999Z</time></trkpt><trkpt lat="15.189560527270535" lon="120.59973067001847"><ele>92.0</ele><time>2026-04-18T08:53:53.999Z</time></trkpt><trkpt lat="15.189740639030338" lon="120.59966083084852"><ele>92.0</ele><time>2026-04-18T08:53:55Z</time></trkpt><trkpt lat="15.189921961266336" lon="120.59959220127875"><ele>92.0</ele><time>2026-04-18T08:53:56Z</time></trkpt><trkpt lat="15.19010422858976" lon="120.59952492893802"><ele>92.0</ele><time>2026-04-18T08:53:57Z</time></trkpt><trkpt lat="15.190289401433866" lon="120.59945622849419"><ele>92.0</ele><time>2026-04-18T08:53:58Z</time></trkpt><trkpt lat="15.190473829612515" lon="120.5993882655549"><ele>92.0</ele><time>2026-04-18T08:53:59Z</time></trkpt><trkpt lat="15.190656497671831" lon="120.59931908434837"><ele>92.33333333333334</ele><time>2026-04-18T08:54:00Z</time></trkpt><trkpt lat="15.190836296850327" lon="120.59925077129681"><ele>92.66666666666667</ele><time>2026-04-18T08:54:01Z</time></trkpt><trkpt lat="15.191014431741811" lon="120.59918433644503"><ele>93.0</ele><time>2026-04-18T08:54:02Z</time></trkpt><trkpt lat="15.191189465999255" lon="120.59911927801957"><ele>93.0</ele><time>2026-04-18T08:54:03Z</time></trkpt><trkpt lat="15.191362123632548" lon="120.59905484207043"><ele>93.0</ele><time>2026-04-18T08:54:04Z</time></trkpt><trkpt lat="15.19153039381083" lon="120.5989932239773"><ele>93.0</ele><time>2026-04-18T08:54:05Z</time></trkpt><trkpt lat="15.191700007498206" lon="120.5989304840842"><ele>92.66666666666667</ele><time>2026-04-18T08:54:06Z</time></trkpt><trkpt lat="15.191868073112964" lon="120.59886560439278"><ele>92.33333333333334</ele><time>2026-04-18T08:54:07Z</time></trkpt><trkpt lat="15.192032710939758" lon="120.59880101059231"><ele>92.0</ele><time>2026-04-18T08:54:08Z</time></trkpt><trkpt lat="15.192194862094901" lon="120.59873926932293"><ele>92.33333333333334</ele><time>2026-04-18T08:54:09Z</time></trkpt><trkpt lat="15.192356648830206" lon="120.59868124595373"><ele>92.66666666666667</ele><time>2026-04-18T08:54:10Z</time></trkpt><trkpt lat="15.19251537223078" lon="120.5986255597171"><ele>93.0</ele><time>2026-04-18T08:54:11Z</time></trkpt><trkpt lat="15.192674205093677" lon="120.59857339202144"><ele>93.0</ele><time>2026-04-18T08:54:12Z</time></trkpt><trkpt lat="15.19283517695322" lon="120.5985194893494"><ele>93.0</ele><time>2026-04-18T08:54:13Z</time></trkpt><trkpt lat="15.192995874060339" lon="120.59846617694838"><ele>93.0</ele><time>2026-04-18T08:54:14Z</time></trkpt><trkpt lat="15.193157690508452" lon="120.59841282367154"><ele>93.33333333333333</ele><time>2026-04-18T08:54:15Z</time></trkpt><trkpt lat="15.193315113828087" lon="120.59835832062795"><ele>93.66666666666666</ele><time>2026-04-18T08:54:16Z</time></trkpt><trkpt lat="15.193467524850242" lon="120.59830323753543"><ele>94.0</ele><time>2026-04-18T08:54:17Z</time></trkpt><trkpt lat="15.193611774461878" lon="120.59825315732793"><ele>94.0</ele><time>2026-04-18T08:54:18Z</time></trkpt><trkpt lat="15.193749525184177" lon="120.59820631541226"><ele>94.0</ele><time>2026-04-18T08:54:19Z</time></trkpt><trkpt lat="15.193886586042408" lon="120.59815661682896"><ele>94.0</ele><time>2026-04-18T08:54:20Z</time></trkpt><trkpt lat="15.194026904424895" lon="120.59810543631963"><ele>94.0</ele><time>2026-04-18T08:54:21Z</time></trkpt><trkpt lat="15.194169345821742" lon="120.59805421460581"><ele>94.0</ele><time>2026-04-18T08:54:22Z</time></trkpt><trkpt lat="15.194314527970935" lon="120.5980011713298"><ele>94.0</ele><time>2026-04-18T08:54:23Z</time></trkpt><trkpt lat="15.19446027565026" lon="120.59794944673784"><ele>94.0</ele><time>2026-04-18T08:54:24Z</time></trkpt><trkpt lat="15.194609752810646" lon="120.59789764427615"><ele>94.0</ele><time>2026-04-18T08:54:25Z</time></trkpt><trkpt lat="15.19476024649611" lon="120.59784594409687"><ele>94.0</ele><time>2026-04-18T08:54:26Z</time></trkpt><trkpt lat="15.194907400270692" lon="120.59779566035965"><ele>94.0</ele><time>2026-04-18T08:54:27Z</time></trkpt><trkpt lat="15.19505271665104" lon="120.5977483187468"><ele>93.75</ele><time>2026-04-18T08:54:28Z</time></trkpt><trkpt lat="15.195192240416272" lon="120.59770432115141"><ele>93.5</ele><time>2026-04-18T08:54:29Z</time></trkpt><trkpt lat="15.195330794561086" lon="120.59766176622034"><ele>93.25</ele><time>2026-04-18T08:54:30Z</time></trkpt><trkpt lat="15.195467882377848" lon="120.59762749146047"><ele>93.0</ele><time>2026-04-18T08:54:31Z</time></trkpt><trkpt lat="15.195604343055663" lon="120.59760148455722"><ele>92.75</ele><time>2026-04-18T08:54:32Z</time></trkpt><trkpt lat="15.195737459904533" lon="120.59758894060577"><ele>92.5</ele><time>2026-04-18T08:54:33Z</time></trkpt><trkpt lat="15.195869549675484" lon="120.59758939581249"><ele>92.25</ele><time>2026-04-18T08:54:34Z</time></trkpt><trkpt lat="15.195997656526231" lon="120.59760318401462"><ele>92.0</ele><time>2026-04-18T08:54:35Z</time></trkpt><trkpt lat="15.196123121876" lon="120.59762890684117"><ele>92.0</ele><time>2026-04-18T08:54:36Z</time></trkpt><trkpt lat="15.196242423462174" lon="120.59766572322957"><ele>92.0</ele><time>2026-04-18T08:54:37Z</time></trkpt><trkpt lat="15.196357406657585" lon="120.59771227229946"><ele>92.0</ele><time>2026-04-18T08:54:38Z</time></trkpt><trkpt lat="15.196462939767011" lon="120.59777108618293"><ele>92.0</ele><time>2026-04-18T08:54:39Z</time></trkpt><trkpt lat="15.196565039224513" lon="120.5978405978412"><ele>91.5</ele><time>2026-04-18T08:54:40Z</time></trkpt><trkpt lat="15.196663272415877" lon="120.59792406662449"><ele>91.0</ele><time>2026-04-18T08:54:41Z</time></trkpt><trkpt lat="15.196756516388872" lon="120.59800163925837"><ele>90.5</ele><time>2026-04-18T08:54:42Z</time></trkpt><trkpt lat="15.196850959396768" lon="120.59807646565291"><ele>90.0</ele><time>2026-04-18T08:54:43Z</time></trkpt><trkpt lat="15.196945148360593" lon="120.59814729733772"><ele>90.0</ele><time>2026-04-18T08:54:44Z</time></trkpt><trkpt lat="15.197043818810904" lon="120.59820443454598"><ele>90.0</ele><time>2026-04-18T08:54:45Z</time></trkpt><trkpt lat="15.197150682753563" lon="120.59824852936697"><ele>90.0</ele><time>2026-04-18T08:54:46Z</time></trkpt><trkpt lat="15.197263428585876" lon="120.59827426856744"><ele>90.0</ele><time>2026-04-18T08:54:47Z</time></trkpt><trkpt lat="15.197379065787901" lon="120.59827940162067"><ele>89.75</ele><time>2026-04-18T08:54:48Z</time></trkpt><trkpt lat="15.19749489088879" lon="120.59826428506794"><ele>89.5</ele><time>2026-04-18T08:54:49Z</time></trkpt><trkpt lat="15.197605528552065" lon="120.59822977886482"><ele>89.25</ele><time>2026-04-18T08:54:50Z</time></trkpt><trkpt lat="15.197707074960745" lon="120.59817672837794"><ele>89.0</ele><time>2026-04-18T08:54:51Z</time></trkpt><trkpt lat="15.19780008735425" lon="120.59810966285978"><ele>89.0</ele><time>2026-04-18T08:54:52Z</time></trkpt><trkpt lat="15.197880786058231" lon="120.5980274785176"><ele>89.0</ele><time>2026-04-18T08:54:53Z</time></trkpt><trkpt lat="15.197946734951293" lon="120.59793105220949"><ele>89.0</ele><time>2026-04-18T08:54:54Z</time></trkpt><trkpt lat="15.197996517076866" lon="120.59782384500272"><ele>89.0</ele><time>2026-04-18T08:54:55Z</time></trkpt><trkpt lat="15.198029733916536" lon="120.5977070502911"><ele>88.75</ele><time>2026-04-18T08:54:56Z</time></trkpt><trkpt lat="15.198045035619703" lon="120.59758530635038"><ele>88.5</ele><time>2026-04-18T08:54:57Z</time></trkpt><trkpt lat="15.198046874990988" lon="120.5974600680942"><ele>88.25</ele><time>2026-04-18T08:54:58Z</time></trkpt><trkpt lat="15.198028837022703" lon="120.59733381053846"><ele>88.0</ele><time>2026-04-18T08:54:59Z</time></trkpt><trkpt lat="15.198005448482302" lon="120.59720939795115"><ele>88.0</ele><time>2026-04-18T08:55:00Z</time></trkpt><trkpt lat="15.197974027615908" lon="120.59708513434376"><ele>88.0</ele><time>2026-04-18T08:55:01Z</time></trkpt><trkpt lat="15.197945431813082" lon="120.59696378790989"><ele>88.0</ele><time>2026-04-18T08:55:02Z</time></trkpt><trkpt lat="15.197916457618115" lon="120.5968399278553"><ele>88.0</ele><time>2026-04-18T08:55:03Z</time></trkpt><trkpt lat="15.197887810145577" lon="120.5967126140803"><ele>88.75</ele><time>2026-04-18T08:55:04Z</time></trkpt><trkpt lat="15.197858012708775" lon="120.59658316912473"><ele>89.5</ele><time>2026-04-18T08:55:05Z</time></trkpt><trkpt lat="15.197826384656668" lon="120.59645048834716"><ele>90.25</ele><time>2026-04-18T08:55:06Z</time></trkpt><trkpt lat="15.197794357282897" lon="120.5963125349897"><ele>91.0</ele><time>2026-04-18T08:55:07Z</time></trkpt><trkpt lat="15.197761437715668" lon="120.59616866911188"><ele>92.0</ele><time>2026-04-18T08:55:08Z</time></trkpt><trkpt lat="15.197729480896543" lon="120.59602100557213"><ele>93.0</ele><time>2026-04-18T08:55:09Z</time></trkpt><trkpt lat="15.197700178782629" lon="120.59586677722295"><ele>94.0</ele><time>2026-04-18T08:55:10Z</time></trkpt><trkpt lat="15.197673993375643" lon="120.59570714191541"><ele>94.0</ele><time>2026-04-18T08:55:11Z</time></trkpt><trkpt lat="15.197649784760246" lon="120.59554037102255"><ele>94.0</ele><time>2026-04-18T08:55:12Z</time></trkpt><trkpt lat="15.197626659010766" lon="120.59536710831155"><ele>94.0</ele><time>2026-04-18T08:55:13Z</time></trkpt><trkpt lat="15.197608860659818" lon="120.59518587333436"><ele>94.0</ele><time>2026-04-18T08:55:14Z</time></trkpt><trkpt lat="15.197594141795236" lon="120.59499914758115"><ele>94.0</ele><time>2026-04-18T08:55:15Z</time></trkpt><trkpt lat="15.197583343344297" lon="120.59480924640728"><ele>94.0</ele><time>2026-04-18T08:55:16Z</time></trkpt><trkpt lat="15.197575887814782" lon="120.59461697249621"><ele>94.66666666666666</ele><time>2026-04-18T08:55:17Z</time></trkpt><trkpt lat="15.197571661576143" lon="120.59442239028172"><ele>95.33333333333333</ele><time>2026-04-18T08:55:18Z</time></trkpt><trkpt lat="15.197569489238965" lon="120.59422791933379"><ele>96.0</ele><time>2026-04-18T08:55:19Z</time></trkpt><trkpt lat="15.197571014745341" lon="120.59403507176029"><ele>96.0</ele><time>2026-04-18T08:55:20Z</time></trkpt><trkpt lat="15.19757787084963" lon="120.59384230333441"><ele>96.0</ele><time>2026-04-18T08:55:21Z</time></trkpt><trkpt lat="15.19758542589868" lon="120.59364640961218"><ele>96.0</ele><time>2026-04-18T08:55:22Z</time></trkpt><trkpt lat="15.197591638316409" lon="120.59345089846646"><ele>95.66666666666667</ele><time>2026-04-18T08:55:23Z</time></trkpt><trkpt lat="15.197597185209162" lon="120.5932545665919"><ele>95.33333333333334</ele><time>2026-04-18T08:55:24Z</time></trkpt><trkpt lat="15.197603524277344" lon="120.59305665053265"><ele>95.0</ele><time>2026-04-18T08:55:25Z</time></trkpt><trkpt lat="15.197606546987753" lon="120.59285628491592"><ele>95.0</ele><time>2026-04-18T08:55:26Z</time></trkpt><trkpt lat="15.19760849811114" lon="120.59265264392793"><ele>95.0</ele><time>2026-04-18T08:55:27Z</time></trkpt><trkpt lat="15.197605093804304" lon="120.59244815264867"><ele>95.0</ele><time>2026-04-18T08:55:28Z</time></trkpt><trkpt lat="15.19759705175455" lon="120.59224021621081"><ele>95.0</ele><time>2026-04-18T08:55:29Z</time></trkpt><trkpt lat="15.197583526635974" lon="120.59202999992465"><ele>95.0</ele><time>2026-04-18T08:55:30Z</time></trkpt><trkpt lat="15.197565547307285" lon="120.5918182359531"><ele>95.0</ele><time>2026-04-18T08:55:31Z</time></trkpt><trkpt lat="15.197542783058552" lon="120.59160732069589"><ele>95.0</ele><time>2026-04-18T08:55:32Z</time></trkpt><trkpt lat="15.19751771241318" lon="120.59139635636245"><ele>95.0</ele><time>2026-04-18T08:55:33Z</time></trkpt><trkpt lat="15.19749324560019" lon="120.59119050319212"><ele>95.0</ele><time>2026-04-18T08:55:34Z</time></trkpt><trkpt lat="15.197465125818523" lon="120.59098422703687"><ele>94.33333333333334</ele><time>2026-04-18T08:55:35Z</time></trkpt><trkpt lat="15.197434874892844" lon="120.59077887881588"><ele>93.66666666666667</ele><time>2026-04-18T08:55:36Z</time></trkpt><trkpt lat="15.19740307906988" lon="120.59057465582346"><ele>93.0</ele><time>2026-04-18T08:55:37Z</time></trkpt><trkpt lat="15.19737161737519" lon="120.59037308139821"><ele>94.0</ele><time>2026-04-18T08:55:38Z</time></trkpt><trkpt lat="15.197342078036758" lon="120.59017329421833"><ele>95.0</ele><time>2026-04-18T08:55:39Z</time></trkpt><trkpt lat="15.197318177733589" lon="120.58997298624061"><ele>96.0</ele><time>2026-04-18T08:55:40Z</time></trkpt><trkpt lat="15.197302429247884" lon="120.58977213739026"><ele>96.66666666666666</ele><time>2026-04-18T08:55:41Z</time></trkpt><trkpt lat="15.19729661922119" lon="120.58957218521199"><ele>97.33333333333333</ele><time>2026-04-18T08:55:42Z</time></trkpt><trkpt lat="15.197296916584799" lon="120.58937168253773"><ele>98.0</ele><time>2026-04-18T08:55:43Z</time></trkpt><trkpt lat="15.197296225975473" lon="120.58917175709703"><ele>98.33333333333333</ele><time>2026-04-18T08:55:44Z</time></trkpt><trkpt lat="15.197296825882953" lon="120.58897122564358"><ele>98.66666666666666</ele><time>2026-04-18T08:55:45Z</time></trkpt><trkpt lat="15.197297373104293" lon="120.58877137549807"><ele>99.0</ele><time>2026-04-18T08:55:46Z</time></trkpt><trkpt lat="15.197300508562742" lon="120.58856973013044"><ele>99.66666666666666</ele><time>2026-04-18T08:55:47Z</time></trkpt><trkpt lat="15.197303180747468" lon="120.58836771798113"><ele>100.33333333333333</ele><time>2026-04-18T08:55:48Z</time></trkpt><trkpt lat="15.197307694085886" lon="120.58816704369653"><ele>101.0</ele><time>2026-04-18T08:55:49Z</time></trkpt><trkpt lat="15.1973169839967" lon="120.58796556930328"><ele>101.0</ele><time>2026-04-18T08:55:50Z</time></trkpt><trkpt lat="15.197327895673105" lon="120.58776356750425"><ele>101.0</ele><time>2026-04-18T08:55:51Z</time></trkpt><trkpt lat="15.197338059043563" lon="120.58755956002868"><ele>101.0</ele><time>2026-04-18T08:55:52Z</time></trkpt><trkpt lat="15.197351338652952" lon="120.58735597013047"><ele>101.0</ele><time>2026-04-18T08:55:53Z</time></trkpt><trkpt lat="15.197365075053343" lon="120.58715103012048"><ele>101.0</ele><time>2026-04-18T08:55:54Z</time></trkpt><trkpt lat="15.197380267561229" lon="120.58694516035969"><ele>101.0</ele><time>2026-04-18T08:55:55Z</time></trkpt><trkpt lat="15.197395092980566" lon="120.58674060078718"><ele>101.33333333333333</ele><time>2026-04-18T08:55:56Z</time></trkpt><trkpt lat="15.197411665966667" lon="120.58653691789253"><ele>101.66666666666666</ele><time>2026-04-18T08:55:57Z</time></trkpt><trkpt lat="15.197427415594426" lon="120.58633521643188"><ele>102.0</ele><time>2026-04-18T08:55:58Z</time></trkpt><trkpt lat="15.197443693255819" lon="120.58613551928163"><ele>101.33333333333334</ele><time>2026-04-18T08:55:59Z</time></trkpt><trkpt lat="15.197460056408877" lon="120.58594015382364"><ele>100.66666666666667</ele><time>2026-04-18T08:56:00Z</time></trkpt><trkpt lat="15.197474124342426" lon="120.58574813363707"><ele>100.0</ele><time>2026-04-18T08:56:01Z</time></trkpt><trkpt lat="15.19748962202626" lon="120.58555701474738"><ele>100.0</ele><time>2026-04-18T08:56:02Z</time></trkpt><trkpt lat="15.197505645508633" lon="120.58536560505333"><ele>100.0</ele><time>2026-04-18T08:56:03Z</time></trkpt><trkpt lat="15.197520665874286" lon="120.58517488779691"><ele>100.0</ele><time>2026-04-18T08:56:04Z</time></trkpt><trkpt lat="15.197537706258428" lon="120.58498338784922"><ele>101.33333333333334</ele><time>2026-04-18T08:56:05Z</time></trkpt><trkpt lat="15.19755559603125" lon="120.58479093060696"><ele>102.66666666666666</ele><time>2026-04-18T08:56:06Z</time></trkpt><trkpt lat="15.197575655795648" lon="120.58459801134636"><ele>104.0</ele><time>2026-04-18T08:56:07Z</time></trkpt><trkpt lat="15.197597996747627" lon="120.58440258096812"><ele>105.33333333333333</ele><time>2026-04-18T08:56:08Z</time></trkpt><trkpt lat="15.19761622859953" lon="120.58420388787157"><ele>106.66666666666666</ele><time>2026-04-18T08:56:09Z</time></trkpt><trkpt lat="15.197632161456427" lon="120.5840066123122"><ele>108.0</ele><time>2026-04-18T08:56:10Z</time></trkpt><trkpt lat="15.197644759368558" lon="120.58381314384009"><ele>108.66666666666666</ele><time>2026-04-18T08:56:11Z</time></trkpt><trkpt lat="15.197653790642002" lon="120.58362420181231"><ele>109.33333333333333</ele><time>2026-04-18T08:56:12Z</time></trkpt><trkpt lat="15.197661782236743" lon="120.58344185415878"><ele>110.0</ele><time>2026-04-18T08:56:13Z</time></trkpt><trkpt lat="15.197669624863874" lon="120.58326438349738"><ele>110.0</ele><time>2026-04-18T08:56:14Z</time></trkpt><trkpt lat="15.197676649683514" lon="120.58309615868671"><ele>110.0</ele><time>2026-04-18T08:56:15Z</time></trkpt><trkpt lat="15.197681623868828" lon="120.58293632088852"><ele>110.0</ele><time>2026-04-18T08:56:16Z</time></trkpt><trkpt lat="15.197685469479135" lon="120.58278320526043"><ele>110.0</ele><time>2026-04-18T08:56:17Z</time></trkpt><trkpt lat="15.197690183091337" lon="120.5826353003794"><ele>110.0</ele><time>2026-04-18T08:56:18Z</time></trkpt><trkpt lat="15.197691813006731" lon="120.58249197627875"><ele>110.0</ele><time>2026-04-18T08:56:19Z</time></trkpt><trkpt lat="15.197691081348303" lon="120.58235588532438"><ele>110.0</ele><time>2026-04-18T08:56:20Z</time></trkpt><trkpt lat="15.19768669486276" lon="120.58222425845368"><ele>110.0</ele><time>2026-04-18T08:56:21Z</time></trkpt><trkpt lat="15.197682420134642" lon="120.58209337972153"><ele>110.0</ele><time>2026-04-18T08:56:22Z</time></trkpt><trkpt lat="15.197676344531622" lon="120.58196371914802"><ele>110.0</ele><time>2026-04-18T08:56:23Z</time></trkpt><trkpt lat="15.197671076203964" lon="120.58183132566485"><ele>110.0</ele><time>2026-04-18T08:56:24Z</time></trkpt><trkpt lat="15.197665956408867" lon="120.58169614571864"><ele>109.25</ele><time>2026-04-18T08:56:25Z</time></trkpt><trkpt lat="15.197661630875674" lon="120.58155919646417"><ele>108.5</ele><time>2026-04-18T08:56:26Z</time></trkpt><trkpt lat="15.197657300283765" lon="120.58142099998247"><ele>107.75</ele><time>2026-04-18T08:56:27Z</time></trkpt><trkpt lat="15.197652439136974" lon="120.58127974316464"><ele>107.0</ele><time>2026-04-18T08:56:28Z</time></trkpt><trkpt lat="15.197647494478232" lon="120.58113774734274"><ele>107.0</ele><time>2026-04-18T08:56:29Z</time></trkpt><trkpt lat="15.197643009586244" lon="120.58100139707746"><ele>107.0</ele><time>2026-04-18T08:56:30Z</time></trkpt><trkpt lat="15.197639101828768" lon="120.58086574716907"><ele>107.0</ele><time>2026-04-18T08:56:31Z</time></trkpt><trkpt lat="15.19763509293419" lon="120.58073021921298"><ele>107.0</ele><time>2026-04-18T08:56:32Z</time></trkpt><trkpt lat="15.19763182225606" lon="120.58059430955501"><ele>107.0</ele><time>2026-04-18T08:56:33Z</time></trkpt><trkpt lat="15.197625372790085" lon="120.58046020371211"><ele>107.0</ele><time>2026-04-18T08:56:34Z</time></trkpt><trkpt lat="15.197618360872243" lon="120.58032627590276"><ele>107.0</ele><time>2026-04-18T08:56:35Z</time></trkpt><trkpt lat="15.197613583281367" lon="120.58019298105347"><ele>107.0</ele><time>2026-04-18T08:56:36Z</time></trkpt><trkpt lat="15.197608727685248" lon="120.5800551857813"><ele>107.0</ele><time>2026-04-18T08:56:37Z</time></trkpt><trkpt lat="15.197604092884605" lon="120.57991542058129"><ele>107.0</ele><time>2026-04-18T08:56:38Z</time></trkpt><trkpt lat="15.19759787379842" lon="120.57977556814987"><ele>107.0</ele><time>2026-04-18T08:56:39Z</time></trkpt><trkpt lat="15.197592198413911" lon="120.57963334866315"><ele>107.0</ele><time>2026-04-18T08:56:40Z</time></trkpt><trkpt lat="15.19758612370634" lon="120.57948996639108"><ele>107.5</ele><time>2026-04-18T08:56:41Z</time></trkpt><trkpt lat="15.197580449011802" lon="120.57934601974777"><ele>108.0</ele><time>2026-04-18T08:56:42Z</time></trkpt><trkpt lat="15.197572895073952" lon="120.579200916548"><ele>108.5</ele><time>2026-04-18T08:56:43Z</time></trkpt><trkpt lat="15.197563486118261" lon="120.57905598812708"><ele>109.0</ele><time>2026-04-18T08:56:44Z</time></trkpt><trkpt lat="15.197554297066441" lon="120.57891089025705"><ele>109.0</ele><time>2026-04-18T08:56:45Z</time></trkpt><trkpt lat="15.1975463269054" lon="120.5787694468446"><ele>109.0</ele><time>2026-04-18T08:56:46Z</time></trkpt><trkpt lat="15.197536581239767" lon="120.57863073724636"><ele>109.0</ele><time>2026-04-18T08:56:47Z</time></trkpt><trkpt lat="15.197529082977464" lon="120.57849745535576"><ele>109.0</ele><time>2026-04-18T08:56:48Z</time></trkpt><trkpt lat="15.19752139787953" lon="120.57837726897559"><ele>109.2</ele><time>2026-04-18T08:56:49Z</time></trkpt><trkpt lat="15.197514511982561" lon="120.57826362192985"><ele>109.4</ele><time>2026-04-18T08:56:50Z</time></trkpt><trkpt lat="15.197508833472034" lon="120.57815392946839"><ele>109.6</ele><time>2026-04-18T08:56:51Z</time></trkpt><trkpt lat="15.197503564055504" lon="120.57804988542101"><ele>109.8</ele><time>2026-04-18T08:56:52Z</time></trkpt><trkpt lat="15.197498872635261" lon="120.57794981114736"><ele>110.0</ele><time>2026-04-18T08:56:53Z</time></trkpt><trkpt lat="15.197494961638883" lon="120.57784883870494"><ele>110.6</ele><time>2026-04-18T08:56:54Z</time></trkpt><trkpt lat="15.197493037718132" lon="120.57774454017219"><ele>111.2</ele><time>2026-04-18T08:56:55Z</time></trkpt><trkpt lat="15.19749062959561" lon="120.57763675295378"><ele>111.80000000000001</ele><time>2026-04-18T08:56:56Z</time></trkpt><trkpt lat="15.197491736273134" lon="120.57752874920723"><ele>112.4</ele><time>2026-04-18T08:56:57Z</time></trkpt><trkpt lat="15.197496034227845" lon="120.57741370277648"><ele>113.0</ele><time>2026-04-18T08:56:58Z</time></trkpt><trkpt lat="15.197498022385153" lon="120.57729996119282"><ele>113.0</ele><time>2026-04-18T08:56:59Z</time></trkpt><trkpt lat="15.197503951306082" lon="120.5771830461904"><ele>113.00000000000001</ele><time>2026-04-18T08:57:00Z</time></trkpt><trkpt lat="15.197519152600245" lon="120.57706468978725"><ele>113.00000000000001</ele><time>2026-04-18T08:57:01Z</time></trkpt><trkpt lat="15.19754233615112" lon="120.5769521959192"><ele>113.0</ele><time>2026-04-18T08:57:02Z</time></trkpt><trkpt lat="15.197570357066319" lon="120.57684362794843"><ele>113.0</ele><time>2026-04-18T08:57:03Z</time></trkpt><trkpt lat="15.197605813937304" lon="120.57673886466189"><ele>112.80000000000001</ele><time>2026-04-18T08:57:04Z</time></trkpt><trkpt lat="15.197650408516042" lon="120.57664201880368"><ele>112.60000000000001</ele><time>2026-04-18T08:57:05Z</time></trkpt><trkpt lat="15.197703206540814" lon="120.57655474572317"><ele>112.39999999999999</ele><time>2026-04-18T08:57:06Z</time></trkpt><trkpt lat="15.19776145317395" lon="120.5764743408926"><ele>112.19999999999999</ele><time>2026-04-18T08:57:07Z</time></trkpt><trkpt lat="15.197825988943187" lon="120.57639859126394"><ele>112.0</ele><time>2026-04-18T08:57:08Z</time></trkpt><trkpt lat="15.197895894563137" lon="120.57632983733485"><ele>112.0</ele><time>2026-04-18T08:57:09Z</time></trkpt><trkpt lat="15.197971687616146" lon="120.57626411738978"><ele>111.99999999999999</ele><time>2026-04-18T08:57:10Z</time></trkpt><trkpt lat="15.198053424264954" lon="120.57620063213926"><ele>111.99999999999999</ele><time>2026-04-18T08:57:11Z</time></trkpt><trkpt lat="15.198144196556779" lon="120.57614257452155"><ele>112.0</ele><time>2026-04-18T08:57:12Z</time></trkpt><trkpt lat="15.198243868080489" lon="120.57609088063113"><ele>112.0</ele><time>2026-04-18T08:57:13Z</time></trkpt><trkpt lat="15.198347643723523" lon="120.57604754706054"><ele>112.0</ele><time>2026-04-18T08:57:14Z</time></trkpt><trkpt lat="15.198457401704017" lon="120.57601209109187"><ele>112.0</ele><time>2026-04-18T08:57:15Z</time></trkpt><trkpt lat="15.198573754379902" lon="120.57598652519385"><ele>112.0</ele><time>2026-04-18T08:57:16Z</time></trkpt><trkpt lat="15.198692693813245" lon="120.57596837288891"><ele>112.0</ele><time>2026-04-18T08:57:17Z</time></trkpt><trkpt lat="15.198809800542517" lon="120.57595395535459"><ele>112.0</ele><time>2026-04-18T08:57:18Z</time></trkpt><trkpt lat="15.198927393310006" lon="120.57594390578853"><ele>112.0</ele><time>2026-04-18T08:57:19Z</time></trkpt><trkpt lat="15.199047716938368" lon="120.57593907932716"><ele>112.0</ele><time>2026-04-18T08:57:20Z</time></trkpt><trkpt lat="15.19916645821166" lon="120.57593659112504"><ele>112.0</ele><time>2026-04-18T08:57:21Z</time></trkpt><trkpt lat="15.199285037937175" lon="120.57593393659245"><ele>112.25</ele><time>2026-04-18T08:57:22Z</time></trkpt><trkpt lat="15.199403895695502" lon="120.57593117675042"><ele>112.5</ele><time>2026-04-18T08:57:23Z</time></trkpt><trkpt lat="15.199524459019685" lon="120.57592946206199"><ele>112.75</ele><time>2026-04-18T08:57:24Z</time></trkpt><trkpt lat="15.19964635139929" lon="120.57592774060244"><ele>113.0</ele><time>2026-04-18T08:57:25Z</time></trkpt><trkpt lat="15.199767855341895" lon="120.57592478587793"><ele>114.0</ele><time>2026-04-18T08:57:26Z</time></trkpt><trkpt lat="15.199896838822735" lon="120.57592206545611"><ele>115.0</ele><time>2026-04-18T08:57:27Z</time></trkpt><trkpt lat="15.200031380879825" lon="120.57591646686424"><ele>116.0</ele><time>2026-04-18T08:57:28Z</time></trkpt><trkpt lat="15.200173050269242" lon="120.57590852623944"><ele>117.0</ele><time>2026-04-18T08:57:29Z</time></trkpt><trkpt lat="15.200321059011292" lon="120.5759008792075"><ele>117.0</ele><time>2026-04-18T08:57:29.999Z</time></trkpt><trkpt lat="15.200473433102399" lon="120.57589229338008"><ele>117.0</ele><time>2026-04-18T08:57:30.999Z</time></trkpt><trkpt lat="15.200631897661822" lon="120.57588428566258"><ele>117.0</ele><time>2026-04-18T08:57:31.999Z</time></trkpt><trkpt lat="15.200795973741949" lon="120.57587535724281"><ele>116.33333333333334</ele><time>2026-04-18T08:57:32.999Z</time></trkpt><trkpt lat="15.200968791607284" lon="120.57586673644829"><ele>115.66666666666667</ele><time>2026-04-18T08:57:33.999Z</time></trkpt><trkpt lat="15.20114630133141" lon="120.57585610588589"><ele>115.0</ele><time>2026-04-18T08:57:34.999Z</time></trkpt><trkpt lat="15.201330829026457" lon="120.57584370198008"><ele>115.0</ele><time>2026-04-18T08:57:35.999Z</time></trkpt><trkpt lat="15.201521114391456" lon="120.5758283760081"><ele>115.0</ele><time>2026-04-18T08:57:36.999Z</time></trkpt><trkpt lat="15.201716568290912" lon="120.57581307427446"><ele>115.0</ele><time>2026-04-18T08:57:37.999Z</time></trkpt><trkpt lat="15.201912123672535" lon="120.57579647161718"><ele>115.0</ele><time>2026-04-18T08:57:38.999Z</time></trkpt><trkpt lat="15.202110913723313" lon="120.57577975049448"><ele>115.0</ele><time>2026-04-18T08:57:39.999Z</time></trkpt><trkpt lat="15.2023208507351" lon="120.5757575005117"><ele>115.0</ele><time>2026-04-18T08:57:40.999Z</time></trkpt><trkpt lat="15.202534890170037" lon="120.57573743798426"><ele>115.0</ele><time>2026-04-18T08:57:41.999Z</time></trkpt><trkpt lat="15.202749328694644" lon="120.57571460471904"><ele>115.0</ele><time>2026-04-18T08:57:42.999Z</time></trkpt><trkpt lat="15.20296577795026" lon="120.5756915611258"><ele>115.0</ele><time>2026-04-18T08:57:43.999Z</time></trkpt><trkpt lat="15.203186194005028" lon="120.57566714030989"><ele>114.0</ele><time>2026-04-18T08:57:44.999Z</time></trkpt><trkpt lat="15.203409597101903" lon="120.57563879703706"><ele>113.0</ele><time>2026-04-18T08:57:45.999Z</time></trkpt><trkpt lat="15.203635669400265" lon="120.57560831870687"><ele>113.0</ele><time>2026-04-18T08:57:46.999Z</time></trkpt><trkpt lat="15.203862724185829" lon="120.5755751729486"><ele>113.0</ele><time>2026-04-18T08:57:47.999Z</time></trkpt><trkpt lat="15.204093073226234" lon="120.57554043207777"><ele>112.0</ele><time>2026-04-18T08:57:48.999Z</time></trkpt><trkpt lat="15.204326714599933" lon="120.57550480012216"><ele>111.0</ele><time>2026-04-18T08:57:49.999Z</time></trkpt><trkpt lat="15.204561728096266" lon="120.57546673155146"><ele>111.0</ele><time>2026-04-18T08:57:50.999Z</time></trkpt><trkpt lat="15.204798314582721" lon="120.57542866521955"><ele>111.0</ele><time>2026-04-18T08:57:51.999Z</time></trkpt><trkpt lat="15.205036011798796" lon="120.57538588702499"><ele>111.0</ele><time>2026-04-18T08:57:52.999Z</time></trkpt><trkpt lat="15.205273290426886" lon="120.57534190253183"><ele>111.0</ele><time>2026-04-18T08:57:53.999Z</time></trkpt><trkpt lat="15.205511318225067" lon="120.57529395323748"><ele>111.5</ele><time>2026-04-18T08:57:54.999Z</time></trkpt><trkpt lat="15.205750700814203" lon="120.57524342231143"><ele>112.0</ele><time>2026-04-18T08:57:55.999Z</time></trkpt><trkpt lat="15.205990870959841" lon="120.575190057765"><ele>112.0</ele><time>2026-04-18T08:57:56.999Z</time></trkpt><trkpt lat="15.206232522927483" lon="120.57513477705895"><ele>112.0</ele><time>2026-04-18T08:57:57.999Z</time></trkpt><trkpt lat="15.2064763407704" lon="120.57507614574251"><ele>111.5</ele><time>2026-04-18T08:57:58.999Z</time></trkpt><trkpt lat="15.206721928443784" lon="120.57501719284105"><ele>111.0</ele><time>2026-04-18T08:57:59.999Z</time></trkpt><trkpt lat="15.20697062560826" lon="120.5749551518889"><ele>111.0</ele><time>2026-04-18T08:58:00.999Z</time></trkpt><trkpt lat="15.20722126734719" lon="120.57488997901747"><ele>111.0</ele><time>2026-04-18T08:58:01.999Z</time></trkpt><trkpt lat="15.207473534141457" lon="120.57482079296219"><ele>110.5</ele><time>2026-04-18T08:58:02.999Z</time></trkpt><trkpt lat="15.207728088798348" lon="120.57475024499377"><ele>110.0</ele><time>2026-04-18T08:58:03.999Z</time></trkpt><trkpt lat="15.20798519143503" lon="120.57468185605279"><ele>111.0</ele><time>2026-04-18T08:58:04.999Z</time></trkpt><trkpt lat="15.208245359902493" lon="120.57461219415775"><ele>112.0</ele><time>2026-04-18T08:58:05.999Z</time></trkpt><trkpt lat="15.208507065326161" lon="120.57454184497114"><ele>111.5</ele><time>2026-04-18T08:58:07Z</time></trkpt><trkpt lat="15.208769376041278" lon="120.57446958997451"><ele>111.0</ele><time>2026-04-18T08:58:08Z</time></trkpt><trkpt lat="15.20903143868517" lon="120.57439539886164"><ele>110.5</ele><time>2026-04-18T08:58:09Z</time></trkpt><trkpt lat="15.209292986403723" lon="120.57432198887818"><ele>110.0</ele><time>2026-04-18T08:58:10Z</time></trkpt><trkpt lat="15.209554798551437" lon="120.57424858685408"><ele>110.0</ele><time>2026-04-18T08:58:11Z</time></trkpt><trkpt lat="15.209818790299925" lon="120.57417486173182"><ele>110.0</ele><time>2026-04-18T08:58:12Z</time></trkpt><trkpt lat="15.21008233749363" lon="120.5741023973026"><ele>110.5</ele><time>2026-04-18T08:58:13Z</time></trkpt><trkpt lat="15.210345871448974" lon="120.57402768321587"><ele>111.0</ele><time>2026-04-18T08:58:14Z</time></trkpt><trkpt lat="15.210610469192103" lon="120.57395549671075"><ele>110.5</ele><time>2026-04-18T08:58:15Z</time></trkpt><trkpt lat="15.210875956071755" lon="120.57388238486556"><ele>110.0</ele><time>2026-04-18T08:58:16Z</time></trkpt><trkpt lat="15.211141494495873" lon="120.57380917701515"><ele>110.0</ele><time>2026-04-18T08:58:17Z</time></trkpt><trkpt lat="15.21140675485737" lon="120.57373614131947"><ele>110.0</ele><time>2026-04-18T08:58:18Z</time></trkpt><trkpt lat="15.211672085623729" lon="120.57366147975925"><ele>108.0</ele><time>2026-04-18T08:58:19Z</time></trkpt><trkpt lat="15.211934854976553" lon="120.57358826470845"><ele>106.0</ele><time>2026-04-18T08:58:20Z</time></trkpt><trkpt lat="15.21219369948324" lon="120.57351642944495"><ele>105.0</ele><time>2026-04-18T08:58:21Z</time></trkpt><trkpt lat="15.212449895029232" lon="120.57344373388649"><ele>104.0</ele><time>2026-04-18T08:58:22Z</time></trkpt><trkpt lat="15.21270303597927" lon="120.57337112520338"><ele>104.0</ele><time>2026-04-18T08:58:23Z</time></trkpt><trkpt lat="15.212952248103177" lon="120.57329855383517"><ele>104.0</ele><time>2026-04-18T08:58:24Z</time></trkpt><trkpt lat="15.21320007085764" lon="120.57322833451512"><ele>105.0</ele><time>2026-04-18T08:58:25Z</time></trkpt><trkpt lat="15.213444880028668" lon="120.5731597659173"><ele>106.0</ele><time>2026-04-18T08:58:26Z</time></trkpt><trkpt lat="15.213688970669681" lon="120.57309144435564"><ele>106.0</ele><time>2026-04-18T08:58:27Z</time></trkpt><trkpt lat="15.213933396969024" lon="120.57302231682517"><ele>106.0</ele><time>2026-04-18T08:58:28Z</time></trkpt><trkpt lat="15.214178158785053" lon="120.57295107406547"><ele>106.0</ele><time>2026-04-18T08:58:29Z</time></trkpt><trkpt lat="15.214422712878228" lon="120.57288123624517"><ele>106.0</ele><time>2026-04-18T08:58:30Z</time></trkpt><trkpt lat="15.214668845851964" lon="120.57281104964663"><ele>108.5</ele><time>2026-04-18T08:58:31Z</time></trkpt><trkpt lat="15.21491729708889" lon="120.57274281088388"><ele>111.0</ele><time>2026-04-18T08:58:32Z</time></trkpt><trkpt lat="15.215166579138478" lon="120.572673008435"><ele>111.0</ele><time>2026-04-18T08:58:33Z</time></trkpt><trkpt lat="15.215415447906173" lon="120.57260289696295"><ele>111.0</ele><time>2026-04-18T08:58:34Z</time></trkpt><trkpt lat="15.215666323547909" lon="120.57253324383984"><ele>111.0</ele><time>2026-04-18T08:58:35Z</time></trkpt><trkpt lat="15.215918517062201" lon="120.57246391020486"><ele>111.0</ele><time>2026-04-18T08:58:36Z</time></trkpt><trkpt lat="15.216172839370925" lon="120.57239502797681"><ele>111.0</ele><time>2026-04-18T08:58:37Z</time></trkpt><trkpt lat="15.21642739393191" lon="120.57232516790536"><ele>111.0</ele><time>2026-04-18T08:58:38Z</time></trkpt><trkpt lat="15.216681889277332" lon="120.57225451113034"><ele>110.0</ele><time>2026-04-18T08:58:39Z</time></trkpt><trkpt lat="15.216935198428356" lon="120.57218326315457"><ele>109.0</ele><time>2026-04-18T08:58:40Z</time></trkpt><trkpt lat="15.217187296683509" lon="120.57211175609946"><ele>109.5</ele><time>2026-04-18T08:58:41Z</time></trkpt><trkpt lat="15.217437859943484" lon="120.57204108607226"><ele>110.0</ele><time>2026-04-18T08:58:42Z</time></trkpt><trkpt lat="15.217687154714982" lon="120.57197180920093"><ele>110.0</ele><time>2026-04-18T08:58:43Z</time></trkpt><trkpt lat="15.217933067291485" lon="120.57190050984876"><ele>110.0</ele><time>2026-04-18T08:58:44Z</time></trkpt><trkpt lat="15.218176685710525" lon="120.5718279913431"><ele>110.0</ele><time>2026-04-18T08:58:45Z</time></trkpt><trkpt lat="15.218417351667766" lon="120.5717572527805"><ele>110.0</ele><time>2026-04-18T08:58:46Z</time></trkpt><trkpt lat="15.218658194990718" lon="120.5716890399266"><ele>110.0</ele><time>2026-04-18T08:58:47Z</time></trkpt><trkpt lat="15.218899049097883" lon="120.57162025959101"><ele>110.0</ele><time>2026-04-18T08:58:48Z</time></trkpt><trkpt lat="15.219139020742086" lon="120.57155176501277"><ele>110.0</ele><time>2026-04-18T08:58:49Z</time></trkpt><trkpt lat="15.219379348475913" lon="120.57148261631167"><ele>110.0</ele><time>2026-04-18T08:58:50Z</time></trkpt><trkpt lat="15.219618564227746" lon="120.57141365665741"><ele>111.5</ele><time>2026-04-18T08:58:51Z</time></trkpt><trkpt lat="15.219857803362975" lon="120.57134455525119"><ele>113.0</ele><time>2026-04-18T08:58:52Z</time></trkpt><trkpt lat="15.22009657511234" lon="120.57127731395184"><ele>113.0</ele><time>2026-04-18T08:58:53Z</time></trkpt><trkpt lat="15.220337025088737" lon="120.57120913580144"><ele>113.0</ele><time>2026-04-18T08:58:54Z</time></trkpt><trkpt lat="15.220577954248675" lon="120.57113975270005"><ele>113.5</ele><time>2026-04-18T08:58:55Z</time></trkpt><trkpt lat="15.220819797762537" lon="120.57106878843351"><ele>114.0</ele><time>2026-04-18T08:58:56Z</time></trkpt><trkpt lat="15.221065116314922" lon="120.57100007427452"><ele>114.0</ele><time>2026-04-18T08:58:57Z</time></trkpt><trkpt lat="15.221309779224201" lon="120.57093456551225"><ele>114.0</ele><time>2026-04-18T08:58:58Z</time></trkpt><trkpt lat="15.221552013417414" lon="120.57086701987659"><ele>111.5</ele><time>2026-04-18T08:58:59Z</time></trkpt><trkpt lat="15.221794101906145" lon="120.57080027358309"><ele>109.0</ele><time>2026-04-18T08:59:00Z</time></trkpt><trkpt lat="15.222036460942963" lon="120.57073225356272"><ele>109.0</ele><time>2026-04-18T08:59:01Z</time></trkpt><trkpt lat="15.222276441122018" lon="120.57066388021246"><ele>109.0</ele><time>2026-04-18T08:59:02Z</time></trkpt><trkpt lat="15.22251289737056" lon="120.57059416510315"><ele>107.0</ele><time>2026-04-18T08:59:03Z</time></trkpt><trkpt lat="15.222748904322309" lon="120.57052954050093"><ele>105.0</ele><time>2026-04-18T08:59:04Z</time></trkpt><trkpt lat="15.22297978752284" lon="120.57046413110211"><ele>106.0</ele><time>2026-04-18T08:59:05Z</time></trkpt><trkpt lat="15.2232108578791" lon="120.57039792036761"><ele>107.0</ele><time>2026-04-18T08:59:06Z</time></trkpt><trkpt lat="15.223442034638252" lon="120.57033018789818"><ele>107.0</ele><time>2026-04-18T08:59:06.999Z</time></trkpt><trkpt lat="15.22367706860197" lon="120.57026310686466"><ele>107.0</ele><time>2026-04-18T08:59:07.999Z</time></trkpt><trkpt lat="15.223912535537353" lon="120.57019919626082"><ele>107.5</ele><time>2026-04-18T08:59:08.999Z</time></trkpt><trkpt lat="15.224149468080755" lon="120.57013487642845"><ele>108.0</ele><time>2026-04-18T08:59:09.999Z</time></trkpt><trkpt lat="15.224389126936194" lon="120.57006901412332"><ele>108.0</ele><time>2026-04-18T08:59:10.999Z</time></trkpt><trkpt lat="15.224629486232914" lon="120.5700014301787"><ele>108.0</ele><time>2026-04-18T08:59:11.999Z</time></trkpt><trkpt lat="15.224870295230604" lon="120.56993220633427"><ele>108.5</ele><time>2026-04-18T08:59:12.999Z</time></trkpt><trkpt lat="15.225111387687514" lon="120.56986245783823"><ele>109.0</ele><time>2026-04-18T08:59:13.999Z</time></trkpt><trkpt lat="15.225353089666067" lon="120.56979309362205"><ele>109.0</ele><time>2026-04-18T08:59:14.999Z</time></trkpt><trkpt lat="15.22559514512891" lon="120.56972455928111"><ele>109.0</ele><time>2026-04-18T08:59:15.999Z</time></trkpt><trkpt lat="15.225838685032839" lon="120.56965581847571"><ele>110.0</ele><time>2026-04-18T08:59:16.999Z</time></trkpt><trkpt lat="15.226083706694428" lon="120.56958768494647"><ele>111.0</ele><time>2026-04-18T08:59:17.999Z</time></trkpt><trkpt lat="15.226328885783003" lon="120.5695180461606"><ele>109.5</ele><time>2026-04-18T08:59:18.999Z</time></trkpt><trkpt lat="15.226573203515652" lon="120.56944925168283"><ele>108.0</ele><time>2026-04-18T08:59:19.999Z</time></trkpt><trkpt lat="15.226816917267374" lon="120.56938019938818"><ele>108.0</ele><time>2026-04-18T08:59:20.999Z</time></trkpt><trkpt lat="15.22705949818127" lon="120.56931006138048"><ele>108.0</ele><time>2026-04-18T08:59:21.999Z</time></trkpt><trkpt lat="15.22730365782857" lon="120.5692405239415"><ele>108.5</ele><time>2026-04-18T08:59:22.999Z</time></trkpt><trkpt lat="15.227549519687702" lon="120.56917061360005"><ele>109.0</ele><time>2026-04-18T08:59:23.999Z</time></trkpt><trkpt lat="15.22779385248178" lon="120.56910114741115"><ele>109.0</ele><time>2026-04-18T08:59:24.999Z</time></trkpt><trkpt lat="15.228038424589432" lon="120.56903153561575"><ele>109.0</ele><time>2026-04-18T08:59:25.999Z</time></trkpt><trkpt lat="15.228283541287631" lon="120.56896401153264"><ele>108.5</ele><time>2026-04-18T08:59:26.999Z</time></trkpt><trkpt lat="15.228528967011336" lon="120.56889510721675"><ele>108.0</ele><time>2026-04-18T08:59:27.999Z</time></trkpt><trkpt lat="15.228773625650772" lon="120.56882575513517"><ele>107.5</ele><time>2026-04-18T08:59:28.999Z</time></trkpt><trkpt lat="15.229018034909878" lon="120.56875755472947"><ele>107.0</ele><time>2026-04-18T08:59:29.999Z</time></trkpt><trkpt lat="15.229263450319486" lon="120.56868819381225"><ele>106.5</ele><time>2026-04-18T08:59:30.999Z</time></trkpt><trkpt lat="15.229508480470498" lon="120.56861720841879"><ele>106.0</ele><time>2026-04-18T08:59:31.999Z</time></trkpt><trkpt lat="15.22975417976325" lon="120.5685456995864"><ele>106.5</ele><time>2026-04-18T08:59:32.999Z</time></trkpt><trkpt lat="15.230000955328032" lon="120.56847442909594"><ele>107.0</ele><time>2026-04-18T08:59:33.999Z</time></trkpt><trkpt lat="15.230248949912614" lon="120.5684038943776"><ele>107.0</ele><time>2026-04-18T08:59:34.999Z</time></trkpt><trkpt lat="15.230498771105662" lon="120.56833288115423"><ele>107.0</ele><time>2026-04-18T08:59:35.999Z</time></trkpt><trkpt lat="15.230749689822071" lon="120.56826166788218"><ele>108.0</ele><time>2026-04-18T08:59:36.999Z</time></trkpt><trkpt lat="15.231000102293951" lon="120.56819019969761"><ele>109.0</ele><time>2026-04-18T08:59:37.999Z</time></trkpt><trkpt lat="15.231251301796954" lon="120.56811775500827"><ele>107.5</ele><time>2026-04-18T08:59:38.999Z</time></trkpt><trkpt lat="15.231503784106442" lon="120.56804590422061"><ele>106.0</ele><time>2026-04-18T08:59:39.999Z</time></trkpt><trkpt lat="15.231757247980903" lon="120.56797468051747"><ele>106.0</ele><time>2026-04-18T08:59:40.999Z</time></trkpt><trkpt lat="15.23201025130482" lon="120.56790325723507"><ele>106.0</ele><time>2026-04-18T08:59:41.999Z</time></trkpt><trkpt lat="15.23226457958799" lon="120.56783236008616"><ele>104.5</ele><time>2026-04-18T08:59:42.999Z</time></trkpt><trkpt lat="15.232520025519381" lon="120.56776107053214"><ele>103.0</ele><time>2026-04-18T08:59:43.999Z</time></trkpt><trkpt lat="15.232776098342494" lon="120.56768708667434"><ele>103.0</ele><time>2026-04-18T08:59:44.999Z</time></trkpt><trkpt lat="15.233033432279132" lon="120.56761533801202"><ele>103.0</ele><time>2026-04-18T08:59:45.999Z</time></trkpt><trkpt lat="15.233290294244155" lon="120.5675477243961"><ele>106.0</ele><time>2026-04-18T08:59:46.999Z</time></trkpt><trkpt lat="15.233549987562458" lon="120.56748003631834"><ele>109.0</ele><time>2026-04-18T08:59:47.999Z</time></trkpt><trkpt lat="15.23380781298692" lon="120.56741716328871"><ele>108.5</ele><time>2026-04-18T08:59:48.999Z</time></trkpt><trkpt lat="15.234066293160364" lon="120.5673624774177"><ele>108.0</ele><time>2026-04-18T08:59:49.999Z</time></trkpt><trkpt lat="15.234327029130355" lon="120.56731742026662"><ele>108.0</ele><time>2026-04-18T08:59:50.999Z</time></trkpt><trkpt lat="15.234589525455053" lon="120.56728645417482"><ele>108.0</ele><time>2026-04-18T08:59:51.999Z</time></trkpt><trkpt lat="15.234854063655298" lon="120.5672659997573"><ele>107.5</ele><time>2026-04-18T08:59:52.999Z</time></trkpt><trkpt lat="15.235115888917917" lon="120.56725564414572"><ele>107.0</ele><time>2026-04-18T08:59:53.999Z</time></trkpt><trkpt lat="15.235375242655396" lon="120.56725416188246"><ele>107.0</ele><time>2026-04-18T08:59:54.999Z</time></trkpt><trkpt lat="15.235626651295764" lon="120.56726107471366"><ele>107.0</ele><time>2026-04-18T08:59:55.999Z</time></trkpt><trkpt lat="15.235872468092545" lon="120.5672756103966"><ele>107.0</ele><time>2026-04-18T08:59:56.999Z</time></trkpt><trkpt lat="15.236113053916268" lon="120.56729560207025"><ele>107.0</ele><time>2026-04-18T08:59:57.999Z</time></trkpt><trkpt lat="15.236347443208214" lon="120.5673220552828"><ele>106.5</ele><time>2026-04-18T08:59:58.999Z</time></trkpt><trkpt lat="15.236575730276478" lon="120.56735590912088"><ele>106.0</ele><time>2026-04-18T08:59:59.999Z</time></trkpt><trkpt lat="15.236801350753733" lon="120.567397369102"><ele>106.0</ele><time>2026-04-18T09:00:00.999Z</time></trkpt><trkpt lat="15.237024838808152" lon="120.56744747260576"><ele>106.0</ele><time>2026-04-18T09:00:02Z</time></trkpt><trkpt lat="15.237244727840336" lon="120.5675069328602"><ele>106.5</ele><time>2026-04-18T09:00:03Z</time></trkpt><trkpt lat="15.237464084077029" lon="120.56757308681716"><ele>107.0</ele><time>2026-04-18T09:00:04Z</time></trkpt><trkpt lat="15.237682070128017" lon="120.5676482436843"><ele>107.0</ele><time>2026-04-18T09:00:05Z</time></trkpt><trkpt lat="15.237899622647417" lon="120.56772962255181"><ele>107.0</ele><time>2026-04-18T09:00:06Z</time></trkpt><trkpt lat="15.238115998394825" lon="120.5678178477709"><ele>106.0</ele><time>2026-04-18T09:00:07Z</time></trkpt><trkpt lat="15.23833225930975" lon="120.56791503698612"><ele>105.0</ele><time>2026-04-18T09:00:08Z</time></trkpt><trkpt lat="15.238547345538741" lon="120.56801829906827"><ele>105.0</ele><time>2026-04-18T09:00:09Z</time></trkpt><trkpt lat="15.238761443410494" lon="120.56813132462389"><ele>105.0</ele><time>2026-04-18T09:00:10Z</time></trkpt><trkpt lat="15.23897193729768" lon="120.56825224739325"><ele>106.0</ele><time>2026-04-18T09:00:11Z</time></trkpt><trkpt lat="15.239178747011366" lon="120.5683793275602"><ele>107.0</ele><time>2026-04-18T09:00:12Z</time></trkpt><trkpt lat="15.239382619464694" lon="120.56851573370474"><ele>107.0</ele><time>2026-04-18T09:00:13.001Z</time></trkpt><trkpt lat="15.239580741496551" lon="120.5686605783813"><ele>107.0</ele><time>2026-04-18T09:00:14.001Z</time></trkpt><trkpt lat="15.239775018791335" lon="120.56881285853518"><ele>104.5</ele><time>2026-04-18T09:00:15.001Z</time></trkpt><trkpt lat="15.239965772841243" lon="120.56897343434173"><ele>102.0</ele><time>2026-04-18T09:00:16.001Z</time></trkpt><trkpt lat="15.240153864680465" lon="120.56913890741562"><ele>102.0</ele><time>2026-04-18T09:00:17.001Z</time></trkpt><trkpt lat="15.240338450978374" lon="120.56931097253401"><ele>102.0</ele><time>2026-04-18T09:00:18.001Z</time></trkpt><trkpt lat="15.240517391999127" lon="120.56949137731107"><ele>101.5</ele><time>2026-04-18T09:00:19.001Z</time></trkpt><trkpt lat="15.240691398149815" lon="120.56968088513855"><ele>101.0</ele><time>2026-04-18T09:00:20.001Z</time></trkpt><trkpt lat="15.240860129135257" lon="120.56987924874807"><ele>101.0</ele><time>2026-04-18T09:00:21.001Z</time></trkpt><trkpt lat="15.24102339102936" lon="120.57008577423122"><ele>101.0</ele><time>2026-04-18T09:00:22.001Z</time></trkpt><trkpt lat="15.241179594077574" lon="120.57029846134701"><ele>101.0</ele><time>2026-04-18T09:00:23.001Z</time></trkpt><trkpt lat="15.241328419691543" lon="120.57051386253684"><ele>101.0</ele><time>2026-04-18T09:00:24.001Z</time></trkpt><trkpt lat="15.241469643910026" lon="120.57073342226592"><ele>101.0</ele><time>2026-04-18T09:00:25.001Z</time></trkpt><trkpt lat="15.241603860431812" lon="120.57095771000361"><ele>101.0</ele><time>2026-04-18T09:00:26.001Z</time></trkpt><trkpt lat="15.241730020284416" lon="120.5711918506433"><ele>99.5</ele><time>2026-04-18T09:00:27.001Z</time></trkpt><trkpt lat="15.241848802248413" lon="120.57143158687495"><ele>98.0</ele><time>2026-04-18T09:00:28.001Z</time></trkpt><trkpt lat="15.241957710051384" lon="120.57167830388472"><ele>98.0</ele><time>2026-04-18T09:00:29.001Z</time></trkpt><trkpt lat="15.242060144755447" lon="120.57192600040193"><ele>98.0</ele><time>2026-04-18T09:00:30.001Z</time></trkpt><trkpt lat="15.242157168341954" lon="120.57217384334959"><ele>97.5</ele><time>2026-04-18T09:00:31.001Z</time></trkpt><trkpt lat="15.242250767680595" lon="120.57242171146765"><ele>97.0</ele><time>2026-04-18T09:00:32.001Z</time></trkpt><trkpt lat="15.242341166114278" lon="120.57266881277204"><ele>98.0</ele><time>2026-04-18T09:00:33.001Z</time></trkpt><trkpt lat="15.242429495806178" lon="120.57291595768828"><ele>99.0</ele><time>2026-04-18T09:00:34.001Z</time></trkpt><trkpt lat="15.242516835453069" lon="120.57316084143685"><ele>99.0</ele><time>2026-04-18T09:00:35.001Z</time></trkpt><trkpt lat="15.242603699160016" lon="120.5734019997464"><ele>99.0</ele><time>2026-04-18T09:00:36.001Z</time></trkpt><trkpt lat="15.24268771679633" lon="120.57364154620406"><ele>97.5</ele><time>2026-04-18T09:00:37.001Z</time></trkpt><trkpt lat="15.242770093816254" lon="120.57387834038805"><ele>96.0</ele><time>2026-04-18T09:00:38.001Z</time></trkpt><trkpt lat="15.242853488135445" lon="120.5741138578156"><ele>96.0</ele><time>2026-04-18T09:00:39.001Z</time></trkpt><trkpt lat="15.242938856522851" lon="120.57434950192511"><ele>96.0</ele><time>2026-04-18T09:00:40.001Z</time></trkpt><trkpt lat="15.243025036327662" lon="120.57458748593596"><ele>95.5</ele><time>2026-04-18T09:00:41.001Z</time></trkpt><trkpt lat="15.243111784487121" lon="120.57482649896748"><ele>95.0</ele><time>2026-04-18T09:00:42.001Z</time></trkpt><trkpt lat="15.243198819023874" lon="120.57506850951755"><ele>95.0</ele><time>2026-04-18T09:00:43.001Z</time></trkpt><trkpt lat="15.243286836888831" lon="120.57531379933114"><ele>95.0</ele><time>2026-04-18T09:00:44.001Z</time></trkpt><trkpt lat="15.243375659275964" lon="120.57556319207237"><ele>93.0</ele><time>2026-04-18T09:00:45.001Z</time></trkpt><trkpt lat="15.24346589594148" lon="120.5758175880165"><ele>91.0</ele><time>2026-04-18T09:00:46.001Z</time></trkpt><trkpt lat="15.243557732671038" lon="120.57607638446605"><ele>90.0</ele><time>2026-04-18T09:00:47.001Z</time></trkpt><trkpt lat="15.243649199986963" lon="120.57633794428587"><ele>89.0</ele><time>2026-04-18T09:00:48.001Z</time></trkpt><trkpt lat="15.243741868565852" lon="120.57660225771262"><ele>89.0</ele><time>2026-04-18T09:00:49.001Z</time></trkpt><trkpt lat="15.243837078254597" lon="120.57686794994022"><ele>89.0</ele><time>2026-04-18T09:00:50.001Z</time></trkpt><trkpt lat="15.243932842854996" lon="120.57713430628411"><ele>88.5</ele><time>2026-04-18T09:00:51.001Z</time></trkpt><trkpt lat="15.244030038915094" lon="120.57740225675026"><ele>88.0</ele><time>2026-04-18T09:00:52.001Z</time></trkpt><trkpt lat="15.244126744436663" lon="120.57766915938085"><ele>88.0</ele><time>2026-04-18T09:00:53.001Z</time></trkpt><trkpt lat="15.244221228675805" lon="120.57793608084442"><ele>88.0</ele><time>2026-04-18T09:00:54.001Z</time></trkpt><trkpt lat="15.244315842096952" lon="120.57820152555767"><ele>88.0</ele><time>2026-04-18T09:00:55.001Z</time></trkpt><trkpt lat="15.244411011901128" lon="120.57846723021736"><ele>88.0</ele><time>2026-04-18T09:00:56.001Z</time></trkpt><trkpt lat="15.244506436109285" lon="120.57873276875867"><ele>88.0</ele><time>2026-04-18T09:00:57.001Z</time></trkpt><trkpt lat="15.244601499450434" lon="120.5789988113082"><ele>88.0</ele><time>2026-04-18T09:00:58.001Z</time></trkpt><trkpt lat="15.244696607040371" lon="120.57926402229386"><ele>87.5</ele><time>2026-04-18T09:00:59.001Z</time></trkpt><trkpt lat="15.244790651354352" lon="120.57952827676502"><ele>87.0</ele><time>2026-04-18T09:01:00.001Z</time></trkpt><trkpt lat="15.244883802483905" lon="120.57979268497019"><ele>87.0</ele><time>2026-04-18T09:01:01.001Z</time></trkpt><trkpt lat="15.244977026802825" lon="120.58005614825038"><ele>87.0</ele><time>2026-04-18T09:01:02.001Z</time></trkpt><trkpt lat="15.245071810639683" lon="120.5803209902959"><ele>86.5</ele><time>2026-04-18T09:01:03Z</time></trkpt><trkpt lat="15.245167456398333" lon="120.58058731735989"><ele>86.0</ele><time>2026-04-18T09:01:04Z</time></trkpt><trkpt lat="15.245263668048743" lon="120.58085409370656"><ele>86.0</ele><time>2026-04-18T09:01:05Z</time></trkpt><trkpt lat="15.245357690733298" lon="120.58112305676295"><ele>86.0</ele><time>2026-04-18T09:01:06Z</time></trkpt><trkpt lat="15.24545277894425" lon="120.58139152094728"><ele>86.0</ele><time>2026-04-18T09:01:07Z</time></trkpt><trkpt lat="15.245547083837224" lon="120.58165952461374"><ele>86.0</ele><time>2026-04-18T09:01:08Z</time></trkpt><trkpt lat="15.245641805850262" lon="120.5819272052436"><ele>84.5</ele><time>2026-04-18T09:01:09Z</time></trkpt><trkpt lat="15.2457374234653" lon="120.58219543059286"><ele>83.0</ele><time>2026-04-18T09:01:10Z</time></trkpt><trkpt lat="15.24583380727091" lon="120.5824613699375"><ele>83.0</ele><time>2026-04-18T09:01:11Z</time></trkpt><trkpt lat="15.245929164125759" lon="120.58272627948162"><ele>83.0</ele><time>2026-04-18T09:01:12Z</time></trkpt><trkpt lat="15.2460236386893" lon="120.5829888861256"><ele>83.0</ele><time>2026-04-18T09:01:13Z</time></trkpt><trkpt lat="15.246119431181612" lon="120.58325061995129"><ele>83.0</ele><time>2026-04-18T09:01:14Z</time></trkpt><trkpt lat="15.24621516573612" lon="120.5835134381519"><ele>83.5</ele><time>2026-04-18T09:01:15Z</time></trkpt><trkpt lat="15.24631056788484" lon="120.58377587200964"><ele>84.0</ele><time>2026-04-18T09:01:16Z</time></trkpt><trkpt lat="15.246408216258136" lon="120.58403908305652"><ele>83.5</ele><time>2026-04-18T09:01:17Z</time></trkpt><trkpt lat="15.246510467759094" lon="120.58430149431754"><ele>83.0</ele><time>2026-04-18T09:01:18Z</time></trkpt><trkpt lat="15.246617206001181" lon="120.58456242886982"><ele>83.0</ele><time>2026-04-18T09:01:19Z</time></trkpt><trkpt lat="15.246727738689515" lon="120.58482399326455"><ele>83.0</ele><time>2026-04-18T09:01:20Z</time></trkpt><trkpt lat="15.246844334856174" lon="120.5850848080916"><ele>83.0</ele><time>2026-04-18T09:01:21Z</time></trkpt><trkpt lat="15.246967320825783" lon="120.58534032751251"><ele>83.0</ele><time>2026-04-18T09:01:22Z</time></trkpt><trkpt lat="15.247096207681352" lon="120.58559521654999"><ele>83.0</ele><time>2026-04-18T09:01:23Z</time></trkpt><trkpt lat="15.247230702931004" lon="120.58584825182538"><ele>83.0</ele><time>2026-04-18T09:01:24Z</time></trkpt><trkpt lat="15.247371237709382" lon="120.58609701456095"><ele>83.0</ele><time>2026-04-18T09:01:25Z</time></trkpt><trkpt lat="15.247518653738982" lon="120.58633994804197"><ele>83.0</ele><time>2026-04-18T09:01:26Z</time></trkpt><trkpt lat="15.247672362180275" lon="120.58658070390766"><ele>83.0</ele><time>2026-04-18T09:01:27Z</time></trkpt><trkpt lat="15.247831517660204" lon="120.58681783568669"><ele>83.0</ele><time>2026-04-18T09:01:28Z</time></trkpt><trkpt lat="15.247994531136662" lon="120.58704922137076"><ele>82.0</ele><time>2026-04-18T09:01:29Z</time></trkpt><trkpt lat="15.248164211853545" lon="120.58727778777815"><ele>81.0</ele><time>2026-04-18T09:01:30Z</time></trkpt><trkpt lat="15.248340368586986" lon="120.5875000844846"><ele>81.0</ele><time>2026-04-18T09:01:31Z</time></trkpt><trkpt lat="15.248522358881011" lon="120.58772023668156"><ele>81.0</ele><time>2026-04-18T09:01:32Z</time></trkpt><trkpt lat="15.248706870603614" lon="120.58793744677754"><ele>81.0</ele><time>2026-04-18T09:01:33Z</time></trkpt><trkpt lat="15.248897903695878" lon="120.58814452764493"><ele>81.0</ele><time>2026-04-18T09:01:34Z</time></trkpt><trkpt lat="15.249093712393904" lon="120.58834465737553"><ele>80.5</ele><time>2026-04-18T09:01:35Z</time></trkpt><trkpt lat="15.249291057043616" lon="120.58853864562535"><ele>80.0</ele><time>2026-04-18T09:01:36Z</time></trkpt><trkpt lat="15.249489917445507" lon="120.58872590556305"><ele>80.0</ele><time>2026-04-18T09:01:37Z</time></trkpt><trkpt lat="15.249690624893987" lon="120.58890526327113"><ele>80.0</ele><time>2026-04-18T09:01:38Z</time></trkpt><trkpt lat="15.249895690269588" lon="120.5890797318536"><ele>81.0</ele><time>2026-04-18T09:01:39Z</time></trkpt><trkpt lat="15.25010155441784" lon="120.58924569691301"><ele>82.0</ele><time>2026-04-18T09:01:40Z</time></trkpt><trkpt lat="15.250309699069119" lon="120.58940162611"><ele>82.0</ele><time>2026-04-18T09:01:41Z</time></trkpt><trkpt lat="15.250512644358668" lon="120.5895499833448"><ele>82.0</ele><time>2026-04-18T09:01:42Z</time></trkpt><trkpt lat="15.250711013515343" lon="120.5896871429644"><ele>82.0</ele><time>2026-04-18T09:01:43Z</time></trkpt><trkpt lat="15.250905531760376" lon="120.58981503614622"><ele>82.0</ele><time>2026-04-18T09:01:44Z</time></trkpt><trkpt lat="15.251098433101184" lon="120.58993666316775"><ele>82.0</ele><time>2026-04-18T09:01:45Z</time></trkpt><trkpt lat="15.251288759545885" lon="120.59005146279196"><ele>82.0</ele><time>2026-04-18T09:01:46Z</time></trkpt><trkpt lat="15.251478269638804" lon="120.59016174962257"><ele>82.0</ele><time>2026-04-18T09:01:47Z</time></trkpt><trkpt lat="15.25166481961292" lon="120.5902661693109"><ele>81.66666666666666</ele><time>2026-04-18T09:01:48Z</time></trkpt><trkpt lat="15.251846739052437" lon="120.59036472835419"><ele>81.33333333333333</ele><time>2026-04-18T09:01:49Z</time></trkpt><trkpt lat="15.252026284536816" lon="120.59045771676266"><ele>81.0</ele><time>2026-04-18T09:01:50Z</time></trkpt><trkpt lat="15.252205747964563" lon="120.5905480505962"><ele>81.0</ele><time>2026-04-18T09:01:51Z</time></trkpt><trkpt lat="15.252384012363494" lon="120.59063487660156"><ele>81.0</ele><time>2026-04-18T09:01:52Z</time></trkpt><trkpt lat="15.252563267095422" lon="120.59072023230434"><ele>81.0</ele><time>2026-04-18T09:01:53Z</time></trkpt><trkpt lat="15.252746315939072" lon="120.59080531367557"><ele>81.0</ele><time>2026-04-18T09:01:54Z</time></trkpt><trkpt lat="15.252932596126255" lon="120.59089238813502"><ele>81.0</ele><time>2026-04-18T09:01:55Z</time></trkpt><trkpt lat="15.253123041663489" lon="120.59097856854295"><ele>81.0</ele><time>2026-04-18T09:01:56Z</time></trkpt><trkpt lat="15.25331603940624" lon="120.59106700151618"><ele>80.33333333333333</ele><time>2026-04-18T09:01:57Z</time></trkpt><trkpt lat="15.25351184698255" lon="120.59115621251252"><ele>79.66666666666666</ele><time>2026-04-18T09:01:58Z</time></trkpt><trkpt lat="15.253710289397917" lon="120.59124481405334"><ele>79.0</ele><time>2026-04-18T09:01:59Z</time></trkpt><trkpt lat="15.253909661158346" lon="120.59133357558784"><ele>79.0</ele><time>2026-04-18T09:02:00Z</time></trkpt><trkpt lat="15.25411019730684" lon="120.59142110194443"><ele>79.0</ele><time>2026-04-18T09:02:01Z</time></trkpt><trkpt lat="15.254312282356574" lon="120.5915105150863"><ele>79.0</ele><time>2026-04-18T09:02:02Z</time></trkpt><trkpt lat="15.254517262583116" lon="120.59160181421274"><ele>79.0</ele><time>2026-04-18T09:02:03Z</time></trkpt><trkpt lat="15.254724922814935" lon="120.59169266699196"><ele>79.0</ele><time>2026-04-18T09:02:04Z</time></trkpt><trkpt lat="15.254933197870667" lon="120.59178608898131"><ele>79.0</ele><time>2026-04-18T09:02:05Z</time></trkpt><trkpt lat="15.255141687028859" lon="120.59188020715129"><ele>79.0</ele><time>2026-04-18T09:02:06Z</time></trkpt><trkpt lat="15.255351350018246" lon="120.5919744694916"><ele>79.0</ele><time>2026-04-18T09:02:07Z</time></trkpt><trkpt lat="15.255563009383614" lon="120.59206961742258"><ele>79.0</ele><time>2026-04-18T09:02:08Z</time></trkpt><trkpt lat="15.255775452409639" lon="120.59216533793926"><ele>79.0</ele><time>2026-04-18T09:02:09Z</time></trkpt><trkpt lat="15.255986411647678" lon="120.59226092107765"><ele>79.0</ele><time>2026-04-18T09:02:10Z</time></trkpt><trkpt lat="15.256197804572531" lon="120.59235366468995"><ele>79.0</ele><time>2026-04-18T09:02:11Z</time></trkpt><trkpt lat="15.2564094916944" lon="120.59244643972309"><ele>79.0</ele><time>2026-04-18T09:02:12Z</time></trkpt><trkpt lat="15.256622083403311" lon="120.59254016966831"><ele>78.5</ele><time>2026-04-18T09:02:13Z</time></trkpt><trkpt lat="15.256837235879889" lon="120.59263573294683"><ele>78.0</ele><time>2026-04-18T09:02:14Z</time></trkpt><trkpt lat="15.257053498272533" lon="120.59273164779873"><ele>78.0</ele><time>2026-04-18T09:02:15Z</time></trkpt><trkpt lat="15.257272954645515" lon="120.59282920639419"><ele>78.0</ele><time>2026-04-18T09:02:16Z</time></trkpt><trkpt lat="15.257491488428089" lon="120.5929284002465"><ele>79.0</ele><time>2026-04-18T09:02:17Z</time></trkpt><trkpt lat="15.257711813133243" lon="120.59302688008825"><ele>80.0</ele><time>2026-04-18T09:02:18Z</time></trkpt><trkpt lat="15.257931364399306" lon="120.59312438763035"><ele>79.5</ele><time>2026-04-18T09:02:19.001Z</time></trkpt><trkpt lat="15.258148615906123" lon="120.593221307985"><ele>79.0</ele><time>2026-04-18T09:02:20.001Z</time></trkpt><trkpt lat="15.258363794862044" lon="120.59331636645732"><ele>79.0</ele><time>2026-04-18T09:02:21.001Z</time></trkpt><trkpt lat="15.25857729804585" lon="120.59340829675747"><ele>79.0</ele><time>2026-04-18T09:02:22.001Z</time></trkpt><trkpt lat="15.258786803749425" lon="120.59350234117106"><ele>79.33333333333333</ele><time>2026-04-18T09:02:23.001Z</time></trkpt><trkpt lat="15.25898755677492" lon="120.59359508514093"><ele>79.66666666666667</ele><time>2026-04-18T09:02:24.001Z</time></trkpt><trkpt lat="15.259188239483253" lon="120.59368958742958"><ele>80.0</ele><time>2026-04-18T09:02:25.001Z</time></trkpt><trkpt lat="15.259388313237185" lon="120.59378414143474"><ele>79.33333333333334</ele><time>2026-04-18T09:02:26.001Z</time></trkpt><trkpt lat="15.259592054279846" lon="120.59387846765219"><ele>78.66666666666667</ele><time>2026-04-18T09:02:27.001Z</time></trkpt><trkpt lat="15.259796452358403" lon="120.59397204288686"><ele>78.0</ele><time>2026-04-18T09:02:28.001Z</time></trkpt><trkpt lat="15.260001400410832" lon="120.59406747883548"><ele>77.5</ele><time>2026-04-18T09:02:29.001Z</time></trkpt><trkpt lat="15.260213272943824" lon="120.59416509497252"><ele>77.0</ele><time>2026-04-18T09:02:30.001Z</time></trkpt><trkpt lat="15.260429210824345" lon="120.59426270769978"><ele>77.0</ele><time>2026-04-18T09:02:31.001Z</time></trkpt><trkpt lat="15.260649954950575" lon="120.59436114149611"><ele>77.0</ele><time>2026-04-18T09:02:32.001Z</time></trkpt><trkpt lat="15.260874961146937" lon="120.59446345126625"><ele>77.5</ele><time>2026-04-18T09:02:33.001Z</time></trkpt><trkpt lat="15.261102519222229" lon="120.5945635898281"><ele>78.0</ele><time>2026-04-18T09:02:34.001Z</time></trkpt><trkpt lat="15.261333375277529" lon="120.59466542313224"><ele>76.0</ele><time>2026-04-18T09:02:35.001Z</time></trkpt><trkpt lat="15.261564410533762" lon="120.59476686756798"><ele>74.0</ele><time>2026-04-18T09:02:36.001Z</time></trkpt><trkpt lat="15.26179714304368" lon="120.5948679337495"><ele>74.0</ele><time>2026-04-18T09:02:37.001Z</time></trkpt><trkpt lat="15.26203056800066" lon="120.59496796156583"><ele>74.0</ele><time>2026-04-18T09:02:38.001Z</time></trkpt><trkpt lat="15.262266273780122" lon="120.59506831099138"><ele>75.0</ele><time>2026-04-18T09:02:39.001Z</time></trkpt><trkpt lat="15.262503475582216" lon="120.59516826326367"><ele>76.0</ele><time>2026-04-18T09:02:40.001Z</time></trkpt><trkpt lat="15.26274166031139" lon="120.59526974319135"><ele>76.0</ele><time>2026-04-18T09:02:41.001Z</time></trkpt><trkpt lat="15.262981351974823" lon="120.5953715537877"><ele>76.0</ele><time>2026-04-18T09:02:42.001Z</time></trkpt><trkpt lat="15.263219570302558" lon="120.59547503112839"><ele>76.0</ele><time>2026-04-18T09:02:43.001Z</time></trkpt><trkpt lat="15.263455783769652" lon="120.59557850373714"><ele>76.0</ele><time>2026-04-18T09:02:44.001Z</time></trkpt><trkpt lat="15.26369189393696" lon="120.59568111580525"><ele>76.0</ele><time>2026-04-18T09:02:45Z</time></trkpt><trkpt lat="15.263927668153588" lon="120.59578269654216"><ele>76.0</ele><time>2026-04-18T09:02:46Z</time></trkpt><trkpt lat="15.264161948887295" lon="120.59588616143066"><ele>77.5</ele><time>2026-04-18T09:02:47Z</time></trkpt><trkpt lat="15.264395083862325" lon="120.5959885523607"><ele>79.0</ele><time>2026-04-18T09:02:48Z</time></trkpt><trkpt lat="15.26463052001242" lon="120.596092222931"><ele>75.5</ele><time>2026-04-18T09:02:49Z</time></trkpt><trkpt lat="15.264864785542779" lon="120.59619660121312"><ele>72.0</ele><time>2026-04-18T09:02:50Z</time></trkpt><trkpt lat="15.265099224889152" lon="120.59630146802338"><ele>72.0</ele><time>2026-04-18T09:02:51Z</time></trkpt><trkpt lat="15.26533433230566" lon="120.5964051720179"><ele>72.0</ele><time>2026-04-18T09:02:52Z</time></trkpt><trkpt lat="15.26556983338632" lon="120.5965105841053"><ele>73.5</ele><time>2026-04-18T09:02:53Z</time></trkpt><trkpt lat="15.265805994539733" lon="120.59661516555447"><ele>75.0</ele><time>2026-04-18T09:02:54Z</time></trkpt><trkpt lat="15.266044135074427" lon="120.59671974152702"><ele>75.0</ele><time>2026-04-18T09:02:55Z</time></trkpt><trkpt lat="15.266283263069964" lon="120.59682503363516"><ele>75.0</ele><time>2026-04-18T09:02:56Z</time></trkpt><trkpt lat="15.266523122795446" lon="120.59693202777295"><ele>74.5</ele><time>2026-04-18T09:02:57Z</time></trkpt><trkpt lat="15.266761709345625" lon="120.59703724942221"><ele>74.0</ele><time>2026-04-18T09:02:58Z</time></trkpt><trkpt lat="15.26700034409882" lon="120.59714282713172"><ele>74.0</ele><time>2026-04-18T09:02:59Z</time></trkpt><trkpt lat="15.267239570048353" lon="120.59724833478917"><ele>74.0</ele><time>2026-04-18T09:03:00Z</time></trkpt><trkpt lat="15.267479252183803" lon="120.59735192751839"><ele>73.0</ele><time>2026-04-18T09:03:01Z</time></trkpt><trkpt lat="15.267718347585657" lon="120.5974554618367"><ele>72.0</ele><time>2026-04-18T09:03:02Z</time></trkpt><trkpt lat="15.267957345941785" lon="120.59755865734517"><ele>73.0</ele><time>2026-04-18T09:03:03Z</time></trkpt><trkpt lat="15.268195406302434" lon="120.59766185720368"><ele>74.0</ele><time>2026-04-18T09:03:04Z</time></trkpt><trkpt lat="15.268432004069211" lon="120.59776458693166"><ele>73.5</ele><time>2026-04-18T09:03:05Z</time></trkpt><trkpt lat="15.268667256089142" lon="120.59786837497559"><ele>73.0</ele><time>2026-04-18T09:03:06Z</time></trkpt><trkpt lat="15.268902075653708" lon="120.59797149849153"><ele>72.0</ele><time>2026-04-18T09:03:07Z</time></trkpt><trkpt lat="15.269137596186724" lon="120.59807498737315"><ele>71.0</ele><time>2026-04-18T09:03:08Z</time></trkpt><trkpt lat="15.269372664618176" lon="120.59817768808178"><ele>71.0</ele><time>2026-04-18T09:03:09Z</time></trkpt><trkpt lat="15.26960767307094" lon="120.59828120533872"><ele>71.0</ele><time>2026-04-18T09:03:10Z</time></trkpt><trkpt lat="15.269842400061064" lon="120.59838587166526"><ele>70.5</ele><time>2026-04-18T09:03:11Z</time></trkpt><trkpt lat="15.270076396311012" lon="120.5984912455309"><ele>70.0</ele><time>2026-04-18T09:03:12Z</time></trkpt><trkpt lat="15.270309688376669" lon="120.59859535474706"><ele>70.0</ele><time>2026-04-18T09:03:13Z</time></trkpt><trkpt lat="15.270542110588183" lon="120.59869919981641"><ele>70.0</ele><time>2026-04-18T09:03:14Z</time></trkpt><trkpt lat="15.270771778099695" lon="120.598800563557"><ele>69.0</ele><time>2026-04-18T09:03:15Z</time></trkpt><trkpt lat="15.27099851034046" lon="120.59889991391938"><ele>68.0</ele><time>2026-04-18T09:03:16Z</time></trkpt><trkpt lat="15.271224533402922" lon="120.59899907347116"><ele>67.5</ele><time>2026-04-18T09:03:17Z</time></trkpt><trkpt lat="15.271448327867814" lon="120.5990969294716"><ele>67.0</ele><time>2026-04-18T09:03:18Z</time></trkpt><trkpt lat="15.271671717525585" lon="120.59919569884526"><ele>67.0</ele><time>2026-04-18T09:03:19Z</time></trkpt><trkpt lat="15.27189559693517" lon="120.5992943380546"><ele>67.0</ele><time>2026-04-18T09:03:20Z</time></trkpt><trkpt lat="15.272120043705643" lon="120.59939369944038"><ele>67.0</ele><time>2026-04-18T09:03:21Z</time></trkpt><trkpt lat="15.272346221726737" lon="120.59949466264729"><ele>67.0</ele><time>2026-04-18T09:03:22Z</time></trkpt><trkpt lat="15.27257371185097" lon="120.59959543047297"><ele>67.5</ele><time>2026-04-18T09:03:23Z</time></trkpt><trkpt lat="15.272804050919492" lon="120.59969900799241"><ele>68.0</ele><time>2026-04-18T09:03:24Z</time></trkpt><trkpt lat="15.273035990001715" lon="120.59980200857878"><ele>67.5</ele><time>2026-04-18T09:03:25Z</time></trkpt><trkpt lat="15.273269141685601" lon="120.59990681754124"><ele>67.0</ele><time>2026-04-18T09:03:26Z</time></trkpt><trkpt lat="15.27350120911877" lon="120.6000107811913"><ele>67.0</ele><time>2026-04-18T09:03:27Z</time></trkpt><trkpt lat="15.273734359173808" lon="120.60011431763846"><ele>67.0</ele><time>2026-04-18T09:03:28Z</time></trkpt><trkpt lat="15.273968744444119" lon="120.60021730032224"><ele>66.5</ele><time>2026-04-18T09:03:29Z</time></trkpt><trkpt lat="15.27420396249486" lon="120.60032099875711"><ele>66.0</ele><time>2026-04-18T09:03:30Z</time></trkpt><trkpt lat="15.274438346815439" lon="120.60042574684722"><ele>66.0</ele><time>2026-04-18T09:03:31Z</time></trkpt><trkpt lat="15.27467198656771" lon="120.60053102692517"><ele>66.0</ele><time>2026-04-18T09:03:32Z</time></trkpt><trkpt lat="15.274906264728786" lon="120.60063422135009"><ele>65.5</ele><time>2026-04-18T09:03:33Z</time></trkpt><trkpt lat="15.275140090137826" lon="120.6007369116509"><ele>65.0</ele><time>2026-04-18T09:03:34Z</time></trkpt><trkpt lat="15.275373445881804" lon="120.60083946169368"><ele>65.0</ele><time>2026-04-18T09:03:35Z</time></trkpt><trkpt lat="15.275605784345485" lon="120.60094220402885"><ele>65.0</ele><time>2026-04-18T09:03:36Z</time></trkpt><trkpt lat="15.275838881682422" lon="120.6010469054649"><ele>65.0</ele><time>2026-04-18T09:03:37Z</time></trkpt><trkpt lat="15.276073398856234" lon="120.60115011705102"><ele>65.0</ele><time>2026-04-18T09:03:38Z</time></trkpt><trkpt lat="15.276308135618605" lon="120.60125251672163"><ele>64.0</ele><time>2026-04-18T09:03:39Z</time></trkpt><trkpt lat="15.27654404732013" lon="120.60135619390992"><ele>63.0</ele><time>2026-04-18T09:03:40Z</time></trkpt><trkpt lat="15.276777625481294" lon="120.60145880654001"><ele>63.0</ele><time>2026-04-18T09:03:41Z</time></trkpt><trkpt lat="15.277009378767145" lon="120.60155994543979"><ele>63.0</ele><time>2026-04-18T09:03:42Z</time></trkpt><trkpt lat="15.277240665686392" lon="120.60166000845784"><ele>62.0</ele><time>2026-04-18T09:03:43Z</time></trkpt><trkpt lat="15.277469368529871" lon="120.60176007634406"><ele>61.0</ele><time>2026-04-18T09:03:44Z</time></trkpt><trkpt lat="15.277698542231635" lon="120.60186160958716"><ele>61.0</ele><time>2026-04-18T09:03:45Z</time></trkpt><trkpt lat="15.27792830351589" lon="120.60196264945151"><ele>61.0</ele><time>2026-04-18T09:03:46Z</time></trkpt><trkpt lat="15.27815517687629" lon="120.60206428697033"><ele>61.5</ele><time>2026-04-18T09:03:47Z</time></trkpt><trkpt lat="15.27838154935713" lon="120.60216424567517"><ele>62.0</ele><time>2026-04-18T09:03:48Z</time></trkpt><trkpt lat="15.27860752594087" lon="120.60226358372483"><ele>62.0</ele><time>2026-04-18T09:03:49Z</time></trkpt><trkpt lat="15.278835394615578" lon="120.60236487585111"><ele>62.0</ele><time>2026-04-18T09:03:50Z</time></trkpt><trkpt lat="15.27906284889366" lon="120.6024648129049"><ele>62.0</ele><time>2026-04-18T09:03:51Z</time></trkpt><trkpt lat="15.279292348668411" lon="120.602566224993"><ele>62.0</ele><time>2026-04-18T09:03:52Z</time></trkpt><trkpt lat="15.279522809537726" lon="120.60266869739432"><ele>62.0</ele><time>2026-04-18T09:03:53Z</time></trkpt><trkpt lat="15.279754745353758" lon="120.60277079941976"><ele>62.0</ele><time>2026-04-18T09:03:54Z</time></trkpt><trkpt lat="15.279986588406295" lon="120.60287362573985"><ele>62.0</ele><time>2026-04-18T09:03:55Z</time></trkpt><trkpt lat="15.280220326212595" lon="120.60297868343085"><ele>62.0</ele><time>2026-04-18T09:03:56Z</time></trkpt><trkpt lat="15.280455293982499" lon="120.60308531094608"><ele>62.0</ele><time>2026-04-18T09:03:57Z</time></trkpt><trkpt lat="15.28069039334728" lon="120.6031946923214"><ele>62.0</ele><time>2026-04-18T09:03:58Z</time></trkpt><trkpt lat="15.280928576755562" lon="120.60330615335968"><ele>62.0</ele><time>2026-04-18T09:03:59Z</time></trkpt><trkpt lat="15.28116856359001" lon="120.60341800039723"><ele>62.0</ele><time>2026-04-18T09:04:00Z</time></trkpt><trkpt lat="15.28140951453914" lon="120.60352591057301"><ele>61.0</ele><time>2026-04-18T09:04:01Z</time></trkpt><trkpt lat="15.281651158986396" lon="120.60362960233775"><ele>60.0</ele><time>2026-04-18T09:04:02Z</time></trkpt><trkpt lat="15.28189403791572" lon="120.60373355215683"><ele>60.0</ele><time>2026-04-18T09:04:03Z</time></trkpt><trkpt lat="15.282137105504539" lon="120.60383862449196"><ele>60.0</ele><time>2026-04-18T09:04:04Z</time></trkpt><trkpt lat="15.282382299060579" lon="120.60394590020532"><ele>60.0</ele><time>2026-04-18T09:04:05Z</time></trkpt><trkpt lat="15.282628129247685" lon="120.60405505934283"><ele>60.0</ele><time>2026-04-18T09:04:06Z</time></trkpt><trkpt lat="15.282873401784585" lon="120.60416367455298"><ele>60.0</ele><time>2026-04-18T09:04:07Z</time></trkpt><trkpt lat="15.28311941385405" lon="120.60427242601278"><ele>60.0</ele><time>2026-04-18T09:04:08Z</time></trkpt><trkpt lat="15.283365374696348" lon="120.60438277386143"><ele>60.0</ele><time>2026-04-18T09:04:09Z</time></trkpt><trkpt lat="15.283610995028868" lon="120.60449521700104"><ele>60.0</ele><time>2026-04-18T09:04:10Z</time></trkpt><trkpt lat="15.283856623234492" lon="120.60460598445235"><ele>59.5</ele><time>2026-04-18T09:04:11Z</time></trkpt><trkpt lat="15.284102877838054" lon="120.60471875984122"><ele>59.0</ele><time>2026-04-18T09:04:12Z</time></trkpt><trkpt lat="15.284348344611903" lon="120.60483368344057"><ele>59.0</ele><time>2026-04-18T09:04:13Z</time></trkpt><trkpt lat="15.284593170509822" lon="120.60494995519305"><ele>59.0</ele><time>2026-04-18T09:04:14Z</time></trkpt><trkpt lat="15.28483562820991" lon="120.6050657765449"><ele>58.0</ele><time>2026-04-18T09:04:15Z</time></trkpt><trkpt lat="15.285076114119681" lon="120.60518169309658"><ele>57.0</ele><time>2026-04-18T09:04:16Z</time></trkpt><trkpt lat="15.285315605399184" lon="120.60529635280626"><ele>57.0</ele><time>2026-04-18T09:04:17Z</time></trkpt><trkpt lat="15.285556644727562" lon="120.60541091993282"><ele>57.0</ele><time>2026-04-18T09:04:18Z</time></trkpt><trkpt lat="15.285797203538852" lon="120.60552468010859"><ele>57.5</ele><time>2026-04-18T09:04:19Z</time></trkpt><trkpt lat="15.286038710924272" lon="120.60563919106079"><ele>58.0</ele><time>2026-04-18T09:04:20Z</time></trkpt><trkpt lat="15.286281721242904" lon="120.6057549696631"><ele>57.5</ele><time>2026-04-18T09:04:21Z</time></trkpt><trkpt lat="15.286525568519346" lon="120.60587089798733"><ele>57.0</ele><time>2026-04-18T09:04:22Z</time></trkpt><trkpt lat="15.286769524412469" lon="120.6059882151661"><ele>57.0</ele><time>2026-04-18T09:04:23Z</time></trkpt><trkpt lat="15.287014681289111" lon="120.60610652346459"><ele>57.0</ele><time>2026-04-18T09:04:24Z</time></trkpt><trkpt lat="15.287259959941021" lon="120.60622586518765"><ele>57.0</ele><time>2026-04-18T09:04:25Z</time></trkpt><trkpt lat="15.287506320532053" lon="120.60634667625314"><ele>57.0</ele><time>2026-04-18T09:04:26Z</time></trkpt><trkpt lat="15.287753052424506" lon="120.6064671580719"><ele>57.0</ele><time>2026-04-18T09:04:27Z</time></trkpt><trkpt lat="15.288000745855062" lon="120.60658864690927"><ele>57.0</ele><time>2026-04-18T09:04:28Z</time></trkpt><trkpt lat="15.288248860961671" lon="120.60670876112692"><ele>57.5</ele><time>2026-04-18T09:04:29Z</time></trkpt><trkpt lat="15.288495092039797" lon="120.60682970679102"><ele>58.0</ele><time>2026-04-18T09:04:30Z</time></trkpt><trkpt lat="15.288742573231298" lon="120.6069519977176"><ele>57.5</ele><time>2026-04-18T09:04:31Z</time></trkpt><trkpt lat="15.288991217883039" lon="120.60707622965657"><ele>57.0</ele><time>2026-04-18T09:04:32Z</time></trkpt><trkpt lat="15.289238908438332" lon="120.60720187745429"><ele>57.0</ele><time>2026-04-18T09:04:33Z</time></trkpt><trkpt lat="15.289489304293006" lon="120.60732608307562"><ele>57.0</ele><time>2026-04-18T09:04:34Z</time></trkpt><trkpt lat="15.289737830306219" lon="120.60745143090936"><ele>56.0</ele><time>2026-04-18T09:04:35Z</time></trkpt><trkpt lat="15.289985040670063" lon="120.6075762719476"><ele>55.0</ele><time>2026-04-18T09:04:36Z</time></trkpt><trkpt lat="15.290231655698959" lon="120.60770028242908"><ele>55.0</ele><time>2026-04-18T09:04:37Z</time></trkpt><trkpt lat="15.290476791942435" lon="120.60782449101416"><ele>55.0</ele><time>2026-04-18T09:04:38Z</time></trkpt><trkpt lat="15.290721437433499" lon="120.60794932323527"><ele>54.0</ele><time>2026-04-18T09:04:39Z</time></trkpt><trkpt lat="15.29096544259915" lon="120.60807346768064"><ele>53.0</ele><time>2026-04-18T09:04:40Z</time></trkpt><trkpt lat="15.291209843009955" lon="120.60819782934762"><ele>54.0</ele><time>2026-04-18T09:04:41Z</time></trkpt><trkpt lat="15.291453716366844" lon="120.60832273450171"><ele>55.0</ele><time>2026-04-18T09:04:42Z</time></trkpt><trkpt lat="15.29169888108052" lon="120.60844997938526"><ele>55.0</ele><time>2026-04-18T09:04:43Z</time></trkpt><trkpt lat="15.291942509289758" lon="120.60857827799062"><ele>55.0</ele><time>2026-04-18T09:04:44Z</time></trkpt><trkpt lat="15.292187620419755" lon="120.60870653077298"><ele>54.5</ele><time>2026-04-18T09:04:45Z</time></trkpt><trkpt lat="15.292433189531923" lon="120.60883681169356"><ele>54.0</ele><time>2026-04-18T09:04:46Z</time></trkpt><trkpt lat="15.292679696899002" lon="120.60896786984078"><ele>54.0</ele><time>2026-04-18T09:04:47Z</time></trkpt><trkpt lat="15.29292503988784" lon="120.60909993460798"><ele>54.0</ele><time>2026-04-18T09:04:48Z</time></trkpt><trkpt lat="15.293170536318284" lon="120.60923169223491"><ele>54.0</ele><time>2026-04-18T09:04:49Z</time></trkpt><trkpt lat="15.293416012741774" lon="120.60936272513038"><ele>54.0</ele><time>2026-04-18T09:04:50Z</time></trkpt><trkpt lat="15.293662501499657" lon="120.60949558675422"><ele>53.5</ele><time>2026-04-18T09:04:51Z</time></trkpt><trkpt lat="15.29391073166754" lon="120.6096312177241"><ele>53.0</ele><time>2026-04-18T09:04:52Z</time></trkpt><trkpt lat="15.29416026693861" lon="120.60976931058343"><ele>53.0</ele><time>2026-04-18T09:04:53Z</time></trkpt><trkpt lat="15.294411792833353" lon="120.60990880824201"><ele>53.0</ele><time>2026-04-18T09:04:54Z</time></trkpt><trkpt lat="15.2946655562097" lon="120.61004993395471"><ele>53.0</ele><time>2026-04-18T09:04:55Z</time></trkpt><trkpt lat="15.294921044795748" lon="120.61019057667346"><ele>53.0</ele><time>2026-04-18T09:04:56Z</time></trkpt><trkpt lat="15.29517776309088" lon="120.61033119785596"><ele>52.5</ele><time>2026-04-18T09:04:57Z</time></trkpt><trkpt lat="15.295434591867645" lon="120.61047238884758"><ele>52.0</ele><time>2026-04-18T09:04:58Z</time></trkpt><trkpt lat="15.295690441679128" lon="120.61061508047352"><ele>53.0</ele><time>2026-04-18T09:04:59Z</time></trkpt><trkpt lat="15.295947867488211" lon="120.6107584317332"><ele>54.0</ele><time>2026-04-18T09:05:00Z</time></trkpt><trkpt lat="15.296205881880901" lon="120.6109039728609"><ele>54.0</ele><time>2026-04-18T09:05:01Z</time></trkpt><trkpt lat="15.296463705461107" lon="120.6110512414897"><ele>54.0</ele><time>2026-04-18T09:05:02Z</time></trkpt><trkpt lat="15.29672283898777" lon="120.61119917663623"><ele>52.5</ele><time>2026-04-18T09:05:03Z</time></trkpt><trkpt lat="15.296982435229173" lon="120.61134618793133"><ele>51.0</ele><time>2026-04-18T09:05:04Z</time></trkpt><trkpt lat="15.297243384953953" lon="120.61149403679092"><ele>51.0</ele><time>2026-04-18T09:05:05Z</time></trkpt><trkpt lat="15.29750377779568" lon="120.61164296179906"><ele>51.0</ele><time>2026-04-18T09:05:06Z</time></trkpt><trkpt lat="15.297765215963773" lon="120.61179203069005"><ele>51.0</ele><time>2026-04-18T09:05:07Z</time></trkpt><trkpt lat="15.298026076207348" lon="120.61193930554984"><ele>51.0</ele><time>2026-04-18T09:05:08Z</time></trkpt><trkpt lat="15.29828565866333" lon="120.61208810390029"><ele>51.0</ele><time>2026-04-18T09:05:09Z</time></trkpt><trkpt lat="15.298542919563653" lon="120.61223529617362"><ele>51.0</ele><time>2026-04-18T09:05:10Z</time></trkpt><trkpt lat="15.298799578357892" lon="120.61238116641952"><ele>50.5</ele><time>2026-04-18T09:05:11Z</time></trkpt><trkpt lat="15.299053754756116" lon="120.61252717209531"><ele>50.0</ele><time>2026-04-18T09:05:12Z</time></trkpt><trkpt lat="15.299305310056903" lon="120.61267351993071"><ele>50.0</ele><time>2026-04-18T09:05:13Z</time></trkpt><trkpt lat="15.29955395589384" lon="120.61281646424574"><ele>50.0</ele><time>2026-04-18T09:05:14Z</time></trkpt><trkpt lat="15.299799617348151" lon="120.61295952350991"><ele>50.5</ele><time>2026-04-18T09:05:15Z</time></trkpt><trkpt lat="15.300042296257867" lon="120.61309826992722"><ele>51.0</ele><time>2026-04-18T09:05:16Z</time></trkpt><trkpt lat="15.300278540988893" lon="120.61323818371804"><ele>51.0</ele><time>2026-04-18T09:05:17Z</time></trkpt><trkpt lat="15.300511760156189" lon="120.61337509269329"><ele>51.0</ele><time>2026-04-18T09:05:18Z</time></trkpt><trkpt lat="15.30073966839249" lon="120.61350837325985"><ele>51.0</ele><time>2026-04-18T09:05:19Z</time></trkpt><trkpt lat="15.300963741536963" lon="120.61364051747181"><ele>51.0</ele><time>2026-04-18T09:05:20Z</time></trkpt><trkpt lat="15.30118523988128" lon="120.61377272554428"><ele>51.5</ele><time>2026-04-18T09:05:21Z</time></trkpt><trkpt lat="15.301404715767452" lon="120.61390328972718"><ele>52.0</ele><time>2026-04-18T09:05:22Z</time></trkpt><trkpt lat="15.301623068192102" lon="120.61403339146187"><ele>50.5</ele><time>2026-04-18T09:05:23Z</time></trkpt><trkpt lat="15.30183823113975" lon="120.61416165894666"><ele>49.0</ele><time>2026-04-18T09:05:24Z</time></trkpt><trkpt lat="15.30204917671544" lon="120.6142894352859"><ele>49.0</ele><time>2026-04-18T09:05:25Z</time></trkpt><trkpt lat="15.302259741101222" lon="120.61441518603317"><ele>49.0</ele><time>2026-04-18T09:05:26Z</time></trkpt><trkpt lat="15.30247017647422" lon="120.61454046650086"><ele>49.0</ele><time>2026-04-18T09:05:27Z</time></trkpt><trkpt lat="15.302679602937857" lon="120.61466914685192"><ele>49.0</ele><time>2026-04-18T09:05:28Z</time></trkpt><trkpt lat="15.302888168940711" lon="120.61479694707039"><ele>48.5</ele><time>2026-04-18T09:05:29Z</time></trkpt><trkpt lat="15.303093675482053" lon="120.61492268506355"><ele>48.0</ele><time>2026-04-18T09:05:30Z</time></trkpt><trkpt lat="15.30329653190407" lon="120.61504615122217"><ele>48.0</ele><time>2026-04-18T09:05:31Z</time></trkpt><trkpt lat="15.303500171642707" lon="120.61517060651025"><ele>48.0</ele><time>2026-04-18T09:05:32Z</time></trkpt><trkpt lat="15.303707223396717" lon="120.61529772767108"><ele>48.0</ele><time>2026-04-18T09:05:33Z</time></trkpt><trkpt lat="15.303913321394301" lon="120.61542219779004"><ele>48.0</ele><time>2026-04-18T09:05:34Z</time></trkpt><trkpt lat="15.304118604412634" lon="120.6155512371249"><ele>48.0</ele><time>2026-04-18T09:05:35Z</time></trkpt><trkpt lat="15.304323879654854" lon="120.61568182286865"><ele>48.0</ele><time>2026-04-18T09:05:36Z</time></trkpt><trkpt lat="15.30453032235217" lon="120.61581316645892"><ele>48.0</ele><time>2026-04-18T09:05:37Z</time></trkpt><trkpt lat="15.304733872427677" lon="120.61594368130801"><ele>48.0</ele><time>2026-04-18T09:05:38Z</time></trkpt><trkpt lat="15.304935141880572" lon="120.61607402940305"><ele>48.5</ele><time>2026-04-18T09:05:39Z</time></trkpt><trkpt lat="15.305138707293487" lon="120.61620709284286"><ele>49.0</ele><time>2026-04-18T09:05:40Z</time></trkpt><trkpt lat="15.305342996770504" lon="120.61633650358905"><ele>49.0</ele><time>2026-04-18T09:05:41Z</time></trkpt><trkpt lat="15.305545863806795" lon="120.61646641215101"><ele>49.0</ele><time>2026-04-18T09:05:42Z</time></trkpt><trkpt lat="15.30574616025713" lon="120.61659458805975"><ele>48.5</ele><time>2026-04-18T09:05:43Z</time></trkpt><trkpt lat="15.305943411558626" lon="120.61672252111522"><ele>48.0</ele><time>2026-04-18T09:05:44Z</time></trkpt><trkpt lat="15.306136248226723" lon="120.61684632611082"><ele>48.0</ele><time>2026-04-18T09:05:45Z</time></trkpt><trkpt lat="15.306325118919514" lon="120.61696756848363"><ele>48.0</ele><time>2026-04-18T09:05:46Z</time></trkpt><trkpt lat="15.306509525145316" lon="120.61708586586711"><ele>48.0</ele><time>2026-04-18T09:05:47Z</time></trkpt><trkpt lat="15.306689826614617" lon="120.61720145250322"><ele>48.0</ele><time>2026-04-18T09:05:48Z</time></trkpt><trkpt lat="15.306860830505205" lon="120.6173100558365"><ele>48.0</ele><time>2026-04-18T09:05:49Z</time></trkpt><trkpt lat="15.307031531960561" lon="120.61741506632079"><ele>48.0</ele><time>2026-04-18T09:05:50Z</time></trkpt><trkpt lat="15.307206581930092" lon="120.61751845431517"><ele>48.0</ele><time>2026-04-18T09:05:51Z</time></trkpt><trkpt lat="15.307385047635018" lon="120.61762817375934"><ele>48.0</ele><time>2026-04-18T09:05:52Z</time></trkpt><trkpt lat="15.307572389124603" lon="120.61774404481565"><ele>48.0</ele><time>2026-04-18T09:05:53Z</time></trkpt><trkpt lat="15.307760268403074" lon="120.61786788976315"><ele>48.0</ele><time>2026-04-18T09:05:54Z</time></trkpt><trkpt lat="15.307955669820867" lon="120.61799393645312"><ele>48.0</ele><time>2026-04-18T09:05:55Z</time></trkpt><trkpt lat="15.30815604903894" lon="120.61812172624595"><ele>47.5</ele><time>2026-04-18T09:05:56Z</time></trkpt><trkpt lat="15.308361926603867" lon="120.61825256767037"><ele>47.0</ele><time>2026-04-18T09:05:57Z</time></trkpt><trkpt lat="15.308573063850423" lon="120.61838926692364"><ele>47.0</ele><time>2026-04-18T09:05:58Z</time></trkpt><trkpt lat="15.30878849749201" lon="120.61852752381154"><ele>47.0</ele><time>2026-04-18T09:05:59Z</time></trkpt><trkpt lat="15.309009022491962" lon="120.6186705654195"><ele>47.5</ele><time>2026-04-18T09:06:00Z</time></trkpt><trkpt lat="15.309229974061404" lon="120.6188154976649"><ele>48.0</ele><time>2026-04-18T09:06:01Z</time></trkpt><trkpt lat="15.309450534941915" lon="120.61895709795945"><ele>48.0</ele><time>2026-04-18T09:06:02Z</time></trkpt><trkpt lat="15.309669122853995" lon="120.61909927923693"><ele>48.0</ele><time>2026-04-18T09:06:03Z</time></trkpt><trkpt lat="15.309888686178075" lon="120.61924118239237"><ele>48.0</ele><time>2026-04-18T09:06:04Z</time></trkpt><trkpt lat="15.31011113082446" lon="120.61938355045632"><ele>48.0</ele><time>2026-04-18T09:06:05Z</time></trkpt><trkpt lat="15.310336092930436" lon="120.61952780007722"><ele>48.0</ele><time>2026-04-18T09:06:06Z</time></trkpt><trkpt lat="15.310562342945657" lon="120.61967369734967"><ele>48.0</ele><time>2026-04-18T09:06:07Z</time></trkpt><trkpt lat="15.310789545850485" lon="120.61982030570253"><ele>47.0</ele><time>2026-04-18T09:06:08Z</time></trkpt><trkpt lat="15.31101805132715" lon="120.61996898101782"><ele>46.0</ele><time>2026-04-18T09:06:09Z</time></trkpt><trkpt lat="15.311248016909277" lon="120.62011734712058"><ele>46.0</ele><time>2026-04-18T09:06:10Z</time></trkpt><trkpt lat="15.311480554713164" lon="120.62026763493152"><ele>46.0</ele><time>2026-04-18T09:06:11Z</time></trkpt><trkpt lat="15.311715836452949" lon="120.6204196333726"><ele>46.0</ele><time>2026-04-18T09:06:12Z</time></trkpt><trkpt lat="15.311953466394199" lon="120.62057319652045"><ele>46.0</ele><time>2026-04-18T09:06:13Z</time></trkpt><trkpt lat="15.312192339258441" lon="120.6207273652684"><ele>44.5</ele><time>2026-04-18T09:06:14Z</time></trkpt><trkpt lat="15.312432286107416" lon="120.62088265455768"><ele>43.0</ele><time>2026-04-18T09:06:15Z</time></trkpt><trkpt lat="15.312672030789141" lon="120.62103894591158"><ele>44.0</ele><time>2026-04-18T09:06:16Z</time></trkpt><trkpt lat="15.312913178690044" lon="120.62119501904213"><ele>45.0</ele><time>2026-04-18T09:06:17Z</time></trkpt><trkpt lat="15.313155315722295" lon="120.62135071203642"><ele>45.5</ele><time>2026-04-18T09:06:18Z</time></trkpt><trkpt lat="15.313397265880182" lon="120.6215062380682"><ele>46.0</ele><time>2026-04-18T09:06:19Z</time></trkpt><trkpt lat="15.313639067790739" lon="120.62166165039204"><ele>46.0</ele><time>2026-04-18T09:06:20Z</time></trkpt><trkpt lat="15.313880144178912" lon="120.62181737201067"><ele>46.0</ele><time>2026-04-18T09:06:21Z</time></trkpt><trkpt lat="15.3141213255883" lon="120.62197187723757"><ele>45.5</ele><time>2026-04-18T09:06:22Z</time></trkpt><trkpt lat="15.314364217732411" lon="120.6221275850556"><ele>45.0</ele><time>2026-04-18T09:06:23Z</time></trkpt><trkpt lat="15.314607686002592" lon="120.62228333654787"><ele>45.5</ele><time>2026-04-18T09:06:24Z</time></trkpt><trkpt lat="15.314851936200343" lon="120.6224415814706"><ele>46.0</ele><time>2026-04-18T09:06:25Z</time></trkpt><trkpt lat="15.315097020603458" lon="120.62259958825585"><ele>46.0</ele><time>2026-04-18T09:06:26Z</time></trkpt><trkpt lat="15.315342886178373" lon="120.62275786179966"><ele>46.0</ele><time>2026-04-18T09:06:27Z</time></trkpt><trkpt lat="15.315588915246337" lon="120.62291620511785"><ele>45.0</ele><time>2026-04-18T09:06:28Z</time></trkpt><trkpt lat="15.31583431285509" lon="120.62307339616734"><ele>44.0</ele><time>2026-04-18T09:06:29Z</time></trkpt><trkpt lat="15.316079546444172" lon="120.62323109034386"><ele>44.0</ele><time>2026-04-18T09:06:30Z</time></trkpt><trkpt lat="15.31632368519043" lon="120.62339007656799"><ele>44.0</ele><time>2026-04-18T09:06:31Z</time></trkpt><trkpt lat="15.316564696935787" lon="120.62354759964106"><ele>44.5</ele><time>2026-04-18T09:06:32Z</time></trkpt><trkpt lat="15.316806432348042" lon="120.62370453586448"><ele>45.0</ele><time>2026-04-18T09:06:33Z</time></trkpt><trkpt lat="15.317048240793236" lon="120.62386103887562"><ele>45.0</ele><time>2026-04-18T09:06:34Z</time></trkpt><trkpt lat="15.31728992127529" lon="120.62401751683562"><ele>45.0</ele><time>2026-04-18T09:06:35Z</time></trkpt><trkpt lat="15.317531403545948" lon="120.62417358972594"><ele>45.0</ele><time>2026-04-18T09:06:36Z</time></trkpt><trkpt lat="15.317773542664538" lon="120.62432978967239"><ele>45.0</ele><time>2026-04-18T09:06:37Z</time></trkpt><trkpt lat="15.318016653873176" lon="120.6244860738714"><ele>44.0</ele><time>2026-04-18T09:06:38Z</time></trkpt><trkpt lat="15.318259756555568" lon="120.62464068560301"><ele>43.0</ele><time>2026-04-18T09:06:39Z</time></trkpt><trkpt lat="15.318502367952236" lon="120.62479659498227"><ele>43.0</ele><time>2026-04-18T09:06:40Z</time></trkpt><trkpt lat="15.318745642926817" lon="120.62495493749964"><ele>43.0</ele><time>2026-04-18T09:06:41Z</time></trkpt><trkpt lat="15.318989223653796" lon="120.6251134466906"><ele>43.0</ele><time>2026-04-18T09:06:42Z</time></trkpt><trkpt lat="15.319232970756568" lon="120.62526961671037"><ele>43.0</ele><time>2026-04-18T09:06:43Z</time></trkpt><trkpt lat="15.319477519098788" lon="120.62542617834907"><ele>43.0</ele><time>2026-04-18T09:06:44Z</time></trkpt><trkpt lat="15.319722350593533" lon="120.62558262962239"><ele>43.0</ele><time>2026-04-18T09:06:45Z</time></trkpt><trkpt lat="15.31996607527298" lon="120.62573992818012"><ele>43.5</ele><time>2026-04-18T09:06:46Z</time></trkpt><trkpt lat="15.320208830336634" lon="120.62589724707833"><ele>44.0</ele><time>2026-04-18T09:06:47Z</time></trkpt><trkpt lat="15.320450394906091" lon="120.62605572654238"><ele>43.0</ele><time>2026-04-18T09:06:48Z</time></trkpt><trkpt lat="15.320691092594227" lon="120.62621228195916"><ele>42.0</ele><time>2026-04-18T09:06:49Z</time></trkpt><trkpt lat="15.32092871159346" lon="120.62636697280783"><ele>42.0</ele><time>2026-04-18T09:06:50Z</time></trkpt><trkpt lat="15.321164517412745" lon="120.62651877340525"><ele>42.0</ele><time>2026-04-18T09:06:51Z</time></trkpt><trkpt lat="15.321399342849261" lon="120.62666819878694"><ele>41.5</ele><time>2026-04-18T09:06:52Z</time></trkpt><trkpt lat="15.321633035359955" lon="120.62681700271575"><ele>41.0</ele><time>2026-04-18T09:06:53Z</time></trkpt><trkpt lat="15.321865638833385" lon="120.62696561046624"><ele>42.0</ele><time>2026-04-18T09:06:54Z</time></trkpt><trkpt lat="15.322096613444446" lon="120.6271132437509"><ele>43.0</ele><time>2026-04-18T09:06:55Z</time></trkpt><trkpt lat="15.322326130646006" lon="120.62726041334622"><ele>44.0</ele><time>2026-04-18T09:06:56Z</time></trkpt><trkpt lat="15.3225526166377" lon="120.6274048795328"><ele>45.0</ele><time>2026-04-18T09:06:57Z</time></trkpt><trkpt lat="15.322775193161021" lon="120.6275473763712"><ele>45.0</ele><time>2026-04-18T09:06:58Z</time></trkpt><trkpt lat="15.322995370292857" lon="120.62768958380511"><ele>45.0</ele><time>2026-04-18T09:06:59Z</time></trkpt><trkpt lat="15.323212913971155" lon="120.6278325324791"><ele>43.5</ele><time>2026-04-18T09:07:00Z</time></trkpt><trkpt lat="15.323430303386017" lon="120.62797438304757"><ele>42.0</ele><time>2026-04-18T09:07:01Z</time></trkpt><trkpt lat="15.323646788340113" lon="120.6281171442358"><ele>42.0</ele><time>2026-04-18T09:07:02Z</time></trkpt><trkpt lat="15.323864478611485" lon="120.62826051675196"><ele>42.0</ele><time>2026-04-18T09:07:03Z</time></trkpt><trkpt lat="15.324081433365091" lon="120.62840398082442"><ele>42.5</ele><time>2026-04-18T09:07:04Z</time></trkpt><trkpt lat="15.324298267886055" lon="120.62854626310246"><ele>43.0</ele><time>2026-04-18T09:07:05Z</time></trkpt><trkpt lat="15.32451418611163" lon="120.62868680959231"><ele>43.0</ele><time>2026-04-18T09:07:06Z</time></trkpt><trkpt lat="15.324729199603327" lon="120.62882748375806"><ele>43.0</ele><time>2026-04-18T09:07:07Z</time></trkpt><trkpt lat="15.32494421196867" lon="120.62896632791056"><ele>42.0</ele><time>2026-04-18T09:07:08Z</time></trkpt><trkpt lat="15.325159124952846" lon="120.62910441658025"><ele>41.0</ele><time>2026-04-18T09:07:09Z</time></trkpt><trkpt lat="15.32537423612681" lon="120.62924232477869"><ele>41.0</ele><time>2026-04-18T09:07:10Z</time></trkpt><trkpt lat="15.32558864181031" lon="120.6293803089517"><ele>41.0</ele><time>2026-04-18T09:07:11Z</time></trkpt><trkpt lat="15.325801990174927" lon="120.62952105960028"><ele>41.0</ele><time>2026-04-18T09:07:12Z</time></trkpt><trkpt lat="15.32601658696167" lon="120.62966117497245"><ele>41.0</ele><time>2026-04-18T09:07:13Z</time></trkpt><trkpt lat="15.326232244976797" lon="120.6298005236722"><ele>42.0</ele><time>2026-04-18T09:07:14Z</time></trkpt><trkpt lat="15.32644954178796" lon="120.62994106052504"><ele>43.0</ele><time>2026-04-18T09:07:15Z</time></trkpt><trkpt lat="15.326667937314763" lon="120.63008173169247"><ele>43.0</ele><time>2026-04-18T09:07:16Z</time></trkpt><trkpt lat="15.32688653925441" lon="120.63022112938971"><ele>43.0</ele><time>2026-04-18T09:07:17Z</time></trkpt><trkpt lat="15.327106496561273" lon="120.63036096423886"><ele>42.0</ele><time>2026-04-18T09:07:18Z</time></trkpt><trkpt lat="15.327326757909104" lon="120.6305022233852"><ele>41.0</ele><time>2026-04-18T09:07:19Z</time></trkpt><trkpt lat="15.32754533221984" lon="120.63064345521768"><ele>41.0</ele><time>2026-04-18T09:07:20Z</time></trkpt><trkpt lat="15.327763055208534" lon="120.6307845552636"><ele>41.0</ele><time>2026-04-18T09:07:21Z</time></trkpt><trkpt lat="15.327978262690793" lon="120.63092430864477"><ele>40.5</ele><time>2026-04-18T09:07:22Z</time></trkpt><trkpt lat="15.328190564599767" lon="120.63106236100474"><ele>40.0</ele><time>2026-04-18T09:07:23Z</time></trkpt><trkpt lat="15.32839967844565" lon="120.63119652411999"><ele>41.0</ele><time>2026-04-18T09:07:24Z</time></trkpt><trkpt lat="15.328605723610274" lon="120.63132917367224"><ele>42.0</ele><time>2026-04-18T09:07:25Z</time></trkpt><trkpt lat="15.328809165176772" lon="120.63145950713114"><ele>40.0</ele><time>2026-04-18T09:07:26Z</time></trkpt><trkpt lat="15.329010089757528" lon="120.63158785759471"><ele>38.0</ele><time>2026-04-18T09:07:27Z</time></trkpt><trkpt lat="15.32920960227635" lon="120.63171424047424"><ele>38.0</ele><time>2026-04-18T09:07:28Z</time></trkpt><trkpt lat="15.32941031436598" lon="120.6318415949295"><ele>38.0</ele><time>2026-04-18T09:07:29Z</time></trkpt><trkpt lat="15.329610430404129" lon="120.63197024562756"><ele>39.0</ele><time>2026-04-18T09:07:30Z</time></trkpt><trkpt lat="15.329808923525617" lon="120.63209973064252"><ele>40.0</ele><time>2026-04-18T09:07:31Z</time></trkpt><trkpt lat="15.33000495522351" lon="120.63222745904702"><ele>40.0</ele><time>2026-04-18T09:07:32Z</time></trkpt><trkpt lat="15.330198961882125" lon="120.6323508131731"><ele>40.0</ele><time>2026-04-18T09:07:33Z</time></trkpt><trkpt lat="15.33039037490848" lon="120.63247212043973"><ele>40.66666666666667</ele><time>2026-04-18T09:07:34Z</time></trkpt><trkpt lat="15.330581103426402" lon="120.63259001356684"><ele>41.333333333333336</ele><time>2026-04-18T09:07:35Z</time></trkpt><trkpt lat="15.330770740201135" lon="120.63270399792754"><ele>42.0</ele><time>2026-04-18T09:07:36Z</time></trkpt><trkpt lat="15.330958189892016" lon="120.63281760333496"><ele>42.0</ele><time>2026-04-18T09:07:37Z</time></trkpt><trkpt lat="15.331143867404213" lon="120.63293275386039"><ele>42.0</ele><time>2026-04-18T09:07:38Z</time></trkpt><trkpt lat="15.331328139967768" lon="120.63304482741187"><ele>42.0</ele><time>2026-04-18T09:07:39Z</time></trkpt><trkpt lat="15.331509011108269" lon="120.63315952235592"><ele>41.666666666666664</ele><time>2026-04-18T09:07:40Z</time></trkpt><trkpt lat="15.331687916230496" lon="120.63327277731081"><ele>41.33333333333333</ele><time>2026-04-18T09:07:41Z</time></trkpt><trkpt lat="15.331863090214345" lon="120.63338577017984"><ele>41.0</ele><time>2026-04-18T09:07:42Z</time></trkpt><trkpt lat="15.332036491152927" lon="120.63349608089052"><ele>41.0</ele><time>2026-04-18T09:07:43Z</time></trkpt><trkpt lat="15.332208491124918" lon="120.63360613226172"><ele>41.0</ele><time>2026-04-18T09:07:44Z</time></trkpt><trkpt lat="15.332380189585727" lon="120.6337140058264"><ele>41.0</ele><time>2026-04-18T09:07:45Z</time></trkpt><trkpt lat="15.332551540727614" lon="120.63382331567415"><ele>41.666666666666664</ele><time>2026-04-18T09:07:46Z</time></trkpt><trkpt lat="15.332721718110022" lon="120.63393185699174"><ele>42.333333333333336</ele><time>2026-04-18T09:07:47Z</time></trkpt><trkpt lat="15.332888684486955" lon="120.63404272297795"><ele>43.0</ele><time>2026-04-18T09:07:48Z</time></trkpt><trkpt lat="15.333058292067015" lon="120.63415459645107"><ele>43.0</ele><time>2026-04-18T09:07:49Z</time></trkpt><trkpt lat="15.33323192833551" lon="120.6342678729373"><ele>43.0</ele><time>2026-04-18T09:07:50Z</time></trkpt><trkpt lat="15.333410409388204" lon="120.63438449799365"><ele>43.0</ele><time>2026-04-18T09:07:51Z</time></trkpt><trkpt lat="15.333593074040218" lon="120.63450425580952"><ele>43.0</ele><time>2026-04-18T09:07:52Z</time></trkpt><trkpt lat="15.333780063699002" lon="120.63462361822269"><ele>43.0</ele><time>2026-04-18T09:07:53Z</time></trkpt><trkpt lat="15.333971767192459" lon="120.63474550489623"><ele>43.0</ele><time>2026-04-18T09:07:54Z</time></trkpt><trkpt lat="15.33416602636936" lon="120.6348705633186"><ele>43.0</ele><time>2026-04-18T09:07:55Z</time></trkpt><trkpt lat="15.334362614601908" lon="120.63499737872466"><ele>43.0</ele><time>2026-04-18T09:07:56Z</time></trkpt><trkpt lat="15.33456284380856" lon="120.63512648380562"><ele>42.5</ele><time>2026-04-18T09:07:57Z</time></trkpt><trkpt lat="15.334765073199947" lon="120.63525814429872"><ele>42.0</ele><time>2026-04-18T09:07:58Z</time></trkpt><trkpt lat="15.334969969178767" lon="120.6353906822741"><ele>42.0</ele><time>2026-04-18T09:07:59Z</time></trkpt><trkpt lat="15.3351783305543" lon="120.63552372255512"><ele>42.0</ele><time>2026-04-18T09:08:00Z</time></trkpt><trkpt lat="15.335388881728484" lon="120.63565979379334"><ele>41.5</ele><time>2026-04-18T09:08:01Z</time></trkpt><trkpt lat="15.335601332051418" lon="120.63579796133807"><ele>41.0</ele><time>2026-04-18T09:08:02Z</time></trkpt><trkpt lat="15.335815307605486" lon="120.63593823596743"><ele>41.0</ele><time>2026-04-18T09:08:03Z</time></trkpt><trkpt lat="15.336031617211837" lon="120.6360792515925"><ele>41.0</ele><time>2026-04-18T09:08:04Z</time></trkpt><trkpt lat="15.33624871949146" lon="120.63622046796391"><ele>40.0</ele><time>2026-04-18T09:08:05Z</time></trkpt><trkpt lat="15.336467886461573" lon="120.63636333559717"><ele>39.0</ele><time>2026-04-18T09:08:06Z</time></trkpt><trkpt lat="15.3366889052124" lon="120.63650783172432"><ele>39.0</ele><time>2026-04-18T09:08:07Z</time></trkpt><trkpt lat="15.336909965629694" lon="120.6366521452"><ele>39.0</ele><time>2026-04-18T09:08:08Z</time></trkpt><trkpt lat="15.337133040211835" lon="120.63679790184209"><ele>39.0</ele><time>2026-04-18T09:08:09Z</time></trkpt><trkpt lat="15.33735795437511" lon="120.63694250231075"><ele>39.0</ele><time>2026-04-18T09:08:10Z</time></trkpt><trkpt lat="15.337582887355975" lon="120.63708770255914"><ele>39.0</ele><time>2026-04-18T09:08:11Z</time></trkpt><trkpt lat="15.337809128679696" lon="120.63723261685662"><ele>39.0</ele><time>2026-04-18T09:08:12Z</time></trkpt><trkpt lat="15.338036914074067" lon="120.63737743200878"><ele>38.5</ele><time>2026-04-18T09:08:13Z</time></trkpt><trkpt lat="15.338265191107604" lon="120.63752176918015"><ele>38.0</ele><time>2026-04-18T09:08:14Z</time></trkpt><trkpt lat="15.338494046220648" lon="120.63766744384388"><ele>38.0</ele><time>2026-04-18T09:08:15Z</time></trkpt><trkpt lat="15.33872316190921" lon="120.63781426617017"><ele>38.0</ele><time>2026-04-18T09:08:16Z</time></trkpt><trkpt lat="15.338951949863892" lon="120.6379616287406"><ele>38.5</ele><time>2026-04-18T09:08:17Z</time></trkpt><trkpt lat="15.3391819255823" lon="120.63811001937471"><ele>39.0</ele><time>2026-04-18T09:08:18Z</time></trkpt><trkpt lat="15.339411966294081" lon="120.63825930869277"><ele>39.0</ele><time>2026-04-18T09:08:19Z</time></trkpt><trkpt lat="15.339642908776307" lon="120.63840861038719"><ele>39.0</ele><time>2026-04-18T09:08:20Z</time></trkpt><trkpt lat="15.339874012169258" lon="120.63855621294222"><ele>39.0</ele><time>2026-04-18T09:08:21Z</time></trkpt><trkpt lat="15.34010359821303" lon="120.63870382142846"><ele>39.0</ele><time>2026-04-18T09:08:22Z</time></trkpt><trkpt lat="15.340332668259665" lon="120.63885142685045"><ele>39.0</ele><time>2026-04-18T09:08:23Z</time></trkpt><trkpt lat="15.340561152345924" lon="120.63899945928911"><ele>39.0</ele><time>2026-04-18T09:08:24Z</time></trkpt><trkpt lat="15.340790823687556" lon="120.63914730099394"><ele>39.0</ele><time>2026-04-18T09:08:25Z</time></trkpt><trkpt lat="15.341020358870605" lon="120.63929451066595"><ele>39.0</ele><time>2026-04-18T09:08:26Z</time></trkpt><trkpt lat="15.341249453515301" lon="120.63944303279621"><ele>38.5</ele><time>2026-04-18T09:08:27Z</time></trkpt><trkpt lat="15.341478200412686" lon="120.63959164241557"><ele>38.0</ele><time>2026-04-18T09:08:28Z</time></trkpt><trkpt lat="15.341707402040054" lon="120.639741467485"><ele>38.0</ele><time>2026-04-18T09:08:29Z</time></trkpt><trkpt lat="15.341936810651456" lon="120.63989046828584"><ele>38.0</ele><time>2026-04-18T09:08:30Z</time></trkpt><trkpt lat="15.342166361533428" lon="120.64003894116934"><ele>37.5</ele><time>2026-04-18T09:08:31Z</time></trkpt><trkpt lat="15.342396165992655" lon="120.64018673532007"><ele>37.0</ele><time>2026-04-18T09:08:32Z</time></trkpt><trkpt lat="15.342627964795076" lon="120.64033431321675"><ele>37.0</ele><time>2026-04-18T09:08:33Z</time></trkpt><trkpt lat="15.342860643217588" lon="120.64048255635973"><ele>37.0</ele><time>2026-04-18T09:08:34Z</time></trkpt><trkpt lat="15.343093870392153" lon="120.6406307034782"><ele>37.5</ele><time>2026-04-18T09:08:35Z</time></trkpt><trkpt lat="15.343326498636214" lon="120.64078042504926"><ele>38.0</ele><time>2026-04-18T09:08:36Z</time></trkpt><trkpt lat="15.34355708287003" lon="120.6409291765498"><ele>38.0</ele><time>2026-04-18T09:08:37Z</time></trkpt><trkpt lat="15.343788626125459" lon="120.64107842417077"><ele>38.0</ele><time>2026-04-18T09:08:38Z</time></trkpt><trkpt lat="15.34402132774374" lon="120.64122692965508"><ele>38.5</ele><time>2026-04-18T09:08:39Z</time></trkpt><trkpt lat="15.344254847807022" lon="120.64137725918755"><ele>39.0</ele><time>2026-04-18T09:08:40Z</time></trkpt><trkpt lat="15.34448887732789" lon="120.64152861752096"><ele>39.5</ele><time>2026-04-18T09:08:41Z</time></trkpt><trkpt lat="15.344723305033789" lon="120.64168089676608"><ele>40.0</ele><time>2026-04-18T09:08:42Z</time></trkpt><trkpt lat="15.344958812884371" lon="120.64183335809389"><ele>39.5</ele><time>2026-04-18T09:08:43Z</time></trkpt><trkpt lat="15.345195283816121" lon="120.64198502770071"><ele>39.0</ele><time>2026-04-18T09:08:44Z</time></trkpt><trkpt lat="15.345433154855487" lon="120.64213683462054"><ele>38.0</ele><time>2026-04-18T09:08:45Z</time></trkpt><trkpt lat="15.34567206750278" lon="120.64228835950229"><ele>37.0</ele><time>2026-04-18T09:08:46Z</time></trkpt><trkpt lat="15.34591236285144" lon="120.64244126918025"><ele>37.0</ele><time>2026-04-18T09:08:47Z</time></trkpt><trkpt lat="15.346153430199903" lon="120.64259604222981"><ele>37.0</ele><time>2026-04-18T09:08:48Z</time></trkpt><trkpt lat="15.346395893513252" lon="120.64275192634422"><ele>37.5</ele><time>2026-04-18T09:08:49Z</time></trkpt><trkpt lat="15.346638862078953" lon="120.64290921366246"><ele>38.0</ele><time>2026-04-18T09:08:50Z</time></trkpt><trkpt lat="15.346881768830675" lon="120.64306677757482"><ele>38.0</ele><time>2026-04-18T09:08:51Z</time></trkpt><trkpt lat="15.347124810260645" lon="120.64322432423974"><ele>38.0</ele><time>2026-04-18T09:08:52Z</time></trkpt><trkpt lat="15.347367320021695" lon="120.6433818933286"><ele>37.5</ele><time>2026-04-18T09:08:53Z</time></trkpt><trkpt lat="15.347608751130528" lon="120.643539041089"><ele>37.0</ele><time>2026-04-18T09:08:54Z</time></trkpt><trkpt lat="15.347850039083117" lon="120.64369388019733"><ele>36.0</ele><time>2026-04-18T09:08:55Z</time></trkpt><trkpt lat="15.348089831980639" lon="120.64384735869108"><ele>35.0</ele><time>2026-04-18T09:08:56Z</time></trkpt><trkpt lat="15.348328975799632" lon="120.6440005212023"><ele>35.0</ele><time>2026-04-18T09:08:57Z</time></trkpt><trkpt lat="15.348566641991344" lon="120.64415244214395"><ele>35.0</ele><time>2026-04-18T09:08:58Z</time></trkpt><trkpt lat="15.348802228799165" lon="120.64430290547462"><ele>35.0</ele><time>2026-04-18T09:08:59Z</time></trkpt><trkpt lat="15.349035070058084" lon="120.64445350249616"><ele>35.0</ele><time>2026-04-18T09:09:00Z</time></trkpt><trkpt lat="15.349267776455832" lon="120.64460336035125"><ele>36.0</ele><time>2026-04-18T09:09:01Z</time></trkpt><trkpt lat="15.349498642311154" lon="120.64475294279441"><ele>37.0</ele><time>2026-04-18T09:09:02Z</time></trkpt><trkpt lat="15.349727786076034" lon="120.6449013400813"><ele>37.5</ele><time>2026-04-18T09:09:03Z</time></trkpt><trkpt lat="15.3499554882923" lon="120.64504863462729"><ele>38.0</ele><time>2026-04-18T09:09:04Z</time></trkpt><trkpt lat="15.35018121438981" lon="120.64519521907143"><ele>37.5</ele><time>2026-04-18T09:09:05Z</time></trkpt><trkpt lat="15.350406393850426" lon="120.64533943381173"><ele>37.0</ele><time>2026-04-18T09:09:06Z</time></trkpt><trkpt lat="15.35063096532561" lon="120.64548385132096"><ele>37.0</ele><time>2026-04-18T09:09:07Z</time></trkpt><trkpt lat="15.350853550518398" lon="120.64562787345766"><ele>37.0</ele><time>2026-04-18T09:09:08Z</time></trkpt><trkpt lat="15.351074307287627" lon="120.64577173243126"><ele>37.0</ele><time>2026-04-18T09:09:09Z</time></trkpt><trkpt lat="15.35129259339637" lon="120.64591345760368"><ele>37.0</ele><time>2026-04-18T09:09:10Z</time></trkpt><trkpt lat="15.351509720560298" lon="120.64605455207487"><ele>37.0</ele><time>2026-04-18T09:09:11Z</time></trkpt><trkpt lat="15.351727434394387" lon="120.64619537236386"><ele>37.0</ele><time>2026-04-18T09:09:12Z</time></trkpt><trkpt lat="15.351945953141785" lon="120.64633608094813"><ele>37.0</ele><time>2026-04-18T09:09:13Z</time></trkpt><trkpt lat="15.352165079081379" lon="120.64647634657055"><ele>37.0</ele><time>2026-04-18T09:09:14Z</time></trkpt><trkpt lat="15.35238449947511" lon="120.64661620759406"><ele>37.0</ele><time>2026-04-18T09:09:15Z</time></trkpt><trkpt lat="15.352603953267618" lon="120.64675728861414"><ele>37.0</ele><time>2026-04-18T09:09:16Z</time></trkpt><trkpt lat="15.35282397845542" lon="120.64689834113662"><ele>36.5</ele><time>2026-04-18T09:09:17Z</time></trkpt><trkpt lat="15.353043079373926" lon="120.64704000039058"><ele>36.0</ele><time>2026-04-18T09:09:18Z</time></trkpt><trkpt lat="15.353261685751656" lon="120.64718022536177"><ele>36.0</ele><time>2026-04-18T09:09:19Z</time></trkpt><trkpt lat="15.353479072398539" lon="120.64732014558079"><ele>36.0</ele><time>2026-04-18T09:09:20Z</time></trkpt><trkpt lat="15.353696030072843" lon="120.64746070131083"><ele>35.5</ele><time>2026-04-18T09:09:21Z</time></trkpt><trkpt lat="15.353913525008037" lon="120.64759999086189"><ele>35.0</ele><time>2026-04-18T09:09:22Z</time></trkpt><trkpt lat="15.354131567296237" lon="120.64773838083595"><ele>36.0</ele><time>2026-04-18T09:09:23Z</time></trkpt><trkpt lat="15.354348395841143" lon="120.64787647495419"><ele>37.0</ele><time>2026-04-18T09:09:24Z</time></trkpt><trkpt lat="15.35456593210194" lon="120.64801503338077"><ele>37.0</ele><time>2026-04-18T09:09:25Z</time></trkpt><trkpt lat="15.354782877144887" lon="120.64815485448423"><ele>37.0</ele><time>2026-04-18T09:09:26Z</time></trkpt><trkpt lat="15.354998055636772" lon="120.64829392749569"><ele>37.0</ele><time>2026-04-18T09:09:27Z</time></trkpt><trkpt lat="15.355213108408366" lon="120.64843299387017"><ele>37.0</ele><time>2026-04-18T09:09:28Z</time></trkpt><trkpt lat="15.355426730494953" lon="120.64857146811572"><ele>34.5</ele><time>2026-04-18T09:09:29Z</time></trkpt><trkpt lat="15.35563902236126" lon="120.64870801240929"><ele>32.0</ele><time>2026-04-18T09:09:30Z</time></trkpt><trkpt lat="15.35584858934128" lon="120.64884241106637"><ele>32.0</ele><time>2026-04-18T09:09:31Z</time></trkpt><trkpt lat="15.356054096650938" lon="120.64897553913025"><ele>32.0</ele><time>2026-04-18T09:09:32Z</time></trkpt><trkpt lat="15.356257015942443" lon="120.64910495451947"><ele>32.5</ele><time>2026-04-18T09:09:33Z</time></trkpt><trkpt lat="15.35645626360356" lon="120.64923238759211"><ele>33.0</ele><time>2026-04-18T09:09:34Z</time></trkpt><trkpt lat="15.356652476619908" lon="120.64935896969324"><ele>34.0</ele><time>2026-04-18T09:09:35Z</time></trkpt><trkpt lat="15.356847540385692" lon="120.64948600288291"><ele>35.0</ele><time>2026-04-18T09:09:36Z</time></trkpt><trkpt lat="15.35704157975909" lon="120.64961111991738"><ele>34.0</ele><time>2026-04-18T09:09:37Z</time></trkpt><trkpt lat="15.357236201089776" lon="120.64973447835585"><ele>33.0</ele><time>2026-04-18T09:09:38Z</time></trkpt><trkpt lat="15.357429443160292" lon="120.6498584459174"><ele>33.0</ele><time>2026-04-18T09:09:39Z</time></trkpt><trkpt lat="15.357621790381362" lon="120.64998166905876"><ele>33.0</ele><time>2026-04-18T09:09:40Z</time></trkpt><trkpt lat="15.357812429826259" lon="120.65010509096359"><ele>33.0</ele><time>2026-04-18T09:09:41Z</time></trkpt><trkpt lat="15.358002599397697" lon="120.65022900105929"><ele>33.0</ele><time>2026-04-18T09:09:42Z</time></trkpt><trkpt lat="15.358192681806964" lon="120.65035377855156"><ele>33.5</ele><time>2026-04-18T09:09:43Z</time></trkpt><trkpt lat="15.358384460501936" lon="120.65047914682935"><ele>34.0</ele><time>2026-04-18T09:09:44Z</time></trkpt><trkpt lat="15.358578699366621" lon="120.6506039106215"><ele>34.0</ele><time>2026-04-18T09:09:45Z</time></trkpt><trkpt lat="15.358774064740857" lon="120.65073119666494"><ele>34.0</ele><time>2026-04-18T09:09:46Z</time></trkpt><trkpt lat="15.358971102181656" lon="120.65085802025484"><ele>33.5</ele><time>2026-04-18T09:09:47Z</time></trkpt><trkpt lat="15.35916943463442" lon="120.65098486009094"><ele>33.0</ele><time>2026-04-18T09:09:48Z</time></trkpt><trkpt lat="15.35936721696656" lon="120.65111201588738"><ele>33.5</ele><time>2026-04-18T09:09:49Z</time></trkpt><trkpt lat="15.359566055377664" lon="120.65124025753022"><ele>34.0</ele><time>2026-04-18T09:09:50Z</time></trkpt><trkpt lat="15.359765455614946" lon="120.65136823707233"><ele>34.0</ele><time>2026-04-18T09:09:51Z</time></trkpt><trkpt lat="15.359964363334408" lon="120.65149632127876"><ele>34.0</ele><time>2026-04-18T09:09:52Z</time></trkpt><trkpt lat="15.360164335395638" lon="120.65162512123774"><ele>34.0</ele><time>2026-04-18T09:09:53Z</time></trkpt><trkpt lat="15.360364620471247" lon="120.65175383496079"><ele>34.0</ele><time>2026-04-18T09:09:54Z</time></trkpt><trkpt lat="15.3605647446049" lon="120.65188306498335"><ele>32.5</ele><time>2026-04-18T09:09:55Z</time></trkpt><trkpt lat="15.360766114427776" lon="120.65201333416721"><ele>31.0</ele><time>2026-04-18T09:09:56Z</time></trkpt><trkpt lat="15.360968188840713" lon="120.65214445705612"><ele>31.0</ele><time>2026-04-18T09:09:57Z</time></trkpt><trkpt lat="15.36117075347393" lon="120.65227581820376"><ele>31.0</ele><time>2026-04-18T09:09:58Z</time></trkpt><trkpt lat="15.361372558682582" lon="120.65240721004515"><ele>31.0</ele><time>2026-04-18T09:09:59Z</time></trkpt><trkpt lat="15.361573643265352" lon="120.6525373613469"><ele>31.0</ele><time>2026-04-18T09:10:00Z</time></trkpt><trkpt lat="15.361772541108845" lon="120.65266592918626"><ele>31.5</ele><time>2026-04-18T09:10:01Z</time></trkpt><trkpt lat="15.361970945515809" lon="120.65279199262646"><ele>32.0</ele><time>2026-04-18T09:10:02Z</time></trkpt><trkpt lat="15.36216714648756" lon="120.65291524877426"><ele>32.0</ele><time>2026-04-18T09:10:03Z</time></trkpt><trkpt lat="15.362361485261156" lon="120.65303742316702"><ele>32.0</ele><time>2026-04-18T09:10:04Z</time></trkpt><trkpt lat="15.362554932352324" lon="120.6531584275451"><ele>32.0</ele><time>2026-04-18T09:10:05Z</time></trkpt><trkpt lat="15.362745665011504" lon="120.65327827323246"><ele>32.0</ele><time>2026-04-18T09:10:06Z</time></trkpt><trkpt lat="15.36293415559582" lon="120.65339845221577"><ele>32.0</ele><time>2026-04-18T09:10:07Z</time></trkpt><trkpt lat="15.363121361808261" lon="120.65351851939701"><ele>32.0</ele><time>2026-04-18T09:10:08Z</time></trkpt><trkpt lat="15.363307192352705" lon="120.65363674760698"><ele>32.0</ele><time>2026-04-18T09:10:09Z</time></trkpt><trkpt lat="15.363492559363293" lon="120.65375401775526"><ele>32.0</ele><time>2026-04-18T09:10:10Z</time></trkpt><trkpt lat="15.363677924239324" lon="120.65386940148073"><ele>32.0</ele><time>2026-04-18T09:10:11Z</time></trkpt><trkpt lat="15.363864429181382" lon="120.6539838568584"><ele>32.0</ele><time>2026-04-18T09:10:12Z</time></trkpt><trkpt lat="15.36405206470233" lon="120.65409858986834"><ele>32.0</ele><time>2026-04-18T09:10:13Z</time></trkpt><trkpt lat="15.364240497556219" lon="120.65421257247746"><ele>32.0</ele><time>2026-04-18T09:10:14Z</time></trkpt><trkpt lat="15.364429277757257" lon="120.65432761049763"><ele>32.0</ele><time>2026-04-18T09:10:15Z</time></trkpt><trkpt lat="15.364620731350172" lon="120.65444185405464"><ele>32.0</ele><time>2026-04-18T09:10:16Z</time></trkpt><trkpt lat="15.36481404881711" lon="120.65455511877771"><ele>32.666666666666664</ele><time>2026-04-18T09:10:17Z</time></trkpt><trkpt lat="15.36500697897342" lon="120.65466856602453"><ele>33.333333333333336</ele><time>2026-04-18T09:10:18Z</time></trkpt><trkpt lat="15.365201336093294" lon="120.65478157010277"><ele>34.0</ele><time>2026-04-18T09:10:19Z</time></trkpt><trkpt lat="15.365396365197427" lon="120.65489350670644"><ele>33.66666666666667</ele><time>2026-04-18T09:10:20Z</time></trkpt><trkpt lat="15.365590654001187" lon="120.65500478886653"><ele>33.333333333333336</ele><time>2026-04-18T09:10:21Z</time></trkpt><trkpt lat="15.365785689624454" lon="120.65511504926961"><ele>33.0</ele><time>2026-04-18T09:10:22Z</time></trkpt><trkpt lat="15.365980373724312" lon="120.65522417407374"><ele>34.0</ele><time>2026-04-18T09:10:23Z</time></trkpt><trkpt lat="15.36617492502725" lon="120.65533290895789"><ele>35.0</ele><time>2026-04-18T09:10:24Z</time></trkpt><trkpt lat="15.36636809445263" lon="120.65543837213302"><ele>36.0</ele><time>2026-04-18T09:10:25Z</time></trkpt><trkpt lat="15.366558225901455" lon="120.65554104530835"><ele>36.0</ele><time>2026-04-18T09:10:26Z</time></trkpt><trkpt lat="15.366746671993742" lon="120.65564251570872"><ele>36.0</ele><time>2026-04-18T09:10:27Z</time></trkpt><trkpt lat="15.36693399453128" lon="120.6557434246615"><ele>36.0</ele><time>2026-04-18T09:10:28Z</time></trkpt><trkpt lat="15.36712001111366" lon="120.65584186055466"><ele>36.0</ele><time>2026-04-18T09:10:29Z</time></trkpt><trkpt lat="15.367304030584434" lon="120.65593826846026"><ele>36.0</ele><time>2026-04-18T09:10:30Z</time></trkpt><trkpt lat="15.367487763260433" lon="120.65603303893957"><ele>36.0</ele><time>2026-04-18T09:10:31Z</time></trkpt><trkpt lat="15.367673123157664" lon="120.65612795055867"><ele>35.666666666666664</ele><time>2026-04-18T09:10:32Z</time></trkpt><trkpt lat="15.367859100658745" lon="120.65622230118318"><ele>35.33333333333333</ele><time>2026-04-18T09:10:33Z</time></trkpt><trkpt lat="15.368047279226701" lon="120.65631675419463"><ele>35.0</ele><time>2026-04-18T09:10:34Z</time></trkpt><trkpt lat="15.368236232888854" lon="120.65640937685004"><ele>34.666666666666664</ele><time>2026-04-18T09:10:35Z</time></trkpt><trkpt lat="15.368427417726602" lon="120.65650070905798"><ele>34.333333333333336</ele><time>2026-04-18T09:10:36Z</time></trkpt><trkpt lat="15.368619967830991" lon="120.65659100977919"><ele>34.0</ele><time>2026-04-18T09:10:37Z</time></trkpt><trkpt lat="15.368814548893353" lon="120.65668159376972"><ele>34.333333333333336</ele><time>2026-04-18T09:10:38Z</time></trkpt><trkpt lat="15.36901101887968" lon="120.65677273352938"><ele>34.666666666666664</ele><time>2026-04-18T09:10:39Z</time></trkpt><trkpt lat="15.369209345625231" lon="120.65686228253044"><ele>35.0</ele><time>2026-04-18T09:10:40Z</time></trkpt><trkpt lat="15.36940920372403" lon="120.65695145744435"><ele>35.0</ele><time>2026-04-18T09:10:41Z</time></trkpt><trkpt lat="15.36961114662389" lon="120.65703954714466"><ele>35.0</ele><time>2026-04-18T09:10:42Z</time></trkpt><trkpt lat="15.369815355197822" lon="120.65712755481336"><ele>35.0</ele><time>2026-04-18T09:10:43Z</time></trkpt><trkpt lat="15.370023374906461" lon="120.65720651268205"><ele>34.5</ele><time>2026-04-18T09:10:44Z</time></trkpt><trkpt lat="15.370230661757159" lon="120.65729439885035"><ele>34.0</ele><time>2026-04-18T09:10:45Z</time></trkpt><trkpt lat="15.370439850244347" lon="120.65738203148545"><ele>33.5</ele><time>2026-04-18T09:10:46Z</time></trkpt><trkpt lat="15.37065199521283" lon="120.65746871750244"><ele>33.0</ele><time>2026-04-18T09:10:47Z</time></trkpt><trkpt lat="15.370865366956636" lon="120.65755314097986"><ele>33.0</ele><time>2026-04-18T09:10:48Z</time></trkpt><trkpt lat="15.371081441970311" lon="120.65763717992711"><ele>33.0</ele><time>2026-04-18T09:10:49Z</time></trkpt><trkpt lat="15.371302325814549" lon="120.6577232007892"><ele>34.0</ele><time>2026-04-18T09:10:50Z</time></trkpt><trkpt lat="15.371526973843519" lon="120.65780789349347"><ele>35.0</ele><time>2026-04-18T09:10:51Z</time></trkpt><trkpt lat="15.371754597955768" lon="120.65789058576465"><ele>35.0</ele><time>2026-04-18T09:10:52Z</time></trkpt><trkpt lat="15.371984127697868" lon="120.65797254651913"><ele>35.0</ele><time>2026-04-18T09:10:53Z</time></trkpt><trkpt lat="15.372214266037371" lon="120.65805122730265"><ele>35.0</ele><time>2026-04-18T09:10:54Z</time></trkpt><trkpt lat="15.37244477882549" lon="120.65812870103197"><ele>35.0</ele><time>2026-04-18T09:10:55Z</time></trkpt><trkpt lat="15.372673355657978" lon="120.65820334523798"><ele>35.0</ele><time>2026-04-18T09:10:56Z</time></trkpt><trkpt lat="15.372899982480785" lon="120.65827431097382"><ele>35.0</ele><time>2026-04-18T09:10:57Z</time></trkpt><trkpt lat="15.373125197502779" lon="120.65834328145483"><ele>34.5</ele><time>2026-04-18T09:10:58Z</time></trkpt><trkpt lat="15.373349048718769" lon="120.65841169584687"><ele>34.0</ele><time>2026-04-18T09:10:59Z</time></trkpt><trkpt lat="15.373570766541675" lon="120.65847655725491"><ele>34.0</ele><time>2026-04-18T09:11:00Z</time></trkpt><trkpt lat="15.373790341561142" lon="120.6585406019581"><ele>34.0</ele><time>2026-04-18T09:11:01Z</time></trkpt><trkpt lat="15.374009107978033" lon="120.65860320286191"><ele>34.0</ele><time>2026-04-18T09:11:02Z</time></trkpt><trkpt lat="15.37422759385377" lon="120.65866570016335"><ele>34.0</ele><time>2026-04-18T09:11:03Z</time></trkpt><trkpt lat="15.37444893389166" lon="120.65872677805079"><ele>34.0</ele><time>2026-04-18T09:11:04Z</time></trkpt><trkpt lat="15.374671446603859" lon="120.65878667232133"><ele>34.0</ele><time>2026-04-18T09:11:05Z</time></trkpt><trkpt lat="15.37489737646628" lon="120.65884571968056"><ele>33.5</ele><time>2026-04-18T09:11:06Z</time></trkpt><trkpt lat="15.375125693934844" lon="120.65890345882327"><ele>33.0</ele><time>2026-04-18T09:11:07Z</time></trkpt><trkpt lat="15.375357383603648" lon="120.65896015676267"><ele>33.5</ele><time>2026-04-18T09:11:08Z</time></trkpt><trkpt lat="15.375591839078934" lon="120.65901822918337"><ele>34.0</ele><time>2026-04-18T09:11:09Z</time></trkpt><trkpt lat="15.375828563842346" lon="120.65907401893058"><ele>34.0</ele><time>2026-04-18T09:11:10Z</time></trkpt><trkpt lat="15.376068884002214" lon="120.6591285328115"><ele>34.0</ele><time>2026-04-18T09:11:11Z</time></trkpt><trkpt lat="15.376311433424524" lon="120.65918172732896"><ele>33.5</ele><time>2026-04-18T09:11:12Z</time></trkpt><trkpt lat="15.376557042367775" lon="120.6592331995086"><ele>33.0</ele><time>2026-04-18T09:11:13Z</time></trkpt><trkpt lat="15.376805649825606" lon="120.65928426385321"><ele>33.0</ele><time>2026-04-18T09:11:14Z</time></trkpt><trkpt lat="15.377056455218012" lon="120.65933604631712"><ele>33.0</ele><time>2026-04-18T09:11:15Z</time></trkpt><trkpt lat="15.377310847970596" lon="120.65938722129238"><ele>34.0</ele><time>2026-04-18T09:11:16Z</time></trkpt><trkpt lat="15.37756940107785" lon="120.65943997612602"><ele>35.0</ele><time>2026-04-18T09:11:17Z</time></trkpt><trkpt lat="15.377833050294885" lon="120.65949058925538"><ele>35.0</ele><time>2026-04-18T09:11:18Z</time></trkpt><trkpt lat="15.378100346103013" lon="120.65953939350467"><ele>35.0</ele><time>2026-04-18T09:11:19Z</time></trkpt><trkpt lat="15.378371169557425" lon="120.65958408830096"><ele>35.0</ele><time>2026-04-18T09:11:20Z</time></trkpt><trkpt lat="15.378646724622573" lon="120.65962499481205"><ele>35.0</ele><time>2026-04-18T09:11:21Z</time></trkpt><trkpt lat="15.378925285912388" lon="120.65966324457406"><ele>35.0</ele><time>2026-04-18T09:11:22Z</time></trkpt><trkpt lat="15.379206823627195" lon="120.65969718323282"><ele>35.0</ele><time>2026-04-18T09:11:23Z</time></trkpt><trkpt lat="15.379490368543944" lon="120.65972814647678"><ele>34.0</ele><time>2026-04-18T09:11:24Z</time></trkpt><trkpt lat="15.379774934586926" lon="120.65975665804206"><ele>33.0</ele><time>2026-04-18T09:11:25Z</time></trkpt><trkpt lat="15.380059494084156" lon="120.65978396714172"><ele>33.0</ele><time>2026-04-18T09:11:26Z</time></trkpt><trkpt lat="15.380343664584625" lon="120.65980890849545"><ele>33.0</ele><time>2026-04-18T09:11:27Z</time></trkpt><trkpt lat="15.38062833965678" lon="120.65983339634617"><ele>33.0</ele><time>2026-04-18T09:11:28Z</time></trkpt><trkpt lat="15.38091166010199" lon="120.65985740155098"><ele>33.0</ele><time>2026-04-18T09:11:29Z</time></trkpt><trkpt lat="15.381194924031824" lon="120.65987829282442"><ele>34.0</ele><time>2026-04-18T09:11:30Z</time></trkpt><trkpt lat="15.381477813749138" lon="120.65989637404488"><ele>35.0</ele><time>2026-04-18T09:11:31Z</time></trkpt><trkpt lat="15.381761349370526" lon="120.65991291209112"><ele>35.0</ele><time>2026-04-18T09:11:32Z</time></trkpt><trkpt lat="15.382044392043532" lon="120.65992599603125"><ele>35.0</ele><time>2026-04-18T09:11:33Z</time></trkpt><trkpt lat="15.382328384848766" lon="120.65993771407791"><ele>35.5</ele><time>2026-04-18T09:11:34Z</time></trkpt><trkpt lat="15.382613376256835" lon="120.65994913364712"><ele>36.0</ele><time>2026-04-18T09:11:35Z</time></trkpt><trkpt lat="15.382898772612121" lon="120.65995835112592"><ele>36.0</ele><time>2026-04-18T09:11:36Z</time></trkpt><trkpt lat="15.38318622021282" lon="120.65996543047633"><ele>36.0</ele><time>2026-04-18T09:11:37Z</time></trkpt><trkpt lat="15.383474184931098" lon="120.6599700318108"><ele>36.0</ele><time>2026-04-18T09:11:38Z</time></trkpt><trkpt lat="15.383761575071453" lon="120.65997301433417"><ele>36.0</ele><time>2026-04-18T09:11:39Z</time></trkpt><trkpt lat="15.384044938988767" lon="120.65997522177912"><ele>36.5</ele><time>2026-04-18T09:11:40Z</time></trkpt><trkpt lat="15.38432442040789" lon="120.65997834909616"><ele>37.0</ele><time>2026-04-18T09:11:41Z</time></trkpt><trkpt lat="15.384604936804367" lon="120.65997718553614"><ele>36.5</ele><time>2026-04-18T09:11:42Z</time></trkpt><trkpt lat="15.384886395503544" lon="120.65997788327874"><ele>36.0</ele><time>2026-04-18T09:11:43Z</time></trkpt><trkpt lat="15.385168863758791" lon="120.6599792816407"><ele>36.0</ele><time>2026-04-18T09:11:44Z</time></trkpt><trkpt lat="15.385453170886109" lon="120.65997945027812"><ele>36.0</ele><time>2026-04-18T09:11:45Z</time></trkpt><trkpt lat="15.385738440434592" lon="120.65998016724835"><ele>34.5</ele><time>2026-04-18T09:11:46Z</time></trkpt><trkpt lat="15.38602146816525" lon="120.65997791539935"><ele>33.0</ele><time>2026-04-18T09:11:47Z</time></trkpt><trkpt lat="15.386303875755747" lon="120.65997299505143"><ele>33.5</ele><time>2026-04-18T09:11:48Z</time></trkpt><trkpt lat="15.386585086226747" lon="120.65996419403662"><ele>34.0</ele><time>2026-04-18T09:11:49Z</time></trkpt><trkpt lat="15.38686424762201" lon="120.65995491990356"><ele>34.0</ele><time>2026-04-18T09:11:50Z</time></trkpt><trkpt lat="15.387143909484802" lon="120.6599450497518"><ele>34.0</ele><time>2026-04-18T09:11:51Z</time></trkpt><trkpt lat="15.387424074628404" lon="120.65993265609252"><ele>33.5</ele><time>2026-04-18T09:11:52Z</time></trkpt><trkpt lat="15.387704468112526" lon="120.6599228018214"><ele>33.0</ele><time>2026-04-18T09:11:53Z</time></trkpt><trkpt lat="15.387985440344176" lon="120.65991177443935"><ele>32.0</ele><time>2026-04-18T09:11:54Z</time></trkpt><trkpt lat="15.388264547927548" lon="120.65989876729437"><ele>31.0</ele><time>2026-04-18T09:11:55Z</time></trkpt><trkpt lat="15.388543146579964" lon="120.6598853336552"><ele>31.0</ele><time>2026-04-18T09:11:56Z</time></trkpt><trkpt lat="15.388822112512754" lon="120.65987196814127"><ele>31.0</ele><time>2026-04-18T09:11:57Z</time></trkpt><trkpt lat="15.38910102838791" lon="120.65986015887106"><ele>31.0</ele><time>2026-04-18T09:11:58Z</time></trkpt><trkpt lat="15.389378338794357" lon="120.65984712890572"><ele>31.0</ele><time>2026-04-18T09:11:59Z</time></trkpt><trkpt lat="15.389656779782143" lon="120.65983409327973"><ele>32.5</ele><time>2026-04-18T09:12:00Z</time></trkpt><trkpt lat="15.389933948157976" lon="120.65982125289632"><ele>34.0</ele><time>2026-04-18T09:12:01Z</time></trkpt><trkpt lat="15.390209814731046" lon="120.65980742890406"><ele>34.0</ele><time>2026-04-18T09:12:02Z</time></trkpt><trkpt lat="15.390485850503683" lon="120.65979276764442"><ele>34.0</ele><time>2026-04-18T09:12:03Z</time></trkpt><trkpt lat="15.390760170742086" lon="120.65977527728488"><ele>34.0</ele><time>2026-04-18T09:12:04Z</time></trkpt><trkpt lat="15.391033771328024" lon="120.65975715248028"><ele>34.0</ele><time>2026-04-18T09:12:05Z</time></trkpt><trkpt lat="15.39130646569147" lon="120.65973874233865"><ele>33.5</ele><time>2026-04-18T09:12:06Z</time></trkpt><trkpt lat="15.391579540659997" lon="120.65972229125886"><ele>33.0</ele><time>2026-04-18T09:12:07Z</time></trkpt><trkpt lat="15.39185246369343" lon="120.65970627151343"><ele>33.0</ele><time>2026-04-18T09:12:08Z</time></trkpt><trkpt lat="15.392124269685263" lon="120.65969005795814"><ele>33.0</ele><time>2026-04-18T09:12:09Z</time></trkpt><trkpt lat="15.392397065058237" lon="120.65967496811483"><ele>33.0</ele><time>2026-04-18T09:12:10Z</time></trkpt><trkpt lat="15.39267091143731" lon="120.65966009215765"><ele>33.0</ele><time>2026-04-18T09:12:11Z</time></trkpt><trkpt lat="15.392944596263856" lon="120.65964595731904"><ele>33.5</ele><time>2026-04-18T09:12:12Z</time></trkpt><trkpt lat="15.393219076755509" lon="120.65963362087405"><ele>34.0</ele><time>2026-04-18T09:12:13Z</time></trkpt><trkpt lat="15.393491840716171" lon="120.65962167606067"><ele>34.0</ele><time>2026-04-18T09:12:14Z</time></trkpt><trkpt lat="15.393764970511073" lon="120.6596089713929"><ele>34.0</ele><time>2026-04-18T09:12:15Z</time></trkpt><trkpt lat="15.394037256833002" lon="120.65959571667152"><ele>34.0</ele><time>2026-04-18T09:12:16Z</time></trkpt><trkpt lat="15.394307628567988" lon="120.65958217676747"><ele>34.0</ele><time>2026-04-18T09:12:17Z</time></trkpt><trkpt lat="15.39457367419334" lon="120.65956880911894"><ele>33.0</ele><time>2026-04-18T09:12:18Z</time></trkpt><trkpt lat="15.39483722407319" lon="120.65955689019228"><ele>32.0</ele><time>2026-04-18T09:12:19Z</time></trkpt><trkpt lat="15.395099974541639" lon="120.65954417246502"><ele>32.0</ele><time>2026-04-18T09:12:20Z</time></trkpt><trkpt lat="15.395358940055852" lon="120.65953002059149"><ele>32.0</ele><time>2026-04-18T09:12:21Z</time></trkpt><trkpt lat="15.395616236284587" lon="120.65951671021557"><ele>33.5</ele><time>2026-04-18T09:12:22Z</time></trkpt><trkpt lat="15.395877941149438" lon="120.65950655239142"><ele>35.0</ele><time>2026-04-18T09:12:23Z</time></trkpt><trkpt lat="15.396141214041258" lon="120.6594989212306"><ele>34.5</ele><time>2026-04-18T09:12:24Z</time></trkpt><trkpt lat="15.396405780480823" lon="120.65949088210068"><ele>34.0</ele><time>2026-04-18T09:12:25Z</time></trkpt><trkpt lat="15.396675629894348" lon="120.65948376711994"><ele>34.0</ele><time>2026-04-18T09:12:26Z</time></trkpt><trkpt lat="15.396944441105711" lon="120.65947429397333"><ele>34.0</ele><time>2026-04-18T09:12:27Z</time></trkpt><trkpt lat="15.39721240468379" lon="120.65946733507154"><ele>34.0</ele><time>2026-04-18T09:12:28Z</time></trkpt><trkpt lat="15.397482226567934" lon="120.65945630922393"><ele>34.0</ele><time>2026-04-18T09:12:29Z</time></trkpt><trkpt lat="15.397744925146398" lon="120.65944408662665"><ele>34.0</ele><time>2026-04-18T09:12:30Z</time></trkpt><trkpt lat="15.3979917725672" lon="120.65943239084046"><ele>34.0</ele><time>2026-04-18T09:12:31Z</time></trkpt><trkpt lat="15.398227155414073" lon="120.65941793277588"><ele>34.0</ele><time>2026-04-18T09:12:32Z</time></trkpt><trkpt lat="15.398456911397792" lon="120.65940226003431"><ele>34.0</ele><time>2026-04-18T09:12:33Z</time></trkpt><trkpt lat="15.398683722164945" lon="120.65938872585619"><ele>33.5</ele><time>2026-04-18T09:12:34Z</time></trkpt><trkpt lat="15.39890906666639" lon="120.65937580996122"><ele>33.0</ele><time>2026-04-18T09:12:35Z</time></trkpt><trkpt lat="15.399137129234743" lon="120.65936283948952"><ele>33.0</ele><time>2026-04-18T09:12:36Z</time></trkpt><trkpt lat="15.399367978708325" lon="120.65935070506025"><ele>33.0</ele><time>2026-04-18T09:12:37Z</time></trkpt><trkpt lat="15.399603388932343" lon="120.65933656419108"><ele>32.5</ele><time>2026-04-18T09:12:38Z</time></trkpt><trkpt lat="15.399843371491054" lon="120.65932362187675"><ele>32.0</ele><time>2026-04-18T09:12:39Z</time></trkpt><trkpt lat="15.400088703127816" lon="120.65931467510141"><ele>32.0</ele><time>2026-04-18T09:12:40Z</time></trkpt><trkpt lat="15.400337273200451" lon="120.6593071880359"><ele>32.0</ele><time>2026-04-18T09:12:41Z</time></trkpt><trkpt lat="15.40058582262712" lon="120.65929969445997"><ele>33.0</ele><time>2026-04-18T09:12:42Z</time></trkpt><trkpt lat="15.400839858869524" lon="120.6592962086542"><ele>34.0</ele><time>2026-04-18T09:12:43Z</time></trkpt><trkpt lat="15.401101710532137" lon="120.65929895844188"><ele>33.0</ele><time>2026-04-18T09:12:44Z</time></trkpt><trkpt lat="15.401370429806775" lon="120.65929972330721"><ele>32.0</ele><time>2026-04-18T09:12:45Z</time></trkpt><trkpt lat="15.401646416558465" lon="120.65930228352893"><ele>32.0</ele><time>2026-04-18T09:12:46Z</time></trkpt><trkpt lat="15.40192770261975" lon="120.65929894213737"><ele>32.0</ele><time>2026-04-18T09:12:47Z</time></trkpt><trkpt lat="15.402215037396566" lon="120.65929778782245"><ele>32.0</ele><time>2026-04-18T09:12:48Z</time></trkpt><trkpt lat="15.402509951418681" lon="120.65929785137199"><ele>32.0</ele><time>2026-04-18T09:12:49Z</time></trkpt><trkpt lat="15.402805904771032" lon="120.65929535698048"><ele>31.0</ele><time>2026-04-18T09:12:50Z</time></trkpt><trkpt lat="15.403100909201509" lon="120.65929514059773"><ele>30.0</ele><time>2026-04-18T09:12:51Z</time></trkpt><trkpt lat="15.403394572522412" lon="120.65929605570855"><ele>30.0</ele><time>2026-04-18T09:12:52Z</time></trkpt><trkpt lat="15.403687187370393" lon="120.65929952768113"><ele>30.0</ele><time>2026-04-18T09:12:53Z</time></trkpt><trkpt lat="15.403979449292992" lon="120.65930312341014"><ele>29.5</ele><time>2026-04-18T09:12:54Z</time></trkpt><trkpt lat="15.404272131730423" lon="120.65930815537527"><ele>29.0</ele><time>2026-04-18T09:12:55Z</time></trkpt><trkpt lat="15.404563138877922" lon="120.65931371915273"><ele>29.5</ele><time>2026-04-18T09:12:56Z</time></trkpt><trkpt lat="15.404854017552633" lon="120.65932088932996"><ele>30.0</ele><time>2026-04-18T09:12:57Z</time></trkpt><trkpt lat="15.405145095570251" lon="120.65932866097636"><ele>30.0</ele><time>2026-04-18T09:12:58Z</time></trkpt><trkpt lat="15.405431849142316" lon="120.65933976709866"><ele>30.0</ele><time>2026-04-18T09:12:59Z</time></trkpt><trkpt lat="15.405721625773253" lon="120.65934973925795"><ele>30.0</ele><time>2026-04-18T09:13:00Z</time></trkpt><trkpt lat="15.406011411014783" lon="120.65936207058111"><ele>30.0</ele><time>2026-04-18T09:13:01Z</time></trkpt><trkpt lat="15.406299557906957" lon="120.65937764789156"><ele>31.0</ele><time>2026-04-18T09:13:02Z</time></trkpt><trkpt lat="15.406589596791266" lon="120.65939443119393"><ele>32.0</ele><time>2026-04-18T09:13:03Z</time></trkpt><trkpt lat="15.406878550722281" lon="120.65941204025933"><ele>31.5</ele><time>2026-04-18T09:13:04Z</time></trkpt><trkpt lat="15.407167541521256" lon="120.65943133015752"><ele>31.0</ele><time>2026-04-18T09:13:05Z</time></trkpt><trkpt lat="15.407457017920573" lon="120.6594519073811"><ele>31.0</ele><time>2026-04-18T09:13:06Z</time></trkpt><trkpt lat="15.407745635254077" lon="120.65947317359104"><ele>31.0</ele><time>2026-04-18T09:13:07Z</time></trkpt><trkpt lat="15.40803343701309" lon="120.65949529924993"><ele>31.0</ele><time>2026-04-18T09:13:08Z</time></trkpt><trkpt lat="15.408320513245089" lon="120.6595191966192"><ele>31.0</ele><time>2026-04-18T09:13:09Z</time></trkpt><trkpt lat="15.408607571347021" lon="120.65954422121852"><ele>31.0</ele><time>2026-04-18T09:13:10Z</time></trkpt><trkpt lat="15.40889465385435" lon="120.65957030363975"><ele>31.0</ele><time>2026-04-18T09:13:11Z</time></trkpt><trkpt lat="15.409181063578405" lon="120.65959717807517"><ele>31.0</ele><time>2026-04-18T09:13:12Z</time></trkpt><trkpt lat="15.409467171003687" lon="120.65962457400225"><ele>31.0</ele><time>2026-04-18T09:13:13Z</time></trkpt><trkpt lat="15.409750903358452" lon="120.6596525188352"><ele>31.5</ele><time>2026-04-18T09:13:14Z</time></trkpt><trkpt lat="15.410033015954543" lon="120.65968138416501"><ele>32.0</ele><time>2026-04-18T09:13:15Z</time></trkpt><trkpt lat="15.410313955720575" lon="120.65971233350939"><ele>31.0</ele><time>2026-04-18T09:13:16Z</time></trkpt><trkpt lat="15.410594198902212" lon="120.65974356168338"><ele>30.0</ele><time>2026-04-18T09:13:17Z</time></trkpt><trkpt lat="15.41087339040045" lon="120.65977517303259"><ele>30.0</ele><time>2026-04-18T09:13:18Z</time></trkpt><trkpt lat="15.411151470285311" lon="120.6598070134257"><ele>30.0</ele><time>2026-04-18T09:13:19Z</time></trkpt><trkpt lat="15.411428524145062" lon="120.65984016119563"><ele>30.5</ele><time>2026-04-18T09:13:20Z</time></trkpt><trkpt lat="15.411703922059871" lon="120.65987369586227"><ele>31.0</ele><time>2026-04-18T09:13:21Z</time></trkpt><trkpt lat="15.411978032192025" lon="120.6599091793178"><ele>31.5</ele><time>2026-04-18T09:13:22Z</time></trkpt><trkpt lat="15.412250860946799" lon="120.6599455172726"><ele>32.0</ele><time>2026-04-18T09:13:23Z</time></trkpt><trkpt lat="15.412522210187305" lon="120.65998318497763"><ele>32.0</ele><time>2026-04-18T09:13:24Z</time></trkpt><trkpt lat="15.41279329951908" lon="120.6600225579861"><ele>32.0</ele><time>2026-04-18T09:13:25Z</time></trkpt><trkpt lat="15.413062669742498" lon="120.66006174861246"><ele>33.0</ele><time>2026-04-18T09:13:26Z</time></trkpt><trkpt lat="15.413331785133273" lon="120.66010207777519"><ele>34.0</ele><time>2026-04-18T09:13:27Z</time></trkpt><trkpt lat="15.413600524130779" lon="120.6601430842458"><ele>36.0</ele><time>2026-04-18T09:13:28Z</time></trkpt><trkpt lat="15.413867766275445" lon="120.66018720279794"><ele>38.0</ele><time>2026-04-18T09:13:29Z</time></trkpt><trkpt lat="15.414135262502937" lon="120.66023077183154"><ele>38.0</ele><time>2026-04-18T09:13:30Z</time></trkpt><trkpt lat="15.414401756674737" lon="120.66027667644553"><ele>38.0</ele><time>2026-04-18T09:13:31Z</time></trkpt><trkpt lat="15.414667586962466" lon="120.66032338993922"><ele>36.5</ele><time>2026-04-18T09:13:32Z</time></trkpt><trkpt lat="15.414932206822902" lon="120.66037095499647"><ele>35.0</ele><time>2026-04-18T09:13:33Z</time></trkpt><trkpt lat="15.415194808878427" lon="120.66041882027844"><ele>35.0</ele><time>2026-04-18T09:13:34Z</time></trkpt><trkpt lat="15.41545733102112" lon="120.66046641841562"><ele>35.0</ele><time>2026-04-18T09:13:35Z</time></trkpt><trkpt lat="15.415720286389934" lon="120.66051472093409"><ele>34.5</ele><time>2026-04-18T09:13:36Z</time></trkpt><trkpt lat="15.415982307268802" lon="120.6605626464799"><ele>34.0</ele><time>2026-04-18T09:13:37Z</time></trkpt><trkpt lat="15.416244358089454" lon="120.66061364411347"><ele>34.0</ele><time>2026-04-18T09:13:38Z</time></trkpt><trkpt lat="15.41650647917129" lon="120.66066767437448"><ele>34.0</ele><time>2026-04-18T09:13:39Z</time></trkpt><trkpt lat="15.416767851581891" lon="120.66072621557558"><ele>34.0</ele><time>2026-04-18T09:13:40Z</time></trkpt><trkpt lat="15.417031466633695" lon="120.66078556432765"><ele>34.0</ele><time>2026-04-18T09:13:41Z</time></trkpt><trkpt lat="15.417294509486767" lon="120.66084747531661"><ele>32.5</ele><time>2026-04-18T09:13:42Z</time></trkpt><trkpt lat="15.417558685691956" lon="120.66091058779924"><ele>31.0</ele><time>2026-04-18T09:13:43Z</time></trkpt><trkpt lat="15.417822341205971" lon="120.66097351482678"><ele>31.5</ele><time>2026-04-18T09:13:44Z</time></trkpt><trkpt lat="15.418085471812857" lon="120.66103641605592"><ele>32.0</ele><time>2026-04-18T09:13:45Z</time></trkpt><trkpt lat="15.41834699481175" lon="120.6610977963657"><ele>31.5</ele><time>2026-04-18T09:13:46Z</time></trkpt><trkpt lat="15.418608309180751" lon="120.66115970643865"><ele>31.0</ele><time>2026-04-18T09:13:47Z</time></trkpt><trkpt lat="15.418868726130876" lon="120.66122298561041"><ele>31.0</ele><time>2026-04-18T09:13:48Z</time></trkpt><trkpt lat="15.419127425090968" lon="120.66128727214809"><ele>31.0</ele><time>2026-04-18T09:13:49Z</time></trkpt><trkpt lat="15.419386077909163" lon="120.66135125841048"><ele>31.0</ele><time>2026-04-18T09:13:50Z</time></trkpt><trkpt lat="15.419642937788733" lon="120.66141523808088"><ele>31.0</ele><time>2026-04-18T09:13:51Z</time></trkpt><trkpt lat="15.419898149995415" lon="120.66147965412007"><ele>32.5</ele><time>2026-04-18T09:13:52Z</time></trkpt><trkpt lat="15.420152455508369" lon="120.66154340327896"><ele>34.0</ele><time>2026-04-18T09:13:53Z</time></trkpt><trkpt lat="15.42040654784994" lon="120.66160876149445"><ele>34.0</ele><time>2026-04-18T09:13:54Z</time></trkpt><trkpt lat="15.420660618083195" lon="120.66167765312944"><ele>34.0</ele><time>2026-04-18T09:13:55Z</time></trkpt><trkpt lat="15.420915258656926" lon="120.66174579224185"><ele>34.0</ele><time>2026-04-18T09:13:56Z</time></trkpt><trkpt lat="15.421170692041938" lon="120.66181613567117"><ele>34.0</ele><time>2026-04-18T09:13:57Z</time></trkpt><trkpt lat="15.421426372182225" lon="120.66188742302441"><ele>32.0</ele><time>2026-04-18T09:13:58Z</time></trkpt><trkpt lat="15.421684516880497" lon="120.66196098456852"><ele>30.0</ele><time>2026-04-18T09:13:59Z</time></trkpt><trkpt lat="15.421942805578363" lon="120.66203450845948"><ele>32.0</ele><time>2026-04-18T09:14:00Z</time></trkpt><trkpt lat="15.422200192834506" lon="120.66210901866499"><ele>34.0</ele><time>2026-04-18T09:14:01Z</time></trkpt><trkpt lat="15.422457276272082" lon="120.66218272217958"><ele>34.0</ele><time>2026-04-18T09:14:02Z</time></trkpt><trkpt lat="15.422714261757486" lon="120.66225715696139"><ele>34.0</ele><time>2026-04-18T09:14:03Z</time></trkpt><trkpt lat="15.422971202822522" lon="120.66233287780588"><ele>33.0</ele><time>2026-04-18T09:14:04Z</time></trkpt><trkpt lat="15.423227637112625" lon="120.66240997681085"><ele>32.0</ele><time>2026-04-18T09:14:05Z</time></trkpt><trkpt lat="15.423481695093034" lon="120.6624876861257"><ele>32.0</ele><time>2026-04-18T09:14:06Z</time></trkpt><trkpt lat="15.423736144224577" lon="120.66256813443543"><ele>32.0</ele><time>2026-04-18T09:14:07Z</time></trkpt><trkpt lat="15.423988865003095" lon="120.66265130463121"><ele>31.5</ele><time>2026-04-18T09:14:08Z</time></trkpt><trkpt lat="15.424241398703682" lon="120.66273520427335"><ele>31.0</ele><time>2026-04-18T09:14:09Z</time></trkpt><trkpt lat="15.424493863187127" lon="120.66282085610673"><ele>31.5</ele><time>2026-04-18T09:14:10Z</time></trkpt><trkpt lat="15.424746140052498" lon="120.66290603817194"><ele>32.0</ele><time>2026-04-18T09:14:11Z</time></trkpt><trkpt lat="15.424998476618892" lon="120.66299184114622"><ele>32.0</ele><time>2026-04-18T09:14:12Z</time></trkpt><trkpt lat="15.425250166519449" lon="120.66307621951856"><ele>32.0</ele><time>2026-04-18T09:14:13Z</time></trkpt><trkpt lat="15.425499635460527" lon="120.66315839645802"><ele>32.0</ele><time>2026-04-18T09:14:14Z</time></trkpt><trkpt lat="15.425747768360159" lon="120.66324070874376"><ele>32.0</ele><time>2026-04-18T09:14:15Z</time></trkpt><trkpt lat="15.42599619343455" lon="120.6633230761536"><ele>32.0</ele><time>2026-04-18T09:14:16Z</time></trkpt><trkpt lat="15.42624203334944" lon="120.66340493074458"><ele>32.0</ele><time>2026-04-18T09:14:17Z</time></trkpt><trkpt lat="15.42648548183263" lon="120.6634870116524"><ele>32.0</ele><time>2026-04-18T09:14:18Z</time></trkpt><trkpt lat="15.426727755482434" lon="120.66356972389073"><ele>32.0</ele><time>2026-04-18T09:14:19Z</time></trkpt><trkpt lat="15.426968682837982" lon="120.66365122211293"><ele>31.5</ele><time>2026-04-18T09:14:20Z</time></trkpt><trkpt lat="15.427209808967882" lon="120.66373330754786"><ele>31.0</ele><time>2026-04-18T09:14:21Z</time></trkpt><trkpt lat="15.427452796373103" lon="120.6638172659102"><ele>31.0</ele><time>2026-04-18T09:14:22Z</time></trkpt><trkpt lat="15.427696587610104" lon="120.66390196577073"><ele>31.0</ele><time>2026-04-18T09:14:23Z</time></trkpt><trkpt lat="15.427940768707098" lon="120.66398739641025"><ele>31.0</ele><time>2026-04-18T09:14:24Z</time></trkpt><trkpt lat="15.428185447245909" lon="120.66407264214246"><ele>31.0</ele><time>2026-04-18T09:14:25Z</time></trkpt><trkpt lat="15.428430502679742" lon="120.66415779140706"><ele>31.0</ele><time>2026-04-18T09:14:26Z</time></trkpt><trkpt lat="15.428676432919124" lon="120.66424229508442"><ele>31.0</ele><time>2026-04-18T09:14:27Z</time></trkpt><trkpt lat="15.428925036227731" lon="120.66432789519254"><ele>31.5</ele><time>2026-04-18T09:14:28Z</time></trkpt><trkpt lat="15.42917475134088" lon="120.66441380950167"><ele>32.0</ele><time>2026-04-18T09:14:29Z</time></trkpt><trkpt lat="15.429425363981563" lon="120.6645003159987"><ele>31.5</ele><time>2026-04-18T09:14:30Z</time></trkpt><trkpt lat="15.429676440539563" lon="120.66458865237675"><ele>31.0</ele><time>2026-04-18T09:14:31Z</time></trkpt><trkpt lat="15.429927190103214" lon="120.66467680392822"><ele>31.0</ele><time>2026-04-18T09:14:32Z</time></trkpt><trkpt lat="15.430177818132481" lon="120.66476316724352"><ele>31.0</ele><time>2026-04-18T09:14:33Z</time></trkpt><trkpt lat="15.430427139215885" lon="120.66484884938386"><ele>32.0</ele><time>2026-04-18T09:14:34Z</time></trkpt><trkpt lat="15.430676139831162" lon="120.66493495830672"><ele>33.0</ele><time>2026-04-18T09:14:35Z</time></trkpt><trkpt lat="15.430924510508396" lon="120.6650207303795"><ele>33.0</ele><time>2026-04-18T09:14:36Z</time></trkpt><trkpt lat="15.431173145535437" lon="120.66510872353703"><ele>33.0</ele><time>2026-04-18T09:14:37Z</time></trkpt><trkpt lat="15.431421187495571" lon="120.66519686691728"><ele>32.0</ele><time>2026-04-18T09:14:38Z</time></trkpt><trkpt lat="15.431667663758542" lon="120.66528368898369"><ele>31.0</ele><time>2026-04-18T09:14:39Z</time></trkpt><trkpt lat="15.431912221145554" lon="120.66536996207546"><ele>31.5</ele><time>2026-04-18T09:14:40Z</time></trkpt><trkpt lat="15.432153645899007" lon="120.66545517628855"><ele>32.0</ele><time>2026-04-18T09:14:41Z</time></trkpt><trkpt lat="15.432393686686712" lon="120.66553936387491"><ele>32.0</ele><time>2026-04-18T09:14:42Z</time></trkpt><trkpt lat="15.432631632417367" lon="120.66562156586104"><ele>32.0</ele><time>2026-04-18T09:14:43Z</time></trkpt><trkpt lat="15.432868438818533" lon="120.66570224895298"><ele>32.5</ele><time>2026-04-18T09:14:44Z</time></trkpt><trkpt lat="15.433104248263472" lon="120.66578265077705"><ele>33.0</ele><time>2026-04-18T09:14:45Z</time></trkpt><trkpt lat="15.433341148445825" lon="120.66586537110807"><ele>33.0</ele><time>2026-04-18T09:14:46Z</time></trkpt><trkpt lat="15.43357697778834" lon="120.66594861301269"><ele>33.0</ele><time>2026-04-18T09:14:47Z</time></trkpt><trkpt lat="15.433814868932268" lon="120.66602958801145"><ele>32.5</ele><time>2026-04-18T09:14:48Z</time></trkpt><trkpt lat="15.434054375825728" lon="120.66611066658176"><ele>32.0</ele><time>2026-04-18T09:14:49Z</time></trkpt><trkpt lat="15.43429199871981" lon="120.6661888187115"><ele>32.0</ele><time>2026-04-18T09:14:50Z</time></trkpt><trkpt lat="15.434532856762901" lon="120.66627401743682"><ele>32.0</ele><time>2026-04-18T09:14:51Z</time></trkpt><trkpt lat="15.434776078972147" lon="120.66636171643695"><ele>32.0</ele><time>2026-04-18T09:14:52Z</time></trkpt><trkpt lat="15.435020745050833" lon="120.66645146908608"><ele>32.0</ele><time>2026-04-18T09:14:53Z</time></trkpt><trkpt lat="15.43526660208642" lon="120.66654017269204"><ele>32.0</ele><time>2026-04-18T09:14:54Z</time></trkpt><trkpt lat="15.435513949838887" lon="120.66662905428059"><ele>32.0</ele><time>2026-04-18T09:14:55Z</time></trkpt><trkpt lat="15.435761864172976" lon="120.66671786977311"><ele>32.0</ele><time>2026-04-18T09:14:56Z</time></trkpt><trkpt lat="15.43600976913532" lon="120.66680650109379"><ele>32.0</ele><time>2026-04-18T09:14:57Z</time></trkpt><trkpt lat="15.43625819905684" lon="120.6668957693314"><ele>31.5</ele><time>2026-04-18T09:14:58Z</time></trkpt><trkpt lat="15.436502708839413" lon="120.6669819513882"><ele>31.0</ele><time>2026-04-18T09:14:59Z</time></trkpt><trkpt lat="15.436742965354147" lon="120.66706192850839"><ele>31.0</ele><time>2026-04-18T09:15:00Z</time></trkpt><trkpt lat="15.436976524324008" lon="120.66714318000662"><ele>31.0</ele><time>2026-04-18T09:15:01Z</time></trkpt><trkpt lat="15.437206848048596" lon="120.66722539520936"><ele>31.5</ele><time>2026-04-18T09:15:02Z</time></trkpt><trkpt lat="15.437433191894218" lon="120.66730338026073"><ele>32.0</ele><time>2026-04-18T09:15:03Z</time></trkpt><trkpt lat="15.437652658871059" lon="120.66737815506282"><ele>32.0</ele><time>2026-04-18T09:15:04Z</time></trkpt><trkpt lat="15.437860277614195" lon="120.66744862611574"><ele>32.0</ele><time>2026-04-18T09:15:05Z</time></trkpt><trkpt lat="15.43805832174319" lon="120.66751458966343"><ele>32.0</ele><time>2026-04-18T09:15:06Z</time></trkpt><trkpt lat="15.438245253725455" lon="120.66757705942769"><ele>31.666666666666664</ele><time>2026-04-18T09:15:07Z</time></trkpt><trkpt lat="15.438418515816622" lon="120.66763482200093"><ele>31.333333333333336</ele><time>2026-04-18T09:15:08Z</time></trkpt><trkpt lat="15.438579122346132" lon="120.66768915058815"><ele>31.0</ele><time>2026-04-18T09:15:09Z</time></trkpt><trkpt lat="15.438736341141562" lon="120.66774556576803"><ele>31.333333333333336</ele><time>2026-04-18T09:15:10Z</time></trkpt><trkpt lat="15.438890810047619" lon="120.66779846114477"><ele>31.666666666666664</ele><time>2026-04-18T09:15:11Z</time></trkpt><trkpt lat="15.439045757634931" lon="120.6678507746235"><ele>32.0</ele><time>2026-04-18T09:15:12Z</time></trkpt><trkpt lat="15.439201666799923" lon="120.66790597673867"><ele>32.0</ele><time>2026-04-18T09:15:13Z</time></trkpt><trkpt lat="15.43935649396311" lon="120.66796153030516"><ele>32.0</ele><time>2026-04-18T09:15:14Z</time></trkpt><trkpt lat="15.439513077128444" lon="120.66801900810118"><ele>32.0</ele><time>2026-04-18T09:15:15Z</time></trkpt><trkpt lat="15.439672252476726" lon="120.66807650503405"><ele>32.0</ele><time>2026-04-18T09:15:16Z</time></trkpt><trkpt lat="15.43983389943861" lon="120.66813565428092"><ele>32.0</ele><time>2026-04-18T09:15:17Z</time></trkpt><trkpt lat="15.440000151100799" lon="120.66819933824813"><ele>32.0</ele><time>2026-04-18T09:15:18Z</time></trkpt><trkpt lat="15.440175195284672" lon="120.66826473493492"><ele>32.0</ele><time>2026-04-18T09:15:19Z</time></trkpt><trkpt lat="15.440357400491518" lon="120.6683314399446"><ele>32.0</ele><time>2026-04-18T09:15:20Z</time></trkpt><trkpt lat="15.44054825254688" lon="120.66840187430188"><ele>32.0</ele><time>2026-04-18T09:15:21Z</time></trkpt><trkpt lat="15.44074369747146" lon="120.66847220976668"><ele>31.333333333333332</ele><time>2026-04-18T09:15:22Z</time></trkpt><trkpt lat="15.440945214939557" lon="120.66854415796942"><ele>30.666666666666664</ele><time>2026-04-18T09:15:23Z</time></trkpt><trkpt lat="15.441150795749953" lon="120.66861813377744"><ele>30.0</ele><time>2026-04-18T09:15:24Z</time></trkpt><trkpt lat="15.44136000359907" lon="120.66869358008623"><ele>29.5</ele><time>2026-04-18T09:15:25Z</time></trkpt><trkpt lat="15.44157262215933" lon="120.66876848481434"><ele>29.0</ele><time>2026-04-18T09:15:26Z</time></trkpt><trkpt lat="15.441786800203733" lon="120.66884407342354"><ele>29.0</ele><time>2026-04-18T09:15:27Z</time></trkpt><trkpt lat="15.442004027000738" lon="120.66891800646123"><ele>29.0</ele><time>2026-04-18T09:15:28Z</time></trkpt><trkpt lat="15.442224509618505" lon="120.66899106494398"><ele>28.5</ele><time>2026-04-18T09:15:29Z</time></trkpt><trkpt lat="15.442447467842294" lon="120.66906198842882"><ele>28.0</ele><time>2026-04-18T09:15:30Z</time></trkpt><trkpt lat="15.442673313674144" lon="120.66913676853088"><ele>28.0</ele><time>2026-04-18T09:15:31Z</time></trkpt><trkpt lat="15.442900907896027" lon="120.66921285812293"><ele>28.0</ele><time>2026-04-18T09:15:32Z</time></trkpt><trkpt lat="15.443129818012835" lon="120.66928894494866"><ele>29.5</ele><time>2026-04-18T09:15:33Z</time></trkpt><trkpt lat="15.443360979622248" lon="120.66936740662445"><ele>31.0</ele><time>2026-04-18T09:15:34Z</time></trkpt><trkpt lat="15.443590265890627" lon="120.66944446172865"><ele>30.5</ele><time>2026-04-18T09:15:35Z</time></trkpt><trkpt lat="15.44381944497105" lon="120.66952188617647"><ele>30.0</ele><time>2026-04-18T09:15:36Z</time></trkpt><trkpt lat="15.444047894231762" lon="120.66959935822737"><ele>30.0</ele><time>2026-04-18T09:15:37Z</time></trkpt><trkpt lat="15.444272174331749" lon="120.6696755895"><ele>30.0</ele><time>2026-04-18T09:15:38Z</time></trkpt><trkpt lat="15.444493795330352" lon="120.66974731987385"><ele>29.5</ele><time>2026-04-18T09:15:39Z</time></trkpt><trkpt lat="15.444709683145227" lon="120.66982463878779"><ele>29.0</ele><time>2026-04-18T09:15:40Z</time></trkpt><trkpt lat="15.444922328921862" lon="120.66990062426402"><ele>29.0</ele><time>2026-04-18T09:15:41Z</time></trkpt><trkpt lat="15.445131719290316" lon="120.6699744662585"><ele>29.0</ele><time>2026-04-18T09:15:42Z</time></trkpt><trkpt lat="15.44533767047278" lon="120.670047142894"><ele>29.0</ele><time>2026-04-18T09:15:43Z</time></trkpt><trkpt lat="15.445540107235507" lon="120.67011865887146"><ele>29.0</ele><time>2026-04-18T09:15:44Z</time></trkpt><trkpt lat="15.445740928192974" lon="120.67019033661298"><ele>29.0</ele><time>2026-04-18T09:15:45Z</time></trkpt><trkpt lat="15.445939703959125" lon="120.67026015187612"><ele>29.0</ele><time>2026-04-18T09:15:46Z</time></trkpt><trkpt lat="15.44613648197396" lon="120.67032876444881"><ele>29.333333333333332</ele><time>2026-04-18T09:15:47Z</time></trkpt><trkpt lat="15.446333067093802" lon="120.6703991396877"><ele>29.666666666666664</ele><time>2026-04-18T09:15:48Z</time></trkpt><trkpt lat="15.446529824350735" lon="120.67046937533257"><ele>30.0</ele><time>2026-04-18T09:15:49Z</time></trkpt><trkpt lat="15.446727182295842" lon="120.67053974931117"><ele>30.0</ele><time>2026-04-18T09:15:50Z</time></trkpt><trkpt lat="15.446925829412292" lon="120.67061015797354"><ele>30.0</ele><time>2026-04-18T09:15:51Z</time></trkpt><trkpt lat="15.447126152754112" lon="120.6706801202058"><ele>30.0</ele><time>2026-04-18T09:15:52Z</time></trkpt><trkpt lat="15.447329739988081" lon="120.67074744269833"><ele>30.0</ele><time>2026-04-18T09:15:53Z</time></trkpt><trkpt lat="15.447532910040678" lon="120.67081781732186"><ele>30.0</ele><time>2026-04-18T09:15:54Z</time></trkpt><trkpt lat="15.447734574064684" lon="120.67088773199163"><ele>30.0</ele><time>2026-04-18T09:15:55Z</time></trkpt><trkpt lat="15.447937511787641" lon="120.67095786003506"><ele>29.666666666666664</ele><time>2026-04-18T09:15:56Z</time></trkpt><trkpt lat="15.448140499263626" lon="120.67102919016912"><ele>29.333333333333332</ele><time>2026-04-18T09:15:57Z</time></trkpt><trkpt lat="15.448344672760902" lon="120.67110151177756"><ele>29.0</ele><time>2026-04-18T09:15:58Z</time></trkpt><trkpt lat="15.448549047309527" lon="120.67117391917749"><ele>29.0</ele><time>2026-04-18T09:15:59Z</time></trkpt><trkpt lat="15.448754475409674" lon="120.67124589874385"><ele>29.0</ele><time>2026-04-18T09:16:00Z</time></trkpt><trkpt lat="15.448960464574716" lon="120.6713181111356"><ele>29.0</ele><time>2026-04-18T09:16:01Z</time></trkpt><trkpt lat="15.449167281158035" lon="120.67139073979992"><ele>29.0</ele><time>2026-04-18T09:16:02Z</time></trkpt><trkpt lat="15.44937406710019" lon="120.67146237632568"><ele>29.0</ele><time>2026-04-18T09:16:03Z</time></trkpt><trkpt lat="15.449581067068674" lon="120.67153502408532"><ele>29.0</ele><time>2026-04-18T09:16:04Z</time></trkpt><trkpt lat="15.449787959262878" lon="120.6716078559415"><ele>29.0</ele><time>2026-04-18T09:16:05Z</time></trkpt><trkpt lat="15.449997423099116" lon="120.67167943322421"><ele>29.0</ele><time>2026-04-18T09:16:06Z</time></trkpt><trkpt lat="15.45020617183357" lon="120.67175048572955"><ele>29.0</ele><time>2026-04-18T09:16:07Z</time></trkpt><trkpt lat="15.450417434505693" lon="120.67182132271851"><ele>29.0</ele><time>2026-04-18T09:16:08Z</time></trkpt><trkpt lat="15.450628705461146" lon="120.67189410756242"><ele>29.0</ele><time>2026-04-18T09:16:09Z</time></trkpt><trkpt lat="15.450839867782275" lon="120.67196762436524"><ele>29.0</ele><time>2026-04-18T09:16:10Z</time></trkpt><trkpt lat="15.451051292583466" lon="120.67204189831777"><ele>29.333333333333332</ele><time>2026-04-18T09:16:11Z</time></trkpt><trkpt lat="15.451261260713888" lon="120.672117575201"><ele>29.666666666666664</ele><time>2026-04-18T09:16:12Z</time></trkpt><trkpt lat="15.451472812501887" lon="120.6721931629998"><ele>30.0</ele><time>2026-04-18T09:16:13Z</time></trkpt><trkpt lat="15.451685416812802" lon="120.6722681219239"><ele>30.0</ele><time>2026-04-18T09:16:14Z</time></trkpt><trkpt lat="15.451897550540636" lon="120.6723424433846"><ele>30.0</ele><time>2026-04-18T09:16:15Z</time></trkpt><trkpt lat="15.452110985862559" lon="120.67241648517121"><ele>30.0</ele><time>2026-04-18T09:16:16Z</time></trkpt><trkpt lat="15.452324503349308" lon="120.67248973611716"><ele>30.0</ele><time>2026-04-18T09:16:17Z</time></trkpt><trkpt lat="15.45253761698361" lon="120.67256359412355"><ele>30.0</ele><time>2026-04-18T09:16:18Z</time></trkpt><trkpt lat="15.452748433566118" lon="120.6726382076434"><ele>30.0</ele><time>2026-04-18T09:16:19Z</time></trkpt><trkpt lat="15.452955995534014" lon="120.6727100056983"><ele>29.333333333333336</ele><time>2026-04-18T09:16:20Z</time></trkpt><trkpt lat="15.453159359602472" lon="120.67277935152659"><ele>28.666666666666668</ele><time>2026-04-18T09:16:21Z</time></trkpt><trkpt lat="15.453359426538325" lon="120.67284775760002"><ele>28.0</ele><time>2026-04-18T09:16:22Z</time></trkpt><trkpt lat="15.45355608002702" lon="120.67291602568591"><ele>28.0</ele><time>2026-04-18T09:16:23Z</time></trkpt><trkpt lat="15.453751971345953" lon="120.67298385011055"><ele>28.0</ele><time>2026-04-18T09:16:24Z</time></trkpt><trkpt lat="15.453946552666157" lon="120.67305142815681"><ele>28.0</ele><time>2026-04-18T09:16:25Z</time></trkpt><trkpt lat="15.454140387792949" lon="120.67311747439707"><ele>28.0</ele><time>2026-04-18T09:16:26Z</time></trkpt><trkpt lat="15.454333808944776" lon="120.6731840953888"><ele>28.0</ele><time>2026-04-18T09:16:27Z</time></trkpt><trkpt lat="15.454526488693487" lon="120.67325138211203"><ele>28.0</ele><time>2026-04-18T09:16:28Z</time></trkpt><trkpt lat="15.45471908096011" lon="120.67331839045642"><ele>28.0</ele><time>2026-04-18T09:16:29Z</time></trkpt><trkpt lat="15.454909361520574" lon="120.67338407945677"><ele>28.0</ele><time>2026-04-18T09:16:30Z</time></trkpt><trkpt lat="15.455098486464689" lon="120.67345021810418"><ele>28.0</ele><time>2026-04-18T09:16:31Z</time></trkpt><trkpt lat="15.455286565454228" lon="120.6735166028572"><ele>28.666666666666668</ele><time>2026-04-18T09:16:32Z</time></trkpt><trkpt lat="15.455472894166038" lon="120.67358129989444"><ele>29.333333333333336</ele><time>2026-04-18T09:16:33Z</time></trkpt><trkpt lat="15.455659466310543" lon="120.67364672044886"><ele>30.0</ele><time>2026-04-18T09:16:34Z</time></trkpt><trkpt lat="15.455846700415465" lon="120.6737132853112"><ele>30.333333333333336</ele><time>2026-04-18T09:16:35Z</time></trkpt><trkpt lat="15.456034113069729" lon="120.67377830675214"><ele>30.666666666666668</ele><time>2026-04-18T09:16:36Z</time></trkpt><trkpt lat="15.45622191940898" lon="120.67384496255313"><ele>31.0</ele><time>2026-04-18T09:16:37Z</time></trkpt><trkpt lat="15.456411913887974" lon="120.67391176501309"><ele>30.333333333333336</ele><time>2026-04-18T09:16:38Z</time></trkpt><trkpt lat="15.456602099340829" lon="120.67398072780914"><ele>29.666666666666664</ele><time>2026-04-18T09:16:39Z</time></trkpt><trkpt lat="15.456793485936759" lon="120.67404841811778"><ele>29.0</ele><time>2026-04-18T09:16:40Z</time></trkpt><trkpt lat="15.456987001962663" lon="120.6741149076521"><ele>29.0</ele><time>2026-04-18T09:16:41Z</time></trkpt><trkpt lat="15.457182825119887" lon="120.67418254176579"><ele>29.0</ele><time>2026-04-18T09:16:42Z</time></trkpt><trkpt lat="15.457378866438013" lon="120.67425053814559"><ele>29.0</ele><time>2026-04-18T09:16:43Z</time></trkpt><trkpt lat="15.457576313482864" lon="120.67431784100239"><ele>29.0</ele><time>2026-04-18T09:16:44Z</time></trkpt><trkpt lat="15.457773530545225" lon="120.67438480320092"><ele>29.0</ele><time>2026-04-18T09:16:45Z</time></trkpt><trkpt lat="15.457968579196661" lon="120.67445033198301"><ele>29.0</ele><time>2026-04-18T09:16:46Z</time></trkpt><trkpt lat="15.458162953239189" lon="120.67451665680655"><ele>28.333333333333332</ele><time>2026-04-18T09:16:47Z</time></trkpt><trkpt lat="15.458356464709066" lon="120.67458135919965"><ele>27.666666666666664</ele><time>2026-04-18T09:16:48Z</time></trkpt><trkpt lat="15.458548810079108" lon="120.6746449594155"><ele>27.0</ele><time>2026-04-18T09:16:49Z</time></trkpt><trkpt lat="15.458740064635348" lon="120.67470774264487"><ele>26.666666666666664</ele><time>2026-04-18T09:16:50Z</time></trkpt><trkpt lat="15.458929139366745" lon="120.67476929416416"><ele>26.333333333333332</ele><time>2026-04-18T09:16:51Z</time></trkpt><trkpt lat="15.459115934292239" lon="120.67482964302101"><ele>26.0</ele><time>2026-04-18T09:16:52Z</time></trkpt><trkpt lat="15.459298664805761" lon="120.67488738915037"><ele>26.0</ele><time>2026-04-18T09:16:53Z</time></trkpt><trkpt lat="15.459480817851928" lon="120.67494280119269"><ele>26.0</ele><time>2026-04-18T09:16:54Z</time></trkpt><trkpt lat="15.459658996220822" lon="120.67500008724498"><ele>26.0</ele><time>2026-04-18T09:16:55Z</time></trkpt><trkpt lat="15.459834258681237" lon="120.67505472312652"><ele>25.333333333333332</ele><time>2026-04-18T09:16:56Z</time></trkpt><trkpt lat="15.460006396079443" lon="120.67510765491318"><ele>24.666666666666664</ele><time>2026-04-18T09:16:57Z</time></trkpt><trkpt lat="15.460175998908534" lon="120.67515980039244"><ele>24.0</ele><time>2026-04-18T09:16:58Z</time></trkpt><trkpt lat="15.460342155936393" lon="120.675208648613"><ele>24.333333333333336</ele><time>2026-04-18T09:16:59Z</time></trkpt><trkpt lat="15.460500682309718" lon="120.6752540662155"><ele>24.666666666666668</ele><time>2026-04-18T09:17:00Z</time></trkpt><trkpt lat="15.460648773888959" lon="120.67529886016901"><ele>25.0</ele><time>2026-04-18T09:17:01Z</time></trkpt><trkpt lat="15.460788319450959" lon="120.67534233916336"><ele>25.0</ele><time>2026-04-18T09:17:02Z</time></trkpt><trkpt lat="15.460918419156961" lon="120.67538173042314"><ele>25.0</ele><time>2026-04-18T09:17:03Z</time></trkpt><trkpt lat="15.461045003402681" lon="120.67541987801704"><ele>25.0</ele><time>2026-04-18T09:17:04Z</time></trkpt><trkpt lat="15.461168769461342" lon="120.67545738582024"><ele>25.0</ele><time>2026-04-18T09:17:05Z</time></trkpt><trkpt lat="15.461286306316609" lon="120.67549114097687"><ele>25.833333333333336</ele><time>2026-04-18T09:17:06Z</time></trkpt><trkpt lat="15.461392667934604" lon="120.6755190853372"><ele>26.666666666666668</ele><time>2026-04-18T09:17:07Z</time></trkpt><trkpt lat="15.461485824492343" lon="120.67554108395863"><ele>27.5</ele><time>2026-04-18T09:17:08Z</time></trkpt><trkpt lat="15.461569054713296" lon="120.67555980245336"><ele>28.333333333333336</ele><time>2026-04-18T09:17:09Z</time></trkpt><trkpt lat="15.461647398053877" lon="120.67557664956503"><ele>29.166666666666668</ele><time>2026-04-18T09:17:10Z</time></trkpt><trkpt lat="15.461722557004446" lon="120.67559248923094"><ele>30.0</ele><time>2026-04-18T09:17:11Z</time></trkpt><trkpt lat="15.461792832927472" lon="120.67560829294459"><ele>30.0</ele><time>2026-04-18T09:17:12Z</time></trkpt><trkpt lat="15.461856603486149" lon="120.67562417744892"><ele>30.0</ele><time>2026-04-18T09:17:13Z</time></trkpt><trkpt lat="15.461966698849345" lon="120.6756508476324"><ele>30.0</ele><time>2026-04-18T09:17:15Z</time></trkpt><trkpt lat="15.462067255036693" lon="120.67567828521332"><ele>30.0</ele><time>2026-04-18T09:17:17Z</time></trkpt><trkpt lat="15.462141569794433" lon="120.67569509960589"><ele>30.0</ele><time>2026-04-18T09:17:19Z</time></trkpt><trkpt lat="15.462225764133628" lon="120.67571393921669"><ele>30.0</ele><time>2026-04-18T09:17:22Z</time></trkpt><trkpt lat="15.46229357977851" lon="120.67573529948007"><ele>29.6</ele><time>2026-04-18T09:17:30Z</time></trkpt><trkpt lat="15.462373394235932" lon="120.67574480294122"><ele>29.2</ele><time>2026-04-18T09:17:39Z</time></trkpt><trkpt lat="15.462447299868009" lon="120.67575713081226"><ele>28.799999999999997</ele><time>2026-04-18T09:17:44Z</time></trkpt><trkpt lat="15.462601065199973" lon="120.67573216009711"><ele>28.4</ele><time>2026-04-18T09:19:15Z</time></trkpt><trkpt lat="15.462698451158506" lon="120.6757613385315"><ele>28.0</ele><time>2026-04-18T09:19:28Z</time></trkpt><trkpt lat="15.462767610826704" lon="120.67578659144252"><ele>27.0</ele><time>2026-04-18T09:20:24Z</time></trkpt><trkpt lat="15.463038412471988" lon="120.67585230566414"><ele>26.0</ele><time>2026-04-18T09:20:40Z</time></trkpt><trkpt lat="15.463123124112721" lon="120.67587510980178"><ele>25.0</ele><time>2026-04-18T09:20:41Z</time></trkpt><trkpt lat="15.463212460488212" lon="120.67590373806065"><ele>25.0</ele><time>2026-04-18T09:20:42Z</time></trkpt><trkpt lat="15.463310356678463" lon="120.67593225551856"><ele>25.0</ele><time>2026-04-18T09:20:43Z</time></trkpt><trkpt lat="15.463412190722414" lon="120.6759639695172"><ele>25.0</ele><time>2026-04-18T09:20:44Z</time></trkpt><trkpt lat="15.46351987530792" lon="120.67599460556885"><ele>25.0</ele><time>2026-04-18T09:20:45Z</time></trkpt><trkpt lat="15.463635746698992" lon="120.67602820538688"><ele>25.0</ele><time>2026-04-18T09:20:46Z</time></trkpt><trkpt lat="15.463750787919516" lon="120.67606186449962"><ele>25.5</ele><time>2026-04-18T09:20:47Z</time></trkpt><trkpt lat="15.46387152978928" lon="120.67609783278562"><ele>26.0</ele><time>2026-04-18T09:20:48Z</time></trkpt><trkpt lat="15.463996120167584" lon="120.6761312253402"><ele>26.5</ele><time>2026-04-18T09:20:49Z</time></trkpt><trkpt lat="15.46412415399101" lon="120.67616454331697"><ele>27.0</ele><time>2026-04-18T09:20:50Z</time></trkpt><trkpt lat="15.46425637230157" lon="120.6761990674815"><ele>27.5</ele><time>2026-04-18T09:20:51Z</time></trkpt><trkpt lat="15.464390576823169" lon="120.6762333530636"><ele>28.0</ele><time>2026-04-18T09:20:52Z</time></trkpt><trkpt lat="15.464529376970566" lon="120.6762688387167"><ele>28.5</ele><time>2026-04-18T09:20:53Z</time></trkpt><trkpt lat="15.46467266969842" lon="120.67630408588893"><ele>29.0</ele><time>2026-04-18T09:20:54Z</time></trkpt><trkpt lat="15.464820179510502" lon="120.67633881431037"><ele>29.0</ele><time>2026-04-18T09:20:55Z</time></trkpt><trkpt lat="15.464973924083617" lon="120.67637450846992"><ele>29.0</ele><time>2026-04-18T09:20:56Z</time></trkpt><trkpt lat="15.465128982311217" lon="120.67641048267099"><ele>29.0</ele><time>2026-04-18T09:20:57Z</time></trkpt><trkpt lat="15.465291819030645" lon="120.67644851945697"><ele>28.666666666666664</ele><time>2026-04-18T09:20:58Z</time></trkpt><trkpt lat="15.46545763368867" lon="120.67648782388089"><ele>28.333333333333336</ele><time>2026-04-18T09:20:59Z</time></trkpt><trkpt lat="15.465628281161646" lon="120.67652621740959"><ele>28.0</ele><time>2026-04-18T09:21:00Z</time></trkpt><trkpt lat="15.465803352603814" lon="120.67656298351493"><ele>28.0</ele><time>2026-04-18T09:21:01Z</time></trkpt><trkpt lat="15.465982063953325" lon="120.67660208079212"><ele>28.0</ele><time>2026-04-18T09:21:02Z</time></trkpt><trkpt lat="15.466164144530005" lon="120.67664214086115"><ele>28.0</ele><time>2026-04-18T09:21:03Z</time></trkpt><trkpt lat="15.466348933617294" lon="120.67668231838374"><ele>28.666666666666668</ele><time>2026-04-18T09:21:04Z</time></trkpt><trkpt lat="15.466532531008648" lon="120.67671986886327"><ele>29.333333333333336</ele><time>2026-04-18T09:21:05Z</time></trkpt><trkpt lat="15.466720270862982" lon="120.67675805301059"><ele>30.0</ele><time>2026-04-18T09:21:06Z</time></trkpt><trkpt lat="15.466909530454283" lon="120.67679678667201"><ele>30.0</ele><time>2026-04-18T09:21:07Z</time></trkpt><trkpt lat="15.467101490996791" lon="120.67683331907466"><ele>30.0</ele><time>2026-04-18T09:21:08Z</time></trkpt><trkpt lat="15.467295705116818" lon="120.67686971291178"><ele>30.0</ele><time>2026-04-18T09:21:09Z</time></trkpt><trkpt lat="15.46749310465511" lon="120.67690737576594"><ele>30.0</ele><time>2026-04-18T09:21:10Z</time></trkpt><trkpt lat="15.46769245148377" lon="120.67694395484709"><ele>30.0</ele><time>2026-04-18T09:21:11Z</time></trkpt><trkpt lat="15.467895755431408" lon="120.67698069491608"><ele>30.0</ele><time>2026-04-18T09:21:12Z</time></trkpt><trkpt lat="15.468101655653157" lon="120.67701861656342"><ele>31.333333333333336</ele><time>2026-04-18T09:21:13Z</time></trkpt><trkpt lat="15.468310493736436" lon="120.67705716453793"><ele>32.66666666666667</ele><time>2026-04-18T09:21:14Z</time></trkpt><trkpt lat="15.468521547967953" lon="120.67709626655439"><ele>34.0</ele><time>2026-04-18T09:21:15Z</time></trkpt><trkpt lat="15.468736224818226" lon="120.67713284680829"><ele>32.66666666666667</ele><time>2026-04-18T09:21:16Z</time></trkpt><trkpt lat="15.468953186911122" lon="120.67717063340403"><ele>31.333333333333336</ele><time>2026-04-18T09:21:17Z</time></trkpt><trkpt lat="15.469171366335678" lon="120.6772089844371"><ele>30.0</ele><time>2026-04-18T09:21:18Z</time></trkpt><trkpt lat="15.469392383148337" lon="120.67724509690144"><ele>29.0</ele><time>2026-04-18T09:21:19Z</time></trkpt><trkpt lat="15.469616223497901" lon="120.67728064885019"><ele>28.0</ele><time>2026-04-18T09:21:20Z</time></trkpt><trkpt lat="15.469842034226913" lon="120.67731856932818"><ele>28.0</ele><time>2026-04-18T09:21:21Z</time></trkpt><trkpt lat="15.470071904058116" lon="120.67735641247461"><ele>28.0</ele><time>2026-04-18T09:21:22Z</time></trkpt><trkpt lat="15.470304029509865" lon="120.67739190819027"><ele>28.0</ele><time>2026-04-18T09:21:23Z</time></trkpt><trkpt lat="15.470538573583324" lon="120.6774271363351"><ele>28.0</ele><time>2026-04-18T09:21:24Z</time></trkpt><trkpt lat="15.470775444547266" lon="120.67746186712967"><ele>28.0</ele><time>2026-04-18T09:21:25Z</time></trkpt><trkpt lat="15.47101369073791" lon="120.67749573987011"><ele>28.0</ele><time>2026-04-18T09:21:26Z</time></trkpt><trkpt lat="15.471254649939938" lon="120.6775289392674"><ele>28.5</ele><time>2026-04-18T09:21:27Z</time></trkpt><trkpt lat="15.471496053266538" lon="120.67756094552817"><ele>29.0</ele><time>2026-04-18T09:21:28Z</time></trkpt><trkpt lat="15.471739349500668" lon="120.67759258867281"><ele>29.0</ele><time>2026-04-18T09:21:29Z</time></trkpt><trkpt lat="15.471984319064719" lon="120.67762507083332"><ele>29.0</ele><time>2026-04-18T09:21:30Z</time></trkpt><trkpt lat="15.472230160252387" lon="120.67765672394637"><ele>28.5</ele><time>2026-04-18T09:21:31Z</time></trkpt><trkpt lat="15.472477537211887" lon="120.67768730845191"><ele>28.0</ele><time>2026-04-18T09:21:32Z</time></trkpt><trkpt lat="15.472724471636257" lon="120.67771614180955"><ele>28.0</ele><time>2026-04-18T09:21:33Z</time></trkpt><trkpt lat="15.472972091583383" lon="120.67774337298333"><ele>28.0</ele><time>2026-04-18T09:21:34Z</time></trkpt><trkpt lat="15.473219719491798" lon="120.67776861207538"><ele>27.5</ele><time>2026-04-18T09:21:35Z</time></trkpt><trkpt lat="15.47346802674221" lon="120.67779303719219"><ele>27.0</ele><time>2026-04-18T09:21:36Z</time></trkpt><trkpt lat="15.473715983493726" lon="120.67781804051586"><ele>27.0</ele><time>2026-04-18T09:21:37Z</time></trkpt><trkpt lat="15.473961992171837" lon="120.67784346937218"><ele>27.0</ele><time>2026-04-18T09:21:38Z</time></trkpt><trkpt lat="15.474206739001321" lon="120.67786585667776"><ele>27.0</ele><time>2026-04-18T09:21:39Z</time></trkpt><trkpt lat="15.474449405173727" lon="120.67788701188209"><ele>27.0</ele><time>2026-04-18T09:21:40Z</time></trkpt><trkpt lat="15.47468932111123" lon="120.67790685616772"><ele>28.0</ele><time>2026-04-18T09:21:41Z</time></trkpt><trkpt lat="15.474929757020451" lon="120.67792596554965"><ele>29.0</ele><time>2026-04-18T09:21:42Z</time></trkpt><trkpt lat="15.475168716040102" lon="120.67794478105725"><ele>29.0</ele><time>2026-04-18T09:21:43Z</time></trkpt><trkpt lat="15.475410119718756" lon="120.67796545437966"><ele>29.0</ele><time>2026-04-18T09:21:44Z</time></trkpt><trkpt lat="15.475652142375205" lon="120.67798337366669"><ele>30.0</ele><time>2026-04-18T09:21:45Z</time></trkpt><trkpt lat="15.475893998271575" lon="120.67800322942966"><ele>31.0</ele><time>2026-04-18T09:21:46Z</time></trkpt><trkpt lat="15.47613701782371" lon="120.67802655715728"><ele>31.0</ele><time>2026-04-18T09:21:47Z</time></trkpt><trkpt lat="15.476379298468734" lon="120.67804622461266"><ele>31.0</ele><time>2026-04-18T09:21:48Z</time></trkpt><trkpt lat="15.476620341519636" lon="120.67806545876563"><ele>31.0</ele><time>2026-04-18T09:21:49Z</time></trkpt><trkpt lat="15.47686417424429" lon="120.67808888964093"><ele>31.0</ele><time>2026-04-18T09:21:50Z</time></trkpt><trkpt lat="15.477111061208715" lon="120.67811241647841"><ele>31.0</ele><time>2026-04-18T09:21:51Z</time></trkpt><trkpt lat="15.477357001441359" lon="120.67813435328134"><ele>31.0</ele><time>2026-04-18T09:21:52Z</time></trkpt><trkpt lat="15.477604515368412" lon="120.6781555206639"><ele>31.0</ele><time>2026-04-18T09:21:53Z</time></trkpt><trkpt lat="15.477851488418317" lon="120.67817642866011"><ele>31.0</ele><time>2026-04-18T09:21:54Z</time></trkpt><trkpt lat="15.478098378277998" lon="120.67819664963595"><ele>30.0</ele><time>2026-04-18T09:21:55Z</time></trkpt><trkpt lat="15.478345258099832" lon="120.67821539138247"><ele>29.0</ele><time>2026-04-18T09:21:56Z</time></trkpt><trkpt lat="15.478594299335317" lon="120.67823279040444"><ele>29.5</ele><time>2026-04-18T09:21:57Z</time></trkpt><trkpt lat="15.478843565779858" lon="120.67824843547304"><ele>30.0</ele><time>2026-04-18T09:21:58Z</time></trkpt><trkpt lat="15.479092561402542" lon="120.6782634424495"><ele>30.0</ele><time>2026-04-18T09:21:59Z</time></trkpt><trkpt lat="15.479338987777238" lon="120.67827550316176"><ele>30.0</ele><time>2026-04-18T09:22:00Z</time></trkpt><trkpt lat="15.479582168592946" lon="120.67828586736618"><ele>30.0</ele><time>2026-04-18T09:22:01Z</time></trkpt><trkpt lat="15.47982494519325" lon="120.6782961328479"><ele>30.0</ele><time>2026-04-18T09:22:02Z</time></trkpt><trkpt lat="15.480065115955842" lon="120.678305845862"><ele>30.0</ele><time>2026-04-18T09:22:03Z</time></trkpt><trkpt lat="15.480304094350064" lon="120.6783132995772"><ele>30.0</ele><time>2026-04-18T09:22:04Z</time></trkpt><trkpt lat="15.480542878969091" lon="120.678319227896"><ele>29.5</ele><time>2026-04-18T09:22:05Z</time></trkpt><trkpt lat="15.480781519353876" lon="120.67832452183922"><ele>29.0</ele><time>2026-04-18T09:22:06Z</time></trkpt><trkpt lat="15.481022439939192" lon="120.67832839692389"><ele>29.0</ele><time>2026-04-18T09:22:07Z</time></trkpt><trkpt lat="15.481263794505058" lon="120.67833096943382"><ele>29.0</ele><time>2026-04-18T09:22:08Z</time></trkpt><trkpt lat="15.481506144492391" lon="120.67833201455244"><ele>27.5</ele><time>2026-04-18T09:22:09Z</time></trkpt><trkpt lat="15.481749355620597" lon="120.67833081550978"><ele>26.0</ele><time>2026-04-18T09:22:10Z</time></trkpt><trkpt lat="15.481993701948907" lon="120.67832808376482"><ele>27.5</ele><time>2026-04-18T09:22:11Z</time></trkpt><trkpt lat="15.482237211148998" lon="120.67832452894974"><ele>29.0</ele><time>2026-04-18T09:22:12Z</time></trkpt><trkpt lat="15.482481761510693" lon="120.67831873358915"><ele>29.0</ele><time>2026-04-18T09:22:13Z</time></trkpt><trkpt lat="15.482726958165452" lon="120.67831183069809"><ele>29.0</ele><time>2026-04-18T09:22:14Z</time></trkpt><trkpt lat="15.482972174132135" lon="120.6783032743332"><ele>29.5</ele><time>2026-04-18T09:22:15Z</time></trkpt><trkpt lat="15.483217928979903" lon="120.67829276221114"><ele>30.0</ele><time>2026-04-18T09:22:16Z</time></trkpt><trkpt lat="15.483464646893768" lon="120.67828300929055"><ele>30.0</ele><time>2026-04-18T09:22:17Z</time></trkpt><trkpt lat="15.48371212780621" lon="120.67827265809947"><ele>30.0</ele><time>2026-04-18T09:22:18Z</time></trkpt><trkpt lat="15.483957504168158" lon="120.67826078790841"><ele>30.5</ele><time>2026-04-18T09:22:19Z</time></trkpt><trkpt lat="15.484202435949213" lon="120.67824624156994"><ele>31.0</ele><time>2026-04-18T09:22:20Z</time></trkpt><trkpt lat="15.484448365137698" lon="120.67822952273642"><ele>32.0</ele><time>2026-04-18T09:22:21Z</time></trkpt><trkpt lat="15.484692848004487" lon="120.67821188181789"><ele>33.0</ele><time>2026-04-18T09:22:22Z</time></trkpt><trkpt lat="15.484936451246277" lon="120.67819299007779"><ele>33.0</ele><time>2026-04-18T09:22:23Z</time></trkpt><trkpt lat="15.485178040579578" lon="120.67817289117923"><ele>33.0</ele><time>2026-04-18T09:22:24Z</time></trkpt><trkpt lat="15.485418372054406" lon="120.67815135858179"><ele>32.0</ele><time>2026-04-18T09:22:25Z</time></trkpt><trkpt lat="15.485656954133065" lon="120.67812682732412"><ele>31.0</ele><time>2026-04-18T09:22:26Z</time></trkpt><trkpt lat="15.485894277930031" lon="120.67810255527716"><ele>31.0</ele><time>2026-04-18T09:22:27Z</time></trkpt><trkpt lat="15.486132417448006" lon="120.67807671914962"><ele>31.0</ele><time>2026-04-18T09:22:28Z</time></trkpt><trkpt lat="15.486370411109162" lon="120.67805095230257"><ele>30.5</ele><time>2026-04-18T09:22:29Z</time></trkpt><trkpt lat="15.486610330597495" lon="120.67802257680226"><ele>30.0</ele><time>2026-04-18T09:22:30Z</time></trkpt><trkpt lat="15.48685179631117" lon="120.67799237547977"><ele>29.5</ele><time>2026-04-18T09:22:31Z</time></trkpt><trkpt lat="15.48709453839045" lon="120.67796093006915"><ele>29.0</ele><time>2026-04-18T09:22:32Z</time></trkpt><trkpt lat="15.487338485822535" lon="120.6779275604492"><ele>29.0</ele><time>2026-04-18T09:22:33Z</time></trkpt><trkpt lat="15.487584554964963" lon="120.67789238615994"><ele>29.0</ele><time>2026-04-18T09:22:34Z</time></trkpt><trkpt lat="15.48783146552095" lon="120.67785723531688"><ele>28.0</ele><time>2026-04-18T09:22:35Z</time></trkpt><trkpt lat="15.48808075944789" lon="120.67782025407813"><ele>27.0</ele><time>2026-04-18T09:22:36Z</time></trkpt><trkpt lat="15.488330706608055" lon="120.67778283475086"><ele>28.0</ele><time>2026-04-18T09:22:37Z</time></trkpt><trkpt lat="15.488582796814452" lon="120.67774262247639"><ele>29.0</ele><time>2026-04-18T09:22:38Z</time></trkpt><trkpt lat="15.488835118716025" lon="120.67769839774924"><ele>29.0</ele><time>2026-04-18T09:22:39Z</time></trkpt><trkpt lat="15.489086766954602" lon="120.6776546927253"><ele>29.0</ele><time>2026-04-18T09:22:40Z</time></trkpt><trkpt lat="15.489339061621422" lon="120.6776098492271"><ele>29.0</ele><time>2026-04-18T09:22:41Z</time></trkpt><trkpt lat="15.489590478543485" lon="120.67756204198126"><ele>29.0</ele><time>2026-04-18T09:22:42Z</time></trkpt><trkpt lat="15.48984195695441" lon="120.6775130277546"><ele>28.5</ele><time>2026-04-18T09:22:43Z</time></trkpt><trkpt lat="15.490094456451809" lon="120.67746315730491"><ele>28.0</ele><time>2026-04-18T09:22:44Z</time></trkpt><trkpt lat="15.490347191740309" lon="120.67741034865193"><ele>28.0</ele><time>2026-04-18T09:22:45Z</time></trkpt><trkpt lat="15.490600448427905" lon="120.67735707012241"><ele>28.0</ele><time>2026-04-18T09:22:46Z</time></trkpt><trkpt lat="15.490854103526072" lon="120.67730240787853"><ele>28.0</ele><time>2026-04-18T09:22:47Z</time></trkpt><trkpt lat="15.491105301121587" lon="120.67724528725105"><ele>28.0</ele><time>2026-04-18T09:22:48Z</time></trkpt><trkpt lat="15.491358901051374" lon="120.6771865696025"><ele>27.5</ele><time>2026-04-18T09:22:49Z</time></trkpt><trkpt lat="15.4916121415441" lon="120.67712694849034"><ele>27.0</ele><time>2026-04-18T09:22:50Z</time></trkpt><trkpt lat="15.491866064687594" lon="120.67706561811836"><ele>28.5</ele><time>2026-04-18T09:22:51Z</time></trkpt><trkpt lat="15.492119346256258" lon="120.67700384265612"><ele>30.0</ele><time>2026-04-18T09:22:52Z</time></trkpt><trkpt lat="15.492372115566148" lon="120.6769395318932"><ele>29.5</ele><time>2026-04-18T09:22:53Z</time></trkpt><trkpt lat="15.49262485570848" lon="120.67687520412295"><ele>29.0</ele><time>2026-04-18T09:22:54Z</time></trkpt><trkpt lat="15.492876369850212" lon="120.6768087669165"><ele>29.0</ele><time>2026-04-18T09:22:55Z</time></trkpt><trkpt lat="15.493125812272119" lon="120.6767414622386"><ele>29.0</ele><time>2026-04-18T09:22:56Z</time></trkpt><trkpt lat="15.493374840916026" lon="120.67667308207724"><ele>29.0</ele><time>2026-04-18T09:22:57Z</time></trkpt><trkpt lat="15.493623377173959" lon="120.67660248213221"><ele>29.0</ele><time>2026-04-18T09:22:58Z</time></trkpt><trkpt lat="15.493873114987013" lon="120.67653195956747"><ele>28.5</ele><time>2026-04-18T09:22:59Z</time></trkpt><trkpt lat="15.494121593629414" lon="120.67646034514486"><ele>28.0</ele><time>2026-04-18T09:23:00Z</time></trkpt><trkpt lat="15.494369064277626" lon="120.67638654168256"><ele>28.5</ele><time>2026-04-18T09:23:01Z</time></trkpt><trkpt lat="15.494616798290926" lon="120.67631014791448"><ele>29.0</ele><time>2026-04-18T09:23:02Z</time></trkpt><trkpt lat="15.49486347915798" lon="120.6762320940224"><ele>29.0</ele><time>2026-04-18T09:23:03Z</time></trkpt><trkpt lat="15.495109316820272" lon="120.67615224723151"><ele>29.0</ele><time>2026-04-18T09:23:04Z</time></trkpt><trkpt lat="15.49535344343648" lon="120.67607063537874"><ele>31.0</ele><time>2026-04-18T09:23:05Z</time></trkpt><trkpt lat="15.495596547642897" lon="120.67598934395097"><ele>33.0</ele><time>2026-04-18T09:23:06Z</time></trkpt><trkpt lat="15.49583757474807" lon="120.67590857855949"><ele>33.0</ele><time>2026-04-18T09:23:07Z</time></trkpt><trkpt lat="15.496077491963103" lon="120.67582371976721"><ele>33.0</ele><time>2026-04-18T09:23:08Z</time></trkpt><trkpt lat="15.496315136781286" lon="120.67573807457792"><ele>32.0</ele><time>2026-04-18T09:23:09Z</time></trkpt><trkpt lat="15.496553204533098" lon="120.67565236712655"><ele>31.0</ele><time>2026-04-18T09:23:10Z</time></trkpt><trkpt lat="15.4967890858839" lon="120.67556653058972"><ele>31.0</ele><time>2026-04-18T09:23:11Z</time></trkpt><trkpt lat="15.497023731274526" lon="120.67547829722953"><ele>31.0</ele><time>2026-04-18T09:23:12Z</time></trkpt><trkpt lat="15.497255646918395" lon="120.67538953146915"><ele>30.5</ele><time>2026-04-18T09:23:13Z</time></trkpt><trkpt lat="15.497488586524021" lon="120.67529984593106"><ele>30.0</ele><time>2026-04-18T09:23:14Z</time></trkpt><trkpt lat="15.497719315402463" lon="120.6752084319033"><ele>31.0</ele><time>2026-04-18T09:23:15Z</time></trkpt><trkpt lat="15.497949271727471" lon="120.67511652506342"><ele>32.0</ele><time>2026-04-18T09:23:16Z</time></trkpt><trkpt lat="15.498180941857445" lon="120.67502387187221"><ele>32.0</ele><time>2026-04-18T09:23:17Z</time></trkpt><trkpt lat="15.49841138361142" lon="120.67492787541138"><ele>32.0</ele><time>2026-04-18T09:23:18Z</time></trkpt><trkpt lat="15.498641977277371" lon="120.67483059808406"><ele>31.0</ele><time>2026-04-18T09:23:19Z</time></trkpt><trkpt lat="15.498872311577262" lon="120.67473123673747"><ele>30.0</ele><time>2026-04-18T09:23:20Z</time></trkpt><trkpt lat="15.499104015420729" lon="120.67463129281381"><ele>30.0</ele><time>2026-04-18T09:23:21Z</time></trkpt><trkpt lat="15.499336564685844" lon="120.67453023594942"><ele>30.0</ele><time>2026-04-18T09:23:22Z</time></trkpt><trkpt lat="15.499567485082798" lon="120.67442643582156"><ele>29.0</ele><time>2026-04-18T09:23:23Z</time></trkpt><trkpt lat="15.499800691588389" lon="120.67432106418636"><ele>28.0</ele><time>2026-04-18T09:23:24Z</time></trkpt><trkpt lat="15.500032992720318" lon="120.67421376807593"><ele>28.0</ele><time>2026-04-18T09:23:25Z</time></trkpt><trkpt lat="15.500264072475929" lon="120.6741033415036"><ele>28.0</ele><time>2026-04-18T09:23:26Z</time></trkpt><trkpt lat="15.500495103539988" lon="120.67399265807954"><ele>28.5</ele><time>2026-04-18T09:23:27Z</time></trkpt><trkpt lat="15.50072560511515" lon="120.67388020759793"><ele>29.0</ele><time>2026-04-18T09:23:28Z</time></trkpt><trkpt lat="15.500955311668625" lon="120.67376729060312"><ele>29.0</ele><time>2026-04-18T09:23:29Z</time></trkpt><trkpt lat="15.501185003343835" lon="120.67365352315704"><ele>29.0</ele><time>2026-04-18T09:23:30Z</time></trkpt><trkpt lat="15.501414212755432" lon="120.67353855723587"><ele>29.5</ele><time>2026-04-18T09:23:31Z</time></trkpt><trkpt lat="15.501641076218108" lon="120.67342278648175"><ele>30.0</ele><time>2026-04-18T09:23:32Z</time></trkpt><trkpt lat="15.501867000854498" lon="120.67330637382074"><ele>29.5</ele><time>2026-04-18T09:23:33Z</time></trkpt><trkpt lat="15.50209005088075" lon="120.67318876803763"><ele>29.0</ele><time>2026-04-18T09:23:34Z</time></trkpt><trkpt lat="15.502311167969754" lon="120.67306917831067"><ele>29.0</ele><time>2026-04-18T09:23:35Z</time></trkpt><trkpt lat="15.502530607497658" lon="120.67295115330393"><ele>29.0</ele><time>2026-04-18T09:23:36Z</time></trkpt><trkpt lat="15.502748885634443" lon="120.67283112585817"><ele>30.0</ele><time>2026-04-18T09:23:37Z</time></trkpt><trkpt lat="15.502968047955916" lon="120.67271115498457"><ele>31.0</ele><time>2026-04-18T09:23:38Z</time></trkpt><trkpt lat="15.503186224881729" lon="120.6725877338631"><ele>31.0</ele><time>2026-04-18T09:23:39Z</time></trkpt><trkpt lat="15.503406002576842" lon="120.67246525953514"><ele>31.0</ele><time>2026-04-18T09:23:40Z</time></trkpt><trkpt lat="15.503626675320609" lon="120.67234013618366"><ele>31.0</ele><time>2026-04-18T09:23:41Z</time></trkpt><trkpt lat="15.503847436964154" lon="120.67221232599347"><ele>31.0</ele><time>2026-04-18T09:23:42Z</time></trkpt><trkpt lat="15.50406732651121" lon="120.67208175118512"><ele>31.0</ele><time>2026-04-18T09:23:43Z</time></trkpt><trkpt lat="15.50428781897752" lon="120.67194891964239"><ele>31.0</ele><time>2026-04-18T09:23:44Z</time></trkpt><trkpt lat="15.504509621854883" lon="120.67181428283051"><ele>30.5</ele><time>2026-04-18T09:23:45Z</time></trkpt><trkpt lat="15.504731921183614" lon="120.67167847959499"><ele>30.0</ele><time>2026-04-18T09:23:46Z</time></trkpt><trkpt lat="15.504955587329894" lon="120.67154094924497"><ele>30.0</ele><time>2026-04-18T09:23:47Z</time></trkpt><trkpt lat="15.505176477488552" lon="120.67140095560907"><ele>30.0</ele><time>2026-04-18T09:23:48Z</time></trkpt><trkpt lat="15.50539720614358" lon="120.67125895174016"><ele>30.0</ele><time>2026-04-18T09:23:49Z</time></trkpt><trkpt lat="15.505617122575375" lon="120.67111632306597"><ele>30.0</ele><time>2026-04-18T09:23:50Z</time></trkpt><trkpt lat="15.505838104894497" lon="120.67097300513912"><ele>30.0</ele><time>2026-04-18T09:23:51Z</time></trkpt><trkpt lat="15.50605833004953" lon="120.6708282233568"><ele>30.0</ele><time>2026-04-18T09:23:52Z</time></trkpt><trkpt lat="15.50627592970763" lon="120.67068099157714"><ele>29.5</ele><time>2026-04-18T09:23:53Z</time></trkpt><trkpt lat="15.506492685920072" lon="120.67053246378718"><ele>29.0</ele><time>2026-04-18T09:23:54Z</time></trkpt><trkpt lat="15.506708740738457" lon="120.6703827843383"><ele>29.5</ele><time>2026-04-18T09:23:55Z</time></trkpt><trkpt lat="15.506924994511559" lon="120.67023336834035"><ele>30.0</ele><time>2026-04-18T09:23:56Z</time></trkpt><trkpt lat="15.507138451376896" lon="120.67008262230488"><ele>30.5</ele><time>2026-04-18T09:23:57Z</time></trkpt><trkpt lat="15.507349887146258" lon="120.66993097207104"><ele>31.0</ele><time>2026-04-18T09:23:58Z</time></trkpt><trkpt lat="15.507561556072693" lon="120.66978062648386"><ele>31.0</ele><time>2026-04-18T09:23:59Z</time></trkpt><trkpt lat="15.507772006716648" lon="120.6696280919188"><ele>31.0</ele><time>2026-04-18T09:24:00Z</time></trkpt><trkpt lat="15.507980865152918" lon="120.66947576204656"><ele>31.0</ele><time>2026-04-18T09:24:01Z</time></trkpt><trkpt lat="15.508190346656697" lon="120.66932434899793"><ele>31.0</ele><time>2026-04-18T09:24:02Z</time></trkpt><trkpt lat="15.508399509286889" lon="120.6691725612796"><ele>31.0</ele><time>2026-04-18T09:24:03Z</time></trkpt><trkpt lat="15.508608431569806" lon="120.66902110876904"><ele>31.0</ele><time>2026-04-18T09:24:04Z</time></trkpt><trkpt lat="15.508817250250587" lon="120.6688693968669"><ele>32.0</ele><time>2026-04-18T09:24:05Z</time></trkpt><trkpt lat="15.509024305923097" lon="120.66872044613237"><ele>33.0</ele><time>2026-04-18T09:24:06Z</time></trkpt><trkpt lat="15.509227784024901" lon="120.66857387749502"><ele>33.0</ele><time>2026-04-18T09:24:07Z</time></trkpt><trkpt lat="15.509426425865767" lon="120.66842774194257"><ele>33.0</ele><time>2026-04-18T09:24:08Z</time></trkpt><trkpt lat="15.509617802824641" lon="120.6682797914398"><ele>33.5</ele><time>2026-04-18T09:24:09Z</time></trkpt><trkpt lat="15.509811068597786" lon="120.66814207602584"><ele>34.0</ele><time>2026-04-18T09:24:10Z</time></trkpt><trkpt lat="15.50999861889819" lon="120.66800771716959"><ele>34.0</ele><time>2026-04-18T09:24:11Z</time></trkpt><trkpt lat="15.510181259580337" lon="120.66787578370503"><ele>34.0</ele><time>2026-04-18T09:24:12Z</time></trkpt><trkpt lat="15.51035943012215" lon="120.66774669877626"><ele>34.0</ele><time>2026-04-18T09:24:13Z</time></trkpt><trkpt lat="15.510534254077369" lon="120.66761952632041"><ele>34.0</ele><time>2026-04-18T09:24:14Z</time></trkpt><trkpt lat="15.510706540669272" lon="120.66749511314627"><ele>34.0</ele><time>2026-04-18T09:24:15Z</time></trkpt><trkpt lat="15.510874373956538" lon="120.66737352902173"><ele>34.0</ele><time>2026-04-18T09:24:16Z</time></trkpt><trkpt lat="15.511036487328344" lon="120.66725763445808"><ele>34.0</ele><time>2026-04-18T09:24:17Z</time></trkpt><trkpt lat="15.511191505298607" lon="120.66714755794364"><ele>34.0</ele><time>2026-04-18T09:24:18Z</time></trkpt><trkpt lat="15.511339335311122" lon="120.66704564905072"><ele>34.0</ele><time>2026-04-18T09:24:19Z</time></trkpt><trkpt lat="15.511479972770129" lon="120.66695246777064"><ele>33.25</ele><time>2026-04-18T09:24:20Z</time></trkpt><trkpt lat="15.511613815146534" lon="120.66686696283057"><ele>32.5</ele><time>2026-04-18T09:24:21Z</time></trkpt><trkpt lat="15.51174037488547" lon="120.66679048462308"><ele>31.75</ele><time>2026-04-18T09:24:22Z</time></trkpt><trkpt lat="15.511855907280518" lon="120.66672111934636"><ele>31.0</ele><time>2026-04-18T09:24:23Z</time></trkpt><trkpt lat="15.511960867311576" lon="120.66666063724706"><ele>31.0</ele><time>2026-04-18T09:24:24Z</time></trkpt><trkpt lat="15.51205925967261" lon="120.66661109614827"><ele>31.0</ele><time>2026-04-18T09:24:25Z</time></trkpt><trkpt lat="15.512149471122612" lon="120.66656787813164"><ele>31.0</ele><time>2026-04-18T09:24:26Z</time></trkpt><trkpt lat="15.512227540309832" lon="120.66652833104344"><ele>31.0</ele><time>2026-04-18T09:24:27Z</time></trkpt><trkpt lat="15.512296818292526" lon="120.66648910941176"><ele>31.0</ele><time>2026-04-18T09:24:28Z</time></trkpt><trkpt lat="15.512359919589752" lon="120.66644649839785"><ele>31.333333333333336</ele><time>2026-04-18T09:24:29Z</time></trkpt><trkpt lat="15.51242038155678" lon="120.66640483741186"><ele>31.666666666666668</ele><time>2026-04-18T09:24:30Z</time></trkpt><trkpt lat="15.512478585127136" lon="120.66636523859204"><ele>32.0</ele><time>2026-04-18T09:24:31Z</time></trkpt><trkpt lat="15.512534265673711" lon="120.66632683598101"><ele>32.333333333333336</ele><time>2026-04-18T09:24:32Z</time></trkpt><trkpt lat="15.512588275377425" lon="120.66629102250158"><ele>32.666666666666664</ele><time>2026-04-18T09:24:33Z</time></trkpt><trkpt lat="15.512686609057491" lon="120.66622079770401"><ele>33.0</ele><time>2026-04-18T09:24:35Z</time></trkpt><trkpt lat="15.512771781511432" lon="120.66615749799753"><ele>32.8</ele><time>2026-04-18T09:24:37Z</time></trkpt><trkpt lat="15.512845210835136" lon="120.66610547661935"><ele>32.599999999999994</ele><time>2026-04-18T09:24:39Z</time></trkpt><trkpt lat="15.512911060928571" lon="120.66605908807543"><ele>32.400000000000006</ele><time>2026-04-18T09:24:41Z</time></trkpt><trkpt lat="15.512986206179638" lon="120.6660083358771"><ele>32.2</ele><time>2026-04-18T09:24:43Z</time></trkpt><trkpt lat="15.513081487330249" lon="120.66594227974417"><ele>32.0</ele><time>2026-04-18T09:24:45Z</time></trkpt><trkpt lat="15.513141314673408" lon="120.665891314942"><ele>32.4</ele><time>2026-04-18T09:24:46Z</time></trkpt><trkpt lat="15.51320860303083" lon="120.66583876147868"><ele>32.800000000000004</ele><time>2026-04-18T09:24:47Z</time></trkpt><trkpt lat="15.513284523798236" lon="120.66578390789624"><ele>33.2</ele><time>2026-04-18T09:24:48Z</time></trkpt><trkpt lat="15.513364810756281" lon="120.66572399511575"><ele>33.6</ele><time>2026-04-18T09:24:49Z</time></trkpt><trkpt lat="15.513447926519506" lon="120.66566164088296"><ele>34.0</ele><time>2026-04-18T09:24:50Z</time></trkpt><trkpt lat="15.513535059744285" lon="120.66559252777053"><ele>34.0</ele><time>2026-04-18T09:24:51Z</time></trkpt><trkpt lat="15.513623540450379" lon="120.66551687938198"><ele>34.0</ele><time>2026-04-18T09:24:52Z</time></trkpt><trkpt lat="15.513714461580758" lon="120.66543608614245"><ele>34.0</ele><time>2026-04-18T09:24:53Z</time></trkpt><trkpt lat="15.513808932518371" lon="120.66534828136294"><ele>34.0</ele><time>2026-04-18T09:24:54Z</time></trkpt><trkpt lat="15.513904898439101" lon="120.66525672245879"><ele>33.75</ele><time>2026-04-18T09:24:55Z</time></trkpt><trkpt lat="15.514005026955966" lon="120.66516040870033"><ele>33.5</ele><time>2026-04-18T09:24:56Z</time></trkpt><trkpt lat="15.514109673249946" lon="120.66506515057891"><ele>33.25</ele><time>2026-04-18T09:24:57Z</time></trkpt><trkpt lat="15.514221637038872" lon="120.66496901967379"><ele>33.0</ele><time>2026-04-18T09:24:58Z</time></trkpt><trkpt lat="15.51433790184949" lon="120.66487707841375"><ele>33.0</ele><time>2026-04-18T09:24:59Z</time></trkpt><trkpt lat="15.514459889897404" lon="120.66478498493316"><ele>33.0</ele><time>2026-04-18T09:25:00Z</time></trkpt><trkpt lat="15.51458607988877" lon="120.66469086649897"><ele>33.0</ele><time>2026-04-18T09:25:01Z</time></trkpt><trkpt lat="15.514715286147203" lon="120.66459532850733"><ele>33.0</ele><time>2026-04-18T09:25:02Z</time></trkpt><trkpt lat="15.514849672114137" lon="120.66449580165524"><ele>33.0</ele><time>2026-04-18T09:25:03Z</time></trkpt><trkpt lat="15.51498444486892" lon="120.66439289220446"><ele>33.0</ele><time>2026-04-18T09:25:04Z</time></trkpt><trkpt lat="15.515123407243115" lon="120.66428754530371"><ele>32.666666666666664</ele><time>2026-04-18T09:25:05Z</time></trkpt><trkpt lat="15.515268778592283" lon="120.66418092173903"><ele>32.33333333333333</ele><time>2026-04-18T09:25:06Z</time></trkpt><trkpt lat="15.515416387386637" lon="120.66407483911567"><ele>32.0</ele><time>2026-04-18T09:25:07Z</time></trkpt><trkpt lat="15.515563862738773" lon="120.6639689826691"><ele>32.0</ele><time>2026-04-18T09:25:08Z</time></trkpt><trkpt lat="15.515715363912825" lon="120.66386057588542"><ele>32.0</ele><time>2026-04-18T09:25:09Z</time></trkpt><trkpt lat="15.515867941793378" lon="120.66375005773129"><ele>32.0</ele><time>2026-04-18T09:25:10Z</time></trkpt><trkpt lat="15.516024589659246" lon="120.66363771739404"><ele>32.0</ele><time>2026-04-18T09:25:11Z</time></trkpt><trkpt lat="15.516183149683927" lon="120.66352291832247"><ele>32.0</ele><time>2026-04-18T09:25:12Z</time></trkpt><trkpt lat="15.516343549736503" lon="120.66340891200697"><ele>32.0</ele><time>2026-04-18T09:25:13Z</time></trkpt><trkpt lat="15.516504839001307" lon="120.66329284483386"><ele>32.0</ele><time>2026-04-18T09:25:14Z</time></trkpt><trkpt lat="15.516666991374647" lon="120.66317563679415"><ele>32.0</ele><time>2026-04-18T09:25:15Z</time></trkpt><trkpt lat="15.516833218734313" lon="120.66305547585878"><ele>32.0</ele><time>2026-04-18T09:25:16Z</time></trkpt><trkpt lat="15.516999632978324" lon="120.66293511189082"><ele>31.666666666666664</ele><time>2026-04-18T09:25:17Z</time></trkpt><trkpt lat="15.517162814667783" lon="120.6628155957578"><ele>31.333333333333336</ele><time>2026-04-18T09:25:18Z</time></trkpt><trkpt lat="15.517327691574598" lon="120.66269545530439"><ele>31.0</ele><time>2026-04-18T09:25:19Z</time></trkpt><trkpt lat="15.517493217197547" lon="120.66257411458348"><ele>32.0</ele><time>2026-04-18T09:25:20Z</time></trkpt><trkpt lat="15.51766167210267" lon="120.66245099642875"><ele>33.0</ele><time>2026-04-18T09:25:21Z</time></trkpt><trkpt lat="15.517832419100893" lon="120.6623259043397"><ele>34.0</ele><time>2026-04-18T09:25:22Z</time></trkpt><trkpt lat="15.518002514877157" lon="120.66220276504679"><ele>34.0</ele><time>2026-04-18T09:25:23Z</time></trkpt><trkpt lat="15.518176329617262" lon="120.66207839586491"><ele>34.0</ele><time>2026-04-18T09:25:24Z</time></trkpt><trkpt lat="15.518351499578653" lon="120.66195520956339"><ele>34.0</ele><time>2026-04-18T09:25:25Z</time></trkpt><trkpt lat="15.518530330075539" lon="120.66183405338475"><ele>34.333333333333336</ele><time>2026-04-18T09:25:26Z</time></trkpt><trkpt lat="15.518709258816745" lon="120.66171200737874"><ele>34.666666666666664</ele><time>2026-04-18T09:25:27Z</time></trkpt><trkpt lat="15.518889351924086" lon="120.66158947630234"><ele>35.0</ele><time>2026-04-18T09:25:28Z</time></trkpt><trkpt lat="15.519064005272208" lon="120.66146674067026"><ele>35.0</ele><time>2026-04-18T09:25:29Z</time></trkpt><trkpt lat="15.519238672179865" lon="120.66134212516805"><ele>35.0</ele><time>2026-04-18T09:25:30Z</time></trkpt><trkpt lat="15.519409779619735" lon="120.66121838976593"><ele>35.0</ele><time>2026-04-18T09:25:31Z</time></trkpt><trkpt lat="15.519582970069864" lon="120.6610960253027"><ele>35.0</ele><time>2026-04-18T09:25:32Z</time></trkpt><trkpt lat="15.519757679446911" lon="120.66097535892108"><ele>35.0</ele><time>2026-04-18T09:25:33Z</time></trkpt><trkpt lat="15.519933156839691" lon="120.6608529998112"><ele>35.0</ele><time>2026-04-18T09:25:34Z</time></trkpt><trkpt lat="15.52010962932019" lon="120.66073101344692"><ele>35.0</ele><time>2026-04-18T09:25:35Z</time></trkpt><trkpt lat="15.520287820817515" lon="120.66060853435447"><ele>35.0</ele><time>2026-04-18T09:25:36Z</time></trkpt><trkpt lat="15.52046623969737" lon="120.66048546282728"><ele>35.0</ele><time>2026-04-18T09:25:37Z</time></trkpt><trkpt lat="15.520648494827856" lon="120.66036450681644"><ele>34.0</ele><time>2026-04-18T09:25:38Z</time></trkpt><trkpt lat="15.52082852292771" lon="120.66024000766735"><ele>33.0</ele><time>2026-04-18T09:25:39Z</time></trkpt><trkpt lat="15.521010495326419" lon="120.66011738472835"><ele>32.0</ele><time>2026-04-18T09:25:40Z</time></trkpt><trkpt lat="15.52119473665999" lon="120.65999455290269"><ele>31.666666666666664</ele><time>2026-04-18T09:25:41Z</time></trkpt><trkpt lat="15.521381459944816" lon="120.65987286220464"><ele>31.333333333333336</ele><time>2026-04-18T09:25:42Z</time></trkpt><trkpt lat="15.521567322489373" lon="120.6597515406037"><ele>31.0</ele><time>2026-04-18T09:25:43Z</time></trkpt><trkpt lat="15.521756963390441" lon="120.6596280002115"><ele>31.0</ele><time>2026-04-18T09:25:44Z</time></trkpt><trkpt lat="15.521945106394206" lon="120.65950441309663"><ele>31.0</ele><time>2026-04-18T09:25:45Z</time></trkpt><trkpt lat="15.522136672834327" lon="120.65938204324135"><ele>31.0</ele><time>2026-04-18T09:25:46Z</time></trkpt><trkpt lat="15.52232849040608" lon="120.65925957059648"><ele>32.0</ele><time>2026-04-18T09:25:47Z</time></trkpt><trkpt lat="15.522522378387208" lon="120.65913805929931"><ele>33.0</ele><time>2026-04-18T09:25:48Z</time></trkpt><trkpt lat="15.522717716513412" lon="120.65901589843367"><ele>33.0</ele><time>2026-04-18T09:25:49Z</time></trkpt><trkpt lat="15.522912957210053" lon="120.65889525634778"><ele>33.0</ele><time>2026-04-18T09:25:50Z</time></trkpt><trkpt lat="15.523108877348971" lon="120.65877683313347"><ele>33.0</ele><time>2026-04-18T09:25:51Z</time></trkpt><trkpt lat="15.52330717397937" lon="120.65865666783982"><ele>33.0</ele><time>2026-04-18T09:25:52Z</time></trkpt><trkpt lat="15.523504788668719" lon="120.65853947100176"><ele>33.0</ele><time>2026-04-18T09:25:53Z</time></trkpt><trkpt lat="15.523704319759922" lon="120.65842289572637"><ele>33.0</ele><time>2026-04-18T09:25:54Z</time></trkpt><trkpt lat="15.52390351758571" lon="120.65830701344677"><ele>33.0</ele><time>2026-04-18T09:25:55Z</time></trkpt><trkpt lat="15.524102556016361" lon="120.65819209323419"><ele>33.0</ele><time>2026-04-18T09:25:56Z</time></trkpt><trkpt lat="15.524302653430627" lon="120.65807671152568"><ele>33.0</ele><time>2026-04-18T09:25:57Z</time></trkpt><trkpt lat="15.524502058709077" lon="120.65796182957706"><ele>33.0</ele><time>2026-04-18T09:25:58Z</time></trkpt><trkpt lat="15.524702984174763" lon="120.65784794846758"><ele>32.5</ele><time>2026-04-18T09:25:59Z</time></trkpt><trkpt lat="15.52490459088265" lon="120.65773525875767"><ele>32.0</ele><time>2026-04-18T09:26:00Z</time></trkpt><trkpt lat="15.525107701967967" lon="120.65762176547545"><ele>32.0</ele><time>2026-04-18T09:26:01Z</time></trkpt><trkpt lat="15.525310971964208" lon="120.65751031035629"><ele>32.0</ele><time>2026-04-18T09:26:02Z</time></trkpt><trkpt lat="15.525516123913711" lon="120.65739958549372"><ele>32.0</ele><time>2026-04-18T09:26:03Z</time></trkpt><trkpt lat="15.525721858173437" lon="120.65729062527761"><ele>32.0</ele><time>2026-04-18T09:26:04Z</time></trkpt><trkpt lat="15.525931494374497" lon="120.65718149993114"><ele>32.0</ele><time>2026-04-18T09:26:05Z</time></trkpt><trkpt lat="15.52614260501034" lon="120.657071762509"><ele>32.0</ele><time>2026-04-18T09:26:06Z</time></trkpt><trkpt lat="15.52635554685041" lon="120.65696392744273"><ele>32.0</ele><time>2026-04-18T09:26:07Z</time></trkpt><trkpt lat="15.526571642846793" lon="120.65685585272527"><ele>32.0</ele><time>2026-04-18T09:26:08Z</time></trkpt><trkpt lat="15.526787414908807" lon="120.65674656968443"><ele>32.0</ele><time>2026-04-18T09:26:09Z</time></trkpt><trkpt lat="15.527005451872952" lon="120.65663584696286"><ele>32.0</ele><time>2026-04-18T09:26:10Z</time></trkpt><trkpt lat="15.527222869143575" lon="120.65652414159592"><ele>32.5</ele><time>2026-04-18T09:26:11Z</time></trkpt><trkpt lat="15.527442402663588" lon="120.65641375653092"><ele>33.0</ele><time>2026-04-18T09:26:12Z</time></trkpt><trkpt lat="15.52766310715871" lon="120.65630546662493"><ele>33.0</ele><time>2026-04-18T09:26:13Z</time></trkpt><trkpt lat="15.527884462717386" lon="120.65619716337831"><ele>33.0</ele><time>2026-04-18T09:26:14Z</time></trkpt><trkpt lat="15.5281060288926" lon="120.65608947625942"><ele>33.0</ele><time>2026-04-18T09:26:15Z</time></trkpt><trkpt lat="15.528328891992157" lon="120.65598264332883"><ele>33.0</ele><time>2026-04-18T09:26:16Z</time></trkpt><trkpt lat="15.52855213175609" lon="120.65587672672866"><ele>32.0</ele><time>2026-04-18T09:26:17Z</time></trkpt><trkpt lat="15.528772961477038" lon="120.6557717199946"><ele>31.0</ele><time>2026-04-18T09:26:18Z</time></trkpt><trkpt lat="15.528993255070347" lon="120.65566762483985"><ele>31.0</ele><time>2026-04-18T09:26:19Z</time></trkpt><trkpt lat="15.529210958295907" lon="120.65556711199005"><ele>31.0</ele><time>2026-04-18T09:26:20Z</time></trkpt><trkpt lat="15.529426635705494" lon="120.65546316117695"><ele>31.0</ele><time>2026-04-18T09:26:21Z</time></trkpt><trkpt lat="15.529641299046984" lon="120.65536154344345"><ele>31.0</ele><time>2026-04-18T09:26:22Z</time></trkpt><trkpt lat="15.52985348344235" lon="120.65526011701901"><ele>31.0</ele><time>2026-04-18T09:26:23Z</time></trkpt><trkpt lat="15.53006640244222" lon="120.65516092987964"><ele>31.0</ele><time>2026-04-18T09:26:24Z</time></trkpt><trkpt lat="15.530280489551824" lon="120.65506069456295"><ele>31.0</ele><time>2026-04-18T09:26:25Z</time></trkpt><trkpt lat="15.530494375002812" lon="120.65495934066982"><ele>31.0</ele><time>2026-04-18T09:26:26Z</time></trkpt><trkpt lat="15.530706612172978" lon="120.65485649676447"><ele>31.0</ele><time>2026-04-18T09:26:27Z</time></trkpt><trkpt lat="15.530919580303209" lon="120.6547554301429"><ele>31.0</ele><time>2026-04-18T09:26:28Z</time></trkpt><trkpt lat="15.53113147766085" lon="120.6546513141342"><ele>31.0</ele><time>2026-04-18T09:26:29Z</time></trkpt><trkpt lat="15.531344360616497" lon="120.65454597973601"><ele>31.0</ele><time>2026-04-18T09:26:30Z</time></trkpt><trkpt lat="15.531559037171732" lon="120.65443934620792"><ele>32.0</ele><time>2026-04-18T09:26:31Z</time></trkpt><trkpt lat="15.531774814005994" lon="120.65433222792059"><ele>33.0</ele><time>2026-04-18T09:26:32Z</time></trkpt><trkpt lat="15.531991390951964" lon="120.65422211165352"><ele>32.0</ele><time>2026-04-18T09:26:33Z</time></trkpt><trkpt lat="15.532209790378106" lon="120.65410931682199"><ele>31.0</ele><time>2026-04-18T09:26:34Z</time></trkpt><trkpt lat="15.532428155481634" lon="120.65399672822574"><ele>31.0</ele><time>2026-04-18T09:26:35Z</time></trkpt><trkpt lat="15.532649427815581" lon="120.65388040514625"><ele>31.0</ele><time>2026-04-18T09:26:36Z</time></trkpt><trkpt lat="15.532871432658872" lon="120.65376182733496"><ele>30.5</ele><time>2026-04-18T09:26:37Z</time></trkpt><trkpt lat="15.533095542855403" lon="120.65364197514641"><ele>30.0</ele><time>2026-04-18T09:26:38Z</time></trkpt><trkpt lat="15.533319135896337" lon="120.65352214766526"><ele>30.0</ele><time>2026-04-18T09:26:39Z</time></trkpt><trkpt lat="15.533544929538857" lon="120.65339920828201"><ele>30.0</ele><time>2026-04-18T09:26:40Z</time></trkpt><trkpt lat="15.533772013351388" lon="120.65327411576163"><ele>31.0</ele><time>2026-04-18T09:26:41Z</time></trkpt><trkpt lat="15.533999010777777" lon="120.65314755454065"><ele>32.0</ele><time>2026-04-18T09:26:42Z</time></trkpt><trkpt lat="15.53422767634867" lon="120.65301913323296"><ele>32.0</ele><time>2026-04-18T09:26:43Z</time></trkpt><trkpt lat="15.534456226830596" lon="120.6528895327841"><ele>32.0</ele><time>2026-04-18T09:26:44Z</time></trkpt><trkpt lat="15.534685966238081" lon="120.65275942646062"><ele>31.0</ele><time>2026-04-18T09:26:45Z</time></trkpt><trkpt lat="15.53491616996166" lon="120.65262670718174"><ele>30.0</ele><time>2026-04-18T09:26:46Z</time></trkpt><trkpt lat="15.535147071050984" lon="120.65249374162514"><ele>30.0</ele><time>2026-04-18T09:26:47Z</time></trkpt><trkpt lat="15.535377931523689" lon="120.65235978513807"><ele>30.0</ele><time>2026-04-18T09:26:48Z</time></trkpt><trkpt lat="15.53560760967025" lon="120.65222187717187"><ele>30.0</ele><time>2026-04-18T09:26:49Z</time></trkpt><trkpt lat="15.535834950278963" lon="120.65208314458269"><ele>30.0</ele><time>2026-04-18T09:26:50Z</time></trkpt><trkpt lat="15.536062499354545" lon="120.65194417473693"><ele>30.0</ele><time>2026-04-18T09:26:51Z</time></trkpt><trkpt lat="15.536289060850466" lon="120.65180516461321"><ele>30.0</ele><time>2026-04-18T09:26:52Z</time></trkpt><trkpt lat="15.536512675209408" lon="120.6516649565829"><ele>30.0</ele><time>2026-04-18T09:26:53Z</time></trkpt><trkpt lat="15.536736602877943" lon="120.65152436664941"><ele>30.0</ele><time>2026-04-18T09:26:54Z</time></trkpt><trkpt lat="15.536960572139943" lon="120.65138320588993"><ele>30.5</ele><time>2026-04-18T09:26:55Z</time></trkpt><trkpt lat="15.537180638947024" lon="120.65124235898892"><ele>31.0</ele><time>2026-04-18T09:26:56Z</time></trkpt><trkpt lat="15.537399901520695" lon="120.65110170536373"><ele>31.0</ele><time>2026-04-18T09:26:57Z</time></trkpt><trkpt lat="15.537619258657436" lon="120.65095998593232"><ele>31.0</ele><time>2026-04-18T09:26:58Z</time></trkpt><trkpt lat="15.537839310694913" lon="120.65081597865992"><ele>31.0</ele><time>2026-04-18T09:26:59Z</time></trkpt><trkpt lat="15.538058345262925" lon="120.65067015621779"><ele>31.0</ele><time>2026-04-18T09:27:00Z</time></trkpt><trkpt lat="15.538277612111695" lon="120.65052210097895"><ele>31.0</ele><time>2026-04-18T09:27:01Z</time></trkpt><trkpt lat="15.538497924210578" lon="120.65037307429246"><ele>31.0</ele><time>2026-04-18T09:27:02Z</time></trkpt><trkpt lat="15.53871967596576" lon="120.65022377856978"><ele>31.0</ele><time>2026-04-18T09:27:03Z</time></trkpt><trkpt lat="15.538940657162122" lon="120.6500738539525"><ele>31.0</ele><time>2026-04-18T09:27:04Z</time></trkpt><trkpt lat="15.539161846733679" lon="120.6499208959716"><ele>31.0</ele><time>2026-04-18T09:27:05Z</time></trkpt><trkpt lat="15.539382419835551" lon="120.64976764731053"><ele>31.0</ele><time>2026-04-18T09:27:06Z</time></trkpt><trkpt lat="15.539603233125462" lon="120.64961553606446"><ele>31.5</ele><time>2026-04-18T09:27:07Z</time></trkpt><trkpt lat="15.539820831637018" lon="120.64946204927153"><ele>32.0</ele><time>2026-04-18T09:27:08Z</time></trkpt><trkpt lat="15.540036038748097" lon="120.64930788357202"><ele>32.0</ele><time>2026-04-18T09:27:09Z</time></trkpt><trkpt lat="15.540247928526618" lon="120.64915419050155"><ele>32.0</ele><time>2026-04-18T09:27:10Z</time></trkpt><trkpt lat="15.54045871686122" lon="120.6489994026904"><ele>31.5</ele><time>2026-04-18T09:27:11Z</time></trkpt><trkpt lat="15.540666083998252" lon="120.64884675797087"><ele>31.0</ele><time>2026-04-18T09:27:12Z</time></trkpt><trkpt lat="15.540871186783274" lon="120.64869441182583"><ele>31.0</ele><time>2026-04-18T09:27:13Z</time></trkpt><trkpt lat="15.541076402702037" lon="120.6485409682885"><ele>31.0</ele><time>2026-04-18T09:27:14Z</time></trkpt><trkpt lat="15.54127867945525" lon="120.64838843366411"><ele>31.0</ele><time>2026-04-18T09:27:15Z</time></trkpt><trkpt lat="15.541481707718622" lon="120.64823408051184"><ele>31.0</ele><time>2026-04-18T09:27:16Z</time></trkpt><trkpt lat="15.541684085571944" lon="120.64807957420115"><ele>31.0</ele><time>2026-04-18T09:27:17Z</time></trkpt><trkpt lat="15.541885845248247" lon="120.64792279167395"><ele>31.0</ele><time>2026-04-18T09:27:18Z</time></trkpt><trkpt lat="15.542086900035" lon="120.64776129390488"><ele>31.0</ele><time>2026-04-18T09:27:19Z</time></trkpt><trkpt lat="15.542289190629784" lon="120.64759959172494"><ele>31.0</ele><time>2026-04-18T09:27:20Z</time></trkpt><trkpt lat="15.542490486639467" lon="120.64743733702119"><ele>31.0</ele><time>2026-04-18T09:27:21Z</time></trkpt><trkpt lat="15.54269140158423" lon="120.64727205464611"><ele>31.0</ele><time>2026-04-18T09:27:22Z</time></trkpt><trkpt lat="15.542892119140838" lon="120.64710667415898"><ele>32.0</ele><time>2026-04-18T09:27:23Z</time></trkpt><trkpt lat="15.54309181316634" lon="120.64693947998873"><ele>33.0</ele><time>2026-04-18T09:27:24Z</time></trkpt><trkpt lat="15.543290411490792" lon="120.6467725988827"><ele>33.0</ele><time>2026-04-18T09:27:25Z</time></trkpt><trkpt lat="15.543489228759404" lon="120.6466047941096"><ele>33.0</ele><time>2026-04-18T09:27:26Z</time></trkpt><trkpt lat="15.543687378731011" lon="120.64643723954931"><ele>33.0</ele><time>2026-04-18T09:27:27Z</time></trkpt><trkpt lat="15.54388580292523" lon="120.64626892377659"><ele>33.0</ele><time>2026-04-18T09:27:28Z</time></trkpt><trkpt lat="15.54408330735517" lon="120.64610083692638"><ele>33.0</ele><time>2026-04-18T09:27:29Z</time></trkpt><trkpt lat="15.544280311530146" lon="120.64593434588657"><ele>33.0</ele><time>2026-04-18T09:27:30Z</time></trkpt><trkpt lat="15.5444768242359" lon="120.64576735305774"><ele>32.5</ele><time>2026-04-18T09:27:31Z</time></trkpt><trkpt lat="15.544674836477315" lon="120.64560160574311"><ele>32.0</ele><time>2026-04-18T09:27:32Z</time></trkpt><trkpt lat="15.544873612466805" lon="120.64543537366815"><ele>32.0</ele><time>2026-04-18T09:27:33Z</time></trkpt><trkpt lat="15.545073453279048" lon="120.64526968023988"><ele>32.0</ele><time>2026-04-18T09:27:34Z</time></trkpt><trkpt lat="15.545274548401457" lon="120.64510421799113"><ele>32.0</ele><time>2026-04-18T09:27:35Z</time></trkpt><trkpt lat="15.545475810107252" lon="120.64493930793651"><ele>32.0</ele><time>2026-04-18T09:27:36Z</time></trkpt><trkpt lat="15.545680066186017" lon="120.64477285218456"><ele>32.0</ele><time>2026-04-18T09:27:37Z</time></trkpt><trkpt lat="15.54588510182582" lon="120.6446088089162"><ele>32.0</ele><time>2026-04-18T09:27:38Z</time></trkpt><trkpt lat="15.546092012773205" lon="120.64444419912127"><ele>31.5</ele><time>2026-04-18T09:27:39Z</time></trkpt><trkpt lat="15.54630038647015" lon="120.64427965904264"><ele>31.0</ele><time>2026-04-18T09:27:40Z</time></trkpt><trkpt lat="15.54650787615074" lon="120.6441171080432"><ele>31.0</ele><time>2026-04-18T09:27:41Z</time></trkpt><trkpt lat="15.546716633442156" lon="120.6439562706383"><ele>31.0</ele><time>2026-04-18T09:27:42Z</time></trkpt><trkpt lat="15.546927488339986" lon="120.6437961555477"><ele>31.5</ele><time>2026-04-18T09:27:43Z</time></trkpt><trkpt lat="15.54713793504647" lon="120.64363774224081"><ele>32.0</ele><time>2026-04-18T09:27:44Z</time></trkpt><trkpt lat="15.547350854503748" lon="120.6434770400464"><ele>33.5</ele><time>2026-04-18T09:27:45Z</time></trkpt><trkpt lat="15.547563259477686" lon="120.6433203820607"><ele>35.0</ele><time>2026-04-18T09:27:46Z</time></trkpt><trkpt lat="15.547776031132255" lon="120.64316420792807"><ele>33.5</ele><time>2026-04-18T09:27:47Z</time></trkpt><trkpt lat="15.547987862962616" lon="120.64300882890282"><ele>32.0</ele><time>2026-04-18T09:27:48Z</time></trkpt><trkpt lat="15.548199526281097" lon="120.64285439544462"><ele>33.0</ele><time>2026-04-18T09:27:49Z</time></trkpt><trkpt lat="15.548411550422491" lon="120.64270091732392"><ele>34.0</ele><time>2026-04-18T09:27:50Z</time></trkpt><trkpt lat="15.548622951409524" lon="120.64254960536726"><ele>33.5</ele><time>2026-04-18T09:27:51Z</time></trkpt><trkpt lat="15.548834228717766" lon="120.64239891128096"><ele>33.0</ele><time>2026-04-18T09:27:52Z</time></trkpt><trkpt lat="15.549046883533858" lon="120.6422494786075"><ele>33.0</ele><time>2026-04-18T09:27:53Z</time></trkpt><trkpt lat="15.549259718109557" lon="120.64210116275483"><ele>33.0</ele><time>2026-04-18T09:27:54Z</time></trkpt><trkpt lat="15.549473470365074" lon="120.64195269773279"><ele>34.5</ele><time>2026-04-18T09:27:55Z</time></trkpt><trkpt lat="15.549689449202738" lon="120.6418044768093"><ele>36.0</ele><time>2026-04-18T09:27:56Z</time></trkpt><trkpt lat="15.549908065482164" lon="120.64165648591396"><ele>36.0</ele><time>2026-04-18T09:27:57Z</time></trkpt><trkpt lat="15.550130130994784" lon="120.64150916497607"><ele>36.0</ele><time>2026-04-18T09:27:58Z</time></trkpt><trkpt lat="15.550351763482142" lon="120.64136204160803"><ele>35.5</ele><time>2026-04-18T09:27:59Z</time></trkpt><trkpt lat="15.55057722146576" lon="120.6412132796078"><ele>35.0</ele><time>2026-04-18T09:28:00Z</time></trkpt><trkpt lat="15.550805139092443" lon="120.6410646667324"><ele>34.5</ele><time>2026-04-18T09:28:01Z</time></trkpt><trkpt lat="15.551036095019994" lon="120.64091504563736"><ele>34.0</ele><time>2026-04-18T09:28:02Z</time></trkpt><trkpt lat="15.551268452335327" lon="120.64076669763391"><ele>33.5</ele><time>2026-04-18T09:28:03Z</time></trkpt><trkpt lat="15.551503061887892" lon="120.64061858758787"><ele>33.0</ele><time>2026-04-18T09:28:04Z</time></trkpt><trkpt lat="15.551739572752155" lon="120.64047164948553"><ele>33.0</ele><time>2026-04-18T09:28:05Z</time></trkpt><trkpt lat="15.551974946299273" lon="120.64032820954665"><ele>33.0</ele><time>2026-04-18T09:28:06Z</time></trkpt><trkpt lat="15.552210082932124" lon="120.64018735771668"><ele>34.0</ele><time>2026-04-18T09:28:07Z</time></trkpt><trkpt lat="15.552445413502053" lon="120.64004793231918"><ele>35.0</ele><time>2026-04-18T09:28:08Z</time></trkpt><trkpt lat="15.552678425685547" lon="120.63991141939447"><ele>35.0</ele><time>2026-04-18T09:28:09Z</time></trkpt><trkpt lat="15.552910610399588" lon="120.63977648986038"><ele>35.0</ele><time>2026-04-18T09:28:10Z</time></trkpt><trkpt lat="15.553140713530304" lon="120.6396418179245"><ele>35.0</ele><time>2026-04-18T09:28:11Z</time></trkpt><trkpt lat="15.553369604049276" lon="120.63950811394716"><ele>35.0</ele><time>2026-04-18T09:28:12Z</time></trkpt><trkpt lat="15.553598756264547" lon="120.63937179290392"><ele>33.5</ele><time>2026-04-18T09:28:13Z</time></trkpt><trkpt lat="15.55382567053327" lon="120.63923564876052"><ele>32.0</ele><time>2026-04-18T09:28:14Z</time></trkpt><trkpt lat="15.554051292520347" lon="120.6391032275523"><ele>32.0</ele><time>2026-04-18T09:28:15Z</time></trkpt><trkpt lat="15.554276831331613" lon="120.63897154487385"><ele>32.0</ele><time>2026-04-18T09:28:16Z</time></trkpt><trkpt lat="15.554500714978566" lon="120.63884420411873"><ele>32.5</ele><time>2026-04-18T09:28:17Z</time></trkpt><trkpt lat="15.554718370239598" lon="120.63871645220672"><ele>33.0</ele><time>2026-04-18T09:28:18Z</time></trkpt><trkpt lat="15.554938467816774" lon="120.63859666474163"><ele>33.0</ele><time>2026-04-18T09:28:19Z</time></trkpt><trkpt lat="15.55515634922337" lon="120.63847881306233"><ele>33.0</ele><time>2026-04-18T09:28:20Z</time></trkpt><trkpt lat="15.555372574695562" lon="120.6383617377137"><ele>33.0</ele><time>2026-04-18T09:28:21Z</time></trkpt><trkpt lat="15.555587773684778" lon="120.63824481896431"><ele>33.0</ele><time>2026-04-18T09:28:22Z</time></trkpt><trkpt lat="15.555800968105373" lon="120.63812836332245"><ele>33.0</ele><time>2026-04-18T09:28:23Z</time></trkpt><trkpt lat="15.556012104752211" lon="120.63801736231845"><ele>33.0</ele><time>2026-04-18T09:28:24Z</time></trkpt><trkpt lat="15.556221802827416" lon="120.63790811166345"><ele>35.0</ele><time>2026-04-18T09:28:25Z</time></trkpt><trkpt lat="15.556428230191434" lon="120.63780162457144"><ele>37.0</ele><time>2026-04-18T09:28:26Z</time></trkpt><trkpt lat="15.556635900803345" lon="120.6376975151435"><ele>37.0</ele><time>2026-04-18T09:28:27Z</time></trkpt><trkpt lat="15.556841407338439" lon="120.63759378487019"><ele>37.0</ele><time>2026-04-18T09:28:28Z</time></trkpt><trkpt lat="15.557048581198956" lon="120.6374887262672"><ele>36.0</ele><time>2026-04-18T09:28:29Z</time></trkpt><trkpt lat="15.557258934401395" lon="120.63738465672972"><ele>35.0</ele><time>2026-04-18T09:28:30Z</time></trkpt><trkpt lat="15.557471858815136" lon="120.63728220292063"><ele>35.0</ele><time>2026-04-18T09:28:31Z</time></trkpt><trkpt lat="15.557687860016218" lon="120.6371753043803"><ele>35.0</ele><time>2026-04-18T09:28:32Z</time></trkpt><trkpt lat="15.557908880171407" lon="120.63706930900761"><ele>34.5</ele><time>2026-04-18T09:28:33Z</time></trkpt><trkpt lat="15.558133616045502" lon="120.63696300483035"><ele>34.0</ele><time>2026-04-18T09:28:34Z</time></trkpt><trkpt lat="15.558362588496777" lon="120.63685689292777"><ele>34.0</ele><time>2026-04-18T09:28:35Z</time></trkpt><trkpt lat="15.558597574381867" lon="120.63675419072867"><ele>34.0</ele><time>2026-04-18T09:28:36Z</time></trkpt><trkpt lat="15.558838078427133" lon="120.63665443918585"><ele>33.5</ele><time>2026-04-18T09:28:37Z</time></trkpt><trkpt lat="15.559083023187274" lon="120.63655089372513"><ele>33.0</ele><time>2026-04-18T09:28:38Z</time></trkpt><trkpt lat="15.55933157396959" lon="120.6364449084272"><ele>32.5</ele><time>2026-04-18T09:28:39Z</time></trkpt><trkpt lat="15.559584432331155" lon="120.63633507157277"><ele>32.0</ele><time>2026-04-18T09:28:40Z</time></trkpt><trkpt lat="15.559841175357969" lon="120.63622406495423"><ele>32.5</ele><time>2026-04-18T09:28:41Z</time></trkpt><trkpt lat="15.560100287232283" lon="120.63611221687657"><ele>33.0</ele><time>2026-04-18T09:28:42Z</time></trkpt><trkpt lat="15.560360598573935" lon="120.63599981863408"><ele>33.0</ele><time>2026-04-18T09:28:43Z</time></trkpt><trkpt lat="15.560623599589018" lon="120.63588943068874"><ele>33.0</ele><time>2026-04-18T09:28:44Z</time></trkpt><trkpt lat="15.56088949012652" lon="120.63578048815805"><ele>33.0</ele><time>2026-04-18T09:28:45Z</time></trkpt><trkpt lat="15.56115750051841" lon="120.63567115785669"><ele>33.0</ele><time>2026-04-18T09:28:46Z</time></trkpt><trkpt lat="15.561424825315532" lon="120.63556216021445"><ele>32.0</ele><time>2026-04-18T09:28:47Z</time></trkpt><trkpt lat="15.561695401520668" lon="120.63545358543904"><ele>31.0</ele><time>2026-04-18T09:28:48Z</time></trkpt><trkpt lat="15.561964916199218" lon="120.6353471729666"><ele>31.0</ele><time>2026-04-18T09:28:49Z</time></trkpt><trkpt lat="15.562235191273757" lon="120.63524115040308"><ele>31.0</ele><time>2026-04-18T09:28:50Z</time></trkpt><trkpt lat="15.562505690330752" lon="120.63513703821471"><ele>31.0</ele><time>2026-04-18T09:28:51Z</time></trkpt><trkpt lat="15.562775882281452" lon="120.63503364779258"><ele>31.0</ele><time>2026-04-18T09:28:52Z</time></trkpt><trkpt lat="15.563049569282818" lon="120.63493056248394"><ele>31.5</ele><time>2026-04-18T09:28:53Z</time></trkpt><trkpt lat="15.563321289808243" lon="120.63483050058159"><ele>32.0</ele><time>2026-04-18T09:28:54Z</time></trkpt><trkpt lat="15.563593140058385" lon="120.63473070053305"><ele>31.0</ele><time>2026-04-18T09:28:55Z</time></trkpt><trkpt lat="15.563863565211758" lon="120.6346307445365"><ele>30.0</ele><time>2026-04-18T09:28:56Z</time></trkpt><trkpt lat="15.564131900821204" lon="120.63453259006828"><ele>31.0</ele><time>2026-04-18T09:28:57Z</time></trkpt><trkpt lat="15.564397149385234" lon="120.63443680783722"><ele>32.0</ele><time>2026-04-18T09:28:58Z</time></trkpt><trkpt lat="15.564659149551092" lon="120.63434418509432"><ele>32.0</ele><time>2026-04-18T09:28:59Z</time></trkpt><trkpt lat="15.564918288713075" lon="120.63425501811493"><ele>32.0</ele><time>2026-04-18T09:29:00Z</time></trkpt><trkpt lat="15.565176901375295" lon="120.63416338185587"><ele>30.5</ele><time>2026-04-18T09:29:01Z</time></trkpt><trkpt lat="15.56543502911792" lon="120.63407382786289"><ele>29.0</ele><time>2026-04-18T09:29:02Z</time></trkpt><trkpt lat="15.5656937260926" lon="120.63398758915253"><ele>29.0</ele><time>2026-04-18T09:29:03Z</time></trkpt><trkpt lat="15.565951859111507" lon="120.63390257683416"><ele>29.0</ele><time>2026-04-18T09:29:04Z</time></trkpt><trkpt lat="15.566210588309715" lon="120.63381977273376"><ele>29.5</ele><time>2026-04-18T09:29:05Z</time></trkpt><trkpt lat="15.566470389744659" lon="120.63373815981122"><ele>30.0</ele><time>2026-04-18T09:29:06Z</time></trkpt><trkpt lat="15.566730755378744" lon="120.63365936489382"><ele>30.0</ele><time>2026-04-18T09:29:07Z</time></trkpt><trkpt lat="15.566991264658842" lon="120.63358125845008"><ele>30.0</ele><time>2026-04-18T09:29:08Z</time></trkpt><trkpt lat="15.567253431194333" lon="120.63350492171804"><ele>30.0</ele><time>2026-04-18T09:29:09Z</time></trkpt><trkpt lat="15.567513586018608" lon="120.63342971423447"><ele>30.0</ele><time>2026-04-18T09:29:10Z</time></trkpt><trkpt lat="15.567775680423575" lon="120.63335516820324"><ele>30.0</ele><time>2026-04-18T09:29:11Z</time></trkpt><trkpt lat="15.568038964927688" lon="120.63328103712779"><ele>30.0</ele><time>2026-04-18T09:29:12Z</time></trkpt><trkpt lat="15.568301727721227" lon="120.6332075716115"><ele>30.0</ele><time>2026-04-18T09:29:13Z</time></trkpt><trkpt lat="15.56856594870791" lon="120.63313508070813"><ele>30.0</ele><time>2026-04-18T09:29:14Z</time></trkpt><trkpt lat="15.568830288378019" lon="120.63306385144848"><ele>30.5</ele><time>2026-04-18T09:29:15Z</time></trkpt><trkpt lat="15.56909627210056" lon="120.63299417096563"><ele>31.0</ele><time>2026-04-18T09:29:16Z</time></trkpt><trkpt lat="15.569359956998074" lon="120.63292651133867"><ele>30.5</ele><time>2026-04-18T09:29:17Z</time></trkpt><trkpt lat="15.569625522298452" lon="120.63285894511682"><ele>30.0</ele><time>2026-04-18T09:29:18Z</time></trkpt><trkpt lat="15.569891637293406" lon="120.63279305483256"><ele>29.5</ele><time>2026-04-18T09:29:19Z</time></trkpt><trkpt lat="15.5701581393676" lon="120.6327280380196"><ele>29.0</ele><time>2026-04-18T09:29:20Z</time></trkpt><trkpt lat="15.570423809222397" lon="120.63266540926045"><ele>30.0</ele><time>2026-04-18T09:29:21Z</time></trkpt><trkpt lat="15.570691054650181" lon="120.63260429247859"><ele>31.0</ele><time>2026-04-18T09:29:22Z</time></trkpt><trkpt lat="15.570956370613876" lon="120.63254393693964"><ele>31.0</ele><time>2026-04-18T09:29:23Z</time></trkpt><trkpt lat="15.57122321507169" lon="120.63248516787085"><ele>31.0</ele><time>2026-04-18T09:29:24Z</time></trkpt><trkpt lat="15.57148848403358" lon="120.63242822264517"><ele>31.0</ele><time>2026-04-18T09:29:25Z</time></trkpt><trkpt lat="15.571754069193066" lon="120.6323719457763"><ele>31.0</ele><time>2026-04-18T09:29:26Z</time></trkpt><trkpt lat="15.572020669292206" lon="120.63231584123804"><ele>30.5</ele><time>2026-04-18T09:29:27Z</time></trkpt><trkpt lat="15.57228758305784" lon="120.63226142695795"><ele>30.0</ele><time>2026-04-18T09:29:28Z</time></trkpt><trkpt lat="15.572554967891518" lon="120.63220710869236"><ele>30.0</ele><time>2026-04-18T09:29:29Z</time></trkpt><trkpt lat="15.572822299453023" lon="120.63215470904092"><ele>30.0</ele><time>2026-04-18T09:29:30Z</time></trkpt><trkpt lat="15.573090189324416" lon="120.63210314322656"><ele>31.0</ele><time>2026-04-18T09:29:31Z</time></trkpt><trkpt lat="15.573360000364376" lon="120.63205277486372"><ele>32.0</ele><time>2026-04-18T09:29:32Z</time></trkpt><trkpt lat="15.573628522404846" lon="120.63200318946024"><ele>32.5</ele><time>2026-04-18T09:29:33Z</time></trkpt><trkpt lat="15.573897867244211" lon="120.63195512597586"><ele>33.0</ele><time>2026-04-18T09:29:34Z</time></trkpt><trkpt lat="15.574168288313675" lon="120.63190823544055"><ele>33.0</ele><time>2026-04-18T09:29:35Z</time></trkpt><trkpt lat="15.57443992128367" lon="120.6318617926937"><ele>33.0</ele><time>2026-04-18T09:29:36Z</time></trkpt><trkpt lat="15.574712587418093" lon="120.63181742974831"><ele>32.5</ele><time>2026-04-18T09:29:37Z</time></trkpt><trkpt lat="15.574985000038971" lon="120.63177469177805"><ele>32.0</ele><time>2026-04-18T09:29:38Z</time></trkpt><trkpt lat="15.575259667787048" lon="120.6317329626028"><ele>31.5</ele><time>2026-04-18T09:29:39Z</time></trkpt><trkpt lat="15.57553406795233" lon="120.63169174475192"><ele>31.0</ele><time>2026-04-18T09:29:40Z</time></trkpt><trkpt lat="15.575809593671364" lon="120.6316517550562"><ele>31.0</ele><time>2026-04-18T09:29:41Z</time></trkpt><trkpt lat="15.576084982458644" lon="120.6316139645416"><ele>31.0</ele><time>2026-04-18T09:29:42Z</time></trkpt><trkpt lat="15.576362336743589" lon="120.63157644980993"><ele>30.5</ele><time>2026-04-18T09:29:43Z</time></trkpt><trkpt lat="15.576640413302535" lon="120.63153997984031"><ele>30.0</ele><time>2026-04-18T09:29:44Z</time></trkpt><trkpt lat="15.576918869088178" lon="120.63150419314813"><ele>30.5</ele><time>2026-04-18T09:29:45Z</time></trkpt><trkpt lat="15.577198025793841" lon="120.63146914928433"><ele>31.0</ele><time>2026-04-18T09:29:46Z</time></trkpt><trkpt lat="15.577477162640417" lon="120.63143623028614"><ele>31.0</ele><time>2026-04-18T09:29:47Z</time></trkpt><trkpt lat="15.577755619741424" lon="120.63140373299575"><ele>31.0</ele><time>2026-04-18T09:29:48Z</time></trkpt><trkpt lat="15.578032363071353" lon="120.63137227087726"><ele>31.5</ele><time>2026-04-18T09:29:49Z</time></trkpt><trkpt lat="15.578307356003622" lon="120.63134267935703"><ele>32.0</ele><time>2026-04-18T09:29:50Z</time></trkpt><trkpt lat="15.578577825997774" lon="120.63131393000221"><ele>31.0</ele><time>2026-04-18T09:29:51Z</time></trkpt><trkpt lat="15.578846096555182" lon="120.63128545727002"><ele>30.0</ele><time>2026-04-18T09:29:52Z</time></trkpt><trkpt lat="15.579112423857833" lon="120.63125800607175"><ele>30.0</ele><time>2026-04-18T09:29:53Z</time></trkpt><trkpt lat="15.579377818484911" lon="120.63123357747226"><ele>30.0</ele><time>2026-04-18T09:29:54Z</time></trkpt><trkpt lat="15.57964157634181" lon="120.6312114935775"><ele>32.0</ele><time>2026-04-18T09:29:55Z</time></trkpt><trkpt lat="15.57990599944518" lon="120.63119139320695"><ele>34.0</ele><time>2026-04-18T09:29:56Z</time></trkpt><trkpt lat="15.580166416003518" lon="120.63117334695197"><ele>33.0</ele><time>2026-04-18T09:29:57Z</time></trkpt><trkpt lat="15.580426856785367" lon="120.63115683705206"><ele>32.0</ele><time>2026-04-18T09:29:58Z</time></trkpt><trkpt lat="15.580689399075371" lon="120.6311404214978"><ele>32.0</ele><time>2026-04-18T09:29:59Z</time></trkpt><trkpt lat="15.580952183802477" lon="120.63112453367462"><ele>32.0</ele><time>2026-04-18T09:30:00Z</time></trkpt><trkpt lat="15.58121760961852" lon="120.63111179909568"><ele>31.5</ele><time>2026-04-18T09:30:01Z</time></trkpt><trkpt lat="15.581484908104404" lon="120.63109846231391"><ele>31.0</ele><time>2026-04-18T09:30:02Z</time></trkpt><trkpt lat="15.581753673740208" lon="120.63108513686292"><ele>30.5</ele><time>2026-04-18T09:30:03Z</time></trkpt><trkpt lat="15.58202352919601" lon="120.6310724425598"><ele>30.0</ele><time>2026-04-18T09:30:04Z</time></trkpt><trkpt lat="15.582294057049124" lon="120.63106171263162"><ele>30.0</ele><time>2026-04-18T09:30:05Z</time></trkpt><trkpt lat="15.582565419654674" lon="120.63105378300696"><ele>30.0</ele><time>2026-04-18T09:30:06Z</time></trkpt><trkpt lat="15.58283756197821" lon="120.63104661531878"><ele>31.0</ele><time>2026-04-18T09:30:07Z</time></trkpt><trkpt lat="15.583109256103818" lon="120.63104092948298"><ele>32.0</ele><time>2026-04-18T09:30:08Z</time></trkpt><trkpt lat="15.583381345665773" lon="120.63103609502093"><ele>32.0</ele><time>2026-04-18T09:30:09Z</time></trkpt><trkpt lat="15.583651327414245" lon="120.63103144791044"><ele>32.0</ele><time>2026-04-18T09:30:10Z</time></trkpt><trkpt lat="15.58392006263886" lon="120.63102828039239"><ele>30.5</ele><time>2026-04-18T09:30:11Z</time></trkpt><trkpt lat="15.584184601999066" lon="120.63102601854762"><ele>29.0</ele><time>2026-04-18T09:30:12Z</time></trkpt><trkpt lat="15.584446475823382" lon="120.63102424010503"><ele>30.0</ele><time>2026-04-18T09:30:13Z</time></trkpt><trkpt lat="15.584703444126543" lon="120.6310217822493"><ele>31.0</ele><time>2026-04-18T09:30:14Z</time></trkpt><trkpt lat="15.584958840783004" lon="120.63102102677192"><ele>31.0</ele><time>2026-04-18T09:30:15Z</time></trkpt><trkpt lat="15.58521260151857" lon="120.6310203072532"><ele>31.0</ele><time>2026-04-18T09:30:16Z</time></trkpt><trkpt lat="15.585470232846982" lon="120.63102053223268"><ele>31.5</ele><time>2026-04-18T09:30:17Z</time></trkpt><trkpt lat="15.585726666909068" lon="120.63102116898106"><ele>32.0</ele><time>2026-04-18T09:30:18Z</time></trkpt><trkpt lat="15.58598414099724" lon="120.63102101843006"><ele>31.0</ele><time>2026-04-18T09:30:19Z</time></trkpt><trkpt lat="15.586239551847985" lon="120.63102078475745"><ele>30.0</ele><time>2026-04-18T09:30:20Z</time></trkpt><trkpt lat="15.586492698698452" lon="120.63101953978436"><ele>30.0</ele><time>2026-04-18T09:30:21Z</time></trkpt><trkpt lat="15.58674320597261" lon="120.6310182221908"><ele>30.0</ele><time>2026-04-18T09:30:22Z</time></trkpt><trkpt lat="15.586994192884141" lon="120.6310180012349"><ele>30.0</ele><time>2026-04-18T09:30:23Z</time></trkpt><trkpt lat="15.587243115356083" lon="120.63101882567717"><ele>30.0</ele><time>2026-04-18T09:30:24Z</time></trkpt><trkpt lat="15.587494581597902" lon="120.63102084521557"><ele>30.0</ele><time>2026-04-18T09:30:25Z</time></trkpt><trkpt lat="15.58774271158761" lon="120.63102416725052"><ele>30.0</ele><time>2026-04-18T09:30:26Z</time></trkpt><trkpt lat="15.587993796428659" lon="120.63102598655159"><ele>29.5</ele><time>2026-04-18T09:30:27Z</time></trkpt><trkpt lat="15.588243791947196" lon="120.63102619150106"><ele>29.0</ele><time>2026-04-18T09:30:28Z</time></trkpt><trkpt lat="15.58849694875031" lon="120.63102241078184"><ele>28.5</ele><time>2026-04-18T09:30:29Z</time></trkpt><trkpt lat="15.588745949237172" lon="120.63102308533016"><ele>28.0</ele><time>2026-04-18T09:30:30Z</time></trkpt><trkpt lat="15.588995548317216" lon="120.63102225305698"><ele>28.0</ele><time>2026-04-18T09:30:31Z</time></trkpt><trkpt lat="15.589241835727407" lon="120.63102110473847"><ele>28.0</ele><time>2026-04-18T09:30:32Z</time></trkpt><trkpt lat="15.589483856595058" lon="120.63101877262966"><ele>28.0</ele><time>2026-04-18T09:30:33Z</time></trkpt><trkpt lat="15.58972103411391" lon="120.6310174990034"><ele>28.0</ele><time>2026-04-18T09:30:34Z</time></trkpt><trkpt lat="15.5899562116811" lon="120.63101699121094"><ele>28.0</ele><time>2026-04-18T09:30:35Z</time></trkpt><trkpt lat="15.590187170102354" lon="120.63101711679481"><ele>28.0</ele><time>2026-04-18T09:30:36Z</time></trkpt><trkpt lat="15.590420332119344" lon="120.63101637978141"><ele>28.5</ele><time>2026-04-18T09:30:37Z</time></trkpt><trkpt lat="15.590644011365434" lon="120.63101635292801"><ele>29.0</ele><time>2026-04-18T09:30:38Z</time></trkpt><trkpt lat="15.590873982715818" lon="120.63101687070504"><ele>29.0</ele><time>2026-04-18T09:30:39Z</time></trkpt><trkpt lat="15.591100844782144" lon="120.63101699210462"><ele>29.0</ele><time>2026-04-18T09:30:40Z</time></trkpt><trkpt lat="15.591327447820857" lon="120.6310184953569"><ele>28.0</ele><time>2026-04-18T09:30:41Z</time></trkpt><trkpt lat="15.591558186223597" lon="120.63102028903472"><ele>27.0</ele><time>2026-04-18T09:30:42Z</time></trkpt><trkpt lat="15.591791395564268" lon="120.63102035149204"><ele>26.5</ele><time>2026-04-18T09:30:43Z</time></trkpt><trkpt lat="15.592027400176914" lon="120.63102172955884"><ele>26.0</ele><time>2026-04-18T09:30:44Z</time></trkpt><trkpt lat="15.59227007848333" lon="120.63102167463589"><ele>26.0</ele><time>2026-04-18T09:30:45Z</time></trkpt><trkpt lat="15.592514345906801" lon="120.63102237537723"><ele>26.0</ele><time>2026-04-18T09:30:46Z</time></trkpt><trkpt lat="15.592763782623006" lon="120.63102260625936"><ele>26.0</ele><time>2026-04-18T09:30:47Z</time></trkpt><trkpt lat="15.59301652288717" lon="120.63102438318741"><ele>26.0</ele><time>2026-04-18T09:30:48Z</time></trkpt><trkpt lat="15.593273953097697" lon="120.63102525125534"><ele>26.0</ele><time>2026-04-18T09:30:49Z</time></trkpt><trkpt lat="15.593530078525072" lon="120.631024695803"><ele>26.0</ele><time>2026-04-18T09:30:50Z</time></trkpt><trkpt lat="15.593789064598084" lon="120.63102391787058"><ele>27.0</ele><time>2026-04-18T09:30:51Z</time></trkpt><trkpt lat="15.594049962488684" lon="120.63102347378957"><ele>28.0</ele><time>2026-04-18T09:30:52Z</time></trkpt><trkpt lat="15.594311431184725" lon="120.63102265793182"><ele>27.5</ele><time>2026-04-18T09:30:53Z</time></trkpt><trkpt lat="15.59457071132922" lon="120.63102242571004"><ele>27.0</ele><time>2026-04-18T09:30:54Z</time></trkpt><trkpt lat="15.594827905367115" lon="120.63102323993873"><ele>27.0</ele><time>2026-04-18T09:30:55Z</time></trkpt><trkpt lat="15.595081904655927" lon="120.63102422897725"><ele>27.0</ele><time>2026-04-18T09:30:56Z</time></trkpt><trkpt lat="15.595330846575584" lon="120.63102402835271"><ele>27.0</ele><time>2026-04-18T09:30:57Z</time></trkpt><trkpt lat="15.595577461131013" lon="120.63102418904462"><ele>27.0</ele><time>2026-04-18T09:30:58Z</time></trkpt><trkpt lat="15.595820611493874" lon="120.6310238014812"><ele>27.0</ele><time>2026-04-18T09:30:59Z</time></trkpt><trkpt lat="15.596060523854508" lon="120.63102211688526"><ele>27.0</ele><time>2026-04-18T09:31:00Z</time></trkpt><trkpt lat="15.596303234732432" lon="120.6310210235178"><ele>27.0</ele><time>2026-04-18T09:31:01Z</time></trkpt><trkpt lat="15.596547202172188" lon="120.63102028747282"><ele>27.0</ele><time>2026-04-18T09:31:02Z</time></trkpt><trkpt lat="15.596796260042277" lon="120.63101949438213"><ele>27.0</ele><time>2026-04-18T09:31:03Z</time></trkpt><trkpt lat="15.597050500794108" lon="120.63102037530287"><ele>27.0</ele><time>2026-04-18T09:31:04Z</time></trkpt><trkpt lat="15.597308671852996" lon="120.63102122540451"><ele>27.0</ele><time>2026-04-18T09:31:05Z</time></trkpt><trkpt lat="15.597572781861148" lon="120.6310228134776"><ele>27.0</ele><time>2026-04-18T09:31:06Z</time></trkpt><trkpt lat="15.597839343533986" lon="120.63102436524926"><ele>26.5</ele><time>2026-04-18T09:31:07Z</time></trkpt><trkpt lat="15.598110057315962" lon="120.63102681339825"><ele>26.0</ele><time>2026-04-18T09:31:08Z</time></trkpt><trkpt lat="15.598380518769483" lon="120.63102909971579"><ele>26.0</ele><time>2026-04-18T09:31:09Z</time></trkpt><trkpt lat="15.59865656689886" lon="120.63103104758751"><ele>26.0</ele><time>2026-04-18T09:31:10Z</time></trkpt><trkpt lat="15.598933651526494" lon="120.631032134695"><ele>26.0</ele><time>2026-04-18T09:31:11Z</time></trkpt><trkpt lat="15.599211698612624" lon="120.6310324442948"><ele>26.0</ele><time>2026-04-18T09:31:12Z</time></trkpt><trkpt lat="15.59948957042642" lon="120.63103167275959"><ele>27.0</ele><time>2026-04-18T09:31:13Z</time></trkpt><trkpt lat="15.599769789753752" lon="120.63103134990703"><ele>28.0</ele><time>2026-04-18T09:31:14Z</time></trkpt><trkpt lat="15.60004938895673" lon="120.63103114396837"><ele>28.0</ele><time>2026-04-18T09:31:15Z</time></trkpt><trkpt lat="15.600331704036043" lon="120.63103128912778"><ele>28.0</ele><time>2026-04-18T09:31:16Z</time></trkpt><trkpt lat="15.600614678449316" lon="120.63103123773752"><ele>27.0</ele><time>2026-04-18T09:31:17Z</time></trkpt><trkpt lat="15.600893620946186" lon="120.6310315794732"><ele>26.0</ele><time>2026-04-18T09:31:18Z</time></trkpt><trkpt lat="15.60117596016243" lon="120.63103250251488"><ele>26.0</ele><time>2026-04-18T09:31:19Z</time></trkpt><trkpt lat="15.6014563499827" lon="120.63103426950804"><ele>26.0</ele><time>2026-04-18T09:31:20Z</time></trkpt><trkpt lat="15.601735519453543" lon="120.63103638373995"><ele>26.5</ele><time>2026-04-18T09:31:21Z</time></trkpt><trkpt lat="15.602018198665474" lon="120.63103865905313"><ele>27.0</ele><time>2026-04-18T09:31:22Z</time></trkpt><trkpt lat="15.60230043252826" lon="120.6310420211138"><ele>27.0</ele><time>2026-04-18T09:31:23Z</time></trkpt><trkpt lat="15.60258507222395" lon="120.63104434867259"><ele>27.0</ele><time>2026-04-18T09:31:24Z</time></trkpt><trkpt lat="15.60287166081809" lon="120.63104771860638"><ele>27.0</ele><time>2026-04-18T09:31:25Z</time></trkpt><trkpt lat="15.603158547979893" lon="120.63105103877214"><ele>27.0</ele><time>2026-04-18T09:31:26Z</time></trkpt><trkpt lat="15.603445863502532" lon="120.63105309330065"><ele>26.5</ele><time>2026-04-18T09:31:27Z</time></trkpt><trkpt lat="15.60373290057419" lon="120.63105482571478"><ele>26.0</ele><time>2026-04-18T09:31:28Z</time></trkpt><trkpt lat="15.604017778047606" lon="120.63105581422259"><ele>26.0</ele><time>2026-04-18T09:31:29Z</time></trkpt><trkpt lat="15.604303421477919" lon="120.63105639454339"><ele>26.0</ele><time>2026-04-18T09:31:30Z</time></trkpt><trkpt lat="15.60458601414508" lon="120.63105821416708"><ele>27.0</ele><time>2026-04-18T09:31:31Z</time></trkpt><trkpt lat="15.604868219399625" lon="120.63105871689437"><ele>28.0</ele><time>2026-04-18T09:31:32Z</time></trkpt><trkpt lat="15.605148596790485" lon="120.63105878625369"><ele>27.5</ele><time>2026-04-18T09:31:33Z</time></trkpt><trkpt lat="15.605426949616149" lon="120.63105866599228"><ele>27.0</ele><time>2026-04-18T09:31:34Z</time></trkpt><trkpt lat="15.605702660522764" lon="120.63105800237662"><ele>27.0</ele><time>2026-04-18T09:31:35Z</time></trkpt><trkpt lat="15.605979749473464" lon="120.63105791655153"><ele>27.0</ele><time>2026-04-18T09:31:36Z</time></trkpt><trkpt lat="15.606253803874981" lon="120.63105762183217"><ele>25.5</ele><time>2026-04-18T09:31:37Z</time></trkpt><trkpt lat="15.606525211136749" lon="120.63105687879029"><ele>24.0</ele><time>2026-04-18T09:31:38Z</time></trkpt><trkpt lat="15.606794828761032" lon="120.63105592445002"><ele>25.5</ele><time>2026-04-18T09:31:39Z</time></trkpt><trkpt lat="15.607060041738803" lon="120.6310552925429"><ele>27.0</ele><time>2026-04-18T09:31:40Z</time></trkpt><trkpt lat="15.607319907525884" lon="120.63105478573469"><ele>27.0</ele><time>2026-04-18T09:31:41Z</time></trkpt><trkpt lat="15.60757640495072" lon="120.63105377061746"><ele>27.0</ele><time>2026-04-18T09:31:42Z</time></trkpt><trkpt lat="15.607828502328774" lon="120.63105267590129"><ele>26.5</ele><time>2026-04-18T09:31:43Z</time></trkpt><trkpt lat="15.608076012861678" lon="120.63105214920851"><ele>26.0</ele><time>2026-04-18T09:31:44Z</time></trkpt><trkpt lat="15.60831839662699" lon="120.63105148234708"><ele>26.0</ele><time>2026-04-18T09:31:45Z</time></trkpt><trkpt lat="15.608558998508123" lon="120.63105062949239"><ele>26.0</ele><time>2026-04-18T09:31:46Z</time></trkpt><trkpt lat="15.608794783323786" lon="120.63105041530763"><ele>25.0</ele><time>2026-04-18T09:31:47Z</time></trkpt><trkpt lat="15.609027132381158" lon="120.63105023428807"><ele>24.0</ele><time>2026-04-18T09:31:48Z</time></trkpt><trkpt lat="15.609256366289019" lon="120.63105137545523"><ele>24.0</ele><time>2026-04-18T09:31:49Z</time></trkpt><trkpt lat="15.609483894714986" lon="120.63105314896323"><ele>24.0</ele><time>2026-04-18T09:31:50Z</time></trkpt><trkpt lat="15.60971178592666" lon="120.63105622855522"><ele>24.0</ele><time>2026-04-18T09:31:51Z</time></trkpt><trkpt lat="15.609938400524523" lon="120.6310590023588"><ele>24.0</ele><time>2026-04-18T09:31:52Z</time></trkpt><trkpt lat="15.610163764153546" lon="120.63106274884183"><ele>24.5</ele><time>2026-04-18T09:31:53Z</time></trkpt><trkpt lat="15.6103893382979" lon="120.63106894395415"><ele>25.0</ele><time>2026-04-18T09:31:54Z</time></trkpt><trkpt lat="15.610613311003172" lon="120.63107447762866"><ele>25.0</ele><time>2026-04-18T09:31:55Z</time></trkpt><trkpt lat="15.610834248336452" lon="120.63107876456816"><ele>25.0</ele><time>2026-04-18T09:31:56Z</time></trkpt><trkpt lat="15.611054744693753" lon="120.63108070601191"><ele>25.0</ele><time>2026-04-18T09:31:57Z</time></trkpt><trkpt lat="15.611268114736417" lon="120.63107578299817"><ele>25.333333333333336</ele><time>2026-04-18T09:31:58Z</time></trkpt><trkpt lat="15.611478165724062" lon="120.63107399527566"><ele>25.666666666666664</ele><time>2026-04-18T09:31:59Z</time></trkpt><trkpt lat="15.611681408049646" lon="120.63107257686829"><ele>26.0</ele><time>2026-04-18T09:32:00Z</time></trkpt><trkpt lat="15.611880295654544" lon="120.63107300661996"><ele>25.666666666666664</ele><time>2026-04-18T09:32:01Z</time></trkpt><trkpt lat="15.612073427059158" lon="120.63107582516388"><ele>25.333333333333336</ele><time>2026-04-18T09:32:02Z</time></trkpt><trkpt lat="15.612260350759723" lon="120.63108077952145"><ele>25.0</ele><time>2026-04-18T09:32:03Z</time></trkpt><trkpt lat="15.612442660834036" lon="120.63109164724196"><ele>25.0</ele><time>2026-04-18T09:32:04Z</time></trkpt><trkpt lat="15.612618794252597" lon="120.63111605810846"><ele>25.0</ele><time>2026-04-18T09:32:05Z</time></trkpt><trkpt lat="15.612791387206876" lon="120.63115862702725"><ele>25.0</ele><time>2026-04-18T09:32:06Z</time></trkpt><trkpt lat="15.612955947315871" lon="120.63122169983419"><ele>24.666666666666668</ele><time>2026-04-18T09:32:07Z</time></trkpt><trkpt lat="15.613108392723262" lon="120.63130602485059"><ele>24.333333333333336</ele><time>2026-04-18T09:32:08Z</time></trkpt><trkpt lat="15.613244962076935" lon="120.6314074660068"><ele>24.0</ele><time>2026-04-18T09:32:09Z</time></trkpt><trkpt lat="15.613370464578365" lon="120.63152455872468"><ele>24.0</ele><time>2026-04-18T09:32:10Z</time></trkpt><trkpt lat="15.6134853168094" lon="120.6316464778969"><ele>24.0</ele><time>2026-04-18T09:32:11Z</time></trkpt><trkpt lat="15.613598836124591" lon="120.63177326370906"><ele>24.0</ele><time>2026-04-18T09:32:12Z</time></trkpt><trkpt lat="15.613711450735039" lon="120.63189905278793"><ele>24.0</ele><time>2026-04-18T09:32:13Z</time></trkpt><trkpt lat="15.613825759143204" lon="120.63202610306354"><ele>24.0</ele><time>2026-04-18T09:32:14Z</time></trkpt><trkpt lat="15.613939875446478" lon="120.63215026847335"><ele>24.0</ele><time>2026-04-18T09:32:15Z</time></trkpt><trkpt lat="15.614054736002613" lon="120.63227716403568"><ele>24.0</ele><time>2026-04-18T09:32:16Z</time></trkpt><trkpt lat="15.614169265636049" lon="120.63240581735431"><ele>24.0</ele><time>2026-04-18T09:32:17Z</time></trkpt><trkpt lat="15.614284860170962" lon="120.63253271785494"><ele>24.0</ele><time>2026-04-18T09:32:18Z</time></trkpt><trkpt lat="15.614399043040253" lon="120.63266048347211"><ele>24.0</ele><time>2026-04-18T09:32:19Z</time></trkpt><trkpt lat="15.614511189305587" lon="120.63278545742963"><ele>24.0</ele><time>2026-04-18T09:32:20Z</time></trkpt><trkpt lat="15.614623367172491" lon="120.63291095023476"><ele>24.0</ele><time>2026-04-18T09:32:21Z</time></trkpt><trkpt lat="15.614731123446138" lon="120.6330325879036"><ele>24.0</ele><time>2026-04-18T09:32:22Z</time></trkpt><trkpt lat="15.614836599306727" lon="120.6331512855924"><ele>24.0</ele><time>2026-04-18T09:32:23Z</time></trkpt><trkpt lat="15.614936946581832" lon="120.63326509228678"><ele>24.0</ele><time>2026-04-18T09:32:24Z</time></trkpt><trkpt lat="15.615035441952424" lon="120.63337758749735"><ele>24.0</ele><time>2026-04-18T09:32:25Z</time></trkpt><trkpt lat="15.615131807966556" lon="120.63348845676997"><ele>24.0</ele><time>2026-04-18T09:32:26Z</time></trkpt><trkpt lat="15.615223713958631" lon="120.6335902276709"><ele>24.0</ele><time>2026-04-18T09:32:27Z</time></trkpt><trkpt lat="15.61531303072172" lon="120.63368627687004"><ele>24.0</ele><time>2026-04-18T09:32:28Z</time></trkpt><trkpt lat="15.615398620821006" lon="120.6337789726704"><ele>24.2</ele><time>2026-04-18T09:32:29Z</time></trkpt><trkpt lat="15.61547401851225" lon="120.63386260397256"><ele>24.4</ele><time>2026-04-18T09:32:30Z</time></trkpt><trkpt lat="15.615542729973578" lon="120.63393977819204"><ele>24.6</ele><time>2026-04-18T09:32:31Z</time></trkpt><trkpt lat="15.615600799146012" lon="120.63400583290166"><ele>24.8</ele><time>2026-04-18T09:32:32Z</time></trkpt><trkpt lat="15.615649748432029" lon="120.63405981591731"><ele>25.0</ele><time>2026-04-18T09:32:33Z</time></trkpt><trkpt lat="15.615722042434017" lon="120.63414144206519"><ele>25.000000000000004</ele><time>2026-04-18T09:32:35Z</time></trkpt><trkpt lat="15.615764026925753" lon="120.63419135723422"><ele>25.0</ele><time>2026-04-18T09:32:37Z</time></trkpt><trkpt lat="15.615809420998335" lon="120.63424427220333"><ele>25.0</ele><time>2026-04-18T09:32:40Z</time></trkpt><trkpt lat="15.615858391486897" lon="120.63430145587533"><ele>25.0</ele><time>2026-04-18T09:32:42Z</time></trkpt><trkpt lat="15.615905660207028" lon="120.634348350314"><ele>25.0</ele><time>2026-04-18T09:32:43Z</time></trkpt><trkpt lat="15.615956817702855" lon="120.63440059402367"><ele>25.000000000000004</ele><time>2026-04-18T09:32:44Z</time></trkpt><trkpt lat="15.61601302008249" lon="120.63445171186943"><ele>25.0</ele><time>2026-04-18T09:32:45Z</time></trkpt><trkpt lat="15.616077763953648" lon="120.63450316114738"><ele>25.0</ele><time>2026-04-18T09:32:46Z</time></trkpt><trkpt lat="15.616152825587065" lon="120.63455201813544"><ele>25.0</ele><time>2026-04-18T09:32:47Z</time></trkpt><trkpt lat="15.616236655372827" lon="120.63459491124868"><ele>25.0</ele><time>2026-04-18T09:32:48Z</time></trkpt><trkpt lat="15.616329432406287" lon="120.63463085857572"><ele>25.0</ele><time>2026-04-18T09:32:49Z</time></trkpt><trkpt lat="15.616424523288618" lon="120.63467579110528"><ele>25.0</ele><time>2026-04-18T09:32:50Z</time></trkpt><trkpt lat="15.616530073552951" lon="120.63470341287636"><ele>25.0</ele><time>2026-04-18T09:32:51Z</time></trkpt><trkpt lat="15.616650820142596" lon="120.6347088838487"><ele>25.0</ele><time>2026-04-18T09:32:52Z</time></trkpt><trkpt lat="15.616769451551798" lon="120.63470962310129"><ele>25.0</ele><time>2026-04-18T09:32:53Z</time></trkpt><trkpt lat="15.616893026183002" lon="120.63469940999927"><ele>25.0</ele><time>2026-04-18T09:32:54Z</time></trkpt><trkpt lat="15.617017558105776" lon="120.63468802080625"><ele>25.5</ele><time>2026-04-18T09:32:55Z</time></trkpt><trkpt lat="15.617144836056712" lon="120.63467733134789"><ele>26.0</ele><time>2026-04-18T09:32:56Z</time></trkpt><trkpt lat="15.61727177569826" lon="120.63466741214141"><ele>26.5</ele><time>2026-04-18T09:32:57Z</time></trkpt><trkpt lat="15.617400419591588" lon="120.63465736037864"><ele>27.0</ele><time>2026-04-18T09:32:58Z</time></trkpt><trkpt lat="15.617530351219362" lon="120.63464453404757"><ele>27.0</ele><time>2026-04-18T09:32:59Z</time></trkpt><trkpt lat="15.61765274507473" lon="120.63462775424685"><ele>27.000000000000004</ele><time>2026-04-18T09:33:00Z</time></trkpt><trkpt lat="15.617763793736147" lon="120.6346138119733"><ele>27.000000000000004</ele><time>2026-04-18T09:33:01Z</time></trkpt><trkpt lat="15.617868338506549" lon="120.63459897851526"><ele>27.0</ele><time>2026-04-18T09:33:02Z</time></trkpt><trkpt lat="15.617956855994056" lon="120.63458431694964"><ele>27.0</ele><time>2026-04-18T09:33:03Z</time></trkpt><trkpt lat="15.618027894118573" lon="120.63457255055094"><ele>27.200000000000003</ele><time>2026-04-18T09:33:04Z</time></trkpt><trkpt lat="15.61813627888628" lon="120.63455459808277"><ele>27.400000000000002</ele><time>2026-04-18T09:33:06Z</time></trkpt><trkpt lat="15.618213530154707" lon="120.6345493600696"><ele>27.599999999999998</ele><time>2026-04-18T09:33:08Z</time></trkpt><trkpt lat="15.618230692602832" lon="120.63446608888337"><ele>27.799999999999997</ele><time>2026-04-18T09:33:09Z</time></trkpt><trkpt lat="15.618259684981552" lon="120.63439551822076"><ele>28.0</ele><time>2026-04-18T09:33:11Z</time></trkpt><trkpt lat="15.618239504832477" lon="120.63428247764477"><ele>28.000000000000004</ele><time>2026-04-18T09:33:13Z</time></trkpt><trkpt lat="15.618215106583" lon="120.63421682385463"><ele>28.0</ele><time>2026-04-18T09:33:14Z</time></trkpt><trkpt lat="15.618191849206495" lon="120.63414300138675"><ele>28.0</ele><time>2026-04-18T09:33:15Z</time></trkpt><trkpt lat="15.618165310562432" lon="120.6340582792227"><ele>28.0</ele><time>2026-04-18T09:33:16Z</time></trkpt><trkpt lat="15.618140305006422" lon="120.63397318341049"><ele>28.000000000000004</ele><time>2026-04-18T09:33:17Z</time></trkpt><trkpt lat="15.618114074280168" lon="120.63388544722108"><ele>28.0</ele><time>2026-04-18T09:33:18Z</time></trkpt><trkpt lat="15.618088746254355" lon="120.63379448407235"><ele>28.0</ele><time>2026-04-18T09:33:19Z</time></trkpt><trkpt lat="15.618062976336704" lon="120.63370080076912"><ele>27.999999999999996</ele><time>2026-04-18T09:33:20Z</time></trkpt><trkpt lat="15.618036333032636" lon="120.63360188593286"><ele>27.999999999999996</ele><time>2026-04-18T09:33:21Z</time></trkpt><trkpt lat="15.618007810270948" lon="120.63350172068994"><ele>28.0</ele><time>2026-04-18T09:33:22Z</time></trkpt><trkpt lat="15.6179742485873" lon="120.63339631452584"><ele>28.0</ele><time>2026-04-18T09:33:23Z</time></trkpt><trkpt lat="15.617938852382148" lon="120.63328595731362"><ele>28.0</ele><time>2026-04-18T09:33:24Z</time></trkpt><trkpt lat="15.617903742220506" lon="120.63317432754653"><ele>28.0</ele><time>2026-04-18T09:33:25Z</time></trkpt><trkpt lat="15.61786993471392" lon="120.63305889655192"><ele>28.0</ele><time>2026-04-18T09:33:26Z</time></trkpt><trkpt lat="15.617837119572497" lon="120.63293948221909"><ele>28.0</ele><time>2026-04-18T09:33:27Z</time></trkpt><trkpt lat="15.617804435325555" lon="120.63282081216174"><ele>27.599999999999998</ele><time>2026-04-18T09:33:28Z</time></trkpt><trkpt lat="15.617768103754164" lon="120.63270339517814"><ele>27.199999999999996</ele><time>2026-04-18T09:33:29Z</time></trkpt><trkpt lat="15.6177352303157" lon="120.63259171046293"><ele>26.8</ele><time>2026-04-18T09:33:30Z</time></trkpt><trkpt lat="15.61770234894363" lon="120.63248185192924"><ele>26.4</ele><time>2026-04-18T09:33:31Z</time></trkpt><trkpt lat="15.617670568517276" lon="120.63237898426057"><ele>26.0</ele><time>2026-04-18T09:33:32Z</time></trkpt><trkpt lat="15.617642465445048" lon="120.63228541415619"><ele>26.0</ele><time>2026-04-18T09:33:33Z</time></trkpt><trkpt lat="15.617616343083125" lon="120.63220529209691"><ele>26.0</ele><time>2026-04-18T09:33:34Z</time></trkpt><trkpt lat="15.617591201614673" lon="120.63213005692802"><ele>26.0</ele><time>2026-04-18T09:33:35Z</time></trkpt><trkpt lat="15.617568107345193" lon="120.63205859408065"><ele>26.0</ele><time>2026-04-18T09:33:36Z</time></trkpt><trkpt lat="15.617547541191446" lon="120.63199035797327"><ele>26.0</ele><time>2026-04-18T09:33:37Z</time></trkpt><trkpt lat="15.617526451219316" lon="120.63192500311054"><ele>26.0</ele><time>2026-04-18T09:33:38Z</time></trkpt><trkpt lat="15.617505440917306" lon="120.63185606976357"><ele>26.0</ele><time>2026-04-18T09:33:39Z</time></trkpt><trkpt lat="15.617485225613413" lon="120.63178256921942"><ele>25.833333333333332</ele><time>2026-04-18T09:33:40Z</time></trkpt><trkpt lat="15.617465953883157" lon="120.63170419118373"><ele>25.666666666666664</ele><time>2026-04-18T09:33:41Z</time></trkpt><trkpt lat="15.617445595247005" lon="120.63162096161786"><ele>25.5</ele><time>2026-04-18T09:33:42Z</time></trkpt><trkpt lat="15.61742168784919" lon="120.63153300411695"><ele>25.333333333333336</ele><time>2026-04-18T09:33:43Z</time></trkpt><trkpt lat="15.61739866536276" lon="120.63144402241501"><ele>25.166666666666668</ele><time>2026-04-18T09:33:44Z</time></trkpt><trkpt lat="15.617375277155116" lon="120.63135189527945"><ele>25.0</ele><time>2026-04-18T09:33:45Z</time></trkpt><trkpt lat="15.617351778231109" lon="120.63125589416161"><ele>25.0</ele><time>2026-04-18T09:33:46Z</time></trkpt><trkpt lat="15.617326895310024" lon="120.63115869348758"><ele>25.0</ele><time>2026-04-18T09:33:47Z</time></trkpt><trkpt lat="15.617300880540762" lon="120.63105906617655"><ele>25.0</ele><time>2026-04-18T09:33:48Z</time></trkpt><trkpt lat="15.617272654844928" lon="120.6309549079196"><ele>25.0</ele><time>2026-04-18T09:33:49Z</time></trkpt><trkpt lat="15.61724325760099" lon="120.63085255160624"><ele>25.0</ele><time>2026-04-18T09:33:50Z</time></trkpt><trkpt lat="15.617211174524774" lon="120.6307504259816"><ele>25.2</ele><time>2026-04-18T09:33:51Z</time></trkpt><trkpt lat="15.617179729524986" lon="120.63064507460004"><ele>25.4</ele><time>2026-04-18T09:33:52Z</time></trkpt><trkpt lat="15.61714892299193" lon="120.63054039717899"><ele>25.6</ele><time>2026-04-18T09:33:53Z</time></trkpt><trkpt lat="15.617119920806335" lon="120.63043243042345"><ele>25.8</ele><time>2026-04-18T09:33:54Z</time></trkpt><trkpt lat="15.617087193209258" lon="120.63032866688171"><ele>26.0</ele><time>2026-04-18T09:33:55Z</time></trkpt><trkpt lat="15.617052151341786" lon="120.63021056730848"><ele>25.75</ele><time>2026-04-18T09:33:56Z</time></trkpt><trkpt lat="15.617020222153986" lon="120.63009423776238"><ele>25.5</ele><time>2026-04-18T09:33:57Z</time></trkpt><trkpt lat="15.61698692027244" lon="120.62997959075584"><ele>25.25</ele><time>2026-04-18T09:33:58Z</time></trkpt><trkpt lat="15.616955617643647" lon="120.62986458298661"><ele>25.0</ele><time>2026-04-18T09:33:59Z</time></trkpt><trkpt lat="15.616923686199431" lon="120.62974663641191"><ele>25.0</ele><time>2026-04-18T09:34:00Z</time></trkpt><trkpt lat="15.616893001825298" lon="120.62963194921092"><ele>25.0</ele><time>2026-04-18T09:34:01Z</time></trkpt><trkpt lat="15.616859605370204" lon="120.62951560833005"><ele>25.0</ele><time>2026-04-18T09:34:02Z</time></trkpt><trkpt lat="15.616827179087126" lon="120.6293986413838"><ele>25.0</ele><time>2026-04-18T09:34:03Z</time></trkpt><trkpt lat="15.61679436059629" lon="120.62928012766058"><ele>25.75</ele><time>2026-04-18T09:34:04Z</time></trkpt><trkpt lat="15.616760566591541" lon="120.6291626317455"><ele>26.5</ele><time>2026-04-18T09:34:05Z</time></trkpt><trkpt lat="15.616726178822095" lon="120.62904224296118"><ele>27.25</ele><time>2026-04-18T09:34:06Z</time></trkpt><trkpt lat="15.616690071070376" lon="120.62892071942156"><ele>28.0</ele><time>2026-04-18T09:34:07Z</time></trkpt><trkpt lat="15.61665633474863" lon="120.6288031030041"><ele>28.0</ele><time>2026-04-18T09:34:08Z</time></trkpt><trkpt lat="15.61662047037766" lon="120.62868217595071"><ele>28.0</ele><time>2026-04-18T09:34:09Z</time></trkpt><trkpt lat="15.616585523450699" lon="120.62856281643373"><ele>28.0</ele><time>2026-04-18T09:34:10Z</time></trkpt><trkpt lat="15.616549985523374" lon="120.62844362063348"><ele>28.0</ele><time>2026-04-18T09:34:11Z</time></trkpt><trkpt lat="15.616514519632346" lon="120.6283266229234"><ele>28.25</ele><time>2026-04-18T09:34:12Z</time></trkpt><trkpt lat="15.616478394785764" lon="120.62821111328864"><ele>28.5</ele><time>2026-04-18T09:34:13Z</time></trkpt><trkpt lat="15.6164434531755" lon="120.62809367602422"><ele>28.75</ele><time>2026-04-18T09:34:14Z</time></trkpt><trkpt lat="15.616407041982933" lon="120.62797299141302"><ele>29.0</ele><time>2026-04-18T09:34:15Z</time></trkpt><trkpt lat="15.616373093585905" lon="120.62785521507381"><ele>28.4</ele><time>2026-04-18T09:34:16Z</time></trkpt><trkpt lat="15.616340610642007" lon="120.6277407032669"><ele>27.799999999999997</ele><time>2026-04-18T09:34:17Z</time></trkpt><trkpt lat="15.616306582536417" lon="120.62762943519657"><ele>27.200000000000003</ele><time>2026-04-18T09:34:18Z</time></trkpt><trkpt lat="15.616274409006172" lon="120.62752562717769"><ele>26.6</ele><time>2026-04-18T09:34:19Z</time></trkpt><trkpt lat="15.616242598719765" lon="120.62742022947451"><ele>26.0</ele><time>2026-04-18T09:34:20Z</time></trkpt><trkpt lat="15.616212849900899" lon="120.62732029321171"><ele>25.999999999999996</ele><time>2026-04-18T09:34:21Z</time></trkpt><trkpt lat="15.616182750128681" lon="120.62722166990297"><ele>26.0</ele><time>2026-04-18T09:34:22Z</time></trkpt><trkpt lat="15.616156000586598" lon="120.62712559913605"><ele>26.0</ele><time>2026-04-18T09:34:23Z</time></trkpt><trkpt lat="15.616131228021256" lon="120.62703991396572"><ele>26.0</ele><time>2026-04-18T09:34:24Z</time></trkpt><trkpt lat="15.616107869117506" lon="120.62696111288142"><ele>25.999999999999996</ele><time>2026-04-18T09:34:25Z</time></trkpt><trkpt lat="15.616086999995693" lon="120.62688849703727"><ele>26.0</ele><time>2026-04-18T09:34:26Z</time></trkpt><trkpt lat="15.616069240798174" lon="120.62682000016328"><ele>26.142857142857142</ele><time>2026-04-18T09:34:27Z</time></trkpt><trkpt lat="15.616050970488633" lon="120.62675423397015"><ele>26.28571428571429</ele><time>2026-04-18T09:34:28Z</time></trkpt><trkpt lat="15.616036489464353" lon="120.62668894832623"><ele>26.42857142857143</ele><time>2026-04-18T09:34:29Z</time></trkpt><trkpt lat="15.616021696762276" lon="120.6266234164874"><ele>26.57142857142857</ele><time>2026-04-18T09:34:30Z</time></trkpt><trkpt lat="15.616008192306806" lon="120.62655441717676"><ele>26.714285714285715</ele><time>2026-04-18T09:34:31Z</time></trkpt><trkpt lat="15.615991842373978" lon="120.6264806143118"><ele>26.857142857142858</ele><time>2026-04-18T09:34:32Z</time></trkpt><trkpt lat="15.615974965887549" lon="120.62640333185779"><ele>27.0</ele><time>2026-04-18T09:34:33Z</time></trkpt><trkpt lat="15.615959825863763" lon="120.62632260999199"><ele>27.0</ele><time>2026-04-18T09:34:34Z</time></trkpt><trkpt lat="15.615946881545794" lon="120.6262395268913"><ele>27.000000000000004</ele><time>2026-04-18T09:34:35Z</time></trkpt><trkpt lat="15.61593393657326" lon="120.62616269774847"><ele>27.000000000000004</ele><time>2026-04-18T09:34:36Z</time></trkpt><trkpt lat="15.615922586840979" lon="120.62609720082446"><ele>27.0</ele><time>2026-04-18T09:34:37Z</time></trkpt><trkpt lat="15.615903571670943" lon="120.62598201565405"><ele>27.0</ele><time>2026-04-18T09:34:39Z</time></trkpt><trkpt lat="15.615884609223118" lon="120.62585845099505"><ele>27.0</ele><time>2026-04-18T09:34:41Z</time></trkpt><trkpt lat="15.615875157337392" lon="120.62578727323024"><ele>27.0</ele><time>2026-04-18T09:34:42Z</time></trkpt><trkpt lat="15.61586669401922" lon="120.62570903632255"><ele>27.0</ele><time>2026-04-18T09:34:43Z</time></trkpt><trkpt lat="15.615858381415372" lon="120.62562331282216"><ele>27.0</ele><time>2026-04-18T09:34:44Z</time></trkpt><trkpt lat="15.615847696337864" lon="120.62553218693326"><ele>27.0</ele><time>2026-04-18T09:34:45Z</time></trkpt><trkpt lat="15.615835146796462" lon="120.62543375488802"><ele>27.0</ele><time>2026-04-18T09:34:46Z</time></trkpt><trkpt lat="15.615824443297152" lon="120.62532993266615"><ele>26.8</ele><time>2026-04-18T09:34:47Z</time></trkpt><trkpt lat="15.6158145371166" lon="120.62522634259528"><ele>26.6</ele><time>2026-04-18T09:34:48Z</time></trkpt><trkpt lat="15.615804981583683" lon="120.62512417419212"><ele>26.400000000000002</ele><time>2026-04-18T09:34:49Z</time></trkpt><trkpt lat="15.615794280247489" lon="120.6250224172079"><ele>26.200000000000003</ele><time>2026-04-18T09:34:50Z</time></trkpt><trkpt lat="15.615783263365392" lon="120.62491922783948"><ele>26.0</ele><time>2026-04-18T09:34:51Z</time></trkpt><trkpt lat="15.615771160571125" lon="120.62481832305026"><ele>26.0</ele><time>2026-04-18T09:34:52Z</time></trkpt><trkpt lat="15.61576218420323" lon="120.62471767405829"><ele>26.0</ele><time>2026-04-18T09:34:53Z</time></trkpt><trkpt lat="15.615754956013578" lon="120.624617132266"><ele>26.0</ele><time>2026-04-18T09:34:54Z</time></trkpt><trkpt lat="15.615736175515833" lon="120.62452688804242"><ele>26.0</ele><time>2026-04-18T09:34:55Z</time></trkpt><trkpt lat="15.615724055062904" lon="120.62442255979654"><ele>26.0</ele><time>2026-04-18T09:34:56Z</time></trkpt><trkpt lat="15.615712803618344" lon="120.6243164169608"><ele>25.999999999999996</ele><time>2026-04-18T09:34:57Z</time></trkpt><trkpt lat="15.615702774332895" lon="120.62421868592496"><ele>26.0</ele><time>2026-04-18T09:34:58Z</time></trkpt><trkpt lat="15.615696443301536" lon="120.62413542593298"><ele>26.0</ele><time>2026-04-18T09:34:59Z</time></trkpt><trkpt lat="15.615687839347256" lon="120.62406718031382"><ele>26.0</ele><time>2026-04-18T09:35:00Z</time></trkpt><trkpt lat="15.615670515562538" lon="120.62394395331943"><ele>25.999999999999996</ele><time>2026-04-18T09:35:02Z</time></trkpt><trkpt lat="15.6156594038989" lon="120.62386611067312"><ele>26.0</ele><time>2026-04-18T09:35:03Z</time></trkpt><trkpt lat="15.615651330458757" lon="120.62378128197517"><ele>26.0</ele><time>2026-04-18T09:35:04Z</time></trkpt><trkpt lat="15.615642215557344" lon="120.62369000121697"><ele>26.0</ele><time>2026-04-18T09:35:05Z</time></trkpt><trkpt lat="15.615631726878652" lon="120.62357860354717"><ele>26.0</ele><time>2026-04-18T09:35:06Z</time></trkpt><trkpt lat="15.615622401059934" lon="120.62347209615119"><ele>26.0</ele><time>2026-04-18T09:35:07Z</time></trkpt><trkpt lat="15.615611596585875" lon="120.62336397259057"><ele>26.0</ele><time>2026-04-18T09:35:08Z</time></trkpt><trkpt lat="15.61560086185745" lon="120.62324957753287"><ele>26.0</ele><time>2026-04-18T09:35:09Z</time></trkpt><trkpt lat="15.61559088771894" lon="120.6231305965334"><ele>26.0</ele><time>2026-04-18T09:35:10Z</time></trkpt><trkpt lat="15.615581946259383" lon="120.62301100198644"><ele>26.0</ele><time>2026-04-18T09:35:11Z</time></trkpt><trkpt lat="15.61557075966481" lon="120.62288656803887"><ele>26.0</ele><time>2026-04-18T09:35:12Z</time></trkpt><trkpt lat="15.615555696971944" lon="120.62276201768316"><ele>25.75</ele><time>2026-04-18T09:35:13Z</time></trkpt><trkpt lat="15.61554506473263" lon="120.62263943640473"><ele>25.5</ele><time>2026-04-18T09:35:14Z</time></trkpt><trkpt lat="15.615532805911085" lon="120.62250804672209"><ele>25.25</ele><time>2026-04-18T09:35:15Z</time></trkpt><trkpt lat="15.615523310429149" lon="120.62238465751814"><ele>25.0</ele><time>2026-04-18T09:35:16Z</time></trkpt><trkpt lat="15.615509724374679" lon="120.62225331642817"><ele>25.0</ele><time>2026-04-18T09:35:17Z</time></trkpt><trkpt lat="15.615498404976343" lon="120.6221218874397"><ele>25.0</ele><time>2026-04-18T09:35:18Z</time></trkpt><trkpt lat="15.615485083548355" lon="120.62198738517338"><ele>25.0</ele><time>2026-04-18T09:35:19Z</time></trkpt><trkpt lat="15.61547118382308" lon="120.62185353132115"><ele>25.0</ele><time>2026-04-18T09:35:20Z</time></trkpt><trkpt lat="15.615458723214886" lon="120.62172218928357"><ele>25.0</ele><time>2026-04-18T09:35:21Z</time></trkpt><trkpt lat="15.615445760103887" lon="120.62158815621729"><ele>25.0</ele><time>2026-04-18T09:35:22Z</time></trkpt><trkpt lat="15.615432399782435" lon="120.62145420956375"><ele>25.0</ele><time>2026-04-18T09:35:23Z</time></trkpt><trkpt lat="15.615419735184542" lon="120.62132063747165"><ele>25.0</ele><time>2026-04-18T09:35:24Z</time></trkpt><trkpt lat="15.615405413733814" lon="120.62118681624028"><ele>25.0</ele><time>2026-04-18T09:35:25Z</time></trkpt><trkpt lat="15.61539365033874" lon="120.62105639302929"><ele>25.0</ele><time>2026-04-18T09:35:26Z</time></trkpt><trkpt lat="15.615380875630803" lon="120.62092820935526"><ele>25.0</ele><time>2026-04-18T09:35:27Z</time></trkpt><trkpt lat="15.615369852516276" lon="120.62080485025704"><ele>25.0</ele><time>2026-04-18T09:35:28Z</time></trkpt><trkpt lat="15.615356532676408" lon="120.62068407299962"><ele>25.0</ele><time>2026-04-18T09:35:29Z</time></trkpt><trkpt lat="15.615344797762358" lon="120.6205667930377"><ele>25.0</ele><time>2026-04-18T09:35:30Z</time></trkpt><trkpt lat="15.615332900493325" lon="120.62045224101016"><ele>25.0</ele><time>2026-04-18T09:35:31Z</time></trkpt><trkpt lat="15.615321481607639" lon="120.62033573112818"><ele>25.0</ele><time>2026-04-18T09:35:32Z</time></trkpt><trkpt lat="15.615309485477159" lon="120.62021891424678"><ele>25.0</ele><time>2026-04-18T09:35:33Z</time></trkpt><trkpt lat="15.615295648367574" lon="120.62010121519162"><ele>25.0</ele><time>2026-04-18T09:35:34Z</time></trkpt><trkpt lat="15.615278948590769" lon="120.61998309860817"><ele>25.0</ele><time>2026-04-18T09:35:35Z</time></trkpt><trkpt lat="15.61525760347002" lon="120.6198628054032"><ele>25.0</ele><time>2026-04-18T09:35:36Z</time></trkpt><trkpt lat="15.615232749176027" lon="120.6197427261402"><ele>25.0</ele><time>2026-04-18T09:35:37Z</time></trkpt><trkpt lat="15.615203479569242" lon="120.61962009156777"><ele>25.0</ele><time>2026-04-18T09:35:38Z</time></trkpt><trkpt lat="15.61516985899812" lon="120.61949854511975"><ele>25.0</ele><time>2026-04-18T09:35:39Z</time></trkpt><trkpt lat="15.615135434739452" lon="120.61937505587252"><ele>25.0</ele><time>2026-04-18T09:35:40Z</time></trkpt><trkpt lat="15.615099255924385" lon="120.61925070890742"><ele>25.0</ele><time>2026-04-18T09:35:41Z</time></trkpt><trkpt lat="15.615058475468555" lon="120.6191256848263"><ele>25.0</ele><time>2026-04-18T09:35:42Z</time></trkpt><trkpt lat="15.615013111098419" lon="120.61900153009152"><ele>25.0</ele><time>2026-04-18T09:35:43Z</time></trkpt><trkpt lat="15.61496477540224" lon="120.61887615973885"><ele>25.0</ele><time>2026-04-18T09:35:44Z</time></trkpt><trkpt lat="15.614915104193349" lon="120.61875289128895"><ele>25.25</ele><time>2026-04-18T09:35:45Z</time></trkpt><trkpt lat="15.614863753773125" lon="120.61863189886051"><ele>25.5</ele><time>2026-04-18T09:35:46Z</time></trkpt><trkpt lat="15.61481189307142" lon="120.61850926644286"><ele>25.75</ele><time>2026-04-18T09:35:47Z</time></trkpt><trkpt lat="15.614760983556172" lon="120.61838547282686"><ele>26.0</ele><time>2026-04-18T09:35:48Z</time></trkpt><trkpt lat="15.614707967457655" lon="120.61826330913506"><ele>26.0</ele><time>2026-04-18T09:35:49Z</time></trkpt><trkpt lat="15.614652906360082" lon="120.61814569693026"><ele>26.0</ele><time>2026-04-18T09:35:50Z</time></trkpt><trkpt lat="15.614598498753832" lon="120.61803361678496"><ele>26.0</ele><time>2026-04-18T09:35:51Z</time></trkpt><trkpt lat="15.614547382197015" lon="120.61792916849618"><ele>26.0</ele><time>2026-04-18T09:35:52Z</time></trkpt><trkpt lat="15.614499096699307" lon="120.61783291240647"><ele>26.333333333333332</ele><time>2026-04-18T09:35:53Z</time></trkpt><trkpt lat="15.61445429191851" lon="120.61774418936156"><ele>26.666666666666664</ele><time>2026-04-18T09:35:54Z</time></trkpt><trkpt lat="15.614411598530197" lon="120.61766334588387"><ele>27.0</ele><time>2026-04-18T09:35:55Z</time></trkpt><trkpt lat="15.61437310198918" lon="120.61758749062766"><ele>27.333333333333336</ele><time>2026-04-18T09:35:56Z</time></trkpt><trkpt lat="15.614335729421528" lon="120.61751501190868"><ele>27.666666666666668</ele><time>2026-04-18T09:35:57Z</time></trkpt><trkpt lat="15.614297962018169" lon="120.6174477358856"><ele>28.0</ele><time>2026-04-18T09:35:58Z</time></trkpt><trkpt lat="15.614265911023312" lon="120.61737777315004"><ele>28.0</ele><time>2026-04-18T09:35:59Z</time></trkpt><trkpt lat="15.614235812474652" lon="120.61731433683794"><ele>28.0</ele><time>2026-04-18T09:36:00Z</time></trkpt><trkpt lat="15.61420523458747" lon="120.61725341426809"><ele>28.0</ele><time>2026-04-18T09:36:01Z</time></trkpt><trkpt lat="15.614175793611466" lon="120.61719450928037"><ele>28.0</ele><time>2026-04-18T09:36:02Z</time></trkpt><trkpt lat="15.614147117942238" lon="120.61713607503407"><ele>28.0</ele><time>2026-04-18T09:36:03Z</time></trkpt><trkpt lat="15.61411715424707" lon="120.61707484313509"><ele>28.0</ele><time>2026-04-18T09:36:04Z</time></trkpt><trkpt lat="15.614080452703258" lon="120.61700552286675"><ele>28.0</ele><time>2026-04-18T09:36:05Z</time></trkpt><trkpt lat="15.614039749046867" lon="120.61693055492476"><ele>27.599999999999998</ele><time>2026-04-18T09:36:06Z</time></trkpt><trkpt lat="15.61399434879178" lon="120.61684933668056"><ele>27.199999999999996</ele><time>2026-04-18T09:36:07Z</time></trkpt><trkpt lat="15.61394550385071" lon="120.61676144864177"><ele>26.8</ele><time>2026-04-18T09:36:08Z</time></trkpt><trkpt lat="15.613894652523316" lon="120.61666571191503"><ele>26.4</ele><time>2026-04-18T09:36:09Z</time></trkpt><trkpt lat="15.613835660648824" lon="120.61655709830882"><ele>26.0</ele><time>2026-04-18T09:36:10Z</time></trkpt><trkpt lat="15.613780359532678" lon="120.61644646226586"><ele>26.0</ele><time>2026-04-18T09:36:11Z</time></trkpt><trkpt lat="15.613727618301978" lon="120.61633175573269"><ele>26.0</ele><time>2026-04-18T09:36:12Z</time></trkpt><trkpt lat="15.613671209309661" lon="120.61621085732982"><ele>26.0</ele><time>2026-04-18T09:36:13Z</time></trkpt><trkpt lat="15.613612512902797" lon="120.61609041409805"><ele>26.0</ele><time>2026-04-18T09:36:14Z</time></trkpt><trkpt lat="15.613552320886342" lon="120.61597127841644"><ele>26.25</ele><time>2026-04-18T09:36:15Z</time></trkpt><trkpt lat="15.613495566726737" lon="120.61585357373839"><ele>26.5</ele><time>2026-04-18T09:36:16Z</time></trkpt><trkpt lat="15.613440345818107" lon="120.61574072053867"><ele>26.75</ele><time>2026-04-18T09:36:17Z</time></trkpt><trkpt lat="15.613385986817752" lon="120.61562692522459"><ele>27.0</ele><time>2026-04-18T09:36:18Z</time></trkpt><trkpt lat="15.613331785380797" lon="120.61551435933129"><ele>27.0</ele><time>2026-04-18T09:36:19Z</time></trkpt><trkpt lat="15.613277239448355" lon="120.61540125605882"><ele>27.0</ele><time>2026-04-18T09:36:20Z</time></trkpt><trkpt lat="15.613222423089002" lon="120.61528880894953"><ele>27.0</ele><time>2026-04-18T09:36:21Z</time></trkpt><trkpt lat="15.613170214137735" lon="120.61517793679042"><ele>27.0</ele><time>2026-04-18T09:36:22Z</time></trkpt><trkpt lat="15.613120780074187" lon="120.61507061716779"><ele>27.200000000000003</ele><time>2026-04-18T09:36:23Z</time></trkpt><trkpt lat="15.613070746606683" lon="120.6149656384189"><ele>27.400000000000002</ele><time>2026-04-18T09:36:24Z</time></trkpt><trkpt lat="15.613021097377015" lon="120.6148656487938"><ele>27.599999999999998</ele><time>2026-04-18T09:36:25Z</time></trkpt><trkpt lat="15.612973188191187" lon="120.61476827283381"><ele>27.799999999999997</ele><time>2026-04-18T09:36:26Z</time></trkpt><trkpt lat="15.612925209230003" lon="120.61466973300291"><ele>28.0</ele><time>2026-04-18T09:36:27Z</time></trkpt><trkpt lat="15.612876325795721" lon="120.61457035251776"><ele>27.799999999999997</ele><time>2026-04-18T09:36:28Z</time></trkpt><trkpt lat="15.612828279073248" lon="120.614470705575"><ele>27.599999999999998</ele><time>2026-04-18T09:36:29Z</time></trkpt><trkpt lat="15.612779593506025" lon="120.6143706945873"><ele>27.400000000000002</ele><time>2026-04-18T09:36:30Z</time></trkpt><trkpt lat="15.612730803315678" lon="120.61427066683588"><ele>27.200000000000003</ele><time>2026-04-18T09:36:31Z</time></trkpt><trkpt lat="15.61268251604756" lon="120.61416966736498"><ele>27.0</ele><time>2026-04-18T09:36:32Z</time></trkpt><trkpt lat="15.612635034526678" lon="120.61406671185995"><ele>27.0</ele><time>2026-04-18T09:36:33Z</time></trkpt><trkpt lat="15.612585820446554" lon="120.61396375056017"><ele>27.000000000000004</ele><time>2026-04-18T09:36:34Z</time></trkpt><trkpt lat="15.612536044537519" lon="120.613860444646"><ele>27.000000000000004</ele><time>2026-04-18T09:36:35Z</time></trkpt><trkpt lat="15.612484029207033" lon="120.613757745272"><ele>27.0</ele><time>2026-04-18T09:36:36Z</time></trkpt><trkpt lat="15.61243151934133" lon="120.61365520210838"><ele>27.0</ele><time>2026-04-18T09:36:37Z</time></trkpt><trkpt lat="15.612379270014818" lon="120.6135518092919"><ele>27.200000000000003</ele><time>2026-04-18T09:36:38Z</time></trkpt><trkpt lat="15.612327782830699" lon="120.6134480624574"><ele>27.400000000000002</ele><time>2026-04-18T09:36:39Z</time></trkpt><trkpt lat="15.612277614588605" lon="120.61334397319897"><ele>27.599999999999998</ele><time>2026-04-18T09:36:40Z</time></trkpt><trkpt lat="15.612228743917095" lon="120.61324258542804"><ele>27.799999999999997</ele><time>2026-04-18T09:36:41Z</time></trkpt><trkpt lat="15.612181672745088" lon="120.61314486149554"><ele>28.0</ele><time>2026-04-18T09:36:42Z</time></trkpt><trkpt lat="15.612136701534586" lon="120.61305110885854"><ele>28.0</ele><time>2026-04-18T09:36:43Z</time></trkpt><trkpt lat="15.612093862350157" lon="120.61296248355141"><ele>27.999999999999996</ele><time>2026-04-18T09:36:44Z</time></trkpt><trkpt lat="15.61205073631593" lon="120.61287642063806"><ele>27.999999999999996</ele><time>2026-04-18T09:36:45Z</time></trkpt><trkpt lat="15.6120085404439" lon="120.61279170151609"><ele>28.0</ele><time>2026-04-18T09:36:46Z</time></trkpt><trkpt lat="15.611967540525374" lon="120.61270832394145"><ele>28.0</ele><time>2026-04-18T09:36:47Z</time></trkpt><trkpt lat="15.611926515877588" lon="120.61262645099424"><ele>28.166666666666668</ele><time>2026-04-18T09:36:48Z</time></trkpt><trkpt lat="15.611885853387092" lon="120.61254608510261"><ele>28.333333333333336</ele><time>2026-04-18T09:36:49Z</time></trkpt><trkpt lat="15.611847119553323" lon="120.61246674774735"><ele>28.5</ele><time>2026-04-18T09:36:50Z</time></trkpt><trkpt lat="15.611811346509096" lon="120.61239207698047"><ele>28.666666666666664</ele><time>2026-04-18T09:36:51Z</time></trkpt><trkpt lat="15.611785615473563" lon="120.61232329232504"><ele>28.833333333333332</ele><time>2026-04-18T09:36:52Z</time></trkpt><trkpt lat="15.6117549508987" lon="120.61226129471113"><ele>29.0</ele><time>2026-04-18T09:36:53Z</time></trkpt><trkpt lat="15.611725646909537" lon="120.61220080337061"><ele>28.999999999999996</ele><time>2026-04-18T09:36:54Z</time></trkpt><trkpt lat="15.611666076335535" lon="120.61208384903514"><ele>29.0</ele><time>2026-04-18T09:36:56Z</time></trkpt><trkpt lat="15.611633105260962" lon="120.61201930760775"><ele>29.0</ele><time>2026-04-18T09:36:57Z</time></trkpt><trkpt lat="15.611595605167436" lon="120.61195135753792"><ele>29.0</ele><time>2026-04-18T09:36:58Z</time></trkpt><trkpt lat="15.611556835119906" lon="120.61187702993331"><ele>28.999999999999996</ele><time>2026-04-18T09:36:59Z</time></trkpt><trkpt lat="15.611519693636856" lon="120.61179998154708"><ele>29.0</ele><time>2026-04-18T09:37:00Z</time></trkpt><trkpt lat="15.611482103148907" lon="120.61171586844928"><ele>28.799999999999997</ele><time>2026-04-18T09:37:01Z</time></trkpt><trkpt lat="15.611444105021361" lon="120.61163037755377"><ele>28.599999999999998</ele><time>2026-04-18T09:37:02Z</time></trkpt><trkpt lat="15.611405022835806" lon="120.61154275829311"><ele>28.4</ele><time>2026-04-18T09:37:03Z</time></trkpt><trkpt lat="15.611363711763543" lon="120.61145350900121"><ele>28.2</ele><time>2026-04-18T09:37:04Z</time></trkpt><trkpt lat="15.611320763980359" lon="120.611363704714"><ele>28.0</ele><time>2026-04-18T09:37:05Z</time></trkpt><trkpt lat="15.61127860995675" lon="120.61127380159995"><ele>28.0</ele><time>2026-04-18T09:37:06Z</time></trkpt><trkpt lat="15.61123505596409" lon="120.61118331284933"><ele>27.999999999999996</ele><time>2026-04-18T09:37:07Z</time></trkpt><trkpt lat="15.61119077376458" lon="120.6110912966279"><ele>27.999999999999996</ele><time>2026-04-18T09:37:08Z</time></trkpt><trkpt lat="15.61114751491829" lon="120.6110001595832"><ele>28.0</ele><time>2026-04-18T09:37:09Z</time></trkpt><trkpt lat="15.611106377962138" lon="120.61091110592155"><ele>28.0</ele><time>2026-04-18T09:37:10Z</time></trkpt><trkpt lat="15.611065981486544" lon="120.61082301257429"><ele>28.2</ele><time>2026-04-18T09:37:11Z</time></trkpt><trkpt lat="15.611025719489817" lon="120.61073209028338"><ele>28.4</ele><time>2026-04-18T09:37:12Z</time></trkpt><trkpt lat="15.610983102577185" lon="120.6106411945856"><ele>28.599999999999998</ele><time>2026-04-18T09:37:13Z</time></trkpt><trkpt lat="15.610938643813208" lon="120.61054726556095"><ele>28.799999999999997</ele><time>2026-04-18T09:37:14Z</time></trkpt><trkpt lat="15.610895275031645" lon="120.61044455279026"><ele>29.0</ele><time>2026-04-18T09:37:15Z</time></trkpt><trkpt lat="15.610846391601974" lon="120.61034353900493"><ele>29.0</ele><time>2026-04-18T09:37:16Z</time></trkpt><trkpt lat="15.610801058622096" lon="120.6102437569441"><ele>29.0</ele><time>2026-04-18T09:37:17Z</time></trkpt><trkpt lat="15.610757300943368" lon="120.6101427523693"><ele>29.0</ele><time>2026-04-18T09:37:18Z</time></trkpt><trkpt lat="15.61071220930315" lon="120.61004897289709"><ele>29.0</ele><time>2026-04-18T09:37:19Z</time></trkpt><trkpt lat="15.610667346082824" lon="120.60996202752541"><ele>29.0</ele><time>2026-04-18T09:37:20Z</time></trkpt><trkpt lat="15.61062401205057" lon="120.60987891693702"><ele>28.999999999999996</ele><time>2026-04-18T09:37:21Z</time></trkpt><trkpt lat="15.61058484798162" lon="120.60980213334751"><ele>29.0</ele><time>2026-04-18T09:37:22Z</time></trkpt><trkpt lat="15.610546397822423" lon="120.6097259558956"><ele>29.0</ele><time>2026-04-18T09:37:23Z</time></trkpt><trkpt lat="15.610508902632434" lon="120.60965466028553"><ele>29.0</ele><time>2026-04-18T09:37:24Z</time></trkpt><trkpt lat="15.61047318106719" lon="120.6095857192602"><ele>28.999999999999996</ele><time>2026-04-18T09:37:25Z</time></trkpt><trkpt lat="15.610437811742587" lon="120.60951640156858"><ele>29.0</ele><time>2026-04-18T09:37:26Z</time></trkpt><trkpt lat="15.61040180031331" lon="120.60944734643881"><ele>29.142857142857146</ele><time>2026-04-18T09:37:27Z</time></trkpt><trkpt lat="15.610366104301418" lon="120.60937907206545"><ele>29.285714285714285</ele><time>2026-04-18T09:37:28Z</time></trkpt><trkpt lat="15.61032939867721" lon="120.60931164497072"><ele>29.42857142857143</ele><time>2026-04-18T09:37:29Z</time></trkpt><trkpt lat="15.610292246627413" lon="120.60924531358916"><ele>29.571428571428573</ele><time>2026-04-18T09:37:30Z</time></trkpt><trkpt lat="15.61025638078458" lon="120.60918163147407"><ele>29.714285714285715</ele><time>2026-04-18T09:37:31Z</time></trkpt><trkpt lat="15.610219086643134" lon="120.60911714864206"><ele>29.857142857142858</ele><time>2026-04-18T09:37:32Z</time></trkpt><trkpt lat="15.610179920968278" lon="120.60905053242814"><ele>30.0</ele><time>2026-04-18T09:37:33Z</time></trkpt><trkpt lat="15.610139787144078" lon="120.60898267188263"><ele>30.333333333333332</ele><time>2026-04-18T09:37:34Z</time></trkpt><trkpt lat="15.610098570936927" lon="120.60891114100605"><ele>30.666666666666664</ele><time>2026-04-18T09:37:35Z</time></trkpt><trkpt lat="15.61005596167046" lon="120.60883492859413"><ele>31.0</ele><time>2026-04-18T09:37:36Z</time></trkpt><trkpt lat="15.610012138500394" lon="120.608759077005"><ele>31.333333333333332</ele><time>2026-04-18T09:37:37Z</time></trkpt><trkpt lat="15.609969816109057" lon="120.6086836755064"><ele>31.666666666666664</ele><time>2026-04-18T09:37:38Z</time></trkpt><trkpt lat="15.609926857545" lon="120.60860781308963"><ele>32.0</ele><time>2026-04-18T09:37:39Z</time></trkpt><trkpt lat="15.609884813671494" lon="120.60853049380157"><ele>32.166666666666664</ele><time>2026-04-18T09:37:40Z</time></trkpt><trkpt lat="15.609842836191843" lon="120.60845500845018"><ele>32.33333333333333</ele><time>2026-04-18T09:37:41Z</time></trkpt><trkpt lat="15.609799328379722" lon="120.60837953451394"><ele>32.5</ele><time>2026-04-18T09:37:42Z</time></trkpt><trkpt lat="15.609754073477829" lon="120.6083014672819"><ele>32.666666666666664</ele><time>2026-04-18T09:37:43Z</time></trkpt><trkpt lat="15.609710028336453" lon="120.60822354532742"><ele>32.833333333333336</ele><time>2026-04-18T09:37:44Z</time></trkpt><trkpt lat="15.609668065701484" lon="120.60814837419797"><ele>33.0</ele><time>2026-04-18T09:37:45Z</time></trkpt><trkpt lat="15.609626101268628" lon="120.60807466778338"><ele>33.0</ele><time>2026-04-18T09:37:46Z</time></trkpt><trkpt lat="15.609584027604726" lon="120.60800252918753"><ele>33.0</ele><time>2026-04-18T09:37:47Z</time></trkpt><trkpt lat="15.609542600430364" lon="120.60792963508793"><ele>33.0</ele><time>2026-04-18T09:37:48Z</time></trkpt><trkpt lat="15.609501313937313" lon="120.60785904665047"><ele>33.0</ele><time>2026-04-18T09:37:49Z</time></trkpt><trkpt lat="15.609462540671462" lon="120.6077915085186"><ele>33.0</ele><time>2026-04-18T09:37:50Z</time></trkpt><trkpt lat="15.609424682901624" lon="120.60772772793291"><ele>33.0</ele><time>2026-04-18T09:37:51Z</time></trkpt><trkpt lat="15.609385186379217" lon="120.6076638651527"><ele>32.857142857142854</ele><time>2026-04-18T09:37:52Z</time></trkpt><trkpt lat="15.609345797604817" lon="120.60760039589357"><ele>32.714285714285715</ele><time>2026-04-18T09:37:53Z</time></trkpt><trkpt lat="15.609306257336678" lon="120.60753862064477"><ele>32.57142857142857</ele><time>2026-04-18T09:37:54Z</time></trkpt><trkpt lat="15.60926660837643" lon="120.60747793514506"><ele>32.42857142857143</ele><time>2026-04-18T09:37:55Z</time></trkpt><trkpt lat="15.609227082704919" lon="120.60741847487981"><ele>32.285714285714285</ele><time>2026-04-18T09:37:56Z</time></trkpt><trkpt lat="15.609187575153754" lon="120.60735822777228"><ele>32.14285714285714</ele><time>2026-04-18T09:37:57Z</time></trkpt><trkpt lat="15.609147552010084" lon="120.60729755077142"><ele>32.0</ele><time>2026-04-18T09:37:58Z</time></trkpt><trkpt lat="15.609103404994247" lon="120.60723148623174"><ele>31.999999999999996</ele><time>2026-04-18T09:37:59Z</time></trkpt><trkpt lat="15.609058501678854" lon="120.6071620719273"><ele>32.0</ele><time>2026-04-18T09:38:00Z</time></trkpt><trkpt lat="15.609012421989194" lon="120.60709011616383"><ele>32.0</ele><time>2026-04-18T09:38:01Z</time></trkpt><trkpt lat="15.608965320295079" lon="120.60701656388876"><ele>32.0</ele><time>2026-04-18T09:38:02Z</time></trkpt><trkpt lat="15.608917776335735" lon="120.60694121715282"><ele>31.999999999999996</ele><time>2026-04-18T09:38:03Z</time></trkpt><trkpt lat="15.60887155208184" lon="120.60686592406581"><ele>32.0</ele><time>2026-04-18T09:38:04Z</time></trkpt><trkpt lat="15.608826080099506" lon="120.60679166376015"><ele>31.999999999999996</ele><time>2026-04-18T09:38:05Z</time></trkpt><trkpt lat="15.608780555262356" lon="120.60671635636993"><ele>32.0</ele><time>2026-04-18T09:38:06Z</time></trkpt><trkpt lat="15.608735533336118" lon="120.60664198214778"><ele>32.0</ele><time>2026-04-18T09:38:07Z</time></trkpt><trkpt lat="15.608690837300596" lon="120.60656695360328"><ele>32.0</ele><time>2026-04-18T09:38:08Z</time></trkpt><trkpt lat="15.60864673134605" lon="120.60649204442116"><ele>31.999999999999996</ele><time>2026-04-18T09:38:09Z</time></trkpt><trkpt lat="15.60860233121144" lon="120.60641705066838"><ele>32.0</ele><time>2026-04-18T09:38:10Z</time></trkpt><trkpt lat="15.608556762130796" lon="120.60634022326518"><ele>31.999999999999996</ele><time>2026-04-18T09:38:11Z</time></trkpt><trkpt lat="15.608510940789028" lon="120.6062640619437"><ele>32.0</ele><time>2026-04-18T09:38:12Z</time></trkpt><trkpt lat="15.608465678850367" lon="120.60618771984369"><ele>32.0</ele><time>2026-04-18T09:38:13Z</time></trkpt><trkpt lat="15.608421722846265" lon="120.60610956048838"><ele>32.0</ele><time>2026-04-18T09:38:14Z</time></trkpt><trkpt lat="15.608380178678777" lon="120.60603291758045"><ele>31.999999999999996</ele><time>2026-04-18T09:38:15Z</time></trkpt><trkpt lat="15.608341095509358" lon="120.60595628009447"><ele>32.0</ele><time>2026-04-18T09:38:16Z</time></trkpt><trkpt lat="15.608305199418675" lon="120.60587884717417"><ele>32.166666666666664</ele><time>2026-04-18T09:38:17Z</time></trkpt><trkpt lat="15.608272092163896" lon="120.60580227938188"><ele>32.33333333333333</ele><time>2026-04-18T09:38:18Z</time></trkpt><trkpt lat="15.608243015701474" lon="120.60572924082385"><ele>32.5</ele><time>2026-04-18T09:38:19Z</time></trkpt><trkpt lat="15.60821531260239" lon="120.60565831854402"><ele>32.666666666666664</ele><time>2026-04-18T09:38:20Z</time></trkpt><trkpt lat="15.60819082740443" lon="120.60559282693944"><ele>32.833333333333336</ele><time>2026-04-18T09:38:21Z</time></trkpt><trkpt lat="15.60816823198499" lon="120.60553064615054"><ele>33.0</ele><time>2026-04-18T09:38:22Z</time></trkpt><trkpt lat="15.608133387647865" lon="120.60541777378272"><ele>32.666666666666664</ele><time>2026-04-18T09:38:24Z</time></trkpt><trkpt lat="15.608108470438468" lon="120.6053208385449"><ele>32.333333333333336</ele><time>2026-04-18T09:38:26Z</time></trkpt><trkpt lat="15.608087567691387" lon="120.60523508722036"><ele>32.0</ele><time>2026-04-18T09:38:28Z</time></trkpt><trkpt lat="15.608070123731288" lon="120.60515990155169"><ele>31.666666666666668</ele><time>2026-04-18T09:38:30Z</time></trkpt><trkpt lat="15.608055995216166" lon="120.60509247979834"><ele>31.333333333333336</ele><time>2026-04-18T09:38:32Z</time></trkpt><trkpt lat="15.608042472624366" lon="120.60502234395754"><ele>31.0</ele><time>2026-04-18T09:38:37Z</time></trkpt><trkpt lat="15.608027658064499" lon="120.60494047072838"><ele>31.000000000000004</ele><time>2026-04-18T09:38:56Z</time></trkpt><trkpt lat="15.60801602224996" lon="120.60486169352765"><ele>31.0</ele><time>2026-04-18T09:38:59Z</time></trkpt><trkpt lat="15.608003247744623" lon="120.60477657769756"><ele>31.0</ele><time>2026-04-18T09:39:02Z</time></trkpt><trkpt lat="15.60799261128112" lon="120.60469736306204"><ele>31.0</ele><time>2026-04-18T09:39:04Z</time></trkpt><trkpt lat="15.607978474386398" lon="120.60461143756345"><ele>31.000000000000004</ele><time>2026-04-18T09:39:06Z</time></trkpt><trkpt lat="15.607976732126401" lon="120.60451825040768"><ele>31.0</ele><time>2026-04-18T09:39:08Z</time></trkpt><trkpt lat="15.607947392985093" lon="120.60441100139549"><ele>30.4</ele><time>2026-04-18T09:39:10Z</time></trkpt><trkpt lat="15.607942459520835" lon="120.60429337376775"><ele>29.8</ele><time>2026-04-18T09:39:12Z</time></trkpt><trkpt lat="15.607929408526397" lon="120.60417647255939"><ele>29.199999999999996</ele><time>2026-04-18T09:39:14Z</time></trkpt><trkpt lat="15.607912996024892" lon="120.60406197194749"><ele>28.599999999999998</ele><time>2026-04-18T09:39:16Z</time></trkpt><trkpt lat="15.607918443314032" lon="120.60394876493714"><ele>28.0</ele><time>2026-04-18T09:39:18Z</time></trkpt><trkpt lat="15.607903363634374" lon="120.60383704643353"><ele>28.0</ele><time>2026-04-18T09:39:20Z</time></trkpt><trkpt lat="15.607885813244419" lon="120.60372472423688"><ele>27.999999999999996</ele><time>2026-04-18T09:39:22Z</time></trkpt><trkpt lat="15.607840503697068" lon="120.60361237895127"><ele>27.999999999999996</ele><time>2026-04-18T09:39:24Z</time></trkpt><trkpt lat="15.607820986679094" lon="120.60348185426547"><ele>28.0</ele><time>2026-04-18T09:39:26Z</time></trkpt><trkpt lat="15.607796950150238" lon="120.60341250120803"><ele>28.0</ele><time>2026-04-18T09:39:27Z</time></trkpt><trkpt lat="15.607770259969099" lon="120.60334267735645"><ele>28.333333333333336</ele><time>2026-04-18T09:39:28Z</time></trkpt><trkpt lat="15.607727356011475" lon="120.60327615797245"><ele>28.666666666666668</ele><time>2026-04-18T09:39:29Z</time></trkpt><trkpt lat="15.607675112458722" lon="120.60321817978027"><ele>29.0</ele><time>2026-04-18T09:39:30Z</time></trkpt><trkpt lat="15.607637365455615" lon="120.60315027815939"><ele>29.333333333333336</ele><time>2026-04-18T09:39:31Z</time></trkpt><trkpt lat="15.607597920493394" lon="120.60308309064625"><ele>29.666666666666668</ele><time>2026-04-18T09:39:32Z</time></trkpt><trkpt lat="15.607556916819298" lon="120.603016118856"><ele>30.0</ele><time>2026-04-18T09:39:33Z</time></trkpt><trkpt lat="15.60751418967159" lon="120.60295122737698"><ele>30.0</ele><time>2026-04-18T09:39:34Z</time></trkpt><trkpt lat="15.607470322697369" lon="120.60288578879424"><ele>30.0</ele><time>2026-04-18T09:39:35Z</time></trkpt><trkpt lat="15.607427252743767" lon="120.60282227706699"><ele>30.0</ele><time>2026-04-18T09:39:36Z</time></trkpt><trkpt lat="15.607384497332406" lon="120.60275903264669"><ele>30.0</ele><time>2026-04-18T09:39:37Z</time></trkpt><trkpt lat="15.607342985844202" lon="120.60269623024512"><ele>30.0</ele><time>2026-04-18T09:39:38Z</time></trkpt><trkpt lat="15.607301512979323" lon="120.60263362257872"><ele>30.0</ele><time>2026-04-18T09:39:39Z</time></trkpt><trkpt lat="15.607261470959854" lon="120.6025713318788"><ele>30.0</ele><time>2026-04-18T09:39:40Z</time></trkpt><trkpt lat="15.60722429691153" lon="120.60250719835531"><ele>30.5</ele><time>2026-04-18T09:39:41Z</time></trkpt><trkpt lat="15.607192270026703" lon="120.60244152677463"><ele>31.0</ele><time>2026-04-18T09:39:42Z</time></trkpt><trkpt lat="15.607162753073585" lon="120.60237655942579"><ele>31.5</ele><time>2026-04-18T09:39:43Z</time></trkpt><trkpt lat="15.607135371911442" lon="120.60231096318306"><ele>32.0</ele><time>2026-04-18T09:39:44Z</time></trkpt><trkpt lat="15.607109881360005" lon="120.60224670160075"><ele>32.5</ele><time>2026-04-18T09:39:45Z</time></trkpt><trkpt lat="15.607084650395496" lon="120.60218118744902"><ele>33.0</ele><time>2026-04-18T09:39:46Z</time></trkpt><trkpt lat="15.60704120694994" lon="120.60206244049073"><ele>33.0</ele><time>2026-04-18T09:39:48Z</time></trkpt><trkpt lat="15.60699729112577" lon="120.60194394828886"><ele>33.0</ele><time>2026-04-18T09:39:50Z</time></trkpt><trkpt lat="15.60695341895768" lon="120.60182458111565"><ele>33.0</ele><time>2026-04-18T09:39:52Z</time></trkpt><trkpt lat="15.606911703803599" lon="120.60170987293291"><ele>33.0</ele><time>2026-04-18T09:39:54Z</time></trkpt><trkpt lat="15.606869590239073" lon="120.6015927568586"><ele>32.6</ele><time>2026-04-18T09:39:56Z</time></trkpt><trkpt lat="15.606847260817498" lon="120.60153144724458"><ele>32.199999999999996</ele><time>2026-04-18T09:39:57Z</time></trkpt><trkpt lat="15.606802593903941" lon="120.60141196730638"><ele>31.8</ele><time>2026-04-18T09:39:59Z</time></trkpt><trkpt lat="15.60675875249495" lon="120.60129329794749"><ele>31.4</ele><time>2026-04-18T09:40:01Z</time></trkpt><trkpt lat="15.606712105630862" lon="120.60117539057246"><ele>31.0</ele><time>2026-04-18T09:40:03Z</time></trkpt><trkpt lat="15.606666454911469" lon="120.60106482431198"><ele>31.0</ele><time>2026-04-18T09:40:05Z</time></trkpt><trkpt lat="15.606617467871143" lon="120.60096042505529"><ele>31.0</ele><time>2026-04-18T09:40:07Z</time></trkpt><trkpt lat="15.6065705122085" lon="120.60086829885034"><ele>31.0</ele><time>2026-04-18T09:40:09Z</time></trkpt><trkpt lat="15.606524771157261" lon="120.60078325113415"><ele>31.0</ele><time>2026-04-18T09:40:11Z</time></trkpt><trkpt lat="15.606473732071878" lon="120.60069030086964"><ele>31.0</ele><time>2026-04-18T09:40:13Z</time></trkpt><trkpt lat="15.606419143780743" lon="120.60059057606247"><ele>31.0</ele><time>2026-04-18T09:40:15Z</time></trkpt><trkpt lat="15.606365245558006" lon="120.60049245565051"><ele>31.0</ele><time>2026-04-18T09:40:17Z</time></trkpt><trkpt lat="15.606312519710087" lon="120.60039689014145"><ele>31.0</ele><time>2026-04-18T09:40:19Z</time></trkpt><trkpt lat="15.606263640632921" lon="120.60030183199875"><ele>31.0</ele><time>2026-04-18T09:40:21Z</time></trkpt><trkpt lat="15.60622005744988" lon="120.60020888649292"><ele>31.0</ele><time>2026-04-18T09:40:23Z</time></trkpt><trkpt lat="15.606186939758343" lon="120.60014152606327"><ele>31.333333333333336</ele><time>2026-04-18T09:40:25Z</time></trkpt><trkpt lat="15.606155019770995" lon="120.60007600272202"><ele>31.666666666666668</ele><time>2026-04-18T09:40:27Z</time></trkpt><trkpt lat="15.606125357883762" lon="120.60001251003736"><ele>32.0</ele><time>2026-04-18T09:40:29Z</time></trkpt><trkpt lat="15.606095150672255" lon="120.5999473337999"><ele>32.333333333333336</ele><time>2026-04-18T09:40:31Z</time></trkpt><trkpt lat="15.60605943668353" lon="120.5998753213731"><ele>32.666666666666664</ele><time>2026-04-18T09:40:33Z</time></trkpt><trkpt lat="15.606020876270975" lon="120.59979600533767"><ele>33.0</ele><time>2026-04-18T09:40:35Z</time></trkpt><trkpt lat="15.60598515764196" lon="120.59970932173806"><ele>33.0</ele><time>2026-04-18T09:40:37Z</time></trkpt><trkpt lat="15.605953866340483" lon="120.59963321582043"><ele>33.0</ele><time>2026-04-18T09:40:39Z</time></trkpt><trkpt lat="15.605920362293025" lon="120.59955930734726"><ele>33.0</ele><time>2026-04-18T09:40:42Z</time></trkpt><trkpt lat="15.605886678146618" lon="120.5994826257538"><ele>33.0</ele><time>2026-04-18T09:40:46Z</time></trkpt><trkpt lat="15.605852700457097" lon="120.59941149652832"><ele>33.0</ele><time>2026-04-18T09:40:50Z</time></trkpt><trkpt lat="15.605816777850661" lon="120.59933842813804"><ele>33.0</ele><time>2026-04-18T09:40:53Z</time></trkpt><trkpt lat="15.605788551905546" lon="120.59927781901074"><ele>32.8</ele><time>2026-04-18T09:40:55Z</time></trkpt><trkpt lat="15.605769267512771" lon="120.5991992467332"><ele>32.599999999999994</ele><time>2026-04-18T09:40:59Z</time></trkpt><trkpt lat="15.605903970660066" lon="120.59914526983411"><ele>32.400000000000006</ele><time>2026-04-18T09:41:07Z</time></trkpt><trkpt lat="15.605993198065482" lon="120.59910579784967"><ele>32.2</ele><time>2026-04-18T09:41:09Z</time></trkpt><trkpt lat="15.606089889654452" lon="120.5990630239198"><ele>32.0</ele><time>2026-04-18T09:41:11Z</time></trkpt><trkpt lat="15.606182044341887" lon="120.59902225700807"><ele>32.4</ele><time>2026-04-18T09:41:13Z</time></trkpt><trkpt lat="15.606282530944434" lon="120.59897483585576"><ele>32.800000000000004</ele><time>2026-04-18T09:41:15Z</time></trkpt><trkpt lat="15.606375423598934" lon="120.59892208718158"><ele>33.2</ele><time>2026-04-18T09:41:17Z</time></trkpt><trkpt lat="15.606431326208135" lon="120.59883480941807"><ele>33.6</ele><time>2026-04-18T09:41:19Z</time></trkpt><trkpt lat="15.606454879726433" lon="120.59874431479321"><ele>34.0</ele><time>2026-04-18T09:41:21Z</time></trkpt><trkpt lat="15.606436720563906" lon="120.59864787171836"><ele>34.2</ele><time>2026-04-18T09:41:23Z</time></trkpt><trkpt lat="15.606407198345885" lon="120.5985563819105"><ele>34.4</ele><time>2026-04-18T09:41:25Z</time></trkpt><trkpt lat="15.606378332085425" lon="120.59845798078437"><ele>34.6</ele><time>2026-04-18T09:41:27Z</time></trkpt><trkpt lat="15.606381733302404" lon="120.5983523347511"><ele>34.8</ele><time>2026-04-18T09:41:29Z</time></trkpt><trkpt lat="15.606423887082281" lon="120.5982694497529"><ele>35.0</ele><time>2026-04-18T09:41:31Z</time></trkpt><trkpt lat="15.606494348556584" lon="120.5982351631793"><ele>35.0</ele><time>2026-04-18T09:41:33Z</time></trkpt><trkpt lat="15.606560595886531" lon="120.59820945730493"><ele>35.0</ele><time>2026-04-18T09:41:35Z</time></trkpt><trkpt lat="15.606622315493604" lon="120.59818510580592"><ele>35.0</ele><time>2026-04-18T09:41:37Z</time></trkpt><trkpt lat="15.606684405728348" lon="120.59816060806246"><ele>35.0</ele><time>2026-04-18T09:41:39Z</time></trkpt><trkpt lat="15.606762471228153" lon="120.59812980707318"><ele>35.0</ele><time>2026-04-18T09:41:42Z</time></trkpt><trkpt lat="15.606833233436555" lon="120.59810137901404"><ele>35.0</ele><time>2026-04-18T09:41:45Z</time></trkpt><trkpt lat="15.606917351909521" lon="120.59806784674821"><ele>35.0</ele><time>2026-04-18T09:41:49Z</time></trkpt><trkpt lat="15.607000863059834" lon="120.59803455660447"><ele>35.0</ele><time>2026-04-18T09:41:52Z</time></trkpt><trkpt lat="15.60706352167877" lon="120.59800957891618"><ele>35.0</ele><time>2026-04-18T09:41:54Z</time></trkpt><trkpt lat="15.607143368291203" lon="120.5979777495709"><ele>35.0</ele><time>2026-04-18T09:41:57Z</time></trkpt><trkpt lat="15.60722447403046" lon="120.59794749242204"><ele>35.0</ele><time>2026-04-18T09:42:01Z</time></trkpt><trkpt lat="15.607297405278192" lon="120.59792153015334"><ele>35.0</ele><time>2026-04-18T09:42:03Z</time></trkpt><trkpt lat="15.607380643321546" lon="120.59789189885407"><ele>35.0</ele><time>2026-04-18T09:42:05Z</time></trkpt><trkpt lat="15.607465193107403" lon="120.59786180059406"><ele>35.0</ele><time>2026-04-18T09:42:07Z</time></trkpt><trkpt lat="15.607543397807511" lon="120.5978339610768"><ele>35.0</ele><time>2026-04-18T09:42:09Z</time></trkpt><trkpt lat="15.607605698239524" lon="120.59781129555459"><ele>35.0</ele><time>2026-04-18T09:42:12Z</time></trkpt><trkpt lat="15.607626732832127" lon="120.59768392945591"><ele>35.0</ele><time>2026-04-18T09:42:17Z</time></trkpt><trkpt lat="15.607612162615336" lon="120.59761244094152"><ele>35.0</ele><time>2026-04-18T09:42:19Z</time></trkpt><trkpt lat="15.607596825462966" lon="120.59750821683016"><ele>34.666666666666664</ele><time>2026-04-18T09:42:21Z</time></trkpt><trkpt lat="15.607580329143028" lon="120.59737817787367"><ele>34.33333333333333</ele><time>2026-04-18T09:42:23Z</time></trkpt><trkpt lat="15.607571024099355" lon="120.5973020615953"><ele>34.0</ele><time>2026-04-18T09:42:24Z</time></trkpt><trkpt lat="15.607562605602782" lon="120.597221055965"><ele>33.666666666666664</ele><time>2026-04-18T09:42:25Z</time></trkpt><trkpt lat="15.6075550555881" lon="120.59713640665389"><ele>33.333333333333336</ele><time>2026-04-18T09:42:26Z</time></trkpt><trkpt lat="15.607546657608149" lon="120.59704793327671"><ele>33.0</ele><time>2026-04-18T09:42:27Z</time></trkpt><trkpt lat="15.607536973641894" lon="120.59695648260289"><ele>33.0</ele><time>2026-04-18T09:42:28Z</time></trkpt><trkpt lat="15.607527210633915" lon="120.59686416876343"><ele>33.0</ele><time>2026-04-18T09:42:29Z</time></trkpt><trkpt lat="15.607518811184976" lon="120.59677003370999"><ele>33.0</ele><time>2026-04-18T09:42:30Z</time></trkpt><trkpt lat="15.607509691830801" lon="120.59667567653695"><ele>33.0</ele><time>2026-04-18T09:42:31Z</time></trkpt><trkpt lat="15.607500691413412" lon="120.59658096799443"><ele>33.0</ele><time>2026-04-18T09:42:32Z</time></trkpt><trkpt lat="15.607492362173673" lon="120.5964848033332"><ele>33.0</ele><time>2026-04-18T09:42:33Z</time></trkpt><trkpt lat="15.60748345958814" lon="120.59638698555258"><ele>33.0</ele><time>2026-04-18T09:42:34Z</time></trkpt><trkpt lat="15.607475304741715" lon="120.59628814441001"><ele>33.0</ele><time>2026-04-18T09:42:35Z</time></trkpt><trkpt lat="15.60746821185441" lon="120.59618955506765"><ele>33.0</ele><time>2026-04-18T09:42:36Z</time></trkpt><trkpt lat="15.607461348003566" lon="120.5960928249322"><ele>33.0</ele><time>2026-04-18T09:42:37Z</time></trkpt><trkpt lat="15.607455572491709" lon="120.59599840181464"><ele>32.833333333333336</ele><time>2026-04-18T09:42:38Z</time></trkpt><trkpt lat="15.607448399470076" lon="120.5959062407196"><ele>32.666666666666664</ele><time>2026-04-18T09:42:39Z</time></trkpt><trkpt lat="15.607440650649567" lon="120.59581413946695"><ele>32.5</ele><time>2026-04-18T09:42:40Z</time></trkpt><trkpt lat="15.607434506033478" lon="120.59572481035032"><ele>32.33333333333333</ele><time>2026-04-18T09:42:41Z</time></trkpt><trkpt lat="15.607429182131517" lon="120.59563681712221"><ele>32.166666666666664</ele><time>2026-04-18T09:42:42Z</time></trkpt><trkpt lat="15.607422286639482" lon="120.59555012886754"><ele>32.0</ele><time>2026-04-18T09:42:43Z</time></trkpt><trkpt lat="15.607415289459846" lon="120.59546456513658"><ele>31.999999999999996</ele><time>2026-04-18T09:42:44Z</time></trkpt><trkpt lat="15.607410690744684" lon="120.59537906496064"><ele>32.0</ele><time>2026-04-18T09:42:45Z</time></trkpt><trkpt lat="15.607405238254247" lon="120.59529585790384"><ele>32.0</ele><time>2026-04-18T09:42:46Z</time></trkpt><trkpt lat="15.607398323990491" lon="120.59521241210093"><ele>32.0</ele><time>2026-04-18T09:42:47Z</time></trkpt><trkpt lat="15.607390640115952" lon="120.59512790148311"><ele>31.999999999999996</ele><time>2026-04-18T09:42:48Z</time></trkpt><trkpt lat="15.60738505104386" lon="120.59504089089572"><ele>32.0</ele><time>2026-04-18T09:42:49Z</time></trkpt><trkpt lat="15.607378256224496" lon="120.59495203820406"><ele>32.0</ele><time>2026-04-18T09:42:50Z</time></trkpt><trkpt lat="15.607372472175195" lon="120.59486198832741"><ele>32.0</ele><time>2026-04-18T09:42:51Z</time></trkpt><trkpt lat="15.607367482154459" lon="120.59477168652748"><ele>32.0</ele><time>2026-04-18T09:42:52Z</time></trkpt><trkpt lat="15.607366925707597" lon="120.59467733181681"><ele>32.0</ele><time>2026-04-18T09:42:53Z</time></trkpt><trkpt lat="15.607371168507912" lon="120.59458076171552"><ele>32.0</ele><time>2026-04-18T09:42:54Z</time></trkpt><trkpt lat="15.607382108529727" lon="120.5944818096484"><ele>32.6</ele><time>2026-04-18T09:42:55Z</time></trkpt><trkpt lat="15.607397404673323" lon="120.59438143774356"><ele>33.2</ele><time>2026-04-18T09:42:56Z</time></trkpt><trkpt lat="15.60741450742397" lon="120.5942802441799"><ele>33.8</ele><time>2026-04-18T09:42:57Z</time></trkpt><trkpt lat="15.60743299784717" lon="120.59418366314269"><ele>34.4</ele><time>2026-04-18T09:42:58Z</time></trkpt><trkpt lat="15.607452640329678" lon="120.59408733656646"><ele>35.0</ele><time>2026-04-18T09:42:59Z</time></trkpt><trkpt lat="15.607471193740857" lon="120.59399307227731"><ele>35.0</ele><time>2026-04-18T09:43:00Z</time></trkpt><trkpt lat="15.607492734423774" lon="120.59390042785077"><ele>35.0</ele><time>2026-04-18T09:43:01Z</time></trkpt><trkpt lat="15.607517675463528" lon="120.59380619686925"><ele>35.0</ele><time>2026-04-18T09:43:02Z</time></trkpt><trkpt lat="15.607551324525948" lon="120.5937138105344"><ele>35.0</ele><time>2026-04-18T09:43:03Z</time></trkpt><trkpt lat="15.607595368841226" lon="120.59362325422534"><ele>35.0</ele><time>2026-04-18T09:43:04Z</time></trkpt><trkpt lat="15.607645017811077" lon="120.59353195885349"><ele>34.4</ele><time>2026-04-18T09:43:05Z</time></trkpt><trkpt lat="15.6076977912612" lon="120.59344026892975"><ele>33.8</ele><time>2026-04-18T09:43:06Z</time></trkpt><trkpt lat="15.607760057730514" lon="120.59334977449492"><ele>33.2</ele><time>2026-04-18T09:43:07Z</time></trkpt><trkpt lat="15.607815756031405" lon="120.59325459527619"><ele>32.6</ele><time>2026-04-18T09:43:08Z</time></trkpt><trkpt lat="15.6078582888259" lon="120.5931621672502"><ele>32.0</ele><time>2026-04-18T09:43:09Z</time></trkpt><trkpt lat="15.607914996016094" lon="120.59307034593861"><ele>31.999999999999996</ele><time>2026-04-18T09:43:10Z</time></trkpt><trkpt lat="15.607959974785741" lon="120.59299489698887"><ele>32.0</ele><time>2026-04-18T09:43:11Z</time></trkpt><trkpt lat="15.60800168518798" lon="120.59292006511015"><ele>32.0</ele><time>2026-04-18T09:43:12Z</time></trkpt><trkpt lat="15.608058011709707" lon="120.59285572935227"><ele>32.0</ele><time>2026-04-18T09:43:13Z</time></trkpt><trkpt lat="15.608106343141081" lon="120.59277108854565"><ele>31.999999999999996</ele><time>2026-04-18T09:43:14Z</time></trkpt><trkpt lat="15.6081415239367" lon="120.59267679577367"><ele>32.0</ele><time>2026-04-18T09:43:15Z</time></trkpt><trkpt lat="15.608197745101432" lon="120.59258794554827"><ele>31.6</ele><time>2026-04-18T09:43:16Z</time></trkpt><trkpt lat="15.608251017021992" lon="120.59249556836065"><ele>31.200000000000003</ele><time>2026-04-18T09:43:17Z</time></trkpt><trkpt lat="15.608301015667628" lon="120.59240991244675"><ele>30.8</ele><time>2026-04-18T09:43:18Z</time></trkpt><trkpt lat="15.608358692472398" lon="120.59231875604361"><ele>30.4</ele><time>2026-04-18T09:43:19Z</time></trkpt><trkpt lat="15.608415255844822" lon="120.59222942396327"><ele>30.0</ele><time>2026-04-18T09:43:20Z</time></trkpt><trkpt lat="15.608460534336855" lon="120.5921350984651"><ele>30.0</ele><time>2026-04-18T09:43:21Z</time></trkpt><trkpt lat="15.608503800888483" lon="120.59203850872618"><ele>30.0</ele><time>2026-04-18T09:43:22Z</time></trkpt><trkpt lat="15.608548229257277" lon="120.59194541578164"><ele>30.0</ele><time>2026-04-18T09:43:23Z</time></trkpt><trkpt lat="15.608591321923544" lon="120.59185836516279"><ele>30.0</ele><time>2026-04-18T09:43:24Z</time></trkpt><trkpt lat="15.608633816702644" lon="120.59177601181301"><ele>30.0</ele><time>2026-04-18T09:43:25Z</time></trkpt><trkpt lat="15.60866544379899" lon="120.59170401925472"><ele>30.142857142857146</ele><time>2026-04-18T09:43:26Z</time></trkpt><trkpt lat="15.608698174819443" lon="120.59163720819383"><ele>30.285714285714285</ele><time>2026-04-18T09:43:27Z</time></trkpt><trkpt lat="15.608733693089713" lon="120.59157161908954"><ele>30.42857142857143</ele><time>2026-04-18T09:43:28Z</time></trkpt><trkpt lat="15.608774402277373" lon="120.59151131276552"><ele>30.571428571428573</ele><time>2026-04-18T09:43:29Z</time></trkpt><trkpt lat="15.608808318601136" lon="120.59145150313165"><ele>30.714285714285715</ele><time>2026-04-18T09:43:30Z</time></trkpt><trkpt lat="15.608842680003892" lon="120.59139250768824"><ele>30.857142857142858</ele><time>2026-04-18T09:43:31Z</time></trkpt><trkpt lat="15.608881901328404" lon="120.59132605641933"><ele>31.0</ele><time>2026-04-18T09:43:32Z</time></trkpt><trkpt lat="15.60894193632672" lon="120.59126720381316"><ele>31.0</ele><time>2026-04-18T09:43:33Z</time></trkpt><trkpt lat="15.608978735243314" lon="120.59118544203449"><ele>31.0</ele><time>2026-04-18T09:43:34Z</time></trkpt><trkpt lat="15.609035014510221" lon="120.59111058007863"><ele>31.0</ele><time>2026-04-18T09:43:35Z</time></trkpt><trkpt lat="15.609094776603381" lon="120.59102709744306"><ele>31.0</ele><time>2026-04-18T09:43:36Z</time></trkpt><trkpt lat="15.609159118202834" lon="120.59094322404982"><ele>31.0</ele><time>2026-04-18T09:43:37Z</time></trkpt><trkpt lat="15.609223101660202" lon="120.59085859693407"><ele>31.0</ele><time>2026-04-18T09:43:38Z</time></trkpt><trkpt lat="15.60928649255112" lon="120.59077497811332"><ele>31.0</ele><time>2026-04-18T09:43:39Z</time></trkpt><trkpt lat="15.609344673010343" lon="120.59069184063868"><ele>31.0</ele><time>2026-04-18T09:43:40Z</time></trkpt><trkpt lat="15.609400773409805" lon="120.59060865586342"><ele>31.0</ele><time>2026-04-18T09:43:41Z</time></trkpt><trkpt lat="15.609451157496828" lon="120.59051597150145"><ele>31.0</ele><time>2026-04-18T09:43:42Z</time></trkpt><trkpt lat="15.609497624851377" lon="120.5904228237523"><ele>30.6</ele><time>2026-04-18T09:43:43Z</time></trkpt><trkpt lat="15.609542507678308" lon="120.59032612415395"><ele>30.200000000000003</ele><time>2026-04-18T09:43:44Z</time></trkpt><trkpt lat="15.609586668493405" lon="120.59022659950867"><ele>29.799999999999997</ele><time>2026-04-18T09:43:45Z</time></trkpt><trkpt lat="15.609633916683995" lon="120.59012448163044"><ele>29.4</ele><time>2026-04-18T09:43:46Z</time></trkpt><trkpt lat="15.609681591682856" lon="120.59002123339087"><ele>29.0</ele><time>2026-04-18T09:43:47Z</time></trkpt><trkpt lat="15.609729238391846" lon="120.58991683693897"><ele>29.0</ele><time>2026-04-18T09:43:48Z</time></trkpt><trkpt lat="15.609775800819964" lon="120.58981320113442"><ele>29.0</ele><time>2026-04-18T09:43:49Z</time></trkpt><trkpt lat="15.60982230570412" lon="120.58971350565332"><ele>29.0</ele><time>2026-04-18T09:43:50Z</time></trkpt><trkpt lat="15.609869372571183" lon="120.58961661621088"><ele>29.0</ele><time>2026-04-18T09:43:51Z</time></trkpt><trkpt lat="15.609912698374329" lon="120.58952274896963"><ele>29.0</ele><time>2026-04-18T09:43:52Z</time></trkpt><trkpt lat="15.609952994746834" lon="120.58943355995024"><ele>28.833333333333332</ele><time>2026-04-18T09:43:53Z</time></trkpt><trkpt lat="15.609991503948153" lon="120.58934796420802"><ele>28.666666666666664</ele><time>2026-04-18T09:43:54Z</time></trkpt><trkpt lat="15.610027234085235" lon="120.58926802334584"><ele>28.5</ele><time>2026-04-18T09:43:55Z</time></trkpt><trkpt lat="15.610060169389788" lon="120.58919591068764"><ele>28.333333333333336</ele><time>2026-04-18T09:43:56Z</time></trkpt><trkpt lat="15.610088463342892" lon="120.58913209912828"><ele>28.166666666666668</ele><time>2026-04-18T09:43:57Z</time></trkpt><trkpt lat="15.610136315175946" lon="120.58902136613543"><ele>28.0</ele><time>2026-04-18T09:43:59Z</time></trkpt><trkpt lat="15.610177750465699" lon="120.58892761412078"><ele>28.000000000000004</ele><time>2026-04-18T09:44:01Z</time></trkpt><trkpt lat="15.6102163506958" lon="120.58883610443614"><ele>28.0</ele><time>2026-04-18T09:44:03Z</time></trkpt><trkpt lat="15.610252377997009" lon="120.58874749903676"><ele>28.0</ele><time>2026-04-18T09:44:05Z</time></trkpt><trkpt lat="15.610281896513444" lon="120.58865589022876"><ele>28.0</ele><time>2026-04-18T09:44:07Z</time></trkpt><trkpt lat="15.61030089094718" lon="120.58856823723883"><ele>28.000000000000004</ele><time>2026-04-18T09:44:09Z</time></trkpt><trkpt lat="15.610311480352149" lon="120.58849076802059"><ele>28.0</ele><time>2026-04-18T09:44:11Z</time></trkpt><trkpt lat="15.610321481170153" lon="120.58840862944594"><ele>28.142857142857142</ele><time>2026-04-18T09:44:13Z</time></trkpt><trkpt lat="15.610344171207313" lon="120.58830855506875"><ele>28.285714285714285</ele><time>2026-04-18T09:44:15Z</time></trkpt><trkpt lat="15.610379935673603" lon="120.58825332613213"><ele>28.42857142857143</ele><time>2026-04-18T09:44:16Z</time></trkpt><trkpt lat="15.610441448836584" lon="120.58821597324349"><ele>28.571428571428573</ele><time>2026-04-18T09:44:17Z</time></trkpt><trkpt lat="15.61048895989992" lon="120.58816578110319"><ele>28.714285714285715</ele><time>2026-04-18T09:44:18Z</time></trkpt><trkpt lat="15.610530174311293" lon="120.58810468879972"><ele>28.85714285714286</ele><time>2026-04-18T09:44:19Z</time></trkpt><trkpt lat="15.610586835530457" lon="120.58805493708898"><ele>29.000000000000004</ele><time>2026-04-18T09:44:20Z</time></trkpt><trkpt lat="15.610645178245713" lon="120.58800274342587"><ele>28.999999999999996</ele><time>2026-04-18T09:44:21Z</time></trkpt><trkpt lat="15.610704394327755" lon="120.58794833488483"><ele>29.0</ele><time>2026-04-18T09:44:22Z</time></trkpt><trkpt lat="15.61076479185292" lon="120.58788812159935"><ele>29.0</ele><time>2026-04-18T09:44:23Z</time></trkpt><trkpt lat="15.610829105727934" lon="120.58782724400636"><ele>29.0</ele><time>2026-04-18T09:44:24Z</time></trkpt><trkpt lat="15.610895827581901" lon="120.58776876782059"><ele>28.999999999999996</ele><time>2026-04-18T09:44:25Z</time></trkpt><trkpt lat="15.610978351751966" lon="120.5877299784608"><ele>29.0</ele><time>2026-04-18T09:44:26Z</time></trkpt><trkpt lat="15.611056216289281" lon="120.58768347207773"><ele>29.0</ele><time>2026-04-18T09:44:27Z</time></trkpt><trkpt lat="15.611132914815027" lon="120.58762528940106"><ele>29.0</ele><time>2026-04-18T09:44:28Z</time></trkpt><trkpt lat="15.611237229516128" lon="120.58763047059797"><ele>29.0</ele><time>2026-04-18T09:44:29Z</time></trkpt><trkpt lat="15.611337322261459" lon="120.5876142519266"><ele>29.0</ele><time>2026-04-18T09:44:30Z</time></trkpt><trkpt lat="15.611438847719807" lon="120.58761072222923"><ele>29.0</ele><time>2026-04-18T09:44:31Z</time></trkpt><trkpt lat="15.611549400056713" lon="120.58761487879885"><ele>29.0</ele><time>2026-04-18T09:44:32Z</time></trkpt><trkpt lat="15.611662542988288" lon="120.58761999199959"><ele>29.0</ele><time>2026-04-18T09:44:33Z</time></trkpt><trkpt lat="15.611775339317232" lon="120.58763161740761"><ele>29.0</ele><time>2026-04-18T09:44:34Z</time></trkpt><trkpt lat="15.611893750837291" lon="120.58764804685563"><ele>29.0</ele><time>2026-04-18T09:44:35Z</time></trkpt><trkpt lat="15.612011753711842" lon="120.58766495162477"><ele>29.5</ele><time>2026-04-18T09:44:36Z</time></trkpt><trkpt lat="15.612129973248589" lon="120.58768216932911"><ele>30.0</ele><time>2026-04-18T09:44:37Z</time></trkpt><trkpt lat="15.612244807400364" lon="120.58769889398883"><ele>30.5</ele><time>2026-04-18T09:44:38Z</time></trkpt><trkpt lat="15.61235579970659" lon="120.58771504652046"><ele>31.0</ele><time>2026-04-18T09:44:39Z</time></trkpt><trkpt lat="15.612460821564179" lon="120.58773014588644"><ele>31.000000000000004</ele><time>2026-04-18T09:44:40Z</time></trkpt><trkpt lat="15.612558978378187" lon="120.587744884126"><ele>31.0</ele><time>2026-04-18T09:44:41Z</time></trkpt><trkpt lat="15.61264891158449" lon="120.58775773173551"><ele>31.0</ele><time>2026-04-18T09:44:42Z</time></trkpt><trkpt lat="15.612733691874144" lon="120.58776453650756"><ele>31.0</ele><time>2026-04-18T09:44:43Z</time></trkpt><trkpt lat="15.612802018486937" lon="120.58776240623112"><ele>31.000000000000004</ele><time>2026-04-18T09:44:44Z</time></trkpt><trkpt lat="15.612893357045005" lon="120.58774501432771"><ele>31.0</ele><time>2026-04-18T09:44:46Z</time></trkpt><trkpt lat="15.612950648695287" lon="120.58771493662432"><ele>31.000000000000004</ele><time>2026-04-18T09:44:49Z</time></trkpt><trkpt lat="15.613014610485802" lon="120.58770582406208"><ele>31.0</ele><time>2026-04-18T09:44:54Z</time></trkpt><trkpt lat="15.612996578020978" lon="120.5878407894323"><ele>31.0</ele><time>2026-04-18T09:44:55Z</time></trkpt><trkpt lat="15.612991098393621" lon="120.58790908422061"><ele>31.0</ele><time>2026-04-18T09:45:01Z</time></trkpt><trkpt lat="15.612988473715475" lon="120.58798332864363"><ele>31.000000000000004</ele><time>2026-04-18T09:45:05Z</time></trkpt><trkpt lat="15.612930169706672" lon="120.58801935741332"><ele>31.0</ele><time>2026-04-18T09:45:43Z</time></trkpt><trkpt lat="15.612882592514401" lon="120.58808219034012"><ele>31.0</ele><time>2026-04-18T09:47:28Z</time></trkpt><trkpt lat="15.612816585831878" lon="120.5881303619061"><ele>31.0</ele><time>2026-04-18T09:47:45.035Z</time></trkpt><trkpt lat="15.612762396464994" lon="120.5880667788114"><ele>31.0</ele><time>2026-04-18T09:47:53.036Z</time></trkpt><trkpt lat="15.61289983442392" lon="120.58788726780466"><ele>31.0</ele><time>2026-04-18T09:47:58.035Z</time></trkpt><trkpt lat="15.612822332032547" lon="120.58803847044007"><ele>31.0</ele><time>2026-04-18T09:48:07Z</time></trkpt><trkpt lat="15.612832982467395" lon="120.58796998812899"><ele>31.000000000000004</ele><time>2026-04-18T09:49:57Z</time></trkpt><trkpt lat="15.612912849733178" lon="120.58794792401257"><ele>31.0</ele><time>2026-04-18T09:50:11Z</time></trkpt><trkpt lat="15.612980987780352" lon="120.58795553427711"><ele>31.0</ele><time>2026-04-18T09:52:01Z</time></trkpt><trkpt lat="15.612951794035677" lon="120.58801727588114"><ele>31.000000000000004</ele><time>2026-04-18T09:57:54Z</time></trkpt><trkpt lat="15.613012215979074" lon="120.5879542448912"><ele>31.0</ele><time>2026-04-18T09:58:54Z</time></trkpt><trkpt lat="15.613056265102085" lon="120.58790711591116"><ele>31.0</ele><time>2026-04-18T09:58:57Z</time></trkpt><trkpt lat="15.613084586436699" lon="120.587832676027"><ele>31.000000000000004</ele><time>2026-04-18T09:59:01Z</time></trkpt><trkpt lat="15.613054345073143" lon="120.5877615885723"><ele>31.0</ele><time>2026-04-18T09:59:04Z</time></trkpt><trkpt lat="15.612997675560823" lon="120.58772426693649"><ele>31.0</ele><time>2026-04-18T09:59:07Z</time></trkpt><trkpt lat="15.612923459923962" lon="120.58769966086727"><ele>31.0</ele><time>2026-04-18T09:59:11Z</time></trkpt><trkpt lat="15.612860257311375" lon="120.58770144598097"><ele>31.000000000000004</ele><time>2026-04-18T09:59:13Z</time></trkpt><trkpt lat="15.612767176232555" lon="120.58771564133764"><ele>31.0</ele><time>2026-04-18T09:59:15Z</time></trkpt><trkpt lat="15.612657424189232" lon="120.58771362214128"><ele>31.000000000000004</ele><time>2026-04-18T09:59:17Z</time></trkpt><trkpt lat="15.612583490413174" lon="120.5877054858378"><ele>31.0</ele><time>2026-04-18T09:59:18Z</time></trkpt><trkpt lat="15.612507382175274" lon="120.58769757114656"><ele>31.0</ele><time>2026-04-18T09:59:19Z</time></trkpt><trkpt lat="15.612428834315761" lon="120.58768682538971"><ele>31.0</ele><time>2026-04-18T09:59:20Z</time></trkpt><trkpt lat="15.61234586680102" lon="120.58767565923792"><ele>31.000000000000004</ele><time>2026-04-18T09:59:21Z</time></trkpt><trkpt lat="15.612260373889393" lon="120.58766548760156"><ele>31.0</ele><time>2026-04-18T09:59:22Z</time></trkpt><trkpt lat="15.612170342165921" lon="120.58765333118842"><ele>31.0</ele><time>2026-04-18T09:59:23Z</time></trkpt><trkpt lat="15.612075184427518" lon="120.58763963000024"><ele>31.0</ele><time>2026-04-18T09:59:24Z</time></trkpt><trkpt lat="15.611977564609079" lon="120.58762745960975"><ele>31.0</ele><time>2026-04-18T09:59:25Z</time></trkpt><trkpt lat="15.611878972033999" lon="120.5876143714308"><ele>31.0</ele><time>2026-04-18T09:59:26Z</time></trkpt><trkpt lat="15.611782007339626" lon="120.5875999404302"><ele>31.0</ele><time>2026-04-18T09:59:27Z</time></trkpt><trkpt lat="15.611685685244941" lon="120.58758786823714"><ele>30.6</ele><time>2026-04-18T09:59:28Z</time></trkpt><trkpt lat="15.611592515049267" lon="120.58757778692686"><ele>30.200000000000003</ele><time>2026-04-18T09:59:29Z</time></trkpt><trkpt lat="15.61149873009568" lon="120.58757284532152"><ele>29.799999999999997</ele><time>2026-04-18T09:59:30Z</time></trkpt><trkpt lat="15.611406328154144" lon="120.58757293008172"><ele>29.4</ele><time>2026-04-18T09:59:31Z</time></trkpt><trkpt lat="15.611313655388244" lon="120.58758482265789"><ele>29.0</ele><time>2026-04-18T09:59:32Z</time></trkpt><trkpt lat="15.611222031858853" lon="120.58759979351082"><ele>29.2</ele><time>2026-04-18T09:59:33Z</time></trkpt><trkpt lat="15.611137654697746" lon="120.5876292924663"><ele>29.4</ele><time>2026-04-18T09:59:34Z</time></trkpt><trkpt lat="15.611046785439905" lon="120.58764957178006"><ele>29.6</ele><time>2026-04-18T09:59:35Z</time></trkpt><trkpt lat="15.610967744218508" lon="120.58769291714"><ele>29.8</ele><time>2026-04-18T09:59:36Z</time></trkpt><trkpt lat="15.610888104563282" lon="120.58774954918074"><ele>30.0</ele><time>2026-04-18T09:59:37Z</time></trkpt><trkpt lat="15.61081446072013" lon="120.5878103942924"><ele>29.833333333333332</ele><time>2026-04-18T09:59:38Z</time></trkpt><trkpt lat="15.610744305452712" lon="120.58787311413525"><ele>29.666666666666664</ele><time>2026-04-18T09:59:39Z</time></trkpt><trkpt lat="15.610686740295828" lon="120.58794938753447"><ele>29.5</ele><time>2026-04-18T09:59:40Z</time></trkpt><trkpt lat="15.610619456845159" lon="120.58800863427277"><ele>29.333333333333332</ele><time>2026-04-18T09:59:41Z</time></trkpt><trkpt lat="15.610560766669176" lon="120.58806560150742"><ele>29.166666666666664</ele><time>2026-04-18T09:59:42Z</time></trkpt><trkpt lat="15.610508387953663" lon="120.58811264418257"><ele>29.0</ele><time>2026-04-18T09:59:43Z</time></trkpt><trkpt lat="15.61042701514609" lon="120.58819231163373"><ele>29.0</ele><time>2026-04-18T09:59:45Z</time></trkpt><trkpt lat="15.610361171775091" lon="120.58823421210953"><ele>29.0</ele><time>2026-04-18T09:59:48Z</time></trkpt><trkpt lat="15.610293594682073" lon="120.58809683075137"><ele>29.0</ele><time>2026-04-18T09:59:55Z</time></trkpt><trkpt lat="15.61025067252944" lon="120.58801815559637"><ele>29.0</ele><time>2026-04-18T09:59:57Z</time></trkpt><trkpt lat="15.610229931902657" lon="120.58790797716321"><ele>29.0</ele><time>2026-04-18T09:59:59Z</time></trkpt><trkpt lat="15.61019186938839" lon="120.58778601913603"><ele>29.2</ele><time>2026-04-18T10:00:01Z</time></trkpt><trkpt lat="15.610166793313468" lon="120.5877221836215"><ele>29.4</ele><time>2026-04-18T10:00:02Z</time></trkpt><trkpt lat="15.610121374633513" lon="120.58761220368497"><ele>29.6</ele><time>2026-04-18T10:00:04Z</time></trkpt><trkpt lat="15.610085728994196" lon="120.58751658203182"><ele>29.8</ele><time>2026-04-18T10:00:06Z</time></trkpt><trkpt lat="15.610072628058342" lon="120.58743455523538"><ele>30.0</ele><time>2026-04-18T10:00:08Z</time></trkpt><trkpt lat="15.610058866596347" lon="120.58734037470938"><ele>30.0</ele><time>2026-04-18T10:00:10Z</time></trkpt><trkpt lat="15.610049856309796" lon="120.58722280628204"><ele>30.0</ele><time>2026-04-18T10:00:12Z</time></trkpt><trkpt lat="15.610041819215526" lon="120.58710000932344"><ele>30.0</ele><time>2026-04-18T10:00:14Z</time></trkpt><trkpt lat="15.610048190176322" lon="120.58698888679089"><ele>30.0</ele><time>2026-04-18T10:00:16Z</time></trkpt><trkpt lat="15.610044276670653" lon="120.5868913949188"><ele>30.0</ele><time>2026-04-18T10:00:18Z</time></trkpt><trkpt lat="15.6100365688506" lon="120.58680785116188"><ele>30.0</ele><time>2026-04-18T10:00:20Z</time></trkpt><trkpt lat="15.610032666062832" lon="120.58674008150784"><ele>30.0</ele><time>2026-04-18T10:00:26Z</time></trkpt><trkpt lat="15.610020950418873" lon="120.58666694635754"><ele>30.0</ele><time>2026-04-18T10:00:30Z</time></trkpt><trkpt lat="15.610015636134268" lon="120.58657997805986"><ele>30.0</ele><time>2026-04-18T10:00:32Z</time></trkpt><trkpt lat="15.610007992755458" lon="120.58646844301155"><ele>30.0</ele><time>2026-04-18T10:00:34Z</time></trkpt><trkpt lat="15.60998564606537" lon="120.58634491699316"><ele>30.0</ele><time>2026-04-18T10:00:36Z</time></trkpt><trkpt lat="15.609971359839719" lon="120.58628059842256"><ele>30.2</ele><time>2026-04-18T10:00:37Z</time></trkpt><trkpt lat="15.609944418030045" lon="120.58615937212076"><ele>30.4</ele><time>2026-04-18T10:00:39Z</time></trkpt><trkpt lat="15.60992182158855" lon="120.586056893248"><ele>30.6</ele><time>2026-04-18T10:00:41Z</time></trkpt><trkpt lat="15.609899168858012" lon="120.58595635388026"><ele>30.8</ele><time>2026-04-18T10:00:43Z</time></trkpt><trkpt lat="15.60986615775564" lon="120.58585139041378"><ele>31.0</ele><time>2026-04-18T10:00:45Z</time></trkpt><trkpt lat="15.60983620022291" lon="120.58575076172818"><ele>31.0</ele><time>2026-04-18T10:00:47Z</time></trkpt><trkpt lat="15.609819927723796" lon="120.58565086035934"><ele>31.0</ele><time>2026-04-18T10:00:49Z</time></trkpt><trkpt lat="15.609803851626696" lon="120.58555440021799"><ele>31.0</ele><time>2026-04-18T10:00:51Z</time></trkpt><trkpt lat="15.609773908511913" lon="120.58546058085348"><ele>31.0</ele><time>2026-04-18T10:00:53Z</time></trkpt><trkpt lat="15.609750428529367" lon="120.58536003398262"><ele>31.0</ele><time>2026-04-18T10:00:55Z</time></trkpt><trkpt lat="15.609738347949579" lon="120.58525870843961"><ele>31.200000000000003</ele><time>2026-04-18T10:00:57Z</time></trkpt><trkpt lat="15.609722784091428" lon="120.5851771030898"><ele>31.400000000000002</ele><time>2026-04-18T10:00:59Z</time></trkpt><trkpt lat="15.609695823797288" lon="120.58508863037596"><ele>31.6</ele><time>2026-04-18T10:01:01Z</time></trkpt><trkpt lat="15.609662251494647" lon="120.58497942050818"><ele>31.8</ele><time>2026-04-18T10:01:03Z</time></trkpt><trkpt lat="15.609630351442236" lon="120.58485623400158"><ele>32.0</ele><time>2026-04-18T10:01:05Z</time></trkpt><trkpt lat="15.609600971736267" lon="120.58473646517012"><ele>32.0</ele><time>2026-04-18T10:01:07Z</time></trkpt><trkpt lat="15.609565498133357" lon="120.58461415698504"><ele>32.0</ele><time>2026-04-18T10:01:09Z</time></trkpt><trkpt lat="15.609543146551419" lon="120.58449693261143"><ele>32.0</ele><time>2026-04-18T10:01:11Z</time></trkpt><trkpt lat="15.609521103071145" lon="120.58439622190616"><ele>32.0</ele><time>2026-04-18T10:01:13Z</time></trkpt><trkpt lat="15.60949920219882" lon="120.58431461557245"><ele>32.0</ele><time>2026-04-18T10:01:15Z</time></trkpt><trkpt lat="15.609488315951918" lon="120.58423977308475"><ele>32.0</ele><time>2026-04-18T10:01:17Z</time></trkpt><trkpt lat="15.609552972801326" lon="120.58421053012897"><ele>32.0</ele><time>2026-04-18T10:01:18Z</time></trkpt><trkpt lat="15.609630100824381" lon="120.58414136785143"><ele>32.0</ele><time>2026-04-18T10:01:20Z</time></trkpt><trkpt lat="15.60971946298166" lon="120.5840612679102"><ele>32.0</ele><time>2026-04-18T10:01:22Z</time></trkpt><trkpt lat="15.60979947062911" lon="120.58397459912693"><ele>32.0</ele><time>2026-04-18T10:01:24Z</time></trkpt><trkpt lat="15.609892737575123" lon="120.58389412688756"><ele>32.0</ele><time>2026-04-18T10:01:26Z</time></trkpt><trkpt lat="15.609982400032651" lon="120.58381874477448"><ele>32.0</ele><time>2026-04-18T10:01:28Z</time></trkpt><trkpt lat="15.610070243276814" lon="120.58375268145126"><ele>32.0</ele><time>2026-04-18T10:01:30Z</time></trkpt><trkpt lat="15.610166713560648" lon="120.5837041591761"><ele>32.0</ele><time>2026-04-18T10:01:32Z</time></trkpt><trkpt lat="15.610274645902951" lon="120.58368901600346"><ele>32.0</ele><time>2026-04-18T10:01:34Z</time></trkpt><trkpt lat="15.610370786006293" lon="120.58364357987722"><ele>31.8</ele><time>2026-04-18T10:01:36Z</time></trkpt><trkpt lat="15.610479191373534" lon="120.58363114571316"><ele>31.6</ele><time>2026-04-18T10:01:38Z</time></trkpt><trkpt lat="15.610584172299841" lon="120.5836085343164"><ele>31.400000000000002</ele><time>2026-04-18T10:01:40Z</time></trkpt><trkpt lat="15.610682714692102" lon="120.58358309898179"><ele>31.200000000000003</ele><time>2026-04-18T10:01:42Z</time></trkpt><trkpt lat="15.610757839114061" lon="120.58356211981081"><ele>31.0</ele><time>2026-04-18T10:01:44Z</time></trkpt><trkpt lat="15.610839977137461" lon="120.58353898438325"><ele>31.0</ele><time>2026-04-18T10:01:46Z</time></trkpt><trkpt lat="15.61092856439636" lon="120.5835109010936"><ele>31.0</ele><time>2026-04-18T10:01:48Z</time></trkpt><trkpt lat="15.611023566810182" lon="120.58348246712106"><ele>31.0</ele><time>2026-04-18T10:01:50Z</time></trkpt><trkpt lat="15.611131258819574" lon="120.58344665908733"><ele>31.0</ele><time>2026-04-18T10:01:52Z</time></trkpt><trkpt lat="15.611231833888306" lon="120.58340522033734"><ele>31.0</ele><time>2026-04-18T10:01:54Z</time></trkpt><trkpt lat="15.611328467850242" lon="120.58337852409338"><ele>30.6</ele><time>2026-04-18T10:01:56Z</time></trkpt><trkpt lat="15.611411894046752" lon="120.58334531301732"><ele>30.200000000000003</ele><time>2026-04-18T10:01:58Z</time></trkpt><trkpt lat="15.611501591229088" lon="120.58330746480337"><ele>29.799999999999997</ele><time>2026-04-18T10:02:00Z</time></trkpt><trkpt lat="15.611596232061297" lon="120.58328232510078"><ele>29.4</ele><time>2026-04-18T10:02:02Z</time></trkpt><trkpt lat="15.61169426807628" lon="120.58324755284282"><ele>29.0</ele><time>2026-04-18T10:02:04Z</time></trkpt><trkpt lat="15.611813519656204" lon="120.5832134154159"><ele>29.000000000000004</ele><time>2026-04-18T10:02:06Z</time></trkpt><trkpt lat="15.611875910697105" lon="120.58319180506129"><ele>29.0</ele><time>2026-04-18T10:02:07Z</time></trkpt><trkpt lat="15.61193965882262" lon="120.58317080627351"><ele>29.000000000000004</ele><time>2026-04-18T10:02:08Z</time></trkpt><trkpt lat="15.612004216928451" lon="120.58314817347507"><ele>29.000000000000004</ele><time>2026-04-18T10:02:09Z</time></trkpt><trkpt lat="15.612069941737957" lon="120.58313251543159"><ele>29.0</ele><time>2026-04-18T10:02:10Z</time></trkpt><trkpt lat="15.612134031309926" lon="120.58311745244063"><ele>29.000000000000004</ele><time>2026-04-18T10:02:11Z</time></trkpt><trkpt lat="15.612197425481734" lon="120.58310143795592"><ele>29.000000000000004</ele><time>2026-04-18T10:02:12Z</time></trkpt><trkpt lat="15.612259632079258" lon="120.5830840370376"><ele>29.5</ele><time>2026-04-18T10:02:13Z</time></trkpt><trkpt lat="15.61237228440159" lon="120.58304657633995"><ele>30.0</ele><time>2026-04-18T10:02:15Z</time></trkpt><trkpt lat="15.61248897767988" lon="120.58301561231455"><ele>30.5</ele><time>2026-04-18T10:02:17Z</time></trkpt><trkpt lat="15.612608484323385" lon="120.58298697327032"><ele>31.0</ele><time>2026-04-18T10:02:19Z</time></trkpt><trkpt lat="15.612718673036609" lon="120.58295887183131"><ele>31.0</ele><time>2026-04-18T10:02:21Z</time></trkpt><trkpt lat="15.612803265512817" lon="120.58293408345924"><ele>31.0</ele><time>2026-04-18T10:02:23Z</time></trkpt><trkpt lat="15.612866393110298" lon="120.58293426432857"><ele>31.0</ele><time>2026-04-18T10:02:27Z</time></trkpt><trkpt lat="15.612861969042559" lon="120.58312258514903"><ele>31.0</ele><time>2026-04-18T10:03:42Z</time></trkpt><trkpt lat="15.612968449379595" lon="120.58311148935438"><ele>31.0</ele><time>2026-04-18T10:03:56Z</time></trkpt><trkpt lat="15.613016724292184" lon="120.58316714492094"><ele>29.0</ele><time>2026-04-18T10:04:11Z</time></trkpt></trkseg></trk></gpx>